<?xml version="1.0" encoding="UTF-8" standalone="no" ?>
<gpx xmlns="http://www.topografix.com/GPX/1/1" xmlns:xsi="http://www.w3.org/2001/XMLSchema-instance" xsi:schemaLocation="http://www.topografix.com/GPX/1/1 http://www.topografix.com/GPX/1/1/gpx.xsd" version="1.1" creator="VisuGPX - https://www.visugpx.com">
  <metadata>
    <name>Manival   Marika   Pierre grosse   torrent de l\'aiguille   Bec du corbeau   Vierge noire</name>
    <desc><![CDATA[Manival   Marika   Pierre grosse   torrent de l\'aiguille   Bec du corbeau   Vierge noire]]></desc>
  </metadata>
  <trk>
    <name><![CDATA[Manival+marika&co+vierge-noire]]></name>
    <desc><![CDATA[]]></desc>
    <trkseg>
      <trkpt lat="45.29133" lon="5.8593">
        <ele>1040.3</ele>
        <time>2011-10-16T08:23:52Z</time>
      </trkpt>
      <trkpt lat="45.29133" lon="5.8593">
        <ele>1040.3</ele>
        <time>2011-10-16T08:23:52Z</time>
      </trkpt>
      <trkpt lat="45.29133" lon="5.8593">
        <ele>1040.3</ele>
        <time>2011-10-16T08:24:07Z</time>
      </trkpt>
      <trkpt lat="45.2913" lon="5.85925">
        <ele>1045.7</ele>
        <time>2011-10-16T08:24:08Z</time>
      </trkpt>
      <trkpt lat="45.29134" lon="5.85919">
        <ele>1045.6</ele>
        <time>2011-10-16T08:24:52Z</time>
      </trkpt>
      <trkpt lat="45.29138" lon="5.85911">
        <ele>1045.9</ele>
        <time>2011-10-16T08:24:55Z</time>
      </trkpt>
      <trkpt lat="45.29138" lon="5.85902">
        <ele>1046</ele>
        <time>2011-10-16T08:24:58Z</time>
      </trkpt>
      <trkpt lat="45.29141" lon="5.85896">
        <ele>1046.2</ele>
        <time>2011-10-16T08:25:00Z</time>
      </trkpt>
      <trkpt lat="45.29143" lon="5.85889">
        <ele>1047.5</ele>
        <time>2011-10-16T08:25:11Z</time>
      </trkpt>
      <trkpt lat="45.29137" lon="5.85882">
        <ele>1050.5</ele>
        <time>2011-10-16T08:25:36Z</time>
      </trkpt>
      <trkpt lat="45.29131" lon="5.85881">
        <ele>1050.6</ele>
        <time>2011-10-16T08:25:40Z</time>
      </trkpt>
      <trkpt lat="45.29126" lon="5.85876">
        <ele>1050.2</ele>
        <time>2011-10-16T08:25:42Z</time>
      </trkpt>
      <trkpt lat="45.29118" lon="5.85873">
        <ele>1049.3</ele>
        <time>2011-10-16T08:25:44Z</time>
      </trkpt>
      <trkpt lat="45.29109" lon="5.85871">
        <ele>1048.4</ele>
        <time>2011-10-16T08:25:46Z</time>
      </trkpt>
      <trkpt lat="45.29104" lon="5.8587">
        <ele>1048.2</ele>
        <time>2011-10-16T08:25:47Z</time>
      </trkpt>
      <trkpt lat="45.29099" lon="5.85868">
        <ele>1047.9</ele>
        <time>2011-10-16T08:25:48Z</time>
      </trkpt>
      <trkpt lat="45.29094" lon="5.85867">
        <ele>1047.5</ele>
        <time>2011-10-16T08:25:49Z</time>
      </trkpt>
      <trkpt lat="45.29088" lon="5.85865">
        <ele>1047.2</ele>
        <time>2011-10-16T08:25:50Z</time>
      </trkpt>
      <trkpt lat="45.29082" lon="5.85864">
        <ele>1046.7</ele>
        <time>2011-10-16T08:25:51Z</time>
      </trkpt>
      <trkpt lat="45.29076" lon="5.85864">
        <ele>1046.4</ele>
        <time>2011-10-16T08:25:52Z</time>
      </trkpt>
      <trkpt lat="45.2907" lon="5.85864">
        <ele>1045.8</ele>
        <time>2011-10-16T08:25:53Z</time>
      </trkpt>
      <trkpt lat="45.29063" lon="5.85865">
        <ele>1045.1</ele>
        <time>2011-10-16T08:25:54Z</time>
      </trkpt>
      <trkpt lat="45.29055" lon="5.85865">
        <ele>1044.3</ele>
        <time>2011-10-16T08:25:55Z</time>
      </trkpt>
      <trkpt lat="45.29048" lon="5.85862">
        <ele>1043.4</ele>
        <time>2011-10-16T08:25:56Z</time>
      </trkpt>
      <trkpt lat="45.29041" lon="5.85856">
        <ele>1042.5</ele>
        <time>2011-10-16T08:25:57Z</time>
      </trkpt>
      <trkpt lat="45.29036" lon="5.85846">
        <ele>1041.9</ele>
        <time>2011-10-16T08:25:58Z</time>
      </trkpt>
      <trkpt lat="45.29034" lon="5.85835">
        <ele>1041.5</ele>
        <time>2011-10-16T08:25:59Z</time>
      </trkpt>
      <trkpt lat="45.29035" lon="5.85824">
        <ele>1041.2</ele>
        <time>2011-10-16T08:26:00Z</time>
      </trkpt>
      <trkpt lat="45.29038" lon="5.85814">
        <ele>1040.7</ele>
        <time>2011-10-16T08:26:01Z</time>
      </trkpt>
      <trkpt lat="45.29043" lon="5.85805">
        <ele>1040.4</ele>
        <time>2011-10-16T08:26:02Z</time>
      </trkpt>
      <trkpt lat="45.29048" lon="5.85797">
        <ele>1040.2</ele>
        <time>2011-10-16T08:26:03Z</time>
      </trkpt>
      <trkpt lat="45.29053" lon="5.85789">
        <ele>1039.7</ele>
        <time>2011-10-16T08:26:04Z</time>
      </trkpt>
      <trkpt lat="45.29058" lon="5.8578">
        <ele>1039.2</ele>
        <time>2011-10-16T08:26:05Z</time>
      </trkpt>
      <trkpt lat="45.29063" lon="5.85769">
        <ele>1038.4</ele>
        <time>2011-10-16T08:26:06Z</time>
      </trkpt>
      <trkpt lat="45.29066" lon="5.85758">
        <ele>1037.5</ele>
        <time>2011-10-16T08:26:07Z</time>
      </trkpt>
      <trkpt lat="45.29067" lon="5.85744">
        <ele>1036.6</ele>
        <time>2011-10-16T08:26:08Z</time>
      </trkpt>
      <trkpt lat="45.29068" lon="5.85731">
        <ele>1035.6</ele>
        <time>2011-10-16T08:26:09Z</time>
      </trkpt>
      <trkpt lat="45.29069" lon="5.85716">
        <ele>1034.6</ele>
        <time>2011-10-16T08:26:10Z</time>
      </trkpt>
      <trkpt lat="45.2907" lon="5.85703">
        <ele>1033.7</ele>
        <time>2011-10-16T08:26:11Z</time>
      </trkpt>
      <trkpt lat="45.29071" lon="5.85689">
        <ele>1033</ele>
        <time>2011-10-16T08:26:12Z</time>
      </trkpt>
      <trkpt lat="45.29071" lon="5.85676">
        <ele>1032.3</ele>
        <time>2011-10-16T08:26:13Z</time>
      </trkpt>
      <trkpt lat="45.29071" lon="5.85663">
        <ele>1031.7</ele>
        <time>2011-10-16T08:26:14Z</time>
      </trkpt>
      <trkpt lat="45.29071" lon="5.8565">
        <ele>1031.2</ele>
        <time>2011-10-16T08:26:15Z</time>
      </trkpt>
      <trkpt lat="45.29069" lon="5.85638">
        <ele>1030.7</ele>
        <time>2011-10-16T08:26:16Z</time>
      </trkpt>
      <trkpt lat="45.29066" lon="5.85626">
        <ele>1030.3</ele>
        <time>2011-10-16T08:26:17Z</time>
      </trkpt>
      <trkpt lat="45.29063" lon="5.85615">
        <ele>1030</ele>
        <time>2011-10-16T08:26:18Z</time>
      </trkpt>
      <trkpt lat="45.29058" lon="5.85604">
        <ele>1029.6</ele>
        <time>2011-10-16T08:26:19Z</time>
      </trkpt>
      <trkpt lat="45.29054" lon="5.85594">
        <ele>1029.4</ele>
        <time>2011-10-16T08:26:20Z</time>
      </trkpt>
      <trkpt lat="45.29051" lon="5.85583">
        <ele>1029.1</ele>
        <time>2011-10-16T08:26:21Z</time>
      </trkpt>
      <trkpt lat="45.29049" lon="5.85572">
        <ele>1028.8</ele>
        <time>2011-10-16T08:26:22Z</time>
      </trkpt>
      <trkpt lat="45.29048" lon="5.8556">
        <ele>1028.3</ele>
        <time>2011-10-16T08:26:23Z</time>
      </trkpt>
      <trkpt lat="45.29049" lon="5.85548">
        <ele>1027.8</ele>
        <time>2011-10-16T08:26:24Z</time>
      </trkpt>
      <trkpt lat="45.2905" lon="5.85536">
        <ele>1027.1</ele>
        <time>2011-10-16T08:26:25Z</time>
      </trkpt>
      <trkpt lat="45.29051" lon="5.85525">
        <ele>1026.8</ele>
        <time>2011-10-16T08:26:26Z</time>
      </trkpt>
      <trkpt lat="45.29052" lon="5.85513">
        <ele>1026.5</ele>
        <time>2011-10-16T08:26:27Z</time>
      </trkpt>
      <trkpt lat="45.29053" lon="5.85501">
        <ele>1026.2</ele>
        <time>2011-10-16T08:26:28Z</time>
      </trkpt>
      <trkpt lat="45.29054" lon="5.8549">
        <ele>1025.8</ele>
        <time>2011-10-16T08:26:29Z</time>
      </trkpt>
      <trkpt lat="45.29055" lon="5.85478">
        <ele>1025.4</ele>
        <time>2011-10-16T08:26:30Z</time>
      </trkpt>
      <trkpt lat="45.29056" lon="5.85466">
        <ele>1025.1</ele>
        <time>2011-10-16T08:26:31Z</time>
      </trkpt>
      <trkpt lat="45.29057" lon="5.85454">
        <ele>1024.8</ele>
        <time>2011-10-16T08:26:32Z</time>
      </trkpt>
      <trkpt lat="45.29058" lon="5.85443">
        <ele>1024.4</ele>
        <time>2011-10-16T08:26:33Z</time>
      </trkpt>
      <trkpt lat="45.29059" lon="5.85431">
        <ele>1024.3</ele>
        <time>2011-10-16T08:26:34Z</time>
      </trkpt>
      <trkpt lat="45.2906" lon="5.8542">
        <ele>1024.2</ele>
        <time>2011-10-16T08:26:35Z</time>
      </trkpt>
      <trkpt lat="45.29061" lon="5.85408">
        <ele>1024</ele>
        <time>2011-10-16T08:26:36Z</time>
      </trkpt>
      <trkpt lat="45.29062" lon="5.85396">
        <ele>1023.4</ele>
        <time>2011-10-16T08:26:37Z</time>
      </trkpt>
      <trkpt lat="45.29063" lon="5.85385">
        <ele>1023</ele>
        <time>2011-10-16T08:26:38Z</time>
      </trkpt>
      <trkpt lat="45.29064" lon="5.85373">
        <ele>1022.8</ele>
        <time>2011-10-16T08:26:39Z</time>
      </trkpt>
      <trkpt lat="45.29065" lon="5.85362">
        <ele>1022.5</ele>
        <time>2011-10-16T08:26:40Z</time>
      </trkpt>
      <trkpt lat="45.29067" lon="5.8535">
        <ele>1022.1</ele>
        <time>2011-10-16T08:26:41Z</time>
      </trkpt>
      <trkpt lat="45.2907" lon="5.8534">
        <ele>1021.9</ele>
        <time>2011-10-16T08:26:42Z</time>
      </trkpt>
      <trkpt lat="45.29074" lon="5.85332">
        <ele>1021.8</ele>
        <time>2011-10-16T08:26:43Z</time>
      </trkpt>
      <trkpt lat="45.2908" lon="5.85326">
        <ele>1021.6</ele>
        <time>2011-10-16T08:26:44Z</time>
      </trkpt>
      <trkpt lat="45.29087" lon="5.85323">
        <ele>1021.6</ele>
        <time>2011-10-16T08:26:45Z</time>
      </trkpt>
      <trkpt lat="45.29094" lon="5.85321">
        <ele>1021.6</ele>
        <time>2011-10-16T08:26:46Z</time>
      </trkpt>
      <trkpt lat="45.29101" lon="5.85321">
        <ele>1022</ele>
        <time>2011-10-16T08:26:47Z</time>
      </trkpt>
      <trkpt lat="45.29108" lon="5.8532">
        <ele>1022.5</ele>
        <time>2011-10-16T08:26:48Z</time>
      </trkpt>
      <trkpt lat="45.29115" lon="5.85319">
        <ele>1022.6</ele>
        <time>2011-10-16T08:26:49Z</time>
      </trkpt>
      <trkpt lat="45.29121" lon="5.85316">
        <ele>1022.9</ele>
        <time>2011-10-16T08:26:50Z</time>
      </trkpt>
      <trkpt lat="45.29128" lon="5.85312">
        <ele>1022.9</ele>
        <time>2011-10-16T08:26:51Z</time>
      </trkpt>
      <trkpt lat="45.29134" lon="5.85309">
        <ele>1022.5</ele>
        <time>2011-10-16T08:26:52Z</time>
      </trkpt>
      <trkpt lat="45.2914" lon="5.85306">
        <ele>1022.8</ele>
        <time>2011-10-16T08:26:53Z</time>
      </trkpt>
      <trkpt lat="45.29146" lon="5.85303">
        <ele>1022.8</ele>
        <time>2011-10-16T08:26:54Z</time>
      </trkpt>
      <trkpt lat="45.29153" lon="5.85301">
        <ele>1023</ele>
        <time>2011-10-16T08:26:55Z</time>
      </trkpt>
      <trkpt lat="45.2916" lon="5.85301">
        <ele>1023.1</ele>
        <time>2011-10-16T08:26:56Z</time>
      </trkpt>
      <trkpt lat="45.29167" lon="5.85301">
        <ele>1023.1</ele>
        <time>2011-10-16T08:26:57Z</time>
      </trkpt>
      <trkpt lat="45.29174" lon="5.85302">
        <ele>1023.1</ele>
        <time>2011-10-16T08:26:58Z</time>
      </trkpt>
      <trkpt lat="45.2918" lon="5.85302">
        <ele>1023.3</ele>
        <time>2011-10-16T08:26:59Z</time>
      </trkpt>
      <trkpt lat="45.29187" lon="5.85301">
        <ele>1023.9</ele>
        <time>2011-10-16T08:27:00Z</time>
      </trkpt>
      <trkpt lat="45.29194" lon="5.853">
        <ele>1023.9</ele>
        <time>2011-10-16T08:27:01Z</time>
      </trkpt>
      <trkpt lat="45.29201" lon="5.85298">
        <ele>1024.3</ele>
        <time>2011-10-16T08:27:02Z</time>
      </trkpt>
      <trkpt lat="45.29207" lon="5.85296">
        <ele>1024.3</ele>
        <time>2011-10-16T08:27:03Z</time>
      </trkpt>
      <trkpt lat="45.29214" lon="5.85292">
        <ele>1024.6</ele>
        <time>2011-10-16T08:27:04Z</time>
      </trkpt>
      <trkpt lat="45.2922" lon="5.85288">
        <ele>1025</ele>
        <time>2011-10-16T08:27:05Z</time>
      </trkpt>
      <trkpt lat="45.29226" lon="5.85283">
        <ele>1025.1</ele>
        <time>2011-10-16T08:27:06Z</time>
      </trkpt>
      <trkpt lat="45.29232" lon="5.85277">
        <ele>1025.4</ele>
        <time>2011-10-16T08:27:07Z</time>
      </trkpt>
      <trkpt lat="45.29237" lon="5.85271">
        <ele>1026</ele>
        <time>2011-10-16T08:27:08Z</time>
      </trkpt>
      <trkpt lat="45.29242" lon="5.85265">
        <ele>1026.2</ele>
        <time>2011-10-16T08:27:09Z</time>
      </trkpt>
      <trkpt lat="45.29246" lon="5.85257">
        <ele>1026.4</ele>
        <time>2011-10-16T08:27:10Z</time>
      </trkpt>
      <trkpt lat="45.29248" lon="5.85249">
        <ele>1025.9</ele>
        <time>2011-10-16T08:27:11Z</time>
      </trkpt>
      <trkpt lat="45.29248" lon="5.8524">
        <ele>1024.3</ele>
        <time>2011-10-16T08:27:12Z</time>
      </trkpt>
      <trkpt lat="45.29247" lon="5.85232">
        <ele>1023.2</ele>
        <time>2011-10-16T08:27:13Z</time>
      </trkpt>
      <trkpt lat="45.29244" lon="5.85223">
        <ele>1022.4</ele>
        <time>2011-10-16T08:27:14Z</time>
      </trkpt>
      <trkpt lat="45.29241" lon="5.85215">
        <ele>1021.3</ele>
        <time>2011-10-16T08:27:15Z</time>
      </trkpt>
      <trkpt lat="45.29237" lon="5.85208">
        <ele>1020.9</ele>
        <time>2011-10-16T08:27:16Z</time>
      </trkpt>
      <trkpt lat="45.29231" lon="5.85204">
        <ele>1019</ele>
        <time>2011-10-16T08:27:17Z</time>
      </trkpt>
      <trkpt lat="45.29225" lon="5.85199">
        <ele>1018.6</ele>
        <time>2011-10-16T08:27:18Z</time>
      </trkpt>
      <trkpt lat="45.29219" lon="5.85195">
        <ele>1018.3</ele>
        <time>2011-10-16T08:27:19Z</time>
      </trkpt>
      <trkpt lat="45.29212" lon="5.85191">
        <ele>1018</ele>
        <time>2011-10-16T08:27:20Z</time>
      </trkpt>
      <trkpt lat="45.29205" lon="5.85188">
        <ele>1018</ele>
        <time>2011-10-16T08:27:21Z</time>
      </trkpt>
      <trkpt lat="45.29197" lon="5.85185">
        <ele>1017.9</ele>
        <time>2011-10-16T08:27:22Z</time>
      </trkpt>
      <trkpt lat="45.2919" lon="5.85182">
        <ele>1017.8</ele>
        <time>2011-10-16T08:27:23Z</time>
      </trkpt>
      <trkpt lat="45.29183" lon="5.8518">
        <ele>1017.7</ele>
        <time>2011-10-16T08:27:24Z</time>
      </trkpt>
      <trkpt lat="45.29175" lon="5.85178">
        <ele>1017.7</ele>
        <time>2011-10-16T08:27:25Z</time>
      </trkpt>
      <trkpt lat="45.29167" lon="5.85176">
        <ele>1017.7</ele>
        <time>2011-10-16T08:27:26Z</time>
      </trkpt>
      <trkpt lat="45.2916" lon="5.85174">
        <ele>1017.9</ele>
        <time>2011-10-16T08:27:27Z</time>
      </trkpt>
      <trkpt lat="45.29152" lon="5.85173">
        <ele>1018.1</ele>
        <time>2011-10-16T08:27:28Z</time>
      </trkpt>
      <trkpt lat="45.29145" lon="5.85172">
        <ele>1018.3</ele>
        <time>2011-10-16T08:27:29Z</time>
      </trkpt>
      <trkpt lat="45.29137" lon="5.85171">
        <ele>1018.5</ele>
        <time>2011-10-16T08:27:30Z</time>
      </trkpt>
      <trkpt lat="45.2913" lon="5.85168">
        <ele>1017.9</ele>
        <time>2011-10-16T08:27:31Z</time>
      </trkpt>
      <trkpt lat="45.29123" lon="5.85166">
        <ele>1018</ele>
        <time>2011-10-16T08:27:32Z</time>
      </trkpt>
      <trkpt lat="45.29116" lon="5.85163">
        <ele>1018.5</ele>
        <time>2011-10-16T08:27:33Z</time>
      </trkpt>
      <trkpt lat="45.29108" lon="5.85161">
        <ele>1019.2</ele>
        <time>2011-10-16T08:27:34Z</time>
      </trkpt>
      <trkpt lat="45.29101" lon="5.85159">
        <ele>1020.3</ele>
        <time>2011-10-16T08:27:35Z</time>
      </trkpt>
      <trkpt lat="45.29094" lon="5.85157">
        <ele>1020.7</ele>
        <time>2011-10-16T08:27:36Z</time>
      </trkpt>
      <trkpt lat="45.29087" lon="5.85155">
        <ele>1021</ele>
        <time>2011-10-16T08:27:37Z</time>
      </trkpt>
      <trkpt lat="45.2908" lon="5.85152">
        <ele>1020.3</ele>
        <time>2011-10-16T08:27:38Z</time>
      </trkpt>
      <trkpt lat="45.29073" lon="5.85149">
        <ele>1019.9</ele>
        <time>2011-10-16T08:27:39Z</time>
      </trkpt>
      <trkpt lat="45.29067" lon="5.85147">
        <ele>1019.7</ele>
        <time>2011-10-16T08:27:40Z</time>
      </trkpt>
      <trkpt lat="45.2906" lon="5.85145">
        <ele>1019.1</ele>
        <time>2011-10-16T08:27:41Z</time>
      </trkpt>
      <trkpt lat="45.29053" lon="5.85142">
        <ele>1017.6</ele>
        <time>2011-10-16T08:27:42Z</time>
      </trkpt>
      <trkpt lat="45.29047" lon="5.85141">
        <ele>1016.6</ele>
        <time>2011-10-16T08:27:43Z</time>
      </trkpt>
      <trkpt lat="45.2904" lon="5.85139">
        <ele>1015.5</ele>
        <time>2011-10-16T08:27:44Z</time>
      </trkpt>
      <trkpt lat="45.29032" lon="5.85138">
        <ele>1014.9</ele>
        <time>2011-10-16T08:27:45Z</time>
      </trkpt>
      <trkpt lat="45.29025" lon="5.85135">
        <ele>1014</ele>
        <time>2011-10-16T08:27:46Z</time>
      </trkpt>
      <trkpt lat="45.29018" lon="5.85132">
        <ele>1013.3</ele>
        <time>2011-10-16T08:27:47Z</time>
      </trkpt>
      <trkpt lat="45.29011" lon="5.85126">
        <ele>1012.7</ele>
        <time>2011-10-16T08:27:48Z</time>
      </trkpt>
      <trkpt lat="45.29005" lon="5.8512">
        <ele>1012.4</ele>
        <time>2011-10-16T08:27:49Z</time>
      </trkpt>
      <trkpt lat="45.28999" lon="5.85113">
        <ele>1011.7</ele>
        <time>2011-10-16T08:27:50Z</time>
      </trkpt>
      <trkpt lat="45.28993" lon="5.85105">
        <ele>1010.8</ele>
        <time>2011-10-16T08:27:51Z</time>
      </trkpt>
      <trkpt lat="45.28987" lon="5.85097">
        <ele>1010.2</ele>
        <time>2011-10-16T08:27:52Z</time>
      </trkpt>
      <trkpt lat="45.28981" lon="5.85088">
        <ele>1009.5</ele>
        <time>2011-10-16T08:27:53Z</time>
      </trkpt>
      <trkpt lat="45.28975" lon="5.85079">
        <ele>1008.8</ele>
        <time>2011-10-16T08:27:54Z</time>
      </trkpt>
      <trkpt lat="45.28969" lon="5.8507">
        <ele>1008.2</ele>
        <time>2011-10-16T08:27:55Z</time>
      </trkpt>
      <trkpt lat="45.28963" lon="5.85061">
        <ele>1007.8</ele>
        <time>2011-10-16T08:27:56Z</time>
      </trkpt>
      <trkpt lat="45.28957" lon="5.85052">
        <ele>1007.3</ele>
        <time>2011-10-16T08:27:57Z</time>
      </trkpt>
      <trkpt lat="45.28953" lon="5.85042">
        <ele>1007.1</ele>
        <time>2011-10-16T08:27:58Z</time>
      </trkpt>
      <trkpt lat="45.28949" lon="5.85031">
        <ele>1006.9</ele>
        <time>2011-10-16T08:27:59Z</time>
      </trkpt>
      <trkpt lat="45.28948" lon="5.85018">
        <ele>1006.7</ele>
        <time>2011-10-16T08:28:00Z</time>
      </trkpt>
      <trkpt lat="45.28949" lon="5.85005">
        <ele>1006.4</ele>
        <time>2011-10-16T08:28:01Z</time>
      </trkpt>
      <trkpt lat="45.2895" lon="5.84991">
        <ele>1006.3</ele>
        <time>2011-10-16T08:28:02Z</time>
      </trkpt>
      <trkpt lat="45.28952" lon="5.84978">
        <ele>1006.1</ele>
        <time>2011-10-16T08:28:03Z</time>
      </trkpt>
      <trkpt lat="45.28954" lon="5.84964">
        <ele>1005.2</ele>
        <time>2011-10-16T08:28:04Z</time>
      </trkpt>
      <trkpt lat="45.28955" lon="5.84951">
        <ele>1004.7</ele>
        <time>2011-10-16T08:28:05Z</time>
      </trkpt>
      <trkpt lat="45.28956" lon="5.84938">
        <ele>1004.5</ele>
        <time>2011-10-16T08:28:06Z</time>
      </trkpt>
      <trkpt lat="45.28956" lon="5.84926">
        <ele>1004.3</ele>
        <time>2011-10-16T08:28:07Z</time>
      </trkpt>
      <trkpt lat="45.28954" lon="5.84915">
        <ele>1004</ele>
        <time>2011-10-16T08:28:08Z</time>
      </trkpt>
      <trkpt lat="45.28947" lon="5.84908">
        <ele>1004</ele>
        <time>2011-10-16T08:28:09Z</time>
      </trkpt>
      <trkpt lat="45.28938" lon="5.8491">
        <ele>1003</ele>
        <time>2011-10-16T08:28:10Z</time>
      </trkpt>
      <trkpt lat="45.2893" lon="5.84913">
        <ele>1002.3</ele>
        <time>2011-10-16T08:28:11Z</time>
      </trkpt>
      <trkpt lat="45.28922" lon="5.84919">
        <ele>1002.1</ele>
        <time>2011-10-16T08:28:12Z</time>
      </trkpt>
      <trkpt lat="45.28914" lon="5.84924">
        <ele>1001.8</ele>
        <time>2011-10-16T08:28:13Z</time>
      </trkpt>
      <trkpt lat="45.28906" lon="5.84931">
        <ele>1001.7</ele>
        <time>2011-10-16T08:28:14Z</time>
      </trkpt>
      <trkpt lat="45.28899" lon="5.84937">
        <ele>1001.2</ele>
        <time>2011-10-16T08:28:15Z</time>
      </trkpt>
      <trkpt lat="45.28891" lon="5.84943">
        <ele>1001.2</ele>
        <time>2011-10-16T08:28:16Z</time>
      </trkpt>
      <trkpt lat="45.28883" lon="5.8495">
        <ele>1001.3</ele>
        <time>2011-10-16T08:28:17Z</time>
      </trkpt>
      <trkpt lat="45.28876" lon="5.84956">
        <ele>1000.7</ele>
        <time>2011-10-16T08:28:18Z</time>
      </trkpt>
      <trkpt lat="45.28868" lon="5.84962">
        <ele>1000</ele>
        <time>2011-10-16T08:28:19Z</time>
      </trkpt>
      <trkpt lat="45.2886" lon="5.84966">
        <ele>999.2</ele>
        <time>2011-10-16T08:28:20Z</time>
      </trkpt>
      <trkpt lat="45.28851" lon="5.8497">
        <ele>999.1</ele>
        <time>2011-10-16T08:28:21Z</time>
      </trkpt>
      <trkpt lat="45.28843" lon="5.84976">
        <ele>999.1</ele>
        <time>2011-10-16T08:28:22Z</time>
      </trkpt>
      <trkpt lat="45.28838" lon="5.84985">
        <ele>999.2</ele>
        <time>2011-10-16T08:28:23Z</time>
      </trkpt>
      <trkpt lat="45.28836" lon="5.84994">
        <ele>998.6</ele>
        <time>2011-10-16T08:28:24Z</time>
      </trkpt>
      <trkpt lat="45.28834" lon="5.85003">
        <ele>998.4</ele>
        <time>2011-10-16T08:28:25Z</time>
      </trkpt>
      <trkpt lat="45.28833" lon="5.85012">
        <ele>998.3</ele>
        <time>2011-10-16T08:28:26Z</time>
      </trkpt>
      <trkpt lat="45.28831" lon="5.85019">
        <ele>998.3</ele>
        <time>2011-10-16T08:28:27Z</time>
      </trkpt>
      <trkpt lat="45.28829" lon="5.85026">
        <ele>998.3</ele>
        <time>2011-10-16T08:28:28Z</time>
      </trkpt>
      <trkpt lat="45.28823" lon="5.85035">
        <ele>998.5</ele>
        <time>2011-10-16T08:28:30Z</time>
      </trkpt>
      <trkpt lat="45.28816" lon="5.8504">
        <ele>998.7</ele>
        <time>2011-10-16T08:28:32Z</time>
      </trkpt>
      <trkpt lat="45.2881" lon="5.85041">
        <ele>998.9</ele>
        <time>2011-10-16T08:28:34Z</time>
      </trkpt>
      <trkpt lat="45.28804" lon="5.85041">
        <ele>999.4</ele>
        <time>2011-10-16T08:28:36Z</time>
      </trkpt>
      <trkpt lat="45.28798" lon="5.85041">
        <ele>999.9</ele>
        <time>2011-10-16T08:28:38Z</time>
      </trkpt>
      <trkpt lat="45.28793" lon="5.85038">
        <ele>1000.7</ele>
        <time>2011-10-16T08:28:40Z</time>
      </trkpt>
      <trkpt lat="45.28788" lon="5.85036">
        <ele>1001.5</ele>
        <time>2011-10-16T08:28:42Z</time>
      </trkpt>
      <trkpt lat="45.28783" lon="5.85033">
        <ele>1002</ele>
        <time>2011-10-16T08:28:44Z</time>
      </trkpt>
      <trkpt lat="45.28779" lon="5.8503">
        <ele>1002.7</ele>
        <time>2011-10-16T08:28:46Z</time>
      </trkpt>
      <trkpt lat="45.28774" lon="5.85027">
        <ele>1003.7</ele>
        <time>2011-10-16T08:28:48Z</time>
      </trkpt>
      <trkpt lat="45.28769" lon="5.85025">
        <ele>1004.4</ele>
        <time>2011-10-16T08:28:50Z</time>
      </trkpt>
      <trkpt lat="45.28764" lon="5.85022">
        <ele>1005.2</ele>
        <time>2011-10-16T08:28:52Z</time>
      </trkpt>
      <trkpt lat="45.2876" lon="5.8502">
        <ele>1005.9</ele>
        <time>2011-10-16T08:28:54Z</time>
      </trkpt>
      <trkpt lat="45.28756" lon="5.85017">
        <ele>1006.7</ele>
        <time>2011-10-16T08:28:56Z</time>
      </trkpt>
      <trkpt lat="45.28751" lon="5.85014">
        <ele>1007.7</ele>
        <time>2011-10-16T08:28:58Z</time>
      </trkpt>
      <trkpt lat="45.28747" lon="5.8501">
        <ele>1008.3</ele>
        <time>2011-10-16T08:29:00Z</time>
      </trkpt>
      <trkpt lat="45.28744" lon="5.85005">
        <ele>1009</ele>
        <time>2011-10-16T08:29:02Z</time>
      </trkpt>
      <trkpt lat="45.28743" lon="5.84997">
        <ele>1010.1</ele>
        <time>2011-10-16T08:29:05Z</time>
      </trkpt>
      <trkpt lat="45.28746" lon="5.84989">
        <ele>1012</ele>
        <time>2011-10-16T08:29:08Z</time>
      </trkpt>
      <trkpt lat="45.2875" lon="5.84983">
        <ele>1014</ele>
        <time>2011-10-16T08:29:11Z</time>
      </trkpt>
      <trkpt lat="45.28754" lon="5.84978">
        <ele>1015.3</ele>
        <time>2011-10-16T08:29:14Z</time>
      </trkpt>
      <trkpt lat="45.28758" lon="5.84972">
        <ele>1016.4</ele>
        <time>2011-10-16T08:29:17Z</time>
      </trkpt>
      <trkpt lat="45.28762" lon="5.84966">
        <ele>1017.4</ele>
        <time>2011-10-16T08:29:20Z</time>
      </trkpt>
      <trkpt lat="45.28765" lon="5.84958">
        <ele>1018.3</ele>
        <time>2011-10-16T08:29:23Z</time>
      </trkpt>
      <trkpt lat="45.28768" lon="5.84951">
        <ele>1019.1</ele>
        <time>2011-10-16T08:29:26Z</time>
      </trkpt>
      <trkpt lat="45.2877" lon="5.84944">
        <ele>1019.9</ele>
        <time>2011-10-16T08:29:29Z</time>
      </trkpt>
      <trkpt lat="45.28771" lon="5.84937">
        <ele>1020.1</ele>
        <time>2011-10-16T08:29:32Z</time>
      </trkpt>
      <trkpt lat="45.28772" lon="5.84929">
        <ele>1020.4</ele>
        <time>2011-10-16T08:29:35Z</time>
      </trkpt>
      <trkpt lat="45.28773" lon="5.84921">
        <ele>1020.8</ele>
        <time>2011-10-16T08:29:38Z</time>
      </trkpt>
      <trkpt lat="45.28775" lon="5.84913">
        <ele>1021</ele>
        <time>2011-10-16T08:29:41Z</time>
      </trkpt>
      <trkpt lat="45.28776" lon="5.84907">
        <ele>1022</ele>
        <time>2011-10-16T08:29:43Z</time>
      </trkpt>
      <trkpt lat="45.28778" lon="5.84899">
        <ele>1022.6</ele>
        <time>2011-10-16T08:29:46Z</time>
      </trkpt>
      <trkpt lat="45.2878" lon="5.84891">
        <ele>1023.4</ele>
        <time>2011-10-16T08:29:49Z</time>
      </trkpt>
      <trkpt lat="45.28782" lon="5.84884">
        <ele>1023.7</ele>
        <time>2011-10-16T08:29:52Z</time>
      </trkpt>
      <trkpt lat="45.28785" lon="5.84877">
        <ele>1024.1</ele>
        <time>2011-10-16T08:29:55Z</time>
      </trkpt>
      <trkpt lat="45.28789" lon="5.84872">
        <ele>1024.5</ele>
        <time>2011-10-16T08:29:58Z</time>
      </trkpt>
      <trkpt lat="45.28793" lon="5.84866">
        <ele>1025</ele>
        <time>2011-10-16T08:30:01Z</time>
      </trkpt>
      <trkpt lat="45.28796" lon="5.8486">
        <ele>1025.6</ele>
        <time>2011-10-16T08:30:04Z</time>
      </trkpt>
      <trkpt lat="45.28801" lon="5.84854">
        <ele>1026</ele>
        <time>2011-10-16T08:30:07Z</time>
      </trkpt>
      <trkpt lat="45.28805" lon="5.84849">
        <ele>1026.5</ele>
        <time>2011-10-16T08:30:10Z</time>
      </trkpt>
      <trkpt lat="45.28809" lon="5.84843">
        <ele>1027.2</ele>
        <time>2011-10-16T08:30:13Z</time>
      </trkpt>
      <trkpt lat="45.28813" lon="5.84837">
        <ele>1027.8</ele>
        <time>2011-10-16T08:30:16Z</time>
      </trkpt>
      <trkpt lat="45.28818" lon="5.84832">
        <ele>1028.4</ele>
        <time>2011-10-16T08:30:19Z</time>
      </trkpt>
      <trkpt lat="45.28822" lon="5.84826">
        <ele>1029.1</ele>
        <time>2011-10-16T08:30:22Z</time>
      </trkpt>
      <trkpt lat="45.28827" lon="5.8482">
        <ele>1029.5</ele>
        <time>2011-10-16T08:30:25Z</time>
      </trkpt>
      <trkpt lat="45.28832" lon="5.84815">
        <ele>1029.7</ele>
        <time>2011-10-16T08:30:28Z</time>
      </trkpt>
      <trkpt lat="45.28838" lon="5.84812">
        <ele>1029.9</ele>
        <time>2011-10-16T08:30:31Z</time>
      </trkpt>
      <trkpt lat="45.28842" lon="5.84808">
        <ele>1030.7</ele>
        <time>2011-10-16T08:30:34Z</time>
      </trkpt>
      <trkpt lat="45.28848" lon="5.84804">
        <ele>1030.9</ele>
        <time>2011-10-16T08:30:37Z</time>
      </trkpt>
      <trkpt lat="45.28854" lon="5.84801">
        <ele>1031.3</ele>
        <time>2011-10-16T08:30:40Z</time>
      </trkpt>
      <trkpt lat="45.2886" lon="5.84799">
        <ele>1032</ele>
        <time>2011-10-16T08:30:43Z</time>
      </trkpt>
      <trkpt lat="45.28866" lon="5.84796">
        <ele>1032.5</ele>
        <time>2011-10-16T08:30:46Z</time>
      </trkpt>
      <trkpt lat="45.28872" lon="5.84793">
        <ele>1033.2</ele>
        <time>2011-10-16T08:30:49Z</time>
      </trkpt>
      <trkpt lat="45.28877" lon="5.8479">
        <ele>1034.1</ele>
        <time>2011-10-16T08:30:52Z</time>
      </trkpt>
      <trkpt lat="45.28883" lon="5.84788">
        <ele>1034.9</ele>
        <time>2011-10-16T08:30:55Z</time>
      </trkpt>
      <trkpt lat="45.28889" lon="5.84787">
        <ele>1035.3</ele>
        <time>2011-10-16T08:30:59Z</time>
      </trkpt>
      <trkpt lat="45.28895" lon="5.84785">
        <ele>1035.9</ele>
        <time>2011-10-16T08:31:02Z</time>
      </trkpt>
      <trkpt lat="45.28901" lon="5.84783">
        <ele>1036.5</ele>
        <time>2011-10-16T08:31:05Z</time>
      </trkpt>
      <trkpt lat="45.28907" lon="5.84783">
        <ele>1036.9</ele>
        <time>2011-10-16T08:31:08Z</time>
      </trkpt>
      <trkpt lat="45.28913" lon="5.84784">
        <ele>1037.3</ele>
        <time>2011-10-16T08:31:11Z</time>
      </trkpt>
      <trkpt lat="45.28918" lon="5.84784">
        <ele>1037.8</ele>
        <time>2011-10-16T08:31:14Z</time>
      </trkpt>
      <trkpt lat="45.28924" lon="5.84785">
        <ele>1038.4</ele>
        <time>2011-10-16T08:31:17Z</time>
      </trkpt>
      <trkpt lat="45.28929" lon="5.84784">
        <ele>1039</ele>
        <time>2011-10-16T08:31:20Z</time>
      </trkpt>
      <trkpt lat="45.28935" lon="5.84783">
        <ele>1039.5</ele>
        <time>2011-10-16T08:31:23Z</time>
      </trkpt>
      <trkpt lat="45.2894" lon="5.84779">
        <ele>1039.9</ele>
        <time>2011-10-16T08:31:26Z</time>
      </trkpt>
      <trkpt lat="45.28944" lon="5.84774">
        <ele>1040.5</ele>
        <time>2011-10-16T08:31:29Z</time>
      </trkpt>
      <trkpt lat="45.28948" lon="5.84769">
        <ele>1041.2</ele>
        <time>2011-10-16T08:31:32Z</time>
      </trkpt>
      <trkpt lat="45.28952" lon="5.84763">
        <ele>1041.9</ele>
        <time>2011-10-16T08:31:35Z</time>
      </trkpt>
      <trkpt lat="45.28956" lon="5.84757">
        <ele>1042.7</ele>
        <time>2011-10-16T08:31:38Z</time>
      </trkpt>
      <trkpt lat="45.28959" lon="5.84751">
        <ele>1043.6</ele>
        <time>2011-10-16T08:31:41Z</time>
      </trkpt>
      <trkpt lat="45.28963" lon="5.84745">
        <ele>1044</ele>
        <time>2011-10-16T08:31:44Z</time>
      </trkpt>
      <trkpt lat="45.28968" lon="5.8474">
        <ele>1044.4</ele>
        <time>2011-10-16T08:31:47Z</time>
      </trkpt>
      <trkpt lat="45.28972" lon="5.84735">
        <ele>1044.5</ele>
        <time>2011-10-16T08:31:50Z</time>
      </trkpt>
      <trkpt lat="45.28977" lon="5.84731">
        <ele>1044.6</ele>
        <time>2011-10-16T08:31:53Z</time>
      </trkpt>
      <trkpt lat="45.28982" lon="5.84729">
        <ele>1045.1</ele>
        <time>2011-10-16T08:31:56Z</time>
      </trkpt>
      <trkpt lat="45.28988" lon="5.84726">
        <ele>1045.1</ele>
        <time>2011-10-16T08:31:59Z</time>
      </trkpt>
      <trkpt lat="45.28994" lon="5.84726">
        <ele>1045.1</ele>
        <time>2011-10-16T08:32:02Z</time>
      </trkpt>
      <trkpt lat="45.29" lon="5.84725">
        <ele>1045.4</ele>
        <time>2011-10-16T08:32:05Z</time>
      </trkpt>
      <trkpt lat="45.29006" lon="5.84726">
        <ele>1045.8</ele>
        <time>2011-10-16T08:32:08Z</time>
      </trkpt>
      <trkpt lat="45.29013" lon="5.84727">
        <ele>1046.6</ele>
        <time>2011-10-16T08:32:11Z</time>
      </trkpt>
      <trkpt lat="45.29019" lon="5.84729">
        <ele>1047.6</ele>
        <time>2011-10-16T08:32:14Z</time>
      </trkpt>
      <trkpt lat="45.29024" lon="5.84732">
        <ele>1048.3</ele>
        <time>2011-10-16T08:32:17Z</time>
      </trkpt>
      <trkpt lat="45.29029" lon="5.84737">
        <ele>1048.9</ele>
        <time>2011-10-16T08:32:20Z</time>
      </trkpt>
      <trkpt lat="45.29034" lon="5.84742">
        <ele>1049.3</ele>
        <time>2011-10-16T08:32:23Z</time>
      </trkpt>
      <trkpt lat="45.29038" lon="5.84746">
        <ele>1049.8</ele>
        <time>2011-10-16T08:32:26Z</time>
      </trkpt>
      <trkpt lat="45.29043" lon="5.84753">
        <ele>1050.9</ele>
        <time>2011-10-16T08:32:33Z</time>
      </trkpt>
      <trkpt lat="45.29048" lon="5.84758">
        <ele>1052</ele>
        <time>2011-10-16T08:32:36Z</time>
      </trkpt>
      <trkpt lat="45.29052" lon="5.84762">
        <ele>1052.1</ele>
        <time>2011-10-16T08:32:38Z</time>
      </trkpt>
      <trkpt lat="45.29055" lon="5.84766">
        <ele>1052.2</ele>
        <time>2011-10-16T08:32:40Z</time>
      </trkpt>
      <trkpt lat="45.2906" lon="5.84772">
        <ele>1052.5</ele>
        <time>2011-10-16T08:32:43Z</time>
      </trkpt>
      <trkpt lat="45.29065" lon="5.84777">
        <ele>1053.4</ele>
        <time>2011-10-16T08:32:46Z</time>
      </trkpt>
      <trkpt lat="45.29071" lon="5.84781">
        <ele>1053.5</ele>
        <time>2011-10-16T08:32:49Z</time>
      </trkpt>
      <trkpt lat="45.29077" lon="5.84783">
        <ele>1053.4</ele>
        <time>2011-10-16T08:32:52Z</time>
      </trkpt>
      <trkpt lat="45.29083" lon="5.84785">
        <ele>1054</ele>
        <time>2011-10-16T08:32:55Z</time>
      </trkpt>
      <trkpt lat="45.29089" lon="5.84786">
        <ele>1055.1</ele>
        <time>2011-10-16T08:32:58Z</time>
      </trkpt>
      <trkpt lat="45.29095" lon="5.84786">
        <ele>1055.8</ele>
        <time>2011-10-16T08:33:01Z</time>
      </trkpt>
      <trkpt lat="45.29101" lon="5.84784">
        <ele>1056.5</ele>
        <time>2011-10-16T08:33:04Z</time>
      </trkpt>
      <trkpt lat="45.29108" lon="5.84782">
        <ele>1057.1</ele>
        <time>2011-10-16T08:33:07Z</time>
      </trkpt>
      <trkpt lat="45.29112" lon="5.84778">
        <ele>1057</ele>
        <time>2011-10-16T08:33:10Z</time>
      </trkpt>
      <trkpt lat="45.29115" lon="5.84771">
        <ele>1057.1</ele>
        <time>2011-10-16T08:33:13Z</time>
      </trkpt>
      <trkpt lat="45.29116" lon="5.84763">
        <ele>1057.6</ele>
        <time>2011-10-16T08:33:16Z</time>
      </trkpt>
      <trkpt lat="45.29113" lon="5.84754">
        <ele>1058</ele>
        <time>2011-10-16T08:33:19Z</time>
      </trkpt>
      <trkpt lat="45.29108" lon="5.84748">
        <ele>1058.1</ele>
        <time>2011-10-16T08:33:22Z</time>
      </trkpt>
      <trkpt lat="45.29105" lon="5.84744">
        <ele>1058.4</ele>
        <time>2011-10-16T08:33:24Z</time>
      </trkpt>
      <trkpt lat="45.291" lon="5.84737">
        <ele>1058.9</ele>
        <time>2011-10-16T08:33:27Z</time>
      </trkpt>
      <trkpt lat="45.29095" lon="5.84731">
        <ele>1059.3</ele>
        <time>2011-10-16T08:33:30Z</time>
      </trkpt>
      <trkpt lat="45.29091" lon="5.84725">
        <ele>1059.6</ele>
        <time>2011-10-16T08:33:33Z</time>
      </trkpt>
      <trkpt lat="45.29086" lon="5.84719">
        <ele>1060.2</ele>
        <time>2011-10-16T08:33:36Z</time>
      </trkpt>
      <trkpt lat="45.29082" lon="5.84712">
        <ele>1060.8</ele>
        <time>2011-10-16T08:33:39Z</time>
      </trkpt>
      <trkpt lat="45.29078" lon="5.84706">
        <ele>1061.4</ele>
        <time>2011-10-16T08:33:42Z</time>
      </trkpt>
      <trkpt lat="45.29073" lon="5.84699">
        <ele>1062.4</ele>
        <time>2011-10-16T08:33:45Z</time>
      </trkpt>
      <trkpt lat="45.29068" lon="5.84692">
        <ele>1062.9</ele>
        <time>2011-10-16T08:33:48Z</time>
      </trkpt>
      <trkpt lat="45.29064" lon="5.84686">
        <ele>1063.4</ele>
        <time>2011-10-16T08:33:51Z</time>
      </trkpt>
      <trkpt lat="45.2906" lon="5.84679">
        <ele>1064.1</ele>
        <time>2011-10-16T08:33:54Z</time>
      </trkpt>
      <trkpt lat="45.29054" lon="5.84674">
        <ele>1065.1</ele>
        <time>2011-10-16T08:33:57Z</time>
      </trkpt>
      <trkpt lat="45.29049" lon="5.84668">
        <ele>1065.9</ele>
        <time>2011-10-16T08:34:00Z</time>
      </trkpt>
      <trkpt lat="45.29044" lon="5.84664">
        <ele>1066.1</ele>
        <time>2011-10-16T08:34:03Z</time>
      </trkpt>
      <trkpt lat="45.29039" lon="5.8466">
        <ele>1067</ele>
        <time>2011-10-16T08:34:06Z</time>
      </trkpt>
      <trkpt lat="45.29033" lon="5.84656">
        <ele>1067.9</ele>
        <time>2011-10-16T08:34:09Z</time>
      </trkpt>
      <trkpt lat="45.29027" lon="5.84652">
        <ele>1068.5</ele>
        <time>2011-10-16T08:34:12Z</time>
      </trkpt>
      <trkpt lat="45.29023" lon="5.84649">
        <ele>1068.9</ele>
        <time>2011-10-16T08:34:14Z</time>
      </trkpt>
      <trkpt lat="45.29018" lon="5.84643">
        <ele>1069.3</ele>
        <time>2011-10-16T08:34:17Z</time>
      </trkpt>
      <trkpt lat="45.29014" lon="5.8464">
        <ele>1070</ele>
        <time>2011-10-16T08:34:19Z</time>
      </trkpt>
      <trkpt lat="45.2901" lon="5.84636">
        <ele>1070.5</ele>
        <time>2011-10-16T08:34:21Z</time>
      </trkpt>
      <trkpt lat="45.29005" lon="5.8463">
        <ele>1071.3</ele>
        <time>2011-10-16T08:34:24Z</time>
      </trkpt>
      <trkpt lat="45.29" lon="5.84624">
        <ele>1071.7</ele>
        <time>2011-10-16T08:34:27Z</time>
      </trkpt>
      <trkpt lat="45.28994" lon="5.84619">
        <ele>1071.6</ele>
        <time>2011-10-16T08:34:30Z</time>
      </trkpt>
      <trkpt lat="45.28989" lon="5.84613">
        <ele>1071.8</ele>
        <time>2011-10-16T08:34:33Z</time>
      </trkpt>
      <trkpt lat="45.28984" lon="5.84608">
        <ele>1072.2</ele>
        <time>2011-10-16T08:34:36Z</time>
      </trkpt>
      <trkpt lat="45.28978" lon="5.84602">
        <ele>1072.5</ele>
        <time>2011-10-16T08:34:39Z</time>
      </trkpt>
      <trkpt lat="45.28973" lon="5.84597">
        <ele>1072.6</ele>
        <time>2011-10-16T08:34:42Z</time>
      </trkpt>
      <trkpt lat="45.28968" lon="5.84591">
        <ele>1072.8</ele>
        <time>2011-10-16T08:34:45Z</time>
      </trkpt>
      <trkpt lat="45.28966" lon="5.84583">
        <ele>1072.9</ele>
        <time>2011-10-16T08:34:48Z</time>
      </trkpt>
      <trkpt lat="45.28968" lon="5.84575">
        <ele>1073</ele>
        <time>2011-10-16T08:34:51Z</time>
      </trkpt>
      <trkpt lat="45.28973" lon="5.84572">
        <ele>1073.4</ele>
        <time>2011-10-16T08:34:54Z</time>
      </trkpt>
      <trkpt lat="45.2898" lon="5.84575">
        <ele>1073.9</ele>
        <time>2011-10-16T08:34:57Z</time>
      </trkpt>
      <trkpt lat="45.28985" lon="5.84579">
        <ele>1074.6</ele>
        <time>2011-10-16T08:35:00Z</time>
      </trkpt>
      <trkpt lat="45.28991" lon="5.84584">
        <ele>1075.5</ele>
        <time>2011-10-16T08:35:03Z</time>
      </trkpt>
      <trkpt lat="45.28996" lon="5.84588">
        <ele>1076.4</ele>
        <time>2011-10-16T08:35:06Z</time>
      </trkpt>
      <trkpt lat="45.29002" lon="5.84592">
        <ele>1077.3</ele>
        <time>2011-10-16T08:35:09Z</time>
      </trkpt>
      <trkpt lat="45.29008" lon="5.84595">
        <ele>1078</ele>
        <time>2011-10-16T08:35:12Z</time>
      </trkpt>
      <trkpt lat="45.29012" lon="5.84596">
        <ele>1078.5</ele>
        <time>2011-10-16T08:35:14Z</time>
      </trkpt>
      <trkpt lat="45.29019" lon="5.84596">
        <ele>1078.5</ele>
        <time>2011-10-16T08:35:17Z</time>
      </trkpt>
      <trkpt lat="45.29023" lon="5.84595">
        <ele>1078.5</ele>
        <time>2011-10-16T08:35:19Z</time>
      </trkpt>
      <trkpt lat="45.29029" lon="5.84596">
        <ele>1078.7</ele>
        <time>2011-10-16T08:35:22Z</time>
      </trkpt>
      <trkpt lat="45.29036" lon="5.84596">
        <ele>1079.4</ele>
        <time>2011-10-16T08:35:25Z</time>
      </trkpt>
      <trkpt lat="45.29042" lon="5.84598">
        <ele>1079.6</ele>
        <time>2011-10-16T08:35:28Z</time>
      </trkpt>
      <trkpt lat="45.29048" lon="5.846">
        <ele>1080.1</ele>
        <time>2011-10-16T08:35:31Z</time>
      </trkpt>
      <trkpt lat="45.29054" lon="5.84602">
        <ele>1080.8</ele>
        <time>2011-10-16T08:35:34Z</time>
      </trkpt>
      <trkpt lat="45.29061" lon="5.84604">
        <ele>1081.4</ele>
        <time>2011-10-16T08:35:37Z</time>
      </trkpt>
      <trkpt lat="45.29068" lon="5.84606">
        <ele>1081.9</ele>
        <time>2011-10-16T08:35:40Z</time>
      </trkpt>
      <trkpt lat="45.29074" lon="5.84608">
        <ele>1082.4</ele>
        <time>2011-10-16T08:35:43Z</time>
      </trkpt>
      <trkpt lat="45.29078" lon="5.8461">
        <ele>1082.6</ele>
        <time>2011-10-16T08:35:45Z</time>
      </trkpt>
      <trkpt lat="45.29084" lon="5.84612">
        <ele>1082.9</ele>
        <time>2011-10-16T08:35:48Z</time>
      </trkpt>
      <trkpt lat="45.2909" lon="5.84615">
        <ele>1083.4</ele>
        <time>2011-10-16T08:35:51Z</time>
      </trkpt>
      <trkpt lat="45.29095" lon="5.84616">
        <ele>1083.8</ele>
        <time>2011-10-16T08:35:53Z</time>
      </trkpt>
      <trkpt lat="45.29101" lon="5.84618">
        <ele>1084.2</ele>
        <time>2011-10-16T08:35:56Z</time>
      </trkpt>
      <trkpt lat="45.29107" lon="5.8462">
        <ele>1084.5</ele>
        <time>2011-10-16T08:35:59Z</time>
      </trkpt>
      <trkpt lat="45.29113" lon="5.84621">
        <ele>1085.1</ele>
        <time>2011-10-16T08:36:02Z</time>
      </trkpt>
      <trkpt lat="45.29119" lon="5.8462">
        <ele>1085.5</ele>
        <time>2011-10-16T08:36:05Z</time>
      </trkpt>
      <trkpt lat="45.29123" lon="5.84617">
        <ele>1086.1</ele>
        <time>2011-10-16T08:36:07Z</time>
      </trkpt>
      <trkpt lat="45.29128" lon="5.84614">
        <ele>1086.6</ele>
        <time>2011-10-16T08:36:09Z</time>
      </trkpt>
      <trkpt lat="45.29133" lon="5.8461">
        <ele>1087.4</ele>
        <time>2011-10-16T08:36:12Z</time>
      </trkpt>
      <trkpt lat="45.29138" lon="5.84604">
        <ele>1088.2</ele>
        <time>2011-10-16T08:36:15Z</time>
      </trkpt>
      <trkpt lat="45.29142" lon="5.84599">
        <ele>1088.8</ele>
        <time>2011-10-16T08:36:18Z</time>
      </trkpt>
      <trkpt lat="45.29147" lon="5.84594">
        <ele>1089.4</ele>
        <time>2011-10-16T08:36:21Z</time>
      </trkpt>
      <trkpt lat="45.29151" lon="5.84589">
        <ele>1090.1</ele>
        <time>2011-10-16T08:36:24Z</time>
      </trkpt>
      <trkpt lat="45.29157" lon="5.84586">
        <ele>1090.9</ele>
        <time>2011-10-16T08:36:27Z</time>
      </trkpt>
      <trkpt lat="45.29163" lon="5.84584">
        <ele>1091.5</ele>
        <time>2011-10-16T08:36:30Z</time>
      </trkpt>
      <trkpt lat="45.29169" lon="5.84584">
        <ele>1091.9</ele>
        <time>2011-10-16T08:36:33Z</time>
      </trkpt>
      <trkpt lat="45.29175" lon="5.84584">
        <ele>1092.3</ele>
        <time>2011-10-16T08:36:36Z</time>
      </trkpt>
      <trkpt lat="45.29181" lon="5.84582">
        <ele>1092.6</ele>
        <time>2011-10-16T08:36:39Z</time>
      </trkpt>
      <trkpt lat="45.29185" lon="5.84577">
        <ele>1093.2</ele>
        <time>2011-10-16T08:36:42Z</time>
      </trkpt>
      <trkpt lat="45.29187" lon="5.84569">
        <ele>1093.6</ele>
        <time>2011-10-16T08:36:45Z</time>
      </trkpt>
      <trkpt lat="45.29185" lon="5.84561">
        <ele>1094</ele>
        <time>2011-10-16T08:36:48Z</time>
      </trkpt>
      <trkpt lat="45.29182" lon="5.84555">
        <ele>1094.4</ele>
        <time>2011-10-16T08:36:51Z</time>
      </trkpt>
      <trkpt lat="45.29178" lon="5.84549">
        <ele>1094.6</ele>
        <time>2011-10-16T08:36:54Z</time>
      </trkpt>
      <trkpt lat="45.29171" lon="5.84546">
        <ele>1095</ele>
        <time>2011-10-16T08:36:57Z</time>
      </trkpt>
      <trkpt lat="45.29165" lon="5.84544">
        <ele>1095.3</ele>
        <time>2011-10-16T08:37:00Z</time>
      </trkpt>
      <trkpt lat="45.29159" lon="5.84542">
        <ele>1096</ele>
        <time>2011-10-16T08:37:03Z</time>
      </trkpt>
      <trkpt lat="45.29153" lon="5.84541">
        <ele>1096.8</ele>
        <time>2011-10-16T08:37:06Z</time>
      </trkpt>
      <trkpt lat="45.29146" lon="5.84539">
        <ele>1097.6</ele>
        <time>2011-10-16T08:37:09Z</time>
      </trkpt>
      <trkpt lat="45.2914" lon="5.84537">
        <ele>1098.4</ele>
        <time>2011-10-16T08:37:12Z</time>
      </trkpt>
      <trkpt lat="45.29134" lon="5.84536">
        <ele>1099</ele>
        <time>2011-10-16T08:37:15Z</time>
      </trkpt>
      <trkpt lat="45.29128" lon="5.84533">
        <ele>1099.2</ele>
        <time>2011-10-16T08:37:18Z</time>
      </trkpt>
      <trkpt lat="45.29122" lon="5.84531">
        <ele>1099.9</ele>
        <time>2011-10-16T08:37:21Z</time>
      </trkpt>
      <trkpt lat="45.29117" lon="5.84529">
        <ele>1100.8</ele>
        <time>2011-10-16T08:37:24Z</time>
      </trkpt>
      <trkpt lat="45.29112" lon="5.84526">
        <ele>1101.6</ele>
        <time>2011-10-16T08:37:27Z</time>
      </trkpt>
      <trkpt lat="45.29107" lon="5.84522">
        <ele>1101.8</ele>
        <time>2011-10-16T08:37:30Z</time>
      </trkpt>
      <trkpt lat="45.29102" lon="5.84517">
        <ele>1102.1</ele>
        <time>2011-10-16T08:37:33Z</time>
      </trkpt>
      <trkpt lat="45.29098" lon="5.84511">
        <ele>1102.6</ele>
        <time>2011-10-16T08:37:36Z</time>
      </trkpt>
      <trkpt lat="45.29094" lon="5.84504">
        <ele>1102.8</ele>
        <time>2011-10-16T08:37:39Z</time>
      </trkpt>
      <trkpt lat="45.2909" lon="5.84497">
        <ele>1102.7</ele>
        <time>2011-10-16T08:37:42Z</time>
      </trkpt>
      <trkpt lat="45.29086" lon="5.84489">
        <ele>1103.3</ele>
        <time>2011-10-16T08:37:45Z</time>
      </trkpt>
      <trkpt lat="45.29082" lon="5.84483">
        <ele>1103.5</ele>
        <time>2011-10-16T08:37:48Z</time>
      </trkpt>
      <trkpt lat="45.29078" lon="5.84476">
        <ele>1103.7</ele>
        <time>2011-10-16T08:37:51Z</time>
      </trkpt>
      <trkpt lat="45.29073" lon="5.84471">
        <ele>1103.9</ele>
        <time>2011-10-16T08:37:54Z</time>
      </trkpt>
      <trkpt lat="45.29068" lon="5.84466">
        <ele>1104.5</ele>
        <time>2011-10-16T08:37:57Z</time>
      </trkpt>
      <trkpt lat="45.29062" lon="5.84462">
        <ele>1105.1</ele>
        <time>2011-10-16T08:38:00Z</time>
      </trkpt>
      <trkpt lat="45.29056" lon="5.84458">
        <ele>1105.9</ele>
        <time>2011-10-16T08:38:03Z</time>
      </trkpt>
      <trkpt lat="45.2905" lon="5.84455">
        <ele>1106.5</ele>
        <time>2011-10-16T08:38:06Z</time>
      </trkpt>
      <trkpt lat="45.29044" lon="5.84451">
        <ele>1107.5</ele>
        <time>2011-10-16T08:38:09Z</time>
      </trkpt>
      <trkpt lat="45.29039" lon="5.84447">
        <ele>1108.2</ele>
        <time>2011-10-16T08:38:12Z</time>
      </trkpt>
      <trkpt lat="45.29033" lon="5.84443">
        <ele>1108.6</ele>
        <time>2011-10-16T08:38:15Z</time>
      </trkpt>
      <trkpt lat="45.29028" lon="5.84439">
        <ele>1109.1</ele>
        <time>2011-10-16T08:38:18Z</time>
      </trkpt>
      <trkpt lat="45.29023" lon="5.84436">
        <ele>1109.6</ele>
        <time>2011-10-16T08:38:21Z</time>
      </trkpt>
      <trkpt lat="45.29017" lon="5.84432">
        <ele>1109.9</ele>
        <time>2011-10-16T08:38:24Z</time>
      </trkpt>
      <trkpt lat="45.29012" lon="5.84427">
        <ele>1110.4</ele>
        <time>2011-10-16T08:38:27Z</time>
      </trkpt>
      <trkpt lat="45.29008" lon="5.84421">
        <ele>1111</ele>
        <time>2011-10-16T08:38:30Z</time>
      </trkpt>
      <trkpt lat="45.29003" lon="5.84416">
        <ele>1111.7</ele>
        <time>2011-10-16T08:38:33Z</time>
      </trkpt>
      <trkpt lat="45.28999" lon="5.84411">
        <ele>1112.1</ele>
        <time>2011-10-16T08:38:36Z</time>
      </trkpt>
      <trkpt lat="45.28994" lon="5.84406">
        <ele>1112.4</ele>
        <time>2011-10-16T08:38:39Z</time>
      </trkpt>
      <trkpt lat="45.28989" lon="5.84402">
        <ele>1112.3</ele>
        <time>2011-10-16T08:38:42Z</time>
      </trkpt>
      <trkpt lat="45.28983" lon="5.84397">
        <ele>1112.3</ele>
        <time>2011-10-16T08:38:45Z</time>
      </trkpt>
      <trkpt lat="45.28978" lon="5.84393">
        <ele>1112.7</ele>
        <time>2011-10-16T08:38:48Z</time>
      </trkpt>
      <trkpt lat="45.28974" lon="5.84388">
        <ele>1112.7</ele>
        <time>2011-10-16T08:38:51Z</time>
      </trkpt>
      <trkpt lat="45.28969" lon="5.84382">
        <ele>1113.5</ele>
        <time>2011-10-16T08:38:54Z</time>
      </trkpt>
      <trkpt lat="45.28966" lon="5.84376">
        <ele>1115.5</ele>
        <time>2011-10-16T08:38:57Z</time>
      </trkpt>
      <trkpt lat="45.28962" lon="5.84371">
        <ele>1116.8</ele>
        <time>2011-10-16T08:39:00Z</time>
      </trkpt>
      <trkpt lat="45.28958" lon="5.84366">
        <ele>1116.8</ele>
        <time>2011-10-16T08:39:03Z</time>
      </trkpt>
      <trkpt lat="45.28953" lon="5.84362">
        <ele>1116.7</ele>
        <time>2011-10-16T08:39:06Z</time>
      </trkpt>
      <trkpt lat="45.28948" lon="5.84359">
        <ele>1117.1</ele>
        <time>2011-10-16T08:39:09Z</time>
      </trkpt>
      <trkpt lat="45.28942" lon="5.84358">
        <ele>1117.6</ele>
        <time>2011-10-16T08:39:12Z</time>
      </trkpt>
      <trkpt lat="45.28936" lon="5.84358">
        <ele>1118.4</ele>
        <time>2011-10-16T08:39:15Z</time>
      </trkpt>
      <trkpt lat="45.2893" lon="5.84359">
        <ele>1119.2</ele>
        <time>2011-10-16T08:39:18Z</time>
      </trkpt>
      <trkpt lat="45.28924" lon="5.84358">
        <ele>1119.9</ele>
        <time>2011-10-16T08:39:21Z</time>
      </trkpt>
      <trkpt lat="45.28919" lon="5.84359">
        <ele>1120.2</ele>
        <time>2011-10-16T08:39:24Z</time>
      </trkpt>
      <trkpt lat="45.28913" lon="5.8436">
        <ele>1120.6</ele>
        <time>2011-10-16T08:39:27Z</time>
      </trkpt>
      <trkpt lat="45.28906" lon="5.8436">
        <ele>1120.7</ele>
        <time>2011-10-16T08:39:30Z</time>
      </trkpt>
      <trkpt lat="45.28901" lon="5.8436">
        <ele>1121.2</ele>
        <time>2011-10-16T08:39:33Z</time>
      </trkpt>
      <trkpt lat="45.28894" lon="5.8436">
        <ele>1121.6</ele>
        <time>2011-10-16T08:39:36Z</time>
      </trkpt>
      <trkpt lat="45.28888" lon="5.8436">
        <ele>1122</ele>
        <time>2011-10-16T08:39:39Z</time>
      </trkpt>
      <trkpt lat="45.28882" lon="5.8436">
        <ele>1122.3</ele>
        <time>2011-10-16T08:39:42Z</time>
      </trkpt>
      <trkpt lat="45.28876" lon="5.84359">
        <ele>1122.8</ele>
        <time>2011-10-16T08:39:45Z</time>
      </trkpt>
      <trkpt lat="45.28871" lon="5.84357">
        <ele>1123.2</ele>
        <time>2011-10-16T08:39:48Z</time>
      </trkpt>
      <trkpt lat="45.28865" lon="5.84356">
        <ele>1123.6</ele>
        <time>2011-10-16T08:39:51Z</time>
      </trkpt>
      <trkpt lat="45.2886" lon="5.84353">
        <ele>1124.4</ele>
        <time>2011-10-16T08:39:54Z</time>
      </trkpt>
      <trkpt lat="45.28854" lon="5.8435">
        <ele>1125.1</ele>
        <time>2011-10-16T08:39:57Z</time>
      </trkpt>
      <trkpt lat="45.28849" lon="5.84347">
        <ele>1126.1</ele>
        <time>2011-10-16T08:40:00Z</time>
      </trkpt>
      <trkpt lat="45.28843" lon="5.84344">
        <ele>1126.9</ele>
        <time>2011-10-16T08:40:03Z</time>
      </trkpt>
      <trkpt lat="45.28838" lon="5.84342">
        <ele>1127.2</ele>
        <time>2011-10-16T08:40:06Z</time>
      </trkpt>
      <trkpt lat="45.28832" lon="5.8434">
        <ele>1127.7</ele>
        <time>2011-10-16T08:40:09Z</time>
      </trkpt>
      <trkpt lat="45.28827" lon="5.84338">
        <ele>1128.3</ele>
        <time>2011-10-16T08:40:12Z</time>
      </trkpt>
      <trkpt lat="45.2882" lon="5.84337">
        <ele>1128.5</ele>
        <time>2011-10-16T08:40:15Z</time>
      </trkpt>
      <trkpt lat="45.28815" lon="5.84335">
        <ele>1129.2</ele>
        <time>2011-10-16T08:40:18Z</time>
      </trkpt>
      <trkpt lat="45.28809" lon="5.84333">
        <ele>1129.8</ele>
        <time>2011-10-16T08:40:21Z</time>
      </trkpt>
      <trkpt lat="45.28806" lon="5.84327">
        <ele>1130.2</ele>
        <time>2011-10-16T08:40:24Z</time>
      </trkpt>
      <trkpt lat="45.28806" lon="5.8432">
        <ele>1130.4</ele>
        <time>2011-10-16T08:40:27Z</time>
      </trkpt>
      <trkpt lat="45.2881" lon="5.84313">
        <ele>1131</ele>
        <time>2011-10-16T08:40:30Z</time>
      </trkpt>
      <trkpt lat="45.28815" lon="5.8431">
        <ele>1131.5</ele>
        <time>2011-10-16T08:40:33Z</time>
      </trkpt>
      <trkpt lat="45.28821" lon="5.84307">
        <ele>1132</ele>
        <time>2011-10-16T08:40:36Z</time>
      </trkpt>
      <trkpt lat="45.28826" lon="5.84304">
        <ele>1132.3</ele>
        <time>2011-10-16T08:40:39Z</time>
      </trkpt>
      <trkpt lat="45.28832" lon="5.84302">
        <ele>1132.4</ele>
        <time>2011-10-16T08:40:42Z</time>
      </trkpt>
      <trkpt lat="45.28838" lon="5.843">
        <ele>1132.6</ele>
        <time>2011-10-16T08:40:45Z</time>
      </trkpt>
      <trkpt lat="45.28843" lon="5.84297">
        <ele>1133.1</ele>
        <time>2011-10-16T08:40:48Z</time>
      </trkpt>
      <trkpt lat="45.28848" lon="5.84294">
        <ele>1133.8</ele>
        <time>2011-10-16T08:40:51Z</time>
      </trkpt>
      <trkpt lat="45.28854" lon="5.84292">
        <ele>1134.3</ele>
        <time>2011-10-16T08:40:54Z</time>
      </trkpt>
      <trkpt lat="45.28859" lon="5.84288">
        <ele>1134.8</ele>
        <time>2011-10-16T08:40:57Z</time>
      </trkpt>
      <trkpt lat="45.28864" lon="5.84284">
        <ele>1135.6</ele>
        <time>2011-10-16T08:41:00Z</time>
      </trkpt>
      <trkpt lat="45.28869" lon="5.84279">
        <ele>1136.3</ele>
        <time>2011-10-16T08:41:03Z</time>
      </trkpt>
      <trkpt lat="45.28874" lon="5.84274">
        <ele>1137.3</ele>
        <time>2011-10-16T08:41:06Z</time>
      </trkpt>
      <trkpt lat="45.28879" lon="5.8427">
        <ele>1138.2</ele>
        <time>2011-10-16T08:41:09Z</time>
      </trkpt>
      <trkpt lat="45.28884" lon="5.84264">
        <ele>1138.6</ele>
        <time>2011-10-16T08:41:12Z</time>
      </trkpt>
      <trkpt lat="45.28888" lon="5.8426">
        <ele>1139.1</ele>
        <time>2011-10-16T08:41:15Z</time>
      </trkpt>
      <trkpt lat="45.28892" lon="5.84256">
        <ele>1140.1</ele>
        <time>2011-10-16T08:41:18Z</time>
      </trkpt>
      <trkpt lat="45.28898" lon="5.84253">
        <ele>1140.8</ele>
        <time>2011-10-16T08:41:21Z</time>
      </trkpt>
      <trkpt lat="45.28904" lon="5.84251">
        <ele>1141.7</ele>
        <time>2011-10-16T08:41:24Z</time>
      </trkpt>
      <trkpt lat="45.28909" lon="5.8425">
        <ele>1142</ele>
        <time>2011-10-16T08:41:27Z</time>
      </trkpt>
      <trkpt lat="45.28914" lon="5.84249">
        <ele>1141.3</ele>
        <time>2011-10-16T08:41:29Z</time>
      </trkpt>
      <trkpt lat="45.2892" lon="5.84248">
        <ele>1140.9</ele>
        <time>2011-10-16T08:41:32Z</time>
      </trkpt>
      <trkpt lat="45.28927" lon="5.84248">
        <ele>1140.8</ele>
        <time>2011-10-16T08:41:35Z</time>
      </trkpt>
      <trkpt lat="45.28933" lon="5.84248">
        <ele>1141.1</ele>
        <time>2011-10-16T08:41:38Z</time>
      </trkpt>
      <trkpt lat="45.28939" lon="5.84248">
        <ele>1141.2</ele>
        <time>2011-10-16T08:41:41Z</time>
      </trkpt>
      <trkpt lat="45.28945" lon="5.84248">
        <ele>1141.3</ele>
        <time>2011-10-16T08:41:44Z</time>
      </trkpt>
      <trkpt lat="45.28951" lon="5.84247">
        <ele>1141.6</ele>
        <time>2011-10-16T08:41:47Z</time>
      </trkpt>
      <trkpt lat="45.28958" lon="5.84246">
        <ele>1142</ele>
        <time>2011-10-16T08:41:50Z</time>
      </trkpt>
      <trkpt lat="45.28969" lon="5.84229">
        <ele>1138.3</ele>
        <time>2011-10-16T08:41:59Z</time>
      </trkpt>
      <trkpt lat="45.28968" lon="5.84221">
        <ele>1139.3</ele>
        <time>2011-10-16T08:42:02Z</time>
      </trkpt>
      <trkpt lat="45.28962" lon="5.84216">
        <ele>1141</ele>
        <time>2011-10-16T08:42:05Z</time>
      </trkpt>
      <trkpt lat="45.28957" lon="5.84214">
        <ele>1141.9</ele>
        <time>2011-10-16T08:42:07Z</time>
      </trkpt>
      <trkpt lat="45.28951" lon="5.84214">
        <ele>1143.2</ele>
        <time>2011-10-16T08:42:09Z</time>
      </trkpt>
      <trkpt lat="45.28945" lon="5.84214">
        <ele>1143.8</ele>
        <time>2011-10-16T08:42:12Z</time>
      </trkpt>
      <trkpt lat="45.28939" lon="5.84215">
        <ele>1144.4</ele>
        <time>2011-10-16T08:42:15Z</time>
      </trkpt>
      <trkpt lat="45.28934" lon="5.84214">
        <ele>1143.9</ele>
        <time>2011-10-16T08:42:18Z</time>
      </trkpt>
      <trkpt lat="45.28928" lon="5.84213">
        <ele>1143.9</ele>
        <time>2011-10-16T08:42:21Z</time>
      </trkpt>
      <trkpt lat="45.28922" lon="5.84213">
        <ele>1144.8</ele>
        <time>2011-10-16T08:42:24Z</time>
      </trkpt>
      <trkpt lat="45.28917" lon="5.84213">
        <ele>1145.4</ele>
        <time>2011-10-16T08:42:27Z</time>
      </trkpt>
      <trkpt lat="45.28912" lon="5.84212">
        <ele>1145.6</ele>
        <time>2011-10-16T08:42:30Z</time>
      </trkpt>
      <trkpt lat="45.28906" lon="5.84211">
        <ele>1146.5</ele>
        <time>2011-10-16T08:42:33Z</time>
      </trkpt>
      <trkpt lat="45.289" lon="5.84209">
        <ele>1147.7</ele>
        <time>2011-10-16T08:42:36Z</time>
      </trkpt>
      <trkpt lat="45.28895" lon="5.84206">
        <ele>1148.7</ele>
        <time>2011-10-16T08:42:39Z</time>
      </trkpt>
      <trkpt lat="45.28892" lon="5.842">
        <ele>1149.2</ele>
        <time>2011-10-16T08:42:42Z</time>
      </trkpt>
      <trkpt lat="45.28895" lon="5.84193">
        <ele>1149.9</ele>
        <time>2011-10-16T08:42:46Z</time>
      </trkpt>
      <trkpt lat="45.289" lon="5.84192">
        <ele>1150.4</ele>
        <time>2011-10-16T08:42:51Z</time>
      </trkpt>
      <trkpt lat="45.28905" lon="5.84193">
        <ele>1152.3</ele>
        <time>2011-10-16T08:43:51Z</time>
      </trkpt>
      <trkpt lat="45.2891" lon="5.84191">
        <ele>1152.4</ele>
        <time>2011-10-16T08:43:54Z</time>
      </trkpt>
      <trkpt lat="45.28915" lon="5.8419">
        <ele>1152.7</ele>
        <time>2011-10-16T08:43:57Z</time>
      </trkpt>
      <trkpt lat="45.2892" lon="5.84189">
        <ele>1152.6</ele>
        <time>2011-10-16T08:44:00Z</time>
      </trkpt>
      <trkpt lat="45.28926" lon="5.84189">
        <ele>1152.9</ele>
        <time>2011-10-16T08:44:03Z</time>
      </trkpt>
      <trkpt lat="45.2893" lon="5.84187">
        <ele>1153.2</ele>
        <time>2011-10-16T08:44:06Z</time>
      </trkpt>
      <trkpt lat="45.28936" lon="5.84186">
        <ele>1153.5</ele>
        <time>2011-10-16T08:44:09Z</time>
      </trkpt>
      <trkpt lat="45.28942" lon="5.84186">
        <ele>1153.9</ele>
        <time>2011-10-16T08:44:12Z</time>
      </trkpt>
      <trkpt lat="45.28946" lon="5.84184">
        <ele>1153.8</ele>
        <time>2011-10-16T08:44:14Z</time>
      </trkpt>
      <trkpt lat="45.28952" lon="5.84181">
        <ele>1153.6</ele>
        <time>2011-10-16T08:44:17Z</time>
      </trkpt>
      <trkpt lat="45.28958" lon="5.84179">
        <ele>1153.7</ele>
        <time>2011-10-16T08:44:20Z</time>
      </trkpt>
      <trkpt lat="45.28964" lon="5.84179">
        <ele>1153.9</ele>
        <time>2011-10-16T08:44:23Z</time>
      </trkpt>
      <trkpt lat="45.28969" lon="5.84177">
        <ele>1154.3</ele>
        <time>2011-10-16T08:44:26Z</time>
      </trkpt>
      <trkpt lat="45.28974" lon="5.84174">
        <ele>1155.4</ele>
        <time>2011-10-16T08:44:29Z</time>
      </trkpt>
      <trkpt lat="45.2898" lon="5.84174">
        <ele>1156.4</ele>
        <time>2011-10-16T08:44:32Z</time>
      </trkpt>
      <trkpt lat="45.28986" lon="5.84172">
        <ele>1157.3</ele>
        <time>2011-10-16T08:44:35Z</time>
      </trkpt>
      <trkpt lat="45.28991" lon="5.84171">
        <ele>1158</ele>
        <time>2011-10-16T08:44:38Z</time>
      </trkpt>
      <trkpt lat="45.28997" lon="5.84169">
        <ele>1158.8</ele>
        <time>2011-10-16T08:44:41Z</time>
      </trkpt>
      <trkpt lat="45.29002" lon="5.84167">
        <ele>1159.2</ele>
        <time>2011-10-16T08:44:44Z</time>
      </trkpt>
      <trkpt lat="45.29007" lon="5.84165">
        <ele>1159.5</ele>
        <time>2011-10-16T08:44:47Z</time>
      </trkpt>
      <trkpt lat="45.29012" lon="5.84163">
        <ele>1160</ele>
        <time>2011-10-16T08:44:50Z</time>
      </trkpt>
      <trkpt lat="45.29018" lon="5.8416">
        <ele>1160.4</ele>
        <time>2011-10-16T08:44:53Z</time>
      </trkpt>
      <trkpt lat="45.29023" lon="5.84158">
        <ele>1160.7</ele>
        <time>2011-10-16T08:44:56Z</time>
      </trkpt>
      <trkpt lat="45.29028" lon="5.84156">
        <ele>1161</ele>
        <time>2011-10-16T08:44:59Z</time>
      </trkpt>
      <trkpt lat="45.29034" lon="5.84154">
        <ele>1161.7</ele>
        <time>2011-10-16T08:45:02Z</time>
      </trkpt>
      <trkpt lat="45.29039" lon="5.84151">
        <ele>1162.1</ele>
        <time>2011-10-16T08:45:05Z</time>
      </trkpt>
      <trkpt lat="45.29045" lon="5.84149">
        <ele>1163</ele>
        <time>2011-10-16T08:45:08Z</time>
      </trkpt>
      <trkpt lat="45.2905" lon="5.84146">
        <ele>1163.4</ele>
        <time>2011-10-16T08:45:11Z</time>
      </trkpt>
      <trkpt lat="45.29055" lon="5.84144">
        <ele>1164.2</ele>
        <time>2011-10-16T08:45:14Z</time>
      </trkpt>
      <trkpt lat="45.2906" lon="5.84142">
        <ele>1164.8</ele>
        <time>2011-10-16T08:45:17Z</time>
      </trkpt>
      <trkpt lat="45.29064" lon="5.8414">
        <ele>1165.1</ele>
        <time>2011-10-16T08:45:20Z</time>
      </trkpt>
      <trkpt lat="45.2907" lon="5.84138">
        <ele>1165.4</ele>
        <time>2011-10-16T08:45:23Z</time>
      </trkpt>
      <trkpt lat="45.29075" lon="5.84136">
        <ele>1165.8</ele>
        <time>2011-10-16T08:45:26Z</time>
      </trkpt>
      <trkpt lat="45.2908" lon="5.84134">
        <ele>1166.2</ele>
        <time>2011-10-16T08:45:29Z</time>
      </trkpt>
      <trkpt lat="45.29085" lon="5.84132">
        <ele>1166.9</ele>
        <time>2011-10-16T08:45:32Z</time>
      </trkpt>
      <trkpt lat="45.29091" lon="5.8413">
        <ele>1167.6</ele>
        <time>2011-10-16T08:45:35Z</time>
      </trkpt>
      <trkpt lat="45.29096" lon="5.84128">
        <ele>1168</ele>
        <time>2011-10-16T08:45:38Z</time>
      </trkpt>
      <trkpt lat="45.29101" lon="5.84127">
        <ele>1168.4</ele>
        <time>2011-10-16T08:45:41Z</time>
      </trkpt>
      <trkpt lat="45.29106" lon="5.84125">
        <ele>1169.2</ele>
        <time>2011-10-16T08:45:44Z</time>
      </trkpt>
      <trkpt lat="45.29109" lon="5.84119">
        <ele>1170.3</ele>
        <time>2011-10-16T08:45:48Z</time>
      </trkpt>
      <trkpt lat="45.29106" lon="5.84112">
        <ele>1171.3</ele>
        <time>2011-10-16T08:45:52Z</time>
      </trkpt>
      <trkpt lat="45.29102" lon="5.84106">
        <ele>1172.6</ele>
        <time>2011-10-16T08:45:56Z</time>
      </trkpt>
      <trkpt lat="45.291" lon="5.841">
        <ele>1173.3</ele>
        <time>2011-10-16T08:45:59Z</time>
      </trkpt>
      <trkpt lat="45.29096" lon="5.84097">
        <ele>1173.8</ele>
        <time>2011-10-16T08:46:04Z</time>
      </trkpt>
      <trkpt lat="45.29092" lon="5.84091">
        <ele>1174.2</ele>
        <time>2011-10-16T08:47:48Z</time>
      </trkpt>
      <trkpt lat="45.29088" lon="5.84089">
        <ele>1174.1</ele>
        <time>2011-10-16T08:47:51Z</time>
      </trkpt>
      <trkpt lat="45.29084" lon="5.84086">
        <ele>1174.4</ele>
        <time>2011-10-16T08:47:54Z</time>
      </trkpt>
      <trkpt lat="45.29078" lon="5.84084">
        <ele>1174.9</ele>
        <time>2011-10-16T08:48:00Z</time>
      </trkpt>
      <trkpt lat="45.29073" lon="5.84082">
        <ele>1175.7</ele>
        <time>2011-10-16T08:48:03Z</time>
      </trkpt>
      <trkpt lat="45.29067" lon="5.84078">
        <ele>1176.2</ele>
        <time>2011-10-16T08:48:06Z</time>
      </trkpt>
      <trkpt lat="45.29062" lon="5.84076">
        <ele>1176.7</ele>
        <time>2011-10-16T08:48:13Z</time>
      </trkpt>
      <trkpt lat="45.29056" lon="5.84075">
        <ele>1179.5</ele>
        <time>2011-10-16T08:49:46Z</time>
      </trkpt>
      <trkpt lat="45.2905" lon="5.84074">
        <ele>1178.6</ele>
        <time>2011-10-16T08:49:49Z</time>
      </trkpt>
      <trkpt lat="45.29046" lon="5.84072">
        <ele>1178.1</ele>
        <time>2011-10-16T08:49:51Z</time>
      </trkpt>
      <trkpt lat="45.29038" lon="5.84071">
        <ele>1177.5</ele>
        <time>2011-10-16T08:49:54Z</time>
      </trkpt>
      <trkpt lat="45.29033" lon="5.8407">
        <ele>1177.5</ele>
        <time>2011-10-16T08:49:56Z</time>
      </trkpt>
      <trkpt lat="45.29028" lon="5.8407">
        <ele>1177.8</ele>
        <time>2011-10-16T08:49:58Z</time>
      </trkpt>
      <trkpt lat="45.29022" lon="5.8407">
        <ele>1178</ele>
        <time>2011-10-16T08:50:00Z</time>
      </trkpt>
      <trkpt lat="45.29016" lon="5.84071">
        <ele>1178</ele>
        <time>2011-10-16T08:50:02Z</time>
      </trkpt>
      <trkpt lat="45.2901" lon="5.84072">
        <ele>1177.8</ele>
        <time>2011-10-16T08:50:04Z</time>
      </trkpt>
      <trkpt lat="45.29004" lon="5.84074">
        <ele>1178</ele>
        <time>2011-10-16T08:50:06Z</time>
      </trkpt>
      <trkpt lat="45.28999" lon="5.84075">
        <ele>1178.3</ele>
        <time>2011-10-16T08:50:08Z</time>
      </trkpt>
      <trkpt lat="45.28995" lon="5.84075">
        <ele>1177.5</ele>
        <time>2011-10-16T08:50:10Z</time>
      </trkpt>
      <trkpt lat="45.28991" lon="5.84071">
        <ele>1177.2</ele>
        <time>2011-10-16T08:50:13Z</time>
      </trkpt>
      <trkpt lat="45.28988" lon="5.84065">
        <ele>1176.1</ele>
        <time>2011-10-16T08:50:17Z</time>
      </trkpt>
      <trkpt lat="45.28986" lon="5.84058">
        <ele>1175.3</ele>
        <time>2011-10-16T08:50:21Z</time>
      </trkpt>
      <trkpt lat="45.28984" lon="5.84051">
        <ele>1175.5</ele>
        <time>2011-10-16T08:50:25Z</time>
      </trkpt>
      <trkpt lat="45.28981" lon="5.84045">
        <ele>1176.3</ele>
        <time>2011-10-16T08:50:29Z</time>
      </trkpt>
      <trkpt lat="45.28977" lon="5.8404">
        <ele>1177.6</ele>
        <time>2011-10-16T08:50:33Z</time>
      </trkpt>
      <trkpt lat="45.28974" lon="5.84033">
        <ele>1178.9</ele>
        <time>2011-10-16T08:50:37Z</time>
      </trkpt>
      <trkpt lat="45.28976" lon="5.84026">
        <ele>1180.6</ele>
        <time>2011-10-16T08:50:41Z</time>
      </trkpt>
      <trkpt lat="45.28977" lon="5.84019">
        <ele>1183.2</ele>
        <time>2011-10-16T08:50:55Z</time>
      </trkpt>
      <trkpt lat="45.28979" lon="5.84013">
        <ele>1184.1</ele>
        <time>2011-10-16T08:51:01Z</time>
      </trkpt>
      <trkpt lat="45.28979" lon="5.84006">
        <ele>1183.7</ele>
        <time>2011-10-16T08:51:08Z</time>
      </trkpt>
      <trkpt lat="45.2898" lon="5.84">
        <ele>1183.7</ele>
        <time>2011-10-16T08:51:16Z</time>
      </trkpt>
      <trkpt lat="45.2898" lon="5.84">
        <ele>1183.7</ele>
        <time>2011-10-16T08:51:16Z</time>
      </trkpt>
      <trkpt lat="45.2898" lon="5.84">
        <ele>1183.7</ele>
        <time>2011-10-16T08:51:21Z</time>
      </trkpt>
      <trkpt lat="45.28978" lon="5.83993">
        <ele>1186.3</ele>
        <time>2011-10-16T08:51:26Z</time>
      </trkpt>
      <trkpt lat="45.28976" lon="5.83988">
        <ele>1187.9</ele>
        <time>2011-10-16T08:51:34Z</time>
      </trkpt>
      <trkpt lat="45.28975" lon="5.8398">
        <ele>1188.9</ele>
        <time>2011-10-16T08:51:40Z</time>
      </trkpt>
      <trkpt lat="45.28974" lon="5.83973">
        <ele>1189.6</ele>
        <time>2011-10-16T08:51:48Z</time>
      </trkpt>
      <trkpt lat="45.28975" lon="5.83966">
        <ele>1190.4</ele>
        <time>2011-10-16T08:51:54Z</time>
      </trkpt>
      <trkpt lat="45.28974" lon="5.83958">
        <ele>1191.2</ele>
        <time>2011-10-16T08:52:00Z</time>
      </trkpt>
      <trkpt lat="45.28974" lon="5.83952">
        <ele>1191</ele>
        <time>2011-10-16T08:52:05Z</time>
      </trkpt>
      <trkpt lat="45.28972" lon="5.83947">
        <ele>1192.9</ele>
        <time>2011-10-16T08:52:21Z</time>
      </trkpt>
      <trkpt lat="45.28969" lon="5.8394">
        <ele>1194.6</ele>
        <time>2011-10-16T08:52:25Z</time>
      </trkpt>
      <trkpt lat="45.28969" lon="5.83933">
        <ele>1194.9</ele>
        <time>2011-10-16T08:52:30Z</time>
      </trkpt>
      <trkpt lat="45.28967" lon="5.83925">
        <ele>1195.5</ele>
        <time>2011-10-16T08:52:35Z</time>
      </trkpt>
      <trkpt lat="45.28965" lon="5.83918">
        <ele>1196.3</ele>
        <time>2011-10-16T08:52:39Z</time>
      </trkpt>
      <trkpt lat="45.28963" lon="5.83912">
        <ele>1197.5</ele>
        <time>2011-10-16T08:52:43Z</time>
      </trkpt>
      <trkpt lat="45.28961" lon="5.83906">
        <ele>1198.3</ele>
        <time>2011-10-16T08:52:47Z</time>
      </trkpt>
      <trkpt lat="45.28959" lon="5.83899">
        <ele>1198.6</ele>
        <time>2011-10-16T08:52:51Z</time>
      </trkpt>
      <trkpt lat="45.28957" lon="5.83892">
        <ele>1198.3</ele>
        <time>2011-10-16T08:52:55Z</time>
      </trkpt>
      <trkpt lat="45.28954" lon="5.83885">
        <ele>1199.8</ele>
        <time>2011-10-16T08:52:59Z</time>
      </trkpt>
      <trkpt lat="45.28951" lon="5.8388">
        <ele>1201.3</ele>
        <time>2011-10-16T08:53:03Z</time>
      </trkpt>
      <trkpt lat="45.28947" lon="5.83874">
        <ele>1202.7</ele>
        <time>2011-10-16T08:53:08Z</time>
      </trkpt>
      <trkpt lat="45.28942" lon="5.83874">
        <ele>1204.3</ele>
        <time>2011-10-16T08:53:13Z</time>
      </trkpt>
      <trkpt lat="45.28937" lon="5.83875">
        <ele>1206.4</ele>
        <time>2011-10-16T08:53:18Z</time>
      </trkpt>
      <trkpt lat="45.28932" lon="5.83875">
        <ele>1207.7</ele>
        <time>2011-10-16T08:53:26Z</time>
      </trkpt>
      <trkpt lat="45.28928" lon="5.8387">
        <ele>1208.3</ele>
        <time>2011-10-16T08:53:42Z</time>
      </trkpt>
      <trkpt lat="45.28923" lon="5.83867">
        <ele>1210.1</ele>
        <time>2011-10-16T08:53:47Z</time>
      </trkpt>
      <trkpt lat="45.28919" lon="5.83865">
        <ele>1212.2</ele>
        <time>2011-10-16T08:53:52Z</time>
      </trkpt>
      <trkpt lat="45.28916" lon="5.83859">
        <ele>1214</ele>
        <time>2011-10-16T08:53:58Z</time>
      </trkpt>
      <trkpt lat="45.28912" lon="5.83854">
        <ele>1216.2</ele>
        <time>2011-10-16T08:54:04Z</time>
      </trkpt>
      <trkpt lat="45.28908" lon="5.83851">
        <ele>1219.9</ele>
        <time>2011-10-16T08:54:16Z</time>
      </trkpt>
      <trkpt lat="45.28906" lon="5.83846">
        <ele>1220.8</ele>
        <time>2011-10-16T08:54:21Z</time>
      </trkpt>
      <trkpt lat="45.28903" lon="5.8384">
        <ele>1225.1</ele>
        <time>2011-10-16T08:55:06Z</time>
      </trkpt>
      <trkpt lat="45.28899" lon="5.83837">
        <ele>1225.2</ele>
        <time>2011-10-16T08:55:16Z</time>
      </trkpt>
      <trkpt lat="45.28894" lon="5.83834">
        <ele>1225.8</ele>
        <time>2011-10-16T08:55:21Z</time>
      </trkpt>
      <trkpt lat="45.28888" lon="5.83832">
        <ele>1227.8</ele>
        <time>2011-10-16T08:55:26Z</time>
      </trkpt>
      <trkpt lat="45.28884" lon="5.8383">
        <ele>1229.6</ele>
        <time>2011-10-16T08:55:30Z</time>
      </trkpt>
      <trkpt lat="45.28879" lon="5.83829">
        <ele>1230.3</ele>
        <time>2011-10-16T08:55:36Z</time>
      </trkpt>
      <trkpt lat="45.28874" lon="5.83828">
        <ele>1231.4</ele>
        <time>2011-10-16T08:55:41Z</time>
      </trkpt>
      <trkpt lat="45.28868" lon="5.83827">
        <ele>1234.5</ele>
        <time>2011-10-16T08:55:55Z</time>
      </trkpt>
      <trkpt lat="45.28863" lon="5.83824">
        <ele>1235.6</ele>
        <time>2011-10-16T08:56:02Z</time>
      </trkpt>
      <trkpt lat="45.28859" lon="5.83821">
        <ele>1236.6</ele>
        <time>2011-10-16T08:56:17Z</time>
      </trkpt>
      <trkpt lat="45.28856" lon="5.83816">
        <ele>1237.7</ele>
        <time>2011-10-16T08:56:23Z</time>
      </trkpt>
      <trkpt lat="45.28853" lon="5.8381">
        <ele>1239.2</ele>
        <time>2011-10-16T08:56:40Z</time>
      </trkpt>
      <trkpt lat="45.28849" lon="5.83805">
        <ele>1239.6</ele>
        <time>2011-10-16T08:56:47Z</time>
      </trkpt>
      <trkpt lat="45.28846" lon="5.838">
        <ele>1240</ele>
        <time>2011-10-16T08:56:52Z</time>
      </trkpt>
      <trkpt lat="45.28844" lon="5.83794">
        <ele>1241.2</ele>
        <time>2011-10-16T08:56:57Z</time>
      </trkpt>
      <trkpt lat="45.28839" lon="5.83789">
        <ele>1242.3</ele>
        <time>2011-10-16T08:57:01Z</time>
      </trkpt>
      <trkpt lat="45.28836" lon="5.83784">
        <ele>1244.7</ele>
        <time>2011-10-16T08:57:06Z</time>
      </trkpt>
      <trkpt lat="45.28837" lon="5.83776">
        <ele>1246.8</ele>
        <time>2011-10-16T08:57:13Z</time>
      </trkpt>
      <trkpt lat="45.28834" lon="5.8377">
        <ele>1249</ele>
        <time>2011-10-16T08:57:29Z</time>
      </trkpt>
      <trkpt lat="45.28827" lon="5.83769">
        <ele>1254.9</ele>
        <time>2011-10-16T08:59:14Z</time>
      </trkpt>
      <trkpt lat="45.28822" lon="5.8377">
        <ele>1255.1</ele>
        <time>2011-10-16T08:59:17Z</time>
      </trkpt>
      <trkpt lat="45.28816" lon="5.8377">
        <ele>1255.3</ele>
        <time>2011-10-16T08:59:19Z</time>
      </trkpt>
      <trkpt lat="45.28808" lon="5.8377">
        <ele>1255.4</ele>
        <time>2011-10-16T08:59:21Z</time>
      </trkpt>
      <trkpt lat="45.28802" lon="5.8377">
        <ele>1255.5</ele>
        <time>2011-10-16T08:59:23Z</time>
      </trkpt>
      <trkpt lat="45.28796" lon="5.83769">
        <ele>1255.2</ele>
        <time>2011-10-16T08:59:25Z</time>
      </trkpt>
      <trkpt lat="45.28791" lon="5.83768">
        <ele>1255.2</ele>
        <time>2011-10-16T08:59:27Z</time>
      </trkpt>
      <trkpt lat="45.28785" lon="5.83767">
        <ele>1254.9</ele>
        <time>2011-10-16T08:59:30Z</time>
      </trkpt>
      <trkpt lat="45.2878" lon="5.83766">
        <ele>1254.5</ele>
        <time>2011-10-16T08:59:47Z</time>
      </trkpt>
      <trkpt lat="45.28774" lon="5.83764">
        <ele>1254.6</ele>
        <time>2011-10-16T08:59:50Z</time>
      </trkpt>
      <trkpt lat="45.28768" lon="5.83759">
        <ele>1254.5</ele>
        <time>2011-10-16T08:59:53Z</time>
      </trkpt>
      <trkpt lat="45.28762" lon="5.83755">
        <ele>1254.7</ele>
        <time>2011-10-16T08:59:55Z</time>
      </trkpt>
      <trkpt lat="45.28757" lon="5.8375">
        <ele>1254.9</ele>
        <time>2011-10-16T08:59:57Z</time>
      </trkpt>
      <trkpt lat="45.28754" lon="5.83745">
        <ele>1254.9</ele>
        <time>2011-10-16T08:59:59Z</time>
      </trkpt>
      <trkpt lat="45.28754" lon="5.83735">
        <ele>1254.2</ele>
        <time>2011-10-16T09:00:02Z</time>
      </trkpt>
      <trkpt lat="45.28757" lon="5.83725">
        <ele>1253.7</ele>
        <time>2011-10-16T09:00:04Z</time>
      </trkpt>
      <trkpt lat="45.28762" lon="5.83718">
        <ele>1253.4</ele>
        <time>2011-10-16T09:00:05Z</time>
      </trkpt>
      <trkpt lat="45.28766" lon="5.83707">
        <ele>1252.7</ele>
        <time>2011-10-16T09:00:07Z</time>
      </trkpt>
      <trkpt lat="45.2877" lon="5.83696">
        <ele>1252</ele>
        <time>2011-10-16T09:00:09Z</time>
      </trkpt>
      <trkpt lat="45.28774" lon="5.83691">
        <ele>1251.7</ele>
        <time>2011-10-16T09:00:10Z</time>
      </trkpt>
      <trkpt lat="45.28778" lon="5.83685">
        <ele>1251.4</ele>
        <time>2011-10-16T09:00:11Z</time>
      </trkpt>
      <trkpt lat="45.28781" lon="5.8368">
        <ele>1251.4</ele>
        <time>2011-10-16T09:00:12Z</time>
      </trkpt>
      <trkpt lat="45.28785" lon="5.83674">
        <ele>1251.3</ele>
        <time>2011-10-16T09:00:13Z</time>
      </trkpt>
      <trkpt lat="45.28788" lon="5.83668">
        <ele>1250.8</ele>
        <time>2011-10-16T09:00:14Z</time>
      </trkpt>
      <trkpt lat="45.28792" lon="5.83662">
        <ele>1250.5</ele>
        <time>2011-10-16T09:00:15Z</time>
      </trkpt>
      <trkpt lat="45.28795" lon="5.83658">
        <ele>1250.5</ele>
        <time>2011-10-16T09:00:16Z</time>
      </trkpt>
      <trkpt lat="45.28798" lon="5.83653">
        <ele>1250.3</ele>
        <time>2011-10-16T09:00:17Z</time>
      </trkpt>
      <trkpt lat="45.28805" lon="5.83644">
        <ele>1250.1</ele>
        <time>2011-10-16T09:00:19Z</time>
      </trkpt>
      <trkpt lat="45.28808" lon="5.83639">
        <ele>1249.7</ele>
        <time>2011-10-16T09:00:20Z</time>
      </trkpt>
      <trkpt lat="45.28811" lon="5.83634">
        <ele>1249.8</ele>
        <time>2011-10-16T09:00:21Z</time>
      </trkpt>
      <trkpt lat="45.28815" lon="5.83628">
        <ele>1249.8</ele>
        <time>2011-10-16T09:00:22Z</time>
      </trkpt>
      <trkpt lat="45.28818" lon="5.83621">
        <ele>1249.8</ele>
        <time>2011-10-16T09:00:23Z</time>
      </trkpt>
      <trkpt lat="45.2882" lon="5.83615">
        <ele>1249.5</ele>
        <time>2011-10-16T09:00:24Z</time>
      </trkpt>
      <trkpt lat="45.28823" lon="5.83608">
        <ele>1249.2</ele>
        <time>2011-10-16T09:00:25Z</time>
      </trkpt>
      <trkpt lat="45.28826" lon="5.83602">
        <ele>1248.7</ele>
        <time>2011-10-16T09:00:26Z</time>
      </trkpt>
      <trkpt lat="45.28828" lon="5.83596">
        <ele>1248.4</ele>
        <time>2011-10-16T09:00:27Z</time>
      </trkpt>
      <trkpt lat="45.2883" lon="5.83589">
        <ele>1248.1</ele>
        <time>2011-10-16T09:00:28Z</time>
      </trkpt>
      <trkpt lat="45.28832" lon="5.83582">
        <ele>1247.6</ele>
        <time>2011-10-16T09:00:29Z</time>
      </trkpt>
      <trkpt lat="45.28834" lon="5.83575">
        <ele>1247.1</ele>
        <time>2011-10-16T09:00:30Z</time>
      </trkpt>
      <trkpt lat="45.28835" lon="5.83568">
        <ele>1246.6</ele>
        <time>2011-10-16T09:00:31Z</time>
      </trkpt>
      <trkpt lat="45.28837" lon="5.83562">
        <ele>1246.2</ele>
        <time>2011-10-16T09:00:32Z</time>
      </trkpt>
      <trkpt lat="45.2884" lon="5.83557">
        <ele>1245.8</ele>
        <time>2011-10-16T09:00:33Z</time>
      </trkpt>
      <trkpt lat="45.28842" lon="5.8355">
        <ele>1245.4</ele>
        <time>2011-10-16T09:00:34Z</time>
      </trkpt>
      <trkpt lat="45.28846" lon="5.8354">
        <ele>1244.7</ele>
        <time>2011-10-16T09:00:36Z</time>
      </trkpt>
      <trkpt lat="45.2885" lon="5.83534">
        <ele>1244.2</ele>
        <time>2011-10-16T09:00:38Z</time>
      </trkpt>
      <trkpt lat="45.28855" lon="5.83526">
        <ele>1243.6</ele>
        <time>2011-10-16T09:00:40Z</time>
      </trkpt>
      <trkpt lat="45.28859" lon="5.83522">
        <ele>1243.2</ele>
        <time>2011-10-16T09:00:41Z</time>
      </trkpt>
      <trkpt lat="45.28867" lon="5.83515">
        <ele>1242.5</ele>
        <time>2011-10-16T09:00:43Z</time>
      </trkpt>
      <trkpt lat="45.28871" lon="5.83511">
        <ele>1242.1</ele>
        <time>2011-10-16T09:00:44Z</time>
      </trkpt>
      <trkpt lat="45.28875" lon="5.83507">
        <ele>1241.8</ele>
        <time>2011-10-16T09:00:45Z</time>
      </trkpt>
      <trkpt lat="45.28881" lon="5.835">
        <ele>1241.1</ele>
        <time>2011-10-16T09:00:47Z</time>
      </trkpt>
      <trkpt lat="45.28886" lon="5.83492">
        <ele>1240.5</ele>
        <time>2011-10-16T09:00:49Z</time>
      </trkpt>
      <trkpt lat="45.28888" lon="5.83484">
        <ele>1239.9</ele>
        <time>2011-10-16T09:00:51Z</time>
      </trkpt>
      <trkpt lat="45.28892" lon="5.83476">
        <ele>1239.4</ele>
        <time>2011-10-16T09:00:53Z</time>
      </trkpt>
      <trkpt lat="45.28898" lon="5.83469">
        <ele>1238.4</ele>
        <time>2011-10-16T09:00:55Z</time>
      </trkpt>
      <trkpt lat="45.28905" lon="5.83462">
        <ele>1237.4</ele>
        <time>2011-10-16T09:00:57Z</time>
      </trkpt>
      <trkpt lat="45.28909" lon="5.83458">
        <ele>1237</ele>
        <time>2011-10-16T09:00:58Z</time>
      </trkpt>
      <trkpt lat="45.28915" lon="5.8345">
        <ele>1236.4</ele>
        <time>2011-10-16T09:01:00Z</time>
      </trkpt>
      <trkpt lat="45.2892" lon="5.83444">
        <ele>1235.8</ele>
        <time>2011-10-16T09:01:02Z</time>
      </trkpt>
      <trkpt lat="45.28914" lon="5.83441">
        <ele>1231.8</ele>
        <time>2011-10-16T09:01:10Z</time>
      </trkpt>
      <trkpt lat="45.28907" lon="5.83443">
        <ele>1231.2</ele>
        <time>2011-10-16T09:01:12Z</time>
      </trkpt>
      <trkpt lat="45.28899" lon="5.83445">
        <ele>1230.8</ele>
        <time>2011-10-16T09:01:14Z</time>
      </trkpt>
      <trkpt lat="45.28892" lon="5.83448">
        <ele>1230.5</ele>
        <time>2011-10-16T09:01:16Z</time>
      </trkpt>
      <trkpt lat="45.28884" lon="5.83452">
        <ele>1229.5</ele>
        <time>2011-10-16T09:01:18Z</time>
      </trkpt>
      <trkpt lat="45.28876" lon="5.83455">
        <ele>1229.1</ele>
        <time>2011-10-16T09:01:20Z</time>
      </trkpt>
      <trkpt lat="45.28869" lon="5.83457">
        <ele>1228.3</ele>
        <time>2011-10-16T09:01:22Z</time>
      </trkpt>
      <trkpt lat="45.28862" lon="5.83461">
        <ele>1227.3</ele>
        <time>2011-10-16T09:01:24Z</time>
      </trkpt>
      <trkpt lat="45.28854" lon="5.83466">
        <ele>1226.9</ele>
        <time>2011-10-16T09:01:26Z</time>
      </trkpt>
      <trkpt lat="45.28849" lon="5.83471">
        <ele>1226.5</ele>
        <time>2011-10-16T09:01:28Z</time>
      </trkpt>
      <trkpt lat="45.28843" lon="5.83477">
        <ele>1226</ele>
        <time>2011-10-16T09:01:30Z</time>
      </trkpt>
      <trkpt lat="45.28838" lon="5.83485">
        <ele>1225</ele>
        <time>2011-10-16T09:01:32Z</time>
      </trkpt>
      <trkpt lat="45.28831" lon="5.83491">
        <ele>1223.8</ele>
        <time>2011-10-16T09:01:34Z</time>
      </trkpt>
      <trkpt lat="45.28826" lon="5.83494">
        <ele>1223</ele>
        <time>2011-10-16T09:01:36Z</time>
      </trkpt>
      <trkpt lat="45.2882" lon="5.83495">
        <ele>1219.8</ele>
        <time>2011-10-16T09:01:39Z</time>
      </trkpt>
      <trkpt lat="45.28825" lon="5.83493">
        <ele>1209.7</ele>
        <time>2011-10-16T09:01:51Z</time>
      </trkpt>
      <trkpt lat="45.28829" lon="5.83488">
        <ele>1209.2</ele>
        <time>2011-10-16T09:01:53Z</time>
      </trkpt>
      <trkpt lat="45.28832" lon="5.83481">
        <ele>1208.7</ele>
        <time>2011-10-16T09:01:55Z</time>
      </trkpt>
      <trkpt lat="45.28837" lon="5.83472">
        <ele>1207.9</ele>
        <time>2011-10-16T09:01:57Z</time>
      </trkpt>
      <trkpt lat="45.28841" lon="5.8346">
        <ele>1206.8</ele>
        <time>2011-10-16T09:01:59Z</time>
      </trkpt>
      <trkpt lat="45.28843" lon="5.83453">
        <ele>1206.3</ele>
        <time>2011-10-16T09:02:00Z</time>
      </trkpt>
      <trkpt lat="45.28845" lon="5.83447">
        <ele>1205.9</ele>
        <time>2011-10-16T09:02:01Z</time>
      </trkpt>
      <trkpt lat="45.28849" lon="5.83442">
        <ele>1205.2</ele>
        <time>2011-10-16T09:02:02Z</time>
      </trkpt>
      <trkpt lat="45.28852" lon="5.83436">
        <ele>1204.6</ele>
        <time>2011-10-16T09:02:03Z</time>
      </trkpt>
      <trkpt lat="45.28855" lon="5.8343">
        <ele>1204.1</ele>
        <time>2011-10-16T09:02:04Z</time>
      </trkpt>
      <trkpt lat="45.28859" lon="5.83424">
        <ele>1203.1</ele>
        <time>2011-10-16T09:02:05Z</time>
      </trkpt>
      <trkpt lat="45.28863" lon="5.83419">
        <ele>1202.3</ele>
        <time>2011-10-16T09:02:06Z</time>
      </trkpt>
      <trkpt lat="45.28866" lon="5.83414">
        <ele>1202</ele>
        <time>2011-10-16T09:02:07Z</time>
      </trkpt>
      <trkpt lat="45.28871" lon="5.83409">
        <ele>1201.6</ele>
        <time>2011-10-16T09:02:08Z</time>
      </trkpt>
      <trkpt lat="45.28874" lon="5.83404">
        <ele>1201.2</ele>
        <time>2011-10-16T09:02:09Z</time>
      </trkpt>
      <trkpt lat="45.28878" lon="5.834">
        <ele>1200.9</ele>
        <time>2011-10-16T09:02:10Z</time>
      </trkpt>
      <trkpt lat="45.28884" lon="5.83394">
        <ele>1200.1</ele>
        <time>2011-10-16T09:02:12Z</time>
      </trkpt>
      <trkpt lat="45.28889" lon="5.8339">
        <ele>1199.5</ele>
        <time>2011-10-16T09:02:14Z</time>
      </trkpt>
      <trkpt lat="45.28882" lon="5.83393">
        <ele>1193.1</ele>
        <time>2011-10-16T09:02:19Z</time>
      </trkpt>
      <trkpt lat="45.28875" lon="5.83393">
        <ele>1190.8</ele>
        <time>2011-10-16T09:02:21Z</time>
      </trkpt>
      <trkpt lat="45.28866" lon="5.83394">
        <ele>1188.4</ele>
        <time>2011-10-16T09:02:23Z</time>
      </trkpt>
      <trkpt lat="45.28861" lon="5.83395">
        <ele>1187.3</ele>
        <time>2011-10-16T09:02:24Z</time>
      </trkpt>
      <trkpt lat="45.28857" lon="5.83398">
        <ele>1186.4</ele>
        <time>2011-10-16T09:02:25Z</time>
      </trkpt>
      <trkpt lat="45.28853" lon="5.83401">
        <ele>1185.4</ele>
        <time>2011-10-16T09:02:26Z</time>
      </trkpt>
      <trkpt lat="45.28846" lon="5.83408">
        <ele>1183</ele>
        <time>2011-10-16T09:02:28Z</time>
      </trkpt>
      <trkpt lat="45.28838" lon="5.83416">
        <ele>1180.7</ele>
        <time>2011-10-16T09:02:30Z</time>
      </trkpt>
      <trkpt lat="45.2883" lon="5.83421">
        <ele>1180.2</ele>
        <time>2011-10-16T09:02:32Z</time>
      </trkpt>
      <trkpt lat="45.28821" lon="5.83426">
        <ele>1179</ele>
        <time>2011-10-16T09:02:34Z</time>
      </trkpt>
      <trkpt lat="45.28814" lon="5.83431">
        <ele>1177.8</ele>
        <time>2011-10-16T09:02:36Z</time>
      </trkpt>
      <trkpt lat="45.28808" lon="5.83436">
        <ele>1176.6</ele>
        <time>2011-10-16T09:02:38Z</time>
      </trkpt>
      <trkpt lat="45.28803" lon="5.83439">
        <ele>1175.4</ele>
        <time>2011-10-16T09:02:40Z</time>
      </trkpt>
      <trkpt lat="45.28806" lon="5.8343">
        <ele>1172.5</ele>
        <time>2011-10-16T09:02:46Z</time>
      </trkpt>
      <trkpt lat="45.2881" lon="5.83424">
        <ele>1171.2</ele>
        <time>2011-10-16T09:02:48Z</time>
      </trkpt>
      <trkpt lat="45.28816" lon="5.83417">
        <ele>1170.1</ele>
        <time>2011-10-16T09:02:50Z</time>
      </trkpt>
      <trkpt lat="45.28822" lon="5.83412">
        <ele>1169.2</ele>
        <time>2011-10-16T09:02:52Z</time>
      </trkpt>
      <trkpt lat="45.28827" lon="5.83407">
        <ele>1168</ele>
        <time>2011-10-16T09:02:54Z</time>
      </trkpt>
      <trkpt lat="45.28831" lon="5.83403">
        <ele>1167</ele>
        <time>2011-10-16T09:02:56Z</time>
      </trkpt>
      <trkpt lat="45.28836" lon="5.83399">
        <ele>1164</ele>
        <time>2011-10-16T09:03:01Z</time>
      </trkpt>
      <trkpt lat="45.2884" lon="5.83394">
        <ele>1162</ele>
        <time>2011-10-16T09:03:05Z</time>
      </trkpt>
      <trkpt lat="45.28841" lon="5.83386">
        <ele>1159.5</ele>
        <time>2011-10-16T09:03:16Z</time>
      </trkpt>
      <trkpt lat="45.28841" lon="5.83378">
        <ele>1158.9</ele>
        <time>2011-10-16T09:03:18Z</time>
      </trkpt>
      <trkpt lat="45.28843" lon="5.83368">
        <ele>1158</ele>
        <time>2011-10-16T09:03:20Z</time>
      </trkpt>
      <trkpt lat="45.28846" lon="5.83361">
        <ele>1157.1</ele>
        <time>2011-10-16T09:03:22Z</time>
      </trkpt>
      <trkpt lat="45.2885" lon="5.83355">
        <ele>1156.2</ele>
        <time>2011-10-16T09:03:25Z</time>
      </trkpt>
      <trkpt lat="45.28844" lon="5.83357">
        <ele>1153.2</ele>
        <time>2011-10-16T09:03:32Z</time>
      </trkpt>
      <trkpt lat="45.2884" lon="5.83364">
        <ele>1151.7</ele>
        <time>2011-10-16T09:03:34Z</time>
      </trkpt>
      <trkpt lat="45.28837" lon="5.83374">
        <ele>1150.1</ele>
        <time>2011-10-16T09:03:36Z</time>
      </trkpt>
      <trkpt lat="45.28834" lon="5.83381">
        <ele>1149.4</ele>
        <time>2011-10-16T09:03:38Z</time>
      </trkpt>
      <trkpt lat="45.28831" lon="5.83389">
        <ele>1149.4</ele>
        <time>2011-10-16T09:03:40Z</time>
      </trkpt>
      <trkpt lat="45.28825" lon="5.83395">
        <ele>1148.8</ele>
        <time>2011-10-16T09:03:42Z</time>
      </trkpt>
      <trkpt lat="45.28816" lon="5.83399">
        <ele>1148.3</ele>
        <time>2011-10-16T09:03:44Z</time>
      </trkpt>
      <trkpt lat="45.28811" lon="5.834">
        <ele>1148.2</ele>
        <time>2011-10-16T09:03:45Z</time>
      </trkpt>
      <trkpt lat="45.28806" lon="5.83402">
        <ele>1147.9</ele>
        <time>2011-10-16T09:03:46Z</time>
      </trkpt>
      <trkpt lat="45.28798" lon="5.83404">
        <ele>1147</ele>
        <time>2011-10-16T09:03:48Z</time>
      </trkpt>
      <trkpt lat="45.28793" lon="5.83406">
        <ele>1146.3</ele>
        <time>2011-10-16T09:03:50Z</time>
      </trkpt>
      <trkpt lat="45.28798" lon="5.83402">
        <ele>1142.5</ele>
        <time>2011-10-16T09:04:11Z</time>
      </trkpt>
      <trkpt lat="45.28803" lon="5.83398">
        <ele>1141.8</ele>
        <time>2011-10-16T09:04:13Z</time>
      </trkpt>
      <trkpt lat="45.28808" lon="5.83393">
        <ele>1141.6</ele>
        <time>2011-10-16T09:04:15Z</time>
      </trkpt>
      <trkpt lat="45.28813" lon="5.83388">
        <ele>1141.3</ele>
        <time>2011-10-16T09:04:17Z</time>
      </trkpt>
      <trkpt lat="45.28818" lon="5.83382">
        <ele>1140.9</ele>
        <time>2011-10-16T09:04:19Z</time>
      </trkpt>
      <trkpt lat="45.28821" lon="5.83375">
        <ele>1140.4</ele>
        <time>2011-10-16T09:04:21Z</time>
      </trkpt>
      <trkpt lat="45.28822" lon="5.83366">
        <ele>1139.9</ele>
        <time>2011-10-16T09:04:23Z</time>
      </trkpt>
      <trkpt lat="45.28822" lon="5.83359">
        <ele>1139.5</ele>
        <time>2011-10-16T09:04:25Z</time>
      </trkpt>
      <trkpt lat="45.28822" lon="5.83352">
        <ele>1138.6</ele>
        <time>2011-10-16T09:04:28Z</time>
      </trkpt>
      <trkpt lat="45.28824" lon="5.83346">
        <ele>1137.6</ele>
        <time>2011-10-16T09:04:32Z</time>
      </trkpt>
      <trkpt lat="45.28824" lon="5.83352">
        <ele>1133.7</ele>
        <time>2011-10-16T09:04:52Z</time>
      </trkpt>
      <trkpt lat="45.28822" lon="5.83361">
        <ele>1132.9</ele>
        <time>2011-10-16T09:04:56Z</time>
      </trkpt>
      <trkpt lat="45.28818" lon="5.83367">
        <ele>1132.2</ele>
        <time>2011-10-16T09:04:58Z</time>
      </trkpt>
      <trkpt lat="45.28812" lon="5.83371">
        <ele>1131.6</ele>
        <time>2011-10-16T09:05:00Z</time>
      </trkpt>
      <trkpt lat="45.28808" lon="5.83376">
        <ele>1131.4</ele>
        <time>2011-10-16T09:05:02Z</time>
      </trkpt>
      <trkpt lat="45.28802" lon="5.83378">
        <ele>1131.3</ele>
        <time>2011-10-16T09:05:04Z</time>
      </trkpt>
      <trkpt lat="45.28795" lon="5.83382">
        <ele>1129.7</ele>
        <time>2011-10-16T09:05:06Z</time>
      </trkpt>
      <trkpt lat="45.28789" lon="5.83383">
        <ele>1128.6</ele>
        <time>2011-10-16T09:05:08Z</time>
      </trkpt>
      <trkpt lat="45.28784" lon="5.83384">
        <ele>1127.5</ele>
        <time>2011-10-16T09:05:10Z</time>
      </trkpt>
      <trkpt lat="45.28779" lon="5.83387">
        <ele>1126.3</ele>
        <time>2011-10-16T09:05:12Z</time>
      </trkpt>
      <trkpt lat="45.28773" lon="5.83392">
        <ele>1124</ele>
        <time>2011-10-16T09:05:14Z</time>
      </trkpt>
      <trkpt lat="45.2877" lon="5.83399">
        <ele>1122.9</ele>
        <time>2011-10-16T09:05:17Z</time>
      </trkpt>
      <trkpt lat="45.28766" lon="5.83405">
        <ele>1122.4</ele>
        <time>2011-10-16T09:05:19Z</time>
      </trkpt>
      <trkpt lat="45.2876" lon="5.8341">
        <ele>1121.8</ele>
        <time>2011-10-16T09:05:21Z</time>
      </trkpt>
      <trkpt lat="45.28755" lon="5.83416">
        <ele>1121.1</ele>
        <time>2011-10-16T09:05:23Z</time>
      </trkpt>
      <trkpt lat="45.28749" lon="5.83423">
        <ele>1120.2</ele>
        <time>2011-10-16T09:05:25Z</time>
      </trkpt>
      <trkpt lat="45.28744" lon="5.83428">
        <ele>1119.9</ele>
        <time>2011-10-16T09:05:27Z</time>
      </trkpt>
      <trkpt lat="45.28737" lon="5.83431">
        <ele>1118.7</ele>
        <time>2011-10-16T09:05:29Z</time>
      </trkpt>
      <trkpt lat="45.28732" lon="5.83432">
        <ele>1118.5</ele>
        <time>2011-10-16T09:05:30Z</time>
      </trkpt>
      <trkpt lat="45.28725" lon="5.83433">
        <ele>1117.9</ele>
        <time>2011-10-16T09:05:32Z</time>
      </trkpt>
      <trkpt lat="45.28718" lon="5.83434">
        <ele>1117</ele>
        <time>2011-10-16T09:05:34Z</time>
      </trkpt>
      <trkpt lat="45.28712" lon="5.83433">
        <ele>1115.9</ele>
        <time>2011-10-16T09:05:37Z</time>
      </trkpt>
      <trkpt lat="45.28717" lon="5.83429">
        <ele>1111.3</ele>
        <time>2011-10-16T09:05:53Z</time>
      </trkpt>
      <trkpt lat="45.28723" lon="5.83426">
        <ele>1109.7</ele>
        <time>2011-10-16T09:05:56Z</time>
      </trkpt>
      <trkpt lat="45.28728" lon="5.83425">
        <ele>1109.5</ele>
        <time>2011-10-16T09:05:58Z</time>
      </trkpt>
      <trkpt lat="45.28732" lon="5.83421">
        <ele>1108.8</ele>
        <time>2011-10-16T09:06:01Z</time>
      </trkpt>
      <trkpt lat="45.28736" lon="5.83414">
        <ele>1108.3</ele>
        <time>2011-10-16T09:06:04Z</time>
      </trkpt>
      <trkpt lat="45.28738" lon="5.83406">
        <ele>1107.7</ele>
        <time>2011-10-16T09:06:06Z</time>
      </trkpt>
      <trkpt lat="45.28742" lon="5.83399">
        <ele>1107</ele>
        <time>2011-10-16T09:06:08Z</time>
      </trkpt>
      <trkpt lat="45.28746" lon="5.83393">
        <ele>1106.5</ele>
        <time>2011-10-16T09:06:10Z</time>
      </trkpt>
      <trkpt lat="45.28748" lon="5.83385">
        <ele>1106.4</ele>
        <time>2011-10-16T09:06:12Z</time>
      </trkpt>
      <trkpt lat="45.28749" lon="5.83375">
        <ele>1106.2</ele>
        <time>2011-10-16T09:06:14Z</time>
      </trkpt>
      <trkpt lat="45.28751" lon="5.83365">
        <ele>1105.7</ele>
        <time>2011-10-16T09:06:16Z</time>
      </trkpt>
      <trkpt lat="45.28756" lon="5.83356">
        <ele>1104.5</ele>
        <time>2011-10-16T09:06:18Z</time>
      </trkpt>
      <trkpt lat="45.28761" lon="5.83352">
        <ele>1102.9</ele>
        <time>2011-10-16T09:06:19Z</time>
      </trkpt>
      <trkpt lat="45.28765" lon="5.83349">
        <ele>1102</ele>
        <time>2011-10-16T09:06:20Z</time>
      </trkpt>
      <trkpt lat="45.28769" lon="5.83347">
        <ele>1101.2</ele>
        <time>2011-10-16T09:06:21Z</time>
      </trkpt>
      <trkpt lat="45.28777" lon="5.83342">
        <ele>1100.6</ele>
        <time>2011-10-16T09:06:23Z</time>
      </trkpt>
      <trkpt lat="45.28782" lon="5.83334">
        <ele>1100.2</ele>
        <time>2011-10-16T09:06:25Z</time>
      </trkpt>
      <trkpt lat="45.28784" lon="5.83326">
        <ele>1100</ele>
        <time>2011-10-16T09:06:26Z</time>
      </trkpt>
      <trkpt lat="45.28786" lon="5.8332">
        <ele>1099.7</ele>
        <time>2011-10-16T09:06:27Z</time>
      </trkpt>
      <trkpt lat="45.28789" lon="5.83309">
        <ele>1098.9</ele>
        <time>2011-10-16T09:06:29Z</time>
      </trkpt>
      <trkpt lat="45.28794" lon="5.833">
        <ele>1097.7</ele>
        <time>2011-10-16T09:06:31Z</time>
      </trkpt>
      <trkpt lat="45.288" lon="5.83293">
        <ele>1095.4</ele>
        <time>2011-10-16T09:06:33Z</time>
      </trkpt>
      <trkpt lat="45.28805" lon="5.83289">
        <ele>1094.2</ele>
        <time>2011-10-16T09:06:35Z</time>
      </trkpt>
      <trkpt lat="45.28809" lon="5.83283">
        <ele>1093.5</ele>
        <time>2011-10-16T09:06:37Z</time>
      </trkpt>
      <trkpt lat="45.28813" lon="5.83277">
        <ele>1093.1</ele>
        <time>2011-10-16T09:06:39Z</time>
      </trkpt>
      <trkpt lat="45.28816" lon="5.83272">
        <ele>1092</ele>
        <time>2011-10-16T09:06:42Z</time>
      </trkpt>
      <trkpt lat="45.28812" lon="5.8328">
        <ele>1086.7</ele>
        <time>2011-10-16T09:07:12Z</time>
      </trkpt>
      <trkpt lat="45.28807" lon="5.83288">
        <ele>1085.8</ele>
        <time>2011-10-16T09:07:14Z</time>
      </trkpt>
      <trkpt lat="45.28802" lon="5.83294">
        <ele>1084.8</ele>
        <time>2011-10-16T09:07:16Z</time>
      </trkpt>
      <trkpt lat="45.28794" lon="5.83298">
        <ele>1083.6</ele>
        <time>2011-10-16T09:07:18Z</time>
      </trkpt>
      <trkpt lat="45.28787" lon="5.83305">
        <ele>1082.1</ele>
        <time>2011-10-16T09:07:20Z</time>
      </trkpt>
      <trkpt lat="45.28783" lon="5.83308">
        <ele>1081.6</ele>
        <time>2011-10-16T09:07:21Z</time>
      </trkpt>
      <trkpt lat="45.28776" lon="5.83315">
        <ele>1081</ele>
        <time>2011-10-16T09:07:23Z</time>
      </trkpt>
      <trkpt lat="45.2877" lon="5.83319">
        <ele>1080.2</ele>
        <time>2011-10-16T09:07:24Z</time>
      </trkpt>
      <trkpt lat="45.28765" lon="5.83321">
        <ele>1080</ele>
        <time>2011-10-16T09:07:25Z</time>
      </trkpt>
      <trkpt lat="45.28759" lon="5.83323">
        <ele>1079.4</ele>
        <time>2011-10-16T09:07:26Z</time>
      </trkpt>
      <trkpt lat="45.28753" lon="5.83325">
        <ele>1078.6</ele>
        <time>2011-10-16T09:07:27Z</time>
      </trkpt>
      <trkpt lat="45.28748" lon="5.83327">
        <ele>1078.1</ele>
        <time>2011-10-16T09:07:28Z</time>
      </trkpt>
      <trkpt lat="45.28743" lon="5.83329">
        <ele>1078</ele>
        <time>2011-10-16T09:07:29Z</time>
      </trkpt>
      <trkpt lat="45.28738" lon="5.83332">
        <ele>1077.9</ele>
        <time>2011-10-16T09:07:30Z</time>
      </trkpt>
      <trkpt lat="45.28733" lon="5.83334">
        <ele>1077.3</ele>
        <time>2011-10-16T09:07:31Z</time>
      </trkpt>
      <trkpt lat="45.28729" lon="5.83336">
        <ele>1077</ele>
        <time>2011-10-16T09:07:32Z</time>
      </trkpt>
      <trkpt lat="45.28724" lon="5.8334">
        <ele>1076.7</ele>
        <time>2011-10-16T09:07:33Z</time>
      </trkpt>
      <trkpt lat="45.28717" lon="5.83346">
        <ele>1076.4</ele>
        <time>2011-10-16T09:07:35Z</time>
      </trkpt>
      <trkpt lat="45.2871" lon="5.83349">
        <ele>1075.8</ele>
        <time>2011-10-16T09:07:37Z</time>
      </trkpt>
      <trkpt lat="45.28703" lon="5.83353">
        <ele>1075.2</ele>
        <time>2011-10-16T09:07:39Z</time>
      </trkpt>
      <trkpt lat="45.28696" lon="5.83358">
        <ele>1074.4</ele>
        <time>2011-10-16T09:07:41Z</time>
      </trkpt>
      <trkpt lat="45.28689" lon="5.83361">
        <ele>1073.6</ele>
        <time>2011-10-16T09:07:43Z</time>
      </trkpt>
      <trkpt lat="45.2868" lon="5.83365">
        <ele>1072.7</ele>
        <time>2011-10-16T09:07:45Z</time>
      </trkpt>
      <trkpt lat="45.28672" lon="5.83368">
        <ele>1071.6</ele>
        <time>2011-10-16T09:07:47Z</time>
      </trkpt>
      <trkpt lat="45.28666" lon="5.83372">
        <ele>1070.2</ele>
        <time>2011-10-16T09:07:49Z</time>
      </trkpt>
      <trkpt lat="45.28658" lon="5.83374">
        <ele>1068.4</ele>
        <time>2011-10-16T09:07:51Z</time>
      </trkpt>
      <trkpt lat="45.28665" lon="5.83364">
        <ele>1063.7</ele>
        <time>2011-10-16T09:07:56Z</time>
      </trkpt>
      <trkpt lat="45.2867" lon="5.83359">
        <ele>1063.1</ele>
        <time>2011-10-16T09:07:57Z</time>
      </trkpt>
      <trkpt lat="45.28676" lon="5.83352">
        <ele>1062.1</ele>
        <time>2011-10-16T09:07:59Z</time>
      </trkpt>
      <trkpt lat="45.28681" lon="5.83342">
        <ele>1060.4</ele>
        <time>2011-10-16T09:08:01Z</time>
      </trkpt>
      <trkpt lat="45.28686" lon="5.83333">
        <ele>1059.4</ele>
        <time>2011-10-16T09:08:03Z</time>
      </trkpt>
      <trkpt lat="45.28691" lon="5.83328">
        <ele>1058.1</ele>
        <time>2011-10-16T09:08:04Z</time>
      </trkpt>
      <trkpt lat="45.28696" lon="5.8332">
        <ele>1057.6</ele>
        <time>2011-10-16T09:08:06Z</time>
      </trkpt>
      <trkpt lat="45.28699" lon="5.83315">
        <ele>1057.3</ele>
        <time>2011-10-16T09:08:08Z</time>
      </trkpt>
      <trkpt lat="45.28702" lon="5.83306">
        <ele>1057.1</ele>
        <time>2011-10-16T09:08:10Z</time>
      </trkpt>
      <trkpt lat="45.28707" lon="5.83297">
        <ele>1056.3</ele>
        <time>2011-10-16T09:08:12Z</time>
      </trkpt>
      <trkpt lat="45.28713" lon="5.83291">
        <ele>1055.5</ele>
        <time>2011-10-16T09:08:14Z</time>
      </trkpt>
      <trkpt lat="45.28719" lon="5.83284">
        <ele>1055.2</ele>
        <time>2011-10-16T09:08:16Z</time>
      </trkpt>
      <trkpt lat="45.28725" lon="5.83276">
        <ele>1054.6</ele>
        <time>2011-10-16T09:08:18Z</time>
      </trkpt>
      <trkpt lat="45.2873" lon="5.83264">
        <ele>1053.7</ele>
        <time>2011-10-16T09:08:20Z</time>
      </trkpt>
      <trkpt lat="45.28736" lon="5.83255">
        <ele>1052.6</ele>
        <time>2011-10-16T09:08:22Z</time>
      </trkpt>
      <trkpt lat="45.2874" lon="5.83249">
        <ele>1051.9</ele>
        <time>2011-10-16T09:08:23Z</time>
      </trkpt>
      <trkpt lat="45.28744" lon="5.83245">
        <ele>1051.8</ele>
        <time>2011-10-16T09:08:24Z</time>
      </trkpt>
      <trkpt lat="45.28748" lon="5.83241">
        <ele>1051.3</ele>
        <time>2011-10-16T09:08:25Z</time>
      </trkpt>
      <trkpt lat="45.28754" lon="5.83238">
        <ele>1050.4</ele>
        <time>2011-10-16T09:08:26Z</time>
      </trkpt>
      <trkpt lat="45.28758" lon="5.83234">
        <ele>1049.7</ele>
        <time>2011-10-16T09:08:27Z</time>
      </trkpt>
      <trkpt lat="45.28764" lon="5.83228">
        <ele>1049.1</ele>
        <time>2011-10-16T09:08:29Z</time>
      </trkpt>
      <trkpt lat="45.28767" lon="5.83219">
        <ele>1047.8</ele>
        <time>2011-10-16T09:08:31Z</time>
      </trkpt>
      <trkpt lat="45.28768" lon="5.8321">
        <ele>1046.7</ele>
        <time>2011-10-16T09:08:33Z</time>
      </trkpt>
      <trkpt lat="45.2877" lon="5.832">
        <ele>1045.7</ele>
        <time>2011-10-16T09:08:35Z</time>
      </trkpt>
      <trkpt lat="45.28772" lon="5.83191">
        <ele>1045.1</ele>
        <time>2011-10-16T09:08:37Z</time>
      </trkpt>
      <trkpt lat="45.28773" lon="5.83184">
        <ele>1044.5</ele>
        <time>2011-10-16T09:08:39Z</time>
      </trkpt>
      <trkpt lat="45.2877" lon="5.83192">
        <ele>1038.2</ele>
        <time>2011-10-16T09:08:47Z</time>
      </trkpt>
      <trkpt lat="45.28767" lon="5.83198">
        <ele>1036.8</ele>
        <time>2011-10-16T09:08:49Z</time>
      </trkpt>
      <trkpt lat="45.28764" lon="5.83205">
        <ele>1035.5</ele>
        <time>2011-10-16T09:08:51Z</time>
      </trkpt>
      <trkpt lat="45.28762" lon="5.83212">
        <ele>1034.8</ele>
        <time>2011-10-16T09:08:53Z</time>
      </trkpt>
      <trkpt lat="45.28756" lon="5.83216">
        <ele>1033.8</ele>
        <time>2011-10-16T09:08:55Z</time>
      </trkpt>
      <trkpt lat="45.28748" lon="5.83216">
        <ele>1032.4</ele>
        <time>2011-10-16T09:08:57Z</time>
      </trkpt>
      <trkpt lat="45.28739" lon="5.83218">
        <ele>1031.5</ele>
        <time>2011-10-16T09:08:59Z</time>
      </trkpt>
      <trkpt lat="45.28733" lon="5.83222">
        <ele>1030.9</ele>
        <time>2011-10-16T09:09:01Z</time>
      </trkpt>
      <trkpt lat="45.28728" lon="5.83225">
        <ele>1030.4</ele>
        <time>2011-10-16T09:09:02Z</time>
      </trkpt>
      <trkpt lat="45.28724" lon="5.83228">
        <ele>1029.3</ele>
        <time>2011-10-16T09:09:03Z</time>
      </trkpt>
      <trkpt lat="45.28718" lon="5.83235">
        <ele>1028.4</ele>
        <time>2011-10-16T09:09:05Z</time>
      </trkpt>
      <trkpt lat="45.28711" lon="5.83242">
        <ele>1027.8</ele>
        <time>2011-10-16T09:09:07Z</time>
      </trkpt>
      <trkpt lat="45.28702" lon="5.83246">
        <ele>1026.8</ele>
        <time>2011-10-16T09:09:09Z</time>
      </trkpt>
      <trkpt lat="45.28698" lon="5.83247">
        <ele>1026.3</ele>
        <time>2011-10-16T09:09:10Z</time>
      </trkpt>
      <trkpt lat="45.28693" lon="5.83249">
        <ele>1026</ele>
        <time>2011-10-16T09:09:11Z</time>
      </trkpt>
      <trkpt lat="45.28685" lon="5.83255">
        <ele>1025.3</ele>
        <time>2011-10-16T09:09:13Z</time>
      </trkpt>
      <trkpt lat="45.28678" lon="5.83262">
        <ele>1025.1</ele>
        <time>2011-10-16T09:09:15Z</time>
      </trkpt>
      <trkpt lat="45.2867" lon="5.83265">
        <ele>1024.4</ele>
        <time>2011-10-16T09:09:17Z</time>
      </trkpt>
      <trkpt lat="45.28665" lon="5.83266">
        <ele>1023.2</ele>
        <time>2011-10-16T09:09:18Z</time>
      </trkpt>
      <trkpt lat="45.2866" lon="5.83268">
        <ele>1022.1</ele>
        <time>2011-10-16T09:09:19Z</time>
      </trkpt>
      <trkpt lat="45.28654" lon="5.83271">
        <ele>1021.3</ele>
        <time>2011-10-16T09:09:20Z</time>
      </trkpt>
      <trkpt lat="45.28649" lon="5.83273">
        <ele>1020.6</ele>
        <time>2011-10-16T09:09:21Z</time>
      </trkpt>
      <trkpt lat="45.28642" lon="5.83278">
        <ele>1019.2</ele>
        <time>2011-10-16T09:09:23Z</time>
      </trkpt>
      <trkpt lat="45.28634" lon="5.83284">
        <ele>1017.8</ele>
        <time>2011-10-16T09:09:25Z</time>
      </trkpt>
      <trkpt lat="45.28627" lon="5.83289">
        <ele>1016.3</ele>
        <time>2011-10-16T09:09:27Z</time>
      </trkpt>
      <trkpt lat="45.28622" lon="5.83291">
        <ele>1015.5</ele>
        <time>2011-10-16T09:09:28Z</time>
      </trkpt>
      <trkpt lat="45.28616" lon="5.83296">
        <ele>1014.4</ele>
        <time>2011-10-16T09:09:30Z</time>
      </trkpt>
      <trkpt lat="45.2861" lon="5.83299">
        <ele>1013.6</ele>
        <time>2011-10-16T09:09:32Z</time>
      </trkpt>
      <trkpt lat="45.28614" lon="5.83294">
        <ele>1006.6</ele>
        <time>2011-10-16T09:09:49Z</time>
      </trkpt>
      <trkpt lat="45.28621" lon="5.83286">
        <ele>1004.5</ele>
        <time>2011-10-16T09:09:52Z</time>
      </trkpt>
      <trkpt lat="45.28624" lon="5.83281">
        <ele>1003.9</ele>
        <time>2011-10-16T09:09:53Z</time>
      </trkpt>
      <trkpt lat="45.2863" lon="5.83275">
        <ele>1002.7</ele>
        <time>2011-10-16T09:09:55Z</time>
      </trkpt>
      <trkpt lat="45.28636" lon="5.83267">
        <ele>1001.3</ele>
        <time>2011-10-16T09:09:57Z</time>
      </trkpt>
      <trkpt lat="45.28639" lon="5.83262">
        <ele>1000.2</ele>
        <time>2011-10-16T09:09:58Z</time>
      </trkpt>
      <trkpt lat="45.28643" lon="5.83257">
        <ele>999.4</ele>
        <time>2011-10-16T09:09:59Z</time>
      </trkpt>
      <trkpt lat="45.28647" lon="5.83254">
        <ele>998.7</ele>
        <time>2011-10-16T09:10:00Z</time>
      </trkpt>
      <trkpt lat="45.28653" lon="5.83247">
        <ele>997.6</ele>
        <time>2011-10-16T09:10:02Z</time>
      </trkpt>
      <trkpt lat="45.28659" lon="5.8324">
        <ele>996.5</ele>
        <time>2011-10-16T09:10:04Z</time>
      </trkpt>
      <trkpt lat="45.28662" lon="5.83236">
        <ele>995.9</ele>
        <time>2011-10-16T09:10:05Z</time>
      </trkpt>
      <trkpt lat="45.28668" lon="5.83228">
        <ele>994.8</ele>
        <time>2011-10-16T09:10:07Z</time>
      </trkpt>
      <trkpt lat="45.28674" lon="5.83223">
        <ele>994.1</ele>
        <time>2011-10-16T09:10:09Z</time>
      </trkpt>
      <trkpt lat="45.2868" lon="5.83217">
        <ele>993.1</ele>
        <time>2011-10-16T09:10:11Z</time>
      </trkpt>
      <trkpt lat="45.28686" lon="5.83208">
        <ele>991.9</ele>
        <time>2011-10-16T09:10:13Z</time>
      </trkpt>
      <trkpt lat="45.28689" lon="5.83202">
        <ele>991.3</ele>
        <time>2011-10-16T09:10:14Z</time>
      </trkpt>
      <trkpt lat="45.28692" lon="5.83198">
        <ele>990.5</ele>
        <time>2011-10-16T09:10:15Z</time>
      </trkpt>
      <trkpt lat="45.28696" lon="5.83192">
        <ele>989.8</ele>
        <time>2011-10-16T09:10:16Z</time>
      </trkpt>
      <trkpt lat="45.28699" lon="5.83186">
        <ele>989.2</ele>
        <time>2011-10-16T09:10:17Z</time>
      </trkpt>
      <trkpt lat="45.28702" lon="5.83181">
        <ele>988.6</ele>
        <time>2011-10-16T09:10:18Z</time>
      </trkpt>
      <trkpt lat="45.28706" lon="5.83176">
        <ele>988</ele>
        <time>2011-10-16T09:10:19Z</time>
      </trkpt>
      <trkpt lat="45.2871" lon="5.83171">
        <ele>987.2</ele>
        <time>2011-10-16T09:10:20Z</time>
      </trkpt>
      <trkpt lat="45.28713" lon="5.83167">
        <ele>986.3</ele>
        <time>2011-10-16T09:10:21Z</time>
      </trkpt>
      <trkpt lat="45.28719" lon="5.8316">
        <ele>985.1</ele>
        <time>2011-10-16T09:10:23Z</time>
      </trkpt>
      <trkpt lat="45.28723" lon="5.83157">
        <ele>983.7</ele>
        <time>2011-10-16T09:10:25Z</time>
      </trkpt>
      <trkpt lat="45.28728" lon="5.83148">
        <ele>982</ele>
        <time>2011-10-16T09:10:27Z</time>
      </trkpt>
      <trkpt lat="45.28731" lon="5.83142">
        <ele>981.9</ele>
        <time>2011-10-16T09:10:28Z</time>
      </trkpt>
      <trkpt lat="45.28732" lon="5.83135">
        <ele>981.5</ele>
        <time>2011-10-16T09:10:29Z</time>
      </trkpt>
      <trkpt lat="45.28735" lon="5.83125">
        <ele>980</ele>
        <time>2011-10-16T09:10:31Z</time>
      </trkpt>
      <trkpt lat="45.28731" lon="5.83129">
        <ele>976.5</ele>
        <time>2011-10-16T09:10:40Z</time>
      </trkpt>
      <trkpt lat="45.28728" lon="5.83138">
        <ele>976.3</ele>
        <time>2011-10-16T09:10:42Z</time>
      </trkpt>
      <trkpt lat="45.28725" lon="5.83145">
        <ele>976.2</ele>
        <time>2011-10-16T09:10:44Z</time>
      </trkpt>
      <trkpt lat="45.28723" lon="5.83151">
        <ele>976.4</ele>
        <time>2011-10-16T09:10:46Z</time>
      </trkpt>
      <trkpt lat="45.28718" lon="5.83157">
        <ele>976.2</ele>
        <time>2011-10-16T09:10:49Z</time>
      </trkpt>
      <trkpt lat="45.28712" lon="5.83159">
        <ele>976.1</ele>
        <time>2011-10-16T09:10:51Z</time>
      </trkpt>
      <trkpt lat="45.28704" lon="5.8316">
        <ele>976.2</ele>
        <time>2011-10-16T09:10:53Z</time>
      </trkpt>
      <trkpt lat="45.28697" lon="5.83163">
        <ele>976.2</ele>
        <time>2011-10-16T09:10:55Z</time>
      </trkpt>
      <trkpt lat="45.28691" lon="5.83167">
        <ele>976.1</ele>
        <time>2011-10-16T09:10:57Z</time>
      </trkpt>
      <trkpt lat="45.28685" lon="5.83167">
        <ele>976.1</ele>
        <time>2011-10-16T09:10:59Z</time>
      </trkpt>
      <trkpt lat="45.28679" lon="5.83171">
        <ele>976</ele>
        <time>2011-10-16T09:11:01Z</time>
      </trkpt>
      <trkpt lat="45.28672" lon="5.83175">
        <ele>975.7</ele>
        <time>2011-10-16T09:11:03Z</time>
      </trkpt>
      <trkpt lat="45.28664" lon="5.83181">
        <ele>975.6</ele>
        <time>2011-10-16T09:11:05Z</time>
      </trkpt>
      <trkpt lat="45.28658" lon="5.83186">
        <ele>974.9</ele>
        <time>2011-10-16T09:11:07Z</time>
      </trkpt>
      <trkpt lat="45.28652" lon="5.8319">
        <ele>974.3</ele>
        <time>2011-10-16T09:11:09Z</time>
      </trkpt>
      <trkpt lat="45.28645" lon="5.83192">
        <ele>974.1</ele>
        <time>2011-10-16T09:11:11Z</time>
      </trkpt>
      <trkpt lat="45.28637" lon="5.83197">
        <ele>973.8</ele>
        <time>2011-10-16T09:11:13Z</time>
      </trkpt>
      <trkpt lat="45.28635" lon="5.83191">
        <ele>971.4</ele>
        <time>2011-10-16T09:11:20Z</time>
      </trkpt>
      <trkpt lat="45.28637" lon="5.83183">
        <ele>964.8</ele>
        <time>2011-10-16T09:11:33Z</time>
      </trkpt>
      <trkpt lat="45.28641" lon="5.83175">
        <ele>963.4</ele>
        <time>2011-10-16T09:11:35Z</time>
      </trkpt>
      <trkpt lat="45.28645" lon="5.83163">
        <ele>961.9</ele>
        <time>2011-10-16T09:11:37Z</time>
      </trkpt>
      <trkpt lat="45.28649" lon="5.83157">
        <ele>961.4</ele>
        <time>2011-10-16T09:11:38Z</time>
      </trkpt>
      <trkpt lat="45.28652" lon="5.8315">
        <ele>960.5</ele>
        <time>2011-10-16T09:11:39Z</time>
      </trkpt>
      <trkpt lat="45.28655" lon="5.83144">
        <ele>959.8</ele>
        <time>2011-10-16T09:11:40Z</time>
      </trkpt>
      <trkpt lat="45.28659" lon="5.83136">
        <ele>957.7</ele>
        <time>2011-10-16T09:11:42Z</time>
      </trkpt>
      <trkpt lat="45.28666" lon="5.83132">
        <ele>956.5</ele>
        <time>2011-10-16T09:11:44Z</time>
      </trkpt>
      <trkpt lat="45.28672" lon="5.8313">
        <ele>955.3</ele>
        <time>2011-10-16T09:11:46Z</time>
      </trkpt>
      <trkpt lat="45.28678" lon="5.83127">
        <ele>953.6</ele>
        <time>2011-10-16T09:11:48Z</time>
      </trkpt>
      <trkpt lat="45.28684" lon="5.83117">
        <ele>951.6</ele>
        <time>2011-10-16T09:11:50Z</time>
      </trkpt>
      <trkpt lat="45.28688" lon="5.83109">
        <ele>949.7</ele>
        <time>2011-10-16T09:11:52Z</time>
      </trkpt>
      <trkpt lat="45.28689" lon="5.83103">
        <ele>948.1</ele>
        <time>2011-10-16T09:11:56Z</time>
      </trkpt>
      <trkpt lat="45.28682" lon="5.83104">
        <ele>948</ele>
        <time>2011-10-16T09:11:59Z</time>
      </trkpt>
      <trkpt lat="45.28677" lon="5.83106">
        <ele>947.9</ele>
        <time>2011-10-16T09:12:01Z</time>
      </trkpt>
      <trkpt lat="45.2867" lon="5.83101">
        <ele>946.8</ele>
        <time>2011-10-16T09:12:04Z</time>
      </trkpt>
      <trkpt lat="45.28664" lon="5.83096">
        <ele>946.2</ele>
        <time>2011-10-16T09:12:06Z</time>
      </trkpt>
      <trkpt lat="45.2866" lon="5.83094">
        <ele>944.8</ele>
        <time>2011-10-16T09:12:07Z</time>
      </trkpt>
      <trkpt lat="45.28652" lon="5.83091">
        <ele>942.5</ele>
        <time>2011-10-16T09:12:09Z</time>
      </trkpt>
      <trkpt lat="45.28647" lon="5.83088">
        <ele>932.7</ele>
        <time>2011-10-16T09:12:26Z</time>
      </trkpt>
      <trkpt lat="45.28643" lon="5.83085">
        <ele>930.9</ele>
        <time>2011-10-16T09:12:28Z</time>
      </trkpt>
      <trkpt lat="45.28634" lon="5.83086">
        <ele>929.7</ele>
        <time>2011-10-16T09:12:30Z</time>
      </trkpt>
      <trkpt lat="45.28628" lon="5.83086">
        <ele>929.2</ele>
        <time>2011-10-16T09:12:31Z</time>
      </trkpt>
      <trkpt lat="45.28623" lon="5.83086">
        <ele>928.7</ele>
        <time>2011-10-16T09:12:32Z</time>
      </trkpt>
      <trkpt lat="45.28619" lon="5.83086">
        <ele>928.1</ele>
        <time>2011-10-16T09:12:33Z</time>
      </trkpt>
      <trkpt lat="45.28614" lon="5.83085">
        <ele>927.4</ele>
        <time>2011-10-16T09:12:34Z</time>
      </trkpt>
      <trkpt lat="45.28609" lon="5.83081">
        <ele>924.2</ele>
        <time>2011-10-16T09:12:36Z</time>
      </trkpt>
      <trkpt lat="45.28608" lon="5.83074">
        <ele>916.7</ele>
        <time>2011-10-16T09:12:39Z</time>
      </trkpt>
      <trkpt lat="45.28606" lon="5.83064">
        <ele>911.5</ele>
        <time>2011-10-16T09:12:42Z</time>
      </trkpt>
      <trkpt lat="45.28603" lon="5.83056">
        <ele>909.2</ele>
        <time>2011-10-16T09:12:44Z</time>
      </trkpt>
      <trkpt lat="45.28605" lon="5.83048">
        <ele>907.2</ele>
        <time>2011-10-16T09:12:47Z</time>
      </trkpt>
      <trkpt lat="45.28611" lon="5.83052">
        <ele>903.7</ele>
        <time>2011-10-16T09:14:19Z</time>
      </trkpt>
      <trkpt lat="45.28615" lon="5.83048">
        <ele>904.2</ele>
        <time>2011-10-16T09:14:32Z</time>
      </trkpt>
      <trkpt lat="45.28616" lon="5.8304">
        <ele>903.2</ele>
        <time>2011-10-16T09:14:46Z</time>
      </trkpt>
      <trkpt lat="45.28618" lon="5.83034">
        <ele>902.5</ele>
        <time>2011-10-16T09:14:54Z</time>
      </trkpt>
      <trkpt lat="45.28622" lon="5.83032">
        <ele>906.8</ele>
        <time>2011-10-16T09:15:10Z</time>
      </trkpt>
      <trkpt lat="45.28616" lon="5.83026">
        <ele>914.7</ele>
        <time>2011-10-16T09:16:11Z</time>
      </trkpt>
      <trkpt lat="45.28611" lon="5.83024">
        <ele>915.7</ele>
        <time>2011-10-16T09:16:19Z</time>
      </trkpt>
      <trkpt lat="45.28608" lon="5.8302">
        <ele>914.9</ele>
        <time>2011-10-16T09:16:28Z</time>
      </trkpt>
      <trkpt lat="45.28604" lon="5.83014">
        <ele>915</ele>
        <time>2011-10-16T09:16:32Z</time>
      </trkpt>
      <trkpt lat="45.28597" lon="5.83014">
        <ele>913.7</ele>
        <time>2011-10-16T09:16:34Z</time>
      </trkpt>
      <trkpt lat="45.28592" lon="5.83013">
        <ele>913.5</ele>
        <time>2011-10-16T09:16:36Z</time>
      </trkpt>
      <trkpt lat="45.28588" lon="5.83009">
        <ele>913.4</ele>
        <time>2011-10-16T09:16:45Z</time>
      </trkpt>
      <trkpt lat="45.28581" lon="5.83008">
        <ele>912.8</ele>
        <time>2011-10-16T09:16:48Z</time>
      </trkpt>
      <trkpt lat="45.28573" lon="5.83008">
        <ele>912.4</ele>
        <time>2011-10-16T09:16:50Z</time>
      </trkpt>
      <trkpt lat="45.28564" lon="5.83009">
        <ele>911.9</ele>
        <time>2011-10-16T09:16:52Z</time>
      </trkpt>
      <trkpt lat="45.2856" lon="5.83008">
        <ele>911.7</ele>
        <time>2011-10-16T09:16:54Z</time>
      </trkpt>
      <trkpt lat="45.28556" lon="5.83013">
        <ele>912.3</ele>
        <time>2011-10-16T09:17:33Z</time>
      </trkpt>
      <trkpt lat="45.28551" lon="5.83015">
        <ele>911.4</ele>
        <time>2011-10-16T09:17:38Z</time>
      </trkpt>
      <trkpt lat="45.28537" lon="5.83009">
        <ele>908.3</ele>
        <time>2011-10-16T09:18:04Z</time>
      </trkpt>
      <trkpt lat="45.28533" lon="5.83007">
        <ele>905.4</ele>
        <time>2011-10-16T09:18:08Z</time>
      </trkpt>
      <trkpt lat="45.28528" lon="5.83004">
        <ele>904.5</ele>
        <time>2011-10-16T09:18:11Z</time>
      </trkpt>
      <trkpt lat="45.28522" lon="5.83">
        <ele>902.9</ele>
        <time>2011-10-16T09:18:14Z</time>
      </trkpt>
      <trkpt lat="45.28518" lon="5.82997">
        <ele>902.5</ele>
        <time>2011-10-16T09:18:16Z</time>
      </trkpt>
      <trkpt lat="45.28511" lon="5.82994">
        <ele>901.6</ele>
        <time>2011-10-16T09:18:19Z</time>
      </trkpt>
      <trkpt lat="45.28506" lon="5.82993">
        <ele>901.1</ele>
        <time>2011-10-16T09:18:21Z</time>
      </trkpt>
      <trkpt lat="45.28499" lon="5.82991">
        <ele>899.8</ele>
        <time>2011-10-16T09:18:24Z</time>
      </trkpt>
      <trkpt lat="45.28494" lon="5.8299">
        <ele>899.4</ele>
        <time>2011-10-16T09:18:25Z</time>
      </trkpt>
      <trkpt lat="45.28489" lon="5.82988">
        <ele>898.8</ele>
        <time>2011-10-16T09:18:27Z</time>
      </trkpt>
      <trkpt lat="45.28486" lon="5.82983">
        <ele>898.7</ele>
        <time>2011-10-16T09:18:32Z</time>
      </trkpt>
      <trkpt lat="45.28486" lon="5.8299">
        <ele>896.4</ele>
        <time>2011-10-16T09:18:38Z</time>
      </trkpt>
      <trkpt lat="45.28482" lon="5.82993">
        <ele>892.9</ele>
        <time>2011-10-16T09:18:42Z</time>
      </trkpt>
      <trkpt lat="45.28475" lon="5.82994">
        <ele>891.3</ele>
        <time>2011-10-16T09:18:44Z</time>
      </trkpt>
      <trkpt lat="45.2847" lon="5.82992">
        <ele>889.8</ele>
        <time>2011-10-16T09:18:46Z</time>
      </trkpt>
      <trkpt lat="45.28465" lon="5.82991">
        <ele>888.6</ele>
        <time>2011-10-16T09:18:48Z</time>
      </trkpt>
      <trkpt lat="45.28459" lon="5.8299">
        <ele>887.7</ele>
        <time>2011-10-16T09:18:50Z</time>
      </trkpt>
      <trkpt lat="45.28454" lon="5.82988">
        <ele>887.3</ele>
        <time>2011-10-16T09:18:52Z</time>
      </trkpt>
      <trkpt lat="45.28447" lon="5.82984">
        <ele>886.5</ele>
        <time>2011-10-16T09:18:54Z</time>
      </trkpt>
      <trkpt lat="45.2844" lon="5.82981">
        <ele>885.6</ele>
        <time>2011-10-16T09:18:56Z</time>
      </trkpt>
      <trkpt lat="45.28435" lon="5.82979">
        <ele>885.2</ele>
        <time>2011-10-16T09:18:57Z</time>
      </trkpt>
      <trkpt lat="45.2843" lon="5.82977">
        <ele>885.2</ele>
        <time>2011-10-16T09:18:58Z</time>
      </trkpt>
      <trkpt lat="45.28423" lon="5.82975">
        <ele>884.5</ele>
        <time>2011-10-16T09:19:00Z</time>
      </trkpt>
      <trkpt lat="45.28414" lon="5.82972">
        <ele>884</ele>
        <time>2011-10-16T09:19:02Z</time>
      </trkpt>
      <trkpt lat="45.28406" lon="5.8297">
        <ele>883.8</ele>
        <time>2011-10-16T09:19:04Z</time>
      </trkpt>
      <trkpt lat="45.28397" lon="5.8297">
        <ele>883.3</ele>
        <time>2011-10-16T09:19:06Z</time>
      </trkpt>
      <trkpt lat="45.28389" lon="5.82969">
        <ele>882.7</ele>
        <time>2011-10-16T09:19:08Z</time>
      </trkpt>
      <trkpt lat="45.28384" lon="5.82969">
        <ele>882.4</ele>
        <time>2011-10-16T09:19:10Z</time>
      </trkpt>
      <trkpt lat="45.28378" lon="5.82967">
        <ele>882.1</ele>
        <time>2011-10-16T09:19:13Z</time>
      </trkpt>
      <trkpt lat="45.28373" lon="5.82967">
        <ele>881.4</ele>
        <time>2011-10-16T09:19:15Z</time>
      </trkpt>
      <trkpt lat="45.28367" lon="5.82964">
        <ele>879.9</ele>
        <time>2011-10-16T09:19:18Z</time>
      </trkpt>
      <trkpt lat="45.28362" lon="5.82962">
        <ele>879.1</ele>
        <time>2011-10-16T09:19:20Z</time>
      </trkpt>
      <trkpt lat="45.28355" lon="5.82959">
        <ele>877.8</ele>
        <time>2011-10-16T09:19:22Z</time>
      </trkpt>
      <trkpt lat="45.2835" lon="5.82957">
        <ele>877.3</ele>
        <time>2011-10-16T09:19:23Z</time>
      </trkpt>
      <trkpt lat="45.28343" lon="5.82956">
        <ele>876.7</ele>
        <time>2011-10-16T09:19:24Z</time>
      </trkpt>
      <trkpt lat="45.28339" lon="5.82954">
        <ele>876.3</ele>
        <time>2011-10-16T09:19:25Z</time>
      </trkpt>
      <trkpt lat="45.28334" lon="5.82952">
        <ele>876.1</ele>
        <time>2011-10-16T09:19:26Z</time>
      </trkpt>
      <trkpt lat="45.28329" lon="5.8295">
        <ele>876</ele>
        <time>2011-10-16T09:19:27Z</time>
      </trkpt>
      <trkpt lat="45.28325" lon="5.82948">
        <ele>875.7</ele>
        <time>2011-10-16T09:19:28Z</time>
      </trkpt>
      <trkpt lat="45.28314" lon="5.82943">
        <ele>874.8</ele>
        <time>2011-10-16T09:19:29Z</time>
      </trkpt>
      <trkpt lat="45.28309" lon="5.82941">
        <ele>874.2</ele>
        <time>2011-10-16T09:19:30Z</time>
      </trkpt>
      <trkpt lat="45.28304" lon="5.82939">
        <ele>873.7</ele>
        <time>2011-10-16T09:19:31Z</time>
      </trkpt>
      <trkpt lat="45.28298" lon="5.82938">
        <ele>873.7</ele>
        <time>2011-10-16T09:19:32Z</time>
      </trkpt>
      <trkpt lat="45.28292" lon="5.82936">
        <ele>873.2</ele>
        <time>2011-10-16T09:19:33Z</time>
      </trkpt>
      <trkpt lat="45.28288" lon="5.82934">
        <ele>872.3</ele>
        <time>2011-10-16T09:19:34Z</time>
      </trkpt>
      <trkpt lat="45.28282" lon="5.82931">
        <ele>871.9</ele>
        <time>2011-10-16T09:19:35Z</time>
      </trkpt>
      <trkpt lat="45.28278" lon="5.82928">
        <ele>871.7</ele>
        <time>2011-10-16T09:19:36Z</time>
      </trkpt>
      <trkpt lat="45.28273" lon="5.82923">
        <ele>871.2</ele>
        <time>2011-10-16T09:19:37Z</time>
      </trkpt>
      <trkpt lat="45.28268" lon="5.8292">
        <ele>870.9</ele>
        <time>2011-10-16T09:19:38Z</time>
      </trkpt>
      <trkpt lat="45.28264" lon="5.82918">
        <ele>870.2</ele>
        <time>2011-10-16T09:19:39Z</time>
      </trkpt>
      <trkpt lat="45.28259" lon="5.82916">
        <ele>870.3</ele>
        <time>2011-10-16T09:19:40Z</time>
      </trkpt>
      <trkpt lat="45.28254" lon="5.82912">
        <ele>869.8</ele>
        <time>2011-10-16T09:19:41Z</time>
      </trkpt>
      <trkpt lat="45.28249" lon="5.82912">
        <ele>869.6</ele>
        <time>2011-10-16T09:19:42Z</time>
      </trkpt>
      <trkpt lat="45.28244" lon="5.82917">
        <ele>868.5</ele>
        <time>2011-10-16T09:19:44Z</time>
      </trkpt>
      <trkpt lat="45.28245" lon="5.82924">
        <ele>867.3</ele>
        <time>2011-10-16T09:19:47Z</time>
      </trkpt>
      <trkpt lat="45.28243" lon="5.8293">
        <ele>864.2</ele>
        <time>2011-10-16T09:20:11Z</time>
      </trkpt>
      <trkpt lat="45.28237" lon="5.82935">
        <ele>863.3</ele>
        <time>2011-10-16T09:20:15Z</time>
      </trkpt>
      <trkpt lat="45.28224" lon="5.82935">
        <ele>860</ele>
        <time>2011-10-16T09:20:18Z</time>
      </trkpt>
      <trkpt lat="45.28217" lon="5.82936">
        <ele>859.6</ele>
        <time>2011-10-16T09:20:20Z</time>
      </trkpt>
      <trkpt lat="45.2821" lon="5.82936">
        <ele>859.3</ele>
        <time>2011-10-16T09:20:22Z</time>
      </trkpt>
      <trkpt lat="45.28204" lon="5.82934">
        <ele>859.2</ele>
        <time>2011-10-16T09:20:24Z</time>
      </trkpt>
      <trkpt lat="45.28194" lon="5.8293">
        <ele>858.6</ele>
        <time>2011-10-16T09:20:26Z</time>
      </trkpt>
      <trkpt lat="45.28188" lon="5.82927">
        <ele>858.2</ele>
        <time>2011-10-16T09:20:27Z</time>
      </trkpt>
      <trkpt lat="45.28182" lon="5.82926">
        <ele>857.7</ele>
        <time>2011-10-16T09:20:28Z</time>
      </trkpt>
      <trkpt lat="45.28176" lon="5.82925">
        <ele>857.4</ele>
        <time>2011-10-16T09:20:29Z</time>
      </trkpt>
      <trkpt lat="45.28171" lon="5.82925">
        <ele>857.3</ele>
        <time>2011-10-16T09:20:30Z</time>
      </trkpt>
      <trkpt lat="45.28165" lon="5.82926">
        <ele>857.1</ele>
        <time>2011-10-16T09:20:31Z</time>
      </trkpt>
      <trkpt lat="45.2816" lon="5.82927">
        <ele>856.9</ele>
        <time>2011-10-16T09:20:32Z</time>
      </trkpt>
      <trkpt lat="45.28155" lon="5.82926">
        <ele>856.7</ele>
        <time>2011-10-16T09:20:33Z</time>
      </trkpt>
      <trkpt lat="45.2815" lon="5.82926">
        <ele>856.1</ele>
        <time>2011-10-16T09:20:34Z</time>
      </trkpt>
      <trkpt lat="45.28145" lon="5.82925">
        <ele>855.4</ele>
        <time>2011-10-16T09:20:35Z</time>
      </trkpt>
      <trkpt lat="45.28139" lon="5.82925">
        <ele>855.4</ele>
        <time>2011-10-16T09:20:36Z</time>
      </trkpt>
      <trkpt lat="45.28134" lon="5.82924">
        <ele>855.3</ele>
        <time>2011-10-16T09:20:37Z</time>
      </trkpt>
      <trkpt lat="45.28123" lon="5.82922">
        <ele>855.1</ele>
        <time>2011-10-16T09:20:39Z</time>
      </trkpt>
      <trkpt lat="45.28113" lon="5.82923">
        <ele>855</ele>
        <time>2011-10-16T09:20:41Z</time>
      </trkpt>
      <trkpt lat="45.28106" lon="5.82924">
        <ele>854.8</ele>
        <time>2011-10-16T09:20:43Z</time>
      </trkpt>
      <trkpt lat="45.281" lon="5.82925">
        <ele>854.8</ele>
        <time>2011-10-16T09:20:45Z</time>
      </trkpt>
      <trkpt lat="45.28094" lon="5.82928">
        <ele>854.6</ele>
        <time>2011-10-16T09:20:47Z</time>
      </trkpt>
      <trkpt lat="45.28094" lon="5.82936">
        <ele>853.7</ele>
        <time>2011-10-16T09:20:52Z</time>
      </trkpt>
      <trkpt lat="45.28098" lon="5.82943">
        <ele>852</ele>
        <time>2011-10-16T09:20:56Z</time>
      </trkpt>
      <trkpt lat="45.28097" lon="5.82951">
        <ele>850.6</ele>
        <time>2011-10-16T09:21:01Z</time>
      </trkpt>
      <trkpt lat="45.28093" lon="5.82954">
        <ele>849.9</ele>
        <time>2011-10-16T09:21:03Z</time>
      </trkpt>
      <trkpt lat="45.28089" lon="5.82956">
        <ele>849.2</ele>
        <time>2011-10-16T09:21:05Z</time>
      </trkpt>
      <trkpt lat="45.28083" lon="5.82961">
        <ele>847.7</ele>
        <time>2011-10-16T09:21:07Z</time>
      </trkpt>
      <trkpt lat="45.2808" lon="5.82966">
        <ele>841</ele>
        <time>2011-10-16T09:21:23Z</time>
      </trkpt>
      <trkpt lat="45.28075" lon="5.82967">
        <ele>838</ele>
        <time>2011-10-16T09:21:28Z</time>
      </trkpt>
      <trkpt lat="45.28075" lon="5.82967">
        <ele>838</ele>
        <time>2011-10-16T09:21:28Z</time>
      </trkpt>
      <trkpt lat="45.28075" lon="5.82967">
        <ele>838</ele>
        <time>2011-10-16T09:21:30Z</time>
      </trkpt>
      <trkpt lat="45.2807" lon="5.82969">
        <ele>835.6</ele>
        <time>2011-10-16T09:21:35Z</time>
      </trkpt>
      <trkpt lat="45.28066" lon="5.82971">
        <ele>833.8</ele>
        <time>2011-10-16T09:21:39Z</time>
      </trkpt>
      <trkpt lat="45.28061" lon="5.8297">
        <ele>833.7</ele>
        <time>2011-10-16T09:21:42Z</time>
      </trkpt>
      <trkpt lat="45.28055" lon="5.82969">
        <ele>831.9</ele>
        <time>2011-10-16T09:21:43Z</time>
      </trkpt>
      <trkpt lat="45.2805" lon="5.82966">
        <ele>831.7</ele>
        <time>2011-10-16T09:21:45Z</time>
      </trkpt>
      <trkpt lat="45.28045" lon="5.82961">
        <ele>831.1</ele>
        <time>2011-10-16T09:21:47Z</time>
      </trkpt>
      <trkpt lat="45.28037" lon="5.82954">
        <ele>829.4</ele>
        <time>2011-10-16T09:21:49Z</time>
      </trkpt>
      <trkpt lat="45.28033" lon="5.82949">
        <ele>828.5</ele>
        <time>2011-10-16T09:21:50Z</time>
      </trkpt>
      <trkpt lat="45.28029" lon="5.82944">
        <ele>827.9</ele>
        <time>2011-10-16T09:21:51Z</time>
      </trkpt>
      <trkpt lat="45.28024" lon="5.82939">
        <ele>827.2</ele>
        <time>2011-10-16T09:21:52Z</time>
      </trkpt>
      <trkpt lat="45.28018" lon="5.82932">
        <ele>826.2</ele>
        <time>2011-10-16T09:21:53Z</time>
      </trkpt>
      <trkpt lat="45.28013" lon="5.82928">
        <ele>824.9</ele>
        <time>2011-10-16T09:21:54Z</time>
      </trkpt>
      <trkpt lat="45.28009" lon="5.82923">
        <ele>824.2</ele>
        <time>2011-10-16T09:21:55Z</time>
      </trkpt>
      <trkpt lat="45.28004" lon="5.8292">
        <ele>823.7</ele>
        <time>2011-10-16T09:21:56Z</time>
      </trkpt>
      <trkpt lat="45.27999" lon="5.82917">
        <ele>823.1</ele>
        <time>2011-10-16T09:21:57Z</time>
      </trkpt>
      <trkpt lat="45.27994" lon="5.82914">
        <ele>822.5</ele>
        <time>2011-10-16T09:21:58Z</time>
      </trkpt>
      <trkpt lat="45.27988" lon="5.8291">
        <ele>822.1</ele>
        <time>2011-10-16T09:21:59Z</time>
      </trkpt>
      <trkpt lat="45.27981" lon="5.82906">
        <ele>820.9</ele>
        <time>2011-10-16T09:22:00Z</time>
      </trkpt>
      <trkpt lat="45.27974" lon="5.82901">
        <ele>819.5</ele>
        <time>2011-10-16T09:22:01Z</time>
      </trkpt>
      <trkpt lat="45.27968" lon="5.82896">
        <ele>818.4</ele>
        <time>2011-10-16T09:22:02Z</time>
      </trkpt>
      <trkpt lat="45.27964" lon="5.82892">
        <ele>817.4</ele>
        <time>2011-10-16T09:22:03Z</time>
      </trkpt>
      <trkpt lat="45.27958" lon="5.82888">
        <ele>816.1</ele>
        <time>2011-10-16T09:22:04Z</time>
      </trkpt>
      <trkpt lat="45.27952" lon="5.82884">
        <ele>814.6</ele>
        <time>2011-10-16T09:22:05Z</time>
      </trkpt>
      <trkpt lat="45.27946" lon="5.82881">
        <ele>813.3</ele>
        <time>2011-10-16T09:22:06Z</time>
      </trkpt>
      <trkpt lat="45.27941" lon="5.82878">
        <ele>812.5</ele>
        <time>2011-10-16T09:22:07Z</time>
      </trkpt>
      <trkpt lat="45.27936" lon="5.82877">
        <ele>811.6</ele>
        <time>2011-10-16T09:22:08Z</time>
      </trkpt>
      <trkpt lat="45.27931" lon="5.82877">
        <ele>810.3</ele>
        <time>2011-10-16T09:22:09Z</time>
      </trkpt>
      <trkpt lat="45.27926" lon="5.82878">
        <ele>809.4</ele>
        <time>2011-10-16T09:22:10Z</time>
      </trkpt>
      <trkpt lat="45.27922" lon="5.82881">
        <ele>808.3</ele>
        <time>2011-10-16T09:22:11Z</time>
      </trkpt>
      <trkpt lat="45.27917" lon="5.82883">
        <ele>807.4</ele>
        <time>2011-10-16T09:22:12Z</time>
      </trkpt>
      <trkpt lat="45.27911" lon="5.82886">
        <ele>805.9</ele>
        <time>2011-10-16T09:22:13Z</time>
      </trkpt>
      <trkpt lat="45.27904" lon="5.82888">
        <ele>804.3</ele>
        <time>2011-10-16T09:22:14Z</time>
      </trkpt>
      <trkpt lat="45.27898" lon="5.82893">
        <ele>802.9</ele>
        <time>2011-10-16T09:22:15Z</time>
      </trkpt>
      <trkpt lat="45.27892" lon="5.82896">
        <ele>801.3</ele>
        <time>2011-10-16T09:22:16Z</time>
      </trkpt>
      <trkpt lat="45.27887" lon="5.82899">
        <ele>800</ele>
        <time>2011-10-16T09:22:17Z</time>
      </trkpt>
      <trkpt lat="45.27881" lon="5.82901">
        <ele>798.7</ele>
        <time>2011-10-16T09:22:18Z</time>
      </trkpt>
      <trkpt lat="45.27875" lon="5.82902">
        <ele>797.7</ele>
        <time>2011-10-16T09:22:19Z</time>
      </trkpt>
      <trkpt lat="45.2787" lon="5.829">
        <ele>796.7</ele>
        <time>2011-10-16T09:22:20Z</time>
      </trkpt>
      <trkpt lat="45.27865" lon="5.82893">
        <ele>795.2</ele>
        <time>2011-10-16T09:22:21Z</time>
      </trkpt>
      <trkpt lat="45.2786" lon="5.82886">
        <ele>793.7</ele>
        <time>2011-10-16T09:22:22Z</time>
      </trkpt>
      <trkpt lat="45.27856" lon="5.82881">
        <ele>792.4</ele>
        <time>2011-10-16T09:22:23Z</time>
      </trkpt>
      <trkpt lat="45.27845" lon="5.82873">
        <ele>789.8</ele>
        <time>2011-10-16T09:22:25Z</time>
      </trkpt>
      <trkpt lat="45.27838" lon="5.82871">
        <ele>788.7</ele>
        <time>2011-10-16T09:22:26Z</time>
      </trkpt>
      <trkpt lat="45.27832" lon="5.8287">
        <ele>787.3</ele>
        <time>2011-10-16T09:22:27Z</time>
      </trkpt>
      <trkpt lat="45.27827" lon="5.82872">
        <ele>786.3</ele>
        <time>2011-10-16T09:22:28Z</time>
      </trkpt>
      <trkpt lat="45.27822" lon="5.82873">
        <ele>785.7</ele>
        <time>2011-10-16T09:22:29Z</time>
      </trkpt>
      <trkpt lat="45.27815" lon="5.82875">
        <ele>785.2</ele>
        <time>2011-10-16T09:22:30Z</time>
      </trkpt>
      <trkpt lat="45.27808" lon="5.82876">
        <ele>784.7</ele>
        <time>2011-10-16T09:22:31Z</time>
      </trkpt>
      <trkpt lat="45.278" lon="5.82877">
        <ele>784.3</ele>
        <time>2011-10-16T09:22:32Z</time>
      </trkpt>
      <trkpt lat="45.27792" lon="5.82878">
        <ele>783.9</ele>
        <time>2011-10-16T09:22:33Z</time>
      </trkpt>
      <trkpt lat="45.27784" lon="5.82879">
        <ele>783.3</ele>
        <time>2011-10-16T09:22:34Z</time>
      </trkpt>
      <trkpt lat="45.27776" lon="5.8288">
        <ele>782.5</ele>
        <time>2011-10-16T09:22:35Z</time>
      </trkpt>
      <trkpt lat="45.27769" lon="5.82881">
        <ele>781.9</ele>
        <time>2011-10-16T09:22:36Z</time>
      </trkpt>
      <trkpt lat="45.27761" lon="5.82883">
        <ele>781.3</ele>
        <time>2011-10-16T09:22:37Z</time>
      </trkpt>
      <trkpt lat="45.27755" lon="5.82886">
        <ele>780.7</ele>
        <time>2011-10-16T09:22:38Z</time>
      </trkpt>
      <trkpt lat="45.2775" lon="5.82894">
        <ele>777.6</ele>
        <time>2011-10-16T09:22:39Z</time>
      </trkpt>
      <trkpt lat="45.27743" lon="5.82897">
        <ele>776.8</ele>
        <time>2011-10-16T09:22:40Z</time>
      </trkpt>
      <trkpt lat="45.27739" lon="5.82902">
        <ele>774.8</ele>
        <time>2011-10-16T09:22:41Z</time>
      </trkpt>
      <trkpt lat="45.27732" lon="5.82911">
        <ele>772.1</ele>
        <time>2011-10-16T09:22:43Z</time>
      </trkpt>
      <trkpt lat="45.27727" lon="5.82916">
        <ele>768.8</ele>
        <time>2011-10-16T09:22:45Z</time>
      </trkpt>
      <trkpt lat="45.27717" lon="5.82915">
        <ele>764.7</ele>
        <time>2011-10-16T09:22:46Z</time>
      </trkpt>
      <trkpt lat="45.27712" lon="5.8292">
        <ele>762.3</ele>
        <time>2011-10-16T09:22:48Z</time>
      </trkpt>
      <trkpt lat="45.27707" lon="5.82925">
        <ele>759</ele>
        <time>2011-10-16T09:22:50Z</time>
      </trkpt>
      <trkpt lat="45.277" lon="5.82928">
        <ele>756.7</ele>
        <time>2011-10-16T09:22:52Z</time>
      </trkpt>
      <trkpt lat="45.27695" lon="5.82931">
        <ele>755.5</ele>
        <time>2011-10-16T09:22:53Z</time>
      </trkpt>
      <trkpt lat="45.27691" lon="5.82935">
        <ele>754.8</ele>
        <time>2011-10-16T09:22:54Z</time>
      </trkpt>
      <trkpt lat="45.27686" lon="5.82938">
        <ele>754</ele>
        <time>2011-10-16T09:22:55Z</time>
      </trkpt>
      <trkpt lat="45.2768" lon="5.82942">
        <ele>753.4</ele>
        <time>2011-10-16T09:22:56Z</time>
      </trkpt>
      <trkpt lat="45.27675" lon="5.82946">
        <ele>752.9</ele>
        <time>2011-10-16T09:22:57Z</time>
      </trkpt>
      <trkpt lat="45.27666" lon="5.82947">
        <ele>750.4</ele>
        <time>2011-10-16T09:22:58Z</time>
      </trkpt>
      <trkpt lat="45.27658" lon="5.82948">
        <ele>747.8</ele>
        <time>2011-10-16T09:22:59Z</time>
      </trkpt>
      <trkpt lat="45.27652" lon="5.82951">
        <ele>747</ele>
        <time>2011-10-16T09:23:00Z</time>
      </trkpt>
      <trkpt lat="45.27648" lon="5.82953">
        <ele>746.1</ele>
        <time>2011-10-16T09:23:01Z</time>
      </trkpt>
      <trkpt lat="45.27643" lon="5.82956">
        <ele>745.3</ele>
        <time>2011-10-16T09:23:02Z</time>
      </trkpt>
      <trkpt lat="45.27638" lon="5.82959">
        <ele>744.4</ele>
        <time>2011-10-16T09:23:03Z</time>
      </trkpt>
      <trkpt lat="45.27632" lon="5.8296">
        <ele>743</ele>
        <time>2011-10-16T09:23:04Z</time>
      </trkpt>
      <trkpt lat="45.27627" lon="5.82962">
        <ele>742.2</ele>
        <time>2011-10-16T09:23:05Z</time>
      </trkpt>
      <trkpt lat="45.27622" lon="5.82964">
        <ele>741.7</ele>
        <time>2011-10-16T09:23:06Z</time>
      </trkpt>
      <trkpt lat="45.27617" lon="5.82965">
        <ele>741.3</ele>
        <time>2011-10-16T09:23:07Z</time>
      </trkpt>
      <trkpt lat="45.27612" lon="5.82966">
        <ele>740.7</ele>
        <time>2011-10-16T09:23:08Z</time>
      </trkpt>
      <trkpt lat="45.27604" lon="5.82966">
        <ele>739.3</ele>
        <time>2011-10-16T09:23:09Z</time>
      </trkpt>
      <trkpt lat="45.27598" lon="5.82966">
        <ele>738.9</ele>
        <time>2011-10-16T09:23:10Z</time>
      </trkpt>
      <trkpt lat="45.27592" lon="5.82965">
        <ele>738.4</ele>
        <time>2011-10-16T09:23:11Z</time>
      </trkpt>
      <trkpt lat="45.27582" lon="5.82963">
        <ele>736.9</ele>
        <time>2011-10-16T09:23:12Z</time>
      </trkpt>
      <trkpt lat="45.27574" lon="5.8296">
        <ele>736.4</ele>
        <time>2011-10-16T09:23:13Z</time>
      </trkpt>
      <trkpt lat="45.27567" lon="5.82958">
        <ele>735.7</ele>
        <time>2011-10-16T09:23:14Z</time>
      </trkpt>
      <trkpt lat="45.2756" lon="5.82956">
        <ele>734.8</ele>
        <time>2011-10-16T09:23:15Z</time>
      </trkpt>
      <trkpt lat="45.27552" lon="5.82954">
        <ele>734.1</ele>
        <time>2011-10-16T09:23:16Z</time>
      </trkpt>
      <trkpt lat="45.27545" lon="5.82954">
        <ele>733.3</ele>
        <time>2011-10-16T09:23:17Z</time>
      </trkpt>
      <trkpt lat="45.27538" lon="5.82952">
        <ele>732.6</ele>
        <time>2011-10-16T09:23:18Z</time>
      </trkpt>
      <trkpt lat="45.27532" lon="5.82951">
        <ele>731.9</ele>
        <time>2011-10-16T09:23:19Z</time>
      </trkpt>
      <trkpt lat="45.27525" lon="5.8295">
        <ele>731.2</ele>
        <time>2011-10-16T09:23:20Z</time>
      </trkpt>
      <trkpt lat="45.27519" lon="5.82948">
        <ele>730.7</ele>
        <time>2011-10-16T09:23:21Z</time>
      </trkpt>
      <trkpt lat="45.27513" lon="5.82946">
        <ele>730.2</ele>
        <time>2011-10-16T09:23:22Z</time>
      </trkpt>
      <trkpt lat="45.27507" lon="5.82943">
        <ele>729.6</ele>
        <time>2011-10-16T09:23:23Z</time>
      </trkpt>
      <trkpt lat="45.27501" lon="5.8294">
        <ele>729.2</ele>
        <time>2011-10-16T09:23:24Z</time>
      </trkpt>
      <trkpt lat="45.27494" lon="5.82936">
        <ele>728.7</ele>
        <time>2011-10-16T09:23:25Z</time>
      </trkpt>
      <trkpt lat="45.27486" lon="5.82932">
        <ele>728.3</ele>
        <time>2011-10-16T09:23:26Z</time>
      </trkpt>
      <trkpt lat="45.27479" lon="5.82929">
        <ele>727.6</ele>
        <time>2011-10-16T09:23:27Z</time>
      </trkpt>
      <trkpt lat="45.27472" lon="5.82927">
        <ele>726.9</ele>
        <time>2011-10-16T09:23:28Z</time>
      </trkpt>
      <trkpt lat="45.27465" lon="5.82924">
        <ele>725.9</ele>
        <time>2011-10-16T09:23:29Z</time>
      </trkpt>
      <trkpt lat="45.27459" lon="5.82922">
        <ele>724.8</ele>
        <time>2011-10-16T09:23:30Z</time>
      </trkpt>
      <trkpt lat="45.27452" lon="5.82921">
        <ele>723.8</ele>
        <time>2011-10-16T09:23:31Z</time>
      </trkpt>
      <trkpt lat="45.27446" lon="5.8292">
        <ele>723.4</ele>
        <time>2011-10-16T09:23:32Z</time>
      </trkpt>
      <trkpt lat="45.2744" lon="5.8292">
        <ele>722.5</ele>
        <time>2011-10-16T09:23:33Z</time>
      </trkpt>
      <trkpt lat="45.27434" lon="5.82922">
        <ele>721.8</ele>
        <time>2011-10-16T09:23:34Z</time>
      </trkpt>
      <trkpt lat="45.27427" lon="5.82924">
        <ele>721.6</ele>
        <time>2011-10-16T09:23:35Z</time>
      </trkpt>
      <trkpt lat="45.2742" lon="5.82928">
        <ele>721</ele>
        <time>2011-10-16T09:23:36Z</time>
      </trkpt>
      <trkpt lat="45.27413" lon="5.82934">
        <ele>720.2</ele>
        <time>2011-10-16T09:23:37Z</time>
      </trkpt>
      <trkpt lat="45.27406" lon="5.82941">
        <ele>719.2</ele>
        <time>2011-10-16T09:23:38Z</time>
      </trkpt>
      <trkpt lat="45.27399" lon="5.82946">
        <ele>718.3</ele>
        <time>2011-10-16T09:23:39Z</time>
      </trkpt>
      <trkpt lat="45.27393" lon="5.82952">
        <ele>717.3</ele>
        <time>2011-10-16T09:23:40Z</time>
      </trkpt>
      <trkpt lat="45.27386" lon="5.82956">
        <ele>716.1</ele>
        <time>2011-10-16T09:23:41Z</time>
      </trkpt>
      <trkpt lat="45.2738" lon="5.82959">
        <ele>715.1</ele>
        <time>2011-10-16T09:23:42Z</time>
      </trkpt>
      <trkpt lat="45.27373" lon="5.82961">
        <ele>714.3</ele>
        <time>2011-10-16T09:23:43Z</time>
      </trkpt>
      <trkpt lat="45.27369" lon="5.82967">
        <ele>711.3</ele>
        <time>2011-10-16T09:23:45Z</time>
      </trkpt>
      <trkpt lat="45.27364" lon="5.8297">
        <ele>710.1</ele>
        <time>2011-10-16T09:23:46Z</time>
      </trkpt>
      <trkpt lat="45.2736" lon="5.82975">
        <ele>709</ele>
        <time>2011-10-16T09:23:47Z</time>
      </trkpt>
      <trkpt lat="45.27357" lon="5.82981">
        <ele>708.2</ele>
        <time>2011-10-16T09:23:48Z</time>
      </trkpt>
      <trkpt lat="45.27353" lon="5.82985">
        <ele>707.4</ele>
        <time>2011-10-16T09:23:49Z</time>
      </trkpt>
      <trkpt lat="45.27349" lon="5.82989">
        <ele>706.8</ele>
        <time>2011-10-16T09:23:50Z</time>
      </trkpt>
      <trkpt lat="45.27344" lon="5.82991">
        <ele>706.3</ele>
        <time>2011-10-16T09:23:51Z</time>
      </trkpt>
      <trkpt lat="45.2734" lon="5.82995">
        <ele>705.1</ele>
        <time>2011-10-16T09:23:53Z</time>
      </trkpt>
      <trkpt lat="45.27336" lon="5.83002">
        <ele>704</ele>
        <time>2011-10-16T09:23:56Z</time>
      </trkpt>
      <trkpt lat="45.27333" lon="5.83009">
        <ele>702.8</ele>
        <time>2011-10-16T09:23:58Z</time>
      </trkpt>
      <trkpt lat="45.27328" lon="5.83016">
        <ele>702</ele>
        <time>2011-10-16T09:24:00Z</time>
      </trkpt>
      <trkpt lat="45.27324" lon="5.83021">
        <ele>701.2</ele>
        <time>2011-10-16T09:24:02Z</time>
      </trkpt>
      <trkpt lat="45.2732" lon="5.83025">
        <ele>686.2</ele>
        <time>2011-10-16T09:25:26Z</time>
      </trkpt>
      <trkpt lat="45.27314" lon="5.83026">
        <ele>685.2</ele>
        <time>2011-10-16T09:25:29Z</time>
      </trkpt>
      <trkpt lat="45.27309" lon="5.83026">
        <ele>684.9</ele>
        <time>2011-10-16T09:25:31Z</time>
      </trkpt>
      <trkpt lat="45.27303" lon="5.83028">
        <ele>684.3</ele>
        <time>2011-10-16T09:25:33Z</time>
      </trkpt>
      <trkpt lat="45.27296" lon="5.83029">
        <ele>683.1</ele>
        <time>2011-10-16T09:25:36Z</time>
      </trkpt>
      <trkpt lat="45.27292" lon="5.83031">
        <ele>682.2</ele>
        <time>2011-10-16T09:25:38Z</time>
      </trkpt>
      <trkpt lat="45.27287" lon="5.83034">
        <ele>680.5</ele>
        <time>2011-10-16T09:25:39Z</time>
      </trkpt>
      <trkpt lat="45.27284" lon="5.83038">
        <ele>679.9</ele>
        <time>2011-10-16T09:25:40Z</time>
      </trkpt>
      <trkpt lat="45.27278" lon="5.83048">
        <ele>679.2</ele>
        <time>2011-10-16T09:25:42Z</time>
      </trkpt>
      <trkpt lat="45.27273" lon="5.83056">
        <ele>678.6</ele>
        <time>2011-10-16T09:25:43Z</time>
      </trkpt>
      <trkpt lat="45.27269" lon="5.83067">
        <ele>678.2</ele>
        <time>2011-10-16T09:25:44Z</time>
      </trkpt>
      <trkpt lat="45.27266" lon="5.83076">
        <ele>677.3</ele>
        <time>2011-10-16T09:25:45Z</time>
      </trkpt>
      <trkpt lat="45.27264" lon="5.83087">
        <ele>676.6</ele>
        <time>2011-10-16T09:25:46Z</time>
      </trkpt>
      <trkpt lat="45.2726" lon="5.83096">
        <ele>676</ele>
        <time>2011-10-16T09:25:47Z</time>
      </trkpt>
      <trkpt lat="45.27257" lon="5.8311">
        <ele>672.8</ele>
        <time>2011-10-16T09:25:48Z</time>
      </trkpt>
      <trkpt lat="45.27254" lon="5.8312">
        <ele>671.3</ele>
        <time>2011-10-16T09:25:49Z</time>
      </trkpt>
      <trkpt lat="45.27251" lon="5.83129">
        <ele>669.6</ele>
        <time>2011-10-16T09:25:50Z</time>
      </trkpt>
      <trkpt lat="45.27247" lon="5.83136">
        <ele>668.5</ele>
        <time>2011-10-16T09:25:51Z</time>
      </trkpt>
      <trkpt lat="45.27243" lon="5.83143">
        <ele>667.4</ele>
        <time>2011-10-16T09:25:52Z</time>
      </trkpt>
      <trkpt lat="45.27239" lon="5.83147">
        <ele>666.5</ele>
        <time>2011-10-16T09:25:53Z</time>
      </trkpt>
      <trkpt lat="45.27234" lon="5.83151">
        <ele>666</ele>
        <time>2011-10-16T09:25:54Z</time>
      </trkpt>
      <trkpt lat="45.27227" lon="5.83152">
        <ele>665.2</ele>
        <time>2011-10-16T09:25:55Z</time>
      </trkpt>
      <trkpt lat="45.27219" lon="5.83153">
        <ele>663.3</ele>
        <time>2011-10-16T09:25:56Z</time>
      </trkpt>
      <trkpt lat="45.27212" lon="5.83156">
        <ele>661.9</ele>
        <time>2011-10-16T09:25:57Z</time>
      </trkpt>
      <trkpt lat="45.27206" lon="5.8316">
        <ele>661.2</ele>
        <time>2011-10-16T09:25:58Z</time>
      </trkpt>
      <trkpt lat="45.272" lon="5.83163">
        <ele>660.5</ele>
        <time>2011-10-16T09:25:59Z</time>
      </trkpt>
      <trkpt lat="45.27195" lon="5.83166">
        <ele>659.6</ele>
        <time>2011-10-16T09:26:00Z</time>
      </trkpt>
      <trkpt lat="45.27189" lon="5.8317">
        <ele>659.2</ele>
        <time>2011-10-16T09:26:01Z</time>
      </trkpt>
      <trkpt lat="45.27184" lon="5.83173">
        <ele>658.2</ele>
        <time>2011-10-16T09:26:02Z</time>
      </trkpt>
      <trkpt lat="45.27175" lon="5.83176">
        <ele>655.8</ele>
        <time>2011-10-16T09:26:03Z</time>
      </trkpt>
      <trkpt lat="45.27167" lon="5.83177">
        <ele>653.7</ele>
        <time>2011-10-16T09:26:04Z</time>
      </trkpt>
      <trkpt lat="45.27161" lon="5.83179">
        <ele>652.2</ele>
        <time>2011-10-16T09:26:05Z</time>
      </trkpt>
      <trkpt lat="45.27154" lon="5.8318">
        <ele>650.8</ele>
        <time>2011-10-16T09:26:06Z</time>
      </trkpt>
      <trkpt lat="45.27145" lon="5.83181">
        <ele>648</ele>
        <time>2011-10-16T09:26:07Z</time>
      </trkpt>
      <trkpt lat="45.27137" lon="5.83182">
        <ele>645.9</ele>
        <time>2011-10-16T09:26:08Z</time>
      </trkpt>
      <trkpt lat="45.27131" lon="5.83184">
        <ele>644.1</ele>
        <time>2011-10-16T09:26:09Z</time>
      </trkpt>
      <trkpt lat="45.27126" lon="5.83185">
        <ele>643</ele>
        <time>2011-10-16T09:26:10Z</time>
      </trkpt>
      <trkpt lat="45.27121" lon="5.83187">
        <ele>642.1</ele>
        <time>2011-10-16T09:26:11Z</time>
      </trkpt>
      <trkpt lat="45.27116" lon="5.83189">
        <ele>640.8</ele>
        <time>2011-10-16T09:26:12Z</time>
      </trkpt>
      <trkpt lat="45.27111" lon="5.8319">
        <ele>639.9</ele>
        <time>2011-10-16T09:26:13Z</time>
      </trkpt>
      <trkpt lat="45.27106" lon="5.83192">
        <ele>639</ele>
        <time>2011-10-16T09:26:14Z</time>
      </trkpt>
      <trkpt lat="45.27102" lon="5.83194">
        <ele>638.1</ele>
        <time>2011-10-16T09:26:15Z</time>
      </trkpt>
      <trkpt lat="45.27096" lon="5.83196">
        <ele>637.3</ele>
        <time>2011-10-16T09:26:16Z</time>
      </trkpt>
      <trkpt lat="45.27091" lon="5.83198">
        <ele>636.5</ele>
        <time>2011-10-16T09:26:17Z</time>
      </trkpt>
      <trkpt lat="45.27085" lon="5.83201">
        <ele>635.6</ele>
        <time>2011-10-16T09:26:18Z</time>
      </trkpt>
      <trkpt lat="45.27079" lon="5.83203">
        <ele>634.7</ele>
        <time>2011-10-16T09:26:19Z</time>
      </trkpt>
      <trkpt lat="45.27074" lon="5.83205">
        <ele>634</ele>
        <time>2011-10-16T09:26:20Z</time>
      </trkpt>
      <trkpt lat="45.27068" lon="5.83207">
        <ele>633.5</ele>
        <time>2011-10-16T09:26:21Z</time>
      </trkpt>
      <trkpt lat="45.27063" lon="5.8321">
        <ele>633.1</ele>
        <time>2011-10-16T09:26:22Z</time>
      </trkpt>
      <trkpt lat="45.27058" lon="5.83214">
        <ele>632.8</ele>
        <time>2011-10-16T09:26:23Z</time>
      </trkpt>
      <trkpt lat="45.27052" lon="5.83216">
        <ele>632.2</ele>
        <time>2011-10-16T09:26:24Z</time>
      </trkpt>
      <trkpt lat="45.27045" lon="5.83217">
        <ele>630.8</ele>
        <time>2011-10-16T09:26:25Z</time>
      </trkpt>
      <trkpt lat="45.27037" lon="5.83217">
        <ele>629.4</ele>
        <time>2011-10-16T09:26:26Z</time>
      </trkpt>
      <trkpt lat="45.2703" lon="5.83218">
        <ele>628.3</ele>
        <time>2011-10-16T09:26:27Z</time>
      </trkpt>
      <trkpt lat="45.27023" lon="5.83218">
        <ele>627.4</ele>
        <time>2011-10-16T09:26:28Z</time>
      </trkpt>
      <trkpt lat="45.27018" lon="5.83218">
        <ele>626.4</ele>
        <time>2011-10-16T09:26:29Z</time>
      </trkpt>
      <trkpt lat="45.2701" lon="5.83218">
        <ele>625.5</ele>
        <time>2011-10-16T09:26:31Z</time>
      </trkpt>
      <trkpt lat="45.27004" lon="5.83217">
        <ele>624.3</ele>
        <time>2011-10-16T09:26:33Z</time>
      </trkpt>
      <trkpt lat="45.27006" lon="5.8321">
        <ele>620.6</ele>
        <time>2011-10-16T09:27:03Z</time>
      </trkpt>
      <trkpt lat="45.27008" lon="5.83217">
        <ele>619.6</ele>
        <time>2011-10-16T09:27:31Z</time>
      </trkpt>
      <trkpt lat="45.27006" lon="5.83223">
        <ele>619.5</ele>
        <time>2011-10-16T09:27:34Z</time>
      </trkpt>
      <trkpt lat="45.27001" lon="5.83227">
        <ele>619.8</ele>
        <time>2011-10-16T09:27:37Z</time>
      </trkpt>
      <trkpt lat="45.26995" lon="5.8323">
        <ele>619.8</ele>
        <time>2011-10-16T09:27:39Z</time>
      </trkpt>
      <trkpt lat="45.26991" lon="5.83234">
        <ele>619.9</ele>
        <time>2011-10-16T09:27:40Z</time>
      </trkpt>
      <trkpt lat="45.26986" lon="5.83237">
        <ele>619.7</ele>
        <time>2011-10-16T09:27:41Z</time>
      </trkpt>
      <trkpt lat="45.2698" lon="5.83243">
        <ele>618.7</ele>
        <time>2011-10-16T09:27:42Z</time>
      </trkpt>
      <trkpt lat="45.26975" lon="5.8325">
        <ele>617.9</ele>
        <time>2011-10-16T09:27:43Z</time>
      </trkpt>
      <trkpt lat="45.2697" lon="5.83259">
        <ele>618</ele>
        <time>2011-10-16T09:27:44Z</time>
      </trkpt>
      <trkpt lat="45.26966" lon="5.83266">
        <ele>618</ele>
        <time>2011-10-16T09:27:45Z</time>
      </trkpt>
      <trkpt lat="45.26962" lon="5.83272">
        <ele>617.9</ele>
        <time>2011-10-16T09:27:46Z</time>
      </trkpt>
      <trkpt lat="45.26957" lon="5.83279">
        <ele>617.6</ele>
        <time>2011-10-16T09:27:47Z</time>
      </trkpt>
      <trkpt lat="45.26952" lon="5.83285">
        <ele>617.1</ele>
        <time>2011-10-16T09:27:48Z</time>
      </trkpt>
      <trkpt lat="45.26948" lon="5.8329">
        <ele>616.5</ele>
        <time>2011-10-16T09:27:49Z</time>
      </trkpt>
      <trkpt lat="45.26942" lon="5.83293">
        <ele>615.9</ele>
        <time>2011-10-16T09:27:50Z</time>
      </trkpt>
      <trkpt lat="45.26936" lon="5.83294">
        <ele>615.6</ele>
        <time>2011-10-16T09:27:51Z</time>
      </trkpt>
      <trkpt lat="45.2693" lon="5.83296">
        <ele>615</ele>
        <time>2011-10-16T09:27:52Z</time>
      </trkpt>
      <trkpt lat="45.26924" lon="5.83297">
        <ele>614.6</ele>
        <time>2011-10-16T09:27:53Z</time>
      </trkpt>
      <trkpt lat="45.26914" lon="5.83296">
        <ele>612.7</ele>
        <time>2011-10-16T09:27:54Z</time>
      </trkpt>
      <trkpt lat="45.26909" lon="5.83298">
        <ele>612.4</ele>
        <time>2011-10-16T09:27:55Z</time>
      </trkpt>
      <trkpt lat="45.26904" lon="5.83298">
        <ele>611.9</ele>
        <time>2011-10-16T09:27:56Z</time>
      </trkpt>
      <trkpt lat="45.26896" lon="5.83297">
        <ele>610.1</ele>
        <time>2011-10-16T09:27:57Z</time>
      </trkpt>
      <trkpt lat="45.26891" lon="5.83297">
        <ele>609.8</ele>
        <time>2011-10-16T09:27:58Z</time>
      </trkpt>
      <trkpt lat="45.26884" lon="5.83296">
        <ele>608.3</ele>
        <time>2011-10-16T09:27:59Z</time>
      </trkpt>
      <trkpt lat="45.26878" lon="5.83296">
        <ele>607.1</ele>
        <time>2011-10-16T09:28:00Z</time>
      </trkpt>
      <trkpt lat="45.26872" lon="5.83297">
        <ele>605.9</ele>
        <time>2011-10-16T09:28:01Z</time>
      </trkpt>
      <trkpt lat="45.26866" lon="5.83298">
        <ele>604.8</ele>
        <time>2011-10-16T09:28:02Z</time>
      </trkpt>
      <trkpt lat="45.2686" lon="5.83299">
        <ele>603.3</ele>
        <time>2011-10-16T09:28:03Z</time>
      </trkpt>
      <trkpt lat="45.26855" lon="5.83301">
        <ele>601.8</ele>
        <time>2011-10-16T09:28:04Z</time>
      </trkpt>
      <trkpt lat="45.2685" lon="5.83302">
        <ele>600.4</ele>
        <time>2011-10-16T09:28:05Z</time>
      </trkpt>
      <trkpt lat="45.26842" lon="5.83307">
        <ele>598.8</ele>
        <time>2011-10-16T09:28:07Z</time>
      </trkpt>
      <trkpt lat="45.26834" lon="5.83312">
        <ele>597.7</ele>
        <time>2011-10-16T09:28:09Z</time>
      </trkpt>
      <trkpt lat="45.26828" lon="5.83319">
        <ele>596.5</ele>
        <time>2011-10-16T09:28:11Z</time>
      </trkpt>
      <trkpt lat="45.26821" lon="5.83325">
        <ele>595.6</ele>
        <time>2011-10-16T09:28:13Z</time>
      </trkpt>
      <trkpt lat="45.26812" lon="5.83328">
        <ele>594.2</ele>
        <time>2011-10-16T09:28:15Z</time>
      </trkpt>
      <trkpt lat="45.26804" lon="5.83327">
        <ele>593.1</ele>
        <time>2011-10-16T09:28:16Z</time>
      </trkpt>
      <trkpt lat="45.26798" lon="5.83327">
        <ele>592</ele>
        <time>2011-10-16T09:28:17Z</time>
      </trkpt>
      <trkpt lat="45.26793" lon="5.83326">
        <ele>591.1</ele>
        <time>2011-10-16T09:28:18Z</time>
      </trkpt>
      <trkpt lat="45.26784" lon="5.83324">
        <ele>588.7</ele>
        <time>2011-10-16T09:28:20Z</time>
      </trkpt>
      <trkpt lat="45.26776" lon="5.8332">
        <ele>587.5</ele>
        <time>2011-10-16T09:28:22Z</time>
      </trkpt>
      <trkpt lat="45.26771" lon="5.83317">
        <ele>585.9</ele>
        <time>2011-10-16T09:28:24Z</time>
      </trkpt>
      <trkpt lat="45.26775" lon="5.83321">
        <ele>581.1</ele>
        <time>2011-10-16T09:29:12Z</time>
      </trkpt>
      <trkpt lat="45.26771" lon="5.83329">
        <ele>581.2</ele>
        <time>2011-10-16T09:31:23Z</time>
      </trkpt>
      <trkpt lat="45.26768" lon="5.83335">
        <ele>581.1</ele>
        <time>2011-10-16T09:31:24Z</time>
      </trkpt>
      <trkpt lat="45.26765" lon="5.8334">
        <ele>580.7</ele>
        <time>2011-10-16T09:31:25Z</time>
      </trkpt>
      <trkpt lat="45.2676" lon="5.83346">
        <ele>580.3</ele>
        <time>2011-10-16T09:31:26Z</time>
      </trkpt>
      <trkpt lat="45.26756" lon="5.83351">
        <ele>579.7</ele>
        <time>2011-10-16T09:31:27Z</time>
      </trkpt>
      <trkpt lat="45.2675" lon="5.83357">
        <ele>579.1</ele>
        <time>2011-10-16T09:31:28Z</time>
      </trkpt>
      <trkpt lat="45.26744" lon="5.83362">
        <ele>578.7</ele>
        <time>2011-10-16T09:31:29Z</time>
      </trkpt>
      <trkpt lat="45.26739" lon="5.83366">
        <ele>578.2</ele>
        <time>2011-10-16T09:31:30Z</time>
      </trkpt>
      <trkpt lat="45.26733" lon="5.83371">
        <ele>577.8</ele>
        <time>2011-10-16T09:31:31Z</time>
      </trkpt>
      <trkpt lat="45.26728" lon="5.83376">
        <ele>577.2</ele>
        <time>2011-10-16T09:31:32Z</time>
      </trkpt>
      <trkpt lat="45.26722" lon="5.8338">
        <ele>576.8</ele>
        <time>2011-10-16T09:31:33Z</time>
      </trkpt>
      <trkpt lat="45.26716" lon="5.83385">
        <ele>576.5</ele>
        <time>2011-10-16T09:31:34Z</time>
      </trkpt>
      <trkpt lat="45.26711" lon="5.83389">
        <ele>576</ele>
        <time>2011-10-16T09:31:35Z</time>
      </trkpt>
      <trkpt lat="45.26706" lon="5.83394">
        <ele>575.7</ele>
        <time>2011-10-16T09:31:36Z</time>
      </trkpt>
      <trkpt lat="45.26702" lon="5.83397">
        <ele>575.3</ele>
        <time>2011-10-16T09:31:37Z</time>
      </trkpt>
      <trkpt lat="45.26698" lon="5.834">
        <ele>574.9</ele>
        <time>2011-10-16T09:31:38Z</time>
      </trkpt>
      <trkpt lat="45.26693" lon="5.83405">
        <ele>573.9</ele>
        <time>2011-10-16T09:31:40Z</time>
      </trkpt>
      <trkpt lat="45.26697" lon="5.83404">
        <ele>574.5</ele>
        <time>2011-10-16T09:31:41Z</time>
      </trkpt>
      <trkpt lat="45.2669" lon="5.83401">
        <ele>573.4</ele>
        <time>2011-10-16T09:31:45Z</time>
      </trkpt>
      <trkpt lat="45.26684" lon="5.83395">
        <ele>572</ele>
        <time>2011-10-16T09:31:47Z</time>
      </trkpt>
      <trkpt lat="45.26679" lon="5.83386">
        <ele>569.9</ele>
        <time>2011-10-16T09:31:49Z</time>
      </trkpt>
      <trkpt lat="45.26673" lon="5.83378">
        <ele>568</ele>
        <time>2011-10-16T09:31:51Z</time>
      </trkpt>
      <trkpt lat="45.26669" lon="5.83372">
        <ele>566.8</ele>
        <time>2011-10-16T09:31:52Z</time>
      </trkpt>
      <trkpt lat="45.26613" lon="5.83356">
        <ele>553.8</ele>
        <time>2011-10-16T09:32:02Z</time>
      </trkpt>
      <trkpt lat="45.26606" lon="5.83356">
        <ele>552.8</ele>
        <time>2011-10-16T09:32:03Z</time>
      </trkpt>
      <trkpt lat="45.26599" lon="5.83355">
        <ele>550.8</ele>
        <time>2011-10-16T09:32:04Z</time>
      </trkpt>
      <trkpt lat="45.26584" lon="5.83353">
        <ele>547.9</ele>
        <time>2011-10-16T09:32:06Z</time>
      </trkpt>
      <trkpt lat="45.26576" lon="5.83351">
        <ele>546.2</ele>
        <time>2011-10-16T09:32:07Z</time>
      </trkpt>
      <trkpt lat="45.26566" lon="5.8335">
        <ele>545.4</ele>
        <time>2011-10-16T09:32:08Z</time>
      </trkpt>
      <trkpt lat="45.26558" lon="5.83348">
        <ele>544</ele>
        <time>2011-10-16T09:32:09Z</time>
      </trkpt>
      <trkpt lat="45.2655" lon="5.83347">
        <ele>542.9</ele>
        <time>2011-10-16T09:32:10Z</time>
      </trkpt>
      <trkpt lat="45.26542" lon="5.83346">
        <ele>541.9</ele>
        <time>2011-10-16T09:32:11Z</time>
      </trkpt>
      <trkpt lat="45.26535" lon="5.83345">
        <ele>541.2</ele>
        <time>2011-10-16T09:32:12Z</time>
      </trkpt>
      <trkpt lat="45.26528" lon="5.83343">
        <ele>540.7</ele>
        <time>2011-10-16T09:32:13Z</time>
      </trkpt>
      <trkpt lat="45.26521" lon="5.83341">
        <ele>539.4</ele>
        <time>2011-10-16T09:32:14Z</time>
      </trkpt>
      <trkpt lat="45.26515" lon="5.83338">
        <ele>538.5</ele>
        <time>2011-10-16T09:32:15Z</time>
      </trkpt>
      <trkpt lat="45.26509" lon="5.83335">
        <ele>537.9</ele>
        <time>2011-10-16T09:32:16Z</time>
      </trkpt>
      <trkpt lat="45.26502" lon="5.83331">
        <ele>537.2</ele>
        <time>2011-10-16T09:32:17Z</time>
      </trkpt>
      <trkpt lat="45.26496" lon="5.83327">
        <ele>536.2</ele>
        <time>2011-10-16T09:32:18Z</time>
      </trkpt>
      <trkpt lat="45.26489" lon="5.83323">
        <ele>535.1</ele>
        <time>2011-10-16T09:32:19Z</time>
      </trkpt>
      <trkpt lat="45.26481" lon="5.83318">
        <ele>533.9</ele>
        <time>2011-10-16T09:32:20Z</time>
      </trkpt>
      <trkpt lat="45.26474" lon="5.83312">
        <ele>532.9</ele>
        <time>2011-10-16T09:32:21Z</time>
      </trkpt>
      <trkpt lat="45.26467" lon="5.83306">
        <ele>531.8</ele>
        <time>2011-10-16T09:32:22Z</time>
      </trkpt>
      <trkpt lat="45.2646" lon="5.833">
        <ele>530.6</ele>
        <time>2011-10-16T09:32:23Z</time>
      </trkpt>
      <trkpt lat="45.26453" lon="5.83294">
        <ele>529.5</ele>
        <time>2011-10-16T09:32:24Z</time>
      </trkpt>
      <trkpt lat="45.26447" lon="5.83288">
        <ele>528.5</ele>
        <time>2011-10-16T09:32:25Z</time>
      </trkpt>
      <trkpt lat="45.26439" lon="5.83282">
        <ele>527.5</ele>
        <time>2011-10-16T09:32:26Z</time>
      </trkpt>
      <trkpt lat="45.26431" lon="5.83276">
        <ele>526.6</ele>
        <time>2011-10-16T09:32:27Z</time>
      </trkpt>
      <trkpt lat="45.26423" lon="5.8327">
        <ele>525.6</ele>
        <time>2011-10-16T09:32:28Z</time>
      </trkpt>
      <trkpt lat="45.26416" lon="5.83263">
        <ele>524.5</ele>
        <time>2011-10-16T09:32:29Z</time>
      </trkpt>
      <trkpt lat="45.26408" lon="5.83257">
        <ele>523.4</ele>
        <time>2011-10-16T09:32:30Z</time>
      </trkpt>
      <trkpt lat="45.26402" lon="5.83251">
        <ele>522.4</ele>
        <time>2011-10-16T09:32:31Z</time>
      </trkpt>
      <trkpt lat="45.26396" lon="5.83246">
        <ele>521.4</ele>
        <time>2011-10-16T09:32:32Z</time>
      </trkpt>
      <trkpt lat="45.26389" lon="5.83242">
        <ele>520.3</ele>
        <time>2011-10-16T09:32:33Z</time>
      </trkpt>
      <trkpt lat="45.26383" lon="5.83239">
        <ele>519.3</ele>
        <time>2011-10-16T09:32:34Z</time>
      </trkpt>
      <trkpt lat="45.26377" lon="5.83236">
        <ele>518.3</ele>
        <time>2011-10-16T09:32:35Z</time>
      </trkpt>
      <trkpt lat="45.2637" lon="5.83233">
        <ele>517.4</ele>
        <time>2011-10-16T09:32:36Z</time>
      </trkpt>
      <trkpt lat="45.26362" lon="5.83231">
        <ele>516.7</ele>
        <time>2011-10-16T09:32:37Z</time>
      </trkpt>
      <trkpt lat="45.26354" lon="5.83229">
        <ele>515.9</ele>
        <time>2011-10-16T09:32:38Z</time>
      </trkpt>
      <trkpt lat="45.26345" lon="5.83228">
        <ele>515</ele>
        <time>2011-10-16T09:32:39Z</time>
      </trkpt>
      <trkpt lat="45.26336" lon="5.83228">
        <ele>514.1</ele>
        <time>2011-10-16T09:32:40Z</time>
      </trkpt>
      <trkpt lat="45.26327" lon="5.83227">
        <ele>513.2</ele>
        <time>2011-10-16T09:32:41Z</time>
      </trkpt>
      <trkpt lat="45.26318" lon="5.83227">
        <ele>512.3</ele>
        <time>2011-10-16T09:32:42Z</time>
      </trkpt>
      <trkpt lat="45.2631" lon="5.83226">
        <ele>511.5</ele>
        <time>2011-10-16T09:32:43Z</time>
      </trkpt>
      <trkpt lat="45.26302" lon="5.83225">
        <ele>510.6</ele>
        <time>2011-10-16T09:32:44Z</time>
      </trkpt>
      <trkpt lat="45.26294" lon="5.83224">
        <ele>509.8</ele>
        <time>2011-10-16T09:32:45Z</time>
      </trkpt>
      <trkpt lat="45.26285" lon="5.83224">
        <ele>508.9</ele>
        <time>2011-10-16T09:32:46Z</time>
      </trkpt>
      <trkpt lat="45.26277" lon="5.83224">
        <ele>508.1</ele>
        <time>2011-10-16T09:32:47Z</time>
      </trkpt>
      <trkpt lat="45.26268" lon="5.83224">
        <ele>507.3</ele>
        <time>2011-10-16T09:32:48Z</time>
      </trkpt>
      <trkpt lat="45.2626" lon="5.83224">
        <ele>506.5</ele>
        <time>2011-10-16T09:32:49Z</time>
      </trkpt>
      <trkpt lat="45.26253" lon="5.83224">
        <ele>505.8</ele>
        <time>2011-10-16T09:32:50Z</time>
      </trkpt>
      <trkpt lat="45.26247" lon="5.83224">
        <ele>505.3</ele>
        <time>2011-10-16T09:32:51Z</time>
      </trkpt>
      <trkpt lat="45.26242" lon="5.83223">
        <ele>504.7</ele>
        <time>2011-10-16T09:32:52Z</time>
      </trkpt>
      <trkpt lat="45.26235" lon="5.83219">
        <ele>504</ele>
        <time>2011-10-16T09:33:16Z</time>
      </trkpt>
      <trkpt lat="45.26228" lon="5.83218">
        <ele>502.4</ele>
        <time>2011-10-16T09:33:18Z</time>
      </trkpt>
      <trkpt lat="45.26219" lon="5.83214">
        <ele>500.5</ele>
        <time>2011-10-16T09:33:20Z</time>
      </trkpt>
      <trkpt lat="45.26214" lon="5.83211">
        <ele>499.3</ele>
        <time>2011-10-16T09:33:21Z</time>
      </trkpt>
      <trkpt lat="45.26207" lon="5.83209">
        <ele>498.2</ele>
        <time>2011-10-16T09:33:22Z</time>
      </trkpt>
      <trkpt lat="45.262" lon="5.83206">
        <ele>497.1</ele>
        <time>2011-10-16T09:33:23Z</time>
      </trkpt>
      <trkpt lat="45.26193" lon="5.83203">
        <ele>496</ele>
        <time>2011-10-16T09:33:24Z</time>
      </trkpt>
      <trkpt lat="45.26185" lon="5.832">
        <ele>494.4</ele>
        <time>2011-10-16T09:33:25Z</time>
      </trkpt>
      <trkpt lat="45.26177" lon="5.83197">
        <ele>493.5</ele>
        <time>2011-10-16T09:33:26Z</time>
      </trkpt>
      <trkpt lat="45.26168" lon="5.83194">
        <ele>492.4</ele>
        <time>2011-10-16T09:33:27Z</time>
      </trkpt>
      <trkpt lat="45.26158" lon="5.8319">
        <ele>491.9</ele>
        <time>2011-10-16T09:33:28Z</time>
      </trkpt>
      <trkpt lat="45.26149" lon="5.83188">
        <ele>491</ele>
        <time>2011-10-16T09:33:29Z</time>
      </trkpt>
      <trkpt lat="45.26139" lon="5.83185">
        <ele>490</ele>
        <time>2011-10-16T09:33:30Z</time>
      </trkpt>
      <trkpt lat="45.2613" lon="5.83182">
        <ele>488.9</ele>
        <time>2011-10-16T09:33:31Z</time>
      </trkpt>
      <trkpt lat="45.26122" lon="5.8318">
        <ele>487.9</ele>
        <time>2011-10-16T09:33:32Z</time>
      </trkpt>
      <trkpt lat="45.26113" lon="5.83177">
        <ele>486.9</ele>
        <time>2011-10-16T09:33:33Z</time>
      </trkpt>
      <trkpt lat="45.26107" lon="5.83174">
        <ele>486.1</ele>
        <time>2011-10-16T09:33:34Z</time>
      </trkpt>
      <trkpt lat="45.26101" lon="5.83172">
        <ele>485.5</ele>
        <time>2011-10-16T09:33:35Z</time>
      </trkpt>
      <trkpt lat="45.26098" lon="5.83168">
        <ele>485.3</ele>
        <time>2011-10-16T09:33:36Z</time>
      </trkpt>
      <trkpt lat="45.26096" lon="5.83161">
        <ele>485.3</ele>
        <time>2011-10-16T09:33:38Z</time>
      </trkpt>
      <trkpt lat="45.26101" lon="5.83156">
        <ele>486.3</ele>
        <time>2011-10-16T09:33:41Z</time>
      </trkpt>
      <trkpt lat="45.26105" lon="5.83152">
        <ele>487</ele>
        <time>2011-10-16T09:33:43Z</time>
      </trkpt>
      <trkpt lat="45.2611" lon="5.83148">
        <ele>488</ele>
        <time>2011-10-16T09:33:46Z</time>
      </trkpt>
      <trkpt lat="45.26114" lon="5.83146">
        <ele>488.3</ele>
        <time>2011-10-16T09:33:49Z</time>
      </trkpt>
      <trkpt lat="45.26119" lon="5.83143">
        <ele>488.3</ele>
        <time>2011-10-16T09:33:53Z</time>
      </trkpt>
      <trkpt lat="45.26132" lon="5.83133">
        <ele>491.3</ele>
        <time>2011-10-16T09:34:01Z</time>
      </trkpt>
      <trkpt lat="45.26137" lon="5.8313">
        <ele>491.3</ele>
        <time>2011-10-16T09:34:04Z</time>
      </trkpt>
      <trkpt lat="45.26141" lon="5.83126">
        <ele>492</ele>
        <time>2011-10-16T09:34:07Z</time>
      </trkpt>
      <trkpt lat="45.26145" lon="5.83122">
        <ele>491.8</ele>
        <time>2011-10-16T09:34:10Z</time>
      </trkpt>
      <trkpt lat="45.2615" lon="5.8312">
        <ele>492.6</ele>
        <time>2011-10-16T09:36:45Z</time>
      </trkpt>
      <trkpt lat="45.26154" lon="5.83118">
        <ele>493.5</ele>
        <time>2011-10-16T09:36:48Z</time>
      </trkpt>
      <trkpt lat="45.26159" lon="5.83115">
        <ele>494.3</ele>
        <time>2011-10-16T09:36:51Z</time>
      </trkpt>
      <trkpt lat="45.26165" lon="5.83112">
        <ele>495</ele>
        <time>2011-10-16T09:36:54Z</time>
      </trkpt>
      <trkpt lat="45.26171" lon="5.83109">
        <ele>495.8</ele>
        <time>2011-10-16T09:36:57Z</time>
      </trkpt>
      <trkpt lat="45.26178" lon="5.83107">
        <ele>496.4</ele>
        <time>2011-10-16T09:37:00Z</time>
      </trkpt>
      <trkpt lat="45.26184" lon="5.83104">
        <ele>497.2</ele>
        <time>2011-10-16T09:37:03Z</time>
      </trkpt>
      <trkpt lat="45.2619" lon="5.83102">
        <ele>497.8</ele>
        <time>2011-10-16T09:37:06Z</time>
      </trkpt>
      <trkpt lat="45.26196" lon="5.83099">
        <ele>498.6</ele>
        <time>2011-10-16T09:37:09Z</time>
      </trkpt>
      <trkpt lat="45.26201" lon="5.83096">
        <ele>499.2</ele>
        <time>2011-10-16T09:37:12Z</time>
      </trkpt>
      <trkpt lat="45.26206" lon="5.83094">
        <ele>499.7</ele>
        <time>2011-10-16T09:37:15Z</time>
      </trkpt>
      <trkpt lat="45.26211" lon="5.83091">
        <ele>500</ele>
        <time>2011-10-16T09:37:18Z</time>
      </trkpt>
      <trkpt lat="45.26215" lon="5.83088">
        <ele>500.1</ele>
        <time>2011-10-16T09:37:21Z</time>
      </trkpt>
      <trkpt lat="45.26219" lon="5.83084">
        <ele>500.5</ele>
        <time>2011-10-16T09:37:24Z</time>
      </trkpt>
      <trkpt lat="45.26224" lon="5.83079">
        <ele>499.8</ele>
        <time>2011-10-16T09:37:27Z</time>
      </trkpt>
      <trkpt lat="45.2623" lon="5.83075">
        <ele>500.5</ele>
        <time>2011-10-16T09:37:30Z</time>
      </trkpt>
      <trkpt lat="45.26234" lon="5.8307">
        <ele>501</ele>
        <time>2011-10-16T09:37:33Z</time>
      </trkpt>
      <trkpt lat="45.26239" lon="5.83064">
        <ele>501</ele>
        <time>2011-10-16T09:37:36Z</time>
      </trkpt>
      <trkpt lat="45.26244" lon="5.83059">
        <ele>501.3</ele>
        <time>2011-10-16T09:37:39Z</time>
      </trkpt>
      <trkpt lat="45.26248" lon="5.83054">
        <ele>501.6</ele>
        <time>2011-10-16T09:37:42Z</time>
      </trkpt>
      <trkpt lat="45.26254" lon="5.8305">
        <ele>502.3</ele>
        <time>2011-10-16T09:37:45Z</time>
      </trkpt>
      <trkpt lat="45.26258" lon="5.83048">
        <ele>503.4</ele>
        <time>2011-10-16T09:37:47Z</time>
      </trkpt>
      <trkpt lat="45.26263" lon="5.83044">
        <ele>504</ele>
        <time>2011-10-16T09:37:50Z</time>
      </trkpt>
      <trkpt lat="45.26268" lon="5.8304">
        <ele>504.6</ele>
        <time>2011-10-16T09:37:53Z</time>
      </trkpt>
      <trkpt lat="45.26273" lon="5.83036">
        <ele>505.8</ele>
        <time>2011-10-16T09:37:56Z</time>
      </trkpt>
      <trkpt lat="45.26277" lon="5.83032">
        <ele>507.1</ele>
        <time>2011-10-16T09:37:59Z</time>
      </trkpt>
      <trkpt lat="45.26281" lon="5.83029">
        <ele>508</ele>
        <time>2011-10-16T09:38:02Z</time>
      </trkpt>
      <trkpt lat="45.26286" lon="5.83025">
        <ele>509.2</ele>
        <time>2011-10-16T09:38:06Z</time>
      </trkpt>
      <trkpt lat="45.26289" lon="5.83021">
        <ele>509.8</ele>
        <time>2011-10-16T09:38:09Z</time>
      </trkpt>
      <trkpt lat="45.26291" lon="5.83014">
        <ele>510.4</ele>
        <time>2011-10-16T09:38:12Z</time>
      </trkpt>
      <trkpt lat="45.26291" lon="5.83007">
        <ele>510.8</ele>
        <time>2011-10-16T09:38:15Z</time>
      </trkpt>
      <trkpt lat="45.26288" lon="5.82999">
        <ele>511.6</ele>
        <time>2011-10-16T09:38:18Z</time>
      </trkpt>
      <trkpt lat="45.26284" lon="5.82993">
        <ele>511.8</ele>
        <time>2011-10-16T09:38:20Z</time>
      </trkpt>
      <trkpt lat="45.2628" lon="5.82988">
        <ele>511.8</ele>
        <time>2011-10-16T09:38:22Z</time>
      </trkpt>
      <trkpt lat="45.26274" lon="5.82982">
        <ele>511.7</ele>
        <time>2011-10-16T09:38:24Z</time>
      </trkpt>
      <trkpt lat="45.26269" lon="5.82978">
        <ele>511.3</ele>
        <time>2011-10-16T09:38:25Z</time>
      </trkpt>
      <trkpt lat="45.26264" lon="5.82975">
        <ele>510.8</ele>
        <time>2011-10-16T09:38:26Z</time>
      </trkpt>
      <trkpt lat="45.2626" lon="5.82972">
        <ele>510.6</ele>
        <time>2011-10-16T09:38:27Z</time>
      </trkpt>
      <trkpt lat="45.26252" lon="5.82968">
        <ele>510.4</ele>
        <time>2011-10-16T09:38:29Z</time>
      </trkpt>
      <trkpt lat="45.26245" lon="5.82963">
        <ele>510</ele>
        <time>2011-10-16T09:38:31Z</time>
      </trkpt>
      <trkpt lat="45.26238" lon="5.82958">
        <ele>509.8</ele>
        <time>2011-10-16T09:38:33Z</time>
      </trkpt>
      <trkpt lat="45.26232" lon="5.82952">
        <ele>509.4</ele>
        <time>2011-10-16T09:38:35Z</time>
      </trkpt>
      <trkpt lat="45.26225" lon="5.82948">
        <ele>509.4</ele>
        <time>2011-10-16T09:38:37Z</time>
      </trkpt>
      <trkpt lat="45.26219" lon="5.82944">
        <ele>509.5</ele>
        <time>2011-10-16T09:38:39Z</time>
      </trkpt>
      <trkpt lat="45.26214" lon="5.8294">
        <ele>509.6</ele>
        <time>2011-10-16T09:38:41Z</time>
      </trkpt>
      <trkpt lat="45.26208" lon="5.82937">
        <ele>509.9</ele>
        <time>2011-10-16T09:38:43Z</time>
      </trkpt>
      <trkpt lat="45.26204" lon="5.82933">
        <ele>510.1</ele>
        <time>2011-10-16T09:38:45Z</time>
      </trkpt>
      <trkpt lat="45.26199" lon="5.8293">
        <ele>510.5</ele>
        <time>2011-10-16T09:38:47Z</time>
      </trkpt>
      <trkpt lat="45.26195" lon="5.82928">
        <ele>510.9</ele>
        <time>2011-10-16T09:38:49Z</time>
      </trkpt>
      <trkpt lat="45.26191" lon="5.82924">
        <ele>511.2</ele>
        <time>2011-10-16T09:38:51Z</time>
      </trkpt>
      <trkpt lat="45.26185" lon="5.82921">
        <ele>511.7</ele>
        <time>2011-10-16T09:38:54Z</time>
      </trkpt>
      <trkpt lat="45.2618" lon="5.82918">
        <ele>512.1</ele>
        <time>2011-10-16T09:38:57Z</time>
      </trkpt>
      <trkpt lat="45.26176" lon="5.82914">
        <ele>512.6</ele>
        <time>2011-10-16T09:39:00Z</time>
      </trkpt>
      <trkpt lat="45.26172" lon="5.8291">
        <ele>513</ele>
        <time>2011-10-16T09:39:03Z</time>
      </trkpt>
      <trkpt lat="45.26167" lon="5.82907">
        <ele>513.3</ele>
        <time>2011-10-16T09:39:06Z</time>
      </trkpt>
      <trkpt lat="45.26162" lon="5.82904">
        <ele>513.6</ele>
        <time>2011-10-16T09:39:09Z</time>
      </trkpt>
      <trkpt lat="45.26158" lon="5.82901">
        <ele>514.4</ele>
        <time>2011-10-16T09:39:12Z</time>
      </trkpt>
      <trkpt lat="45.26153" lon="5.82898">
        <ele>515.2</ele>
        <time>2011-10-16T09:39:15Z</time>
      </trkpt>
      <trkpt lat="45.26149" lon="5.82895">
        <ele>515.7</ele>
        <time>2011-10-16T09:39:18Z</time>
      </trkpt>
      <trkpt lat="45.26144" lon="5.82892">
        <ele>516.1</ele>
        <time>2011-10-16T09:39:21Z</time>
      </trkpt>
      <trkpt lat="45.2614" lon="5.82889">
        <ele>517</ele>
        <time>2011-10-16T09:39:24Z</time>
      </trkpt>
      <trkpt lat="45.26136" lon="5.82886">
        <ele>517.7</ele>
        <time>2011-10-16T09:39:27Z</time>
      </trkpt>
      <trkpt lat="45.26131" lon="5.82883">
        <ele>518.1</ele>
        <time>2011-10-16T09:39:30Z</time>
      </trkpt>
      <trkpt lat="45.26126" lon="5.8288">
        <ele>518.6</ele>
        <time>2011-10-16T09:39:33Z</time>
      </trkpt>
      <trkpt lat="45.26122" lon="5.82877">
        <ele>518.9</ele>
        <time>2011-10-16T09:39:36Z</time>
      </trkpt>
      <trkpt lat="45.26118" lon="5.82875">
        <ele>519.2</ele>
        <time>2011-10-16T09:39:39Z</time>
      </trkpt>
      <trkpt lat="45.26113" lon="5.82872">
        <ele>519.7</ele>
        <time>2011-10-16T09:39:42Z</time>
      </trkpt>
      <trkpt lat="45.26109" lon="5.82867">
        <ele>520.2</ele>
        <time>2011-10-16T09:39:45Z</time>
      </trkpt>
      <trkpt lat="45.26106" lon="5.82862">
        <ele>521.2</ele>
        <time>2011-10-16T09:39:48Z</time>
      </trkpt>
      <trkpt lat="45.26103" lon="5.82857">
        <ele>521.9</ele>
        <time>2011-10-16T09:39:51Z</time>
      </trkpt>
      <trkpt lat="45.261" lon="5.82852">
        <ele>522.5</ele>
        <time>2011-10-16T09:39:54Z</time>
      </trkpt>
      <trkpt lat="45.26095" lon="5.82848">
        <ele>522.6</ele>
        <time>2011-10-16T09:39:57Z</time>
      </trkpt>
      <trkpt lat="45.26089" lon="5.82844">
        <ele>522.9</ele>
        <time>2011-10-16T09:40:00Z</time>
      </trkpt>
      <trkpt lat="45.26085" lon="5.8284">
        <ele>523.1</ele>
        <time>2011-10-16T09:40:02Z</time>
      </trkpt>
      <trkpt lat="45.26081" lon="5.82837">
        <ele>523.2</ele>
        <time>2011-10-16T09:40:04Z</time>
      </trkpt>
      <trkpt lat="45.26077" lon="5.82832">
        <ele>522.8</ele>
        <time>2011-10-16T09:40:06Z</time>
      </trkpt>
      <trkpt lat="45.26074" lon="5.82828">
        <ele>522.7</ele>
        <time>2011-10-16T09:40:08Z</time>
      </trkpt>
      <trkpt lat="45.26071" lon="5.82822">
        <ele>522.9</ele>
        <time>2011-10-16T09:40:10Z</time>
      </trkpt>
      <trkpt lat="45.26071" lon="5.82814">
        <ele>523</ele>
        <time>2011-10-16T09:40:13Z</time>
      </trkpt>
      <trkpt lat="45.26075" lon="5.82808">
        <ele>524</ele>
        <time>2011-10-16T09:40:16Z</time>
      </trkpt>
      <trkpt lat="45.26081" lon="5.82805">
        <ele>526.1</ele>
        <time>2011-10-16T09:40:20Z</time>
      </trkpt>
      <trkpt lat="45.26086" lon="5.82802">
        <ele>528.3</ele>
        <time>2011-10-16T09:40:24Z</time>
      </trkpt>
      <trkpt lat="45.26091" lon="5.828">
        <ele>529.5</ele>
        <time>2011-10-16T09:40:27Z</time>
      </trkpt>
      <trkpt lat="45.26096" lon="5.82797">
        <ele>530.8</ele>
        <time>2011-10-16T09:40:30Z</time>
      </trkpt>
      <trkpt lat="45.26101" lon="5.82794">
        <ele>531.8</ele>
        <time>2011-10-16T09:40:33Z</time>
      </trkpt>
      <trkpt lat="45.26105" lon="5.82788">
        <ele>532.8</ele>
        <time>2011-10-16T09:40:36Z</time>
      </trkpt>
      <trkpt lat="45.26109" lon="5.82782">
        <ele>533.2</ele>
        <time>2011-10-16T09:40:39Z</time>
      </trkpt>
      <trkpt lat="45.26112" lon="5.82776">
        <ele>533.5</ele>
        <time>2011-10-16T09:40:42Z</time>
      </trkpt>
      <trkpt lat="45.26116" lon="5.8277">
        <ele>534.4</ele>
        <time>2011-10-16T09:40:45Z</time>
      </trkpt>
      <trkpt lat="45.2612" lon="5.82764">
        <ele>534.9</ele>
        <time>2011-10-16T09:40:48Z</time>
      </trkpt>
      <trkpt lat="45.26122" lon="5.8276">
        <ele>535.2</ele>
        <time>2011-10-16T09:40:51Z</time>
      </trkpt>
      <trkpt lat="45.26126" lon="5.82755">
        <ele>536</ele>
        <time>2011-10-16T09:40:54Z</time>
      </trkpt>
      <trkpt lat="45.26132" lon="5.82752">
        <ele>536.7</ele>
        <time>2011-10-16T09:40:57Z</time>
      </trkpt>
      <trkpt lat="45.26137" lon="5.82752">
        <ele>537.5</ele>
        <time>2011-10-16T09:41:00Z</time>
      </trkpt>
      <trkpt lat="45.26142" lon="5.82753">
        <ele>538.5</ele>
        <time>2011-10-16T09:41:04Z</time>
      </trkpt>
      <trkpt lat="45.26147" lon="5.82755">
        <ele>539.5</ele>
        <time>2011-10-16T09:41:08Z</time>
      </trkpt>
      <trkpt lat="45.26152" lon="5.82758">
        <ele>541.7</ele>
        <time>2011-10-16T09:41:12Z</time>
      </trkpt>
      <trkpt lat="45.26156" lon="5.8276">
        <ele>542.5</ele>
        <time>2011-10-16T09:41:16Z</time>
      </trkpt>
      <trkpt lat="45.26161" lon="5.82759">
        <ele>543.7</ele>
        <time>2011-10-16T09:42:19Z</time>
      </trkpt>
      <trkpt lat="45.26156" lon="5.82759">
        <ele>543.8</ele>
        <time>2011-10-16T09:42:22Z</time>
      </trkpt>
      <trkpt lat="45.26151" lon="5.82759">
        <ele>543.3</ele>
        <time>2011-10-16T09:42:24Z</time>
      </trkpt>
      <trkpt lat="45.26146" lon="5.82755">
        <ele>542.9</ele>
        <time>2011-10-16T09:42:26Z</time>
      </trkpt>
      <trkpt lat="45.26139" lon="5.82752">
        <ele>542.2</ele>
        <time>2011-10-16T09:42:28Z</time>
      </trkpt>
      <trkpt lat="45.26128" lon="5.82754">
        <ele>541.8</ele>
        <time>2011-10-16T09:42:30Z</time>
      </trkpt>
      <trkpt lat="45.26122" lon="5.8276">
        <ele>541.7</ele>
        <time>2011-10-16T09:42:31Z</time>
      </trkpt>
      <trkpt lat="45.26116" lon="5.82768">
        <ele>541.7</ele>
        <time>2011-10-16T09:42:32Z</time>
      </trkpt>
      <trkpt lat="45.26112" lon="5.82777">
        <ele>541.6</ele>
        <time>2011-10-16T09:42:33Z</time>
      </trkpt>
      <trkpt lat="45.26107" lon="5.82786">
        <ele>541.4</ele>
        <time>2011-10-16T09:42:34Z</time>
      </trkpt>
      <trkpt lat="45.26102" lon="5.82793">
        <ele>541.4</ele>
        <time>2011-10-16T09:42:35Z</time>
      </trkpt>
      <trkpt lat="45.26097" lon="5.82799">
        <ele>541.3</ele>
        <time>2011-10-16T09:42:36Z</time>
      </trkpt>
      <trkpt lat="45.2609" lon="5.82803">
        <ele>541</ele>
        <time>2011-10-16T09:42:37Z</time>
      </trkpt>
      <trkpt lat="45.26085" lon="5.82807">
        <ele>541</ele>
        <time>2011-10-16T09:42:38Z</time>
      </trkpt>
      <trkpt lat="45.26079" lon="5.82811">
        <ele>540.9</ele>
        <time>2011-10-16T09:42:39Z</time>
      </trkpt>
      <trkpt lat="45.26074" lon="5.82814">
        <ele>540.6</ele>
        <time>2011-10-16T09:42:40Z</time>
      </trkpt>
      <trkpt lat="45.2607" lon="5.82815">
        <ele>540</ele>
        <time>2011-10-16T09:42:41Z</time>
      </trkpt>
      <trkpt lat="45.26065" lon="5.82815">
        <ele>539.4</ele>
        <time>2011-10-16T09:42:42Z</time>
      </trkpt>
      <trkpt lat="45.2606" lon="5.82813">
        <ele>538.1</ele>
        <time>2011-10-16T09:42:43Z</time>
      </trkpt>
      <trkpt lat="45.26057" lon="5.82805">
        <ele>536.7</ele>
        <time>2011-10-16T09:42:44Z</time>
      </trkpt>
      <trkpt lat="45.26055" lon="5.82796">
        <ele>536</ele>
        <time>2011-10-16T09:42:45Z</time>
      </trkpt>
      <trkpt lat="45.26053" lon="5.82789">
        <ele>535.6</ele>
        <time>2011-10-16T09:42:46Z</time>
      </trkpt>
      <trkpt lat="45.26053" lon="5.8278">
        <ele>535.3</ele>
        <time>2011-10-16T09:42:47Z</time>
      </trkpt>
      <trkpt lat="45.26051" lon="5.82774">
        <ele>534.8</ele>
        <time>2011-10-16T09:42:48Z</time>
      </trkpt>
      <trkpt lat="45.2605" lon="5.82767">
        <ele>534.4</ele>
        <time>2011-10-16T09:42:49Z</time>
      </trkpt>
      <trkpt lat="45.26045" lon="5.82756">
        <ele>533.9</ele>
        <time>2011-10-16T09:42:51Z</time>
      </trkpt>
      <trkpt lat="45.2604" lon="5.82753">
        <ele>533.5</ele>
        <time>2011-10-16T09:42:52Z</time>
      </trkpt>
      <trkpt lat="45.26034" lon="5.82751">
        <ele>533.1</ele>
        <time>2011-10-16T09:42:53Z</time>
      </trkpt>
      <trkpt lat="45.26029" lon="5.8275">
        <ele>532.5</ele>
        <time>2011-10-16T09:42:54Z</time>
      </trkpt>
      <trkpt lat="45.26024" lon="5.82746">
        <ele>532.1</ele>
        <time>2011-10-16T09:42:55Z</time>
      </trkpt>
      <trkpt lat="45.26018" lon="5.82743">
        <ele>531.7</ele>
        <time>2011-10-16T09:42:56Z</time>
      </trkpt>
      <trkpt lat="45.26013" lon="5.8274">
        <ele>531.2</ele>
        <time>2011-10-16T09:42:57Z</time>
      </trkpt>
      <trkpt lat="45.26007" lon="5.82738">
        <ele>530.8</ele>
        <time>2011-10-16T09:42:58Z</time>
      </trkpt>
      <trkpt lat="45.26002" lon="5.82736">
        <ele>530.8</ele>
        <time>2011-10-16T09:42:59Z</time>
      </trkpt>
      <trkpt lat="45.25996" lon="5.82735">
        <ele>530.5</ele>
        <time>2011-10-16T09:43:00Z</time>
      </trkpt>
      <trkpt lat="45.25991" lon="5.82734">
        <ele>530.4</ele>
        <time>2011-10-16T09:43:01Z</time>
      </trkpt>
      <trkpt lat="45.25986" lon="5.82735">
        <ele>530.2</ele>
        <time>2011-10-16T09:43:02Z</time>
      </trkpt>
      <trkpt lat="45.25979" lon="5.82739">
        <ele>527.7</ele>
        <time>2011-10-16T09:43:04Z</time>
      </trkpt>
      <trkpt lat="45.25973" lon="5.82745">
        <ele>526.5</ele>
        <time>2011-10-16T09:43:06Z</time>
      </trkpt>
      <trkpt lat="45.25969" lon="5.82747">
        <ele>525.9</ele>
        <time>2011-10-16T09:43:07Z</time>
      </trkpt>
      <trkpt lat="45.25963" lon="5.82748">
        <ele>524.7</ele>
        <time>2011-10-16T09:43:08Z</time>
      </trkpt>
      <trkpt lat="45.25957" lon="5.82746">
        <ele>523.6</ele>
        <time>2011-10-16T09:43:09Z</time>
      </trkpt>
      <trkpt lat="45.25952" lon="5.82743">
        <ele>522.4</ele>
        <time>2011-10-16T09:43:10Z</time>
      </trkpt>
      <trkpt lat="45.25947" lon="5.82738">
        <ele>521.5</ele>
        <time>2011-10-16T09:43:11Z</time>
      </trkpt>
      <trkpt lat="45.25943" lon="5.82733">
        <ele>521.4</ele>
        <time>2011-10-16T09:43:12Z</time>
      </trkpt>
      <trkpt lat="45.2594" lon="5.82725">
        <ele>520.7</ele>
        <time>2011-10-16T09:43:13Z</time>
      </trkpt>
      <trkpt lat="45.25936" lon="5.82717">
        <ele>520.2</ele>
        <time>2011-10-16T09:43:14Z</time>
      </trkpt>
      <trkpt lat="45.25933" lon="5.82711">
        <ele>519.8</ele>
        <time>2011-10-16T09:43:15Z</time>
      </trkpt>
      <trkpt lat="45.2593" lon="5.82705">
        <ele>519.7</ele>
        <time>2011-10-16T09:43:16Z</time>
      </trkpt>
      <trkpt lat="45.25926" lon="5.827">
        <ele>519.8</ele>
        <time>2011-10-16T09:43:17Z</time>
      </trkpt>
      <trkpt lat="45.25922" lon="5.82696">
        <ele>519.8</ele>
        <time>2011-10-16T09:43:18Z</time>
      </trkpt>
      <trkpt lat="45.25918" lon="5.82692">
        <ele>519.6</ele>
        <time>2011-10-16T09:43:19Z</time>
      </trkpt>
      <trkpt lat="45.25913" lon="5.82688">
        <ele>519.3</ele>
        <time>2011-10-16T09:43:20Z</time>
      </trkpt>
      <trkpt lat="45.25909" lon="5.82683">
        <ele>518.9</ele>
        <time>2011-10-16T09:43:21Z</time>
      </trkpt>
      <trkpt lat="45.25905" lon="5.82679">
        <ele>518.4</ele>
        <time>2011-10-16T09:43:22Z</time>
      </trkpt>
      <trkpt lat="45.25902" lon="5.82675">
        <ele>517.7</ele>
        <time>2011-10-16T09:43:23Z</time>
      </trkpt>
      <trkpt lat="45.25896" lon="5.82666">
        <ele>516.3</ele>
        <time>2011-10-16T09:43:25Z</time>
      </trkpt>
      <trkpt lat="45.25892" lon="5.82658">
        <ele>515.5</ele>
        <time>2011-10-16T09:43:27Z</time>
      </trkpt>
      <trkpt lat="45.25887" lon="5.8265">
        <ele>515.1</ele>
        <time>2011-10-16T09:43:29Z</time>
      </trkpt>
      <trkpt lat="45.25883" lon="5.82643">
        <ele>514.9</ele>
        <time>2011-10-16T09:43:31Z</time>
      </trkpt>
      <trkpt lat="45.25879" lon="5.82634">
        <ele>514</ele>
        <time>2011-10-16T09:43:33Z</time>
      </trkpt>
      <trkpt lat="45.25874" lon="5.82623">
        <ele>513</ele>
        <time>2011-10-16T09:43:35Z</time>
      </trkpt>
      <trkpt lat="45.2587" lon="5.82612">
        <ele>512.5</ele>
        <time>2011-10-16T09:43:37Z</time>
      </trkpt>
      <trkpt lat="45.25866" lon="5.82601">
        <ele>512</ele>
        <time>2011-10-16T09:43:39Z</time>
      </trkpt>
      <trkpt lat="45.25863" lon="5.82596">
        <ele>511.8</ele>
        <time>2011-10-16T09:43:40Z</time>
      </trkpt>
      <trkpt lat="45.25857" lon="5.82586">
        <ele>511.5</ele>
        <time>2011-10-16T09:43:42Z</time>
      </trkpt>
      <trkpt lat="45.25851" lon="5.82579">
        <ele>511.6</ele>
        <time>2011-10-16T09:43:44Z</time>
      </trkpt>
      <trkpt lat="45.25849" lon="5.82572">
        <ele>511.6</ele>
        <time>2011-10-16T09:43:46Z</time>
      </trkpt>
      <trkpt lat="45.25851" lon="5.82566">
        <ele>512.8</ele>
        <time>2011-10-16T09:43:50Z</time>
      </trkpt>
      <trkpt lat="45.25856" lon="5.82563">
        <ele>514</ele>
        <time>2011-10-16T09:43:54Z</time>
      </trkpt>
      <trkpt lat="45.2586" lon="5.8256">
        <ele>514.1</ele>
        <time>2011-10-16T09:43:57Z</time>
      </trkpt>
      <trkpt lat="45.25863" lon="5.82554">
        <ele>515</ele>
        <time>2011-10-16T09:44:01Z</time>
      </trkpt>
      <trkpt lat="45.25865" lon="5.82548">
        <ele>515.7</ele>
        <time>2011-10-16T09:44:05Z</time>
      </trkpt>
      <trkpt lat="45.25868" lon="5.82542">
        <ele>516.6</ele>
        <time>2011-10-16T09:44:09Z</time>
      </trkpt>
      <trkpt lat="45.2587" lon="5.82536">
        <ele>517.6</ele>
        <time>2011-10-16T09:44:13Z</time>
      </trkpt>
      <trkpt lat="45.25872" lon="5.8253">
        <ele>518.5</ele>
        <time>2011-10-16T09:44:17Z</time>
      </trkpt>
      <trkpt lat="45.25875" lon="5.82525">
        <ele>519.6</ele>
        <time>2011-10-16T09:44:21Z</time>
      </trkpt>
      <trkpt lat="45.25878" lon="5.8252">
        <ele>520.7</ele>
        <time>2011-10-16T09:44:25Z</time>
      </trkpt>
      <trkpt lat="45.25881" lon="5.82513">
        <ele>522.4</ele>
        <time>2011-10-16T09:44:30Z</time>
      </trkpt>
      <trkpt lat="45.25884" lon="5.82507">
        <ele>523.9</ele>
        <time>2011-10-16T09:44:35Z</time>
      </trkpt>
      <trkpt lat="45.25887" lon="5.82502">
        <ele>524.7</ele>
        <time>2011-10-16T09:44:39Z</time>
      </trkpt>
      <trkpt lat="45.2589" lon="5.82496">
        <ele>524.9</ele>
        <time>2011-10-16T09:44:43Z</time>
      </trkpt>
      <trkpt lat="45.25892" lon="5.82489">
        <ele>525.6</ele>
        <time>2011-10-16T09:44:47Z</time>
      </trkpt>
      <trkpt lat="45.25894" lon="5.82483">
        <ele>526.9</ele>
        <time>2011-10-16T09:44:51Z</time>
      </trkpt>
      <trkpt lat="45.25897" lon="5.82476">
        <ele>528.3</ele>
        <time>2011-10-16T09:44:55Z</time>
      </trkpt>
      <trkpt lat="45.259" lon="5.8247">
        <ele>529</ele>
        <time>2011-10-16T09:44:59Z</time>
      </trkpt>
      <trkpt lat="45.25901" lon="5.82463">
        <ele>530</ele>
        <time>2011-10-16T09:45:03Z</time>
      </trkpt>
      <trkpt lat="45.25903" lon="5.82456">
        <ele>530.8</ele>
        <time>2011-10-16T09:45:07Z</time>
      </trkpt>
      <trkpt lat="45.25905" lon="5.82449">
        <ele>531.7</ele>
        <time>2011-10-16T09:45:11Z</time>
      </trkpt>
      <trkpt lat="45.25908" lon="5.82443">
        <ele>532.6</ele>
        <time>2011-10-16T09:45:15Z</time>
      </trkpt>
      <trkpt lat="45.25909" lon="5.82436">
        <ele>533.8</ele>
        <time>2011-10-16T09:45:19Z</time>
      </trkpt>
      <trkpt lat="45.25912" lon="5.82429">
        <ele>534.4</ele>
        <time>2011-10-16T09:45:23Z</time>
      </trkpt>
      <trkpt lat="45.25914" lon="5.82421">
        <ele>535</ele>
        <time>2011-10-16T09:45:27Z</time>
      </trkpt>
      <trkpt lat="45.25916" lon="5.82414">
        <ele>535.4</ele>
        <time>2011-10-16T09:45:31Z</time>
      </trkpt>
      <trkpt lat="45.25917" lon="5.82406">
        <ele>536.6</ele>
        <time>2011-10-16T09:45:35Z</time>
      </trkpt>
      <trkpt lat="45.25919" lon="5.824">
        <ele>537.7</ele>
        <time>2011-10-16T09:45:39Z</time>
      </trkpt>
      <trkpt lat="45.25921" lon="5.82392">
        <ele>538.7</ele>
        <time>2011-10-16T09:45:44Z</time>
      </trkpt>
      <trkpt lat="45.25924" lon="5.82385">
        <ele>539.1</ele>
        <time>2011-10-16T09:45:49Z</time>
      </trkpt>
      <trkpt lat="45.25927" lon="5.82379">
        <ele>538.5</ele>
        <time>2011-10-16T09:45:53Z</time>
      </trkpt>
      <trkpt lat="45.25918" lon="5.8237">
        <ele>569.8</ele>
        <time>2011-10-16T09:46:03Z</time>
      </trkpt>
      <trkpt lat="45.25918" lon="5.8237">
        <ele>569.8</ele>
        <time>2011-10-16T09:46:03Z</time>
      </trkpt>
      <trkpt lat="45.25918" lon="5.8237">
        <ele>569.8</ele>
        <time>2011-10-16T09:46:28Z</time>
      </trkpt>
      <trkpt lat="45.25942" lon="5.8237">
        <ele>567.6</ele>
        <time>2011-10-16T09:46:29Z</time>
      </trkpt>
      <trkpt lat="45.25944" lon="5.82364">
        <ele>566.1</ele>
        <time>2011-10-16T09:46:33Z</time>
      </trkpt>
      <trkpt lat="45.25946" lon="5.82357">
        <ele>564.5</ele>
        <time>2011-10-16T09:46:39Z</time>
      </trkpt>
      <trkpt lat="45.25943" lon="5.82352">
        <ele>563.9</ele>
        <time>2011-10-16T09:46:44Z</time>
      </trkpt>
      <trkpt lat="45.2594" lon="5.82347">
        <ele>563.7</ele>
        <time>2011-10-16T09:46:49Z</time>
      </trkpt>
      <trkpt lat="45.25935" lon="5.82343">
        <ele>563</ele>
        <time>2011-10-16T09:46:52Z</time>
      </trkpt>
      <trkpt lat="45.25932" lon="5.82339">
        <ele>562.2</ele>
        <time>2011-10-16T09:46:56Z</time>
      </trkpt>
      <trkpt lat="45.25928" lon="5.82334">
        <ele>562.1</ele>
        <time>2011-10-16T09:47:02Z</time>
      </trkpt>
      <trkpt lat="45.25924" lon="5.8233">
        <ele>561.6</ele>
        <time>2011-10-16T09:47:06Z</time>
      </trkpt>
      <trkpt lat="45.25921" lon="5.82325">
        <ele>561.9</ele>
        <time>2011-10-16T09:47:11Z</time>
      </trkpt>
      <trkpt lat="45.25917" lon="5.8232">
        <ele>563.5</ele>
        <time>2011-10-16T09:47:17Z</time>
      </trkpt>
      <trkpt lat="45.25914" lon="5.82316">
        <ele>564.2</ele>
        <time>2011-10-16T09:47:21Z</time>
      </trkpt>
      <trkpt lat="45.2591" lon="5.82312">
        <ele>565</ele>
        <time>2011-10-16T09:47:24Z</time>
      </trkpt>
      <trkpt lat="45.25906" lon="5.82305">
        <ele>565</ele>
        <time>2011-10-16T09:47:29Z</time>
      </trkpt>
      <trkpt lat="45.25902" lon="5.82301">
        <ele>565.2</ele>
        <time>2011-10-16T09:47:34Z</time>
      </trkpt>
      <trkpt lat="45.25897" lon="5.82296">
        <ele>566</ele>
        <time>2011-10-16T09:47:39Z</time>
      </trkpt>
      <trkpt lat="45.25893" lon="5.82293">
        <ele>567.5</ele>
        <time>2011-10-16T09:47:43Z</time>
      </trkpt>
      <trkpt lat="45.25889" lon="5.82289">
        <ele>567.4</ele>
        <time>2011-10-16T09:47:46Z</time>
      </trkpt>
      <trkpt lat="45.25886" lon="5.82284">
        <ele>568</ele>
        <time>2011-10-16T09:47:49Z</time>
      </trkpt>
      <trkpt lat="45.25877" lon="5.82276">
        <ele>567.4</ele>
        <time>2011-10-16T09:48:01Z</time>
      </trkpt>
      <trkpt lat="45.25877" lon="5.82276">
        <ele>567.4</ele>
        <time>2011-10-16T09:48:01Z</time>
      </trkpt>
      <trkpt lat="45.25877" lon="5.82276">
        <ele>567.4</ele>
        <time>2011-10-16T09:48:29Z</time>
      </trkpt>
      <trkpt lat="45.2587" lon="5.82267">
        <ele>571.4</ele>
        <time>2011-10-16T09:48:30Z</time>
      </trkpt>
      <trkpt lat="45.25867" lon="5.82261">
        <ele>572.4</ele>
        <time>2011-10-16T09:48:36Z</time>
      </trkpt>
      <trkpt lat="45.25872" lon="5.82261">
        <ele>574.9</ele>
        <time>2011-10-16T09:48:43Z</time>
      </trkpt>
      <trkpt lat="45.25877" lon="5.82261">
        <ele>576</ele>
        <time>2011-10-16T09:48:47Z</time>
      </trkpt>
      <trkpt lat="45.25882" lon="5.82263">
        <ele>577.3</ele>
        <time>2011-10-16T09:48:51Z</time>
      </trkpt>
      <trkpt lat="45.25886" lon="5.82264">
        <ele>578.9</ele>
        <time>2011-10-16T09:48:55Z</time>
      </trkpt>
      <trkpt lat="45.25891" lon="5.82265">
        <ele>581.5</ele>
        <time>2011-10-16T09:49:00Z</time>
      </trkpt>
      <trkpt lat="45.25896" lon="5.82265">
        <ele>583.4</ele>
        <time>2011-10-16T09:49:05Z</time>
      </trkpt>
      <trkpt lat="45.25902" lon="5.82264">
        <ele>584.5</ele>
        <time>2011-10-16T09:49:10Z</time>
      </trkpt>
      <trkpt lat="45.25906" lon="5.82261">
        <ele>586</ele>
        <time>2011-10-16T09:49:15Z</time>
      </trkpt>
      <trkpt lat="45.2591" lon="5.82259">
        <ele>587.6</ele>
        <time>2011-10-16T09:49:20Z</time>
      </trkpt>
      <trkpt lat="45.25914" lon="5.82256">
        <ele>588.8</ele>
        <time>2011-10-16T09:49:24Z</time>
      </trkpt>
      <trkpt lat="45.25919" lon="5.82254">
        <ele>589.2</ele>
        <time>2011-10-16T09:49:28Z</time>
      </trkpt>
      <trkpt lat="45.25924" lon="5.82252">
        <ele>593.1</ele>
        <time>2011-10-16T09:49:39Z</time>
      </trkpt>
      <trkpt lat="45.2593" lon="5.82254">
        <ele>594.6</ele>
        <time>2011-10-16T09:49:43Z</time>
      </trkpt>
      <trkpt lat="45.25935" lon="5.82252">
        <ele>595.2</ele>
        <time>2011-10-16T09:49:50Z</time>
      </trkpt>
      <trkpt lat="45.25945" lon="5.82249">
        <ele>598.1</ele>
        <time>2011-10-16T09:51:18Z</time>
      </trkpt>
      <trkpt lat="45.25943" lon="5.82243">
        <ele>597.8</ele>
        <time>2011-10-16T09:51:24Z</time>
      </trkpt>
      <trkpt lat="45.25942" lon="5.82237">
        <ele>598.5</ele>
        <time>2011-10-16T09:51:30Z</time>
      </trkpt>
      <trkpt lat="45.25938" lon="5.82232">
        <ele>598.6</ele>
        <time>2011-10-16T09:51:35Z</time>
      </trkpt>
      <trkpt lat="45.25934" lon="5.82228">
        <ele>598.8</ele>
        <time>2011-10-16T09:51:39Z</time>
      </trkpt>
      <trkpt lat="45.25933" lon="5.8222">
        <ele>601.3</ele>
        <time>2011-10-16T09:51:45Z</time>
      </trkpt>
      <trkpt lat="45.25929" lon="5.82215">
        <ele>603.6</ele>
        <time>2011-10-16T09:51:49Z</time>
      </trkpt>
      <trkpt lat="45.25926" lon="5.8221">
        <ele>604.1</ele>
        <time>2011-10-16T09:51:53Z</time>
      </trkpt>
      <trkpt lat="45.25923" lon="5.82203">
        <ele>604.2</ele>
        <time>2011-10-16T09:51:57Z</time>
      </trkpt>
      <trkpt lat="45.2592" lon="5.82197">
        <ele>604.8</ele>
        <time>2011-10-16T09:52:01Z</time>
      </trkpt>
      <trkpt lat="45.25918" lon="5.8219">
        <ele>605.3</ele>
        <time>2011-10-16T09:52:06Z</time>
      </trkpt>
      <trkpt lat="45.25917" lon="5.82184">
        <ele>605.2</ele>
        <time>2011-10-16T09:52:11Z</time>
      </trkpt>
      <trkpt lat="45.25915" lon="5.82177">
        <ele>606.5</ele>
        <time>2011-10-16T09:52:16Z</time>
      </trkpt>
      <trkpt lat="45.25911" lon="5.82172">
        <ele>607.5</ele>
        <time>2011-10-16T09:52:19Z</time>
      </trkpt>
      <trkpt lat="45.25906" lon="5.82166">
        <ele>607.7</ele>
        <time>2011-10-16T09:52:23Z</time>
      </trkpt>
      <trkpt lat="45.25902" lon="5.82162">
        <ele>607.6</ele>
        <time>2011-10-16T09:52:26Z</time>
      </trkpt>
      <trkpt lat="45.25899" lon="5.82157">
        <ele>607.6</ele>
        <time>2011-10-16T09:52:29Z</time>
      </trkpt>
      <trkpt lat="45.25898" lon="5.8215">
        <ele>606.9</ele>
        <time>2011-10-16T09:52:33Z</time>
      </trkpt>
      <trkpt lat="45.25902" lon="5.82145">
        <ele>607.9</ele>
        <time>2011-10-16T09:52:39Z</time>
      </trkpt>
      <trkpt lat="45.25907" lon="5.82144">
        <ele>609.2</ele>
        <time>2011-10-16T09:52:43Z</time>
      </trkpt>
      <trkpt lat="45.25912" lon="5.82143">
        <ele>610.4</ele>
        <time>2011-10-16T09:52:47Z</time>
      </trkpt>
      <trkpt lat="45.25918" lon="5.82142">
        <ele>611.9</ele>
        <time>2011-10-16T09:52:51Z</time>
      </trkpt>
      <trkpt lat="45.25923" lon="5.8214">
        <ele>612.8</ele>
        <time>2011-10-16T09:52:55Z</time>
      </trkpt>
      <trkpt lat="45.25927" lon="5.82138">
        <ele>613.8</ele>
        <time>2011-10-16T09:52:59Z</time>
      </trkpt>
      <trkpt lat="45.25933" lon="5.82136">
        <ele>615.3</ele>
        <time>2011-10-16T09:53:03Z</time>
      </trkpt>
      <trkpt lat="45.25938" lon="5.82134">
        <ele>616.1</ele>
        <time>2011-10-16T09:53:07Z</time>
      </trkpt>
      <trkpt lat="45.25943" lon="5.82132">
        <ele>616.7</ele>
        <time>2011-10-16T09:53:11Z</time>
      </trkpt>
      <trkpt lat="45.25947" lon="5.8213">
        <ele>617.9</ele>
        <time>2011-10-16T09:53:14Z</time>
      </trkpt>
      <trkpt lat="45.25952" lon="5.8213">
        <ele>618.8</ele>
        <time>2011-10-16T09:53:18Z</time>
      </trkpt>
      <trkpt lat="45.25958" lon="5.82128">
        <ele>619.7</ele>
        <time>2011-10-16T09:53:22Z</time>
      </trkpt>
      <trkpt lat="45.25963" lon="5.82127">
        <ele>620.9</ele>
        <time>2011-10-16T09:53:26Z</time>
      </trkpt>
      <trkpt lat="45.25968" lon="5.82126">
        <ele>622.2</ele>
        <time>2011-10-16T09:53:30Z</time>
      </trkpt>
      <trkpt lat="45.25974" lon="5.82126">
        <ele>623.3</ele>
        <time>2011-10-16T09:53:34Z</time>
      </trkpt>
      <trkpt lat="45.25979" lon="5.82126">
        <ele>624.4</ele>
        <time>2011-10-16T09:53:38Z</time>
      </trkpt>
      <trkpt lat="45.25984" lon="5.82125">
        <ele>625.2</ele>
        <time>2011-10-16T09:53:42Z</time>
      </trkpt>
      <trkpt lat="45.25989" lon="5.82123">
        <ele>626.3</ele>
        <time>2011-10-16T09:53:47Z</time>
      </trkpt>
      <trkpt lat="45.25994" lon="5.82122">
        <ele>627.6</ele>
        <time>2011-10-16T09:53:51Z</time>
      </trkpt>
      <trkpt lat="45.25999" lon="5.8212">
        <ele>628.5</ele>
        <time>2011-10-16T09:53:55Z</time>
      </trkpt>
      <trkpt lat="45.26004" lon="5.82118">
        <ele>629.4</ele>
        <time>2011-10-16T09:54:00Z</time>
      </trkpt>
      <trkpt lat="45.26008" lon="5.82115">
        <ele>631.3</ele>
        <time>2011-10-16T09:54:17Z</time>
      </trkpt>
      <trkpt lat="45.26012" lon="5.82114">
        <ele>633.1</ele>
        <time>2011-10-16T09:54:23Z</time>
      </trkpt>
      <trkpt lat="45.26017" lon="5.82114">
        <ele>633.9</ele>
        <time>2011-10-16T09:54:51Z</time>
      </trkpt>
      <trkpt lat="45.26021" lon="5.82112">
        <ele>634.6</ele>
        <time>2011-10-16T09:55:18Z</time>
      </trkpt>
      <trkpt lat="45.26026" lon="5.82112">
        <ele>635.6</ele>
        <time>2011-10-16T09:55:23Z</time>
      </trkpt>
      <trkpt lat="45.26032" lon="5.82111">
        <ele>636.2</ele>
        <time>2011-10-16T09:55:27Z</time>
      </trkpt>
      <trkpt lat="45.26036" lon="5.82109">
        <ele>636.3</ele>
        <time>2011-10-16T09:55:31Z</time>
      </trkpt>
      <trkpt lat="45.26042" lon="5.82107">
        <ele>636.6</ele>
        <time>2011-10-16T09:55:35Z</time>
      </trkpt>
      <trkpt lat="45.26046" lon="5.82106">
        <ele>637.3</ele>
        <time>2011-10-16T09:55:39Z</time>
      </trkpt>
      <trkpt lat="45.26051" lon="5.82106">
        <ele>638.3</ele>
        <time>2011-10-16T09:55:43Z</time>
      </trkpt>
      <trkpt lat="45.26056" lon="5.82104">
        <ele>639.4</ele>
        <time>2011-10-16T09:55:47Z</time>
      </trkpt>
      <trkpt lat="45.2606" lon="5.82101">
        <ele>639</ele>
        <time>2011-10-16T09:55:55Z</time>
      </trkpt>
      <trkpt lat="45.26066" lon="5.82101">
        <ele>640</ele>
        <time>2011-10-16T09:56:00Z</time>
      </trkpt>
      <trkpt lat="45.26071" lon="5.82099">
        <ele>640.6</ele>
        <time>2011-10-16T09:56:05Z</time>
      </trkpt>
      <trkpt lat="45.26076" lon="5.821">
        <ele>641.9</ele>
        <time>2011-10-16T09:56:09Z</time>
      </trkpt>
      <trkpt lat="45.26081" lon="5.821">
        <ele>643.2</ele>
        <time>2011-10-16T09:56:14Z</time>
      </trkpt>
      <trkpt lat="45.26086" lon="5.82099">
        <ele>644.6</ele>
        <time>2011-10-16T09:56:19Z</time>
      </trkpt>
      <trkpt lat="45.2609" lon="5.82098">
        <ele>645.7</ele>
        <time>2011-10-16T09:56:23Z</time>
      </trkpt>
      <trkpt lat="45.26095" lon="5.82098">
        <ele>646.7</ele>
        <time>2011-10-16T09:56:27Z</time>
      </trkpt>
      <trkpt lat="45.261" lon="5.82098">
        <ele>648</ele>
        <time>2011-10-16T09:56:32Z</time>
      </trkpt>
      <trkpt lat="45.26105" lon="5.82099">
        <ele>648.4</ele>
        <time>2011-10-16T09:56:36Z</time>
      </trkpt>
      <trkpt lat="45.2611" lon="5.821">
        <ele>649.2</ele>
        <time>2011-10-16T09:56:41Z</time>
      </trkpt>
      <trkpt lat="45.26115" lon="5.821">
        <ele>650.6</ele>
        <time>2011-10-16T09:56:46Z</time>
      </trkpt>
      <trkpt lat="45.2612" lon="5.82101">
        <ele>652.4</ele>
        <time>2011-10-16T09:56:51Z</time>
      </trkpt>
      <trkpt lat="45.26125" lon="5.82103">
        <ele>654</ele>
        <time>2011-10-16T09:56:56Z</time>
      </trkpt>
      <trkpt lat="45.2613" lon="5.82104">
        <ele>655.7</ele>
        <time>2011-10-16T09:57:00Z</time>
      </trkpt>
      <trkpt lat="45.26134" lon="5.82106">
        <ele>657.4</ele>
        <time>2011-10-16T09:57:04Z</time>
      </trkpt>
      <trkpt lat="45.2614" lon="5.82106">
        <ele>658.6</ele>
        <time>2011-10-16T09:57:09Z</time>
      </trkpt>
      <trkpt lat="45.26144" lon="5.82107">
        <ele>659.3</ele>
        <time>2011-10-16T09:57:13Z</time>
      </trkpt>
      <trkpt lat="45.26149" lon="5.82109">
        <ele>660.8</ele>
        <time>2011-10-16T09:57:18Z</time>
      </trkpt>
      <trkpt lat="45.26155" lon="5.8211">
        <ele>662</ele>
        <time>2011-10-16T09:57:23Z</time>
      </trkpt>
      <trkpt lat="45.2616" lon="5.82112">
        <ele>663.4</ele>
        <time>2011-10-16T09:57:28Z</time>
      </trkpt>
      <trkpt lat="45.26164" lon="5.82113">
        <ele>665.2</ele>
        <time>2011-10-16T09:57:33Z</time>
      </trkpt>
      <trkpt lat="45.26169" lon="5.82117">
        <ele>666</ele>
        <time>2011-10-16T09:57:38Z</time>
      </trkpt>
      <trkpt lat="45.26173" lon="5.8212">
        <ele>667.3</ele>
        <time>2011-10-16T09:57:44Z</time>
      </trkpt>
      <trkpt lat="45.26177" lon="5.82123">
        <ele>668.4</ele>
        <time>2011-10-16T09:57:49Z</time>
      </trkpt>
      <trkpt lat="45.26181" lon="5.82127">
        <ele>668.9</ele>
        <time>2011-10-16T09:57:53Z</time>
      </trkpt>
      <trkpt lat="45.26186" lon="5.8213">
        <ele>670</ele>
        <time>2011-10-16T09:57:59Z</time>
      </trkpt>
      <trkpt lat="45.26191" lon="5.82132">
        <ele>670.8</ele>
        <time>2011-10-16T09:58:04Z</time>
      </trkpt>
      <trkpt lat="45.26196" lon="5.82135">
        <ele>671.9</ele>
        <time>2011-10-16T09:58:09Z</time>
      </trkpt>
      <trkpt lat="45.26201" lon="5.82137">
        <ele>671.8</ele>
        <time>2011-10-16T09:58:14Z</time>
      </trkpt>
      <trkpt lat="45.26206" lon="5.82137">
        <ele>670.8</ele>
        <time>2011-10-16T09:58:18Z</time>
      </trkpt>
      <trkpt lat="45.26211" lon="5.82136">
        <ele>670.7</ele>
        <time>2011-10-16T09:58:22Z</time>
      </trkpt>
      <trkpt lat="45.26215" lon="5.82133">
        <ele>669.2</ele>
        <time>2011-10-16T09:58:26Z</time>
      </trkpt>
      <trkpt lat="45.26219" lon="5.82129">
        <ele>669.1</ele>
        <time>2011-10-16T09:58:30Z</time>
      </trkpt>
      <trkpt lat="45.26223" lon="5.82125">
        <ele>669.4</ele>
        <time>2011-10-16T09:58:34Z</time>
      </trkpt>
      <trkpt lat="45.26227" lon="5.82121">
        <ele>670.7</ele>
        <time>2011-10-16T09:58:38Z</time>
      </trkpt>
      <trkpt lat="45.2623" lon="5.82116">
        <ele>671</ele>
        <time>2011-10-16T09:59:19Z</time>
      </trkpt>
      <trkpt lat="45.26234" lon="5.8211">
        <ele>671.5</ele>
        <time>2011-10-16T09:59:24Z</time>
      </trkpt>
      <trkpt lat="45.26237" lon="5.82105">
        <ele>673.2</ele>
        <time>2011-10-16T09:59:29Z</time>
      </trkpt>
      <trkpt lat="45.26241" lon="5.82099">
        <ele>676.2</ele>
        <time>2011-10-16T09:59:34Z</time>
      </trkpt>
      <trkpt lat="45.26246" lon="5.82095">
        <ele>678</ele>
        <time>2011-10-16T09:59:39Z</time>
      </trkpt>
      <trkpt lat="45.26249" lon="5.8209">
        <ele>678.4</ele>
        <time>2011-10-16T09:59:44Z</time>
      </trkpt>
      <trkpt lat="45.26254" lon="5.82087">
        <ele>679.3</ele>
        <time>2011-10-16T09:59:49Z</time>
      </trkpt>
      <trkpt lat="45.26257" lon="5.82082">
        <ele>679.4</ele>
        <time>2011-10-16T09:59:54Z</time>
      </trkpt>
      <trkpt lat="45.2626" lon="5.82077">
        <ele>679.3</ele>
        <time>2011-10-16T09:59:59Z</time>
      </trkpt>
      <trkpt lat="45.26264" lon="5.82072">
        <ele>679.8</ele>
        <time>2011-10-16T10:00:04Z</time>
      </trkpt>
      <trkpt lat="45.26267" lon="5.82066">
        <ele>679.8</ele>
        <time>2011-10-16T10:00:09Z</time>
      </trkpt>
      <trkpt lat="45.2627" lon="5.8206">
        <ele>679.5</ele>
        <time>2011-10-16T10:00:14Z</time>
      </trkpt>
      <trkpt lat="45.26273" lon="5.82055">
        <ele>680.4</ele>
        <time>2011-10-16T10:00:18Z</time>
      </trkpt>
      <trkpt lat="45.26276" lon="5.82049">
        <ele>682</ele>
        <time>2011-10-16T10:00:24Z</time>
      </trkpt>
      <trkpt lat="45.2628" lon="5.82044">
        <ele>683.6</ele>
        <time>2011-10-16T10:00:29Z</time>
      </trkpt>
      <trkpt lat="45.26284" lon="5.82038">
        <ele>682.4</ele>
        <time>2011-10-16T10:02:15Z</time>
      </trkpt>
      <trkpt lat="45.26287" lon="5.82032">
        <ele>683.1</ele>
        <time>2011-10-16T10:02:21Z</time>
      </trkpt>
      <trkpt lat="45.26292" lon="5.82028">
        <ele>685.2</ele>
        <time>2011-10-16T10:02:27Z</time>
      </trkpt>
      <trkpt lat="45.26296" lon="5.82025">
        <ele>686.4</ele>
        <time>2011-10-16T10:02:31Z</time>
      </trkpt>
      <trkpt lat="45.263" lon="5.82023">
        <ele>688.3</ele>
        <time>2011-10-16T10:02:35Z</time>
      </trkpt>
      <trkpt lat="45.26304" lon="5.82021">
        <ele>689.5</ele>
        <time>2011-10-16T10:02:39Z</time>
      </trkpt>
      <trkpt lat="45.26309" lon="5.82019">
        <ele>690.5</ele>
        <time>2011-10-16T10:02:43Z</time>
      </trkpt>
      <trkpt lat="45.26314" lon="5.82018">
        <ele>690.7</ele>
        <time>2011-10-16T10:02:47Z</time>
      </trkpt>
      <trkpt lat="45.26318" lon="5.82016">
        <ele>691.8</ele>
        <time>2011-10-16T10:02:51Z</time>
      </trkpt>
      <trkpt lat="45.26323" lon="5.82013">
        <ele>692.5</ele>
        <time>2011-10-16T10:02:55Z</time>
      </trkpt>
      <trkpt lat="45.26328" lon="5.8201">
        <ele>692.6</ele>
        <time>2011-10-16T10:02:59Z</time>
      </trkpt>
      <trkpt lat="45.26333" lon="5.82007">
        <ele>693</ele>
        <time>2011-10-16T10:03:03Z</time>
      </trkpt>
      <trkpt lat="45.26337" lon="5.82002">
        <ele>695.6</ele>
        <time>2011-10-16T10:03:08Z</time>
      </trkpt>
      <trkpt lat="45.26341" lon="5.81998">
        <ele>695.7</ele>
        <time>2011-10-16T10:03:12Z</time>
      </trkpt>
      <trkpt lat="45.26346" lon="5.81997">
        <ele>696.9</ele>
        <time>2011-10-16T10:03:16Z</time>
      </trkpt>
      <trkpt lat="45.26351" lon="5.81995">
        <ele>697.6</ele>
        <time>2011-10-16T10:03:19Z</time>
      </trkpt>
      <trkpt lat="45.26356" lon="5.81994">
        <ele>698</ele>
        <time>2011-10-16T10:03:23Z</time>
      </trkpt>
      <trkpt lat="45.26361" lon="5.81993">
        <ele>698.7</ele>
        <time>2011-10-16T10:03:27Z</time>
      </trkpt>
      <trkpt lat="45.26365" lon="5.8199">
        <ele>699.1</ele>
        <time>2011-10-16T10:03:30Z</time>
      </trkpt>
      <trkpt lat="45.2637" lon="5.8199">
        <ele>699.7</ele>
        <time>2011-10-16T10:03:33Z</time>
      </trkpt>
      <trkpt lat="45.26375" lon="5.8199">
        <ele>700.8</ele>
        <time>2011-10-16T10:03:37Z</time>
      </trkpt>
      <trkpt lat="45.2638" lon="5.81993">
        <ele>701.8</ele>
        <time>2011-10-16T10:03:41Z</time>
      </trkpt>
      <trkpt lat="45.26384" lon="5.81997">
        <ele>702.5</ele>
        <time>2011-10-16T10:03:44Z</time>
      </trkpt>
      <trkpt lat="45.2639" lon="5.82">
        <ele>703.1</ele>
        <time>2011-10-16T10:03:48Z</time>
      </trkpt>
      <trkpt lat="45.26393" lon="5.82005">
        <ele>704.5</ele>
        <time>2011-10-16T10:03:51Z</time>
      </trkpt>
      <trkpt lat="45.26397" lon="5.82009">
        <ele>705.1</ele>
        <time>2011-10-16T10:03:54Z</time>
      </trkpt>
      <trkpt lat="45.26402" lon="5.82014">
        <ele>705.5</ele>
        <time>2011-10-16T10:03:57Z</time>
      </trkpt>
      <trkpt lat="45.26407" lon="5.82018">
        <ele>705.8</ele>
        <time>2011-10-16T10:04:00Z</time>
      </trkpt>
      <trkpt lat="45.26412" lon="5.82019">
        <ele>706.4</ele>
        <time>2011-10-16T10:04:03Z</time>
      </trkpt>
      <trkpt lat="45.26417" lon="5.8202">
        <ele>707.5</ele>
        <time>2011-10-16T10:04:07Z</time>
      </trkpt>
      <trkpt lat="45.26421" lon="5.82015">
        <ele>704.9</ele>
        <time>2011-10-16T10:04:16Z</time>
      </trkpt>
      <trkpt lat="45.26421" lon="5.82007">
        <ele>703.3</ele>
        <time>2011-10-16T10:04:20Z</time>
      </trkpt>
      <trkpt lat="45.26422" lon="5.82">
        <ele>702.9</ele>
        <time>2011-10-16T10:04:25Z</time>
      </trkpt>
      <trkpt lat="45.26424" lon="5.81993">
        <ele>702.7</ele>
        <time>2011-10-16T10:04:30Z</time>
      </trkpt>
      <trkpt lat="45.26423" lon="5.81986">
        <ele>702.5</ele>
        <time>2011-10-16T10:04:34Z</time>
      </trkpt>
      <trkpt lat="45.26422" lon="5.81979">
        <ele>702.2</ele>
        <time>2011-10-16T10:04:38Z</time>
      </trkpt>
      <trkpt lat="45.26418" lon="5.81975">
        <ele>702</ele>
        <time>2011-10-16T10:04:42Z</time>
      </trkpt>
      <trkpt lat="45.26413" lon="5.81972">
        <ele>701.1</ele>
        <time>2011-10-16T10:04:45Z</time>
      </trkpt>
      <trkpt lat="45.26409" lon="5.8197">
        <ele>700.2</ele>
        <time>2011-10-16T10:04:50Z</time>
      </trkpt>
      <trkpt lat="45.26405" lon="5.81966">
        <ele>700.6</ele>
        <time>2011-10-16T10:04:54Z</time>
      </trkpt>
      <trkpt lat="45.26399" lon="5.81965">
        <ele>702.9</ele>
        <time>2011-10-16T10:05:00Z</time>
      </trkpt>
      <trkpt lat="45.26394" lon="5.81963">
        <ele>703.8</ele>
        <time>2011-10-16T10:05:04Z</time>
      </trkpt>
      <trkpt lat="45.26389" lon="5.81961">
        <ele>705</ele>
        <time>2011-10-16T10:05:08Z</time>
      </trkpt>
      <trkpt lat="45.26385" lon="5.81959">
        <ele>706.3</ele>
        <time>2011-10-16T10:05:13Z</time>
      </trkpt>
      <trkpt lat="45.2638" lon="5.81956">
        <ele>707.6</ele>
        <time>2011-10-16T10:05:19Z</time>
      </trkpt>
      <trkpt lat="45.26376" lon="5.81954">
        <ele>709.6</ele>
        <time>2011-10-16T10:05:24Z</time>
      </trkpt>
      <trkpt lat="45.26371" lon="5.81955">
        <ele>711.2</ele>
        <time>2011-10-16T10:05:29Z</time>
      </trkpt>
      <trkpt lat="45.26366" lon="5.81954">
        <ele>711.2</ele>
        <time>2011-10-16T10:05:33Z</time>
      </trkpt>
      <trkpt lat="45.26361" lon="5.81954">
        <ele>711.8</ele>
        <time>2011-10-16T10:05:37Z</time>
      </trkpt>
      <trkpt lat="45.26356" lon="5.81954">
        <ele>712.5</ele>
        <time>2011-10-16T10:05:43Z</time>
      </trkpt>
      <trkpt lat="45.26351" lon="5.81952">
        <ele>712.1</ele>
        <time>2011-10-16T10:05:54Z</time>
      </trkpt>
      <trkpt lat="45.26353" lon="5.81946">
        <ele>714.6</ele>
        <time>2011-10-16T10:06:07Z</time>
      </trkpt>
      <trkpt lat="45.26357" lon="5.81941">
        <ele>715.3</ele>
        <time>2011-10-16T10:06:13Z</time>
      </trkpt>
      <trkpt lat="45.26361" lon="5.81939">
        <ele>717.2</ele>
        <time>2011-10-16T10:06:19Z</time>
      </trkpt>
      <trkpt lat="45.26367" lon="5.81939">
        <ele>718.1</ele>
        <time>2011-10-16T10:06:23Z</time>
      </trkpt>
      <trkpt lat="45.26372" lon="5.81935">
        <ele>718.1</ele>
        <time>2011-10-16T10:06:27Z</time>
      </trkpt>
      <trkpt lat="45.26376" lon="5.81931">
        <ele>718.9</ele>
        <time>2011-10-16T10:06:31Z</time>
      </trkpt>
      <trkpt lat="45.2638" lon="5.81926">
        <ele>719.9</ele>
        <time>2011-10-16T10:06:36Z</time>
      </trkpt>
      <trkpt lat="45.26384" lon="5.81924">
        <ele>720.9</ele>
        <time>2011-10-16T10:06:41Z</time>
      </trkpt>
      <trkpt lat="45.26389" lon="5.81924">
        <ele>722</ele>
        <time>2011-10-16T10:06:46Z</time>
      </trkpt>
      <trkpt lat="45.26394" lon="5.81925">
        <ele>723.7</ele>
        <time>2011-10-16T10:06:51Z</time>
      </trkpt>
      <trkpt lat="45.26398" lon="5.81922">
        <ele>726.3</ele>
        <time>2011-10-16T10:06:58Z</time>
      </trkpt>
      <trkpt lat="45.26396" lon="5.81916">
        <ele>725.9</ele>
        <time>2011-10-16T10:07:04Z</time>
      </trkpt>
      <trkpt lat="45.26393" lon="5.8191">
        <ele>724.5</ele>
        <time>2011-10-16T10:07:09Z</time>
      </trkpt>
      <trkpt lat="45.26392" lon="5.81904">
        <ele>724</ele>
        <time>2011-10-16T10:07:15Z</time>
      </trkpt>
      <trkpt lat="45.26388" lon="5.81897">
        <ele>724.1</ele>
        <time>2011-10-16T10:07:21Z</time>
      </trkpt>
      <trkpt lat="45.26385" lon="5.81891">
        <ele>724</ele>
        <time>2011-10-16T10:07:25Z</time>
      </trkpt>
      <trkpt lat="45.26381" lon="5.81887">
        <ele>725.4</ele>
        <time>2011-10-16T10:07:29Z</time>
      </trkpt>
      <trkpt lat="45.26376" lon="5.81882">
        <ele>726.6</ele>
        <time>2011-10-16T10:07:34Z</time>
      </trkpt>
      <trkpt lat="45.26372" lon="5.8188">
        <ele>728.1</ele>
        <time>2011-10-16T10:07:38Z</time>
      </trkpt>
      <trkpt lat="45.26367" lon="5.81878">
        <ele>730.1</ele>
        <time>2011-10-16T10:07:44Z</time>
      </trkpt>
      <trkpt lat="45.26362" lon="5.81877">
        <ele>732.7</ele>
        <time>2011-10-16T10:07:50Z</time>
      </trkpt>
      <trkpt lat="45.26358" lon="5.81874">
        <ele>734.7</ele>
        <time>2011-10-16T10:07:59Z</time>
      </trkpt>
      <trkpt lat="45.26356" lon="5.81885">
        <ele>744.6</ele>
        <time>2011-10-16T10:08:49Z</time>
      </trkpt>
      <trkpt lat="45.26359" lon="5.81879">
        <ele>745.1</ele>
        <time>2011-10-16T10:08:58Z</time>
      </trkpt>
      <trkpt lat="45.26363" lon="5.81874">
        <ele>745.7</ele>
        <time>2011-10-16T10:09:03Z</time>
      </trkpt>
      <trkpt lat="45.26366" lon="5.81868">
        <ele>748.4</ele>
        <time>2011-10-16T10:09:35Z</time>
      </trkpt>
      <trkpt lat="45.2637" lon="5.81864">
        <ele>748.7</ele>
        <time>2011-10-16T10:09:40Z</time>
      </trkpt>
      <trkpt lat="45.26375" lon="5.81862">
        <ele>749.6</ele>
        <time>2011-10-16T10:09:44Z</time>
      </trkpt>
      <trkpt lat="45.2638" lon="5.81861">
        <ele>750.4</ele>
        <time>2011-10-16T10:09:48Z</time>
      </trkpt>
      <trkpt lat="45.26385" lon="5.81863">
        <ele>751</ele>
        <time>2011-10-16T10:09:54Z</time>
      </trkpt>
      <trkpt lat="45.26389" lon="5.81866">
        <ele>752.6</ele>
        <time>2011-10-16T10:09:59Z</time>
      </trkpt>
      <trkpt lat="45.26393" lon="5.81869">
        <ele>753.5</ele>
        <time>2011-10-16T10:10:03Z</time>
      </trkpt>
      <trkpt lat="45.26397" lon="5.81872">
        <ele>754.5</ele>
        <time>2011-10-16T10:10:07Z</time>
      </trkpt>
      <trkpt lat="45.26402" lon="5.81873">
        <ele>753.5</ele>
        <time>2011-10-16T10:10:14Z</time>
      </trkpt>
      <trkpt lat="45.26402" lon="5.81865">
        <ele>748.8</ele>
        <time>2011-10-16T10:10:48Z</time>
      </trkpt>
      <trkpt lat="45.264" lon="5.81858">
        <ele>748.5</ele>
        <time>2011-10-16T10:10:53Z</time>
      </trkpt>
      <trkpt lat="45.26398" lon="5.81852">
        <ele>748.3</ele>
        <time>2011-10-16T10:10:56Z</time>
      </trkpt>
      <trkpt lat="45.26396" lon="5.81846">
        <ele>749</ele>
        <time>2011-10-16T10:11:00Z</time>
      </trkpt>
      <trkpt lat="45.26394" lon="5.81839">
        <ele>749.6</ele>
        <time>2011-10-16T10:11:05Z</time>
      </trkpt>
      <trkpt lat="45.2639" lon="5.81834">
        <ele>750.3</ele>
        <time>2011-10-16T10:11:10Z</time>
      </trkpt>
      <trkpt lat="45.26386" lon="5.81831">
        <ele>750.7</ele>
        <time>2011-10-16T10:11:15Z</time>
      </trkpt>
      <trkpt lat="45.26381" lon="5.81828">
        <ele>750.7</ele>
        <time>2011-10-16T10:11:19Z</time>
      </trkpt>
      <trkpt lat="45.26376" lon="5.81827">
        <ele>751.6</ele>
        <time>2011-10-16T10:11:24Z</time>
      </trkpt>
      <trkpt lat="45.2638" lon="5.81824">
        <ele>759.7</ele>
        <time>2011-10-16T10:12:12Z</time>
      </trkpt>
      <trkpt lat="45.26384" lon="5.81825">
        <ele>760.3</ele>
        <time>2011-10-16T10:12:18Z</time>
      </trkpt>
      <trkpt lat="45.26389" lon="5.81826">
        <ele>760.8</ele>
        <time>2011-10-16T10:12:30Z</time>
      </trkpt>
      <trkpt lat="45.26386" lon="5.81819">
        <ele>761.7</ele>
        <time>2011-10-16T10:13:00Z</time>
      </trkpt>
      <trkpt lat="45.26382" lon="5.81816">
        <ele>762.6</ele>
        <time>2011-10-16T10:13:08Z</time>
      </trkpt>
      <trkpt lat="45.26377" lon="5.81813">
        <ele>762.5</ele>
        <time>2011-10-16T10:13:12Z</time>
      </trkpt>
      <trkpt lat="45.26373" lon="5.81812">
        <ele>763.1</ele>
        <time>2011-10-16T10:13:17Z</time>
      </trkpt>
      <trkpt lat="45.26368" lon="5.81813">
        <ele>763.6</ele>
        <time>2011-10-16T10:13:22Z</time>
      </trkpt>
      <trkpt lat="45.26363" lon="5.81815">
        <ele>764</ele>
        <time>2011-10-16T10:13:27Z</time>
      </trkpt>
      <trkpt lat="45.26358" lon="5.81818">
        <ele>764.6</ele>
        <time>2011-10-16T10:13:31Z</time>
      </trkpt>
      <trkpt lat="45.26354" lon="5.81821">
        <ele>765.6</ele>
        <time>2011-10-16T10:13:36Z</time>
      </trkpt>
      <trkpt lat="45.26349" lon="5.81819">
        <ele>766.4</ele>
        <time>2011-10-16T10:13:42Z</time>
      </trkpt>
      <trkpt lat="45.26347" lon="5.81812">
        <ele>766.8</ele>
        <time>2011-10-16T10:13:47Z</time>
      </trkpt>
      <trkpt lat="45.26346" lon="5.81805">
        <ele>766.6</ele>
        <time>2011-10-16T10:13:51Z</time>
      </trkpt>
      <trkpt lat="45.26346" lon="5.81798">
        <ele>766.8</ele>
        <time>2011-10-16T10:13:56Z</time>
      </trkpt>
      <trkpt lat="45.26346" lon="5.81791">
        <ele>766.3</ele>
        <time>2011-10-16T10:14:00Z</time>
      </trkpt>
      <trkpt lat="45.26346" lon="5.81784">
        <ele>766.1</ele>
        <time>2011-10-16T10:14:04Z</time>
      </trkpt>
      <trkpt lat="45.26346" lon="5.81777">
        <ele>768</ele>
        <time>2011-10-16T10:14:09Z</time>
      </trkpt>
      <trkpt lat="45.26346" lon="5.8177">
        <ele>769.7</ele>
        <time>2011-10-16T10:14:14Z</time>
      </trkpt>
      <trkpt lat="45.26346" lon="5.81762">
        <ele>770.7</ele>
        <time>2011-10-16T10:14:20Z</time>
      </trkpt>
      <trkpt lat="45.26346" lon="5.81755">
        <ele>770.1</ele>
        <time>2011-10-16T10:14:24Z</time>
      </trkpt>
      <trkpt lat="45.26345" lon="5.81748">
        <ele>770.2</ele>
        <time>2011-10-16T10:14:29Z</time>
      </trkpt>
      <trkpt lat="45.26344" lon="5.81741">
        <ele>770.3</ele>
        <time>2011-10-16T10:14:40Z</time>
      </trkpt>
      <trkpt lat="45.26343" lon="5.81734">
        <ele>769.9</ele>
        <time>2011-10-16T10:14:46Z</time>
      </trkpt>
      <trkpt lat="45.26358" lon="5.81721">
        <ele>751.7</ele>
        <time>2011-10-16T10:15:07Z</time>
      </trkpt>
      <trkpt lat="45.26358" lon="5.81721">
        <ele>751.7</ele>
        <time>2011-10-16T10:15:07Z</time>
      </trkpt>
      <trkpt lat="45.26358" lon="5.81721">
        <ele>751.7</ele>
        <time>2011-10-16T10:15:26Z</time>
      </trkpt>
      <trkpt lat="45.26347" lon="5.81698">
        <ele>785.5</ele>
        <time>2011-10-16T10:15:27Z</time>
      </trkpt>
      <trkpt lat="45.26349" lon="5.81687">
        <ele>785.1</ele>
        <time>2011-10-16T10:15:33Z</time>
      </trkpt>
      <trkpt lat="45.26352" lon="5.81681">
        <ele>785.3</ele>
        <time>2011-10-16T10:15:38Z</time>
      </trkpt>
      <trkpt lat="45.26354" lon="5.81674">
        <ele>784.8</ele>
        <time>2011-10-16T10:15:43Z</time>
      </trkpt>
      <trkpt lat="45.26358" lon="5.8167">
        <ele>784.6</ele>
        <time>2011-10-16T10:15:47Z</time>
      </trkpt>
      <trkpt lat="45.26359" lon="5.81663">
        <ele>784.7</ele>
        <time>2011-10-16T10:15:52Z</time>
      </trkpt>
      <trkpt lat="45.26361" lon="5.81656">
        <ele>784.9</ele>
        <time>2011-10-16T10:15:56Z</time>
      </trkpt>
      <trkpt lat="45.26363" lon="5.81649">
        <ele>784.7</ele>
        <time>2011-10-16T10:16:00Z</time>
      </trkpt>
      <trkpt lat="45.26364" lon="5.81642">
        <ele>784.6</ele>
        <time>2011-10-16T10:16:04Z</time>
      </trkpt>
      <trkpt lat="45.26365" lon="5.81636">
        <ele>786.1</ele>
        <time>2011-10-16T10:16:08Z</time>
      </trkpt>
      <trkpt lat="45.26368" lon="5.8163">
        <ele>786.5</ele>
        <time>2011-10-16T10:16:12Z</time>
      </trkpt>
      <trkpt lat="45.2637" lon="5.81624">
        <ele>788.6</ele>
        <time>2011-10-16T10:16:32Z</time>
      </trkpt>
      <trkpt lat="45.26368" lon="5.81617">
        <ele>788.7</ele>
        <time>2011-10-16T10:16:37Z</time>
      </trkpt>
      <trkpt lat="45.26365" lon="5.81611">
        <ele>790.3</ele>
        <time>2011-10-16T10:16:44Z</time>
      </trkpt>
      <trkpt lat="45.26364" lon="5.81604">
        <ele>791.6</ele>
        <time>2011-10-16T10:17:07Z</time>
      </trkpt>
      <trkpt lat="45.26365" lon="5.81597">
        <ele>791.6</ele>
        <time>2011-10-16T10:17:11Z</time>
      </trkpt>
      <trkpt lat="45.26364" lon="5.8159">
        <ele>792.5</ele>
        <time>2011-10-16T10:17:15Z</time>
      </trkpt>
      <trkpt lat="45.26363" lon="5.81583">
        <ele>793.5</ele>
        <time>2011-10-16T10:17:19Z</time>
      </trkpt>
      <trkpt lat="45.26361" lon="5.81577">
        <ele>795</ele>
        <time>2011-10-16T10:17:31Z</time>
      </trkpt>
      <trkpt lat="45.26362" lon="5.8157">
        <ele>794.5</ele>
        <time>2011-10-16T10:17:34Z</time>
      </trkpt>
      <trkpt lat="45.26362" lon="5.81563">
        <ele>794.5</ele>
        <time>2011-10-16T10:17:36Z</time>
      </trkpt>
      <trkpt lat="45.26363" lon="5.81555">
        <ele>794.3</ele>
        <time>2011-10-16T10:17:39Z</time>
      </trkpt>
      <trkpt lat="45.26363" lon="5.81549">
        <ele>794.2</ele>
        <time>2011-10-16T10:17:42Z</time>
      </trkpt>
      <trkpt lat="45.26363" lon="5.81541">
        <ele>794.3</ele>
        <time>2011-10-16T10:17:46Z</time>
      </trkpt>
      <trkpt lat="45.26367" lon="5.81537">
        <ele>795</ele>
        <time>2011-10-16T10:17:50Z</time>
      </trkpt>
      <trkpt lat="45.26371" lon="5.8153">
        <ele>796.6</ele>
        <time>2011-10-16T10:17:55Z</time>
      </trkpt>
      <trkpt lat="45.26376" lon="5.81526">
        <ele>797.1</ele>
        <time>2011-10-16T10:18:01Z</time>
      </trkpt>
      <trkpt lat="45.2638" lon="5.81524">
        <ele>797.2</ele>
        <time>2011-10-16T10:18:06Z</time>
      </trkpt>
      <trkpt lat="45.26385" lon="5.81521">
        <ele>796.4</ele>
        <time>2011-10-16T10:18:34Z</time>
      </trkpt>
      <trkpt lat="45.2639" lon="5.81518">
        <ele>797.2</ele>
        <time>2011-10-16T10:18:39Z</time>
      </trkpt>
      <trkpt lat="45.26391" lon="5.81511">
        <ele>797.6</ele>
        <time>2011-10-16T10:18:44Z</time>
      </trkpt>
      <trkpt lat="45.26393" lon="5.81504">
        <ele>797.5</ele>
        <time>2011-10-16T10:18:48Z</time>
      </trkpt>
      <trkpt lat="45.26397" lon="5.81501">
        <ele>797.3</ele>
        <time>2011-10-16T10:18:54Z</time>
      </trkpt>
      <trkpt lat="45.26398" lon="5.81493">
        <ele>797.1</ele>
        <time>2011-10-16T10:19:01Z</time>
      </trkpt>
      <trkpt lat="45.26402" lon="5.81489">
        <ele>797.9</ele>
        <time>2011-10-16T10:19:27Z</time>
      </trkpt>
      <trkpt lat="45.26407" lon="5.81484">
        <ele>798.3</ele>
        <time>2011-10-16T10:19:32Z</time>
      </trkpt>
      <trkpt lat="45.26407" lon="5.81478">
        <ele>799.3</ele>
        <time>2011-10-16T10:19:38Z</time>
      </trkpt>
      <trkpt lat="45.26407" lon="5.81478">
        <ele>799.3</ele>
        <time>2011-10-16T10:19:38Z</time>
      </trkpt>
      <trkpt lat="45.26407" lon="5.81478">
        <ele>799.3</ele>
        <time>2011-10-16T10:19:39Z</time>
      </trkpt>
      <trkpt lat="45.26402" lon="5.81473">
        <ele>800.5</ele>
        <time>2011-10-16T10:19:46Z</time>
      </trkpt>
      <trkpt lat="45.26398" lon="5.81468">
        <ele>801.1</ele>
        <time>2011-10-16T10:19:50Z</time>
      </trkpt>
      <trkpt lat="45.26395" lon="5.81462">
        <ele>801.8</ele>
        <time>2011-10-16T10:19:54Z</time>
      </trkpt>
      <trkpt lat="45.2639" lon="5.81456">
        <ele>805.6</ele>
        <time>2011-10-16T10:19:58Z</time>
      </trkpt>
      <trkpt lat="45.26388" lon="5.81449">
        <ele>807.7</ele>
        <time>2011-10-16T10:20:02Z</time>
      </trkpt>
      <trkpt lat="45.26387" lon="5.81443">
        <ele>808.8</ele>
        <time>2011-10-16T10:20:06Z</time>
      </trkpt>
      <trkpt lat="45.26384" lon="5.81437">
        <ele>811.3</ele>
        <time>2011-10-16T10:20:11Z</time>
      </trkpt>
      <trkpt lat="45.26381" lon="5.81432">
        <ele>812.7</ele>
        <time>2011-10-16T10:20:16Z</time>
      </trkpt>
      <trkpt lat="45.26381" lon="5.81432">
        <ele>812.7</ele>
        <time>2011-10-16T10:20:16Z</time>
      </trkpt>
      <trkpt lat="45.26381" lon="5.81432">
        <ele>812.7</ele>
        <time>2011-10-16T10:21:34Z</time>
      </trkpt>
      <trkpt lat="45.26386" lon="5.81431">
        <ele>824</ele>
        <time>2011-10-16T10:22:38Z</time>
      </trkpt>
      <trkpt lat="45.2639" lon="5.81433">
        <ele>825</ele>
        <time>2011-10-16T10:22:45Z</time>
      </trkpt>
      <trkpt lat="45.26394" lon="5.81436">
        <ele>825.4</ele>
        <time>2011-10-16T10:22:53Z</time>
      </trkpt>
      <trkpt lat="45.26398" lon="5.81433">
        <ele>832.2</ele>
        <time>2011-10-16T10:23:47Z</time>
      </trkpt>
      <trkpt lat="45.26402" lon="5.81436">
        <ele>836.8</ele>
        <time>2011-10-16T10:24:33Z</time>
      </trkpt>
      <trkpt lat="45.26407" lon="5.81437">
        <ele>838.1</ele>
        <time>2011-10-16T10:24:39Z</time>
      </trkpt>
      <trkpt lat="45.26412" lon="5.81438">
        <ele>840.4</ele>
        <time>2011-10-16T10:24:49Z</time>
      </trkpt>
      <trkpt lat="45.26414" lon="5.81432">
        <ele>844.7</ele>
        <time>2011-10-16T10:25:07Z</time>
      </trkpt>
      <trkpt lat="45.26419" lon="5.81431">
        <ele>846.1</ele>
        <time>2011-10-16T10:25:16Z</time>
      </trkpt>
      <trkpt lat="45.26424" lon="5.81429">
        <ele>850.7</ele>
        <time>2011-10-16T10:25:42Z</time>
      </trkpt>
      <trkpt lat="45.26428" lon="5.81428">
        <ele>854</ele>
        <time>2011-10-16T10:25:53Z</time>
      </trkpt>
      <trkpt lat="45.26433" lon="5.81426">
        <ele>855.6</ele>
        <time>2011-10-16T10:26:00Z</time>
      </trkpt>
      <trkpt lat="45.26437" lon="5.81429">
        <ele>858.4</ele>
        <time>2011-10-16T10:26:17Z</time>
      </trkpt>
      <trkpt lat="45.26443" lon="5.8143">
        <ele>859.9</ele>
        <time>2011-10-16T10:26:23Z</time>
      </trkpt>
      <trkpt lat="45.26448" lon="5.8143">
        <ele>862.1</ele>
        <time>2011-10-16T10:26:35Z</time>
      </trkpt>
      <trkpt lat="45.26453" lon="5.81433">
        <ele>863.2</ele>
        <time>2011-10-16T10:26:48Z</time>
      </trkpt>
      <trkpt lat="45.26457" lon="5.81433">
        <ele>864.1</ele>
        <time>2011-10-16T10:26:56Z</time>
      </trkpt>
      <trkpt lat="45.26462" lon="5.81434">
        <ele>865</ele>
        <time>2011-10-16T10:27:02Z</time>
      </trkpt>
      <trkpt lat="45.26466" lon="5.81434">
        <ele>865.8</ele>
        <time>2011-10-16T10:27:19Z</time>
      </trkpt>
      <trkpt lat="45.26471" lon="5.81436">
        <ele>869.3</ele>
        <time>2011-10-16T10:27:37Z</time>
      </trkpt>
      <trkpt lat="45.26476" lon="5.81437">
        <ele>870.1</ele>
        <time>2011-10-16T10:27:42Z</time>
      </trkpt>
      <trkpt lat="45.26481" lon="5.81432">
        <ele>884.3</ele>
        <time>2011-10-16T10:31:23Z</time>
      </trkpt>
      <trkpt lat="45.26484" lon="5.81426">
        <ele>883.9</ele>
        <time>2011-10-16T10:31:25Z</time>
      </trkpt>
      <trkpt lat="45.26487" lon="5.81422">
        <ele>883.7</ele>
        <time>2011-10-16T10:31:27Z</time>
      </trkpt>
      <trkpt lat="45.26491" lon="5.81417">
        <ele>883.5</ele>
        <time>2011-10-16T10:31:29Z</time>
      </trkpt>
      <trkpt lat="45.26496" lon="5.81412">
        <ele>883.3</ele>
        <time>2011-10-16T10:31:31Z</time>
      </trkpt>
      <trkpt lat="45.265" lon="5.81408">
        <ele>883.3</ele>
        <time>2011-10-16T10:31:33Z</time>
      </trkpt>
      <trkpt lat="45.26503" lon="5.81402">
        <ele>883.1</ele>
        <time>2011-10-16T10:31:36Z</time>
      </trkpt>
      <trkpt lat="45.26508" lon="5.81397">
        <ele>881.8</ele>
        <time>2011-10-16T10:31:51Z</time>
      </trkpt>
      <trkpt lat="45.26512" lon="5.81392">
        <ele>880.6</ele>
        <time>2011-10-16T10:31:59Z</time>
      </trkpt>
      <trkpt lat="45.26511" lon="5.81385">
        <ele>879.9</ele>
        <time>2011-10-16T10:32:06Z</time>
      </trkpt>
      <trkpt lat="45.2651" lon="5.81378">
        <ele>878.5</ele>
        <time>2011-10-16T10:32:11Z</time>
      </trkpt>
      <trkpt lat="45.26509" lon="5.81371">
        <ele>877.8</ele>
        <time>2011-10-16T10:32:15Z</time>
      </trkpt>
      <trkpt lat="45.26508" lon="5.81363">
        <ele>877.1</ele>
        <time>2011-10-16T10:32:18Z</time>
      </trkpt>
      <trkpt lat="45.26503" lon="5.81362">
        <ele>874.3</ele>
        <time>2011-10-16T10:32:23Z</time>
      </trkpt>
      <trkpt lat="45.26499" lon="5.81359">
        <ele>872.4</ele>
        <time>2011-10-16T10:32:30Z</time>
      </trkpt>
      <trkpt lat="45.26494" lon="5.81358">
        <ele>870.8</ele>
        <time>2011-10-16T10:32:33Z</time>
      </trkpt>
      <trkpt lat="45.26496" lon="5.81352">
        <ele>864.9</ele>
        <time>2011-10-16T10:32:58Z</time>
      </trkpt>
      <trkpt lat="45.265" lon="5.81349">
        <ele>864.3</ele>
        <time>2011-10-16T10:33:07Z</time>
      </trkpt>
      <trkpt lat="45.26496" lon="5.81345">
        <ele>862.4</ele>
        <time>2011-10-16T10:33:21Z</time>
      </trkpt>
      <trkpt lat="45.2649" lon="5.81344">
        <ele>859.9</ele>
        <time>2011-10-16T10:33:33Z</time>
      </trkpt>
      <trkpt lat="45.26486" lon="5.81341">
        <ele>858.6</ele>
        <time>2011-10-16T10:33:35Z</time>
      </trkpt>
      <trkpt lat="45.26482" lon="5.81335">
        <ele>857.4</ele>
        <time>2011-10-16T10:33:37Z</time>
      </trkpt>
      <trkpt lat="45.26479" lon="5.81329">
        <ele>856</ele>
        <time>2011-10-16T10:33:39Z</time>
      </trkpt>
      <trkpt lat="45.26475" lon="5.8133">
        <ele>854.5</ele>
        <time>2011-10-16T10:33:42Z</time>
      </trkpt>
      <trkpt lat="45.26472" lon="5.81337">
        <ele>854.1</ele>
        <time>2011-10-16T10:33:44Z</time>
      </trkpt>
      <trkpt lat="45.26468" lon="5.81342">
        <ele>853.4</ele>
        <time>2011-10-16T10:33:47Z</time>
      </trkpt>
      <trkpt lat="45.26462" lon="5.81339">
        <ele>852.2</ele>
        <time>2011-10-16T10:33:50Z</time>
      </trkpt>
      <trkpt lat="45.26458" lon="5.81343">
        <ele>850.8</ele>
        <time>2011-10-16T10:33:53Z</time>
      </trkpt>
      <trkpt lat="45.26454" lon="5.8135">
        <ele>848.7</ele>
        <time>2011-10-16T10:33:56Z</time>
      </trkpt>
      <trkpt lat="45.2645" lon="5.81346">
        <ele>847.2</ele>
        <time>2011-10-16T10:33:59Z</time>
      </trkpt>
      <trkpt lat="45.26446" lon="5.81341">
        <ele>846.8</ele>
        <time>2011-10-16T10:34:01Z</time>
      </trkpt>
      <trkpt lat="45.26441" lon="5.81335">
        <ele>846.7</ele>
        <time>2011-10-16T10:34:03Z</time>
      </trkpt>
      <trkpt lat="45.26436" lon="5.8133">
        <ele>846.6</ele>
        <time>2011-10-16T10:34:05Z</time>
      </trkpt>
      <trkpt lat="45.26432" lon="5.81326">
        <ele>846.8</ele>
        <time>2011-10-16T10:34:07Z</time>
      </trkpt>
      <trkpt lat="45.26428" lon="5.81323">
        <ele>846.4</ele>
        <time>2011-10-16T10:34:10Z</time>
      </trkpt>
      <trkpt lat="45.26425" lon="5.8133">
        <ele>844.9</ele>
        <time>2011-10-16T10:34:14Z</time>
      </trkpt>
      <trkpt lat="45.26421" lon="5.81335">
        <ele>843.5</ele>
        <time>2011-10-16T10:34:16Z</time>
      </trkpt>
      <trkpt lat="45.26416" lon="5.81331">
        <ele>841.1</ele>
        <time>2011-10-16T10:34:20Z</time>
      </trkpt>
      <trkpt lat="45.2641" lon="5.81336">
        <ele>837.1</ele>
        <time>2011-10-16T10:34:27Z</time>
      </trkpt>
      <trkpt lat="45.26406" lon="5.81339">
        <ele>835.9</ele>
        <time>2011-10-16T10:34:31Z</time>
      </trkpt>
      <trkpt lat="45.26405" lon="5.81331">
        <ele>835.4</ele>
        <time>2011-10-16T10:34:34Z</time>
      </trkpt>
      <trkpt lat="45.26405" lon="5.81322">
        <ele>834.9</ele>
        <time>2011-10-16T10:34:36Z</time>
      </trkpt>
      <trkpt lat="45.26405" lon="5.81313">
        <ele>834.3</ele>
        <time>2011-10-16T10:34:38Z</time>
      </trkpt>
      <trkpt lat="45.26404" lon="5.81305">
        <ele>833.7</ele>
        <time>2011-10-16T10:34:40Z</time>
      </trkpt>
      <trkpt lat="45.26402" lon="5.81297">
        <ele>832.8</ele>
        <time>2011-10-16T10:34:44Z</time>
      </trkpt>
      <trkpt lat="45.26398" lon="5.81302">
        <ele>830.6</ele>
        <time>2011-10-16T10:34:50Z</time>
      </trkpt>
      <trkpt lat="45.26394" lon="5.81307">
        <ele>830.4</ele>
        <time>2011-10-16T10:34:52Z</time>
      </trkpt>
      <trkpt lat="45.26391" lon="5.81312">
        <ele>829.6</ele>
        <time>2011-10-16T10:34:55Z</time>
      </trkpt>
      <trkpt lat="45.26387" lon="5.81305">
        <ele>824.8</ele>
        <time>2011-10-16T10:35:07Z</time>
      </trkpt>
      <trkpt lat="45.26385" lon="5.81298">
        <ele>824.4</ele>
        <time>2011-10-16T10:35:09Z</time>
      </trkpt>
      <trkpt lat="45.26382" lon="5.8129">
        <ele>823.6</ele>
        <time>2011-10-16T10:35:12Z</time>
      </trkpt>
      <trkpt lat="45.26378" lon="5.81294">
        <ele>822.3</ele>
        <time>2011-10-16T10:35:16Z</time>
      </trkpt>
      <trkpt lat="45.26376" lon="5.81304">
        <ele>821.1</ele>
        <time>2011-10-16T10:35:18Z</time>
      </trkpt>
      <trkpt lat="45.26376" lon="5.81315">
        <ele>820.8</ele>
        <time>2011-10-16T10:35:20Z</time>
      </trkpt>
      <trkpt lat="45.26376" lon="5.81322">
        <ele>820.5</ele>
        <time>2011-10-16T10:35:22Z</time>
      </trkpt>
      <trkpt lat="45.2637" lon="5.81321">
        <ele>815.3</ele>
        <time>2011-10-16T10:35:36Z</time>
      </trkpt>
      <trkpt lat="45.26367" lon="5.81317">
        <ele>814.4</ele>
        <time>2011-10-16T10:35:39Z</time>
      </trkpt>
      <trkpt lat="45.26365" lon="5.8131">
        <ele>811.5</ele>
        <time>2011-10-16T10:35:46Z</time>
      </trkpt>
      <trkpt lat="45.26365" lon="5.8131">
        <ele>811.5</ele>
        <time>2011-10-16T10:35:46Z</time>
      </trkpt>
      <trkpt lat="45.26365" lon="5.8131">
        <ele>811.5</ele>
        <time>2011-10-16T10:35:54Z</time>
      </trkpt>
      <trkpt lat="45.26361" lon="5.81318">
        <ele>806.2</ele>
        <time>2011-10-16T10:36:09Z</time>
      </trkpt>
      <trkpt lat="45.26362" lon="5.81325">
        <ele>805.4</ele>
        <time>2011-10-16T10:36:11Z</time>
      </trkpt>
      <trkpt lat="45.26361" lon="5.81332">
        <ele>802.4</ele>
        <time>2011-10-16T10:36:14Z</time>
      </trkpt>
      <trkpt lat="45.26356" lon="5.8133">
        <ele>801.2</ele>
        <time>2011-10-16T10:36:17Z</time>
      </trkpt>
      <trkpt lat="45.26352" lon="5.81325">
        <ele>800.7</ele>
        <time>2011-10-16T10:36:19Z</time>
      </trkpt>
      <trkpt lat="45.26347" lon="5.81326">
        <ele>799.6</ele>
        <time>2011-10-16T10:36:22Z</time>
      </trkpt>
      <trkpt lat="45.26349" lon="5.81332">
        <ele>799.1</ele>
        <time>2011-10-16T10:36:27Z</time>
      </trkpt>
      <trkpt lat="45.2635" lon="5.81339">
        <ele>797.9</ele>
        <time>2011-10-16T10:36:54Z</time>
      </trkpt>
      <trkpt lat="45.26344" lon="5.81337">
        <ele>796.6</ele>
        <time>2011-10-16T10:37:21Z</time>
      </trkpt>
      <trkpt lat="45.26346" lon="5.81344">
        <ele>789.2</ele>
        <time>2011-10-16T10:37:35Z</time>
      </trkpt>
      <trkpt lat="45.26339" lon="5.81345">
        <ele>787.4</ele>
        <time>2011-10-16T10:37:44Z</time>
      </trkpt>
      <trkpt lat="45.26335" lon="5.81345">
        <ele>787.2</ele>
        <time>2011-10-16T10:37:46Z</time>
      </trkpt>
      <trkpt lat="45.26329" lon="5.81343">
        <ele>786.9</ele>
        <time>2011-10-16T10:37:49Z</time>
      </trkpt>
      <trkpt lat="45.26324" lon="5.81343">
        <ele>786.1</ele>
        <time>2011-10-16T10:37:52Z</time>
      </trkpt>
      <trkpt lat="45.26321" lon="5.81348">
        <ele>782.7</ele>
        <time>2011-10-16T10:37:59Z</time>
      </trkpt>
      <trkpt lat="45.26316" lon="5.81345">
        <ele>779</ele>
        <time>2011-10-16T10:38:04Z</time>
      </trkpt>
      <trkpt lat="45.26318" lon="5.81351">
        <ele>771.7</ele>
        <time>2011-10-16T10:38:10Z</time>
      </trkpt>
      <trkpt lat="45.26314" lon="5.81347">
        <ele>767.1</ele>
        <time>2011-10-16T10:38:25Z</time>
      </trkpt>
      <trkpt lat="45.26315" lon="5.81354">
        <ele>763.3</ele>
        <time>2011-10-16T10:39:13Z</time>
      </trkpt>
      <trkpt lat="45.26316" lon="5.81362">
        <ele>762.6</ele>
        <time>2011-10-16T10:39:16Z</time>
      </trkpt>
      <trkpt lat="45.26311" lon="5.81358">
        <ele>761.5</ele>
        <time>2011-10-16T10:39:47Z</time>
      </trkpt>
      <trkpt lat="45.26307" lon="5.81354">
        <ele>760.7</ele>
        <time>2011-10-16T10:39:49Z</time>
      </trkpt>
      <trkpt lat="45.26305" lon="5.81347">
        <ele>759.4</ele>
        <time>2011-10-16T10:39:51Z</time>
      </trkpt>
      <trkpt lat="45.26302" lon="5.8134">
        <ele>758.6</ele>
        <time>2011-10-16T10:39:54Z</time>
      </trkpt>
      <trkpt lat="45.263" lon="5.81349">
        <ele>754.6</ele>
        <time>2011-10-16T10:40:04Z</time>
      </trkpt>
      <trkpt lat="45.26301" lon="5.81356">
        <ele>753.5</ele>
        <time>2011-10-16T10:40:06Z</time>
      </trkpt>
      <trkpt lat="45.26297" lon="5.81361">
        <ele>753.4</ele>
        <time>2011-10-16T10:40:08Z</time>
      </trkpt>
      <trkpt lat="45.26293" lon="5.81358">
        <ele>751.7</ele>
        <time>2011-10-16T10:40:12Z</time>
      </trkpt>
      <trkpt lat="45.2629" lon="5.81362">
        <ele>750</ele>
        <time>2011-10-16T10:40:21Z</time>
      </trkpt>
      <trkpt lat="45.26286" lon="5.81358">
        <ele>749.7</ele>
        <time>2011-10-16T10:40:24Z</time>
      </trkpt>
      <trkpt lat="45.26283" lon="5.81362">
        <ele>747.6</ele>
        <time>2011-10-16T10:40:35Z</time>
      </trkpt>
      <trkpt lat="45.26283" lon="5.81369">
        <ele>744.2</ele>
        <time>2011-10-16T10:40:56Z</time>
      </trkpt>
      <trkpt lat="45.26279" lon="5.81372">
        <ele>743.8</ele>
        <time>2011-10-16T10:40:59Z</time>
      </trkpt>
      <trkpt lat="45.26274" lon="5.81371">
        <ele>743.2</ele>
        <time>2011-10-16T10:41:02Z</time>
      </trkpt>
      <trkpt lat="45.26274" lon="5.81378">
        <ele>742.7</ele>
        <time>2011-10-16T10:41:07Z</time>
      </trkpt>
      <trkpt lat="45.26274" lon="5.81385">
        <ele>741.8</ele>
        <time>2011-10-16T10:41:12Z</time>
      </trkpt>
      <trkpt lat="45.26271" lon="5.81389">
        <ele>740</ele>
        <time>2011-10-16T10:41:30Z</time>
      </trkpt>
      <trkpt lat="45.26265" lon="5.81385">
        <ele>738.8</ele>
        <time>2011-10-16T10:41:35Z</time>
      </trkpt>
      <trkpt lat="45.26262" lon="5.8138">
        <ele>737.5</ele>
        <time>2011-10-16T10:41:39Z</time>
      </trkpt>
      <trkpt lat="45.26259" lon="5.81387">
        <ele>736.2</ele>
        <time>2011-10-16T10:41:44Z</time>
      </trkpt>
      <trkpt lat="45.26258" lon="5.81394">
        <ele>734.9</ele>
        <time>2011-10-16T10:41:47Z</time>
      </trkpt>
      <trkpt lat="45.2626" lon="5.81403">
        <ele>727.4</ele>
        <time>2011-10-16T10:42:05Z</time>
      </trkpt>
      <trkpt lat="45.26264" lon="5.81409">
        <ele>728</ele>
        <time>2011-10-16T10:42:15Z</time>
      </trkpt>
      <trkpt lat="45.26264" lon="5.81416">
        <ele>727.9</ele>
        <time>2011-10-16T10:42:23Z</time>
      </trkpt>
      <trkpt lat="45.26262" lon="5.81423">
        <ele>727.6</ele>
        <time>2011-10-16T10:42:30Z</time>
      </trkpt>
      <trkpt lat="45.26258" lon="5.81428">
        <ele>726.6</ele>
        <time>2011-10-16T10:42:36Z</time>
      </trkpt>
      <trkpt lat="45.26255" lon="5.81432">
        <ele>726.2</ele>
        <time>2011-10-16T10:42:41Z</time>
      </trkpt>
      <trkpt lat="45.2625" lon="5.81436">
        <ele>725.8</ele>
        <time>2011-10-16T10:42:43Z</time>
      </trkpt>
      <trkpt lat="45.26241" lon="5.8144">
        <ele>725.5</ele>
        <time>2011-10-16T10:42:45Z</time>
      </trkpt>
      <trkpt lat="45.26236" lon="5.81442">
        <ele>725.4</ele>
        <time>2011-10-16T10:42:46Z</time>
      </trkpt>
      <trkpt lat="45.26227" lon="5.81446">
        <ele>724.9</ele>
        <time>2011-10-16T10:42:48Z</time>
      </trkpt>
      <trkpt lat="45.26223" lon="5.81448">
        <ele>724.7</ele>
        <time>2011-10-16T10:42:49Z</time>
      </trkpt>
      <trkpt lat="45.26218" lon="5.81449">
        <ele>724.4</ele>
        <time>2011-10-16T10:42:50Z</time>
      </trkpt>
      <trkpt lat="45.26213" lon="5.81452">
        <ele>723.7</ele>
        <time>2011-10-16T10:42:51Z</time>
      </trkpt>
      <trkpt lat="45.26204" lon="5.81457">
        <ele>722.4</ele>
        <time>2011-10-16T10:42:53Z</time>
      </trkpt>
      <trkpt lat="45.262" lon="5.81459">
        <ele>721.3</ele>
        <time>2011-10-16T10:42:54Z</time>
      </trkpt>
      <trkpt lat="45.26193" lon="5.81464">
        <ele>719.4</ele>
        <time>2011-10-16T10:42:56Z</time>
      </trkpt>
      <trkpt lat="45.26187" lon="5.81468">
        <ele>717.8</ele>
        <time>2011-10-16T10:42:58Z</time>
      </trkpt>
      <trkpt lat="45.26181" lon="5.81474">
        <ele>715.9</ele>
        <time>2011-10-16T10:43:00Z</time>
      </trkpt>
      <trkpt lat="45.26175" lon="5.81479">
        <ele>715.1</ele>
        <time>2011-10-16T10:43:02Z</time>
      </trkpt>
      <trkpt lat="45.2617" lon="5.81484">
        <ele>713.7</ele>
        <time>2011-10-16T10:43:04Z</time>
      </trkpt>
      <trkpt lat="45.26164" lon="5.81486">
        <ele>711.7</ele>
        <time>2011-10-16T10:43:07Z</time>
      </trkpt>
      <trkpt lat="45.26159" lon="5.81491">
        <ele>706.1</ele>
        <time>2011-10-16T10:43:20Z</time>
      </trkpt>
      <trkpt lat="45.26155" lon="5.81496">
        <ele>705.5</ele>
        <time>2011-10-16T10:43:22Z</time>
      </trkpt>
      <trkpt lat="45.26151" lon="5.81499">
        <ele>704.8</ele>
        <time>2011-10-16T10:43:24Z</time>
      </trkpt>
      <trkpt lat="45.26145" lon="5.81504">
        <ele>703.9</ele>
        <time>2011-10-16T10:43:27Z</time>
      </trkpt>
      <trkpt lat="45.26141" lon="5.81507">
        <ele>703.4</ele>
        <time>2011-10-16T10:43:29Z</time>
      </trkpt>
      <trkpt lat="45.26136" lon="5.81508">
        <ele>701.9</ele>
        <time>2011-10-16T10:43:32Z</time>
      </trkpt>
      <trkpt lat="45.26132" lon="5.81512">
        <ele>700.3</ele>
        <time>2011-10-16T10:43:35Z</time>
      </trkpt>
      <trkpt lat="45.26128" lon="5.81517">
        <ele>698.9</ele>
        <time>2011-10-16T10:43:37Z</time>
      </trkpt>
      <trkpt lat="45.26124" lon="5.8152">
        <ele>697.9</ele>
        <time>2011-10-16T10:43:39Z</time>
      </trkpt>
      <trkpt lat="45.26119" lon="5.81524">
        <ele>688.5</ele>
        <time>2011-10-16T10:44:17Z</time>
      </trkpt>
      <trkpt lat="45.26115" lon="5.8153">
        <ele>687.6</ele>
        <time>2011-10-16T10:44:19Z</time>
      </trkpt>
      <trkpt lat="45.26112" lon="5.81536">
        <ele>687</ele>
        <time>2011-10-16T10:44:21Z</time>
      </trkpt>
      <trkpt lat="45.26107" lon="5.8154">
        <ele>686.1</ele>
        <time>2011-10-16T10:44:25Z</time>
      </trkpt>
      <trkpt lat="45.26112" lon="5.81542">
        <ele>679.3</ele>
        <time>2011-10-16T10:44:56Z</time>
      </trkpt>
      <trkpt lat="45.26116" lon="5.81545">
        <ele>678.5</ele>
        <time>2011-10-16T10:45:01Z</time>
      </trkpt>
      <trkpt lat="45.26119" lon="5.8155">
        <ele>677.7</ele>
        <time>2011-10-16T10:45:05Z</time>
      </trkpt>
      <trkpt lat="45.26117" lon="5.81544">
        <ele>675</ele>
        <time>2011-10-16T10:45:13Z</time>
      </trkpt>
      <trkpt lat="45.26112" lon="5.81543">
        <ele>674.2</ele>
        <time>2011-10-16T10:45:17Z</time>
      </trkpt>
      <trkpt lat="45.26109" lon="5.81548">
        <ele>673.1</ele>
        <time>2011-10-16T10:45:27Z</time>
      </trkpt>
      <trkpt lat="45.26104" lon="5.81556">
        <ele>672.8</ele>
        <time>2011-10-16T10:45:29Z</time>
      </trkpt>
      <trkpt lat="45.26099" lon="5.8156">
        <ele>672.3</ele>
        <time>2011-10-16T10:45:31Z</time>
      </trkpt>
      <trkpt lat="45.26094" lon="5.8156">
        <ele>672.4</ele>
        <time>2011-10-16T10:45:33Z</time>
      </trkpt>
      <trkpt lat="45.2609" lon="5.81555">
        <ele>671.3</ele>
        <time>2011-10-16T10:45:38Z</time>
      </trkpt>
      <trkpt lat="45.26085" lon="5.81553">
        <ele>671.1</ele>
        <time>2011-10-16T10:45:42Z</time>
      </trkpt>
      <trkpt lat="45.26083" lon="5.81548">
        <ele>670.5</ele>
        <time>2011-10-16T10:45:50Z</time>
      </trkpt>
      <trkpt lat="45.26082" lon="5.81541">
        <ele>668.6</ele>
        <time>2011-10-16T10:46:00Z</time>
      </trkpt>
      <trkpt lat="45.26079" lon="5.81535">
        <ele>666.4</ele>
        <time>2011-10-16T10:46:15Z</time>
      </trkpt>
      <trkpt lat="45.26076" lon="5.81528">
        <ele>666.6</ele>
        <time>2011-10-16T10:46:20Z</time>
      </trkpt>
      <trkpt lat="45.26076" lon="5.81522">
        <ele>667.3</ele>
        <time>2011-10-16T10:46:44Z</time>
      </trkpt>
      <trkpt lat="45.26074" lon="5.81515">
        <ele>667.2</ele>
        <time>2011-10-16T10:46:49Z</time>
      </trkpt>
      <trkpt lat="45.26073" lon="5.81508">
        <ele>666</ele>
        <time>2011-10-16T10:47:06Z</time>
      </trkpt>
      <trkpt lat="45.2607" lon="5.81502">
        <ele>665.3</ele>
        <time>2011-10-16T10:47:10Z</time>
      </trkpt>
      <trkpt lat="45.26067" lon="5.81497">
        <ele>666</ele>
        <time>2011-10-16T10:47:17Z</time>
      </trkpt>
      <trkpt lat="45.26064" lon="5.81492">
        <ele>665.7</ele>
        <time>2011-10-16T10:47:22Z</time>
      </trkpt>
      <trkpt lat="45.26062" lon="5.81486">
        <ele>665.1</ele>
        <time>2011-10-16T10:47:26Z</time>
      </trkpt>
      <trkpt lat="45.2606" lon="5.81479">
        <ele>665.1</ele>
        <time>2011-10-16T10:47:31Z</time>
      </trkpt>
      <trkpt lat="45.26057" lon="5.81472">
        <ele>665.9</ele>
        <time>2011-10-16T10:47:36Z</time>
      </trkpt>
      <trkpt lat="45.26054" lon="5.81468">
        <ele>667.3</ele>
        <time>2011-10-16T10:47:44Z</time>
      </trkpt>
      <trkpt lat="45.26054" lon="5.81468">
        <ele>667.3</ele>
        <time>2011-10-16T10:47:44Z</time>
      </trkpt>
      <trkpt lat="45.26054" lon="5.81468">
        <ele>667.3</ele>
        <time>2011-10-16T10:47:45Z</time>
      </trkpt>
      <trkpt lat="45.26049" lon="5.81466">
        <ele>667.5</ele>
        <time>2011-10-16T10:47:49Z</time>
      </trkpt>
      <trkpt lat="45.26046" lon="5.81461">
        <ele>667.5</ele>
        <time>2011-10-16T10:47:59Z</time>
      </trkpt>
      <trkpt lat="45.26041" lon="5.81457">
        <ele>667.5</ele>
        <time>2011-10-16T10:50:04Z</time>
      </trkpt>
      <trkpt lat="45.26036" lon="5.81456">
        <ele>667.1</ele>
        <time>2011-10-16T10:50:08Z</time>
      </trkpt>
      <trkpt lat="45.26032" lon="5.81454">
        <ele>667.1</ele>
        <time>2011-10-16T10:50:15Z</time>
      </trkpt>
      <trkpt lat="45.26027" lon="5.81454">
        <ele>667.7</ele>
        <time>2011-10-16T10:50:33Z</time>
      </trkpt>
      <trkpt lat="45.26023" lon="5.8145">
        <ele>668.4</ele>
        <time>2011-10-16T10:50:42Z</time>
      </trkpt>
      <trkpt lat="45.2602" lon="5.81445">
        <ele>668.6</ele>
        <time>2011-10-16T10:50:48Z</time>
      </trkpt>
      <trkpt lat="45.26016" lon="5.81442">
        <ele>669.2</ele>
        <time>2011-10-16T10:50:57Z</time>
      </trkpt>
      <trkpt lat="45.26011" lon="5.81442">
        <ele>668.5</ele>
        <time>2011-10-16T10:51:01Z</time>
      </trkpt>
      <trkpt lat="45.26007" lon="5.81447">
        <ele>667.9</ele>
        <time>2011-10-16T10:51:03Z</time>
      </trkpt>
      <trkpt lat="45.26004" lon="5.81455">
        <ele>667.6</ele>
        <time>2011-10-16T10:51:05Z</time>
      </trkpt>
      <trkpt lat="45.26001" lon="5.81464">
        <ele>667.4</ele>
        <time>2011-10-16T10:51:07Z</time>
      </trkpt>
      <trkpt lat="45.25998" lon="5.81472">
        <ele>667.2</ele>
        <time>2011-10-16T10:51:09Z</time>
      </trkpt>
      <trkpt lat="45.25995" lon="5.81478">
        <ele>667</ele>
        <time>2011-10-16T10:51:11Z</time>
      </trkpt>
      <trkpt lat="45.25992" lon="5.81483">
        <ele>666.1</ele>
        <time>2011-10-16T10:51:13Z</time>
      </trkpt>
      <trkpt lat="45.2599" lon="5.8149">
        <ele>665.1</ele>
        <time>2011-10-16T10:51:15Z</time>
      </trkpt>
      <trkpt lat="45.25988" lon="5.81496">
        <ele>663.8</ele>
        <time>2011-10-16T10:51:19Z</time>
      </trkpt>
      <trkpt lat="45.25984" lon="5.81503">
        <ele>663.1</ele>
        <time>2011-10-16T10:51:23Z</time>
      </trkpt>
      <trkpt lat="45.25981" lon="5.81509">
        <ele>662.6</ele>
        <time>2011-10-16T10:51:25Z</time>
      </trkpt>
      <trkpt lat="45.25981" lon="5.81516">
        <ele>662</ele>
        <time>2011-10-16T10:51:27Z</time>
      </trkpt>
      <trkpt lat="45.25981" lon="5.81524">
        <ele>661.2</ele>
        <time>2011-10-16T10:51:29Z</time>
      </trkpt>
      <trkpt lat="45.2598" lon="5.81531">
        <ele>661.1</ele>
        <time>2011-10-16T10:51:30Z</time>
      </trkpt>
      <trkpt lat="45.25978" lon="5.81542">
        <ele>660.1</ele>
        <time>2011-10-16T10:51:32Z</time>
      </trkpt>
      <trkpt lat="45.25976" lon="5.8155">
        <ele>659.2</ele>
        <time>2011-10-16T10:51:34Z</time>
      </trkpt>
      <trkpt lat="45.25973" lon="5.81555">
        <ele>658.7</ele>
        <time>2011-10-16T10:51:36Z</time>
      </trkpt>
      <trkpt lat="45.25971" lon="5.81562">
        <ele>658.6</ele>
        <time>2011-10-16T10:51:40Z</time>
      </trkpt>
      <trkpt lat="45.25966" lon="5.81566">
        <ele>642.7</ele>
        <time>2011-10-16T10:56:35Z</time>
      </trkpt>
      <trkpt lat="45.2596" lon="5.81566">
        <ele>642</ele>
        <time>2011-10-16T10:57:11Z</time>
      </trkpt>
      <trkpt lat="45.25956" lon="5.81562">
        <ele>641.6</ele>
        <time>2011-10-16T10:57:14Z</time>
      </trkpt>
      <trkpt lat="45.25952" lon="5.81557">
        <ele>641.4</ele>
        <time>2011-10-16T10:57:16Z</time>
      </trkpt>
      <trkpt lat="45.25948" lon="5.81551">
        <ele>641.2</ele>
        <time>2011-10-16T10:57:18Z</time>
      </trkpt>
      <trkpt lat="45.25942" lon="5.81546">
        <ele>641.1</ele>
        <time>2011-10-16T10:57:20Z</time>
      </trkpt>
      <trkpt lat="45.25937" lon="5.81546">
        <ele>641</ele>
        <time>2011-10-16T10:57:22Z</time>
      </trkpt>
      <trkpt lat="45.25931" lon="5.81553">
        <ele>640.9</ele>
        <time>2011-10-16T10:57:24Z</time>
      </trkpt>
      <trkpt lat="45.25929" lon="5.81565">
        <ele>641</ele>
        <time>2011-10-16T10:57:26Z</time>
      </trkpt>
      <trkpt lat="45.25929" lon="5.81572">
        <ele>640.9</ele>
        <time>2011-10-16T10:57:27Z</time>
      </trkpt>
      <trkpt lat="45.25929" lon="5.81579">
        <ele>640.7</ele>
        <time>2011-10-16T10:57:28Z</time>
      </trkpt>
      <trkpt lat="45.25928" lon="5.81585">
        <ele>640.5</ele>
        <time>2011-10-16T10:57:29Z</time>
      </trkpt>
      <trkpt lat="45.25926" lon="5.81591">
        <ele>640</ele>
        <time>2011-10-16T10:57:30Z</time>
      </trkpt>
      <trkpt lat="45.2592" lon="5.81596">
        <ele>639.4</ele>
        <time>2011-10-16T10:57:32Z</time>
      </trkpt>
      <trkpt lat="45.25916" lon="5.81591">
        <ele>638.6</ele>
        <time>2011-10-16T10:57:34Z</time>
      </trkpt>
      <trkpt lat="45.25914" lon="5.81581">
        <ele>638.2</ele>
        <time>2011-10-16T10:57:36Z</time>
      </trkpt>
      <trkpt lat="45.2591" lon="5.81573">
        <ele>638</ele>
        <time>2011-10-16T10:57:38Z</time>
      </trkpt>
      <trkpt lat="45.25904" lon="5.81569">
        <ele>637.8</ele>
        <time>2011-10-16T10:57:40Z</time>
      </trkpt>
      <trkpt lat="45.25898" lon="5.81568">
        <ele>637.9</ele>
        <time>2011-10-16T10:57:42Z</time>
      </trkpt>
      <trkpt lat="45.25892" lon="5.81568">
        <ele>638.2</ele>
        <time>2011-10-16T10:57:44Z</time>
      </trkpt>
      <trkpt lat="45.25887" lon="5.81572">
        <ele>638.9</ele>
        <time>2011-10-16T10:57:46Z</time>
      </trkpt>
      <trkpt lat="45.25883" lon="5.81574">
        <ele>638.7</ele>
        <time>2011-10-16T10:57:50Z</time>
      </trkpt>
      <trkpt lat="45.25877" lon="5.81576">
        <ele>638.3</ele>
        <time>2011-10-16T10:57:53Z</time>
      </trkpt>
      <trkpt lat="45.25872" lon="5.81577">
        <ele>638.6</ele>
        <time>2011-10-16T10:57:56Z</time>
      </trkpt>
      <trkpt lat="45.25867" lon="5.81574">
        <ele>638.7</ele>
        <time>2011-10-16T10:58:00Z</time>
      </trkpt>
      <trkpt lat="45.25862" lon="5.81574">
        <ele>637.9</ele>
        <time>2011-10-16T10:58:03Z</time>
      </trkpt>
      <trkpt lat="45.25858" lon="5.8157">
        <ele>637</ele>
        <time>2011-10-16T10:58:07Z</time>
      </trkpt>
      <trkpt lat="45.25854" lon="5.81566">
        <ele>636.2</ele>
        <time>2011-10-16T10:58:10Z</time>
      </trkpt>
      <trkpt lat="45.2585" lon="5.8156">
        <ele>635.7</ele>
        <time>2011-10-16T10:58:14Z</time>
      </trkpt>
      <trkpt lat="45.25846" lon="5.81554">
        <ele>635.7</ele>
        <time>2011-10-16T10:58:18Z</time>
      </trkpt>
      <trkpt lat="45.25842" lon="5.81549">
        <ele>634.6</ele>
        <time>2011-10-16T10:58:21Z</time>
      </trkpt>
      <trkpt lat="45.25838" lon="5.81544">
        <ele>634.3</ele>
        <time>2011-10-16T10:58:24Z</time>
      </trkpt>
      <trkpt lat="45.25836" lon="5.81539">
        <ele>634</ele>
        <time>2011-10-16T10:58:27Z</time>
      </trkpt>
      <trkpt lat="45.25832" lon="5.81533">
        <ele>633.7</ele>
        <time>2011-10-16T10:58:30Z</time>
      </trkpt>
      <trkpt lat="45.25827" lon="5.81527">
        <ele>633.7</ele>
        <time>2011-10-16T10:58:34Z</time>
      </trkpt>
      <trkpt lat="45.25824" lon="5.81521">
        <ele>634</ele>
        <time>2011-10-16T10:58:37Z</time>
      </trkpt>
      <trkpt lat="45.2582" lon="5.81514">
        <ele>634.3</ele>
        <time>2011-10-16T10:58:40Z</time>
      </trkpt>
      <trkpt lat="45.25818" lon="5.81508">
        <ele>634.7</ele>
        <time>2011-10-16T10:58:43Z</time>
      </trkpt>
      <trkpt lat="45.25815" lon="5.81502">
        <ele>635.5</ele>
        <time>2011-10-16T10:58:47Z</time>
      </trkpt>
      <trkpt lat="45.25815" lon="5.81495">
        <ele>636</ele>
        <time>2011-10-16T10:58:52Z</time>
      </trkpt>
      <trkpt lat="45.25814" lon="5.81489">
        <ele>636.8</ele>
        <time>2011-10-16T10:58:58Z</time>
      </trkpt>
      <trkpt lat="45.25812" lon="5.8148">
        <ele>637.2</ele>
        <time>2011-10-16T10:59:06Z</time>
      </trkpt>
      <trkpt lat="45.25813" lon="5.81472">
        <ele>637.7</ele>
        <time>2011-10-16T10:59:10Z</time>
      </trkpt>
      <trkpt lat="45.25813" lon="5.81464">
        <ele>638.7</ele>
        <time>2011-10-16T10:59:13Z</time>
      </trkpt>
      <trkpt lat="45.25814" lon="5.81458">
        <ele>639.1</ele>
        <time>2011-10-16T10:59:16Z</time>
      </trkpt>
      <trkpt lat="45.25815" lon="5.8145">
        <ele>640.3</ele>
        <time>2011-10-16T10:59:20Z</time>
      </trkpt>
      <trkpt lat="45.25814" lon="5.81442">
        <ele>640.4</ele>
        <time>2011-10-16T10:59:23Z</time>
      </trkpt>
      <trkpt lat="45.25813" lon="5.81435">
        <ele>640.2</ele>
        <time>2011-10-16T10:59:27Z</time>
      </trkpt>
      <trkpt lat="45.25809" lon="5.8143">
        <ele>641.2</ele>
        <time>2011-10-16T10:59:31Z</time>
      </trkpt>
      <trkpt lat="45.25806" lon="5.81424">
        <ele>642.6</ele>
        <time>2011-10-16T10:59:36Z</time>
      </trkpt>
      <trkpt lat="45.25802" lon="5.81419">
        <ele>642.5</ele>
        <time>2011-10-16T10:59:40Z</time>
      </trkpt>
      <trkpt lat="45.25798" lon="5.81415">
        <ele>643.4</ele>
        <time>2011-10-16T10:59:44Z</time>
      </trkpt>
      <trkpt lat="45.25794" lon="5.81411">
        <ele>643.9</ele>
        <time>2011-10-16T10:59:48Z</time>
      </trkpt>
      <trkpt lat="45.25789" lon="5.81409">
        <ele>643.5</ele>
        <time>2011-10-16T10:59:52Z</time>
      </trkpt>
      <trkpt lat="45.25784" lon="5.81408">
        <ele>643.4</ele>
        <time>2011-10-16T10:59:56Z</time>
      </trkpt>
      <trkpt lat="45.25779" lon="5.81408">
        <ele>644.2</ele>
        <time>2011-10-16T11:00:00Z</time>
      </trkpt>
      <trkpt lat="45.25773" lon="5.81409">
        <ele>644.8</ele>
        <time>2011-10-16T11:00:04Z</time>
      </trkpt>
      <trkpt lat="45.25769" lon="5.81411">
        <ele>645.9</ele>
        <time>2011-10-16T11:00:07Z</time>
      </trkpt>
      <trkpt lat="45.25764" lon="5.81409">
        <ele>646.2</ele>
        <time>2011-10-16T11:00:10Z</time>
      </trkpt>
      <trkpt lat="45.25759" lon="5.81406">
        <ele>646.1</ele>
        <time>2011-10-16T11:00:13Z</time>
      </trkpt>
      <trkpt lat="45.25754" lon="5.81404">
        <ele>645.9</ele>
        <time>2011-10-16T11:00:17Z</time>
      </trkpt>
      <trkpt lat="45.25748" lon="5.81401">
        <ele>646</ele>
        <time>2011-10-16T11:00:20Z</time>
      </trkpt>
      <trkpt lat="45.25745" lon="5.81396">
        <ele>645.5</ele>
        <time>2011-10-16T11:00:22Z</time>
      </trkpt>
      <trkpt lat="45.25741" lon="5.8139">
        <ele>645.6</ele>
        <time>2011-10-16T11:00:25Z</time>
      </trkpt>
      <trkpt lat="45.25737" lon="5.81384">
        <ele>646.4</ele>
        <time>2011-10-16T11:00:28Z</time>
      </trkpt>
      <trkpt lat="45.25734" lon="5.81378">
        <ele>647.4</ele>
        <time>2011-10-16T11:00:31Z</time>
      </trkpt>
      <trkpt lat="45.25731" lon="5.81371">
        <ele>648.7</ele>
        <time>2011-10-16T11:00:34Z</time>
      </trkpt>
      <trkpt lat="45.25729" lon="5.81365">
        <ele>650</ele>
        <time>2011-10-16T11:00:37Z</time>
      </trkpt>
      <trkpt lat="45.25727" lon="5.81357">
        <ele>651.1</ele>
        <time>2011-10-16T11:00:41Z</time>
      </trkpt>
      <trkpt lat="45.25726" lon="5.8135">
        <ele>652.4</ele>
        <time>2011-10-16T11:00:44Z</time>
      </trkpt>
      <trkpt lat="45.25723" lon="5.81342">
        <ele>652.3</ele>
        <time>2011-10-16T11:00:47Z</time>
      </trkpt>
      <trkpt lat="45.25721" lon="5.81336">
        <ele>651.9</ele>
        <time>2011-10-16T11:00:50Z</time>
      </trkpt>
      <trkpt lat="45.25718" lon="5.8133">
        <ele>651.1</ele>
        <time>2011-10-16T11:00:53Z</time>
      </trkpt>
      <trkpt lat="45.25714" lon="5.81325">
        <ele>650.4</ele>
        <time>2011-10-16T11:00:56Z</time>
      </trkpt>
      <trkpt lat="45.25711" lon="5.81318">
        <ele>649.9</ele>
        <time>2011-10-16T11:01:00Z</time>
      </trkpt>
      <trkpt lat="45.25707" lon="5.81314">
        <ele>649.7</ele>
        <time>2011-10-16T11:01:03Z</time>
      </trkpt>
      <trkpt lat="45.25703" lon="5.81309">
        <ele>649.6</ele>
        <time>2011-10-16T11:01:06Z</time>
      </trkpt>
      <trkpt lat="45.25699" lon="5.81305">
        <ele>650.1</ele>
        <time>2011-10-16T11:01:09Z</time>
      </trkpt>
      <trkpt lat="45.25694" lon="5.813">
        <ele>650.9</ele>
        <time>2011-10-16T11:01:13Z</time>
      </trkpt>
      <trkpt lat="45.25689" lon="5.81296">
        <ele>652</ele>
        <time>2011-10-16T11:01:17Z</time>
      </trkpt>
      <trkpt lat="45.25684" lon="5.81292">
        <ele>653.1</ele>
        <time>2011-10-16T11:01:21Z</time>
      </trkpt>
      <trkpt lat="45.2568" lon="5.81288">
        <ele>654.1</ele>
        <time>2011-10-16T11:01:24Z</time>
      </trkpt>
      <trkpt lat="45.25675" lon="5.81283">
        <ele>655.3</ele>
        <time>2011-10-16T11:01:28Z</time>
      </trkpt>
      <trkpt lat="45.25671" lon="5.8128">
        <ele>655.8</ele>
        <time>2011-10-16T11:01:31Z</time>
      </trkpt>
      <trkpt lat="45.25667" lon="5.81277">
        <ele>656.9</ele>
        <time>2011-10-16T11:01:34Z</time>
      </trkpt>
      <trkpt lat="45.25662" lon="5.81273">
        <ele>658.3</ele>
        <time>2011-10-16T11:01:37Z</time>
      </trkpt>
      <trkpt lat="45.25659" lon="5.8127">
        <ele>658.9</ele>
        <time>2011-10-16T11:01:40Z</time>
      </trkpt>
      <trkpt lat="45.25655" lon="5.81265">
        <ele>659.3</ele>
        <time>2011-10-16T11:01:43Z</time>
      </trkpt>
      <trkpt lat="45.25652" lon="5.81259">
        <ele>659.7</ele>
        <time>2011-10-16T11:01:47Z</time>
      </trkpt>
      <trkpt lat="45.25648" lon="5.81252">
        <ele>660.5</ele>
        <time>2011-10-16T11:01:51Z</time>
      </trkpt>
      <trkpt lat="45.25645" lon="5.81246">
        <ele>660.9</ele>
        <time>2011-10-16T11:01:54Z</time>
      </trkpt>
      <trkpt lat="45.25644" lon="5.81238">
        <ele>661.6</ele>
        <time>2011-10-16T11:01:58Z</time>
      </trkpt>
      <trkpt lat="45.25642" lon="5.81231">
        <ele>662.1</ele>
        <time>2011-10-16T11:02:02Z</time>
      </trkpt>
      <trkpt lat="45.25641" lon="5.81224">
        <ele>662.9</ele>
        <time>2011-10-16T11:02:06Z</time>
      </trkpt>
      <trkpt lat="45.25644" lon="5.81217">
        <ele>663.5</ele>
        <time>2011-10-16T11:02:10Z</time>
      </trkpt>
      <trkpt lat="45.25646" lon="5.81209">
        <ele>664.5</ele>
        <time>2011-10-16T11:02:14Z</time>
      </trkpt>
      <trkpt lat="45.25649" lon="5.81202">
        <ele>665.4</ele>
        <time>2011-10-16T11:02:18Z</time>
      </trkpt>
      <trkpt lat="45.25652" lon="5.81195">
        <ele>666</ele>
        <time>2011-10-16T11:02:21Z</time>
      </trkpt>
      <trkpt lat="45.25654" lon="5.81189">
        <ele>666.2</ele>
        <time>2011-10-16T11:02:24Z</time>
      </trkpt>
      <trkpt lat="45.25656" lon="5.81182">
        <ele>666.4</ele>
        <time>2011-10-16T11:02:27Z</time>
      </trkpt>
      <trkpt lat="45.25657" lon="5.81175">
        <ele>667.6</ele>
        <time>2011-10-16T11:02:31Z</time>
      </trkpt>
      <trkpt lat="45.25658" lon="5.81168">
        <ele>668</ele>
        <time>2011-10-16T11:02:34Z</time>
      </trkpt>
      <trkpt lat="45.25659" lon="5.81162">
        <ele>668.5</ele>
        <time>2011-10-16T11:02:37Z</time>
      </trkpt>
      <trkpt lat="45.25662" lon="5.81158">
        <ele>668.5</ele>
        <time>2011-10-16T11:02:40Z</time>
      </trkpt>
      <trkpt lat="45.25668" lon="5.8116">
        <ele>668.7</ele>
        <time>2011-10-16T11:02:44Z</time>
      </trkpt>
      <trkpt lat="45.25669" lon="5.81166">
        <ele>669</ele>
        <time>2011-10-16T11:02:48Z</time>
      </trkpt>
      <trkpt lat="45.25667" lon="5.81173">
        <ele>668.5</ele>
        <time>2011-10-16T11:02:53Z</time>
      </trkpt>
      <trkpt lat="45.25666" lon="5.8118">
        <ele>668.4</ele>
        <time>2011-10-16T11:02:58Z</time>
      </trkpt>
      <trkpt lat="45.25667" lon="5.81187">
        <ele>668.3</ele>
        <time>2011-10-16T11:03:02Z</time>
      </trkpt>
      <trkpt lat="45.25671" lon="5.81192">
        <ele>668.4</ele>
        <time>2011-10-16T11:03:05Z</time>
      </trkpt>
      <trkpt lat="45.25675" lon="5.81198">
        <ele>668.3</ele>
        <time>2011-10-16T11:03:09Z</time>
      </trkpt>
      <trkpt lat="45.25677" lon="5.81206">
        <ele>668.7</ele>
        <time>2011-10-16T11:03:13Z</time>
      </trkpt>
      <trkpt lat="45.25679" lon="5.81213">
        <ele>668.2</ele>
        <time>2011-10-16T11:03:16Z</time>
      </trkpt>
      <trkpt lat="45.25682" lon="5.8122">
        <ele>668.6</ele>
        <time>2011-10-16T11:03:19Z</time>
      </trkpt>
      <trkpt lat="45.25685" lon="5.81225">
        <ele>669.1</ele>
        <time>2011-10-16T11:03:22Z</time>
      </trkpt>
      <trkpt lat="45.25689" lon="5.81229">
        <ele>669.7</ele>
        <time>2011-10-16T11:03:26Z</time>
      </trkpt>
      <trkpt lat="45.25694" lon="5.81232">
        <ele>670</ele>
        <time>2011-10-16T11:03:31Z</time>
      </trkpt>
      <trkpt lat="45.25699" lon="5.81233">
        <ele>670.4</ele>
        <time>2011-10-16T11:03:35Z</time>
      </trkpt>
      <trkpt lat="45.25704" lon="5.81235">
        <ele>671</ele>
        <time>2011-10-16T11:03:38Z</time>
      </trkpt>
      <trkpt lat="45.25709" lon="5.81238">
        <ele>671.7</ele>
        <time>2011-10-16T11:03:41Z</time>
      </trkpt>
      <trkpt lat="45.25714" lon="5.81241">
        <ele>672.8</ele>
        <time>2011-10-16T11:03:44Z</time>
      </trkpt>
      <trkpt lat="45.25718" lon="5.81244">
        <ele>673.9</ele>
        <time>2011-10-16T11:03:47Z</time>
      </trkpt>
      <trkpt lat="45.25724" lon="5.81245">
        <ele>675.2</ele>
        <time>2011-10-16T11:03:50Z</time>
      </trkpt>
      <trkpt lat="45.25728" lon="5.81247">
        <ele>675.9</ele>
        <time>2011-10-16T11:03:53Z</time>
      </trkpt>
      <trkpt lat="45.25733" lon="5.8125">
        <ele>676.7</ele>
        <time>2011-10-16T11:03:57Z</time>
      </trkpt>
      <trkpt lat="45.25738" lon="5.81254">
        <ele>678</ele>
        <time>2011-10-16T11:04:01Z</time>
      </trkpt>
      <trkpt lat="45.25743" lon="5.81256">
        <ele>678.4</ele>
        <time>2011-10-16T11:04:04Z</time>
      </trkpt>
      <trkpt lat="45.25749" lon="5.81259">
        <ele>678.2</ele>
        <time>2011-10-16T11:04:07Z</time>
      </trkpt>
      <trkpt lat="45.25753" lon="5.81263">
        <ele>678.4</ele>
        <time>2011-10-16T11:04:10Z</time>
      </trkpt>
      <trkpt lat="45.25757" lon="5.81267">
        <ele>678.4</ele>
        <time>2011-10-16T11:04:13Z</time>
      </trkpt>
      <trkpt lat="45.25761" lon="5.8127">
        <ele>678.9</ele>
        <time>2011-10-16T11:04:16Z</time>
      </trkpt>
      <trkpt lat="45.25765" lon="5.81274">
        <ele>679.6</ele>
        <time>2011-10-16T11:04:19Z</time>
      </trkpt>
      <trkpt lat="45.2577" lon="5.81278">
        <ele>680.4</ele>
        <time>2011-10-16T11:04:22Z</time>
      </trkpt>
      <trkpt lat="45.25773" lon="5.81283">
        <ele>681.3</ele>
        <time>2011-10-16T11:04:26Z</time>
      </trkpt>
      <trkpt lat="45.25776" lon="5.81288">
        <ele>681.6</ele>
        <time>2011-10-16T11:04:30Z</time>
      </trkpt>
      <trkpt lat="45.25779" lon="5.81294">
        <ele>682.4</ele>
        <time>2011-10-16T11:04:36Z</time>
      </trkpt>
      <trkpt lat="45.25784" lon="5.81292">
        <ele>683.4</ele>
        <time>2011-10-16T11:04:42Z</time>
      </trkpt>
      <trkpt lat="45.25789" lon="5.81289">
        <ele>684.2</ele>
        <time>2011-10-16T11:04:45Z</time>
      </trkpt>
      <trkpt lat="45.25794" lon="5.81286">
        <ele>685.6</ele>
        <time>2011-10-16T11:04:49Z</time>
      </trkpt>
      <trkpt lat="45.25799" lon="5.81281">
        <ele>686.4</ele>
        <time>2011-10-16T11:04:53Z</time>
      </trkpt>
      <trkpt lat="45.25802" lon="5.81276">
        <ele>687.4</ele>
        <time>2011-10-16T11:04:56Z</time>
      </trkpt>
      <trkpt lat="45.25806" lon="5.81272">
        <ele>689.3</ele>
        <time>2011-10-16T11:04:59Z</time>
      </trkpt>
      <trkpt lat="45.2581" lon="5.81268">
        <ele>691.4</ele>
        <time>2011-10-16T11:05:03Z</time>
      </trkpt>
      <trkpt lat="45.25813" lon="5.81263">
        <ele>692.3</ele>
        <time>2011-10-16T11:05:07Z</time>
      </trkpt>
      <trkpt lat="45.25816" lon="5.81258">
        <ele>693</ele>
        <time>2011-10-16T11:05:10Z</time>
      </trkpt>
      <trkpt lat="45.2582" lon="5.81255">
        <ele>693.6</ele>
        <time>2011-10-16T11:05:13Z</time>
      </trkpt>
      <trkpt lat="45.25825" lon="5.81251">
        <ele>694.2</ele>
        <time>2011-10-16T11:05:16Z</time>
      </trkpt>
      <trkpt lat="45.2583" lon="5.81248">
        <ele>694.6</ele>
        <time>2011-10-16T11:05:20Z</time>
      </trkpt>
      <trkpt lat="45.25834" lon="5.81245">
        <ele>694.8</ele>
        <time>2011-10-16T11:05:23Z</time>
      </trkpt>
      <trkpt lat="45.25838" lon="5.8124">
        <ele>695.2</ele>
        <time>2011-10-16T11:05:27Z</time>
      </trkpt>
      <trkpt lat="45.25841" lon="5.81234">
        <ele>695.7</ele>
        <time>2011-10-16T11:05:30Z</time>
      </trkpt>
      <trkpt lat="45.25843" lon="5.81228">
        <ele>696.3</ele>
        <time>2011-10-16T11:05:33Z</time>
      </trkpt>
      <trkpt lat="45.25842" lon="5.8122">
        <ele>696.6</ele>
        <time>2011-10-16T11:05:37Z</time>
      </trkpt>
      <trkpt lat="45.2584" lon="5.81214">
        <ele>698.9</ele>
        <time>2011-10-16T11:05:42Z</time>
      </trkpt>
      <trkpt lat="45.25836" lon="5.81208">
        <ele>700.9</ele>
        <time>2011-10-16T11:05:47Z</time>
      </trkpt>
      <trkpt lat="45.25832" lon="5.81203">
        <ele>702.1</ele>
        <time>2011-10-16T11:05:52Z</time>
      </trkpt>
      <trkpt lat="45.25828" lon="5.81198">
        <ele>702.8</ele>
        <time>2011-10-16T11:05:56Z</time>
      </trkpt>
      <trkpt lat="45.25824" lon="5.81194">
        <ele>702.5</ele>
        <time>2011-10-16T11:05:59Z</time>
      </trkpt>
      <trkpt lat="45.25821" lon="5.81189">
        <ele>702.7</ele>
        <time>2011-10-16T11:06:02Z</time>
      </trkpt>
      <trkpt lat="45.25816" lon="5.81185">
        <ele>703.9</ele>
        <time>2011-10-16T11:06:06Z</time>
      </trkpt>
      <trkpt lat="45.25811" lon="5.8118">
        <ele>704.7</ele>
        <time>2011-10-16T11:06:10Z</time>
      </trkpt>
      <trkpt lat="45.25808" lon="5.81175">
        <ele>704.8</ele>
        <time>2011-10-16T11:06:13Z</time>
      </trkpt>
      <trkpt lat="45.25804" lon="5.8117">
        <ele>705.3</ele>
        <time>2011-10-16T11:06:16Z</time>
      </trkpt>
      <trkpt lat="45.25802" lon="5.81163">
        <ele>706.8</ele>
        <time>2011-10-16T11:06:21Z</time>
      </trkpt>
      <trkpt lat="45.258" lon="5.81158">
        <ele>701</ele>
        <time>2011-10-16T11:07:20Z</time>
      </trkpt>
      <trkpt lat="45.25797" lon="5.81152">
        <ele>701.8</ele>
        <time>2011-10-16T11:07:23Z</time>
      </trkpt>
      <trkpt lat="45.25795" lon="5.81146">
        <ele>702.7</ele>
        <time>2011-10-16T11:07:26Z</time>
      </trkpt>
      <trkpt lat="45.25793" lon="5.81139">
        <ele>703.2</ele>
        <time>2011-10-16T11:07:29Z</time>
      </trkpt>
      <trkpt lat="45.25792" lon="5.81132">
        <ele>704.3</ele>
        <time>2011-10-16T11:07:33Z</time>
      </trkpt>
      <trkpt lat="45.25791" lon="5.81126">
        <ele>704.3</ele>
        <time>2011-10-16T11:07:36Z</time>
      </trkpt>
      <trkpt lat="45.2579" lon="5.81118">
        <ele>704.9</ele>
        <time>2011-10-16T11:07:39Z</time>
      </trkpt>
      <trkpt lat="45.25789" lon="5.8111">
        <ele>705.2</ele>
        <time>2011-10-16T11:07:43Z</time>
      </trkpt>
      <trkpt lat="45.25788" lon="5.81104">
        <ele>705.7</ele>
        <time>2011-10-16T11:07:46Z</time>
      </trkpt>
      <trkpt lat="45.25787" lon="5.81096">
        <ele>707</ele>
        <time>2011-10-16T11:07:49Z</time>
      </trkpt>
      <trkpt lat="45.25786" lon="5.81089">
        <ele>707.2</ele>
        <time>2011-10-16T11:07:52Z</time>
      </trkpt>
      <trkpt lat="45.25783" lon="5.81083">
        <ele>707.9</ele>
        <time>2011-10-16T11:07:56Z</time>
      </trkpt>
      <trkpt lat="45.2578" lon="5.81077">
        <ele>708.6</ele>
        <time>2011-10-16T11:08:01Z</time>
      </trkpt>
      <trkpt lat="45.25776" lon="5.81073">
        <ele>709.1</ele>
        <time>2011-10-16T11:08:06Z</time>
      </trkpt>
      <trkpt lat="45.25774" lon="5.81066">
        <ele>710.4</ele>
        <time>2011-10-16T11:08:10Z</time>
      </trkpt>
      <trkpt lat="45.25771" lon="5.81059">
        <ele>711.6</ele>
        <time>2011-10-16T11:08:13Z</time>
      </trkpt>
      <trkpt lat="45.25769" lon="5.81051">
        <ele>711.8</ele>
        <time>2011-10-16T11:08:16Z</time>
      </trkpt>
      <trkpt lat="45.25767" lon="5.81044">
        <ele>712.2</ele>
        <time>2011-10-16T11:08:19Z</time>
      </trkpt>
      <trkpt lat="45.25765" lon="5.81036">
        <ele>712.7</ele>
        <time>2011-10-16T11:08:22Z</time>
      </trkpt>
      <trkpt lat="45.25763" lon="5.81029">
        <ele>713.4</ele>
        <time>2011-10-16T11:08:25Z</time>
      </trkpt>
      <trkpt lat="45.25762" lon="5.81022">
        <ele>713.7</ele>
        <time>2011-10-16T11:08:28Z</time>
      </trkpt>
      <trkpt lat="45.2576" lon="5.81015">
        <ele>714.1</ele>
        <time>2011-10-16T11:08:31Z</time>
      </trkpt>
      <trkpt lat="45.25758" lon="5.81008">
        <ele>714.8</ele>
        <time>2011-10-16T11:08:34Z</time>
      </trkpt>
      <trkpt lat="45.25757" lon="5.81001">
        <ele>715.4</ele>
        <time>2011-10-16T11:08:37Z</time>
      </trkpt>
      <trkpt lat="45.25755" lon="5.80994">
        <ele>716.1</ele>
        <time>2011-10-16T11:08:40Z</time>
      </trkpt>
      <trkpt lat="45.25755" lon="5.80988">
        <ele>716.4</ele>
        <time>2011-10-16T11:08:43Z</time>
      </trkpt>
      <trkpt lat="45.25754" lon="5.8098">
        <ele>716.7</ele>
        <time>2011-10-16T11:08:47Z</time>
      </trkpt>
      <trkpt lat="45.25752" lon="5.80974">
        <ele>717.3</ele>
        <time>2011-10-16T11:08:50Z</time>
      </trkpt>
      <trkpt lat="45.25751" lon="5.80966">
        <ele>718.4</ele>
        <time>2011-10-16T11:08:54Z</time>
      </trkpt>
      <trkpt lat="45.2575" lon="5.80958">
        <ele>719.2</ele>
        <time>2011-10-16T11:08:57Z</time>
      </trkpt>
      <trkpt lat="45.25749" lon="5.8095">
        <ele>719.4</ele>
        <time>2011-10-16T11:09:01Z</time>
      </trkpt>
      <trkpt lat="45.25747" lon="5.80944">
        <ele>720.2</ele>
        <time>2011-10-16T11:09:04Z</time>
      </trkpt>
      <trkpt lat="45.25745" lon="5.80938">
        <ele>721</ele>
        <time>2011-10-16T11:09:07Z</time>
      </trkpt>
      <trkpt lat="45.25742" lon="5.8093">
        <ele>721.2</ele>
        <time>2011-10-16T11:09:11Z</time>
      </trkpt>
      <trkpt lat="45.25739" lon="5.80924">
        <ele>721.7</ele>
        <time>2011-10-16T11:09:15Z</time>
      </trkpt>
      <trkpt lat="45.25737" lon="5.80918">
        <ele>722.9</ele>
        <time>2011-10-16T11:09:19Z</time>
      </trkpt>
      <trkpt lat="45.25735" lon="5.80911">
        <ele>723.4</ele>
        <time>2011-10-16T11:09:23Z</time>
      </trkpt>
      <trkpt lat="45.25733" lon="5.80905">
        <ele>724.1</ele>
        <time>2011-10-16T11:09:27Z</time>
      </trkpt>
      <trkpt lat="45.25731" lon="5.80898">
        <ele>725.6</ele>
        <time>2011-10-16T11:09:32Z</time>
      </trkpt>
      <trkpt lat="45.2573" lon="5.8089">
        <ele>726.3</ele>
        <time>2011-10-16T11:09:36Z</time>
      </trkpt>
      <trkpt lat="45.2573" lon="5.80883">
        <ele>726.5</ele>
        <time>2011-10-16T11:09:39Z</time>
      </trkpt>
      <trkpt lat="45.2573" lon="5.80875">
        <ele>726.9</ele>
        <time>2011-10-16T11:09:43Z</time>
      </trkpt>
      <trkpt lat="45.25731" lon="5.80868">
        <ele>728.4</ele>
        <time>2011-10-16T11:09:46Z</time>
      </trkpt>
      <trkpt lat="45.25733" lon="5.80861">
        <ele>730.1</ele>
        <time>2011-10-16T11:09:49Z</time>
      </trkpt>
      <trkpt lat="45.25735" lon="5.80854">
        <ele>730.6</ele>
        <time>2011-10-16T11:09:53Z</time>
      </trkpt>
      <trkpt lat="45.25737" lon="5.80846">
        <ele>731.7</ele>
        <time>2011-10-16T11:09:57Z</time>
      </trkpt>
      <trkpt lat="45.25738" lon="5.8084">
        <ele>732.6</ele>
        <time>2011-10-16T11:10:00Z</time>
      </trkpt>
      <trkpt lat="45.25738" lon="5.80832">
        <ele>733.1</ele>
        <time>2011-10-16T11:10:04Z</time>
      </trkpt>
      <trkpt lat="45.25738" lon="5.80824">
        <ele>733.8</ele>
        <time>2011-10-16T11:10:08Z</time>
      </trkpt>
      <trkpt lat="45.25738" lon="5.80817">
        <ele>734</ele>
        <time>2011-10-16T11:10:13Z</time>
      </trkpt>
      <trkpt lat="45.25738" lon="5.80817">
        <ele>734</ele>
        <time>2011-10-16T11:10:13Z</time>
      </trkpt>
      <trkpt lat="45.25738" lon="5.80817">
        <ele>734</ele>
        <time>2011-10-16T11:10:56Z</time>
      </trkpt>
      <trkpt lat="45.25737" lon="5.80811">
        <ele>734.4</ele>
        <time>2011-10-16T11:11:00Z</time>
      </trkpt>
      <trkpt lat="45.25736" lon="5.80804">
        <ele>735.3</ele>
        <time>2011-10-16T11:11:04Z</time>
      </trkpt>
      <trkpt lat="45.25735" lon="5.80796">
        <ele>735.6</ele>
        <time>2011-10-16T11:11:08Z</time>
      </trkpt>
      <trkpt lat="45.25733" lon="5.80789">
        <ele>736.2</ele>
        <time>2011-10-16T11:11:12Z</time>
      </trkpt>
      <trkpt lat="45.25731" lon="5.80782">
        <ele>736.8</ele>
        <time>2011-10-16T11:11:16Z</time>
      </trkpt>
      <trkpt lat="45.2573" lon="5.80774">
        <ele>737.1</ele>
        <time>2011-10-16T11:11:20Z</time>
      </trkpt>
      <trkpt lat="45.25729" lon="5.80766">
        <ele>737.3</ele>
        <time>2011-10-16T11:11:24Z</time>
      </trkpt>
      <trkpt lat="45.25728" lon="5.80758">
        <ele>737.8</ele>
        <time>2011-10-16T11:11:28Z</time>
      </trkpt>
      <trkpt lat="45.25727" lon="5.8075">
        <ele>738.4</ele>
        <time>2011-10-16T11:11:32Z</time>
      </trkpt>
      <trkpt lat="45.25726" lon="5.80743">
        <ele>739.2</ele>
        <time>2011-10-16T11:11:36Z</time>
      </trkpt>
      <trkpt lat="45.25725" lon="5.80735">
        <ele>739.7</ele>
        <time>2011-10-16T11:11:40Z</time>
      </trkpt>
      <trkpt lat="45.25724" lon="5.80728">
        <ele>739.9</ele>
        <time>2011-10-16T11:11:44Z</time>
      </trkpt>
      <trkpt lat="45.25721" lon="5.80721">
        <ele>740.7</ele>
        <time>2011-10-16T11:11:48Z</time>
      </trkpt>
      <trkpt lat="45.25718" lon="5.80714">
        <ele>741.2</ele>
        <time>2011-10-16T11:11:52Z</time>
      </trkpt>
      <trkpt lat="45.25716" lon="5.80706">
        <ele>741.7</ele>
        <time>2011-10-16T11:11:56Z</time>
      </trkpt>
      <trkpt lat="45.25713" lon="5.80699">
        <ele>742.4</ele>
        <time>2011-10-16T11:12:00Z</time>
      </trkpt>
      <trkpt lat="45.2571" lon="5.80692">
        <ele>742.9</ele>
        <time>2011-10-16T11:12:04Z</time>
      </trkpt>
      <trkpt lat="45.25708" lon="5.80684">
        <ele>743.6</ele>
        <time>2011-10-16T11:12:08Z</time>
      </trkpt>
      <trkpt lat="45.25708" lon="5.80678">
        <ele>743.8</ele>
        <time>2011-10-16T11:12:11Z</time>
      </trkpt>
      <trkpt lat="45.25707" lon="5.80669">
        <ele>744</ele>
        <time>2011-10-16T11:12:15Z</time>
      </trkpt>
      <trkpt lat="45.25706" lon="5.80662">
        <ele>744.7</ele>
        <time>2011-10-16T11:12:19Z</time>
      </trkpt>
      <trkpt lat="45.25706" lon="5.80654">
        <ele>745.4</ele>
        <time>2011-10-16T11:12:23Z</time>
      </trkpt>
      <trkpt lat="45.25705" lon="5.80646">
        <ele>745.9</ele>
        <time>2011-10-16T11:12:27Z</time>
      </trkpt>
      <trkpt lat="45.25704" lon="5.8064">
        <ele>746.6</ele>
        <time>2011-10-16T11:12:31Z</time>
      </trkpt>
      <trkpt lat="45.25703" lon="5.80632">
        <ele>747.5</ele>
        <time>2011-10-16T11:12:35Z</time>
      </trkpt>
      <trkpt lat="45.25701" lon="5.80625">
        <ele>748.4</ele>
        <time>2011-10-16T11:12:39Z</time>
      </trkpt>
      <trkpt lat="45.257" lon="5.80618">
        <ele>749.5</ele>
        <time>2011-10-16T11:12:43Z</time>
      </trkpt>
      <trkpt lat="45.25698" lon="5.80611">
        <ele>750.3</ele>
        <time>2011-10-16T11:12:47Z</time>
      </trkpt>
      <trkpt lat="45.25696" lon="5.80604">
        <ele>750.5</ele>
        <time>2011-10-16T11:12:51Z</time>
      </trkpt>
      <trkpt lat="45.25696" lon="5.80597">
        <ele>751.1</ele>
        <time>2011-10-16T11:12:54Z</time>
      </trkpt>
      <trkpt lat="45.25694" lon="5.80589">
        <ele>751.8</ele>
        <time>2011-10-16T11:12:58Z</time>
      </trkpt>
      <trkpt lat="45.25693" lon="5.80581">
        <ele>752.2</ele>
        <time>2011-10-16T11:13:02Z</time>
      </trkpt>
      <trkpt lat="45.25692" lon="5.80574">
        <ele>752.8</ele>
        <time>2011-10-16T11:13:06Z</time>
      </trkpt>
      <trkpt lat="45.25692" lon="5.80565">
        <ele>753.7</ele>
        <time>2011-10-16T11:13:10Z</time>
      </trkpt>
      <trkpt lat="45.25693" lon="5.80559">
        <ele>754</ele>
        <time>2011-10-16T11:13:13Z</time>
      </trkpt>
      <trkpt lat="45.25694" lon="5.80553">
        <ele>754.1</ele>
        <time>2011-10-16T11:13:16Z</time>
      </trkpt>
      <trkpt lat="45.25695" lon="5.80546">
        <ele>754</ele>
        <time>2011-10-16T11:13:19Z</time>
      </trkpt>
      <trkpt lat="45.25695" lon="5.80537">
        <ele>753.9</ele>
        <time>2011-10-16T11:13:22Z</time>
      </trkpt>
      <trkpt lat="45.25695" lon="5.80529">
        <ele>753.6</ele>
        <time>2011-10-16T11:13:24Z</time>
      </trkpt>
      <trkpt lat="45.25698" lon="5.80524">
        <ele>753.8</ele>
        <time>2011-10-16T11:13:43Z</time>
      </trkpt>
      <trkpt lat="45.257" lon="5.80517">
        <ele>754.1</ele>
        <time>2011-10-16T11:13:50Z</time>
      </trkpt>
      <trkpt lat="45.25699" lon="5.8051">
        <ele>753.9</ele>
        <time>2011-10-16T11:13:57Z</time>
      </trkpt>
      <trkpt lat="45.25704" lon="5.8051">
        <ele>753.6</ele>
        <time>2011-10-16T11:14:06Z</time>
      </trkpt>
      <trkpt lat="45.25705" lon="5.80504">
        <ele>755.5</ele>
        <time>2011-10-16T11:14:28Z</time>
      </trkpt>
      <trkpt lat="45.25702" lon="5.80498">
        <ele>757.1</ele>
        <time>2011-10-16T11:14:33Z</time>
      </trkpt>
      <trkpt lat="45.25706" lon="5.80501">
        <ele>761.3</ele>
        <time>2011-10-16T11:14:56Z</time>
      </trkpt>
      <trkpt lat="45.2571" lon="5.80505">
        <ele>761.7</ele>
        <time>2011-10-16T11:15:00Z</time>
      </trkpt>
      <trkpt lat="45.25709" lon="5.80497">
        <ele>764.5</ele>
        <time>2011-10-16T11:15:25Z</time>
      </trkpt>
      <trkpt lat="45.25708" lon="5.8049">
        <ele>765.3</ele>
        <time>2011-10-16T11:15:29Z</time>
      </trkpt>
      <trkpt lat="45.25709" lon="5.80484">
        <ele>769.5</ele>
        <time>2011-10-16T11:15:58Z</time>
      </trkpt>
      <trkpt lat="45.25712" lon="5.80479">
        <ele>771</ele>
        <time>2011-10-16T11:16:10Z</time>
      </trkpt>
      <trkpt lat="45.25709" lon="5.80474">
        <ele>771.1</ele>
        <time>2011-10-16T11:16:15Z</time>
      </trkpt>
      <trkpt lat="45.25708" lon="5.80467">
        <ele>773</ele>
        <time>2011-10-16T11:16:22Z</time>
      </trkpt>
      <trkpt lat="45.25706" lon="5.80462">
        <ele>774.7</ele>
        <time>2011-10-16T11:16:37Z</time>
      </trkpt>
      <trkpt lat="45.2571" lon="5.80459">
        <ele>777.2</ele>
        <time>2011-10-16T11:16:50Z</time>
      </trkpt>
      <trkpt lat="45.25715" lon="5.80462">
        <ele>779.8</ele>
        <time>2011-10-16T11:17:17Z</time>
      </trkpt>
      <trkpt lat="45.2572" lon="5.80467">
        <ele>780.1</ele>
        <time>2011-10-16T11:17:22Z</time>
      </trkpt>
      <trkpt lat="45.25724" lon="5.80464">
        <ele>782.4</ele>
        <time>2011-10-16T11:17:38Z</time>
      </trkpt>
      <trkpt lat="45.25726" lon="5.80458">
        <ele>783.9</ele>
        <time>2011-10-16T11:17:46Z</time>
      </trkpt>
      <trkpt lat="45.25725" lon="5.8045">
        <ele>782.6</ele>
        <time>2011-10-16T11:18:02Z</time>
      </trkpt>
      <trkpt lat="45.25726" lon="5.80457">
        <ele>783.9</ele>
        <time>2011-10-16T11:18:14Z</time>
      </trkpt>
      <trkpt lat="45.25729" lon="5.80462">
        <ele>784.9</ele>
        <time>2011-10-16T11:18:25Z</time>
      </trkpt>
      <trkpt lat="45.25733" lon="5.80468">
        <ele>785.3</ele>
        <time>2011-10-16T11:18:29Z</time>
      </trkpt>
      <trkpt lat="45.25734" lon="5.80474">
        <ele>785.4</ele>
        <time>2011-10-16T11:18:32Z</time>
      </trkpt>
      <trkpt lat="45.25738" lon="5.80479">
        <ele>786.1</ele>
        <time>2011-10-16T11:18:36Z</time>
      </trkpt>
      <trkpt lat="45.25743" lon="5.80482">
        <ele>787.2</ele>
        <time>2011-10-16T11:18:40Z</time>
      </trkpt>
      <trkpt lat="45.25747" lon="5.80485">
        <ele>787.7</ele>
        <time>2011-10-16T11:18:44Z</time>
      </trkpt>
      <trkpt lat="45.25752" lon="5.80488">
        <ele>787.5</ele>
        <time>2011-10-16T11:18:48Z</time>
      </trkpt>
      <trkpt lat="45.25758" lon="5.80489">
        <ele>787.8</ele>
        <time>2011-10-16T11:18:52Z</time>
      </trkpt>
      <trkpt lat="45.25754" lon="5.80492">
        <ele>795.2</ele>
        <time>2011-10-16T11:19:32Z</time>
      </trkpt>
      <trkpt lat="45.2575" lon="5.80488">
        <ele>796.2</ele>
        <time>2011-10-16T11:19:37Z</time>
      </trkpt>
      <trkpt lat="45.25745" lon="5.80483">
        <ele>797.6</ele>
        <time>2011-10-16T11:19:42Z</time>
      </trkpt>
      <trkpt lat="45.25742" lon="5.80478">
        <ele>798.4</ele>
        <time>2011-10-16T11:19:46Z</time>
      </trkpt>
      <trkpt lat="45.25742" lon="5.80472">
        <ele>797.7</ele>
        <time>2011-10-16T11:19:50Z</time>
      </trkpt>
      <trkpt lat="45.25742" lon="5.80465">
        <ele>797.4</ele>
        <time>2011-10-16T11:19:54Z</time>
      </trkpt>
      <trkpt lat="45.25743" lon="5.80457">
        <ele>798.1</ele>
        <time>2011-10-16T11:19:58Z</time>
      </trkpt>
      <trkpt lat="45.25744" lon="5.80451">
        <ele>798.6</ele>
        <time>2011-10-16T11:20:01Z</time>
      </trkpt>
      <trkpt lat="45.25746" lon="5.80444">
        <ele>799.5</ele>
        <time>2011-10-16T11:20:05Z</time>
      </trkpt>
      <trkpt lat="45.25748" lon="5.80438">
        <ele>800.7</ele>
        <time>2011-10-16T11:20:09Z</time>
      </trkpt>
      <trkpt lat="45.25747" lon="5.80432">
        <ele>801.3</ele>
        <time>2011-10-16T11:20:13Z</time>
      </trkpt>
      <trkpt lat="45.25747" lon="5.80425">
        <ele>811</ele>
        <time>2011-10-16T11:21:36Z</time>
      </trkpt>
      <trkpt lat="45.25747" lon="5.80418">
        <ele>812</ele>
        <time>2011-10-16T11:21:40Z</time>
      </trkpt>
      <trkpt lat="45.25746" lon="5.80409">
        <ele>813.2</ele>
        <time>2011-10-16T11:21:44Z</time>
      </trkpt>
      <trkpt lat="45.25746" lon="5.80403">
        <ele>814.3</ele>
        <time>2011-10-16T11:21:48Z</time>
      </trkpt>
      <trkpt lat="45.25744" lon="5.80396">
        <ele>815.4</ele>
        <time>2011-10-16T11:21:55Z</time>
      </trkpt>
      <trkpt lat="45.25743" lon="5.80389">
        <ele>815.6</ele>
        <time>2011-10-16T11:22:00Z</time>
      </trkpt>
      <trkpt lat="45.25746" lon="5.80385">
        <ele>817</ele>
        <time>2011-10-16T11:22:09Z</time>
      </trkpt>
      <trkpt lat="45.2575" lon="5.8039">
        <ele>817.6</ele>
        <time>2011-10-16T11:22:15Z</time>
      </trkpt>
      <trkpt lat="45.25754" lon="5.80395">
        <ele>817.7</ele>
        <time>2011-10-16T11:22:20Z</time>
      </trkpt>
      <trkpt lat="45.25757" lon="5.804">
        <ele>817.7</ele>
        <time>2011-10-16T11:22:25Z</time>
      </trkpt>
      <trkpt lat="45.25759" lon="5.80406">
        <ele>818.1</ele>
        <time>2011-10-16T11:22:30Z</time>
      </trkpt>
      <trkpt lat="45.2576" lon="5.804">
        <ele>819.9</ele>
        <time>2011-10-16T11:22:56Z</time>
      </trkpt>
      <trkpt lat="45.25759" lon="5.80394">
        <ele>821.3</ele>
        <time>2011-10-16T11:23:00Z</time>
      </trkpt>
      <trkpt lat="45.25762" lon="5.80385">
        <ele>836.9</ele>
        <time>2011-10-16T11:23:16Z</time>
      </trkpt>
      <trkpt lat="45.25762" lon="5.80385">
        <ele>836.9</ele>
        <time>2011-10-16T11:23:16Z</time>
      </trkpt>
      <trkpt lat="45.25762" lon="5.80385">
        <ele>836.9</ele>
        <time>2011-10-16T11:23:33Z</time>
      </trkpt>
      <trkpt lat="45.25766" lon="5.80382">
        <ele>827.9</ele>
        <time>2011-10-16T11:23:39Z</time>
      </trkpt>
      <trkpt lat="45.25768" lon="5.80388">
        <ele>827.7</ele>
        <time>2011-10-16T11:23:44Z</time>
      </trkpt>
      <trkpt lat="45.25771" lon="5.80394">
        <ele>827</ele>
        <time>2011-10-16T11:23:48Z</time>
      </trkpt>
      <trkpt lat="45.25774" lon="5.80401">
        <ele>827.2</ele>
        <time>2011-10-16T11:23:53Z</time>
      </trkpt>
      <trkpt lat="45.25776" lon="5.80406">
        <ele>827</ele>
        <time>2011-10-16T11:23:58Z</time>
      </trkpt>
      <trkpt lat="45.25769" lon="5.80396">
        <ele>831.2</ele>
        <time>2011-10-16T11:24:19Z</time>
      </trkpt>
      <trkpt lat="45.25768" lon="5.8039">
        <ele>831.6</ele>
        <time>2011-10-16T11:24:22Z</time>
      </trkpt>
      <trkpt lat="45.25769" lon="5.80382">
        <ele>833.3</ele>
        <time>2011-10-16T11:24:26Z</time>
      </trkpt>
      <trkpt lat="45.25771" lon="5.80376">
        <ele>834.1</ele>
        <time>2011-10-16T11:24:39Z</time>
      </trkpt>
      <trkpt lat="45.2577" lon="5.8037">
        <ele>834.2</ele>
        <time>2011-10-16T11:24:44Z</time>
      </trkpt>
      <trkpt lat="45.25768" lon="5.80364">
        <ele>834.4</ele>
        <time>2011-10-16T11:24:48Z</time>
      </trkpt>
      <trkpt lat="45.25763" lon="5.80362">
        <ele>835</ele>
        <time>2011-10-16T11:24:54Z</time>
      </trkpt>
      <trkpt lat="45.25758" lon="5.80362">
        <ele>835.7</ele>
        <time>2011-10-16T11:24:59Z</time>
      </trkpt>
      <trkpt lat="45.25764" lon="5.80352">
        <ele>836.6</ele>
        <time>2011-10-16T11:26:42Z</time>
      </trkpt>
      <trkpt lat="45.25763" lon="5.80345">
        <ele>836.2</ele>
        <time>2011-10-16T11:26:52Z</time>
      </trkpt>
      <trkpt lat="45.2576" lon="5.80339">
        <ele>836.7</ele>
        <time>2011-10-16T11:26:58Z</time>
      </trkpt>
      <trkpt lat="45.25755" lon="5.80337">
        <ele>837.5</ele>
        <time>2011-10-16T11:27:03Z</time>
      </trkpt>
      <trkpt lat="45.25748" lon="5.80338">
        <ele>839.4</ele>
        <time>2011-10-16T11:27:13Z</time>
      </trkpt>
      <trkpt lat="45.25743" lon="5.80337">
        <ele>840.4</ele>
        <time>2011-10-16T11:27:16Z</time>
      </trkpt>
      <trkpt lat="45.25739" lon="5.80343">
        <ele>842.7</ele>
        <time>2011-10-16T11:27:32Z</time>
      </trkpt>
      <trkpt lat="45.25735" lon="5.80347">
        <ele>842.7</ele>
        <time>2011-10-16T11:27:34Z</time>
      </trkpt>
      <trkpt lat="45.25731" lon="5.80351">
        <ele>842.7</ele>
        <time>2011-10-16T11:27:36Z</time>
      </trkpt>
      <trkpt lat="45.25726" lon="5.80358">
        <ele>842.7</ele>
        <time>2011-10-16T11:27:38Z</time>
      </trkpt>
      <trkpt lat="45.25721" lon="5.80362">
        <ele>842.9</ele>
        <time>2011-10-16T11:27:40Z</time>
      </trkpt>
      <trkpt lat="45.25717" lon="5.80369">
        <ele>842.7</ele>
        <time>2011-10-16T11:27:42Z</time>
      </trkpt>
      <trkpt lat="45.25714" lon="5.80375">
        <ele>842.2</ele>
        <time>2011-10-16T11:27:44Z</time>
      </trkpt>
      <trkpt lat="45.25711" lon="5.80381">
        <ele>841.8</ele>
        <time>2011-10-16T11:27:46Z</time>
      </trkpt>
      <trkpt lat="45.25706" lon="5.80384">
        <ele>841.4</ele>
        <time>2011-10-16T11:27:49Z</time>
      </trkpt>
      <trkpt lat="45.25701" lon="5.80385">
        <ele>840.7</ele>
        <time>2011-10-16T11:27:55Z</time>
      </trkpt>
      <trkpt lat="45.25695" lon="5.80386">
        <ele>834.8</ele>
        <time>2011-10-16T11:28:22Z</time>
      </trkpt>
      <trkpt lat="45.2569" lon="5.80385">
        <ele>834</ele>
        <time>2011-10-16T11:28:25Z</time>
      </trkpt>
      <trkpt lat="45.25685" lon="5.80386">
        <ele>832.5</ele>
        <time>2011-10-16T11:28:29Z</time>
      </trkpt>
      <trkpt lat="45.25682" lon="5.80393">
        <ele>832.2</ele>
        <time>2011-10-16T11:28:32Z</time>
      </trkpt>
      <trkpt lat="45.25678" lon="5.804">
        <ele>831.6</ele>
        <time>2011-10-16T11:28:34Z</time>
      </trkpt>
      <trkpt lat="45.25676" lon="5.80408">
        <ele>830.6</ele>
        <time>2011-10-16T11:28:37Z</time>
      </trkpt>
      <trkpt lat="45.25673" lon="5.80415">
        <ele>827.8</ele>
        <time>2011-10-16T11:28:44Z</time>
      </trkpt>
      <trkpt lat="45.25673" lon="5.80415">
        <ele>827.8</ele>
        <time>2011-10-16T11:28:44Z</time>
      </trkpt>
      <trkpt lat="45.25673" lon="5.80415">
        <ele>827.8</ele>
        <time>2011-10-16T11:28:48Z</time>
      </trkpt>
      <trkpt lat="45.25669" lon="5.80418">
        <ele>823.9</ele>
        <time>2011-10-16T11:28:52Z</time>
      </trkpt>
      <trkpt lat="45.25669" lon="5.80418">
        <ele>823.9</ele>
        <time>2011-10-16T11:28:52Z</time>
      </trkpt>
      <trkpt lat="45.25669" lon="5.80418">
        <ele>823.9</ele>
        <time>2011-10-16T11:28:55Z</time>
      </trkpt>
      <trkpt lat="45.25666" lon="5.80423">
        <ele>821.6</ele>
        <time>2011-10-16T11:29:08Z</time>
      </trkpt>
      <trkpt lat="45.25666" lon="5.80423">
        <ele>821.6</ele>
        <time>2011-10-16T11:29:08Z</time>
      </trkpt>
      <trkpt lat="45.25666" lon="5.80423">
        <ele>821.6</ele>
        <time>2011-10-16T11:30:01Z</time>
      </trkpt>
      <trkpt lat="45.25667" lon="5.80439">
        <ele>827.4</ele>
        <time>2011-10-16T11:30:16Z</time>
      </trkpt>
      <trkpt lat="45.25667" lon="5.80439">
        <ele>827.4</ele>
        <time>2011-10-16T11:30:16Z</time>
      </trkpt>
      <trkpt lat="45.25667" lon="5.80439">
        <ele>827.4</ele>
        <time>2011-10-16T11:32:31Z</time>
      </trkpt>
      <trkpt lat="45.25665" lon="5.80429">
        <ele>823.2</ele>
        <time>2011-10-16T11:32:32Z</time>
      </trkpt>
      <trkpt lat="45.25665" lon="5.80422">
        <ele>821.1</ele>
        <time>2011-10-16T12:02:42Z</time>
      </trkpt>
      <trkpt lat="45.25663" lon="5.80414">
        <ele>821.2</ele>
        <time>2011-10-16T12:03:49Z</time>
      </trkpt>
      <trkpt lat="45.25664" lon="5.80405">
        <ele>820.4</ele>
        <time>2011-10-16T12:03:52Z</time>
      </trkpt>
      <trkpt lat="45.25664" lon="5.80398">
        <ele>820.4</ele>
        <time>2011-10-16T12:03:54Z</time>
      </trkpt>
      <trkpt lat="45.25662" lon="5.80391">
        <ele>820.6</ele>
        <time>2011-10-16T12:03:56Z</time>
      </trkpt>
      <trkpt lat="45.2566" lon="5.80385">
        <ele>820.8</ele>
        <time>2011-10-16T12:03:58Z</time>
      </trkpt>
      <trkpt lat="45.25657" lon="5.80378">
        <ele>820.8</ele>
        <time>2011-10-16T12:04:01Z</time>
      </trkpt>
      <trkpt lat="45.25653" lon="5.8037">
        <ele>805.5</ele>
        <time>2011-10-16T12:04:23Z</time>
      </trkpt>
      <trkpt lat="45.25653" lon="5.8037">
        <ele>805.5</ele>
        <time>2011-10-16T12:04:23Z</time>
      </trkpt>
      <trkpt lat="45.25653" lon="5.8037">
        <ele>805.5</ele>
        <time>2011-10-16T12:04:29Z</time>
      </trkpt>
      <trkpt lat="45.25656" lon="5.80379">
        <ele>812</ele>
        <time>2011-10-16T12:04:32Z</time>
      </trkpt>
      <trkpt lat="45.25656" lon="5.80386">
        <ele>813.3</ele>
        <time>2011-10-16T12:04:34Z</time>
      </trkpt>
      <trkpt lat="45.2565" lon="5.80384">
        <ele>815</ele>
        <time>2011-10-16T12:04:44Z</time>
      </trkpt>
      <trkpt lat="45.25647" lon="5.8038">
        <ele>814.4</ele>
        <time>2011-10-16T12:04:49Z</time>
      </trkpt>
      <trkpt lat="45.25648" lon="5.80387">
        <ele>809.5</ele>
        <time>2011-10-16T12:05:15Z</time>
      </trkpt>
      <trkpt lat="45.25647" lon="5.80394">
        <ele>809.7</ele>
        <time>2011-10-16T12:05:17Z</time>
      </trkpt>
      <trkpt lat="45.25644" lon="5.80399">
        <ele>810.2</ele>
        <time>2011-10-16T12:05:19Z</time>
      </trkpt>
      <trkpt lat="45.2564" lon="5.80401">
        <ele>811.5</ele>
        <time>2011-10-16T12:05:26Z</time>
      </trkpt>
      <trkpt lat="45.2564" lon="5.80395">
        <ele>808.3</ele>
        <time>2011-10-16T12:06:13Z</time>
      </trkpt>
      <trkpt lat="45.25638" lon="5.80386">
        <ele>804</ele>
        <time>2011-10-16T12:06:48Z</time>
      </trkpt>
      <trkpt lat="45.25641" lon="5.80392">
        <ele>803.8</ele>
        <time>2011-10-16T12:07:07Z</time>
      </trkpt>
      <trkpt lat="45.25641" lon="5.804">
        <ele>804</ele>
        <time>2011-10-16T12:07:10Z</time>
      </trkpt>
      <trkpt lat="45.25637" lon="5.80408">
        <ele>804.2</ele>
        <time>2011-10-16T12:07:12Z</time>
      </trkpt>
      <trkpt lat="45.25634" lon="5.80414">
        <ele>803.9</ele>
        <time>2011-10-16T12:07:13Z</time>
      </trkpt>
      <trkpt lat="45.25631" lon="5.80419">
        <ele>803.2</ele>
        <time>2011-10-16T12:07:14Z</time>
      </trkpt>
      <trkpt lat="45.25627" lon="5.80427">
        <ele>802.2</ele>
        <time>2011-10-16T12:07:16Z</time>
      </trkpt>
      <trkpt lat="45.25627" lon="5.80433">
        <ele>800.4</ele>
        <time>2011-10-16T12:07:27Z</time>
      </trkpt>
      <trkpt lat="45.2563" lon="5.80439">
        <ele>798.6</ele>
        <time>2011-10-16T12:07:36Z</time>
      </trkpt>
      <trkpt lat="45.25625" lon="5.80441">
        <ele>795.7</ele>
        <time>2011-10-16T12:07:45Z</time>
      </trkpt>
      <trkpt lat="45.2562" lon="5.80439">
        <ele>794.9</ele>
        <time>2011-10-16T12:07:47Z</time>
      </trkpt>
      <trkpt lat="45.25617" lon="5.80434">
        <ele>793.6</ele>
        <time>2011-10-16T12:07:49Z</time>
      </trkpt>
      <trkpt lat="45.25618" lon="5.80426">
        <ele>792.6</ele>
        <time>2011-10-16T12:07:51Z</time>
      </trkpt>
      <trkpt lat="45.25622" lon="5.80418">
        <ele>792.1</ele>
        <time>2011-10-16T12:07:53Z</time>
      </trkpt>
      <trkpt lat="45.25623" lon="5.80411">
        <ele>792.2</ele>
        <time>2011-10-16T12:07:59Z</time>
      </trkpt>
      <trkpt lat="45.2562" lon="5.80416">
        <ele>790.4</ele>
        <time>2011-10-16T12:08:13Z</time>
      </trkpt>
      <trkpt lat="45.25614" lon="5.80419">
        <ele>790.3</ele>
        <time>2011-10-16T12:08:15Z</time>
      </trkpt>
      <trkpt lat="45.25609" lon="5.80423">
        <ele>790.5</ele>
        <time>2011-10-16T12:08:17Z</time>
      </trkpt>
      <trkpt lat="45.25604" lon="5.80429">
        <ele>790.4</ele>
        <time>2011-10-16T12:08:19Z</time>
      </trkpt>
      <trkpt lat="45.25603" lon="5.80436">
        <ele>789.8</ele>
        <time>2011-10-16T12:08:21Z</time>
      </trkpt>
      <trkpt lat="45.25604" lon="5.80444">
        <ele>789.7</ele>
        <time>2011-10-16T12:08:23Z</time>
      </trkpt>
      <trkpt lat="45.25607" lon="5.80449">
        <ele>789</ele>
        <time>2011-10-16T12:08:25Z</time>
      </trkpt>
      <trkpt lat="45.25611" lon="5.80453">
        <ele>787.6</ele>
        <time>2011-10-16T12:08:28Z</time>
      </trkpt>
      <trkpt lat="45.25606" lon="5.80454">
        <ele>783.5</ele>
        <time>2011-10-16T12:08:46Z</time>
      </trkpt>
      <trkpt lat="45.25601" lon="5.8045">
        <ele>782.3</ele>
        <time>2011-10-16T12:08:49Z</time>
      </trkpt>
      <trkpt lat="45.25599" lon="5.80442">
        <ele>781.5</ele>
        <time>2011-10-16T12:08:51Z</time>
      </trkpt>
      <trkpt lat="45.256" lon="5.80431">
        <ele>776.2</ele>
        <time>2011-10-16T12:09:00Z</time>
      </trkpt>
      <trkpt lat="45.25597" lon="5.80437">
        <ele>775.7</ele>
        <time>2011-10-16T12:09:18Z</time>
      </trkpt>
      <trkpt lat="45.25596" lon="5.80444">
        <ele>774.8</ele>
        <time>2011-10-16T12:09:20Z</time>
      </trkpt>
      <trkpt lat="45.25601" lon="5.80456">
        <ele>773.2</ele>
        <time>2011-10-16T12:09:22Z</time>
      </trkpt>
      <trkpt lat="45.25605" lon="5.8046">
        <ele>772.5</ele>
        <time>2011-10-16T12:09:23Z</time>
      </trkpt>
      <trkpt lat="45.25609" lon="5.80464">
        <ele>771.9</ele>
        <time>2011-10-16T12:09:24Z</time>
      </trkpt>
      <trkpt lat="45.25612" lon="5.80469">
        <ele>771.2</ele>
        <time>2011-10-16T12:09:25Z</time>
      </trkpt>
      <trkpt lat="45.25618" lon="5.80478">
        <ele>770.2</ele>
        <time>2011-10-16T12:09:27Z</time>
      </trkpt>
      <trkpt lat="45.25624" lon="5.80484">
        <ele>769.4</ele>
        <time>2011-10-16T12:09:29Z</time>
      </trkpt>
      <trkpt lat="45.25629" lon="5.80488">
        <ele>769.3</ele>
        <time>2011-10-16T12:09:31Z</time>
      </trkpt>
      <trkpt lat="45.25636" lon="5.80494">
        <ele>768.4</ele>
        <time>2011-10-16T12:09:33Z</time>
      </trkpt>
      <trkpt lat="45.25639" lon="5.80498">
        <ele>767.7</ele>
        <time>2011-10-16T12:09:34Z</time>
      </trkpt>
      <trkpt lat="45.25643" lon="5.80501">
        <ele>767.4</ele>
        <time>2011-10-16T12:09:35Z</time>
      </trkpt>
      <trkpt lat="45.25648" lon="5.80506">
        <ele>767.2</ele>
        <time>2011-10-16T12:09:36Z</time>
      </trkpt>
      <trkpt lat="45.25653" lon="5.8051">
        <ele>766.9</ele>
        <time>2011-10-16T12:09:37Z</time>
      </trkpt>
      <trkpt lat="45.25657" lon="5.80513">
        <ele>766.1</ele>
        <time>2011-10-16T12:09:38Z</time>
      </trkpt>
      <trkpt lat="45.25662" lon="5.80516">
        <ele>765.6</ele>
        <time>2011-10-16T12:09:39Z</time>
      </trkpt>
      <trkpt lat="45.25667" lon="5.80518">
        <ele>765</ele>
        <time>2011-10-16T12:09:40Z</time>
      </trkpt>
      <trkpt lat="45.25671" lon="5.8052">
        <ele>764.5</ele>
        <time>2011-10-16T12:09:41Z</time>
      </trkpt>
      <trkpt lat="45.25676" lon="5.80522">
        <ele>763.1</ele>
        <time>2011-10-16T12:09:43Z</time>
      </trkpt>
      <trkpt lat="45.2567" lon="5.80524">
        <ele>761</ele>
        <time>2011-10-16T12:09:50Z</time>
      </trkpt>
      <trkpt lat="45.25669" lon="5.8053">
        <ele>759.5</ele>
        <time>2011-10-16T12:10:01Z</time>
      </trkpt>
      <trkpt lat="45.25665" lon="5.80536">
        <ele>758.2</ele>
        <time>2011-10-16T12:10:08Z</time>
      </trkpt>
      <trkpt lat="45.2566" lon="5.80539">
        <ele>753.7</ele>
        <time>2011-10-16T12:10:16Z</time>
      </trkpt>
      <trkpt lat="45.25655" lon="5.80539">
        <ele>749.2</ele>
        <time>2011-10-16T12:10:25Z</time>
      </trkpt>
      <trkpt lat="45.25652" lon="5.80544">
        <ele>746.5</ele>
        <time>2011-10-16T12:10:31Z</time>
      </trkpt>
      <trkpt lat="45.25647" lon="5.80542">
        <ele>745.2</ele>
        <time>2011-10-16T12:10:37Z</time>
      </trkpt>
      <trkpt lat="45.25642" lon="5.80544">
        <ele>741.5</ele>
        <time>2011-10-16T12:10:47Z</time>
      </trkpt>
      <trkpt lat="45.2564" lon="5.80549">
        <ele>740.1</ele>
        <time>2011-10-16T12:10:51Z</time>
      </trkpt>
      <trkpt lat="45.25635" lon="5.80552">
        <ele>738.3</ele>
        <time>2011-10-16T12:10:55Z</time>
      </trkpt>
      <trkpt lat="45.2563" lon="5.80554">
        <ele>736.3</ele>
        <time>2011-10-16T12:10:59Z</time>
      </trkpt>
      <trkpt lat="45.2563" lon="5.80561">
        <ele>735</ele>
        <time>2011-10-16T12:11:03Z</time>
      </trkpt>
      <trkpt lat="45.25625" lon="5.80561">
        <ele>733.8</ele>
        <time>2011-10-16T12:11:08Z</time>
      </trkpt>
      <trkpt lat="45.25621" lon="5.80557">
        <ele>732.8</ele>
        <time>2011-10-16T12:11:10Z</time>
      </trkpt>
      <trkpt lat="45.25618" lon="5.80563">
        <ele>728.5</ele>
        <time>2011-10-16T12:11:16Z</time>
      </trkpt>
      <trkpt lat="45.25616" lon="5.8057">
        <ele>727.4</ele>
        <time>2011-10-16T12:11:19Z</time>
      </trkpt>
      <trkpt lat="45.25611" lon="5.80566">
        <ele>726</ele>
        <time>2011-10-16T12:11:23Z</time>
      </trkpt>
      <trkpt lat="45.2561" lon="5.80574">
        <ele>723.9</ele>
        <time>2011-10-16T12:11:28Z</time>
      </trkpt>
      <trkpt lat="45.25604" lon="5.80572">
        <ele>722</ele>
        <time>2011-10-16T12:11:32Z</time>
      </trkpt>
      <trkpt lat="45.25602" lon="5.80579">
        <ele>720</ele>
        <time>2011-10-16T12:11:38Z</time>
      </trkpt>
      <trkpt lat="45.25602" lon="5.80586">
        <ele>718.6</ele>
        <time>2011-10-16T12:11:41Z</time>
      </trkpt>
      <trkpt lat="45.25598" lon="5.80583">
        <ele>717.7</ele>
        <time>2011-10-16T12:11:46Z</time>
      </trkpt>
      <trkpt lat="45.25597" lon="5.8059">
        <ele>716.5</ele>
        <time>2011-10-16T12:11:50Z</time>
      </trkpt>
      <trkpt lat="45.25598" lon="5.80596">
        <ele>715.9</ele>
        <time>2011-10-16T12:11:52Z</time>
      </trkpt>
      <trkpt lat="45.25597" lon="5.80604">
        <ele>714.9</ele>
        <time>2011-10-16T12:11:55Z</time>
      </trkpt>
      <trkpt lat="45.25592" lon="5.80603">
        <ele>713.9</ele>
        <time>2011-10-16T12:12:16Z</time>
      </trkpt>
      <trkpt lat="45.25588" lon="5.80607">
        <ele>712.9</ele>
        <time>2011-10-16T12:12:22Z</time>
      </trkpt>
      <trkpt lat="45.25581" lon="5.80609">
        <ele>712.3</ele>
        <time>2011-10-16T12:12:25Z</time>
      </trkpt>
      <trkpt lat="45.25575" lon="5.80609">
        <ele>711.2</ele>
        <time>2011-10-16T12:12:28Z</time>
      </trkpt>
      <trkpt lat="45.25576" lon="5.80617">
        <ele>707.9</ele>
        <time>2011-10-16T12:12:34Z</time>
      </trkpt>
      <trkpt lat="45.25572" lon="5.80622">
        <ele>705.1</ele>
        <time>2011-10-16T12:12:40Z</time>
      </trkpt>
      <trkpt lat="45.25568" lon="5.8063">
        <ele>704.4</ele>
        <time>2011-10-16T12:12:47Z</time>
      </trkpt>
      <trkpt lat="45.25565" lon="5.80634">
        <ele>703.7</ele>
        <time>2011-10-16T12:12:50Z</time>
      </trkpt>
      <trkpt lat="45.25561" lon="5.80639">
        <ele>703.3</ele>
        <time>2011-10-16T12:12:53Z</time>
      </trkpt>
      <trkpt lat="45.25557" lon="5.80644">
        <ele>701.2</ele>
        <time>2011-10-16T12:12:56Z</time>
      </trkpt>
      <trkpt lat="45.25556" lon="5.80651">
        <ele>694.9</ele>
        <time>2011-10-16T12:13:16Z</time>
      </trkpt>
      <trkpt lat="45.25556" lon="5.80659">
        <ele>691.5</ele>
        <time>2011-10-16T12:13:26Z</time>
      </trkpt>
      <trkpt lat="45.25556" lon="5.80666">
        <ele>690.5</ele>
        <time>2011-10-16T12:13:28Z</time>
      </trkpt>
      <trkpt lat="45.25556" lon="5.80679">
        <ele>689.4</ele>
        <time>2011-10-16T12:13:30Z</time>
      </trkpt>
      <trkpt lat="45.25557" lon="5.80688">
        <ele>688.5</ele>
        <time>2011-10-16T12:13:31Z</time>
      </trkpt>
      <trkpt lat="45.25557" lon="5.80698">
        <ele>687.5</ele>
        <time>2011-10-16T12:13:32Z</time>
      </trkpt>
      <trkpt lat="45.25556" lon="5.80705">
        <ele>687.3</ele>
        <time>2011-10-16T12:13:33Z</time>
      </trkpt>
      <trkpt lat="45.25555" lon="5.80712">
        <ele>686.9</ele>
        <time>2011-10-16T12:13:34Z</time>
      </trkpt>
      <trkpt lat="45.25554" lon="5.80718">
        <ele>686.7</ele>
        <time>2011-10-16T12:13:35Z</time>
      </trkpt>
      <trkpt lat="45.2555" lon="5.80724">
        <ele>686.5</ele>
        <time>2011-10-16T12:13:36Z</time>
      </trkpt>
      <trkpt lat="45.25546" lon="5.8073">
        <ele>685.9</ele>
        <time>2011-10-16T12:13:37Z</time>
      </trkpt>
      <trkpt lat="45.2554" lon="5.80733">
        <ele>685.5</ele>
        <time>2011-10-16T12:13:38Z</time>
      </trkpt>
      <trkpt lat="45.25535" lon="5.80736">
        <ele>685.2</ele>
        <time>2011-10-16T12:13:39Z</time>
      </trkpt>
      <trkpt lat="45.2553" lon="5.80738">
        <ele>684.9</ele>
        <time>2011-10-16T12:13:40Z</time>
      </trkpt>
      <trkpt lat="45.25526" lon="5.8074">
        <ele>684.5</ele>
        <time>2011-10-16T12:13:41Z</time>
      </trkpt>
      <trkpt lat="45.25519" lon="5.80739">
        <ele>683.9</ele>
        <time>2011-10-16T12:13:43Z</time>
      </trkpt>
      <trkpt lat="45.25513" lon="5.80738">
        <ele>682.4</ele>
        <time>2011-10-16T12:13:46Z</time>
      </trkpt>
      <trkpt lat="45.25506" lon="5.80739">
        <ele>680.4</ele>
        <time>2011-10-16T12:13:49Z</time>
      </trkpt>
      <trkpt lat="45.25501" lon="5.80742">
        <ele>679</ele>
        <time>2011-10-16T12:13:51Z</time>
      </trkpt>
      <trkpt lat="45.25497" lon="5.80747">
        <ele>678.2</ele>
        <time>2011-10-16T12:13:53Z</time>
      </trkpt>
      <trkpt lat="45.25492" lon="5.80752">
        <ele>677.6</ele>
        <time>2011-10-16T12:13:55Z</time>
      </trkpt>
      <trkpt lat="45.25486" lon="5.80758">
        <ele>677.1</ele>
        <time>2011-10-16T12:13:57Z</time>
      </trkpt>
      <trkpt lat="45.25482" lon="5.80761">
        <ele>677</ele>
        <time>2011-10-16T12:13:59Z</time>
      </trkpt>
      <trkpt lat="45.25483" lon="5.80754">
        <ele>674.7</ele>
        <time>2011-10-16T12:14:10Z</time>
      </trkpt>
      <trkpt lat="45.2548" lon="5.80746">
        <ele>674.1</ele>
        <time>2011-10-16T12:14:30Z</time>
      </trkpt>
      <trkpt lat="45.25475" lon="5.80743">
        <ele>673.3</ele>
        <time>2011-10-16T12:14:36Z</time>
      </trkpt>
      <trkpt lat="45.25471" lon="5.8074">
        <ele>673.2</ele>
        <time>2011-10-16T12:14:43Z</time>
      </trkpt>
      <trkpt lat="45.25464" lon="5.80739">
        <ele>673.6</ele>
        <time>2011-10-16T12:14:48Z</time>
      </trkpt>
      <trkpt lat="45.25458" lon="5.80738">
        <ele>673.2</ele>
        <time>2011-10-16T12:14:52Z</time>
      </trkpt>
      <trkpt lat="45.25454" lon="5.80735">
        <ele>673</ele>
        <time>2011-10-16T12:14:55Z</time>
      </trkpt>
      <trkpt lat="45.25449" lon="5.80731">
        <ele>672.2</ele>
        <time>2011-10-16T12:14:58Z</time>
      </trkpt>
      <trkpt lat="45.25444" lon="5.80729">
        <ele>672.3</ele>
        <time>2011-10-16T12:15:01Z</time>
      </trkpt>
      <trkpt lat="45.2544" lon="5.80726">
        <ele>671.9</ele>
        <time>2011-10-16T12:15:05Z</time>
      </trkpt>
      <trkpt lat="45.25435" lon="5.80723">
        <ele>671.5</ele>
        <time>2011-10-16T12:15:08Z</time>
      </trkpt>
      <trkpt lat="45.25431" lon="5.80718">
        <ele>671.3</ele>
        <time>2011-10-16T12:15:12Z</time>
      </trkpt>
      <trkpt lat="45.25427" lon="5.80714">
        <ele>672.1</ele>
        <time>2011-10-16T12:15:16Z</time>
      </trkpt>
      <trkpt lat="45.25425" lon="5.80708">
        <ele>671.9</ele>
        <time>2011-10-16T12:15:18Z</time>
      </trkpt>
      <trkpt lat="45.25424" lon="5.80702">
        <ele>672.2</ele>
        <time>2011-10-16T12:15:20Z</time>
      </trkpt>
      <trkpt lat="45.25422" lon="5.80694">
        <ele>672.7</ele>
        <time>2011-10-16T12:15:22Z</time>
      </trkpt>
      <trkpt lat="45.2542" lon="5.80684">
        <ele>672.5</ele>
        <time>2011-10-16T12:15:25Z</time>
      </trkpt>
      <trkpt lat="45.25418" lon="5.80677">
        <ele>671.9</ele>
        <time>2011-10-16T12:15:27Z</time>
      </trkpt>
      <trkpt lat="45.25418" lon="5.80669">
        <ele>672.4</ele>
        <time>2011-10-16T12:15:29Z</time>
      </trkpt>
      <trkpt lat="45.2542" lon="5.80662">
        <ele>672.2</ele>
        <time>2011-10-16T12:15:32Z</time>
      </trkpt>
      <trkpt lat="45.25423" lon="5.80654">
        <ele>672</ele>
        <time>2011-10-16T12:15:35Z</time>
      </trkpt>
      <trkpt lat="45.25424" lon="5.80648">
        <ele>671.6</ele>
        <time>2011-10-16T12:15:37Z</time>
      </trkpt>
      <trkpt lat="45.25424" lon="5.80639">
        <ele>671.4</ele>
        <time>2011-10-16T12:15:39Z</time>
      </trkpt>
      <trkpt lat="45.25423" lon="5.80629">
        <ele>671.2</ele>
        <time>2011-10-16T12:15:41Z</time>
      </trkpt>
      <trkpt lat="45.25421" lon="5.80619">
        <ele>670.9</ele>
        <time>2011-10-16T12:15:43Z</time>
      </trkpt>
      <trkpt lat="45.25417" lon="5.80613">
        <ele>671.1</ele>
        <time>2011-10-16T12:15:45Z</time>
      </trkpt>
      <trkpt lat="45.25409" lon="5.80612">
        <ele>671.1</ele>
        <time>2011-10-16T12:15:47Z</time>
      </trkpt>
      <trkpt lat="45.25404" lon="5.80612">
        <ele>671.2</ele>
        <time>2011-10-16T12:15:48Z</time>
      </trkpt>
      <trkpt lat="45.25399" lon="5.80613">
        <ele>671.4</ele>
        <time>2011-10-16T12:15:49Z</time>
      </trkpt>
      <trkpt lat="45.25391" lon="5.80614">
        <ele>671.6</ele>
        <time>2011-10-16T12:15:51Z</time>
      </trkpt>
      <trkpt lat="45.25384" lon="5.80613">
        <ele>671.3</ele>
        <time>2011-10-16T12:15:53Z</time>
      </trkpt>
      <trkpt lat="45.25379" lon="5.80612">
        <ele>671.4</ele>
        <time>2011-10-16T12:15:59Z</time>
      </trkpt>
      <trkpt lat="45.2537" lon="5.80613">
        <ele>672.8</ele>
        <time>2011-10-16T12:16:55Z</time>
      </trkpt>
      <trkpt lat="45.25364" lon="5.80611">
        <ele>672.7</ele>
        <time>2011-10-16T12:17:01Z</time>
      </trkpt>
      <trkpt lat="45.25358" lon="5.8061">
        <ele>672.9</ele>
        <time>2011-10-16T12:17:05Z</time>
      </trkpt>
      <trkpt lat="45.25353" lon="5.80608">
        <ele>672.3</ele>
        <time>2011-10-16T12:17:12Z</time>
      </trkpt>
      <trkpt lat="45.25348" lon="5.80606">
        <ele>672.2</ele>
        <time>2011-10-16T12:17:15Z</time>
      </trkpt>
      <trkpt lat="45.25343" lon="5.80604">
        <ele>671.7</ele>
        <time>2011-10-16T12:17:19Z</time>
      </trkpt>
      <trkpt lat="45.25338" lon="5.80602">
        <ele>671.4</ele>
        <time>2011-10-16T12:17:23Z</time>
      </trkpt>
      <trkpt lat="45.25333" lon="5.80602">
        <ele>672</ele>
        <time>2011-10-16T12:17:26Z</time>
      </trkpt>
      <trkpt lat="45.25328" lon="5.80601">
        <ele>672.3</ele>
        <time>2011-10-16T12:17:29Z</time>
      </trkpt>
      <trkpt lat="45.25322" lon="5.806">
        <ele>672.4</ele>
        <time>2011-10-16T12:17:33Z</time>
      </trkpt>
      <trkpt lat="45.25317" lon="5.80597">
        <ele>672.5</ele>
        <time>2011-10-16T12:17:37Z</time>
      </trkpt>
      <trkpt lat="45.25313" lon="5.80592">
        <ele>672.9</ele>
        <time>2011-10-16T12:17:40Z</time>
      </trkpt>
      <trkpt lat="45.25309" lon="5.80588">
        <ele>672.9</ele>
        <time>2011-10-16T12:17:43Z</time>
      </trkpt>
      <trkpt lat="45.25304" lon="5.80584">
        <ele>672.6</ele>
        <time>2011-10-16T12:17:47Z</time>
      </trkpt>
      <trkpt lat="45.25299" lon="5.80582">
        <ele>672.4</ele>
        <time>2011-10-16T12:17:51Z</time>
      </trkpt>
      <trkpt lat="45.25294" lon="5.80579">
        <ele>672.9</ele>
        <time>2011-10-16T12:17:54Z</time>
      </trkpt>
      <trkpt lat="45.2529" lon="5.80576">
        <ele>673</ele>
        <time>2011-10-16T12:17:57Z</time>
      </trkpt>
      <trkpt lat="45.25285" lon="5.80573">
        <ele>673</ele>
        <time>2011-10-16T12:18:00Z</time>
      </trkpt>
      <trkpt lat="45.25279" lon="5.8057">
        <ele>673</ele>
        <time>2011-10-16T12:18:03Z</time>
      </trkpt>
      <trkpt lat="45.25272" lon="5.80567">
        <ele>673</ele>
        <time>2011-10-16T12:18:06Z</time>
      </trkpt>
      <trkpt lat="45.25267" lon="5.80564">
        <ele>672.9</ele>
        <time>2011-10-16T12:18:09Z</time>
      </trkpt>
      <trkpt lat="45.25262" lon="5.80563">
        <ele>672.7</ele>
        <time>2011-10-16T12:18:11Z</time>
      </trkpt>
      <trkpt lat="45.25257" lon="5.80564">
        <ele>672.6</ele>
        <time>2011-10-16T12:18:35Z</time>
      </trkpt>
      <trkpt lat="45.25252" lon="5.80562">
        <ele>673.4</ele>
        <time>2011-10-16T12:18:38Z</time>
      </trkpt>
      <trkpt lat="45.25248" lon="5.80559">
        <ele>673.5</ele>
        <time>2011-10-16T12:18:40Z</time>
      </trkpt>
      <trkpt lat="45.25241" lon="5.80557">
        <ele>673.4</ele>
        <time>2011-10-16T12:18:42Z</time>
      </trkpt>
      <trkpt lat="45.25234" lon="5.80555">
        <ele>673.5</ele>
        <time>2011-10-16T12:18:44Z</time>
      </trkpt>
      <trkpt lat="45.25227" lon="5.80552">
        <ele>674</ele>
        <time>2011-10-16T12:18:46Z</time>
      </trkpt>
      <trkpt lat="45.2522" lon="5.80551">
        <ele>674.4</ele>
        <time>2011-10-16T12:18:48Z</time>
      </trkpt>
      <trkpt lat="45.25215" lon="5.80549">
        <ele>674.4</ele>
        <time>2011-10-16T12:18:50Z</time>
      </trkpt>
      <trkpt lat="45.2521" lon="5.80548">
        <ele>674.5</ele>
        <time>2011-10-16T12:18:52Z</time>
      </trkpt>
      <trkpt lat="45.25206" lon="5.80545">
        <ele>675</ele>
        <time>2011-10-16T12:18:54Z</time>
      </trkpt>
      <trkpt lat="45.252" lon="5.80544">
        <ele>675.5</ele>
        <time>2011-10-16T12:18:57Z</time>
      </trkpt>
      <trkpt lat="45.25195" lon="5.80542">
        <ele>676.4</ele>
        <time>2011-10-16T12:19:00Z</time>
      </trkpt>
      <trkpt lat="45.2519" lon="5.8054">
        <ele>677</ele>
        <time>2011-10-16T12:19:03Z</time>
      </trkpt>
      <trkpt lat="45.25186" lon="5.80538">
        <ele>677</ele>
        <time>2011-10-16T12:19:06Z</time>
      </trkpt>
      <trkpt lat="45.25179" lon="5.80538">
        <ele>677.6</ele>
        <time>2011-10-16T12:19:10Z</time>
      </trkpt>
      <trkpt lat="45.25174" lon="5.80538">
        <ele>678.2</ele>
        <time>2011-10-16T12:19:12Z</time>
      </trkpt>
      <trkpt lat="45.25167" lon="5.80539">
        <ele>678.6</ele>
        <time>2011-10-16T12:19:15Z</time>
      </trkpt>
      <trkpt lat="45.25161" lon="5.8054">
        <ele>678.3</ele>
        <time>2011-10-16T12:19:18Z</time>
      </trkpt>
      <trkpt lat="45.25155" lon="5.80542">
        <ele>679</ele>
        <time>2011-10-16T12:19:21Z</time>
      </trkpt>
      <trkpt lat="45.2515" lon="5.80542">
        <ele>677.9</ele>
        <time>2011-10-16T12:19:26Z</time>
      </trkpt>
      <trkpt lat="45.25152" lon="5.80536">
        <ele>676.9</ele>
        <time>2011-10-16T12:19:30Z</time>
      </trkpt>
      <trkpt lat="45.25156" lon="5.80532">
        <ele>675.8</ele>
        <time>2011-10-16T12:19:32Z</time>
      </trkpt>
      <trkpt lat="45.25162" lon="5.80528">
        <ele>675.3</ele>
        <time>2011-10-16T12:19:34Z</time>
      </trkpt>
      <trkpt lat="45.25166" lon="5.80525">
        <ele>675.3</ele>
        <time>2011-10-16T12:19:36Z</time>
      </trkpt>
      <trkpt lat="45.2517" lon="5.8052">
        <ele>675.6</ele>
        <time>2011-10-16T12:19:38Z</time>
      </trkpt>
      <trkpt lat="45.25174" lon="5.80515">
        <ele>675.8</ele>
        <time>2011-10-16T12:19:40Z</time>
      </trkpt>
      <trkpt lat="45.25179" lon="5.80509">
        <ele>676</ele>
        <time>2011-10-16T12:19:43Z</time>
      </trkpt>
      <trkpt lat="45.25183" lon="5.80503">
        <ele>676.1</ele>
        <time>2011-10-16T12:19:46Z</time>
      </trkpt>
      <trkpt lat="45.25186" lon="5.80499">
        <ele>676.4</ele>
        <time>2011-10-16T12:19:49Z</time>
      </trkpt>
      <trkpt lat="45.25189" lon="5.80494">
        <ele>676.5</ele>
        <time>2011-10-16T12:19:53Z</time>
      </trkpt>
      <trkpt lat="45.25194" lon="5.8049">
        <ele>675.9</ele>
        <time>2011-10-16T12:19:58Z</time>
      </trkpt>
      <trkpt lat="45.25198" lon="5.80487">
        <ele>676.4</ele>
        <time>2011-10-16T12:20:02Z</time>
      </trkpt>
      <trkpt lat="45.25203" lon="5.80484">
        <ele>677.5</ele>
        <time>2011-10-16T12:20:08Z</time>
      </trkpt>
      <trkpt lat="45.25208" lon="5.80482">
        <ele>678.2</ele>
        <time>2011-10-16T12:20:12Z</time>
      </trkpt>
      <trkpt lat="45.25213" lon="5.80479">
        <ele>678.1</ele>
        <time>2011-10-16T12:20:15Z</time>
      </trkpt>
      <trkpt lat="45.25217" lon="5.80475">
        <ele>677.8</ele>
        <time>2011-10-16T12:20:18Z</time>
      </trkpt>
      <trkpt lat="45.25221" lon="5.80471">
        <ele>677.5</ele>
        <time>2011-10-16T12:20:21Z</time>
      </trkpt>
      <trkpt lat="45.25225" lon="5.80466">
        <ele>677.4</ele>
        <time>2011-10-16T12:20:26Z</time>
      </trkpt>
      <trkpt lat="45.2523" lon="5.80462">
        <ele>679.7</ele>
        <time>2011-10-16T12:20:45Z</time>
      </trkpt>
      <trkpt lat="45.25233" lon="5.80457">
        <ele>680.6</ele>
        <time>2011-10-16T12:21:00Z</time>
      </trkpt>
      <trkpt lat="45.25235" lon="5.8045">
        <ele>681</ele>
        <time>2011-10-16T12:21:06Z</time>
      </trkpt>
      <trkpt lat="45.25236" lon="5.80443">
        <ele>682.6</ele>
        <time>2011-10-16T12:21:13Z</time>
      </trkpt>
      <trkpt lat="45.25239" lon="5.80438">
        <ele>683.6</ele>
        <time>2011-10-16T12:21:19Z</time>
      </trkpt>
      <trkpt lat="45.25243" lon="5.80433">
        <ele>687.6</ele>
        <time>2011-10-16T12:21:33Z</time>
      </trkpt>
      <trkpt lat="45.25247" lon="5.80429">
        <ele>688.1</ele>
        <time>2011-10-16T12:21:38Z</time>
      </trkpt>
      <trkpt lat="45.25251" lon="5.80425">
        <ele>688.3</ele>
        <time>2011-10-16T12:21:42Z</time>
      </trkpt>
      <trkpt lat="45.25254" lon="5.80421">
        <ele>688.6</ele>
        <time>2011-10-16T12:21:46Z</time>
      </trkpt>
      <trkpt lat="45.25258" lon="5.80415">
        <ele>688.5</ele>
        <time>2011-10-16T12:21:50Z</time>
      </trkpt>
      <trkpt lat="45.25262" lon="5.8041">
        <ele>691.8</ele>
        <time>2011-10-16T12:22:03Z</time>
      </trkpt>
      <trkpt lat="45.25265" lon="5.80406">
        <ele>691.8</ele>
        <time>2011-10-16T12:22:07Z</time>
      </trkpt>
      <trkpt lat="45.25268" lon="5.80402">
        <ele>691.9</ele>
        <time>2011-10-16T12:22:11Z</time>
      </trkpt>
      <trkpt lat="45.25273" lon="5.80398">
        <ele>692.9</ele>
        <time>2011-10-16T12:22:16Z</time>
      </trkpt>
      <trkpt lat="45.25277" lon="5.80394">
        <ele>696.6</ele>
        <time>2011-10-16T12:22:44Z</time>
      </trkpt>
      <trkpt lat="45.25279" lon="5.80386">
        <ele>696.5</ele>
        <time>2011-10-16T12:22:51Z</time>
      </trkpt>
      <trkpt lat="45.25281" lon="5.8038">
        <ele>696.3</ele>
        <time>2011-10-16T12:22:56Z</time>
      </trkpt>
      <trkpt lat="45.25284" lon="5.80374">
        <ele>696.5</ele>
        <time>2011-10-16T12:23:01Z</time>
      </trkpt>
      <trkpt lat="45.25286" lon="5.80368">
        <ele>696.8</ele>
        <time>2011-10-16T12:23:06Z</time>
      </trkpt>
      <trkpt lat="45.25289" lon="5.80361">
        <ele>698.1</ele>
        <time>2011-10-16T12:23:14Z</time>
      </trkpt>
      <trkpt lat="45.25291" lon="5.80354">
        <ele>697.6</ele>
        <time>2011-10-16T12:23:34Z</time>
      </trkpt>
      <trkpt lat="45.25293" lon="5.80346">
        <ele>698.4</ele>
        <time>2011-10-16T12:24:01Z</time>
      </trkpt>
      <trkpt lat="45.25294" lon="5.80339">
        <ele>699.5</ele>
        <time>2011-10-16T12:24:07Z</time>
      </trkpt>
      <trkpt lat="45.25299" lon="5.80337">
        <ele>711.5</ele>
        <time>2011-10-16T12:24:36Z</time>
      </trkpt>
      <trkpt lat="45.25298" lon="5.80329">
        <ele>711</ele>
        <time>2011-10-16T12:24:43Z</time>
      </trkpt>
      <trkpt lat="45.25298" lon="5.80323">
        <ele>710.8</ele>
        <time>2011-10-16T12:24:48Z</time>
      </trkpt>
      <trkpt lat="45.25296" lon="5.80316">
        <ele>711.8</ele>
        <time>2011-10-16T12:24:54Z</time>
      </trkpt>
      <trkpt lat="45.25295" lon="5.80308">
        <ele>712.9</ele>
        <time>2011-10-16T12:25:02Z</time>
      </trkpt>
      <trkpt lat="45.25294" lon="5.80302">
        <ele>713.3</ele>
        <time>2011-10-16T12:25:07Z</time>
      </trkpt>
      <trkpt lat="45.25294" lon="5.80292">
        <ele>716.5</ele>
        <time>2011-10-16T12:25:40Z</time>
      </trkpt>
      <trkpt lat="45.2529" lon="5.80288">
        <ele>717.2</ele>
        <time>2011-10-16T12:25:45Z</time>
      </trkpt>
      <trkpt lat="45.25288" lon="5.8028">
        <ele>717.5</ele>
        <time>2011-10-16T12:25:49Z</time>
      </trkpt>
      <trkpt lat="45.25285" lon="5.80275">
        <ele>718.5</ele>
        <time>2011-10-16T12:25:52Z</time>
      </trkpt>
      <trkpt lat="45.25279" lon="5.80272">
        <ele>719.2</ele>
        <time>2011-10-16T12:25:55Z</time>
      </trkpt>
      <trkpt lat="45.25274" lon="5.8027">
        <ele>720.1</ele>
        <time>2011-10-16T12:25:58Z</time>
      </trkpt>
      <trkpt lat="45.2527" lon="5.80271">
        <ele>722.4</ele>
        <time>2011-10-16T12:26:19Z</time>
      </trkpt>
      <trkpt lat="45.25264" lon="5.8027">
        <ele>723.5</ele>
        <time>2011-10-16T12:26:24Z</time>
      </trkpt>
      <trkpt lat="45.2526" lon="5.8027">
        <ele>723.9</ele>
        <time>2011-10-16T12:26:27Z</time>
      </trkpt>
      <trkpt lat="45.25255" lon="5.80268">
        <ele>725.5</ele>
        <time>2011-10-16T12:26:33Z</time>
      </trkpt>
      <trkpt lat="45.2525" lon="5.80267">
        <ele>726.4</ele>
        <time>2011-10-16T12:26:37Z</time>
      </trkpt>
      <trkpt lat="45.25244" lon="5.80266">
        <ele>726.5</ele>
        <time>2011-10-16T12:26:41Z</time>
      </trkpt>
      <trkpt lat="45.25239" lon="5.80264">
        <ele>727.2</ele>
        <time>2011-10-16T12:26:45Z</time>
      </trkpt>
      <trkpt lat="45.25235" lon="5.8026">
        <ele>729.2</ele>
        <time>2011-10-16T12:26:50Z</time>
      </trkpt>
      <trkpt lat="45.25228" lon="5.8026">
        <ele>733</ele>
        <time>2011-10-16T12:27:10Z</time>
      </trkpt>
      <trkpt lat="45.25219" lon="5.80263">
        <ele>736.9</ele>
        <time>2011-10-16T12:28:06Z</time>
      </trkpt>
      <trkpt lat="45.25207" lon="5.80266">
        <ele>740.2</ele>
        <time>2011-10-16T12:28:33Z</time>
      </trkpt>
      <trkpt lat="45.25202" lon="5.80264">
        <ele>742.3</ele>
        <time>2011-10-16T12:28:37Z</time>
      </trkpt>
      <trkpt lat="45.25202" lon="5.80264">
        <ele>742.3</ele>
        <time>2011-10-16T12:28:37Z</time>
      </trkpt>
      <trkpt lat="45.25202" lon="5.80264">
        <ele>742.3</ele>
        <time>2011-10-16T12:28:57Z</time>
      </trkpt>
      <trkpt lat="45.25198" lon="5.80262">
        <ele>745.4</ele>
        <time>2011-10-16T12:28:59Z</time>
      </trkpt>
      <trkpt lat="45.25192" lon="5.80262">
        <ele>749.1</ele>
        <time>2011-10-16T12:29:12Z</time>
      </trkpt>
      <trkpt lat="45.25192" lon="5.80262">
        <ele>749.1</ele>
        <time>2011-10-16T12:29:12Z</time>
      </trkpt>
      <trkpt lat="45.25192" lon="5.80262">
        <ele>749.1</ele>
        <time>2011-10-16T12:30:18Z</time>
      </trkpt>
      <trkpt lat="45.25183" lon="5.80258">
        <ele>750</ele>
        <time>2011-10-16T12:30:19Z</time>
      </trkpt>
      <trkpt lat="45.25182" lon="5.80251">
        <ele>750.9</ele>
        <time>2011-10-16T12:30:24Z</time>
      </trkpt>
      <trkpt lat="45.25181" lon="5.8024">
        <ele>749.5</ele>
        <time>2011-10-16T12:30:27Z</time>
      </trkpt>
      <trkpt lat="45.25179" lon="5.8023">
        <ele>749.1</ele>
        <time>2011-10-16T12:30:29Z</time>
      </trkpt>
      <trkpt lat="45.25177" lon="5.8022">
        <ele>748.7</ele>
        <time>2011-10-16T12:30:31Z</time>
      </trkpt>
      <trkpt lat="45.25174" lon="5.8021">
        <ele>748.4</ele>
        <time>2011-10-16T12:30:33Z</time>
      </trkpt>
      <trkpt lat="45.25174" lon="5.80201">
        <ele>748.3</ele>
        <time>2011-10-16T12:30:35Z</time>
      </trkpt>
      <trkpt lat="45.25174" lon="5.80189">
        <ele>748.1</ele>
        <time>2011-10-16T12:30:37Z</time>
      </trkpt>
      <trkpt lat="45.25174" lon="5.80182">
        <ele>748.1</ele>
        <time>2011-10-16T12:30:38Z</time>
      </trkpt>
      <trkpt lat="45.25173" lon="5.80176">
        <ele>748.2</ele>
        <time>2011-10-16T12:30:39Z</time>
      </trkpt>
      <trkpt lat="45.25171" lon="5.80164">
        <ele>748.1</ele>
        <time>2011-10-16T12:30:41Z</time>
      </trkpt>
      <trkpt lat="45.25168" lon="5.80157">
        <ele>748.3</ele>
        <time>2011-10-16T12:30:43Z</time>
      </trkpt>
      <trkpt lat="45.25164" lon="5.80159">
        <ele>748.1</ele>
        <time>2011-10-16T12:30:46Z</time>
      </trkpt>
      <trkpt lat="45.25157" lon="5.80158">
        <ele>748</ele>
        <time>2011-10-16T12:30:49Z</time>
      </trkpt>
      <trkpt lat="45.25157" lon="5.8015">
        <ele>748.4</ele>
        <time>2011-10-16T12:31:22Z</time>
      </trkpt>
      <trkpt lat="45.25156" lon="5.80142">
        <ele>748.6</ele>
        <time>2011-10-16T12:31:25Z</time>
      </trkpt>
      <trkpt lat="45.25154" lon="5.80135">
        <ele>748.9</ele>
        <time>2011-10-16T12:31:28Z</time>
      </trkpt>
      <trkpt lat="45.2515" lon="5.80138">
        <ele>748.7</ele>
        <time>2011-10-16T12:31:40Z</time>
      </trkpt>
      <trkpt lat="45.25145" lon="5.80135">
        <ele>747.8</ele>
        <time>2011-10-16T12:31:49Z</time>
      </trkpt>
      <trkpt lat="45.25141" lon="5.80127">
        <ele>747.7</ele>
        <time>2011-10-16T12:31:52Z</time>
      </trkpt>
      <trkpt lat="45.25138" lon="5.80122">
        <ele>747.4</ele>
        <time>2011-10-16T12:31:54Z</time>
      </trkpt>
      <trkpt lat="45.25133" lon="5.8012">
        <ele>747.1</ele>
        <time>2011-10-16T12:31:56Z</time>
      </trkpt>
      <trkpt lat="45.25125" lon="5.80121">
        <ele>746.9</ele>
        <time>2011-10-16T12:31:58Z</time>
      </trkpt>
      <trkpt lat="45.25113" lon="5.80124">
        <ele>746.4</ele>
        <time>2011-10-16T12:32:00Z</time>
      </trkpt>
      <trkpt lat="45.25108" lon="5.80128">
        <ele>746.4</ele>
        <time>2011-10-16T12:32:01Z</time>
      </trkpt>
      <trkpt lat="45.25103" lon="5.80128">
        <ele>746.2</ele>
        <time>2011-10-16T12:32:02Z</time>
      </trkpt>
      <trkpt lat="45.25095" lon="5.80129">
        <ele>746.5</ele>
        <time>2011-10-16T12:32:04Z</time>
      </trkpt>
      <trkpt lat="45.2509" lon="5.8013">
        <ele>746.6</ele>
        <time>2011-10-16T12:32:07Z</time>
      </trkpt>
      <trkpt lat="45.25089" lon="5.80121">
        <ele>746.5</ele>
        <time>2011-10-16T12:32:13Z</time>
      </trkpt>
      <trkpt lat="45.25087" lon="5.80111">
        <ele>746.2</ele>
        <time>2011-10-16T12:32:15Z</time>
      </trkpt>
      <trkpt lat="45.25083" lon="5.80105">
        <ele>745.8</ele>
        <time>2011-10-16T12:32:17Z</time>
      </trkpt>
      <trkpt lat="45.25078" lon="5.80102">
        <ele>745.2</ele>
        <time>2011-10-16T12:32:19Z</time>
      </trkpt>
      <trkpt lat="45.25071" lon="5.80103">
        <ele>744.5</ele>
        <time>2011-10-16T12:32:21Z</time>
      </trkpt>
      <trkpt lat="45.25063" lon="5.80106">
        <ele>743.7</ele>
        <time>2011-10-16T12:32:23Z</time>
      </trkpt>
      <trkpt lat="45.25054" lon="5.8011">
        <ele>743.1</ele>
        <time>2011-10-16T12:32:25Z</time>
      </trkpt>
      <trkpt lat="45.25047" lon="5.80111">
        <ele>742.7</ele>
        <time>2011-10-16T12:32:27Z</time>
      </trkpt>
      <trkpt lat="45.25041" lon="5.80107">
        <ele>741.9</ele>
        <time>2011-10-16T12:32:29Z</time>
      </trkpt>
      <trkpt lat="45.25038" lon="5.80098">
        <ele>741.7</ele>
        <time>2011-10-16T12:32:31Z</time>
      </trkpt>
      <trkpt lat="45.25035" lon="5.80093">
        <ele>737.2</ele>
        <time>2011-10-16T12:32:44Z</time>
      </trkpt>
      <trkpt lat="45.25035" lon="5.80086">
        <ele>736.7</ele>
        <time>2011-10-16T12:32:47Z</time>
      </trkpt>
      <trkpt lat="45.25033" lon="5.8008">
        <ele>736.2</ele>
        <time>2011-10-16T12:32:50Z</time>
      </trkpt>
      <trkpt lat="45.25028" lon="5.80073">
        <ele>734.8</ele>
        <time>2011-10-16T12:32:54Z</time>
      </trkpt>
      <trkpt lat="45.25025" lon="5.80068">
        <ele>732.8</ele>
        <time>2011-10-16T12:32:56Z</time>
      </trkpt>
      <trkpt lat="45.25028" lon="5.80063">
        <ele>720.7</ele>
        <time>2011-10-16T12:33:53Z</time>
      </trkpt>
      <trkpt lat="45.25032" lon="5.80058">
        <ele>721.6</ele>
        <time>2011-10-16T12:33:57Z</time>
      </trkpt>
      <trkpt lat="45.25036" lon="5.80057">
        <ele>720.2</ele>
        <time>2011-10-16T12:34:08Z</time>
      </trkpt>
      <trkpt lat="45.2504" lon="5.80052">
        <ele>719.6</ele>
        <time>2011-10-16T12:34:17Z</time>
      </trkpt>
      <trkpt lat="45.2504" lon="5.80045">
        <ele>718.5</ele>
        <time>2011-10-16T12:34:21Z</time>
      </trkpt>
      <trkpt lat="45.2504" lon="5.80037">
        <ele>717.2</ele>
        <time>2011-10-16T12:34:25Z</time>
      </trkpt>
      <trkpt lat="45.25041" lon="5.8003">
        <ele>716.5</ele>
        <time>2011-10-16T12:34:28Z</time>
      </trkpt>
      <trkpt lat="45.25041" lon="5.80022">
        <ele>709.7</ele>
        <time>2011-10-16T12:34:59Z</time>
      </trkpt>
      <trkpt lat="45.25039" lon="5.80016">
        <ele>709.7</ele>
        <time>2011-10-16T12:35:02Z</time>
      </trkpt>
      <trkpt lat="45.25036" lon="5.80011">
        <ele>709.5</ele>
        <time>2011-10-16T12:35:05Z</time>
      </trkpt>
      <trkpt lat="45.25034" lon="5.80005">
        <ele>708.7</ele>
        <time>2011-10-16T12:35:08Z</time>
      </trkpt>
      <trkpt lat="45.25035" lon="5.79996">
        <ele>704.3</ele>
        <time>2011-10-16T12:35:12Z</time>
      </trkpt>
      <trkpt lat="45.25036" lon="5.79989">
        <ele>701</ele>
        <time>2011-10-16T12:35:16Z</time>
      </trkpt>
      <trkpt lat="45.25038" lon="5.79983">
        <ele>699.3</ele>
        <time>2011-10-16T12:35:19Z</time>
      </trkpt>
      <trkpt lat="45.25039" lon="5.79977">
        <ele>697.7</ele>
        <time>2011-10-16T12:35:22Z</time>
      </trkpt>
      <trkpt lat="45.25041" lon="5.79968">
        <ele>694.6</ele>
        <time>2011-10-16T12:35:26Z</time>
      </trkpt>
      <trkpt lat="45.25041" lon="5.79962">
        <ele>692.7</ele>
        <time>2011-10-16T12:35:29Z</time>
      </trkpt>
      <trkpt lat="45.25042" lon="5.79954">
        <ele>691.2</ele>
        <time>2011-10-16T12:35:33Z</time>
      </trkpt>
      <trkpt lat="45.25043" lon="5.79946">
        <ele>690.6</ele>
        <time>2011-10-16T12:35:37Z</time>
      </trkpt>
      <trkpt lat="45.25044" lon="5.79937">
        <ele>690.1</ele>
        <time>2011-10-16T12:35:41Z</time>
      </trkpt>
      <trkpt lat="45.25044" lon="5.7993">
        <ele>689.9</ele>
        <time>2011-10-16T12:35:45Z</time>
      </trkpt>
      <trkpt lat="45.25045" lon="5.79923">
        <ele>689.6</ele>
        <time>2011-10-16T12:35:48Z</time>
      </trkpt>
      <trkpt lat="45.25045" lon="5.79914">
        <ele>689.3</ele>
        <time>2011-10-16T12:35:52Z</time>
      </trkpt>
      <trkpt lat="45.25045" lon="5.79906">
        <ele>689.6</ele>
        <time>2011-10-16T12:35:56Z</time>
      </trkpt>
      <trkpt lat="45.25044" lon="5.79899">
        <ele>689.5</ele>
        <time>2011-10-16T12:36:00Z</time>
      </trkpt>
      <trkpt lat="45.25043" lon="5.79893">
        <ele>689.7</ele>
        <time>2011-10-16T12:36:04Z</time>
      </trkpt>
      <trkpt lat="45.2504" lon="5.79888">
        <ele>690.3</ele>
        <time>2011-10-16T12:36:09Z</time>
      </trkpt>
      <trkpt lat="45.25035" lon="5.79884">
        <ele>691.5</ele>
        <time>2011-10-16T12:36:14Z</time>
      </trkpt>
      <trkpt lat="45.25031" lon="5.79879">
        <ele>692.4</ele>
        <time>2011-10-16T12:36:20Z</time>
      </trkpt>
      <trkpt lat="45.25028" lon="5.79873">
        <ele>693.8</ele>
        <time>2011-10-16T12:36:24Z</time>
      </trkpt>
      <trkpt lat="45.25025" lon="5.79867">
        <ele>694.1</ele>
        <time>2011-10-16T12:36:28Z</time>
      </trkpt>
      <trkpt lat="45.25021" lon="5.79861">
        <ele>694.9</ele>
        <time>2011-10-16T12:36:32Z</time>
      </trkpt>
      <trkpt lat="45.25017" lon="5.79858">
        <ele>696.1</ele>
        <time>2011-10-16T12:36:36Z</time>
      </trkpt>
      <trkpt lat="45.25012" lon="5.79854">
        <ele>697.7</ele>
        <time>2011-10-16T12:36:40Z</time>
      </trkpt>
      <trkpt lat="45.25008" lon="5.7985">
        <ele>698.5</ele>
        <time>2011-10-16T12:36:45Z</time>
      </trkpt>
      <trkpt lat="45.25004" lon="5.79845">
        <ele>699.3</ele>
        <time>2011-10-16T12:36:49Z</time>
      </trkpt>
      <trkpt lat="45.25" lon="5.79841">
        <ele>700.2</ele>
        <time>2011-10-16T12:36:53Z</time>
      </trkpt>
      <trkpt lat="45.24996" lon="5.79836">
        <ele>702</ele>
        <time>2011-10-16T12:36:58Z</time>
      </trkpt>
      <trkpt lat="45.24993" lon="5.7983">
        <ele>702.9</ele>
        <time>2011-10-16T12:37:04Z</time>
      </trkpt>
      <trkpt lat="45.24989" lon="5.79824">
        <ele>703</ele>
        <time>2011-10-16T12:37:09Z</time>
      </trkpt>
      <trkpt lat="45.24984" lon="5.79822">
        <ele>707.9</ele>
        <time>2011-10-16T12:38:41Z</time>
      </trkpt>
      <trkpt lat="45.2498" lon="5.79816">
        <ele>709.3</ele>
        <time>2011-10-16T12:38:54Z</time>
      </trkpt>
      <trkpt lat="45.24976" lon="5.79811">
        <ele>710.1</ele>
        <time>2011-10-16T12:38:58Z</time>
      </trkpt>
      <trkpt lat="45.24972" lon="5.79806">
        <ele>710.9</ele>
        <time>2011-10-16T12:39:02Z</time>
      </trkpt>
      <trkpt lat="45.24968" lon="5.79801">
        <ele>711.3</ele>
        <time>2011-10-16T12:39:06Z</time>
      </trkpt>
      <trkpt lat="45.24963" lon="5.79797">
        <ele>711.8</ele>
        <time>2011-10-16T12:39:10Z</time>
      </trkpt>
      <trkpt lat="45.24959" lon="5.79791">
        <ele>712</ele>
        <time>2011-10-16T12:39:14Z</time>
      </trkpt>
      <trkpt lat="45.24955" lon="5.79786">
        <ele>712.5</ele>
        <time>2011-10-16T12:39:18Z</time>
      </trkpt>
      <trkpt lat="45.24951" lon="5.79781">
        <ele>713.1</ele>
        <time>2011-10-16T12:39:22Z</time>
      </trkpt>
      <trkpt lat="45.24948" lon="5.79776">
        <ele>713.5</ele>
        <time>2011-10-16T12:39:26Z</time>
      </trkpt>
      <trkpt lat="45.24946" lon="5.7977">
        <ele>713.8</ele>
        <time>2011-10-16T12:39:31Z</time>
      </trkpt>
      <trkpt lat="45.24944" lon="5.79763">
        <ele>713.8</ele>
        <time>2011-10-16T12:39:34Z</time>
      </trkpt>
      <trkpt lat="45.24942" lon="5.79756">
        <ele>714.3</ele>
        <time>2011-10-16T12:39:38Z</time>
      </trkpt>
      <trkpt lat="45.24939" lon="5.79749">
        <ele>715.2</ele>
        <time>2011-10-16T12:39:42Z</time>
      </trkpt>
      <trkpt lat="45.24937" lon="5.79744">
        <ele>715.8</ele>
        <time>2011-10-16T12:39:46Z</time>
      </trkpt>
      <trkpt lat="45.24933" lon="5.79738">
        <ele>717.1</ele>
        <time>2011-10-16T12:39:51Z</time>
      </trkpt>
      <trkpt lat="45.2493" lon="5.79732">
        <ele>717.6</ele>
        <time>2011-10-16T12:39:56Z</time>
      </trkpt>
      <trkpt lat="45.24926" lon="5.79728">
        <ele>718.4</ele>
        <time>2011-10-16T12:40:00Z</time>
      </trkpt>
      <trkpt lat="45.24922" lon="5.79724">
        <ele>719</ele>
        <time>2011-10-16T12:40:04Z</time>
      </trkpt>
      <trkpt lat="45.24918" lon="5.79721">
        <ele>719.5</ele>
        <time>2011-10-16T12:40:08Z</time>
      </trkpt>
      <trkpt lat="45.24913" lon="5.79718">
        <ele>720.2</ele>
        <time>2011-10-16T12:40:12Z</time>
      </trkpt>
      <trkpt lat="45.24909" lon="5.79714">
        <ele>720.4</ele>
        <time>2011-10-16T12:40:16Z</time>
      </trkpt>
      <trkpt lat="45.24907" lon="5.79707">
        <ele>720.8</ele>
        <time>2011-10-16T12:40:20Z</time>
      </trkpt>
      <trkpt lat="45.24904" lon="5.79701">
        <ele>721.1</ele>
        <time>2011-10-16T12:40:25Z</time>
      </trkpt>
      <trkpt lat="45.24901" lon="5.79696">
        <ele>721.2</ele>
        <time>2011-10-16T12:40:29Z</time>
      </trkpt>
      <trkpt lat="45.24898" lon="5.7969">
        <ele>721.6</ele>
        <time>2011-10-16T12:40:34Z</time>
      </trkpt>
      <trkpt lat="45.24894" lon="5.79684">
        <ele>722.2</ele>
        <time>2011-10-16T12:40:39Z</time>
      </trkpt>
      <trkpt lat="45.24891" lon="5.79678">
        <ele>723.3</ele>
        <time>2011-10-16T12:40:44Z</time>
      </trkpt>
      <trkpt lat="45.24888" lon="5.79674">
        <ele>723.6</ele>
        <time>2011-10-16T12:40:48Z</time>
      </trkpt>
      <trkpt lat="45.24884" lon="5.79668">
        <ele>724.3</ele>
        <time>2011-10-16T12:40:53Z</time>
      </trkpt>
      <trkpt lat="45.24881" lon="5.79662">
        <ele>725.7</ele>
        <time>2011-10-16T12:40:58Z</time>
      </trkpt>
      <trkpt lat="45.24877" lon="5.79657">
        <ele>726.8</ele>
        <time>2011-10-16T12:41:03Z</time>
      </trkpt>
      <trkpt lat="45.24873" lon="5.79652">
        <ele>728.1</ele>
        <time>2011-10-16T12:41:09Z</time>
      </trkpt>
      <trkpt lat="45.2487" lon="5.79647">
        <ele>729.6</ele>
        <time>2011-10-16T12:41:14Z</time>
      </trkpt>
      <trkpt lat="45.24866" lon="5.79643">
        <ele>730</ele>
        <time>2011-10-16T12:41:18Z</time>
      </trkpt>
      <trkpt lat="45.24863" lon="5.79638">
        <ele>731.2</ele>
        <time>2011-10-16T12:41:22Z</time>
      </trkpt>
      <trkpt lat="45.24859" lon="5.79632">
        <ele>731.7</ele>
        <time>2011-10-16T12:41:27Z</time>
      </trkpt>
      <trkpt lat="45.24856" lon="5.79627">
        <ele>733.3</ele>
        <time>2011-10-16T12:41:32Z</time>
      </trkpt>
      <trkpt lat="45.24853" lon="5.79621">
        <ele>733.9</ele>
        <time>2011-10-16T12:41:37Z</time>
      </trkpt>
      <trkpt lat="45.2485" lon="5.79615">
        <ele>734.4</ele>
        <time>2011-10-16T12:41:42Z</time>
      </trkpt>
      <trkpt lat="45.24846" lon="5.7961">
        <ele>735.3</ele>
        <time>2011-10-16T12:41:47Z</time>
      </trkpt>
      <trkpt lat="45.24843" lon="5.79606">
        <ele>736.5</ele>
        <time>2011-10-16T12:41:51Z</time>
      </trkpt>
      <trkpt lat="45.24839" lon="5.796">
        <ele>737.9</ele>
        <time>2011-10-16T12:41:56Z</time>
      </trkpt>
      <trkpt lat="45.24835" lon="5.79596">
        <ele>738.6</ele>
        <time>2011-10-16T12:42:00Z</time>
      </trkpt>
      <trkpt lat="45.2483" lon="5.79592">
        <ele>739.4</ele>
        <time>2011-10-16T12:42:05Z</time>
      </trkpt>
      <trkpt lat="45.24826" lon="5.79588">
        <ele>740.1</ele>
        <time>2011-10-16T12:42:10Z</time>
      </trkpt>
      <trkpt lat="45.24822" lon="5.79584">
        <ele>741.2</ele>
        <time>2011-10-16T12:42:14Z</time>
      </trkpt>
      <trkpt lat="45.24818" lon="5.79578">
        <ele>741.6</ele>
        <time>2011-10-16T12:42:19Z</time>
      </trkpt>
      <trkpt lat="45.24814" lon="5.79574">
        <ele>742</ele>
        <time>2011-10-16T12:42:23Z</time>
      </trkpt>
      <trkpt lat="45.2481" lon="5.7957">
        <ele>742.1</ele>
        <time>2011-10-16T12:42:27Z</time>
      </trkpt>
      <trkpt lat="45.24805" lon="5.79566">
        <ele>742.8</ele>
        <time>2011-10-16T12:42:31Z</time>
      </trkpt>
      <trkpt lat="45.24801" lon="5.79562">
        <ele>743.4</ele>
        <time>2011-10-16T12:42:35Z</time>
      </trkpt>
      <trkpt lat="45.24797" lon="5.79559">
        <ele>743.5</ele>
        <time>2011-10-16T12:42:39Z</time>
      </trkpt>
      <trkpt lat="45.24793" lon="5.79555">
        <ele>743.7</ele>
        <time>2011-10-16T12:42:43Z</time>
      </trkpt>
      <trkpt lat="45.24789" lon="5.79551">
        <ele>743.6</ele>
        <time>2011-10-16T12:42:46Z</time>
      </trkpt>
      <trkpt lat="45.24785" lon="5.79547">
        <ele>743</ele>
        <time>2011-10-16T12:42:48Z</time>
      </trkpt>
      <trkpt lat="45.2478" lon="5.79542">
        <ele>742.8</ele>
        <time>2011-10-16T12:42:50Z</time>
      </trkpt>
      <trkpt lat="45.24777" lon="5.79537">
        <ele>742.8</ele>
        <time>2011-10-16T12:42:52Z</time>
      </trkpt>
      <trkpt lat="45.24775" lon="5.79531">
        <ele>743.3</ele>
        <time>2011-10-16T12:42:55Z</time>
      </trkpt>
      <trkpt lat="45.24775" lon="5.79523">
        <ele>744.6</ele>
        <time>2011-10-16T12:43:10Z</time>
      </trkpt>
      <trkpt lat="45.24774" lon="5.79516">
        <ele>743.3</ele>
        <time>2011-10-16T12:43:20Z</time>
      </trkpt>
      <trkpt lat="45.24772" lon="5.7951">
        <ele>743</ele>
        <time>2011-10-16T12:43:26Z</time>
      </trkpt>
      <trkpt lat="45.24767" lon="5.79505">
        <ele>742.6</ele>
        <time>2011-10-16T12:43:57Z</time>
      </trkpt>
      <trkpt lat="45.24763" lon="5.79502">
        <ele>743.9</ele>
        <time>2011-10-16T12:44:18Z</time>
      </trkpt>
      <trkpt lat="45.24757" lon="5.79502">
        <ele>743.7</ele>
        <time>2011-10-16T12:44:24Z</time>
      </trkpt>
      <trkpt lat="45.2475" lon="5.79504">
        <ele>743</ele>
        <time>2011-10-16T12:44:26Z</time>
      </trkpt>
      <trkpt lat="45.24745" lon="5.79506">
        <ele>742.9</ele>
        <time>2011-10-16T12:44:28Z</time>
      </trkpt>
      <trkpt lat="45.2474" lon="5.79504">
        <ele>743.4</ele>
        <time>2011-10-16T12:44:31Z</time>
      </trkpt>
      <trkpt lat="45.24735" lon="5.79501">
        <ele>743.8</ele>
        <time>2011-10-16T12:44:36Z</time>
      </trkpt>
      <trkpt lat="45.2473" lon="5.79496">
        <ele>745.1</ele>
        <time>2011-10-16T12:44:42Z</time>
      </trkpt>
      <trkpt lat="45.24726" lon="5.79491">
        <ele>746.8</ele>
        <time>2011-10-16T12:44:47Z</time>
      </trkpt>
      <trkpt lat="45.24725" lon="5.79483">
        <ele>747.2</ele>
        <time>2011-10-16T12:44:52Z</time>
      </trkpt>
      <trkpt lat="45.24722" lon="5.79478">
        <ele>747.8</ele>
        <time>2011-10-16T12:44:57Z</time>
      </trkpt>
      <trkpt lat="45.24717" lon="5.79479">
        <ele>748.2</ele>
        <time>2011-10-16T12:45:04Z</time>
      </trkpt>
      <trkpt lat="45.24718" lon="5.79473">
        <ele>749.3</ele>
        <time>2011-10-16T12:45:25Z</time>
      </trkpt>
      <trkpt lat="45.24722" lon="5.79471">
        <ele>751.9</ele>
        <time>2011-10-16T12:45:36Z</time>
      </trkpt>
      <trkpt lat="45.24727" lon="5.79473">
        <ele>753.4</ele>
        <time>2011-10-16T12:45:42Z</time>
      </trkpt>
      <trkpt lat="45.24732" lon="5.79474">
        <ele>753.3</ele>
        <time>2011-10-16T12:45:56Z</time>
      </trkpt>
      <trkpt lat="45.24737" lon="5.79475">
        <ele>752.7</ele>
        <time>2011-10-16T12:46:01Z</time>
      </trkpt>
      <trkpt lat="45.24742" lon="5.79476">
        <ele>752.8</ele>
        <time>2011-10-16T12:46:06Z</time>
      </trkpt>
      <trkpt lat="45.24748" lon="5.79476">
        <ele>753</ele>
        <time>2011-10-16T12:46:11Z</time>
      </trkpt>
      <trkpt lat="45.24753" lon="5.79478">
        <ele>753.6</ele>
        <time>2011-10-16T12:46:14Z</time>
      </trkpt>
      <trkpt lat="45.24757" lon="5.79478">
        <ele>754.3</ele>
        <time>2011-10-16T12:46:19Z</time>
      </trkpt>
      <trkpt lat="45.24755" lon="5.79472">
        <ele>760.1</ele>
        <time>2011-10-16T12:47:05Z</time>
      </trkpt>
      <trkpt lat="45.24751" lon="5.79466">
        <ele>760.6</ele>
        <time>2011-10-16T12:47:11Z</time>
      </trkpt>
      <trkpt lat="45.24747" lon="5.79463">
        <ele>761.5</ele>
        <time>2011-10-16T12:47:16Z</time>
      </trkpt>
      <trkpt lat="45.24742" lon="5.79459">
        <ele>763.2</ele>
        <time>2011-10-16T12:47:22Z</time>
      </trkpt>
      <trkpt lat="45.24739" lon="5.79454">
        <ele>765.1</ele>
        <time>2011-10-16T12:47:28Z</time>
      </trkpt>
      <trkpt lat="45.24736" lon="5.79447">
        <ele>765</ele>
        <time>2011-10-16T12:47:35Z</time>
      </trkpt>
      <trkpt lat="45.24732" lon="5.79443">
        <ele>766.3</ele>
        <time>2011-10-16T12:47:41Z</time>
      </trkpt>
      <trkpt lat="45.24727" lon="5.79444">
        <ele>767.6</ele>
        <time>2011-10-16T12:47:48Z</time>
      </trkpt>
      <trkpt lat="45.24722" lon="5.79444">
        <ele>767.9</ele>
        <time>2011-10-16T12:47:53Z</time>
      </trkpt>
      <trkpt lat="45.24717" lon="5.79444">
        <ele>768.4</ele>
        <time>2011-10-16T12:47:57Z</time>
      </trkpt>
      <trkpt lat="45.24712" lon="5.79445">
        <ele>769.4</ele>
        <time>2011-10-16T12:48:02Z</time>
      </trkpt>
      <trkpt lat="45.24708" lon="5.79443">
        <ele>769.6</ele>
        <time>2011-10-16T12:48:06Z</time>
      </trkpt>
      <trkpt lat="45.24706" lon="5.79437">
        <ele>768.8</ele>
        <time>2011-10-16T12:49:02Z</time>
      </trkpt>
      <trkpt lat="45.24705" lon="5.7943">
        <ele>769.9</ele>
        <time>2011-10-16T12:49:07Z</time>
      </trkpt>
      <trkpt lat="45.24703" lon="5.79423">
        <ele>771.4</ele>
        <time>2011-10-16T12:49:20Z</time>
      </trkpt>
      <trkpt lat="45.24703" lon="5.79416">
        <ele>772</ele>
        <time>2011-10-16T12:49:25Z</time>
      </trkpt>
      <trkpt lat="45.24703" lon="5.79409">
        <ele>772.3</ele>
        <time>2011-10-16T12:49:29Z</time>
      </trkpt>
      <trkpt lat="45.24702" lon="5.79402">
        <ele>772.3</ele>
        <time>2011-10-16T12:49:35Z</time>
      </trkpt>
      <trkpt lat="45.247" lon="5.79397">
        <ele>773</ele>
        <time>2011-10-16T12:49:48Z</time>
      </trkpt>
      <trkpt lat="45.247" lon="5.7939">
        <ele>775.1</ele>
        <time>2011-10-16T12:50:00Z</time>
      </trkpt>
      <trkpt lat="45.247" lon="5.79382">
        <ele>776.2</ele>
        <time>2011-10-16T12:50:04Z</time>
      </trkpt>
      <trkpt lat="45.24702" lon="5.79375">
        <ele>776.4</ele>
        <time>2011-10-16T12:50:08Z</time>
      </trkpt>
      <trkpt lat="45.24705" lon="5.7937">
        <ele>776.9</ele>
        <time>2011-10-16T12:50:12Z</time>
      </trkpt>
      <trkpt lat="45.24709" lon="5.79366">
        <ele>777.1</ele>
        <time>2011-10-16T12:50:16Z</time>
      </trkpt>
      <trkpt lat="45.2471" lon="5.79359">
        <ele>776.7</ele>
        <time>2011-10-16T12:50:22Z</time>
      </trkpt>
      <trkpt lat="45.24711" lon="5.79352">
        <ele>775.8</ele>
        <time>2011-10-16T12:50:45Z</time>
      </trkpt>
      <trkpt lat="45.24714" lon="5.79347">
        <ele>777.8</ele>
        <time>2011-10-16T12:50:59Z</time>
      </trkpt>
      <trkpt lat="45.24713" lon="5.79337">
        <ele>778.4</ele>
        <time>2011-10-16T12:51:19Z</time>
      </trkpt>
      <trkpt lat="45.24709" lon="5.79333">
        <ele>781.6</ele>
        <time>2011-10-16T12:51:38Z</time>
      </trkpt>
      <trkpt lat="45.24704" lon="5.79332">
        <ele>785.5</ele>
        <time>2011-10-16T12:51:53Z</time>
      </trkpt>
      <trkpt lat="45.24698" lon="5.7933">
        <ele>786.5</ele>
        <time>2011-10-16T12:51:57Z</time>
      </trkpt>
      <trkpt lat="45.24693" lon="5.79329">
        <ele>787.3</ele>
        <time>2011-10-16T12:52:01Z</time>
      </trkpt>
      <trkpt lat="45.24687" lon="5.79328">
        <ele>788</ele>
        <time>2011-10-16T12:52:05Z</time>
      </trkpt>
      <trkpt lat="45.2468" lon="5.79324">
        <ele>788.6</ele>
        <time>2011-10-16T12:52:08Z</time>
      </trkpt>
      <trkpt lat="45.24676" lon="5.7932">
        <ele>788.4</ele>
        <time>2011-10-16T12:52:10Z</time>
      </trkpt>
      <trkpt lat="45.24671" lon="5.79317">
        <ele>788.7</ele>
        <time>2011-10-16T12:52:12Z</time>
      </trkpt>
      <trkpt lat="45.24667" lon="5.79312">
        <ele>791.3</ele>
        <time>2011-10-16T12:53:40Z</time>
      </trkpt>
      <trkpt lat="45.24662" lon="5.7931">
        <ele>791.6</ele>
        <time>2011-10-16T12:53:51Z</time>
      </trkpt>
      <trkpt lat="45.24658" lon="5.79307">
        <ele>791.7</ele>
        <time>2011-10-16T12:53:56Z</time>
      </trkpt>
      <trkpt lat="45.24653" lon="5.79306">
        <ele>791.8</ele>
        <time>2011-10-16T12:54:01Z</time>
      </trkpt>
      <trkpt lat="45.24647" lon="5.79305">
        <ele>791.6</ele>
        <time>2011-10-16T12:54:11Z</time>
      </trkpt>
      <trkpt lat="45.24642" lon="5.79307">
        <ele>792</ele>
        <time>2011-10-16T12:54:16Z</time>
      </trkpt>
      <trkpt lat="45.24637" lon="5.79308">
        <ele>791.8</ele>
        <time>2011-10-16T12:54:20Z</time>
      </trkpt>
      <trkpt lat="45.24632" lon="5.79309">
        <ele>792.9</ele>
        <time>2011-10-16T12:54:25Z</time>
      </trkpt>
      <trkpt lat="45.24627" lon="5.79314">
        <ele>793.2</ele>
        <time>2011-10-16T12:54:39Z</time>
      </trkpt>
      <trkpt lat="45.24616" lon="5.79316">
        <ele>795</ele>
        <time>2011-10-16T12:56:41Z</time>
      </trkpt>
      <trkpt lat="45.24611" lon="5.79311">
        <ele>794.9</ele>
        <time>2011-10-16T12:56:44Z</time>
      </trkpt>
      <trkpt lat="45.24606" lon="5.79301">
        <ele>794.3</ele>
        <time>2011-10-16T12:56:46Z</time>
      </trkpt>
      <trkpt lat="45.24605" lon="5.79294">
        <ele>793.9</ele>
        <time>2011-10-16T12:56:47Z</time>
      </trkpt>
      <trkpt lat="45.24602" lon="5.79284">
        <ele>793.6</ele>
        <time>2011-10-16T12:56:49Z</time>
      </trkpt>
      <trkpt lat="45.246" lon="5.79274">
        <ele>793.3</ele>
        <time>2011-10-16T12:56:51Z</time>
      </trkpt>
      <trkpt lat="45.24598" lon="5.79266">
        <ele>793.2</ele>
        <time>2011-10-16T12:56:53Z</time>
      </trkpt>
      <trkpt lat="45.24597" lon="5.79258">
        <ele>793.2</ele>
        <time>2011-10-16T12:56:55Z</time>
      </trkpt>
      <trkpt lat="45.24593" lon="5.7925">
        <ele>793.1</ele>
        <time>2011-10-16T12:56:57Z</time>
      </trkpt>
      <trkpt lat="45.24588" lon="5.79244">
        <ele>792.8</ele>
        <time>2011-10-16T12:56:59Z</time>
      </trkpt>
      <trkpt lat="45.24584" lon="5.79239">
        <ele>792.3</ele>
        <time>2011-10-16T12:57:01Z</time>
      </trkpt>
      <trkpt lat="45.2458" lon="5.79235">
        <ele>790.5</ele>
        <time>2011-10-16T12:57:05Z</time>
      </trkpt>
      <trkpt lat="45.24574" lon="5.79236">
        <ele>789.1</ele>
        <time>2011-10-16T12:57:08Z</time>
      </trkpt>
      <trkpt lat="45.24568" lon="5.79234">
        <ele>788.1</ele>
        <time>2011-10-16T12:57:10Z</time>
      </trkpt>
      <trkpt lat="45.24561" lon="5.7923">
        <ele>786.9</ele>
        <time>2011-10-16T12:57:12Z</time>
      </trkpt>
      <trkpt lat="45.24555" lon="5.79221">
        <ele>785.8</ele>
        <time>2011-10-16T12:57:14Z</time>
      </trkpt>
      <trkpt lat="45.24551" lon="5.7921">
        <ele>784.8</ele>
        <time>2011-10-16T12:57:16Z</time>
      </trkpt>
      <trkpt lat="45.24549" lon="5.79199">
        <ele>784.3</ele>
        <time>2011-10-16T12:57:18Z</time>
      </trkpt>
      <trkpt lat="45.24544" lon="5.7919">
        <ele>784</ele>
        <time>2011-10-16T12:57:20Z</time>
      </trkpt>
      <trkpt lat="45.2454" lon="5.79185">
        <ele>783.6</ele>
        <time>2011-10-16T12:57:21Z</time>
      </trkpt>
      <trkpt lat="45.24534" lon="5.79179">
        <ele>782.3</ele>
        <time>2011-10-16T12:57:23Z</time>
      </trkpt>
      <trkpt lat="45.24534" lon="5.79188">
        <ele>778.9</ele>
        <time>2011-10-16T12:57:29Z</time>
      </trkpt>
      <trkpt lat="45.24536" lon="5.79196">
        <ele>778</ele>
        <time>2011-10-16T12:57:32Z</time>
      </trkpt>
      <trkpt lat="45.24532" lon="5.79195">
        <ele>775.5</ele>
        <time>2011-10-16T12:57:48Z</time>
      </trkpt>
      <trkpt lat="45.24527" lon="5.7919">
        <ele>774.6</ele>
        <time>2011-10-16T12:57:51Z</time>
      </trkpt>
      <trkpt lat="45.24524" lon="5.79195">
        <ele>767.6</ele>
        <time>2011-10-16T12:58:07Z</time>
      </trkpt>
      <trkpt lat="45.24524" lon="5.79202">
        <ele>767.1</ele>
        <time>2011-10-16T12:58:13Z</time>
      </trkpt>
      <trkpt lat="45.24525" lon="5.79208">
        <ele>767.4</ele>
        <time>2011-10-16T12:58:17Z</time>
      </trkpt>
      <trkpt lat="45.24519" lon="5.7921">
        <ele>765.6</ele>
        <time>2011-10-16T12:58:22Z</time>
      </trkpt>
      <trkpt lat="45.24514" lon="5.79213">
        <ele>763.1</ele>
        <time>2011-10-16T12:58:27Z</time>
      </trkpt>
      <trkpt lat="45.24515" lon="5.7922">
        <ele>762.5</ele>
        <time>2011-10-16T12:58:32Z</time>
      </trkpt>
      <trkpt lat="45.24515" lon="5.79228">
        <ele>763.3</ele>
        <time>2011-10-16T12:58:42Z</time>
      </trkpt>
      <trkpt lat="45.24509" lon="5.79232">
        <ele>762.1</ele>
        <time>2011-10-16T12:58:53Z</time>
      </trkpt>
      <trkpt lat="45.24504" lon="5.79232">
        <ele>758.3</ele>
        <time>2011-10-16T12:58:57Z</time>
      </trkpt>
      <trkpt lat="45.245" lon="5.79228">
        <ele>756.3</ele>
        <time>2011-10-16T12:59:00Z</time>
      </trkpt>
      <trkpt lat="45.24494" lon="5.79231">
        <ele>752.3</ele>
        <time>2011-10-16T12:59:12Z</time>
      </trkpt>
      <trkpt lat="45.24492" lon="5.79238">
        <ele>751.1</ele>
        <time>2011-10-16T12:59:14Z</time>
      </trkpt>
      <trkpt lat="45.24493" lon="5.79244">
        <ele>749.7</ele>
        <time>2011-10-16T12:59:16Z</time>
      </trkpt>
      <trkpt lat="45.24496" lon="5.79251">
        <ele>748.5</ele>
        <time>2011-10-16T12:59:19Z</time>
      </trkpt>
      <trkpt lat="45.24491" lon="5.7925">
        <ele>745.4</ele>
        <time>2011-10-16T12:59:24Z</time>
      </trkpt>
      <trkpt lat="45.24486" lon="5.79251">
        <ele>735.4</ele>
        <time>2011-10-16T12:59:36Z</time>
      </trkpt>
      <trkpt lat="45.24485" lon="5.79258">
        <ele>734.6</ele>
        <time>2011-10-16T12:59:38Z</time>
      </trkpt>
      <trkpt lat="45.24479" lon="5.79256">
        <ele>731.1</ele>
        <time>2011-10-16T12:59:46Z</time>
      </trkpt>
      <trkpt lat="45.24473" lon="5.79256">
        <ele>729.6</ele>
        <time>2011-10-16T12:59:49Z</time>
      </trkpt>
      <trkpt lat="45.24468" lon="5.79258">
        <ele>726</ele>
        <time>2011-10-16T12:59:53Z</time>
      </trkpt>
      <trkpt lat="45.24469" lon="5.79266">
        <ele>722.8</ele>
        <time>2011-10-16T12:59:57Z</time>
      </trkpt>
      <trkpt lat="45.24468" lon="5.79273">
        <ele>721.9</ele>
        <time>2011-10-16T12:59:59Z</time>
      </trkpt>
      <trkpt lat="45.24465" lon="5.79278">
        <ele>720.6</ele>
        <time>2011-10-16T13:00:02Z</time>
      </trkpt>
      <trkpt lat="45.2446" lon="5.79276">
        <ele>716.9</ele>
        <time>2011-10-16T13:00:29Z</time>
      </trkpt>
      <trkpt lat="45.24457" lon="5.7927">
        <ele>715.9</ele>
        <time>2011-10-16T13:00:34Z</time>
      </trkpt>
      <trkpt lat="45.24452" lon="5.7927">
        <ele>714.1</ele>
        <time>2011-10-16T13:00:40Z</time>
      </trkpt>
      <trkpt lat="45.24447" lon="5.79266">
        <ele>712</ele>
        <time>2011-10-16T13:00:43Z</time>
      </trkpt>
      <trkpt lat="45.24441" lon="5.79265">
        <ele>710.4</ele>
        <time>2011-10-16T13:00:46Z</time>
      </trkpt>
      <trkpt lat="45.24437" lon="5.79269">
        <ele>708.3</ele>
        <time>2011-10-16T13:00:55Z</time>
      </trkpt>
      <trkpt lat="45.24432" lon="5.79269">
        <ele>707.2</ele>
        <time>2011-10-16T13:01:00Z</time>
      </trkpt>
      <trkpt lat="45.24428" lon="5.79265">
        <ele>706.7</ele>
        <time>2011-10-16T13:01:06Z</time>
      </trkpt>
      <trkpt lat="45.24425" lon="5.7926">
        <ele>706.1</ele>
        <time>2011-10-16T13:01:18Z</time>
      </trkpt>
      <trkpt lat="45.2442" lon="5.79259">
        <ele>705.9</ele>
        <time>2011-10-16T13:01:21Z</time>
      </trkpt>
      <trkpt lat="45.24413" lon="5.79256">
        <ele>705.5</ele>
        <time>2011-10-16T13:01:24Z</time>
      </trkpt>
      <trkpt lat="45.24409" lon="5.79255">
        <ele>705.4</ele>
        <time>2011-10-16T13:01:26Z</time>
      </trkpt>
      <trkpt lat="45.24403" lon="5.79259">
        <ele>705.2</ele>
        <time>2011-10-16T13:01:29Z</time>
      </trkpt>
      <trkpt lat="45.24397" lon="5.79263">
        <ele>705</ele>
        <time>2011-10-16T13:01:32Z</time>
      </trkpt>
      <trkpt lat="45.24392" lon="5.79265">
        <ele>705</ele>
        <time>2011-10-16T13:01:34Z</time>
      </trkpt>
      <trkpt lat="45.24387" lon="5.79269">
        <ele>704.6</ele>
        <time>2011-10-16T13:01:37Z</time>
      </trkpt>
      <trkpt lat="45.24384" lon="5.79276">
        <ele>703.2</ele>
        <time>2011-10-16T13:01:40Z</time>
      </trkpt>
      <trkpt lat="45.24381" lon="5.79283">
        <ele>701.9</ele>
        <time>2011-10-16T13:01:43Z</time>
      </trkpt>
      <trkpt lat="45.24376" lon="5.7929">
        <ele>700.6</ele>
        <time>2011-10-16T13:01:46Z</time>
      </trkpt>
      <trkpt lat="45.24373" lon="5.79297">
        <ele>699.4</ele>
        <time>2011-10-16T13:01:49Z</time>
      </trkpt>
      <trkpt lat="45.24371" lon="5.79302">
        <ele>698.3</ele>
        <time>2011-10-16T13:01:51Z</time>
      </trkpt>
      <trkpt lat="45.24367" lon="5.79307">
        <ele>697.8</ele>
        <time>2011-10-16T13:01:53Z</time>
      </trkpt>
      <trkpt lat="45.24364" lon="5.79314">
        <ele>697.2</ele>
        <time>2011-10-16T13:01:55Z</time>
      </trkpt>
      <trkpt lat="45.24359" lon="5.79321">
        <ele>697</ele>
        <time>2011-10-16T13:01:57Z</time>
      </trkpt>
      <trkpt lat="45.24355" lon="5.79326">
        <ele>696.1</ele>
        <time>2011-10-16T13:01:59Z</time>
      </trkpt>
      <trkpt lat="45.2435" lon="5.79332">
        <ele>694.7</ele>
        <time>2011-10-16T13:02:02Z</time>
      </trkpt>
      <trkpt lat="45.24348" lon="5.79339">
        <ele>692.2</ele>
        <time>2011-10-16T13:02:05Z</time>
      </trkpt>
      <trkpt lat="45.24347" lon="5.79345">
        <ele>689.2</ele>
        <time>2011-10-16T13:02:07Z</time>
      </trkpt>
      <trkpt lat="45.24343" lon="5.79354">
        <ele>686.8</ele>
        <time>2011-10-16T13:02:10Z</time>
      </trkpt>
      <trkpt lat="45.24338" lon="5.7936">
        <ele>686.7</ele>
        <time>2011-10-16T13:02:12Z</time>
      </trkpt>
      <trkpt lat="45.24335" lon="5.79364">
        <ele>686.1</ele>
        <time>2011-10-16T13:02:14Z</time>
      </trkpt>
      <trkpt lat="45.24331" lon="5.79368">
        <ele>685.9</ele>
        <time>2011-10-16T13:02:16Z</time>
      </trkpt>
      <trkpt lat="45.24327" lon="5.79374">
        <ele>685.2</ele>
        <time>2011-10-16T13:02:19Z</time>
      </trkpt>
      <trkpt lat="45.24324" lon="5.79381">
        <ele>683</ele>
        <time>2011-10-16T13:02:24Z</time>
      </trkpt>
      <trkpt lat="45.24324" lon="5.79388">
        <ele>680.7</ele>
        <time>2011-10-16T13:02:27Z</time>
      </trkpt>
      <trkpt lat="45.24322" lon="5.79395">
        <ele>679.3</ele>
        <time>2011-10-16T13:02:30Z</time>
      </trkpt>
      <trkpt lat="45.24323" lon="5.79402">
        <ele>676.9</ele>
        <time>2011-10-16T13:02:42Z</time>
      </trkpt>
      <trkpt lat="45.24317" lon="5.79403">
        <ele>675.1</ele>
        <time>2011-10-16T13:02:46Z</time>
      </trkpt>
      <trkpt lat="45.24312" lon="5.79402">
        <ele>673.7</ele>
        <time>2011-10-16T13:02:49Z</time>
      </trkpt>
      <trkpt lat="45.24307" lon="5.79402">
        <ele>672.1</ele>
        <time>2011-10-16T13:02:53Z</time>
      </trkpt>
      <trkpt lat="45.24303" lon="5.79407">
        <ele>669.6</ele>
        <time>2011-10-16T13:03:20Z</time>
      </trkpt>
      <trkpt lat="45.24302" lon="5.79413">
        <ele>669.3</ele>
        <time>2011-10-16T13:03:24Z</time>
      </trkpt>
      <trkpt lat="45.24298" lon="5.79417">
        <ele>667.6</ele>
        <time>2011-10-16T13:03:40Z</time>
      </trkpt>
      <trkpt lat="45.24294" lon="5.79423">
        <ele>667.2</ele>
        <time>2011-10-16T13:03:43Z</time>
      </trkpt>
      <trkpt lat="45.24289" lon="5.79427">
        <ele>666.3</ele>
        <time>2011-10-16T13:03:46Z</time>
      </trkpt>
      <trkpt lat="45.24286" lon="5.79434">
        <ele>664.3</ele>
        <time>2011-10-16T13:03:50Z</time>
      </trkpt>
      <trkpt lat="45.24282" lon="5.7944">
        <ele>663.5</ele>
        <time>2011-10-16T13:03:53Z</time>
      </trkpt>
      <trkpt lat="45.2428" lon="5.79446">
        <ele>655.3</ele>
        <time>2011-10-16T13:04:22Z</time>
      </trkpt>
      <trkpt lat="45.24276" lon="5.79452">
        <ele>652.7</ele>
        <time>2011-10-16T13:04:36Z</time>
      </trkpt>
      <trkpt lat="45.24271" lon="5.79456">
        <ele>652.1</ele>
        <time>2011-10-16T13:04:39Z</time>
      </trkpt>
      <trkpt lat="45.24266" lon="5.79463">
        <ele>651.4</ele>
        <time>2011-10-16T13:04:42Z</time>
      </trkpt>
      <trkpt lat="45.24262" lon="5.7947">
        <ele>650.6</ele>
        <time>2011-10-16T13:04:44Z</time>
      </trkpt>
      <trkpt lat="45.24256" lon="5.79476">
        <ele>649.8</ele>
        <time>2011-10-16T13:04:46Z</time>
      </trkpt>
      <trkpt lat="45.2425" lon="5.7948">
        <ele>648.8</ele>
        <time>2011-10-16T13:04:48Z</time>
      </trkpt>
      <trkpt lat="45.24244" lon="5.7948">
        <ele>647.6</ele>
        <time>2011-10-16T13:04:50Z</time>
      </trkpt>
      <trkpt lat="45.24238" lon="5.79484">
        <ele>645.7</ele>
        <time>2011-10-16T13:04:53Z</time>
      </trkpt>
      <trkpt lat="45.24233" lon="5.79488">
        <ele>643.9</ele>
        <time>2011-10-16T13:04:56Z</time>
      </trkpt>
      <trkpt lat="45.24227" lon="5.79493">
        <ele>641.5</ele>
        <time>2011-10-16T13:04:59Z</time>
      </trkpt>
      <trkpt lat="45.24221" lon="5.79492">
        <ele>639.8</ele>
        <time>2011-10-16T13:05:01Z</time>
      </trkpt>
      <trkpt lat="45.24215" lon="5.79489">
        <ele>638.6</ele>
        <time>2011-10-16T13:05:03Z</time>
      </trkpt>
      <trkpt lat="45.24211" lon="5.79486">
        <ele>637.4</ele>
        <time>2011-10-16T13:05:05Z</time>
      </trkpt>
      <trkpt lat="45.24217" lon="5.79486">
        <ele>626.2</ele>
        <time>2011-10-16T13:07:39Z</time>
      </trkpt>
      <trkpt lat="45.24207" lon="5.79482">
        <ele>641.7</ele>
        <time>2011-10-16T13:11:28Z</time>
      </trkpt>
      <trkpt lat="45.24207" lon="5.79482">
        <ele>641.7</ele>
        <time>2011-10-16T13:11:28Z</time>
      </trkpt>
      <trkpt lat="45.24207" lon="5.79482">
        <ele>641.7</ele>
        <time>2011-10-16T13:11:48Z</time>
      </trkpt>
      <trkpt lat="45.24216" lon="5.79482">
        <ele>624.5</ele>
        <time>2011-10-16T13:11:49Z</time>
      </trkpt>
      <trkpt lat="45.24211" lon="5.79484">
        <ele>625</ele>
        <time>2011-10-16T13:12:05Z</time>
      </trkpt>
      <trkpt lat="45.24207" lon="5.79487">
        <ele>625</ele>
        <time>2011-10-16T13:12:07Z</time>
      </trkpt>
      <trkpt lat="45.24201" lon="5.7949">
        <ele>625.3</ele>
        <time>2011-10-16T13:12:10Z</time>
      </trkpt>
      <trkpt lat="45.24197" lon="5.79495">
        <ele>625.4</ele>
        <time>2011-10-16T13:12:13Z</time>
      </trkpt>
      <trkpt lat="45.24192" lon="5.79499">
        <ele>625.3</ele>
        <time>2011-10-16T13:12:16Z</time>
      </trkpt>
      <trkpt lat="45.24189" lon="5.79504">
        <ele>622.8</ele>
        <time>2011-10-16T13:13:07Z</time>
      </trkpt>
      <trkpt lat="45.24185" lon="5.79507">
        <ele>622.8</ele>
        <time>2011-10-16T13:13:10Z</time>
      </trkpt>
      <trkpt lat="45.24181" lon="5.795">
        <ele>622.6</ele>
        <time>2011-10-16T13:13:13Z</time>
      </trkpt>
      <trkpt lat="45.24178" lon="5.79495">
        <ele>622.6</ele>
        <time>2011-10-16T13:13:15Z</time>
      </trkpt>
      <trkpt lat="45.24175" lon="5.79488">
        <ele>623.1</ele>
        <time>2011-10-16T13:13:18Z</time>
      </trkpt>
      <trkpt lat="45.24171" lon="5.79484">
        <ele>623.4</ele>
        <time>2011-10-16T13:13:21Z</time>
      </trkpt>
      <trkpt lat="45.24167" lon="5.79478">
        <ele>623.7</ele>
        <time>2011-10-16T13:13:24Z</time>
      </trkpt>
      <trkpt lat="45.24164" lon="5.79471">
        <ele>623.9</ele>
        <time>2011-10-16T13:13:27Z</time>
      </trkpt>
      <trkpt lat="45.2416" lon="5.79466">
        <ele>623.8</ele>
        <time>2011-10-16T13:13:30Z</time>
      </trkpt>
      <trkpt lat="45.24156" lon="5.7946">
        <ele>623.3</ele>
        <time>2011-10-16T13:13:33Z</time>
      </trkpt>
      <trkpt lat="45.24152" lon="5.79456">
        <ele>623.6</ele>
        <time>2011-10-16T13:13:36Z</time>
      </trkpt>
      <trkpt lat="45.24145" lon="5.79451">
        <ele>623.8</ele>
        <time>2011-10-16T13:13:39Z</time>
      </trkpt>
      <trkpt lat="45.24141" lon="5.79448">
        <ele>623.8</ele>
        <time>2011-10-16T13:13:41Z</time>
      </trkpt>
      <trkpt lat="45.24136" lon="5.79442">
        <ele>623.5</ele>
        <time>2011-10-16T13:13:43Z</time>
      </trkpt>
      <trkpt lat="45.24132" lon="5.79436">
        <ele>623.2</ele>
        <time>2011-10-16T13:13:45Z</time>
      </trkpt>
      <trkpt lat="45.24128" lon="5.79429">
        <ele>622.8</ele>
        <time>2011-10-16T13:13:47Z</time>
      </trkpt>
      <trkpt lat="45.24124" lon="5.79423">
        <ele>622.2</ele>
        <time>2011-10-16T13:13:49Z</time>
      </trkpt>
      <trkpt lat="45.2412" lon="5.79418">
        <ele>621.9</ele>
        <time>2011-10-16T13:13:51Z</time>
      </trkpt>
      <trkpt lat="45.24116" lon="5.79413">
        <ele>621.8</ele>
        <time>2011-10-16T13:13:53Z</time>
      </trkpt>
      <trkpt lat="45.24111" lon="5.79409">
        <ele>621.7</ele>
        <time>2011-10-16T13:13:55Z</time>
      </trkpt>
      <trkpt lat="45.24107" lon="5.79405">
        <ele>621.4</ele>
        <time>2011-10-16T13:13:59Z</time>
      </trkpt>
      <trkpt lat="45.24103" lon="5.79398">
        <ele>619</ele>
        <time>2011-10-16T13:14:04Z</time>
      </trkpt>
      <trkpt lat="45.24098" lon="5.79396">
        <ele>618.4</ele>
        <time>2011-10-16T13:14:07Z</time>
      </trkpt>
      <trkpt lat="45.24093" lon="5.79393">
        <ele>618.5</ele>
        <time>2011-10-16T13:14:10Z</time>
      </trkpt>
      <trkpt lat="45.24087" lon="5.7939">
        <ele>618.3</ele>
        <time>2011-10-16T13:14:14Z</time>
      </trkpt>
      <trkpt lat="45.24082" lon="5.79388">
        <ele>618.1</ele>
        <time>2011-10-16T13:14:16Z</time>
      </trkpt>
      <trkpt lat="45.24077" lon="5.79384">
        <ele>618.2</ele>
        <time>2011-10-16T13:14:18Z</time>
      </trkpt>
      <trkpt lat="45.24069" lon="5.79377">
        <ele>618.3</ele>
        <time>2011-10-16T13:14:20Z</time>
      </trkpt>
      <trkpt lat="45.24065" lon="5.79372">
        <ele>618.1</ele>
        <time>2011-10-16T13:14:21Z</time>
      </trkpt>
      <trkpt lat="45.2406" lon="5.79367">
        <ele>617.6</ele>
        <time>2011-10-16T13:14:22Z</time>
      </trkpt>
      <trkpt lat="45.24057" lon="5.79362">
        <ele>617.3</ele>
        <time>2011-10-16T13:14:23Z</time>
      </trkpt>
      <trkpt lat="45.24054" lon="5.79356">
        <ele>617.3</ele>
        <time>2011-10-16T13:14:24Z</time>
      </trkpt>
      <trkpt lat="45.24052" lon="5.7935">
        <ele>617.3</ele>
        <time>2011-10-16T13:14:25Z</time>
      </trkpt>
      <trkpt lat="45.24049" lon="5.79344">
        <ele>617.3</ele>
        <time>2011-10-16T13:14:26Z</time>
      </trkpt>
      <trkpt lat="45.24045" lon="5.79333">
        <ele>617.3</ele>
        <time>2011-10-16T13:14:28Z</time>
      </trkpt>
      <trkpt lat="45.24041" lon="5.79324">
        <ele>617.3</ele>
        <time>2011-10-16T13:14:30Z</time>
      </trkpt>
      <trkpt lat="45.24039" lon="5.79318">
        <ele>617</ele>
        <time>2011-10-16T13:14:33Z</time>
      </trkpt>
      <trkpt lat="45.24036" lon="5.79311">
        <ele>616.8</ele>
        <time>2011-10-16T13:14:36Z</time>
      </trkpt>
      <trkpt lat="45.24033" lon="5.79306">
        <ele>616.8</ele>
        <time>2011-10-16T13:14:38Z</time>
      </trkpt>
      <trkpt lat="45.24031" lon="5.79299">
        <ele>616.7</ele>
        <time>2011-10-16T13:14:40Z</time>
      </trkpt>
      <trkpt lat="45.24028" lon="5.79292">
        <ele>616.7</ele>
        <time>2011-10-16T13:14:42Z</time>
      </trkpt>
      <trkpt lat="45.24024" lon="5.79285">
        <ele>616.2</ele>
        <time>2011-10-16T13:14:45Z</time>
      </trkpt>
      <trkpt lat="45.24022" lon="5.79278">
        <ele>615.4</ele>
        <time>2011-10-16T13:14:48Z</time>
      </trkpt>
      <trkpt lat="45.24019" lon="5.79272">
        <ele>615.5</ele>
        <time>2011-10-16T13:14:52Z</time>
      </trkpt>
      <trkpt lat="45.24016" lon="5.79266">
        <ele>615.1</ele>
        <time>2011-10-16T13:14:55Z</time>
      </trkpt>
      <trkpt lat="45.24014" lon="5.7926">
        <ele>615</ele>
        <time>2011-10-16T13:15:15Z</time>
      </trkpt>
      <trkpt lat="45.24012" lon="5.79255">
        <ele>616.3</ele>
        <time>2011-10-16T13:15:26Z</time>
      </trkpt>
      <trkpt lat="45.24009" lon="5.79249">
        <ele>617.6</ele>
        <time>2011-10-16T13:15:42Z</time>
      </trkpt>
      <trkpt lat="45.24007" lon="5.79242">
        <ele>617.6</ele>
        <time>2011-10-16T13:15:47Z</time>
      </trkpt>
      <trkpt lat="45.24004" lon="5.79235">
        <ele>617.3</ele>
        <time>2011-10-16T13:15:52Z</time>
      </trkpt>
      <trkpt lat="45.24003" lon="5.79226">
        <ele>617.2</ele>
        <time>2011-10-16T13:16:02Z</time>
      </trkpt>
      <trkpt lat="45.24001" lon="5.79219">
        <ele>617.7</ele>
        <time>2011-10-16T13:16:06Z</time>
      </trkpt>
      <trkpt lat="45.23999" lon="5.79213">
        <ele>618.2</ele>
        <time>2011-10-16T13:16:09Z</time>
      </trkpt>
      <trkpt lat="45.23997" lon="5.79206">
        <ele>617.6</ele>
        <time>2011-10-16T13:16:13Z</time>
      </trkpt>
      <trkpt lat="45.23996" lon="5.79198">
        <ele>617.7</ele>
        <time>2011-10-16T13:16:17Z</time>
      </trkpt>
      <trkpt lat="45.23996" lon="5.79191">
        <ele>617.8</ele>
        <time>2011-10-16T13:16:21Z</time>
      </trkpt>
      <trkpt lat="45.23997" lon="5.79184">
        <ele>618</ele>
        <time>2011-10-16T13:16:25Z</time>
      </trkpt>
      <trkpt lat="45.23996" lon="5.79176">
        <ele>620</ele>
        <time>2011-10-16T13:17:16Z</time>
      </trkpt>
      <trkpt lat="45.23994" lon="5.79168">
        <ele>619.3</ele>
        <time>2011-10-16T13:17:18Z</time>
      </trkpt>
      <trkpt lat="45.23993" lon="5.79156">
        <ele>618.7</ele>
        <time>2011-10-16T13:17:20Z</time>
      </trkpt>
      <trkpt lat="45.23993" lon="5.79149">
        <ele>618.4</ele>
        <time>2011-10-16T13:17:21Z</time>
      </trkpt>
      <trkpt lat="45.23993" lon="5.79142">
        <ele>618.2</ele>
        <time>2011-10-16T13:17:22Z</time>
      </trkpt>
      <trkpt lat="45.23993" lon="5.79133">
        <ele>618.1</ele>
        <time>2011-10-16T13:17:23Z</time>
      </trkpt>
      <trkpt lat="45.23993" lon="5.79126">
        <ele>618</ele>
        <time>2011-10-16T13:17:24Z</time>
      </trkpt>
      <trkpt lat="45.23993" lon="5.79119">
        <ele>617.6</ele>
        <time>2011-10-16T13:17:25Z</time>
      </trkpt>
      <trkpt lat="45.23994" lon="5.79109">
        <ele>617.4</ele>
        <time>2011-10-16T13:17:27Z</time>
      </trkpt>
      <trkpt lat="45.23996" lon="5.79103">
        <ele>617.2</ele>
        <time>2011-10-16T13:17:31Z</time>
      </trkpt>
      <trkpt lat="45.23997" lon="5.79096">
        <ele>617</ele>
        <time>2011-10-16T13:17:35Z</time>
      </trkpt>
      <trkpt lat="45.23996" lon="5.79089">
        <ele>616.9</ele>
        <time>2011-10-16T13:17:39Z</time>
      </trkpt>
      <trkpt lat="45.23995" lon="5.79083">
        <ele>617</ele>
        <time>2011-10-16T13:17:43Z</time>
      </trkpt>
      <trkpt lat="45.23992" lon="5.79076">
        <ele>617.9</ele>
        <time>2011-10-16T13:17:47Z</time>
      </trkpt>
      <trkpt lat="45.2399" lon="5.7907">
        <ele>618.7</ele>
        <time>2011-10-16T13:17:51Z</time>
      </trkpt>
      <trkpt lat="45.23988" lon="5.79062">
        <ele>619.2</ele>
        <time>2011-10-16T13:17:55Z</time>
      </trkpt>
      <trkpt lat="45.23988" lon="5.79055">
        <ele>619.9</ele>
        <time>2011-10-16T13:17:59Z</time>
      </trkpt>
      <trkpt lat="45.23986" lon="5.79049">
        <ele>620.3</ele>
        <time>2011-10-16T13:18:03Z</time>
      </trkpt>
      <trkpt lat="45.23983" lon="5.79042">
        <ele>620.6</ele>
        <time>2011-10-16T13:18:07Z</time>
      </trkpt>
      <trkpt lat="45.23982" lon="5.79036">
        <ele>620.8</ele>
        <time>2011-10-16T13:18:10Z</time>
      </trkpt>
      <trkpt lat="45.23981" lon="5.7903">
        <ele>621.1</ele>
        <time>2011-10-16T13:18:13Z</time>
      </trkpt>
      <trkpt lat="45.2398" lon="5.79023">
        <ele>621.2</ele>
        <time>2011-10-16T13:18:16Z</time>
      </trkpt>
      <trkpt lat="45.23978" lon="5.79016">
        <ele>621.4</ele>
        <time>2011-10-16T13:18:19Z</time>
      </trkpt>
      <trkpt lat="45.23979" lon="5.79009">
        <ele>621.8</ele>
        <time>2011-10-16T13:18:23Z</time>
      </trkpt>
      <trkpt lat="45.23979" lon="5.79001">
        <ele>622.3</ele>
        <time>2011-10-16T13:18:27Z</time>
      </trkpt>
      <trkpt lat="45.23976" lon="5.78994">
        <ele>622.6</ele>
        <time>2011-10-16T13:18:30Z</time>
      </trkpt>
      <trkpt lat="45.23974" lon="5.78988">
        <ele>623.3</ele>
        <time>2011-10-16T13:18:33Z</time>
      </trkpt>
      <trkpt lat="45.23972" lon="5.78981">
        <ele>624</ele>
        <time>2011-10-16T13:18:36Z</time>
      </trkpt>
      <trkpt lat="45.2397" lon="5.78974">
        <ele>624.6</ele>
        <time>2011-10-16T13:18:39Z</time>
      </trkpt>
      <trkpt lat="45.23968" lon="5.78968">
        <ele>625</ele>
        <time>2011-10-16T13:18:42Z</time>
      </trkpt>
      <trkpt lat="45.23967" lon="5.7896">
        <ele>625.4</ele>
        <time>2011-10-16T13:18:45Z</time>
      </trkpt>
      <trkpt lat="45.23967" lon="5.78951">
        <ele>626.2</ele>
        <time>2011-10-16T13:18:48Z</time>
      </trkpt>
      <trkpt lat="45.23966" lon="5.78942">
        <ele>626.6</ele>
        <time>2011-10-16T13:18:50Z</time>
      </trkpt>
      <trkpt lat="45.23966" lon="5.78935">
        <ele>627.1</ele>
        <time>2011-10-16T13:18:53Z</time>
      </trkpt>
      <trkpt lat="45.23963" lon="5.78928">
        <ele>627.2</ele>
        <time>2011-10-16T13:18:56Z</time>
      </trkpt>
      <trkpt lat="45.2396" lon="5.78921">
        <ele>627.1</ele>
        <time>2011-10-16T13:18:59Z</time>
      </trkpt>
      <trkpt lat="45.23957" lon="5.78915">
        <ele>627.2</ele>
        <time>2011-10-16T13:19:03Z</time>
      </trkpt>
      <trkpt lat="45.23957" lon="5.78915">
        <ele>627.2</ele>
        <time>2011-10-16T13:19:03Z</time>
      </trkpt>
      <trkpt lat="45.23957" lon="5.78915">
        <ele>627.2</ele>
        <time>2011-10-16T13:19:04Z</time>
      </trkpt>
      <trkpt lat="45.23955" lon="5.78908">
        <ele>627.4</ele>
        <time>2011-10-16T13:19:08Z</time>
      </trkpt>
      <trkpt lat="45.23953" lon="5.78902">
        <ele>627.6</ele>
        <time>2011-10-16T13:19:12Z</time>
      </trkpt>
      <trkpt lat="45.2395" lon="5.78897">
        <ele>627.7</ele>
        <time>2011-10-16T13:19:15Z</time>
      </trkpt>
      <trkpt lat="45.23947" lon="5.78891">
        <ele>628</ele>
        <time>2011-10-16T13:19:18Z</time>
      </trkpt>
      <trkpt lat="45.23944" lon="5.78885">
        <ele>628.4</ele>
        <time>2011-10-16T13:19:21Z</time>
      </trkpt>
      <trkpt lat="45.2394" lon="5.78878">
        <ele>628.7</ele>
        <time>2011-10-16T13:19:24Z</time>
      </trkpt>
      <trkpt lat="45.23937" lon="5.78872">
        <ele>629</ele>
        <time>2011-10-16T13:19:27Z</time>
      </trkpt>
      <trkpt lat="45.23934" lon="5.78866">
        <ele>629.2</ele>
        <time>2011-10-16T13:19:30Z</time>
      </trkpt>
      <trkpt lat="45.23931" lon="5.78859">
        <ele>629.7</ele>
        <time>2011-10-16T13:19:33Z</time>
      </trkpt>
      <trkpt lat="45.23928" lon="5.78853">
        <ele>630.3</ele>
        <time>2011-10-16T13:19:36Z</time>
      </trkpt>
      <trkpt lat="45.23925" lon="5.78846">
        <ele>631</ele>
        <time>2011-10-16T13:19:39Z</time>
      </trkpt>
      <trkpt lat="45.23922" lon="5.7884">
        <ele>631.5</ele>
        <time>2011-10-16T13:19:42Z</time>
      </trkpt>
      <trkpt lat="45.23919" lon="5.78833">
        <ele>632.1</ele>
        <time>2011-10-16T13:19:45Z</time>
      </trkpt>
      <trkpt lat="45.23916" lon="5.78827">
        <ele>632.6</ele>
        <time>2011-10-16T13:19:48Z</time>
      </trkpt>
      <trkpt lat="45.23914" lon="5.78822">
        <ele>632.5</ele>
        <time>2011-10-16T13:19:51Z</time>
      </trkpt>
      <trkpt lat="45.2391" lon="5.78816">
        <ele>632.8</ele>
        <time>2011-10-16T13:19:54Z</time>
      </trkpt>
      <trkpt lat="45.23905" lon="5.78809">
        <ele>632.8</ele>
        <time>2011-10-16T13:19:56Z</time>
      </trkpt>
      <trkpt lat="45.23901" lon="5.78803">
        <ele>633.1</ele>
        <time>2011-10-16T13:19:58Z</time>
      </trkpt>
      <trkpt lat="45.23898" lon="5.78796">
        <ele>633.4</ele>
        <time>2011-10-16T13:20:01Z</time>
      </trkpt>
      <trkpt lat="45.23895" lon="5.78789">
        <ele>633.5</ele>
        <time>2011-10-16T13:20:05Z</time>
      </trkpt>
      <trkpt lat="45.23893" lon="5.78782">
        <ele>633.6</ele>
        <time>2011-10-16T13:20:08Z</time>
      </trkpt>
      <trkpt lat="45.23891" lon="5.78773">
        <ele>633.8</ele>
        <time>2011-10-16T13:20:11Z</time>
      </trkpt>
      <trkpt lat="45.23889" lon="5.78765">
        <ele>634</ele>
        <time>2011-10-16T13:20:14Z</time>
      </trkpt>
      <trkpt lat="45.23886" lon="5.78754">
        <ele>634.1</ele>
        <time>2011-10-16T13:20:35Z</time>
      </trkpt>
      <trkpt lat="45.23884" lon="5.78747">
        <ele>634.3</ele>
        <time>2011-10-16T13:20:38Z</time>
      </trkpt>
      <trkpt lat="45.2388" lon="5.78739">
        <ele>634.7</ele>
        <time>2011-10-16T13:20:41Z</time>
      </trkpt>
      <trkpt lat="45.23876" lon="5.78731">
        <ele>635.1</ele>
        <time>2011-10-16T13:20:44Z</time>
      </trkpt>
      <trkpt lat="45.23874" lon="5.78726">
        <ele>635.2</ele>
        <time>2011-10-16T13:20:46Z</time>
      </trkpt>
      <trkpt lat="45.23871" lon="5.78721">
        <ele>635.5</ele>
        <time>2011-10-16T13:20:48Z</time>
      </trkpt>
      <trkpt lat="45.23868" lon="5.78716">
        <ele>635.7</ele>
        <time>2011-10-16T13:20:50Z</time>
      </trkpt>
      <trkpt lat="45.23865" lon="5.78711">
        <ele>635.9</ele>
        <time>2011-10-16T13:20:52Z</time>
      </trkpt>
      <trkpt lat="45.23861" lon="5.78705">
        <ele>636.1</ele>
        <time>2011-10-16T13:20:54Z</time>
      </trkpt>
      <trkpt lat="45.23858" lon="5.787">
        <ele>636.3</ele>
        <time>2011-10-16T13:20:56Z</time>
      </trkpt>
      <trkpt lat="45.23855" lon="5.78695">
        <ele>636.6</ele>
        <time>2011-10-16T13:20:58Z</time>
      </trkpt>
      <trkpt lat="45.23852" lon="5.7869">
        <ele>636.6</ele>
        <time>2011-10-16T13:21:00Z</time>
      </trkpt>
      <trkpt lat="45.23848" lon="5.78685">
        <ele>636.8</ele>
        <time>2011-10-16T13:21:02Z</time>
      </trkpt>
      <trkpt lat="45.23845" lon="5.7868">
        <ele>636.8</ele>
        <time>2011-10-16T13:21:04Z</time>
      </trkpt>
      <trkpt lat="45.23841" lon="5.78676">
        <ele>637.1</ele>
        <time>2011-10-16T13:21:06Z</time>
      </trkpt>
      <trkpt lat="45.23838" lon="5.78672">
        <ele>637.3</ele>
        <time>2011-10-16T13:21:08Z</time>
      </trkpt>
      <trkpt lat="45.23833" lon="5.78664">
        <ele>637.8</ele>
        <time>2011-10-16T13:21:11Z</time>
      </trkpt>
      <trkpt lat="45.2383" lon="5.78659">
        <ele>638.1</ele>
        <time>2011-10-16T13:21:13Z</time>
      </trkpt>
      <trkpt lat="45.23826" lon="5.78653">
        <ele>638.7</ele>
        <time>2011-10-16T13:21:16Z</time>
      </trkpt>
      <trkpt lat="45.23821" lon="5.78651">
        <ele>638.5</ele>
        <time>2011-10-16T13:21:18Z</time>
      </trkpt>
      <trkpt lat="45.23816" lon="5.78652">
        <ele>637.7</ele>
        <time>2011-10-16T13:21:20Z</time>
      </trkpt>
      <trkpt lat="45.23811" lon="5.78654">
        <ele>637.6</ele>
        <time>2011-10-16T13:21:22Z</time>
      </trkpt>
      <trkpt lat="45.23806" lon="5.78658">
        <ele>637.4</ele>
        <time>2011-10-16T13:21:24Z</time>
      </trkpt>
      <trkpt lat="45.23803" lon="5.78663">
        <ele>637.6</ele>
        <time>2011-10-16T13:21:26Z</time>
      </trkpt>
      <trkpt lat="45.23799" lon="5.78668">
        <ele>637.6</ele>
        <time>2011-10-16T13:21:28Z</time>
      </trkpt>
      <trkpt lat="45.23795" lon="5.78672">
        <ele>637.6</ele>
        <time>2011-10-16T13:21:30Z</time>
      </trkpt>
      <trkpt lat="45.23791" lon="5.78677">
        <ele>637.7</ele>
        <time>2011-10-16T13:21:33Z</time>
      </trkpt>
      <trkpt lat="45.23787" lon="5.78684">
        <ele>638.1</ele>
        <time>2011-10-16T13:21:36Z</time>
      </trkpt>
      <trkpt lat="45.23781" lon="5.78686">
        <ele>638.5</ele>
        <time>2011-10-16T13:21:39Z</time>
      </trkpt>
      <trkpt lat="45.23775" lon="5.78684">
        <ele>639.1</ele>
        <time>2011-10-16T13:21:42Z</time>
      </trkpt>
      <trkpt lat="45.23771" lon="5.7868">
        <ele>639.3</ele>
        <time>2011-10-16T13:21:44Z</time>
      </trkpt>
      <trkpt lat="45.23768" lon="5.78675">
        <ele>639.5</ele>
        <time>2011-10-16T13:21:46Z</time>
      </trkpt>
      <trkpt lat="45.23764" lon="5.78671">
        <ele>640</ele>
        <time>2011-10-16T13:21:48Z</time>
      </trkpt>
      <trkpt lat="45.23761" lon="5.78666">
        <ele>640.4</ele>
        <time>2011-10-16T13:21:50Z</time>
      </trkpt>
      <trkpt lat="45.23756" lon="5.78659">
        <ele>641.2</ele>
        <time>2011-10-16T13:21:53Z</time>
      </trkpt>
      <trkpt lat="45.23752" lon="5.78652">
        <ele>642</ele>
        <time>2011-10-16T13:21:56Z</time>
      </trkpt>
      <trkpt lat="45.23749" lon="5.78647">
        <ele>642.1</ele>
        <time>2011-10-16T13:21:58Z</time>
      </trkpt>
      <trkpt lat="45.23746" lon="5.78641">
        <ele>642.4</ele>
        <time>2011-10-16T13:22:00Z</time>
      </trkpt>
      <trkpt lat="45.23744" lon="5.78633">
        <ele>642.8</ele>
        <time>2011-10-16T13:22:03Z</time>
      </trkpt>
      <trkpt lat="45.23742" lon="5.78627">
        <ele>643.1</ele>
        <time>2011-10-16T13:22:05Z</time>
      </trkpt>
      <trkpt lat="45.2374" lon="5.78621">
        <ele>643.1</ele>
        <time>2011-10-16T13:22:07Z</time>
      </trkpt>
      <trkpt lat="45.23738" lon="5.78614">
        <ele>643.2</ele>
        <time>2011-10-16T13:22:09Z</time>
      </trkpt>
      <trkpt lat="45.23736" lon="5.78606">
        <ele>643.3</ele>
        <time>2011-10-16T13:22:11Z</time>
      </trkpt>
      <trkpt lat="45.23736" lon="5.78599">
        <ele>643.7</ele>
        <time>2011-10-16T13:22:13Z</time>
      </trkpt>
      <trkpt lat="45.23735" lon="5.78592">
        <ele>643.7</ele>
        <time>2011-10-16T13:22:15Z</time>
      </trkpt>
      <trkpt lat="45.23736" lon="5.78585">
        <ele>643.5</ele>
        <time>2011-10-16T13:22:17Z</time>
      </trkpt>
      <trkpt lat="45.23738" lon="5.78578">
        <ele>643.2</ele>
        <time>2011-10-16T13:22:19Z</time>
      </trkpt>
      <trkpt lat="45.23739" lon="5.7857">
        <ele>643</ele>
        <time>2011-10-16T13:22:21Z</time>
      </trkpt>
      <trkpt lat="45.23741" lon="5.78562">
        <ele>642.4</ele>
        <time>2011-10-16T13:22:23Z</time>
      </trkpt>
      <trkpt lat="45.23742" lon="5.78554">
        <ele>642.4</ele>
        <time>2011-10-16T13:22:25Z</time>
      </trkpt>
      <trkpt lat="45.23744" lon="5.78547">
        <ele>642.6</ele>
        <time>2011-10-16T13:22:27Z</time>
      </trkpt>
      <trkpt lat="45.23746" lon="5.78541">
        <ele>642.6</ele>
        <time>2011-10-16T13:22:29Z</time>
      </trkpt>
      <trkpt lat="45.23748" lon="5.78534">
        <ele>642.7</ele>
        <time>2011-10-16T13:22:31Z</time>
      </trkpt>
      <trkpt lat="45.2375" lon="5.78527">
        <ele>642.5</ele>
        <time>2011-10-16T13:22:33Z</time>
      </trkpt>
      <trkpt lat="45.2375" lon="5.7852">
        <ele>642.7</ele>
        <time>2011-10-16T13:22:35Z</time>
      </trkpt>
      <trkpt lat="45.2375" lon="5.78512">
        <ele>643</ele>
        <time>2011-10-16T13:22:37Z</time>
      </trkpt>
      <trkpt lat="45.23748" lon="5.78503">
        <ele>643.3</ele>
        <time>2011-10-16T13:22:39Z</time>
      </trkpt>
      <trkpt lat="45.23746" lon="5.78496">
        <ele>643.6</ele>
        <time>2011-10-16T13:22:41Z</time>
      </trkpt>
      <trkpt lat="45.23745" lon="5.78489">
        <ele>644</ele>
        <time>2011-10-16T13:22:43Z</time>
      </trkpt>
      <trkpt lat="45.23742" lon="5.78482">
        <ele>644.2</ele>
        <time>2011-10-16T13:22:45Z</time>
      </trkpt>
      <trkpt lat="45.2374" lon="5.78476">
        <ele>644.4</ele>
        <time>2011-10-16T13:22:47Z</time>
      </trkpt>
      <trkpt lat="45.23737" lon="5.78469">
        <ele>644.9</ele>
        <time>2011-10-16T13:22:49Z</time>
      </trkpt>
      <trkpt lat="45.23735" lon="5.78463">
        <ele>645.3</ele>
        <time>2011-10-16T13:22:51Z</time>
      </trkpt>
      <trkpt lat="45.23732" lon="5.78456">
        <ele>645.3</ele>
        <time>2011-10-16T13:22:53Z</time>
      </trkpt>
      <trkpt lat="45.23729" lon="5.7845">
        <ele>645.2</ele>
        <time>2011-10-16T13:22:55Z</time>
      </trkpt>
      <trkpt lat="45.23725" lon="5.78444">
        <ele>645.2</ele>
        <time>2011-10-16T13:22:57Z</time>
      </trkpt>
      <trkpt lat="45.23722" lon="5.78438">
        <ele>645.3</ele>
        <time>2011-10-16T13:22:59Z</time>
      </trkpt>
      <trkpt lat="45.23718" lon="5.78432">
        <ele>645.1</ele>
        <time>2011-10-16T13:23:01Z</time>
      </trkpt>
      <trkpt lat="45.23715" lon="5.78427">
        <ele>645.2</ele>
        <time>2011-10-16T13:23:03Z</time>
      </trkpt>
      <trkpt lat="45.23711" lon="5.78422">
        <ele>645.4</ele>
        <time>2011-10-16T13:23:05Z</time>
      </trkpt>
      <trkpt lat="45.23708" lon="5.78416">
        <ele>645.6</ele>
        <time>2011-10-16T13:23:07Z</time>
      </trkpt>
      <trkpt lat="45.23704" lon="5.78411">
        <ele>646</ele>
        <time>2011-10-16T13:23:09Z</time>
      </trkpt>
      <trkpt lat="45.23701" lon="5.78405">
        <ele>646.3</ele>
        <time>2011-10-16T13:23:11Z</time>
      </trkpt>
      <trkpt lat="45.23698" lon="5.78399">
        <ele>646.7</ele>
        <time>2011-10-16T13:23:13Z</time>
      </trkpt>
      <trkpt lat="45.23695" lon="5.78393">
        <ele>647</ele>
        <time>2011-10-16T13:23:15Z</time>
      </trkpt>
      <trkpt lat="45.23692" lon="5.78388">
        <ele>647.4</ele>
        <time>2011-10-16T13:23:17Z</time>
      </trkpt>
      <trkpt lat="45.23689" lon="5.78382">
        <ele>647.7</ele>
        <time>2011-10-16T13:23:20Z</time>
      </trkpt>
      <trkpt lat="45.23686" lon="5.78374">
        <ele>648.2</ele>
        <time>2011-10-16T13:23:23Z</time>
      </trkpt>
      <trkpt lat="45.23682" lon="5.78368">
        <ele>648.6</ele>
        <time>2011-10-16T13:23:26Z</time>
      </trkpt>
      <trkpt lat="45.23678" lon="5.78361">
        <ele>648.8</ele>
        <time>2011-10-16T13:23:29Z</time>
      </trkpt>
      <trkpt lat="45.23673" lon="5.78355">
        <ele>649.7</ele>
        <time>2011-10-16T13:23:32Z</time>
      </trkpt>
      <trkpt lat="45.2367" lon="5.7835">
        <ele>650</ele>
        <time>2011-10-16T13:23:34Z</time>
      </trkpt>
      <trkpt lat="45.23665" lon="5.78343">
        <ele>650.2</ele>
        <time>2011-10-16T13:23:36Z</time>
      </trkpt>
      <trkpt lat="45.23661" lon="5.78338">
        <ele>650.3</ele>
        <time>2011-10-16T13:23:38Z</time>
      </trkpt>
      <trkpt lat="45.23656" lon="5.78331">
        <ele>650.2</ele>
        <time>2011-10-16T13:23:41Z</time>
      </trkpt>
      <trkpt lat="45.23652" lon="5.78327">
        <ele>650.3</ele>
        <time>2011-10-16T13:23:43Z</time>
      </trkpt>
      <trkpt lat="45.23648" lon="5.78323">
        <ele>650.5</ele>
        <time>2011-10-16T13:23:46Z</time>
      </trkpt>
      <trkpt lat="45.23643" lon="5.78322">
        <ele>651</ele>
        <time>2011-10-16T13:23:51Z</time>
      </trkpt>
      <trkpt lat="45.23642" lon="5.78315">
        <ele>650</ele>
        <time>2011-10-16T13:24:22Z</time>
      </trkpt>
      <trkpt lat="45.23642" lon="5.78308">
        <ele>650.2</ele>
        <time>2011-10-16T13:24:24Z</time>
      </trkpt>
      <trkpt lat="45.23642" lon="5.78299">
        <ele>649.9</ele>
        <time>2011-10-16T13:24:26Z</time>
      </trkpt>
      <trkpt lat="45.2364" lon="5.78289">
        <ele>649.8</ele>
        <time>2011-10-16T13:24:28Z</time>
      </trkpt>
      <trkpt lat="45.23638" lon="5.78279">
        <ele>649.7</ele>
        <time>2011-10-16T13:24:30Z</time>
      </trkpt>
      <trkpt lat="45.23631" lon="5.78274">
        <ele>649.3</ele>
        <time>2011-10-16T13:24:32Z</time>
      </trkpt>
      <trkpt lat="45.23626" lon="5.78277">
        <ele>649.2</ele>
        <time>2011-10-16T13:24:34Z</time>
      </trkpt>
      <trkpt lat="45.23622" lon="5.78281">
        <ele>648.7</ele>
        <time>2011-10-16T13:24:36Z</time>
      </trkpt>
      <trkpt lat="45.23617" lon="5.78286">
        <ele>648.4</ele>
        <time>2011-10-16T13:24:38Z</time>
      </trkpt>
      <trkpt lat="45.23613" lon="5.78291">
        <ele>648.1</ele>
        <time>2011-10-16T13:24:40Z</time>
      </trkpt>
      <trkpt lat="45.23607" lon="5.78292">
        <ele>647.6</ele>
        <time>2011-10-16T13:24:43Z</time>
      </trkpt>
      <trkpt lat="45.23604" lon="5.78285">
        <ele>647.1</ele>
        <time>2011-10-16T13:24:46Z</time>
      </trkpt>
      <trkpt lat="45.23602" lon="5.78278">
        <ele>646.6</ele>
        <time>2011-10-16T13:24:49Z</time>
      </trkpt>
      <trkpt lat="45.23597" lon="5.78272">
        <ele>646.2</ele>
        <time>2011-10-16T13:24:52Z</time>
      </trkpt>
      <trkpt lat="45.23593" lon="5.78266">
        <ele>643.8</ele>
        <time>2011-10-16T13:24:54Z</time>
      </trkpt>
      <trkpt lat="45.2359" lon="5.78262">
        <ele>643.1</ele>
        <time>2011-10-16T13:24:56Z</time>
      </trkpt>
      <trkpt lat="45.23586" lon="5.78257">
        <ele>642.9</ele>
        <time>2011-10-16T13:24:58Z</time>
      </trkpt>
      <trkpt lat="45.23583" lon="5.78251">
        <ele>641.9</ele>
        <time>2011-10-16T13:25:00Z</time>
      </trkpt>
      <trkpt lat="45.23579" lon="5.78246">
        <ele>640.9</ele>
        <time>2011-10-16T13:25:02Z</time>
      </trkpt>
      <trkpt lat="45.23575" lon="5.7824">
        <ele>640.2</ele>
        <time>2011-10-16T13:25:04Z</time>
      </trkpt>
      <trkpt lat="45.23572" lon="5.78235">
        <ele>639.9</ele>
        <time>2011-10-16T13:25:06Z</time>
      </trkpt>
      <trkpt lat="45.23568" lon="5.7823">
        <ele>639.7</ele>
        <time>2011-10-16T13:25:08Z</time>
      </trkpt>
      <trkpt lat="45.23564" lon="5.78222">
        <ele>639.4</ele>
        <time>2011-10-16T13:25:11Z</time>
      </trkpt>
      <trkpt lat="45.23561" lon="5.78216">
        <ele>638.8</ele>
        <time>2011-10-16T13:25:13Z</time>
      </trkpt>
      <trkpt lat="45.23557" lon="5.78209">
        <ele>638.3</ele>
        <time>2011-10-16T13:25:16Z</time>
      </trkpt>
      <trkpt lat="45.23553" lon="5.78204">
        <ele>638</ele>
        <time>2011-10-16T13:25:18Z</time>
      </trkpt>
      <trkpt lat="45.23549" lon="5.78198">
        <ele>637.6</ele>
        <time>2011-10-16T13:25:20Z</time>
      </trkpt>
      <trkpt lat="45.23546" lon="5.78193">
        <ele>637.7</ele>
        <time>2011-10-16T13:25:22Z</time>
      </trkpt>
      <trkpt lat="45.23543" lon="5.78185">
        <ele>637.7</ele>
        <time>2011-10-16T13:25:25Z</time>
      </trkpt>
      <trkpt lat="45.23537" lon="5.78178">
        <ele>637.5</ele>
        <time>2011-10-16T13:25:28Z</time>
      </trkpt>
      <trkpt lat="45.23533" lon="5.78171">
        <ele>636.8</ele>
        <time>2011-10-16T13:25:31Z</time>
      </trkpt>
      <trkpt lat="45.23528" lon="5.78164">
        <ele>636.3</ele>
        <time>2011-10-16T13:25:33Z</time>
      </trkpt>
      <trkpt lat="45.23524" lon="5.78157">
        <ele>635.9</ele>
        <time>2011-10-16T13:25:35Z</time>
      </trkpt>
      <trkpt lat="45.23519" lon="5.78149">
        <ele>635.9</ele>
        <time>2011-10-16T13:25:37Z</time>
      </trkpt>
      <trkpt lat="45.23515" lon="5.78142">
        <ele>636.2</ele>
        <time>2011-10-16T13:25:39Z</time>
      </trkpt>
      <trkpt lat="45.23511" lon="5.78135">
        <ele>636.2</ele>
        <time>2011-10-16T13:25:41Z</time>
      </trkpt>
      <trkpt lat="45.23506" lon="5.78128">
        <ele>636.3</ele>
        <time>2011-10-16T13:25:43Z</time>
      </trkpt>
      <trkpt lat="45.23503" lon="5.78122">
        <ele>636.2</ele>
        <time>2011-10-16T13:25:45Z</time>
      </trkpt>
      <trkpt lat="45.23499" lon="5.78115">
        <ele>636.2</ele>
        <time>2011-10-16T13:25:48Z</time>
      </trkpt>
      <trkpt lat="45.23495" lon="5.78109">
        <ele>636.5</ele>
        <time>2011-10-16T13:25:51Z</time>
      </trkpt>
      <trkpt lat="45.23491" lon="5.78103">
        <ele>636.7</ele>
        <time>2011-10-16T13:25:54Z</time>
      </trkpt>
      <trkpt lat="45.23487" lon="5.78097">
        <ele>637.2</ele>
        <time>2011-10-16T13:25:59Z</time>
      </trkpt>
      <trkpt lat="45.23482" lon="5.78096">
        <ele>637.4</ele>
        <time>2011-10-16T13:26:01Z</time>
      </trkpt>
      <trkpt lat="45.23477" lon="5.78094">
        <ele>637.3</ele>
        <time>2011-10-16T13:26:03Z</time>
      </trkpt>
      <trkpt lat="45.23471" lon="5.78093">
        <ele>637.2</ele>
        <time>2011-10-16T13:26:05Z</time>
      </trkpt>
      <trkpt lat="45.23466" lon="5.78093">
        <ele>637.1</ele>
        <time>2011-10-16T13:26:07Z</time>
      </trkpt>
      <trkpt lat="45.23458" lon="5.78094">
        <ele>637.3</ele>
        <time>2011-10-16T13:26:09Z</time>
      </trkpt>
      <trkpt lat="45.2345" lon="5.78094">
        <ele>637.3</ele>
        <time>2011-10-16T13:26:11Z</time>
      </trkpt>
      <trkpt lat="45.23445" lon="5.78095">
        <ele>637.3</ele>
        <time>2011-10-16T13:26:12Z</time>
      </trkpt>
      <trkpt lat="45.23441" lon="5.78096">
        <ele>637.3</ele>
        <time>2011-10-16T13:26:13Z</time>
      </trkpt>
      <trkpt lat="45.23435" lon="5.78098">
        <ele>637.3</ele>
        <time>2011-10-16T13:26:14Z</time>
      </trkpt>
      <trkpt lat="45.23431" lon="5.78101">
        <ele>637.3</ele>
        <time>2011-10-16T13:26:15Z</time>
      </trkpt>
      <trkpt lat="45.23426" lon="5.78105">
        <ele>637.1</ele>
        <time>2011-10-16T13:26:16Z</time>
      </trkpt>
      <trkpt lat="45.23423" lon="5.78111">
        <ele>636.7</ele>
        <time>2011-10-16T13:26:17Z</time>
      </trkpt>
      <trkpt lat="45.23419" lon="5.78115">
        <ele>636.4</ele>
        <time>2011-10-16T13:26:18Z</time>
      </trkpt>
      <trkpt lat="45.23412" lon="5.78118">
        <ele>636</ele>
        <time>2011-10-16T13:26:20Z</time>
      </trkpt>
      <trkpt lat="45.23412" lon="5.78108">
        <ele>634.5</ele>
        <time>2011-10-16T13:26:23Z</time>
      </trkpt>
      <trkpt lat="45.23412" lon="5.78099">
        <ele>633.8</ele>
        <time>2011-10-16T13:26:25Z</time>
      </trkpt>
      <trkpt lat="45.2341" lon="5.78088">
        <ele>632.9</ele>
        <time>2011-10-16T13:26:27Z</time>
      </trkpt>
      <trkpt lat="45.23407" lon="5.78079">
        <ele>632.3</ele>
        <time>2011-10-16T13:26:29Z</time>
      </trkpt>
      <trkpt lat="45.23404" lon="5.78071">
        <ele>631.3</ele>
        <time>2011-10-16T13:26:31Z</time>
      </trkpt>
      <trkpt lat="45.23402" lon="5.78062">
        <ele>630.1</ele>
        <time>2011-10-16T13:26:33Z</time>
      </trkpt>
      <trkpt lat="45.234" lon="5.78057">
        <ele>629</ele>
        <time>2011-10-16T13:26:35Z</time>
      </trkpt>
      <trkpt lat="45.23397" lon="5.78052">
        <ele>628.3</ele>
        <time>2011-10-16T13:26:37Z</time>
      </trkpt>
      <trkpt lat="45.23392" lon="5.7805">
        <ele>627.8</ele>
        <time>2011-10-16T13:26:39Z</time>
      </trkpt>
      <trkpt lat="45.23386" lon="5.78045">
        <ele>626.6</ele>
        <time>2011-10-16T13:26:41Z</time>
      </trkpt>
      <trkpt lat="45.23378" lon="5.78039">
        <ele>625.8</ele>
        <time>2011-10-16T13:26:43Z</time>
      </trkpt>
      <trkpt lat="45.23372" lon="5.78032">
        <ele>624.8</ele>
        <time>2011-10-16T13:26:45Z</time>
      </trkpt>
      <trkpt lat="45.23366" lon="5.78024">
        <ele>623.8</ele>
        <time>2011-10-16T13:26:47Z</time>
      </trkpt>
      <trkpt lat="45.23363" lon="5.78014">
        <ele>622.9</ele>
        <time>2011-10-16T13:26:49Z</time>
      </trkpt>
      <trkpt lat="45.2336" lon="5.78006">
        <ele>622.7</ele>
        <time>2011-10-16T13:26:51Z</time>
      </trkpt>
      <trkpt lat="45.23358" lon="5.77999">
        <ele>621.7</ele>
        <time>2011-10-16T13:26:53Z</time>
      </trkpt>
      <trkpt lat="45.23356" lon="5.77992">
        <ele>621.3</ele>
        <time>2011-10-16T13:26:55Z</time>
      </trkpt>
      <trkpt lat="45.23354" lon="5.77986">
        <ele>621</ele>
        <time>2011-10-16T13:26:57Z</time>
      </trkpt>
      <trkpt lat="45.23351" lon="5.7798">
        <ele>620.7</ele>
        <time>2011-10-16T13:26:59Z</time>
      </trkpt>
      <trkpt lat="45.23349" lon="5.77973">
        <ele>619.6</ele>
        <time>2011-10-16T13:27:01Z</time>
      </trkpt>
      <trkpt lat="45.23345" lon="5.77967">
        <ele>618.7</ele>
        <time>2011-10-16T13:27:04Z</time>
      </trkpt>
      <trkpt lat="45.2334" lon="5.77962">
        <ele>618.8</ele>
        <time>2011-10-16T13:27:06Z</time>
      </trkpt>
      <trkpt lat="45.23337" lon="5.77958">
        <ele>618.7</ele>
        <time>2011-10-16T13:27:08Z</time>
      </trkpt>
      <trkpt lat="45.23334" lon="5.77952">
        <ele>618.6</ele>
        <time>2011-10-16T13:27:10Z</time>
      </trkpt>
      <trkpt lat="45.23331" lon="5.77945">
        <ele>618.1</ele>
        <time>2011-10-16T13:27:12Z</time>
      </trkpt>
      <trkpt lat="45.23326" lon="5.77939">
        <ele>618.3</ele>
        <time>2011-10-16T13:27:14Z</time>
      </trkpt>
      <trkpt lat="45.23321" lon="5.77932">
        <ele>618.3</ele>
        <time>2011-10-16T13:27:16Z</time>
      </trkpt>
      <trkpt lat="45.23316" lon="5.77927">
        <ele>618.1</ele>
        <time>2011-10-16T13:27:18Z</time>
      </trkpt>
      <trkpt lat="45.23311" lon="5.77921">
        <ele>617.9</ele>
        <time>2011-10-16T13:27:20Z</time>
      </trkpt>
      <trkpt lat="45.23307" lon="5.77915">
        <ele>617.8</ele>
        <time>2011-10-16T13:27:22Z</time>
      </trkpt>
      <trkpt lat="45.23302" lon="5.77907">
        <ele>617.7</ele>
        <time>2011-10-16T13:27:24Z</time>
      </trkpt>
      <trkpt lat="45.23299" lon="5.779">
        <ele>617.8</ele>
        <time>2011-10-16T13:27:26Z</time>
      </trkpt>
      <trkpt lat="45.23296" lon="5.77892">
        <ele>616.1</ele>
        <time>2011-10-16T13:27:28Z</time>
      </trkpt>
      <trkpt lat="45.23293" lon="5.77883">
        <ele>614.4</ele>
        <time>2011-10-16T13:27:30Z</time>
      </trkpt>
      <trkpt lat="45.23291" lon="5.77876">
        <ele>614.4</ele>
        <time>2011-10-16T13:27:32Z</time>
      </trkpt>
      <trkpt lat="45.23287" lon="5.77869">
        <ele>614.5</ele>
        <time>2011-10-16T13:27:34Z</time>
      </trkpt>
      <trkpt lat="45.23283" lon="5.77863">
        <ele>614.4</ele>
        <time>2011-10-16T13:27:36Z</time>
      </trkpt>
      <trkpt lat="45.23279" lon="5.77857">
        <ele>614.6</ele>
        <time>2011-10-16T13:27:38Z</time>
      </trkpt>
      <trkpt lat="45.23272" lon="5.77849">
        <ele>614.7</ele>
        <time>2011-10-16T13:27:40Z</time>
      </trkpt>
      <trkpt lat="45.23266" lon="5.77841">
        <ele>614.5</ele>
        <time>2011-10-16T13:27:42Z</time>
      </trkpt>
      <trkpt lat="45.23262" lon="5.77836">
        <ele>614.3</ele>
        <time>2011-10-16T13:27:43Z</time>
      </trkpt>
      <trkpt lat="45.23257" lon="5.77831">
        <ele>614.1</ele>
        <time>2011-10-16T13:27:44Z</time>
      </trkpt>
      <trkpt lat="45.23252" lon="5.77827">
        <ele>614.1</ele>
        <time>2011-10-16T13:27:45Z</time>
      </trkpt>
      <trkpt lat="45.23247" lon="5.77824">
        <ele>614.3</ele>
        <time>2011-10-16T13:27:46Z</time>
      </trkpt>
      <trkpt lat="45.23241" lon="5.77823">
        <ele>614.4</ele>
        <time>2011-10-16T13:27:47Z</time>
      </trkpt>
      <trkpt lat="45.23236" lon="5.77822">
        <ele>614.5</ele>
        <time>2011-10-16T13:27:48Z</time>
      </trkpt>
      <trkpt lat="45.23231" lon="5.7782">
        <ele>614.5</ele>
        <time>2011-10-16T13:27:49Z</time>
      </trkpt>
      <trkpt lat="45.23226" lon="5.77818">
        <ele>614.5</ele>
        <time>2011-10-16T13:27:50Z</time>
      </trkpt>
      <trkpt lat="45.23222" lon="5.77816">
        <ele>614.6</ele>
        <time>2011-10-16T13:27:51Z</time>
      </trkpt>
      <trkpt lat="45.23216" lon="5.77815">
        <ele>614.3</ele>
        <time>2011-10-16T13:27:53Z</time>
      </trkpt>
      <trkpt lat="45.23211" lon="5.77813">
        <ele>613.8</ele>
        <time>2011-10-16T13:27:55Z</time>
      </trkpt>
      <trkpt lat="45.23209" lon="5.77807">
        <ele>613.5</ele>
        <time>2011-10-16T13:27:57Z</time>
      </trkpt>
      <trkpt lat="45.2321" lon="5.778">
        <ele>613.5</ele>
        <time>2011-10-16T13:27:59Z</time>
      </trkpt>
      <trkpt lat="45.23212" lon="5.77792">
        <ele>612.7</ele>
        <time>2011-10-16T13:28:01Z</time>
      </trkpt>
      <trkpt lat="45.23214" lon="5.77782">
        <ele>611.7</ele>
        <time>2011-10-16T13:28:03Z</time>
      </trkpt>
      <trkpt lat="45.23216" lon="5.77774">
        <ele>612</ele>
        <time>2011-10-16T13:28:05Z</time>
      </trkpt>
      <trkpt lat="45.23219" lon="5.77764">
        <ele>611.9</ele>
        <time>2011-10-16T13:28:07Z</time>
      </trkpt>
      <trkpt lat="45.23222" lon="5.77755">
        <ele>611.7</ele>
        <time>2011-10-16T13:28:09Z</time>
      </trkpt>
      <trkpt lat="45.23225" lon="5.77747">
        <ele>611.3</ele>
        <time>2011-10-16T13:28:11Z</time>
      </trkpt>
      <trkpt lat="45.23228" lon="5.77736">
        <ele>610.4</ele>
        <time>2011-10-16T13:28:13Z</time>
      </trkpt>
      <trkpt lat="45.23231" lon="5.7773">
        <ele>610.2</ele>
        <time>2011-10-16T13:28:14Z</time>
      </trkpt>
      <trkpt lat="45.23234" lon="5.77723">
        <ele>610.1</ele>
        <time>2011-10-16T13:28:15Z</time>
      </trkpt>
      <trkpt lat="45.23237" lon="5.77716">
        <ele>609.7</ele>
        <time>2011-10-16T13:28:16Z</time>
      </trkpt>
      <trkpt lat="45.23242" lon="5.77709">
        <ele>608.2</ele>
        <time>2011-10-16T13:28:18Z</time>
      </trkpt>
      <trkpt lat="45.23246" lon="5.77706">
        <ele>604.7</ele>
        <time>2011-10-16T13:28:30Z</time>
      </trkpt>
      <trkpt lat="45.23249" lon="5.777">
        <ele>605.3</ele>
        <time>2011-10-16T13:28:36Z</time>
      </trkpt>
      <trkpt lat="45.23252" lon="5.77695">
        <ele>605.8</ele>
        <time>2011-10-16T13:28:40Z</time>
      </trkpt>
      <trkpt lat="45.23255" lon="5.7769">
        <ele>606.5</ele>
        <time>2011-10-16T13:28:44Z</time>
      </trkpt>
      <trkpt lat="45.23258" lon="5.77685">
        <ele>607</ele>
        <time>2011-10-16T13:28:49Z</time>
      </trkpt>
      <trkpt lat="45.23262" lon="5.7768">
        <ele>607.6</ele>
        <time>2011-10-16T13:28:55Z</time>
      </trkpt>
      <trkpt lat="45.23266" lon="5.77676">
        <ele>608.4</ele>
        <time>2011-10-16T13:28:59Z</time>
      </trkpt>
      <trkpt lat="45.23269" lon="5.7767">
        <ele>608.6</ele>
        <time>2011-10-16T13:29:05Z</time>
      </trkpt>
      <trkpt lat="45.23267" lon="5.77664">
        <ele>612.6</ele>
        <time>2011-10-16T13:30:11Z</time>
      </trkpt>
      <trkpt lat="45.23262" lon="5.77666">
        <ele>612.9</ele>
        <time>2011-10-16T13:30:15Z</time>
      </trkpt>
      <trkpt lat="45.23257" lon="5.77667">
        <ele>613.1</ele>
        <time>2011-10-16T13:30:18Z</time>
      </trkpt>
      <trkpt lat="45.23252" lon="5.77667">
        <ele>613.4</ele>
        <time>2011-10-16T13:30:24Z</time>
      </trkpt>
      <trkpt lat="45.23246" lon="5.77665">
        <ele>614.2</ele>
        <time>2011-10-16T13:30:29Z</time>
      </trkpt>
      <trkpt lat="45.23241" lon="5.77666">
        <ele>614.7</ele>
        <time>2011-10-16T13:30:32Z</time>
      </trkpt>
      <trkpt lat="45.23236" lon="5.77668">
        <ele>614.9</ele>
        <time>2011-10-16T13:30:35Z</time>
      </trkpt>
      <trkpt lat="45.23231" lon="5.7767">
        <ele>614.7</ele>
        <time>2011-10-16T13:30:38Z</time>
      </trkpt>
      <trkpt lat="45.23226" lon="5.77666">
        <ele>614.7</ele>
        <time>2011-10-16T13:30:41Z</time>
      </trkpt>
      <trkpt lat="45.23221" lon="5.77662">
        <ele>615.1</ele>
        <time>2011-10-16T13:30:44Z</time>
      </trkpt>
      <trkpt lat="45.23216" lon="5.77658">
        <ele>615.4</ele>
        <time>2011-10-16T13:30:47Z</time>
      </trkpt>
      <trkpt lat="45.2321" lon="5.77655">
        <ele>615.6</ele>
        <time>2011-10-16T13:30:50Z</time>
      </trkpt>
      <trkpt lat="45.23205" lon="5.77653">
        <ele>615.9</ele>
        <time>2011-10-16T13:30:53Z</time>
      </trkpt>
      <trkpt lat="45.23199" lon="5.7765">
        <ele>616.1</ele>
        <time>2011-10-16T13:30:56Z</time>
      </trkpt>
      <trkpt lat="45.23194" lon="5.77646">
        <ele>616.4</ele>
        <time>2011-10-16T13:30:59Z</time>
      </trkpt>
      <trkpt lat="45.23188" lon="5.77644">
        <ele>618.3</ele>
        <time>2011-10-16T13:31:08Z</time>
      </trkpt>
      <trkpt lat="45.23184" lon="5.7764">
        <ele>618.3</ele>
        <time>2011-10-16T13:31:15Z</time>
      </trkpt>
      <trkpt lat="45.23179" lon="5.77639">
        <ele>617.5</ele>
        <time>2011-10-16T13:31:22Z</time>
      </trkpt>
      <trkpt lat="45.23175" lon="5.77636">
        <ele>617.4</ele>
        <time>2011-10-16T13:31:26Z</time>
      </trkpt>
      <trkpt lat="45.2317" lon="5.77633">
        <ele>617.2</ele>
        <time>2011-10-16T13:31:31Z</time>
      </trkpt>
      <trkpt lat="45.23165" lon="5.77631">
        <ele>616.8</ele>
        <time>2011-10-16T13:31:34Z</time>
      </trkpt>
      <trkpt lat="45.23159" lon="5.77629">
        <ele>617.7</ele>
        <time>2011-10-16T13:31:38Z</time>
      </trkpt>
      <trkpt lat="45.23153" lon="5.77628">
        <ele>617.7</ele>
        <time>2011-10-16T13:31:42Z</time>
      </trkpt>
      <trkpt lat="45.23147" lon="5.77626">
        <ele>617.4</ele>
        <time>2011-10-16T13:31:45Z</time>
      </trkpt>
      <trkpt lat="45.23142" lon="5.77622">
        <ele>617.2</ele>
        <time>2011-10-16T13:31:48Z</time>
      </trkpt>
      <trkpt lat="45.23141" lon="5.77615">
        <ele>617.7</ele>
        <time>2011-10-16T13:31:51Z</time>
      </trkpt>
      <trkpt lat="45.2314" lon="5.77607">
        <ele>618.8</ele>
        <time>2011-10-16T13:31:55Z</time>
      </trkpt>
      <trkpt lat="45.23139" lon="5.77601">
        <ele>620.3</ele>
        <time>2011-10-16T13:32:01Z</time>
      </trkpt>
      <trkpt lat="45.23139" lon="5.77601">
        <ele>620.3</ele>
        <time>2011-10-16T13:32:01Z</time>
      </trkpt>
      <trkpt lat="45.23139" lon="5.77601">
        <ele>620.3</ele>
        <time>2011-10-16T13:32:14Z</time>
      </trkpt>
      <trkpt lat="45.23137" lon="5.77594">
        <ele>621.7</ele>
        <time>2011-10-16T13:32:19Z</time>
      </trkpt>
      <trkpt lat="45.23137" lon="5.77587">
        <ele>621.4</ele>
        <time>2011-10-16T13:32:22Z</time>
      </trkpt>
      <trkpt lat="45.23138" lon="5.77581">
        <ele>619.6</ele>
        <time>2011-10-16T13:32:26Z</time>
      </trkpt>
      <trkpt lat="45.23136" lon="5.77575">
        <ele>618.4</ele>
        <time>2011-10-16T13:32:35Z</time>
      </trkpt>
      <trkpt lat="45.23132" lon="5.77571">
        <ele>618.7</ele>
        <time>2011-10-16T13:32:40Z</time>
      </trkpt>
      <trkpt lat="45.23127" lon="5.77569">
        <ele>618.5</ele>
        <time>2011-10-16T13:32:49Z</time>
      </trkpt>
      <trkpt lat="45.23121" lon="5.7757">
        <ele>619.4</ele>
        <time>2011-10-16T13:32:57Z</time>
      </trkpt>
      <trkpt lat="45.23116" lon="5.7757">
        <ele>619.9</ele>
        <time>2011-10-16T13:33:02Z</time>
      </trkpt>
      <trkpt lat="45.23118" lon="5.77564">
        <ele>621.1</ele>
        <time>2011-10-16T13:33:11Z</time>
      </trkpt>
      <trkpt lat="45.23121" lon="5.77558">
        <ele>621.3</ele>
        <time>2011-10-16T13:33:18Z</time>
      </trkpt>
      <trkpt lat="45.23123" lon="5.77552">
        <ele>621.7</ele>
        <time>2011-10-16T13:33:24Z</time>
      </trkpt>
      <trkpt lat="45.23122" lon="5.77545">
        <ele>621.5</ele>
        <time>2011-10-16T13:33:59Z</time>
      </trkpt>
      <trkpt lat="45.23121" lon="5.77536">
        <ele>621.3</ele>
        <time>2011-10-16T13:34:02Z</time>
      </trkpt>
      <trkpt lat="45.23121" lon="5.77527">
        <ele>621.3</ele>
        <time>2011-10-16T13:34:05Z</time>
      </trkpt>
      <trkpt lat="45.2312" lon="5.77518">
        <ele>621.3</ele>
        <time>2011-10-16T13:34:08Z</time>
      </trkpt>
      <trkpt lat="45.2312" lon="5.77511">
        <ele>621.2</ele>
        <time>2011-10-16T13:34:10Z</time>
      </trkpt>
      <trkpt lat="45.23118" lon="5.77502">
        <ele>621.5</ele>
        <time>2011-10-16T13:34:12Z</time>
      </trkpt>
      <trkpt lat="45.23116" lon="5.77495">
        <ele>621.8</ele>
        <time>2011-10-16T13:34:14Z</time>
      </trkpt>
      <trkpt lat="45.23113" lon="5.77488">
        <ele>622.1</ele>
        <time>2011-10-16T13:34:16Z</time>
      </trkpt>
      <trkpt lat="45.2311" lon="5.77481">
        <ele>622.4</ele>
        <time>2011-10-16T13:34:18Z</time>
      </trkpt>
      <trkpt lat="45.23105" lon="5.77474">
        <ele>622.7</ele>
        <time>2011-10-16T13:34:20Z</time>
      </trkpt>
      <trkpt lat="45.23101" lon="5.77467">
        <ele>623</ele>
        <time>2011-10-16T13:34:22Z</time>
      </trkpt>
      <trkpt lat="45.23096" lon="5.77461">
        <ele>623.2</ele>
        <time>2011-10-16T13:34:24Z</time>
      </trkpt>
      <trkpt lat="45.2309" lon="5.77456">
        <ele>623.6</ele>
        <time>2011-10-16T13:34:26Z</time>
      </trkpt>
      <trkpt lat="45.23085" lon="5.77452">
        <ele>623.8</ele>
        <time>2011-10-16T13:34:28Z</time>
      </trkpt>
      <trkpt lat="45.23079" lon="5.77448">
        <ele>623.9</ele>
        <time>2011-10-16T13:34:30Z</time>
      </trkpt>
      <trkpt lat="45.23074" lon="5.77444">
        <ele>624.2</ele>
        <time>2011-10-16T13:34:32Z</time>
      </trkpt>
      <trkpt lat="45.23068" lon="5.7744">
        <ele>624.4</ele>
        <time>2011-10-16T13:34:34Z</time>
      </trkpt>
      <trkpt lat="45.23062" lon="5.77438">
        <ele>624.8</ele>
        <time>2011-10-16T13:34:36Z</time>
      </trkpt>
      <trkpt lat="45.23057" lon="5.77438">
        <ele>626.7</ele>
        <time>2011-10-16T13:34:40Z</time>
      </trkpt>
      <trkpt lat="45.23055" lon="5.77431">
        <ele>629.3</ele>
        <time>2011-10-16T13:34:54Z</time>
      </trkpt>
      <trkpt lat="45.23054" lon="5.77424">
        <ele>630.4</ele>
        <time>2011-10-16T13:35:01Z</time>
      </trkpt>
      <trkpt lat="45.23052" lon="5.77418">
        <ele>630.9</ele>
        <time>2011-10-16T13:35:06Z</time>
      </trkpt>
      <trkpt lat="45.23049" lon="5.77411">
        <ele>631.5</ele>
        <time>2011-10-16T13:35:11Z</time>
      </trkpt>
      <trkpt lat="45.23044" lon="5.77409">
        <ele>633.5</ele>
        <time>2011-10-16T13:35:51Z</time>
      </trkpt>
      <trkpt lat="45.23042" lon="5.77402">
        <ele>634.9</ele>
        <time>2011-10-16T13:36:00Z</time>
      </trkpt>
      <trkpt lat="45.23041" lon="5.77394">
        <ele>634.7</ele>
        <time>2011-10-16T13:36:05Z</time>
      </trkpt>
      <trkpt lat="45.23041" lon="5.77386">
        <ele>634.8</ele>
        <time>2011-10-16T13:36:10Z</time>
      </trkpt>
      <trkpt lat="45.23042" lon="5.77378">
        <ele>635.3</ele>
        <time>2011-10-16T13:36:15Z</time>
      </trkpt>
      <trkpt lat="45.23043" lon="5.77372">
        <ele>635.7</ele>
        <time>2011-10-16T13:36:19Z</time>
      </trkpt>
      <trkpt lat="45.23044" lon="5.77364">
        <ele>636</ele>
        <time>2011-10-16T13:36:24Z</time>
      </trkpt>
      <trkpt lat="45.23046" lon="5.77358">
        <ele>636.9</ele>
        <time>2011-10-16T13:36:29Z</time>
      </trkpt>
      <trkpt lat="45.23048" lon="5.77351">
        <ele>637.3</ele>
        <time>2011-10-16T13:36:34Z</time>
      </trkpt>
      <trkpt lat="45.23049" lon="5.77345">
        <ele>638</ele>
        <time>2011-10-16T13:36:39Z</time>
      </trkpt>
      <trkpt lat="45.2305" lon="5.77339">
        <ele>638.9</ele>
        <time>2011-10-16T13:36:44Z</time>
      </trkpt>
      <trkpt lat="45.23052" lon="5.77331">
        <ele>640.1</ele>
        <time>2011-10-16T13:37:15Z</time>
      </trkpt>
      <trkpt lat="45.23052" lon="5.77325">
        <ele>641</ele>
        <time>2011-10-16T13:37:19Z</time>
      </trkpt>
      <trkpt lat="45.23053" lon="5.77317">
        <ele>641.9</ele>
        <time>2011-10-16T13:37:24Z</time>
      </trkpt>
      <trkpt lat="45.23054" lon="5.7731">
        <ele>643</ele>
        <time>2011-10-16T13:37:29Z</time>
      </trkpt>
      <trkpt lat="45.23055" lon="5.77303">
        <ele>644.6</ele>
        <time>2011-10-16T13:37:33Z</time>
      </trkpt>
      <trkpt lat="45.23056" lon="5.77295">
        <ele>645.4</ele>
        <time>2011-10-16T13:37:37Z</time>
      </trkpt>
      <trkpt lat="45.23058" lon="5.77289">
        <ele>646.2</ele>
        <time>2011-10-16T13:37:41Z</time>
      </trkpt>
      <trkpt lat="45.2306" lon="5.77282">
        <ele>647.2</ele>
        <time>2011-10-16T13:37:46Z</time>
      </trkpt>
      <trkpt lat="45.2306" lon="5.77274">
        <ele>647.4</ele>
        <time>2011-10-16T13:38:33Z</time>
      </trkpt>
      <trkpt lat="45.23057" lon="5.77265">
        <ele>647</ele>
        <time>2011-10-16T13:38:36Z</time>
      </trkpt>
      <trkpt lat="45.23054" lon="5.77258">
        <ele>647</ele>
        <time>2011-10-16T13:38:38Z</time>
      </trkpt>
      <trkpt lat="45.23052" lon="5.77249">
        <ele>647.1</ele>
        <time>2011-10-16T13:38:40Z</time>
      </trkpt>
      <trkpt lat="45.23049" lon="5.77239">
        <ele>647.1</ele>
        <time>2011-10-16T13:38:42Z</time>
      </trkpt>
      <trkpt lat="45.23048" lon="5.77232">
        <ele>647.6</ele>
        <time>2011-10-16T13:38:44Z</time>
      </trkpt>
      <trkpt lat="45.23047" lon="5.77225">
        <ele>648.3</ele>
        <time>2011-10-16T13:38:46Z</time>
      </trkpt>
      <trkpt lat="45.23046" lon="5.77219">
        <ele>648.5</ele>
        <time>2011-10-16T13:38:48Z</time>
      </trkpt>
      <trkpt lat="45.23045" lon="5.77212">
        <ele>648.8</ele>
        <time>2011-10-16T13:38:50Z</time>
      </trkpt>
      <trkpt lat="45.23044" lon="5.77204">
        <ele>649.7</ele>
        <time>2011-10-16T13:38:53Z</time>
      </trkpt>
      <trkpt lat="45.23044" lon="5.77196">
        <ele>650</ele>
        <time>2011-10-16T13:38:57Z</time>
      </trkpt>
      <trkpt lat="45.23043" lon="5.77189">
        <ele>649.9</ele>
        <time>2011-10-16T13:39:00Z</time>
      </trkpt>
      <trkpt lat="45.23041" lon="5.7718">
        <ele>649.9</ele>
        <time>2011-10-16T13:39:03Z</time>
      </trkpt>
      <trkpt lat="45.2304" lon="5.77174">
        <ele>649.7</ele>
        <time>2011-10-16T13:39:05Z</time>
      </trkpt>
      <trkpt lat="45.23039" lon="5.77167">
        <ele>649.9</ele>
        <time>2011-10-16T13:39:07Z</time>
      </trkpt>
      <trkpt lat="45.23039" lon="5.77161">
        <ele>650.3</ele>
        <time>2011-10-16T13:39:09Z</time>
      </trkpt>
      <trkpt lat="45.23039" lon="5.77154">
        <ele>650.8</ele>
        <time>2011-10-16T13:39:12Z</time>
      </trkpt>
      <trkpt lat="45.23035" lon="5.77148">
        <ele>650</ele>
        <time>2011-10-16T13:39:16Z</time>
      </trkpt>
      <trkpt lat="45.23032" lon="5.77142">
        <ele>648.9</ele>
        <time>2011-10-16T13:39:20Z</time>
      </trkpt>
      <trkpt lat="45.23027" lon="5.77137">
        <ele>647.8</ele>
        <time>2011-10-16T13:39:23Z</time>
      </trkpt>
      <trkpt lat="45.23024" lon="5.77131">
        <ele>647.1</ele>
        <time>2011-10-16T13:39:25Z</time>
      </trkpt>
      <trkpt lat="45.23021" lon="5.77125">
        <ele>646.6</ele>
        <time>2011-10-16T13:39:27Z</time>
      </trkpt>
      <trkpt lat="45.23019" lon="5.77119">
        <ele>647.6</ele>
        <time>2011-10-16T13:39:29Z</time>
      </trkpt>
      <trkpt lat="45.23015" lon="5.77112">
        <ele>648.4</ele>
        <time>2011-10-16T13:39:32Z</time>
      </trkpt>
      <trkpt lat="45.23012" lon="5.77107">
        <ele>648</ele>
        <time>2011-10-16T13:39:34Z</time>
      </trkpt>
      <trkpt lat="45.23008" lon="5.77101">
        <ele>648.2</ele>
        <time>2011-10-16T13:39:37Z</time>
      </trkpt>
      <trkpt lat="45.23004" lon="5.77096">
        <ele>648.2</ele>
        <time>2011-10-16T13:39:39Z</time>
      </trkpt>
      <trkpt lat="45.23001" lon="5.77091">
        <ele>648.6</ele>
        <time>2011-10-16T13:39:42Z</time>
      </trkpt>
      <trkpt lat="45.22998" lon="5.77086">
        <ele>648.7</ele>
        <time>2011-10-16T13:39:44Z</time>
      </trkpt>
      <trkpt lat="45.22994" lon="5.7708">
        <ele>648.8</ele>
        <time>2011-10-16T13:39:46Z</time>
      </trkpt>
      <trkpt lat="45.22992" lon="5.77074">
        <ele>648.7</ele>
        <time>2011-10-16T13:39:48Z</time>
      </trkpt>
      <trkpt lat="45.2299" lon="5.77067">
        <ele>648.1</ele>
        <time>2011-10-16T13:39:50Z</time>
      </trkpt>
      <trkpt lat="45.22986" lon="5.77058">
        <ele>647.3</ele>
        <time>2011-10-16T13:39:52Z</time>
      </trkpt>
      <trkpt lat="45.22983" lon="5.77049">
        <ele>646.5</ele>
        <time>2011-10-16T13:39:54Z</time>
      </trkpt>
      <trkpt lat="45.22979" lon="5.7704">
        <ele>645.5</ele>
        <time>2011-10-16T13:39:56Z</time>
      </trkpt>
      <trkpt lat="45.22975" lon="5.77031">
        <ele>645.1</ele>
        <time>2011-10-16T13:39:58Z</time>
      </trkpt>
      <trkpt lat="45.22973" lon="5.77021">
        <ele>645</ele>
        <time>2011-10-16T13:40:00Z</time>
      </trkpt>
      <trkpt lat="45.22971" lon="5.77013">
        <ele>644.7</ele>
        <time>2011-10-16T13:40:02Z</time>
      </trkpt>
      <trkpt lat="45.22969" lon="5.77005">
        <ele>644</ele>
        <time>2011-10-16T13:40:05Z</time>
      </trkpt>
      <trkpt lat="45.22966" lon="5.76997">
        <ele>643.8</ele>
        <time>2011-10-16T13:40:08Z</time>
      </trkpt>
      <trkpt lat="45.22965" lon="5.76989">
        <ele>644.3</ele>
        <time>2011-10-16T13:40:11Z</time>
      </trkpt>
      <trkpt lat="45.22962" lon="5.76983">
        <ele>643.7</ele>
        <time>2011-10-16T13:40:13Z</time>
      </trkpt>
      <trkpt lat="45.22956" lon="5.7698">
        <ele>642.8</ele>
        <time>2011-10-16T13:40:15Z</time>
      </trkpt>
      <trkpt lat="45.22948" lon="5.7698">
        <ele>642.5</ele>
        <time>2011-10-16T13:40:17Z</time>
      </trkpt>
      <trkpt lat="45.22944" lon="5.76978">
        <ele>642</ele>
        <time>2011-10-16T13:40:18Z</time>
      </trkpt>
      <trkpt lat="45.22935" lon="5.76975">
        <ele>640.9</ele>
        <time>2011-10-16T13:40:20Z</time>
      </trkpt>
      <trkpt lat="45.22928" lon="5.76971">
        <ele>640.4</ele>
        <time>2011-10-16T13:40:22Z</time>
      </trkpt>
      <trkpt lat="45.22923" lon="5.76966">
        <ele>640</ele>
        <time>2011-10-16T13:40:24Z</time>
      </trkpt>
      <trkpt lat="45.22918" lon="5.76965">
        <ele>638.7</ele>
        <time>2011-10-16T13:41:54Z</time>
      </trkpt>
      <trkpt lat="45.22913" lon="5.7696">
        <ele>638.7</ele>
        <time>2011-10-16T13:41:56Z</time>
      </trkpt>
      <trkpt lat="45.22908" lon="5.76954">
        <ele>638.5</ele>
        <time>2011-10-16T13:41:58Z</time>
      </trkpt>
      <trkpt lat="45.22901" lon="5.76948">
        <ele>637.9</ele>
        <time>2011-10-16T13:42:00Z</time>
      </trkpt>
      <trkpt lat="45.22894" lon="5.76942">
        <ele>638</ele>
        <time>2011-10-16T13:42:02Z</time>
      </trkpt>
      <trkpt lat="45.22889" lon="5.76938">
        <ele>638</ele>
        <time>2011-10-16T13:42:03Z</time>
      </trkpt>
      <trkpt lat="45.22885" lon="5.76934">
        <ele>638.2</ele>
        <time>2011-10-16T13:42:04Z</time>
      </trkpt>
      <trkpt lat="45.22882" lon="5.76928">
        <ele>638.4</ele>
        <time>2011-10-16T13:42:05Z</time>
      </trkpt>
      <trkpt lat="45.2288" lon="5.76922">
        <ele>638.6</ele>
        <time>2011-10-16T13:42:06Z</time>
      </trkpt>
      <trkpt lat="45.22877" lon="5.76917">
        <ele>638.5</ele>
        <time>2011-10-16T13:42:07Z</time>
      </trkpt>
      <trkpt lat="45.2287" lon="5.76909">
        <ele>638.7</ele>
        <time>2011-10-16T13:42:09Z</time>
      </trkpt>
      <trkpt lat="45.22865" lon="5.76902">
        <ele>638.7</ele>
        <time>2011-10-16T13:42:11Z</time>
      </trkpt>
      <trkpt lat="45.22861" lon="5.76898">
        <ele>638.4</ele>
        <time>2011-10-16T13:42:13Z</time>
      </trkpt>
      <trkpt lat="45.22858" lon="5.76894">
        <ele>638.5</ele>
        <time>2011-10-16T13:42:15Z</time>
      </trkpt>
      <trkpt lat="45.22853" lon="5.76887">
        <ele>637.3</ele>
        <time>2011-10-16T13:42:18Z</time>
      </trkpt>
      <trkpt lat="45.22846" lon="5.76888">
        <ele>634.8</ele>
        <time>2011-10-16T13:42:21Z</time>
      </trkpt>
      <trkpt lat="45.2284" lon="5.76894">
        <ele>633.6</ele>
        <time>2011-10-16T13:42:23Z</time>
      </trkpt>
      <trkpt lat="45.22834" lon="5.76899">
        <ele>632.8</ele>
        <time>2011-10-16T13:42:25Z</time>
      </trkpt>
      <trkpt lat="45.22828" lon="5.76896">
        <ele>628.1</ele>
        <time>2011-10-16T13:42:28Z</time>
      </trkpt>
      <trkpt lat="45.2283" lon="5.76889">
        <ele>621.9</ele>
        <time>2011-10-16T13:46:50Z</time>
      </trkpt>
      <trkpt lat="45.22831" lon="5.76883">
        <ele>622.1</ele>
        <time>2011-10-16T13:46:53Z</time>
      </trkpt>
      <trkpt lat="45.22832" lon="5.76876">
        <ele>622.2</ele>
        <time>2011-10-16T13:46:56Z</time>
      </trkpt>
      <trkpt lat="45.22833" lon="5.76868">
        <ele>622.4</ele>
        <time>2011-10-16T13:46:59Z</time>
      </trkpt>
      <trkpt lat="45.22833" lon="5.76861">
        <ele>622.9</ele>
        <time>2011-10-16T13:47:02Z</time>
      </trkpt>
      <trkpt lat="45.22832" lon="5.76854">
        <ele>623.3</ele>
        <time>2011-10-16T13:47:05Z</time>
      </trkpt>
      <trkpt lat="45.2283" lon="5.76847">
        <ele>623.9</ele>
        <time>2011-10-16T13:47:08Z</time>
      </trkpt>
      <trkpt lat="45.22828" lon="5.7684">
        <ele>624</ele>
        <time>2011-10-16T13:47:11Z</time>
      </trkpt>
      <trkpt lat="45.22825" lon="5.76834">
        <ele>624.3</ele>
        <time>2011-10-16T13:47:14Z</time>
      </trkpt>
      <trkpt lat="45.22822" lon="5.76828">
        <ele>624.9</ele>
        <time>2011-10-16T13:47:17Z</time>
      </trkpt>
      <trkpt lat="45.22818" lon="5.76822">
        <ele>625.4</ele>
        <time>2011-10-16T13:47:20Z</time>
      </trkpt>
      <trkpt lat="45.22814" lon="5.76817">
        <ele>626</ele>
        <time>2011-10-16T13:47:23Z</time>
      </trkpt>
      <trkpt lat="45.2281" lon="5.7681">
        <ele>626.6</ele>
        <time>2011-10-16T13:47:26Z</time>
      </trkpt>
      <trkpt lat="45.22806" lon="5.76804">
        <ele>627.4</ele>
        <time>2011-10-16T13:47:29Z</time>
      </trkpt>
      <trkpt lat="45.22803" lon="5.76798">
        <ele>627.6</ele>
        <time>2011-10-16T13:47:32Z</time>
      </trkpt>
      <trkpt lat="45.228" lon="5.76792">
        <ele>628.1</ele>
        <time>2011-10-16T13:47:35Z</time>
      </trkpt>
      <trkpt lat="45.22796" lon="5.76786">
        <ele>628.5</ele>
        <time>2011-10-16T13:47:38Z</time>
      </trkpt>
      <trkpt lat="45.22793" lon="5.76779">
        <ele>629.3</ele>
        <time>2011-10-16T13:47:41Z</time>
      </trkpt>
      <trkpt lat="45.2279" lon="5.76772">
        <ele>629.7</ele>
        <time>2011-10-16T13:47:44Z</time>
      </trkpt>
      <trkpt lat="45.22787" lon="5.76766">
        <ele>630.4</ele>
        <time>2011-10-16T13:47:47Z</time>
      </trkpt>
      <trkpt lat="45.22784" lon="5.7676">
        <ele>631.1</ele>
        <time>2011-10-16T13:47:50Z</time>
      </trkpt>
      <trkpt lat="45.22781" lon="5.76753">
        <ele>631.6</ele>
        <time>2011-10-16T13:47:53Z</time>
      </trkpt>
      <trkpt lat="45.22778" lon="5.76746">
        <ele>632</ele>
        <time>2011-10-16T13:47:56Z</time>
      </trkpt>
      <trkpt lat="45.22775" lon="5.76738">
        <ele>632.4</ele>
        <time>2011-10-16T13:47:59Z</time>
      </trkpt>
      <trkpt lat="45.22773" lon="5.76731">
        <ele>633.8</ele>
        <time>2011-10-16T13:48:02Z</time>
      </trkpt>
      <trkpt lat="45.22771" lon="5.76724">
        <ele>634.1</ele>
        <time>2011-10-16T13:48:05Z</time>
      </trkpt>
      <trkpt lat="45.22769" lon="5.76715">
        <ele>634.3</ele>
        <time>2011-10-16T13:48:08Z</time>
      </trkpt>
      <trkpt lat="45.22767" lon="5.76708">
        <ele>634.9</ele>
        <time>2011-10-16T13:48:11Z</time>
      </trkpt>
      <trkpt lat="45.22765" lon="5.767">
        <ele>635.6</ele>
        <time>2011-10-16T13:48:14Z</time>
      </trkpt>
      <trkpt lat="45.22763" lon="5.76692">
        <ele>636.3</ele>
        <time>2011-10-16T13:48:17Z</time>
      </trkpt>
      <trkpt lat="45.22761" lon="5.76685">
        <ele>636.8</ele>
        <time>2011-10-16T13:48:20Z</time>
      </trkpt>
      <trkpt lat="45.22759" lon="5.76677">
        <ele>637.2</ele>
        <time>2011-10-16T13:48:23Z</time>
      </trkpt>
      <trkpt lat="45.22757" lon="5.7667">
        <ele>637.6</ele>
        <time>2011-10-16T13:48:26Z</time>
      </trkpt>
      <trkpt lat="45.22755" lon="5.76662">
        <ele>637.9</ele>
        <time>2011-10-16T13:48:29Z</time>
      </trkpt>
      <trkpt lat="45.22753" lon="5.76654">
        <ele>638.2</ele>
        <time>2011-10-16T13:48:32Z</time>
      </trkpt>
      <trkpt lat="45.22751" lon="5.76646">
        <ele>638.8</ele>
        <time>2011-10-16T13:48:35Z</time>
      </trkpt>
      <trkpt lat="45.2275" lon="5.76639">
        <ele>639.2</ele>
        <time>2011-10-16T13:48:38Z</time>
      </trkpt>
      <trkpt lat="45.22748" lon="5.76631">
        <ele>639.8</ele>
        <time>2011-10-16T13:48:41Z</time>
      </trkpt>
      <trkpt lat="45.22746" lon="5.76624">
        <ele>640.1</ele>
        <time>2011-10-16T13:48:44Z</time>
      </trkpt>
      <trkpt lat="45.22744" lon="5.76616">
        <ele>640.5</ele>
        <time>2011-10-16T13:48:47Z</time>
      </trkpt>
      <trkpt lat="45.22743" lon="5.76608">
        <ele>641</ele>
        <time>2011-10-16T13:48:50Z</time>
      </trkpt>
      <trkpt lat="45.22741" lon="5.766">
        <ele>641.5</ele>
        <time>2011-10-16T13:48:53Z</time>
      </trkpt>
      <trkpt lat="45.2274" lon="5.76593">
        <ele>642.2</ele>
        <time>2011-10-16T13:48:56Z</time>
      </trkpt>
      <trkpt lat="45.22738" lon="5.76586">
        <ele>642.9</ele>
        <time>2011-10-16T13:48:59Z</time>
      </trkpt>
      <trkpt lat="45.22734" lon="5.76578">
        <ele>643.8</ele>
        <time>2011-10-16T13:49:02Z</time>
      </trkpt>
      <trkpt lat="45.22731" lon="5.76572">
        <ele>644.9</ele>
        <time>2011-10-16T13:49:05Z</time>
      </trkpt>
      <trkpt lat="45.22728" lon="5.76566">
        <ele>645.6</ele>
        <time>2011-10-16T13:49:08Z</time>
      </trkpt>
      <trkpt lat="45.22724" lon="5.76561">
        <ele>646.2</ele>
        <time>2011-10-16T13:49:11Z</time>
      </trkpt>
      <trkpt lat="45.22719" lon="5.76556">
        <ele>646.9</ele>
        <time>2011-10-16T13:49:14Z</time>
      </trkpt>
      <trkpt lat="45.22714" lon="5.76553">
        <ele>647.4</ele>
        <time>2011-10-16T13:49:17Z</time>
      </trkpt>
      <trkpt lat="45.22709" lon="5.76549">
        <ele>647.6</ele>
        <time>2011-10-16T13:49:20Z</time>
      </trkpt>
      <trkpt lat="45.22704" lon="5.76547">
        <ele>647.8</ele>
        <time>2011-10-16T13:49:23Z</time>
      </trkpt>
      <trkpt lat="45.22698" lon="5.76545">
        <ele>647.7</ele>
        <time>2011-10-16T13:49:26Z</time>
      </trkpt>
      <trkpt lat="45.22692" lon="5.76544">
        <ele>648</ele>
        <time>2011-10-16T13:49:29Z</time>
      </trkpt>
      <trkpt lat="45.22687" lon="5.76542">
        <ele>648.3</ele>
        <time>2011-10-16T13:49:32Z</time>
      </trkpt>
      <trkpt lat="45.22682" lon="5.7654">
        <ele>648.3</ele>
        <time>2011-10-16T13:49:35Z</time>
      </trkpt>
      <trkpt lat="45.22676" lon="5.76538">
        <ele>648.5</ele>
        <time>2011-10-16T13:49:38Z</time>
      </trkpt>
      <trkpt lat="45.22671" lon="5.76536">
        <ele>649.1</ele>
        <time>2011-10-16T13:49:41Z</time>
      </trkpt>
      <trkpt lat="45.22665" lon="5.76535">
        <ele>649.5</ele>
        <time>2011-10-16T13:49:44Z</time>
      </trkpt>
      <trkpt lat="45.2266" lon="5.76533">
        <ele>649.8</ele>
        <time>2011-10-16T13:49:47Z</time>
      </trkpt>
      <trkpt lat="45.22654" lon="5.76531">
        <ele>649.9</ele>
        <time>2011-10-16T13:49:50Z</time>
      </trkpt>
      <trkpt lat="45.22649" lon="5.76529">
        <ele>650.2</ele>
        <time>2011-10-16T13:49:53Z</time>
      </trkpt>
      <trkpt lat="45.22644" lon="5.76528">
        <ele>650.7</ele>
        <time>2011-10-16T13:49:56Z</time>
      </trkpt>
      <trkpt lat="45.22639" lon="5.76526">
        <ele>651.2</ele>
        <time>2011-10-16T13:49:59Z</time>
      </trkpt>
      <trkpt lat="45.22635" lon="5.76525">
        <ele>651.5</ele>
        <time>2011-10-16T13:50:02Z</time>
      </trkpt>
      <trkpt lat="45.2263" lon="5.76523">
        <ele>651.7</ele>
        <time>2011-10-16T13:50:05Z</time>
      </trkpt>
      <trkpt lat="45.22625" lon="5.76522">
        <ele>652.3</ele>
        <time>2011-10-16T13:50:08Z</time>
      </trkpt>
      <trkpt lat="45.2262" lon="5.76521">
        <ele>653</ele>
        <time>2011-10-16T13:50:11Z</time>
      </trkpt>
      <trkpt lat="45.22614" lon="5.76519">
        <ele>654.1</ele>
        <time>2011-10-16T13:50:15Z</time>
      </trkpt>
      <trkpt lat="45.2261" lon="5.76518">
        <ele>655.2</ele>
        <time>2011-10-16T13:50:18Z</time>
      </trkpt>
      <trkpt lat="45.22605" lon="5.76516">
        <ele>655.8</ele>
        <time>2011-10-16T13:50:21Z</time>
      </trkpt>
      <trkpt lat="45.226" lon="5.76514">
        <ele>655.8</ele>
        <time>2011-10-16T13:50:24Z</time>
      </trkpt>
      <trkpt lat="45.22596" lon="5.76511">
        <ele>655.8</ele>
        <time>2011-10-16T13:50:27Z</time>
      </trkpt>
      <trkpt lat="45.22591" lon="5.76509">
        <ele>656.5</ele>
        <time>2011-10-16T13:50:30Z</time>
      </trkpt>
      <trkpt lat="45.22586" lon="5.76506">
        <ele>657</ele>
        <time>2011-10-16T13:50:33Z</time>
      </trkpt>
      <trkpt lat="45.22581" lon="5.76503">
        <ele>657.5</ele>
        <time>2011-10-16T13:50:36Z</time>
      </trkpt>
      <trkpt lat="45.22576" lon="5.765">
        <ele>658.6</ele>
        <time>2011-10-16T13:50:39Z</time>
      </trkpt>
      <trkpt lat="45.22571" lon="5.76497">
        <ele>659.5</ele>
        <time>2011-10-16T13:50:42Z</time>
      </trkpt>
      <trkpt lat="45.22566" lon="5.76494">
        <ele>660.4</ele>
        <time>2011-10-16T13:50:45Z</time>
      </trkpt>
      <trkpt lat="45.22561" lon="5.76491">
        <ele>661.2</ele>
        <time>2011-10-16T13:50:48Z</time>
      </trkpt>
      <trkpt lat="45.22556" lon="5.76488">
        <ele>661.9</ele>
        <time>2011-10-16T13:50:51Z</time>
      </trkpt>
      <trkpt lat="45.22552" lon="5.76484">
        <ele>662.5</ele>
        <time>2011-10-16T13:50:54Z</time>
      </trkpt>
      <trkpt lat="45.22547" lon="5.7648">
        <ele>663</ele>
        <time>2011-10-16T13:50:57Z</time>
      </trkpt>
      <trkpt lat="45.22543" lon="5.76476">
        <ele>663.5</ele>
        <time>2011-10-16T13:51:00Z</time>
      </trkpt>
      <trkpt lat="45.22539" lon="5.76471">
        <ele>663.8</ele>
        <time>2011-10-16T13:51:03Z</time>
      </trkpt>
      <trkpt lat="45.22536" lon="5.76466">
        <ele>664.2</ele>
        <time>2011-10-16T13:51:06Z</time>
      </trkpt>
      <trkpt lat="45.22532" lon="5.7646">
        <ele>664.5</ele>
        <time>2011-10-16T13:51:09Z</time>
      </trkpt>
      <trkpt lat="45.22525" lon="5.76436">
        <ele>670.5</ele>
        <time>2011-10-16T13:51:21Z</time>
      </trkpt>
      <trkpt lat="45.22524" lon="5.76429">
        <ele>670.9</ele>
        <time>2011-10-16T13:51:24Z</time>
      </trkpt>
      <trkpt lat="45.22522" lon="5.76422">
        <ele>672.1</ele>
        <time>2011-10-16T13:51:27Z</time>
      </trkpt>
      <trkpt lat="45.22521" lon="5.76416">
        <ele>673.7</ele>
        <time>2011-10-16T13:51:30Z</time>
      </trkpt>
      <trkpt lat="45.2252" lon="5.76407">
        <ele>676.4</ele>
        <time>2011-10-16T13:51:34Z</time>
      </trkpt>
      <trkpt lat="45.2252" lon="5.764">
        <ele>677</ele>
        <time>2011-10-16T13:51:37Z</time>
      </trkpt>
      <trkpt lat="45.22518" lon="5.76393">
        <ele>677.1</ele>
        <time>2011-10-16T13:51:40Z</time>
      </trkpt>
      <trkpt lat="45.22516" lon="5.76386">
        <ele>677.9</ele>
        <time>2011-10-16T13:51:44Z</time>
      </trkpt>
      <trkpt lat="45.22512" lon="5.76381">
        <ele>677.6</ele>
        <time>2011-10-16T13:51:47Z</time>
      </trkpt>
      <trkpt lat="45.22507" lon="5.76379">
        <ele>676.6</ele>
        <time>2011-10-16T13:51:50Z</time>
      </trkpt>
      <trkpt lat="45.22503" lon="5.76376">
        <ele>675.6</ele>
        <time>2011-10-16T13:51:53Z</time>
      </trkpt>
      <trkpt lat="45.22499" lon="5.7637">
        <ele>675.2</ele>
        <time>2011-10-16T13:51:56Z</time>
      </trkpt>
      <trkpt lat="45.22495" lon="5.76366">
        <ele>674.5</ele>
        <time>2011-10-16T13:51:59Z</time>
      </trkpt>
      <trkpt lat="45.225" lon="5.7637">
        <ele>677</ele>
        <time>2011-10-16T13:53:23Z</time>
      </trkpt>
      <trkpt lat="45.22505" lon="5.76368">
        <ele>677.5</ele>
        <time>2011-10-16T13:53:49Z</time>
      </trkpt>
      <trkpt lat="45.22507" lon="5.76362">
        <ele>677.7</ele>
        <time>2011-10-16T13:53:52Z</time>
      </trkpt>
      <trkpt lat="45.22505" lon="5.76354">
        <ele>677.9</ele>
        <time>2011-10-16T13:53:55Z</time>
      </trkpt>
      <trkpt lat="45.22503" lon="5.76347">
        <ele>678.1</ele>
        <time>2011-10-16T13:53:58Z</time>
      </trkpt>
      <trkpt lat="45.22501" lon="5.7634">
        <ele>678.4</ele>
        <time>2011-10-16T13:54:01Z</time>
      </trkpt>
      <trkpt lat="45.225" lon="5.76332">
        <ele>678.5</ele>
        <time>2011-10-16T13:54:04Z</time>
      </trkpt>
      <trkpt lat="45.22499" lon="5.76324">
        <ele>678.7</ele>
        <time>2011-10-16T13:54:07Z</time>
      </trkpt>
      <trkpt lat="45.22498" lon="5.76317">
        <ele>679.1</ele>
        <time>2011-10-16T13:54:10Z</time>
      </trkpt>
      <trkpt lat="45.22498" lon="5.7631">
        <ele>679.6</ele>
        <time>2011-10-16T13:54:13Z</time>
      </trkpt>
      <trkpt lat="45.22497" lon="5.76302">
        <ele>679.9</ele>
        <time>2011-10-16T13:54:16Z</time>
      </trkpt>
      <trkpt lat="45.22496" lon="5.76295">
        <ele>680.4</ele>
        <time>2011-10-16T13:54:19Z</time>
      </trkpt>
      <trkpt lat="45.22496" lon="5.76288">
        <ele>681</ele>
        <time>2011-10-16T13:54:22Z</time>
      </trkpt>
      <trkpt lat="45.22496" lon="5.7628">
        <ele>681.3</ele>
        <time>2011-10-16T13:54:25Z</time>
      </trkpt>
      <trkpt lat="45.22496" lon="5.76273">
        <ele>681.3</ele>
        <time>2011-10-16T13:54:28Z</time>
      </trkpt>
      <trkpt lat="45.22496" lon="5.76265">
        <ele>681.6</ele>
        <time>2011-10-16T13:54:31Z</time>
      </trkpt>
      <trkpt lat="45.22497" lon="5.76257">
        <ele>682.6</ele>
        <time>2011-10-16T13:54:34Z</time>
      </trkpt>
      <trkpt lat="45.22498" lon="5.76249">
        <ele>683.4</ele>
        <time>2011-10-16T13:54:37Z</time>
      </trkpt>
      <trkpt lat="45.22499" lon="5.76241">
        <ele>684.4</ele>
        <time>2011-10-16T13:54:40Z</time>
      </trkpt>
      <trkpt lat="45.225" lon="5.76234">
        <ele>685.2</ele>
        <time>2011-10-16T13:54:43Z</time>
      </trkpt>
      <trkpt lat="45.225" lon="5.76227">
        <ele>685.7</ele>
        <time>2011-10-16T13:54:46Z</time>
      </trkpt>
      <trkpt lat="45.22501" lon="5.76219">
        <ele>685.9</ele>
        <time>2011-10-16T13:54:49Z</time>
      </trkpt>
      <trkpt lat="45.22502" lon="5.76212">
        <ele>686.1</ele>
        <time>2011-10-16T13:54:52Z</time>
      </trkpt>
      <trkpt lat="45.22503" lon="5.76204">
        <ele>686.3</ele>
        <time>2011-10-16T13:54:55Z</time>
      </trkpt>
      <trkpt lat="45.22504" lon="5.76197">
        <ele>686.6</ele>
        <time>2011-10-16T13:54:58Z</time>
      </trkpt>
      <trkpt lat="45.22505" lon="5.7619">
        <ele>686.9</ele>
        <time>2011-10-16T13:55:01Z</time>
      </trkpt>
      <trkpt lat="45.22506" lon="5.76183">
        <ele>687.8</ele>
        <time>2011-10-16T13:55:04Z</time>
      </trkpt>
      <trkpt lat="45.22508" lon="5.76176">
        <ele>688.3</ele>
        <time>2011-10-16T13:55:07Z</time>
      </trkpt>
      <trkpt lat="45.2251" lon="5.76169">
        <ele>689</ele>
        <time>2011-10-16T13:55:10Z</time>
      </trkpt>
      <trkpt lat="45.22513" lon="5.76163">
        <ele>689.6</ele>
        <time>2011-10-16T13:55:13Z</time>
      </trkpt>
      <trkpt lat="45.22516" lon="5.76157">
        <ele>690</ele>
        <time>2011-10-16T13:55:16Z</time>
      </trkpt>
      <trkpt lat="45.2252" lon="5.76152">
        <ele>690.6</ele>
        <time>2011-10-16T13:55:19Z</time>
      </trkpt>
      <trkpt lat="45.22523" lon="5.76147">
        <ele>691.2</ele>
        <time>2011-10-16T13:55:22Z</time>
      </trkpt>
      <trkpt lat="45.22527" lon="5.76143">
        <ele>691.6</ele>
        <time>2011-10-16T13:55:25Z</time>
      </trkpt>
      <trkpt lat="45.22531" lon="5.76138">
        <ele>692.2</ele>
        <time>2011-10-16T13:55:28Z</time>
      </trkpt>
      <trkpt lat="45.22535" lon="5.76133">
        <ele>692.8</ele>
        <time>2011-10-16T13:55:31Z</time>
      </trkpt>
      <trkpt lat="45.22539" lon="5.76129">
        <ele>693.4</ele>
        <time>2011-10-16T13:55:34Z</time>
      </trkpt>
      <trkpt lat="45.22543" lon="5.76126">
        <ele>693.7</ele>
        <time>2011-10-16T13:55:37Z</time>
      </trkpt>
      <trkpt lat="45.22548" lon="5.76121">
        <ele>694.3</ele>
        <time>2011-10-16T13:55:41Z</time>
      </trkpt>
      <trkpt lat="45.22552" lon="5.76116">
        <ele>694.9</ele>
        <time>2011-10-16T13:55:45Z</time>
      </trkpt>
      <trkpt lat="45.22557" lon="5.76111">
        <ele>695.5</ele>
        <time>2011-10-16T13:55:49Z</time>
      </trkpt>
      <trkpt lat="45.22561" lon="5.76106">
        <ele>696</ele>
        <time>2011-10-16T13:55:53Z</time>
      </trkpt>
      <trkpt lat="45.22566" lon="5.76102">
        <ele>696.2</ele>
        <time>2011-10-16T13:55:57Z</time>
      </trkpt>
      <trkpt lat="45.2257" lon="5.76097">
        <ele>696.6</ele>
        <time>2011-10-16T13:56:01Z</time>
      </trkpt>
      <trkpt lat="45.22575" lon="5.76093">
        <ele>697.2</ele>
        <time>2011-10-16T13:56:05Z</time>
      </trkpt>
      <trkpt lat="45.22578" lon="5.76089">
        <ele>697.6</ele>
        <time>2011-10-16T13:56:08Z</time>
      </trkpt>
      <trkpt lat="45.22583" lon="5.76083">
        <ele>697.9</ele>
        <time>2011-10-16T13:56:12Z</time>
      </trkpt>
      <trkpt lat="45.22586" lon="5.76078">
        <ele>698</ele>
        <time>2011-10-16T13:56:15Z</time>
      </trkpt>
      <trkpt lat="45.2259" lon="5.76072">
        <ele>698.3</ele>
        <time>2011-10-16T13:56:19Z</time>
      </trkpt>
      <trkpt lat="45.22594" lon="5.76068">
        <ele>698.6</ele>
        <time>2011-10-16T13:56:22Z</time>
      </trkpt>
      <trkpt lat="45.22597" lon="5.76064">
        <ele>699.2</ele>
        <time>2011-10-16T13:56:25Z</time>
      </trkpt>
      <trkpt lat="45.22601" lon="5.7606">
        <ele>699.7</ele>
        <time>2011-10-16T13:56:28Z</time>
      </trkpt>
      <trkpt lat="45.22604" lon="5.76055">
        <ele>700.5</ele>
        <time>2011-10-16T13:56:31Z</time>
      </trkpt>
      <trkpt lat="45.22606" lon="5.7605">
        <ele>701.3</ele>
        <time>2011-10-16T13:56:34Z</time>
      </trkpt>
      <trkpt lat="45.2261" lon="5.76043">
        <ele>702.5</ele>
        <time>2011-10-16T13:56:38Z</time>
      </trkpt>
      <trkpt lat="45.22613" lon="5.76036">
        <ele>702.9</ele>
        <time>2011-10-16T13:56:42Z</time>
      </trkpt>
      <trkpt lat="45.22615" lon="5.76029">
        <ele>703.5</ele>
        <time>2011-10-16T13:56:46Z</time>
      </trkpt>
      <trkpt lat="45.22618" lon="5.76022">
        <ele>704.3</ele>
        <time>2011-10-16T13:56:50Z</time>
      </trkpt>
      <trkpt lat="45.22619" lon="5.76015">
        <ele>705</ele>
        <time>2011-10-16T13:56:53Z</time>
      </trkpt>
      <trkpt lat="45.22621" lon="5.76008">
        <ele>705.8</ele>
        <time>2011-10-16T13:56:57Z</time>
      </trkpt>
      <trkpt lat="45.22622" lon="5.75999">
        <ele>706.4</ele>
        <time>2011-10-16T13:57:01Z</time>
      </trkpt>
      <trkpt lat="45.22622" lon="5.75992">
        <ele>706.7</ele>
        <time>2011-10-16T13:57:05Z</time>
      </trkpt>
      <trkpt lat="45.22622" lon="5.75985">
        <ele>707.2</ele>
        <time>2011-10-16T13:57:09Z</time>
      </trkpt>
      <trkpt lat="45.22623" lon="5.75977">
        <ele>707.5</ele>
        <time>2011-10-16T13:57:13Z</time>
      </trkpt>
      <trkpt lat="45.22622" lon="5.7597">
        <ele>708.1</ele>
        <time>2011-10-16T13:57:17Z</time>
      </trkpt>
      <trkpt lat="45.22623" lon="5.75963">
        <ele>708.3</ele>
        <time>2011-10-16T13:57:20Z</time>
      </trkpt>
      <trkpt lat="45.22624" lon="5.75956">
        <ele>708.8</ele>
        <time>2011-10-16T13:57:23Z</time>
      </trkpt>
      <trkpt lat="45.22624" lon="5.75949">
        <ele>709.3</ele>
        <time>2011-10-16T13:57:26Z</time>
      </trkpt>
      <trkpt lat="45.22625" lon="5.75941">
        <ele>709.7</ele>
        <time>2011-10-16T13:57:30Z</time>
      </trkpt>
      <trkpt lat="45.22627" lon="5.75934">
        <ele>709.5</ele>
        <time>2011-10-16T13:57:33Z</time>
      </trkpt>
      <trkpt lat="45.2263" lon="5.75928">
        <ele>709.8</ele>
        <time>2011-10-16T13:57:36Z</time>
      </trkpt>
      <trkpt lat="45.22632" lon="5.75923">
        <ele>710.6</ele>
        <time>2011-10-16T13:57:39Z</time>
      </trkpt>
      <trkpt lat="45.22635" lon="5.75918">
        <ele>711.7</ele>
        <time>2011-10-16T13:57:42Z</time>
      </trkpt>
      <trkpt lat="45.22638" lon="5.75913">
        <ele>712.2</ele>
        <time>2011-10-16T13:57:45Z</time>
      </trkpt>
      <trkpt lat="45.22642" lon="5.75909">
        <ele>712.4</ele>
        <time>2011-10-16T13:57:48Z</time>
      </trkpt>
      <trkpt lat="45.22646" lon="5.75903">
        <ele>712.8</ele>
        <time>2011-10-16T13:57:52Z</time>
      </trkpt>
      <trkpt lat="45.22651" lon="5.75899">
        <ele>713.6</ele>
        <time>2011-10-16T13:57:56Z</time>
      </trkpt>
      <trkpt lat="45.22657" lon="5.75896">
        <ele>714.3</ele>
        <time>2011-10-16T13:58:00Z</time>
      </trkpt>
      <trkpt lat="45.22662" lon="5.75893">
        <ele>715.3</ele>
        <time>2011-10-16T13:58:04Z</time>
      </trkpt>
      <trkpt lat="45.22666" lon="5.75891">
        <ele>716.2</ele>
        <time>2011-10-16T13:58:07Z</time>
      </trkpt>
      <trkpt lat="45.22671" lon="5.7589">
        <ele>716.6</ele>
        <time>2011-10-16T13:58:10Z</time>
      </trkpt>
      <trkpt lat="45.22676" lon="5.7589">
        <ele>717.4</ele>
        <time>2011-10-16T13:58:13Z</time>
      </trkpt>
      <trkpt lat="45.22681" lon="5.7589">
        <ele>718.1</ele>
        <time>2011-10-16T13:58:16Z</time>
      </trkpt>
      <trkpt lat="45.22686" lon="5.75891">
        <ele>719</ele>
        <time>2011-10-16T13:58:20Z</time>
      </trkpt>
      <trkpt lat="45.22691" lon="5.75891">
        <ele>720.1</ele>
        <time>2011-10-16T13:58:24Z</time>
      </trkpt>
      <trkpt lat="45.22696" lon="5.75891">
        <ele>720.9</ele>
        <time>2011-10-16T13:58:27Z</time>
      </trkpt>
      <trkpt lat="45.22701" lon="5.75892">
        <ele>722</ele>
        <time>2011-10-16T13:58:30Z</time>
      </trkpt>
      <trkpt lat="45.22706" lon="5.75892">
        <ele>723.3</ele>
        <time>2011-10-16T13:58:33Z</time>
      </trkpt>
      <trkpt lat="45.22711" lon="5.7589">
        <ele>725.2</ele>
        <time>2011-10-16T13:58:37Z</time>
      </trkpt>
      <trkpt lat="45.22716" lon="5.75887">
        <ele>726.7</ele>
        <time>2011-10-16T13:58:41Z</time>
      </trkpt>
      <trkpt lat="45.22721" lon="5.75883">
        <ele>726.8</ele>
        <time>2011-10-16T13:58:44Z</time>
      </trkpt>
      <trkpt lat="45.22726" lon="5.75879">
        <ele>726.8</ele>
        <time>2011-10-16T13:58:47Z</time>
      </trkpt>
      <trkpt lat="45.2273" lon="5.75875">
        <ele>726.9</ele>
        <time>2011-10-16T13:58:50Z</time>
      </trkpt>
      <trkpt lat="45.22734" lon="5.75872">
        <ele>726.7</ele>
        <time>2011-10-16T13:58:54Z</time>
      </trkpt>
      <trkpt lat="45.22739" lon="5.75868">
        <ele>726.5</ele>
        <time>2011-10-16T14:01:05Z</time>
      </trkpt>
      <trkpt lat="45.22743" lon="5.75866">
        <ele>726.4</ele>
        <time>2011-10-16T14:01:07Z</time>
      </trkpt>
      <trkpt lat="45.22749" lon="5.75863">
        <ele>726.4</ele>
        <time>2011-10-16T14:01:09Z</time>
      </trkpt>
      <trkpt lat="45.22755" lon="5.75859">
        <ele>726.1</ele>
        <time>2011-10-16T14:01:11Z</time>
      </trkpt>
      <trkpt lat="45.22763" lon="5.75854">
        <ele>725.9</ele>
        <time>2011-10-16T14:01:13Z</time>
      </trkpt>
      <trkpt lat="45.22768" lon="5.75851">
        <ele>725.6</ele>
        <time>2011-10-16T14:01:14Z</time>
      </trkpt>
      <trkpt lat="45.22772" lon="5.75847">
        <ele>725.2</ele>
        <time>2011-10-16T14:01:15Z</time>
      </trkpt>
      <trkpt lat="45.22777" lon="5.75842">
        <ele>724.8</ele>
        <time>2011-10-16T14:01:16Z</time>
      </trkpt>
      <trkpt lat="45.22782" lon="5.75837">
        <ele>724.5</ele>
        <time>2011-10-16T14:01:17Z</time>
      </trkpt>
      <trkpt lat="45.22786" lon="5.75831">
        <ele>724.3</ele>
        <time>2011-10-16T14:01:18Z</time>
      </trkpt>
      <trkpt lat="45.2279" lon="5.75825">
        <ele>724</ele>
        <time>2011-10-16T14:01:19Z</time>
      </trkpt>
      <trkpt lat="45.22794" lon="5.75818">
        <ele>723.7</ele>
        <time>2011-10-16T14:01:20Z</time>
      </trkpt>
      <trkpt lat="45.22798" lon="5.75812">
        <ele>723.5</ele>
        <time>2011-10-16T14:01:21Z</time>
      </trkpt>
      <trkpt lat="45.22802" lon="5.75806">
        <ele>723.2</ele>
        <time>2011-10-16T14:01:22Z</time>
      </trkpt>
      <trkpt lat="45.22805" lon="5.758">
        <ele>723</ele>
        <time>2011-10-16T14:01:23Z</time>
      </trkpt>
      <trkpt lat="45.22809" lon="5.75795">
        <ele>722.8</ele>
        <time>2011-10-16T14:01:24Z</time>
      </trkpt>
      <trkpt lat="45.22812" lon="5.75789">
        <ele>722.8</ele>
        <time>2011-10-16T14:01:25Z</time>
      </trkpt>
      <trkpt lat="45.22815" lon="5.75784">
        <ele>722.6</ele>
        <time>2011-10-16T14:01:26Z</time>
      </trkpt>
      <trkpt lat="45.22821" lon="5.75775">
        <ele>722.5</ele>
        <time>2011-10-16T14:01:28Z</time>
      </trkpt>
      <trkpt lat="45.22826" lon="5.75768">
        <ele>722.6</ele>
        <time>2011-10-16T14:01:30Z</time>
      </trkpt>
      <trkpt lat="45.22829" lon="5.75761">
        <ele>722.9</ele>
        <time>2011-10-16T14:01:32Z</time>
      </trkpt>
      <trkpt lat="45.22832" lon="5.75756">
        <ele>722.9</ele>
        <time>2011-10-16T14:01:34Z</time>
      </trkpt>
      <trkpt lat="45.22835" lon="5.75751">
        <ele>722.8</ele>
        <time>2011-10-16T14:01:36Z</time>
      </trkpt>
      <trkpt lat="45.22839" lon="5.75745">
        <ele>723</ele>
        <time>2011-10-16T14:01:38Z</time>
      </trkpt>
      <trkpt lat="45.22842" lon="5.75739">
        <ele>723.2</ele>
        <time>2011-10-16T14:01:40Z</time>
      </trkpt>
      <trkpt lat="45.22845" lon="5.75733">
        <ele>723.5</ele>
        <time>2011-10-16T14:01:42Z</time>
      </trkpt>
      <trkpt lat="45.22849" lon="5.75729">
        <ele>723.7</ele>
        <time>2011-10-16T14:01:44Z</time>
      </trkpt>
      <trkpt lat="45.22853" lon="5.75724">
        <ele>724</ele>
        <time>2011-10-16T14:01:46Z</time>
      </trkpt>
      <trkpt lat="45.22856" lon="5.75719">
        <ele>724.4</ele>
        <time>2011-10-16T14:01:48Z</time>
      </trkpt>
      <trkpt lat="45.22858" lon="5.75712">
        <ele>724.6</ele>
        <time>2011-10-16T14:01:51Z</time>
      </trkpt>
      <trkpt lat="45.22861" lon="5.75705">
        <ele>724.4</ele>
        <time>2011-10-16T14:01:54Z</time>
      </trkpt>
      <trkpt lat="45.22864" lon="5.75698">
        <ele>724.4</ele>
        <time>2011-10-16T14:01:56Z</time>
      </trkpt>
      <trkpt lat="45.22867" lon="5.75691">
        <ele>724.5</ele>
        <time>2011-10-16T14:01:58Z</time>
      </trkpt>
      <trkpt lat="45.22872" lon="5.75683">
        <ele>724.3</ele>
        <time>2011-10-16T14:02:00Z</time>
      </trkpt>
      <trkpt lat="45.22876" lon="5.75674">
        <ele>724.4</ele>
        <time>2011-10-16T14:02:02Z</time>
      </trkpt>
      <trkpt lat="45.2288" lon="5.75664">
        <ele>724.6</ele>
        <time>2011-10-16T14:02:04Z</time>
      </trkpt>
      <trkpt lat="45.22883" lon="5.75653">
        <ele>724.5</ele>
        <time>2011-10-16T14:02:06Z</time>
      </trkpt>
      <trkpt lat="45.22886" lon="5.75642">
        <ele>724.6</ele>
        <time>2011-10-16T14:02:08Z</time>
      </trkpt>
      <trkpt lat="45.22886" lon="5.75631">
        <ele>724.7</ele>
        <time>2011-10-16T14:02:10Z</time>
      </trkpt>
      <trkpt lat="45.22886" lon="5.7562">
        <ele>724.7</ele>
        <time>2011-10-16T14:02:12Z</time>
      </trkpt>
      <trkpt lat="45.22886" lon="5.7561">
        <ele>724.9</ele>
        <time>2011-10-16T14:02:14Z</time>
      </trkpt>
      <trkpt lat="45.22886" lon="5.75602">
        <ele>725.2</ele>
        <time>2011-10-16T14:02:16Z</time>
      </trkpt>
      <trkpt lat="45.22885" lon="5.75593">
        <ele>725.1</ele>
        <time>2011-10-16T14:02:18Z</time>
      </trkpt>
      <trkpt lat="45.22882" lon="5.75584">
        <ele>725</ele>
        <time>2011-10-16T14:02:20Z</time>
      </trkpt>
      <trkpt lat="45.2288" lon="5.75576">
        <ele>725.3</ele>
        <time>2011-10-16T14:02:22Z</time>
      </trkpt>
      <trkpt lat="45.22878" lon="5.75568">
        <ele>725.6</ele>
        <time>2011-10-16T14:02:24Z</time>
      </trkpt>
      <trkpt lat="45.22877" lon="5.7556">
        <ele>726</ele>
        <time>2011-10-16T14:02:27Z</time>
      </trkpt>
      <trkpt lat="45.22876" lon="5.75553">
        <ele>727.2</ele>
        <time>2011-10-16T14:02:31Z</time>
      </trkpt>
      <trkpt lat="45.22876" lon="5.75545">
        <ele>727.3</ele>
        <time>2011-10-16T14:02:36Z</time>
      </trkpt>
      <trkpt lat="45.22877" lon="5.75538">
        <ele>727.9</ele>
        <time>2011-10-16T14:02:40Z</time>
      </trkpt>
      <trkpt lat="45.22877" lon="5.7553">
        <ele>729</ele>
        <time>2011-10-16T14:02:45Z</time>
      </trkpt>
      <trkpt lat="45.22877" lon="5.75524">
        <ele>729.6</ele>
        <time>2011-10-16T14:02:49Z</time>
      </trkpt>
      <trkpt lat="45.22878" lon="5.75517">
        <ele>730.8</ele>
        <time>2011-10-16T14:02:53Z</time>
      </trkpt>
      <trkpt lat="45.22879" lon="5.7551">
        <ele>731.9</ele>
        <time>2011-10-16T14:02:57Z</time>
      </trkpt>
      <trkpt lat="45.2288" lon="5.75502">
        <ele>732.5</ele>
        <time>2011-10-16T14:03:01Z</time>
      </trkpt>
      <trkpt lat="45.22881" lon="5.75495">
        <ele>732.5</ele>
        <time>2011-10-16T14:03:05Z</time>
      </trkpt>
      <trkpt lat="45.22884" lon="5.75488">
        <ele>732.5</ele>
        <time>2011-10-16T14:03:09Z</time>
      </trkpt>
      <trkpt lat="45.22887" lon="5.75483">
        <ele>732.6</ele>
        <time>2011-10-16T14:03:12Z</time>
      </trkpt>
      <trkpt lat="45.2289" lon="5.75476">
        <ele>732.7</ele>
        <time>2011-10-16T14:03:15Z</time>
      </trkpt>
      <trkpt lat="45.22893" lon="5.7547">
        <ele>732.7</ele>
        <time>2011-10-16T14:03:18Z</time>
      </trkpt>
      <trkpt lat="45.22896" lon="5.75463">
        <ele>733.1</ele>
        <time>2011-10-16T14:03:21Z</time>
      </trkpt>
      <trkpt lat="45.229" lon="5.75455">
        <ele>733.3</ele>
        <time>2011-10-16T14:03:24Z</time>
      </trkpt>
      <trkpt lat="45.22903" lon="5.75448">
        <ele>733.9</ele>
        <time>2011-10-16T14:03:27Z</time>
      </trkpt>
      <trkpt lat="45.22906" lon="5.7544">
        <ele>734.2</ele>
        <time>2011-10-16T14:03:30Z</time>
      </trkpt>
      <trkpt lat="45.22909" lon="5.75434">
        <ele>734.9</ele>
        <time>2011-10-16T14:03:32Z</time>
      </trkpt>
      <trkpt lat="45.22913" lon="5.75427">
        <ele>734.7</ele>
        <time>2011-10-16T14:03:35Z</time>
      </trkpt>
      <trkpt lat="45.22916" lon="5.75421">
        <ele>734.9</ele>
        <time>2011-10-16T14:03:38Z</time>
      </trkpt>
      <trkpt lat="45.2292" lon="5.75415">
        <ele>735.1</ele>
        <time>2011-10-16T14:03:41Z</time>
      </trkpt>
      <trkpt lat="45.22924" lon="5.75409">
        <ele>734.9</ele>
        <time>2011-10-16T14:03:44Z</time>
      </trkpt>
      <trkpt lat="45.22927" lon="5.75404">
        <ele>735.2</ele>
        <time>2011-10-16T14:03:47Z</time>
      </trkpt>
      <trkpt lat="45.22931" lon="5.75399">
        <ele>735.1</ele>
        <time>2011-10-16T14:03:51Z</time>
      </trkpt>
      <trkpt lat="45.22935" lon="5.75394">
        <ele>735.9</ele>
        <time>2011-10-16T14:03:54Z</time>
      </trkpt>
      <trkpt lat="45.22939" lon="5.7539">
        <ele>736.2</ele>
        <time>2011-10-16T14:03:57Z</time>
      </trkpt>
      <trkpt lat="45.22943" lon="5.75384">
        <ele>736.7</ele>
        <time>2011-10-16T14:04:01Z</time>
      </trkpt>
      <trkpt lat="45.22947" lon="5.75379">
        <ele>737.2</ele>
        <time>2011-10-16T14:04:05Z</time>
      </trkpt>
      <trkpt lat="45.22951" lon="5.75375">
        <ele>737.5</ele>
        <time>2011-10-16T14:04:08Z</time>
      </trkpt>
      <trkpt lat="45.22954" lon="5.7537">
        <ele>737.3</ele>
        <time>2011-10-16T14:04:11Z</time>
      </trkpt>
      <trkpt lat="45.22957" lon="5.75365">
        <ele>737</ele>
        <time>2011-10-16T14:04:14Z</time>
      </trkpt>
      <trkpt lat="45.2296" lon="5.7536">
        <ele>736.8</ele>
        <time>2011-10-16T14:04:17Z</time>
      </trkpt>
      <trkpt lat="45.22963" lon="5.75354">
        <ele>736.9</ele>
        <time>2011-10-16T14:04:20Z</time>
      </trkpt>
      <trkpt lat="45.22967" lon="5.75349">
        <ele>737.7</ele>
        <time>2011-10-16T14:04:23Z</time>
      </trkpt>
      <trkpt lat="45.2297" lon="5.75343">
        <ele>738.1</ele>
        <time>2011-10-16T14:04:26Z</time>
      </trkpt>
      <trkpt lat="45.22973" lon="5.75337">
        <ele>738.4</ele>
        <time>2011-10-16T14:04:29Z</time>
      </trkpt>
      <trkpt lat="45.22976" lon="5.75331">
        <ele>738.4</ele>
        <time>2011-10-16T14:04:32Z</time>
      </trkpt>
      <trkpt lat="45.22978" lon="5.75324">
        <ele>738.7</ele>
        <time>2011-10-16T14:04:35Z</time>
      </trkpt>
      <trkpt lat="45.2298" lon="5.75317">
        <ele>738.7</ele>
        <time>2011-10-16T14:04:38Z</time>
      </trkpt>
      <trkpt lat="45.22981" lon="5.75311">
        <ele>738.7</ele>
        <time>2011-10-16T14:04:41Z</time>
      </trkpt>
      <trkpt lat="45.22982" lon="5.75304">
        <ele>738.9</ele>
        <time>2011-10-16T14:04:44Z</time>
      </trkpt>
      <trkpt lat="45.22983" lon="5.75298">
        <ele>739.3</ele>
        <time>2011-10-16T14:04:47Z</time>
      </trkpt>
      <trkpt lat="45.22984" lon="5.75291">
        <ele>740</ele>
        <time>2011-10-16T14:04:50Z</time>
      </trkpt>
      <trkpt lat="45.22985" lon="5.75285">
        <ele>740.4</ele>
        <time>2011-10-16T14:04:53Z</time>
      </trkpt>
      <trkpt lat="45.22987" lon="5.75278">
        <ele>741.2</ele>
        <time>2011-10-16T14:04:56Z</time>
      </trkpt>
      <trkpt lat="45.22989" lon="5.75273">
        <ele>741.8</ele>
        <time>2011-10-16T14:04:59Z</time>
      </trkpt>
      <trkpt lat="45.22992" lon="5.75266">
        <ele>742.3</ele>
        <time>2011-10-16T14:05:03Z</time>
      </trkpt>
      <trkpt lat="45.22996" lon="5.75261">
        <ele>742.8</ele>
        <time>2011-10-16T14:05:07Z</time>
      </trkpt>
      <trkpt lat="45.23" lon="5.75258">
        <ele>743.7</ele>
        <time>2011-10-16T14:05:11Z</time>
      </trkpt>
      <trkpt lat="45.23004" lon="5.75252">
        <ele>744.5</ele>
        <time>2011-10-16T14:05:16Z</time>
      </trkpt>
      <trkpt lat="45.23008" lon="5.75248">
        <ele>745.2</ele>
        <time>2011-10-16T14:05:20Z</time>
      </trkpt>
      <trkpt lat="45.23012" lon="5.75243">
        <ele>745.8</ele>
        <time>2011-10-16T14:05:25Z</time>
      </trkpt>
      <trkpt lat="45.23016" lon="5.75239">
        <ele>746.3</ele>
        <time>2011-10-16T14:05:29Z</time>
      </trkpt>
      <trkpt lat="45.23018" lon="5.75234">
        <ele>746.7</ele>
        <time>2011-10-16T14:05:33Z</time>
      </trkpt>
      <trkpt lat="45.23021" lon="5.75228">
        <ele>747.5</ele>
        <time>2011-10-16T14:05:37Z</time>
      </trkpt>
      <trkpt lat="45.23024" lon="5.75223">
        <ele>748.3</ele>
        <time>2011-10-16T14:05:41Z</time>
      </trkpt>
      <trkpt lat="45.23026" lon="5.75217">
        <ele>749</ele>
        <time>2011-10-16T14:05:45Z</time>
      </trkpt>
      <trkpt lat="45.23028" lon="5.7521">
        <ele>749.9</ele>
        <time>2011-10-16T14:05:49Z</time>
      </trkpt>
      <trkpt lat="45.23029" lon="5.75204">
        <ele>750.9</ele>
        <time>2011-10-16T14:05:53Z</time>
      </trkpt>
      <trkpt lat="45.2303" lon="5.75196">
        <ele>752.7</ele>
        <time>2011-10-16T14:05:58Z</time>
      </trkpt>
      <trkpt lat="45.23031" lon="5.75189">
        <ele>754.5</ele>
        <time>2011-10-16T14:07:08Z</time>
      </trkpt>
      <trkpt lat="45.23032" lon="5.75182">
        <ele>754.4</ele>
        <time>2011-10-16T14:07:13Z</time>
      </trkpt>
      <trkpt lat="45.23033" lon="5.75175">
        <ele>754.7</ele>
        <time>2011-10-16T14:07:17Z</time>
      </trkpt>
      <trkpt lat="45.23034" lon="5.75169">
        <ele>755.3</ele>
        <time>2011-10-16T14:07:21Z</time>
      </trkpt>
      <trkpt lat="45.23036" lon="5.75162">
        <ele>756.3</ele>
        <time>2011-10-16T14:07:25Z</time>
      </trkpt>
      <trkpt lat="45.23037" lon="5.75155">
        <ele>757.1</ele>
        <time>2011-10-16T14:07:29Z</time>
      </trkpt>
      <trkpt lat="45.23038" lon="5.75147">
        <ele>757.7</ele>
        <time>2011-10-16T14:07:34Z</time>
      </trkpt>
      <trkpt lat="45.23038" lon="5.7514">
        <ele>758.1</ele>
        <time>2011-10-16T14:07:38Z</time>
      </trkpt>
      <trkpt lat="45.23039" lon="5.75134">
        <ele>758.1</ele>
        <time>2011-10-16T14:07:42Z</time>
      </trkpt>
      <trkpt lat="45.23039" lon="5.75126">
        <ele>758.4</ele>
        <time>2011-10-16T14:07:46Z</time>
      </trkpt>
      <trkpt lat="45.23039" lon="5.75119">
        <ele>759.4</ele>
        <time>2011-10-16T14:07:50Z</time>
      </trkpt>
      <trkpt lat="45.23038" lon="5.75112">
        <ele>760.7</ele>
        <time>2011-10-16T14:07:54Z</time>
      </trkpt>
      <trkpt lat="45.23037" lon="5.75105">
        <ele>762.1</ele>
        <time>2011-10-16T14:07:58Z</time>
      </trkpt>
      <trkpt lat="45.23038" lon="5.75098">
        <ele>763.2</ele>
        <time>2011-10-16T14:08:03Z</time>
      </trkpt>
      <trkpt lat="45.2304" lon="5.7509">
        <ele>763.9</ele>
        <time>2011-10-16T14:08:08Z</time>
      </trkpt>
      <trkpt lat="45.23042" lon="5.75083">
        <ele>764.7</ele>
        <time>2011-10-16T14:08:13Z</time>
      </trkpt>
      <trkpt lat="45.23047" lon="5.7508">
        <ele>765.2</ele>
        <time>2011-10-16T14:08:18Z</time>
      </trkpt>
      <trkpt lat="45.23052" lon="5.75076">
        <ele>765.9</ele>
        <time>2011-10-16T14:08:23Z</time>
      </trkpt>
      <trkpt lat="45.23056" lon="5.75072">
        <ele>766.8</ele>
        <time>2011-10-16T14:08:27Z</time>
      </trkpt>
      <trkpt lat="45.23061" lon="5.75073">
        <ele>767.9</ele>
        <time>2011-10-16T14:08:32Z</time>
      </trkpt>
      <trkpt lat="45.23066" lon="5.75073">
        <ele>768.5</ele>
        <time>2011-10-16T14:08:36Z</time>
      </trkpt>
      <trkpt lat="45.2307" lon="5.75071">
        <ele>769</ele>
        <time>2011-10-16T14:08:41Z</time>
      </trkpt>
      <trkpt lat="45.23075" lon="5.75069">
        <ele>770.3</ele>
        <time>2011-10-16T14:09:10Z</time>
      </trkpt>
      <trkpt lat="45.2308" lon="5.7507">
        <ele>771.8</ele>
        <time>2011-10-16T14:09:15Z</time>
      </trkpt>
      <trkpt lat="45.23085" lon="5.7507">
        <ele>773.2</ele>
        <time>2011-10-16T14:09:19Z</time>
      </trkpt>
      <trkpt lat="45.23089" lon="5.75069">
        <ele>774.2</ele>
        <time>2011-10-16T14:09:23Z</time>
      </trkpt>
      <trkpt lat="45.23094" lon="5.75068">
        <ele>774.7</ele>
        <time>2011-10-16T14:09:27Z</time>
      </trkpt>
      <trkpt lat="45.23099" lon="5.75067">
        <ele>775.6</ele>
        <time>2011-10-16T14:09:32Z</time>
      </trkpt>
      <trkpt lat="45.23105" lon="5.75065">
        <ele>776.1</ele>
        <time>2011-10-16T14:09:36Z</time>
      </trkpt>
      <trkpt lat="45.2311" lon="5.75064">
        <ele>777.1</ele>
        <time>2011-10-16T14:09:40Z</time>
      </trkpt>
      <trkpt lat="45.23115" lon="5.75062">
        <ele>777.6</ele>
        <time>2011-10-16T14:09:44Z</time>
      </trkpt>
      <trkpt lat="45.2312" lon="5.75062">
        <ele>778.1</ele>
        <time>2011-10-16T14:09:48Z</time>
      </trkpt>
      <trkpt lat="45.23124" lon="5.75063">
        <ele>779.1</ele>
        <time>2011-10-16T14:09:52Z</time>
      </trkpt>
      <trkpt lat="45.2313" lon="5.75062">
        <ele>779.9</ele>
        <time>2011-10-16T14:09:56Z</time>
      </trkpt>
      <trkpt lat="45.23134" lon="5.75061">
        <ele>780.3</ele>
        <time>2011-10-16T14:10:00Z</time>
      </trkpt>
      <trkpt lat="45.23139" lon="5.75061">
        <ele>780.9</ele>
        <time>2011-10-16T14:10:04Z</time>
      </trkpt>
      <trkpt lat="45.23145" lon="5.7506">
        <ele>782.1</ele>
        <time>2011-10-16T14:10:09Z</time>
      </trkpt>
      <trkpt lat="45.2315" lon="5.75061">
        <ele>783.5</ele>
        <time>2011-10-16T14:10:13Z</time>
      </trkpt>
      <trkpt lat="45.23154" lon="5.75062">
        <ele>785</ele>
        <time>2011-10-16T14:10:17Z</time>
      </trkpt>
      <trkpt lat="45.23159" lon="5.75062">
        <ele>789.8</ele>
        <time>2011-10-16T14:10:46Z</time>
      </trkpt>
      <trkpt lat="45.23164" lon="5.75062">
        <ele>790.1</ele>
        <time>2011-10-16T14:10:51Z</time>
      </trkpt>
      <trkpt lat="45.23169" lon="5.75065">
        <ele>791.3</ele>
        <time>2011-10-16T14:10:56Z</time>
      </trkpt>
      <trkpt lat="45.23173" lon="5.75067">
        <ele>793.2</ele>
        <time>2011-10-16T14:11:01Z</time>
      </trkpt>
      <trkpt lat="45.23178" lon="5.75067">
        <ele>794</ele>
        <time>2011-10-16T14:11:06Z</time>
      </trkpt>
      <trkpt lat="45.23183" lon="5.7507">
        <ele>794.8</ele>
        <time>2011-10-16T14:11:11Z</time>
      </trkpt>
      <trkpt lat="45.23187" lon="5.75073">
        <ele>794.4</ele>
        <time>2011-10-16T14:11:43Z</time>
      </trkpt>
      <trkpt lat="45.23191" lon="5.75077">
        <ele>795.9</ele>
        <time>2011-10-16T14:11:48Z</time>
      </trkpt>
      <trkpt lat="45.23196" lon="5.75081">
        <ele>796.3</ele>
        <time>2011-10-16T14:11:53Z</time>
      </trkpt>
      <trkpt lat="45.23199" lon="5.75085">
        <ele>796.4</ele>
        <time>2011-10-16T14:11:58Z</time>
      </trkpt>
      <trkpt lat="45.23204" lon="5.75088">
        <ele>797</ele>
        <time>2011-10-16T14:12:03Z</time>
      </trkpt>
      <trkpt lat="45.23209" lon="5.7509">
        <ele>798.6</ele>
        <time>2011-10-16T14:12:08Z</time>
      </trkpt>
      <trkpt lat="45.23214" lon="5.75091">
        <ele>801.2</ele>
        <time>2011-10-16T14:12:38Z</time>
      </trkpt>
      <trkpt lat="45.2322" lon="5.75094">
        <ele>801.9</ele>
        <time>2011-10-16T14:12:43Z</time>
      </trkpt>
      <trkpt lat="45.23225" lon="5.75095">
        <ele>802.4</ele>
        <time>2011-10-16T14:12:49Z</time>
      </trkpt>
      <trkpt lat="45.23229" lon="5.75096">
        <ele>804</ele>
        <time>2011-10-16T14:12:54Z</time>
      </trkpt>
      <trkpt lat="45.23234" lon="5.75098">
        <ele>806</ele>
        <time>2011-10-16T14:12:59Z</time>
      </trkpt>
      <trkpt lat="45.2324" lon="5.751">
        <ele>807.3</ele>
        <time>2011-10-16T14:13:04Z</time>
      </trkpt>
      <trkpt lat="45.23245" lon="5.75102">
        <ele>808.4</ele>
        <time>2011-10-16T14:13:09Z</time>
      </trkpt>
      <trkpt lat="45.2325" lon="5.75104">
        <ele>809.3</ele>
        <time>2011-10-16T14:13:14Z</time>
      </trkpt>
      <trkpt lat="45.23254" lon="5.75104">
        <ele>810.1</ele>
        <time>2011-10-16T14:13:31Z</time>
      </trkpt>
      <trkpt lat="45.2326" lon="5.75104">
        <ele>811.3</ele>
        <time>2011-10-16T14:13:36Z</time>
      </trkpt>
      <trkpt lat="45.23264" lon="5.75105">
        <ele>812</ele>
        <time>2011-10-16T14:13:40Z</time>
      </trkpt>
      <trkpt lat="45.23269" lon="5.75105">
        <ele>813.3</ele>
        <time>2011-10-16T14:13:44Z</time>
      </trkpt>
      <trkpt lat="45.23274" lon="5.75106">
        <ele>814.8</ele>
        <time>2011-10-16T14:13:48Z</time>
      </trkpt>
      <trkpt lat="45.23279" lon="5.75107">
        <ele>816.5</ele>
        <time>2011-10-16T14:13:52Z</time>
      </trkpt>
      <trkpt lat="45.23284" lon="5.75108">
        <ele>818.2</ele>
        <time>2011-10-16T14:13:56Z</time>
      </trkpt>
      <trkpt lat="45.23288" lon="5.75109">
        <ele>819.7</ele>
        <time>2011-10-16T14:14:00Z</time>
      </trkpt>
      <trkpt lat="45.23293" lon="5.7511">
        <ele>821</ele>
        <time>2011-10-16T14:14:05Z</time>
      </trkpt>
      <trkpt lat="45.23297" lon="5.75109">
        <ele>823.4</ele>
        <time>2011-10-16T14:15:01Z</time>
      </trkpt>
      <trkpt lat="45.23302" lon="5.75112">
        <ele>824.5</ele>
        <time>2011-10-16T14:15:06Z</time>
      </trkpt>
      <trkpt lat="45.23306" lon="5.75113">
        <ele>824.5</ele>
        <time>2011-10-16T14:15:14Z</time>
      </trkpt>
      <trkpt lat="45.23312" lon="5.75112">
        <ele>824.3</ele>
        <time>2011-10-16T14:15:18Z</time>
      </trkpt>
      <trkpt lat="45.23317" lon="5.75112">
        <ele>824.1</ele>
        <time>2011-10-16T14:15:21Z</time>
      </trkpt>
      <trkpt lat="45.23321" lon="5.75112">
        <ele>824.6</ele>
        <time>2011-10-16T14:15:24Z</time>
      </trkpt>
      <trkpt lat="45.23326" lon="5.75113">
        <ele>825.6</ele>
        <time>2011-10-16T14:15:28Z</time>
      </trkpt>
      <trkpt lat="45.23332" lon="5.75112">
        <ele>827.1</ele>
        <time>2011-10-16T14:15:32Z</time>
      </trkpt>
      <trkpt lat="45.23337" lon="5.75111">
        <ele>827.7</ele>
        <time>2011-10-16T14:15:35Z</time>
      </trkpt>
      <trkpt lat="45.23342" lon="5.75109">
        <ele>827.8</ele>
        <time>2011-10-16T14:15:39Z</time>
      </trkpt>
      <trkpt lat="45.23348" lon="5.75107">
        <ele>827.6</ele>
        <time>2011-10-16T14:15:43Z</time>
      </trkpt>
      <trkpt lat="45.23353" lon="5.75106">
        <ele>827.7</ele>
        <time>2011-10-16T14:15:47Z</time>
      </trkpt>
      <trkpt lat="45.23358" lon="5.75106">
        <ele>828</ele>
        <time>2011-10-16T14:15:51Z</time>
      </trkpt>
      <trkpt lat="45.23364" lon="5.75106">
        <ele>828.4</ele>
        <time>2011-10-16T14:15:55Z</time>
      </trkpt>
      <trkpt lat="45.23369" lon="5.75106">
        <ele>829.1</ele>
        <time>2011-10-16T14:15:59Z</time>
      </trkpt>
      <trkpt lat="45.23375" lon="5.75107">
        <ele>829.7</ele>
        <time>2011-10-16T14:16:03Z</time>
      </trkpt>
      <trkpt lat="45.23381" lon="5.75108">
        <ele>830.4</ele>
        <time>2011-10-16T14:16:07Z</time>
      </trkpt>
      <trkpt lat="45.23386" lon="5.75108">
        <ele>831.2</ele>
        <time>2011-10-16T14:16:11Z</time>
      </trkpt>
      <trkpt lat="45.23392" lon="5.75108">
        <ele>831.6</ele>
        <time>2011-10-16T14:16:15Z</time>
      </trkpt>
      <trkpt lat="45.23386" lon="5.75108">
        <ele>831.3</ele>
        <time>2011-10-16T14:19:22Z</time>
      </trkpt>
      <trkpt lat="45.23379" lon="5.75107">
        <ele>831.5</ele>
        <time>2011-10-16T14:19:25Z</time>
      </trkpt>
      <trkpt lat="45.23372" lon="5.75107">
        <ele>831.6</ele>
        <time>2011-10-16T14:19:27Z</time>
      </trkpt>
      <trkpt lat="45.23363" lon="5.75106">
        <ele>831.8</ele>
        <time>2011-10-16T14:19:29Z</time>
      </trkpt>
      <trkpt lat="45.23358" lon="5.75106">
        <ele>831.8</ele>
        <time>2011-10-16T14:19:30Z</time>
      </trkpt>
      <trkpt lat="45.23353" lon="5.75107">
        <ele>831.9</ele>
        <time>2011-10-16T14:19:31Z</time>
      </trkpt>
      <trkpt lat="45.23347" lon="5.75107">
        <ele>831.8</ele>
        <time>2011-10-16T14:19:32Z</time>
      </trkpt>
      <trkpt lat="45.23341" lon="5.75108">
        <ele>831.8</ele>
        <time>2011-10-16T14:19:33Z</time>
      </trkpt>
      <trkpt lat="45.23336" lon="5.75109">
        <ele>831.9</ele>
        <time>2011-10-16T14:19:34Z</time>
      </trkpt>
      <trkpt lat="45.23328" lon="5.7511">
        <ele>832.4</ele>
        <time>2011-10-16T14:19:36Z</time>
      </trkpt>
      <trkpt lat="45.23323" lon="5.7511">
        <ele>832.6</ele>
        <time>2011-10-16T14:19:38Z</time>
      </trkpt>
      <trkpt lat="45.23319" lon="5.75103">
        <ele>832.7</ele>
        <time>2011-10-16T14:19:41Z</time>
      </trkpt>
      <trkpt lat="45.23322" lon="5.75094">
        <ele>831.9</ele>
        <time>2011-10-16T14:19:44Z</time>
      </trkpt>
      <trkpt lat="45.23324" lon="5.75086">
        <ele>832.4</ele>
        <time>2011-10-16T14:19:47Z</time>
      </trkpt>
      <trkpt lat="45.23326" lon="5.75078">
        <ele>832.8</ele>
        <time>2011-10-16T14:19:50Z</time>
      </trkpt>
      <trkpt lat="45.23328" lon="5.75071">
        <ele>833.1</ele>
        <time>2011-10-16T14:19:54Z</time>
      </trkpt>
      <trkpt lat="45.23328" lon="5.75063">
        <ele>833.5</ele>
        <time>2011-10-16T14:19:58Z</time>
      </trkpt>
      <trkpt lat="45.23327" lon="5.75056">
        <ele>833.5</ele>
        <time>2011-10-16T14:20:02Z</time>
      </trkpt>
      <trkpt lat="45.23325" lon="5.7505">
        <ele>833.4</ele>
        <time>2011-10-16T14:20:06Z</time>
      </trkpt>
      <trkpt lat="45.23323" lon="5.75044">
        <ele>833.2</ele>
        <time>2011-10-16T14:20:10Z</time>
      </trkpt>
      <trkpt lat="45.2332" lon="5.75038">
        <ele>833.3</ele>
        <time>2011-10-16T14:20:14Z</time>
      </trkpt>
      <trkpt lat="45.23317" lon="5.75031">
        <ele>833.1</ele>
        <time>2011-10-16T14:20:18Z</time>
      </trkpt>
      <trkpt lat="45.23314" lon="5.75025">
        <ele>832.7</ele>
        <time>2011-10-16T14:20:22Z</time>
      </trkpt>
      <trkpt lat="45.23311" lon="5.75019">
        <ele>832.5</ele>
        <time>2011-10-16T14:20:26Z</time>
      </trkpt>
      <trkpt lat="45.23307" lon="5.75013">
        <ele>832.2</ele>
        <time>2011-10-16T14:20:30Z</time>
      </trkpt>
      <trkpt lat="45.23304" lon="5.75007">
        <ele>832.4</ele>
        <time>2011-10-16T14:20:34Z</time>
      </trkpt>
      <trkpt lat="45.233" lon="5.75002">
        <ele>832.9</ele>
        <time>2011-10-16T14:20:38Z</time>
      </trkpt>
      <trkpt lat="45.23297" lon="5.74996">
        <ele>834.3</ele>
        <time>2011-10-16T14:20:41Z</time>
      </trkpt>
      <trkpt lat="45.23294" lon="5.7499">
        <ele>835.3</ele>
        <time>2011-10-16T14:20:45Z</time>
      </trkpt>
      <trkpt lat="45.2329" lon="5.74985">
        <ele>836.4</ele>
        <time>2011-10-16T14:20:49Z</time>
      </trkpt>
      <trkpt lat="45.23287" lon="5.74978">
        <ele>838.1</ele>
        <time>2011-10-16T14:20:53Z</time>
      </trkpt>
      <trkpt lat="45.23284" lon="5.74972">
        <ele>840</ele>
        <time>2011-10-16T14:20:57Z</time>
      </trkpt>
      <trkpt lat="45.23281" lon="5.74966">
        <ele>840.1</ele>
        <time>2011-10-16T14:21:01Z</time>
      </trkpt>
      <trkpt lat="45.23278" lon="5.7496">
        <ele>839.3</ele>
        <time>2011-10-16T14:21:06Z</time>
      </trkpt>
      <trkpt lat="45.23275" lon="5.74955">
        <ele>839.2</ele>
        <time>2011-10-16T14:21:10Z</time>
      </trkpt>
      <trkpt lat="45.23272" lon="5.7495">
        <ele>838.9</ele>
        <time>2011-10-16T14:21:14Z</time>
      </trkpt>
      <trkpt lat="45.23268" lon="5.74945">
        <ele>839.4</ele>
        <time>2011-10-16T14:21:18Z</time>
      </trkpt>
      <trkpt lat="45.23265" lon="5.7494">
        <ele>839.5</ele>
        <time>2011-10-16T14:21:22Z</time>
      </trkpt>
      <trkpt lat="45.2326" lon="5.74935">
        <ele>839.5</ele>
        <time>2011-10-16T14:21:27Z</time>
      </trkpt>
      <trkpt lat="45.23257" lon="5.74931">
        <ele>839.5</ele>
        <time>2011-10-16T14:21:31Z</time>
      </trkpt>
      <trkpt lat="45.23254" lon="5.74926">
        <ele>840</ele>
        <time>2011-10-16T14:21:35Z</time>
      </trkpt>
      <trkpt lat="45.2325" lon="5.74922">
        <ele>840.3</ele>
        <time>2011-10-16T14:21:39Z</time>
      </trkpt>
      <trkpt lat="45.23246" lon="5.74918">
        <ele>840.8</ele>
        <time>2011-10-16T14:21:45Z</time>
      </trkpt>
      <trkpt lat="45.23242" lon="5.74914">
        <ele>841.2</ele>
        <time>2011-10-16T14:21:49Z</time>
      </trkpt>
      <trkpt lat="45.23238" lon="5.7491">
        <ele>841.8</ele>
        <time>2011-10-16T14:21:53Z</time>
      </trkpt>
      <trkpt lat="45.23234" lon="5.74905">
        <ele>842.5</ele>
        <time>2011-10-16T14:21:59Z</time>
      </trkpt>
      <trkpt lat="45.23232" lon="5.749">
        <ele>843.2</ele>
        <time>2011-10-16T14:22:03Z</time>
      </trkpt>
      <trkpt lat="45.23227" lon="5.74896">
        <ele>844.4</ele>
        <time>2011-10-16T14:22:07Z</time>
      </trkpt>
      <trkpt lat="45.23225" lon="5.74889">
        <ele>845.4</ele>
        <time>2011-10-16T14:22:12Z</time>
      </trkpt>
      <trkpt lat="45.23224" lon="5.74882">
        <ele>846.4</ele>
        <time>2011-10-16T14:22:16Z</time>
      </trkpt>
      <trkpt lat="45.23221" lon="5.74876">
        <ele>846.8</ele>
        <time>2011-10-16T14:22:20Z</time>
      </trkpt>
      <trkpt lat="45.23219" lon="5.74868">
        <ele>847.1</ele>
        <time>2011-10-16T14:22:24Z</time>
      </trkpt>
      <trkpt lat="45.23215" lon="5.74864">
        <ele>847.3</ele>
        <time>2011-10-16T14:22:28Z</time>
      </trkpt>
      <trkpt lat="45.23212" lon="5.74859">
        <ele>846.4</ele>
        <time>2011-10-16T14:22:32Z</time>
      </trkpt>
      <trkpt lat="45.23207" lon="5.74855">
        <ele>846.1</ele>
        <time>2011-10-16T14:22:37Z</time>
      </trkpt>
      <trkpt lat="45.23202" lon="5.74853">
        <ele>846.3</ele>
        <time>2011-10-16T14:22:41Z</time>
      </trkpt>
      <trkpt lat="45.23198" lon="5.74851">
        <ele>846.4</ele>
        <time>2011-10-16T14:22:45Z</time>
      </trkpt>
      <trkpt lat="45.23193" lon="5.74849">
        <ele>846.8</ele>
        <time>2011-10-16T14:22:49Z</time>
      </trkpt>
      <trkpt lat="45.23189" lon="5.74845">
        <ele>846.4</ele>
        <time>2011-10-16T14:22:53Z</time>
      </trkpt>
      <trkpt lat="45.23185" lon="5.74841">
        <ele>846.3</ele>
        <time>2011-10-16T14:22:57Z</time>
      </trkpt>
      <trkpt lat="45.23182" lon="5.74835">
        <ele>847.3</ele>
        <time>2011-10-16T14:23:02Z</time>
      </trkpt>
      <trkpt lat="45.2318" lon="5.74829">
        <ele>847.9</ele>
        <time>2011-10-16T14:23:06Z</time>
      </trkpt>
      <trkpt lat="45.23177" lon="5.74823">
        <ele>848.2</ele>
        <time>2011-10-16T14:23:10Z</time>
      </trkpt>
      <trkpt lat="45.23174" lon="5.74816">
        <ele>849.8</ele>
        <time>2011-10-16T14:23:15Z</time>
      </trkpt>
      <trkpt lat="45.2317" lon="5.7481">
        <ele>851.8</ele>
        <time>2011-10-16T14:23:20Z</time>
      </trkpt>
      <trkpt lat="45.23167" lon="5.74805">
        <ele>852.5</ele>
        <time>2011-10-16T14:23:25Z</time>
      </trkpt>
      <trkpt lat="45.23164" lon="5.748">
        <ele>852.9</ele>
        <time>2011-10-16T14:23:29Z</time>
      </trkpt>
      <trkpt lat="45.2316" lon="5.74793">
        <ele>852.6</ele>
        <time>2011-10-16T14:23:34Z</time>
      </trkpt>
      <trkpt lat="45.23157" lon="5.74788">
        <ele>852.8</ele>
        <time>2011-10-16T14:23:38Z</time>
      </trkpt>
      <trkpt lat="45.23155" lon="5.74783">
        <ele>853.8</ele>
        <time>2011-10-16T14:23:42Z</time>
      </trkpt>
      <trkpt lat="45.23152" lon="5.74777">
        <ele>854.1</ele>
        <time>2011-10-16T14:23:46Z</time>
      </trkpt>
      <trkpt lat="45.23148" lon="5.74772">
        <ele>854</ele>
        <time>2011-10-16T14:23:50Z</time>
      </trkpt>
      <trkpt lat="45.23145" lon="5.74767">
        <ele>854.2</ele>
        <time>2011-10-16T14:23:54Z</time>
      </trkpt>
      <trkpt lat="45.23142" lon="5.74761">
        <ele>855.1</ele>
        <time>2011-10-16T14:23:59Z</time>
      </trkpt>
      <trkpt lat="45.23139" lon="5.74756">
        <ele>856</ele>
        <time>2011-10-16T14:24:03Z</time>
      </trkpt>
      <trkpt lat="45.23135" lon="5.74751">
        <ele>856.6</ele>
        <time>2011-10-16T14:24:07Z</time>
      </trkpt>
      <trkpt lat="45.23132" lon="5.74745">
        <ele>857.1</ele>
        <time>2011-10-16T14:24:11Z</time>
      </trkpt>
      <trkpt lat="45.23129" lon="5.7474">
        <ele>857.5</ele>
        <time>2011-10-16T14:24:15Z</time>
      </trkpt>
      <trkpt lat="45.23126" lon="5.74734">
        <ele>857.8</ele>
        <time>2011-10-16T14:24:19Z</time>
      </trkpt>
      <trkpt lat="45.23122" lon="5.74728">
        <ele>858.4</ele>
        <time>2011-10-16T14:24:23Z</time>
      </trkpt>
      <trkpt lat="45.2312" lon="5.74723">
        <ele>858.5</ele>
        <time>2011-10-16T14:24:27Z</time>
      </trkpt>
      <trkpt lat="45.23117" lon="5.74717">
        <ele>859.3</ele>
        <time>2011-10-16T14:24:32Z</time>
      </trkpt>
      <trkpt lat="45.23113" lon="5.74712">
        <ele>859.9</ele>
        <time>2011-10-16T14:24:37Z</time>
      </trkpt>
      <trkpt lat="45.23109" lon="5.74706">
        <ele>860.2</ele>
        <time>2011-10-16T14:24:42Z</time>
      </trkpt>
      <trkpt lat="45.23104" lon="5.74702">
        <ele>861</ele>
        <time>2011-10-16T14:24:47Z</time>
      </trkpt>
      <trkpt lat="45.231" lon="5.74696">
        <ele>861.5</ele>
        <time>2011-10-16T14:26:40Z</time>
      </trkpt>
      <trkpt lat="45.23097" lon="5.7469">
        <ele>861.3</ele>
        <time>2011-10-16T14:26:44Z</time>
      </trkpt>
      <trkpt lat="45.23094" lon="5.74684">
        <ele>861.4</ele>
        <time>2011-10-16T14:26:48Z</time>
      </trkpt>
      <trkpt lat="45.23089" lon="5.7468">
        <ele>861.6</ele>
        <time>2011-10-16T14:26:52Z</time>
      </trkpt>
      <trkpt lat="45.23086" lon="5.74675">
        <ele>861.3</ele>
        <time>2011-10-16T14:26:56Z</time>
      </trkpt>
      <trkpt lat="45.23083" lon="5.7467">
        <ele>861.9</ele>
        <time>2011-10-16T14:27:00Z</time>
      </trkpt>
      <trkpt lat="45.23078" lon="5.74666">
        <ele>861.6</ele>
        <time>2011-10-16T14:27:05Z</time>
      </trkpt>
      <trkpt lat="45.23074" lon="5.74661">
        <ele>861.5</ele>
        <time>2011-10-16T14:27:09Z</time>
      </trkpt>
      <trkpt lat="45.2307" lon="5.74657">
        <ele>861.6</ele>
        <time>2011-10-16T14:27:13Z</time>
      </trkpt>
      <trkpt lat="45.23068" lon="5.74649">
        <ele>861.2</ele>
        <time>2011-10-16T14:27:17Z</time>
      </trkpt>
      <trkpt lat="45.23065" lon="5.74644">
        <ele>861.5</ele>
        <time>2011-10-16T14:27:21Z</time>
      </trkpt>
      <trkpt lat="45.23062" lon="5.74638">
        <ele>862.5</ele>
        <time>2011-10-16T14:27:25Z</time>
      </trkpt>
      <trkpt lat="45.23058" lon="5.74634">
        <ele>863.5</ele>
        <time>2011-10-16T14:27:29Z</time>
      </trkpt>
      <trkpt lat="45.23054" lon="5.74629">
        <ele>864.4</ele>
        <time>2011-10-16T14:27:33Z</time>
      </trkpt>
      <trkpt lat="45.23051" lon="5.74624">
        <ele>865.1</ele>
        <time>2011-10-16T14:27:37Z</time>
      </trkpt>
      <trkpt lat="45.23047" lon="5.7462">
        <ele>865.7</ele>
        <time>2011-10-16T14:27:41Z</time>
      </trkpt>
      <trkpt lat="45.23043" lon="5.74615">
        <ele>866.2</ele>
        <time>2011-10-16T14:27:45Z</time>
      </trkpt>
      <trkpt lat="45.23039" lon="5.74611">
        <ele>866.8</ele>
        <time>2011-10-16T14:27:50Z</time>
      </trkpt>
      <trkpt lat="45.23035" lon="5.74607">
        <ele>867</ele>
        <time>2011-10-16T14:27:55Z</time>
      </trkpt>
      <trkpt lat="45.23032" lon="5.74603">
        <ele>867.1</ele>
        <time>2011-10-16T14:28:00Z</time>
      </trkpt>
      <trkpt lat="45.23028" lon="5.74598">
        <ele>866.2</ele>
        <time>2011-10-16T14:28:05Z</time>
      </trkpt>
      <trkpt lat="45.23024" lon="5.74594">
        <ele>866.5</ele>
        <time>2011-10-16T14:28:11Z</time>
      </trkpt>
      <trkpt lat="45.23021" lon="5.7459">
        <ele>867.2</ele>
        <time>2011-10-16T14:28:16Z</time>
      </trkpt>
      <trkpt lat="45.23016" lon="5.74585">
        <ele>868.3</ele>
        <time>2011-10-16T14:28:22Z</time>
      </trkpt>
      <trkpt lat="45.23012" lon="5.74581">
        <ele>867.8</ele>
        <time>2011-10-16T14:28:27Z</time>
      </trkpt>
      <trkpt lat="45.23007" lon="5.74578">
        <ele>867.1</ele>
        <time>2011-10-16T14:28:32Z</time>
      </trkpt>
      <trkpt lat="45.23003" lon="5.74575">
        <ele>866.7</ele>
        <time>2011-10-16T14:28:36Z</time>
      </trkpt>
      <trkpt lat="45.23" lon="5.74569">
        <ele>865.8</ele>
        <time>2011-10-16T14:28:41Z</time>
      </trkpt>
      <trkpt lat="45.22996" lon="5.74564">
        <ele>866.4</ele>
        <time>2011-10-16T14:28:47Z</time>
      </trkpt>
      <trkpt lat="45.22991" lon="5.74559">
        <ele>868</ele>
        <time>2011-10-16T14:28:52Z</time>
      </trkpt>
      <trkpt lat="45.22987" lon="5.74554">
        <ele>868.4</ele>
        <time>2011-10-16T14:28:56Z</time>
      </trkpt>
      <trkpt lat="45.22982" lon="5.7455">
        <ele>868.7</ele>
        <time>2011-10-16T14:29:00Z</time>
      </trkpt>
      <trkpt lat="45.22978" lon="5.74544">
        <ele>869.2</ele>
        <time>2011-10-16T14:29:04Z</time>
      </trkpt>
      <trkpt lat="45.22975" lon="5.7454">
        <ele>869.4</ele>
        <time>2011-10-16T14:29:08Z</time>
      </trkpt>
      <trkpt lat="45.2297" lon="5.74535">
        <ele>870.3</ele>
        <time>2011-10-16T14:29:15Z</time>
      </trkpt>
      <trkpt lat="45.22966" lon="5.74532">
        <ele>870.5</ele>
        <time>2011-10-16T14:29:18Z</time>
      </trkpt>
      <trkpt lat="45.22962" lon="5.74528">
        <ele>870.8</ele>
        <time>2011-10-16T14:29:22Z</time>
      </trkpt>
      <trkpt lat="45.22958" lon="5.74524">
        <ele>871.4</ele>
        <time>2011-10-16T14:29:26Z</time>
      </trkpt>
      <trkpt lat="45.22955" lon="5.74519">
        <ele>873.2</ele>
        <time>2011-10-16T14:29:30Z</time>
      </trkpt>
      <trkpt lat="45.22951" lon="5.74515">
        <ele>873.7</ele>
        <time>2011-10-16T14:29:34Z</time>
      </trkpt>
      <trkpt lat="45.22948" lon="5.74509">
        <ele>875.6</ele>
        <time>2011-10-16T14:29:39Z</time>
      </trkpt>
      <trkpt lat="45.22944" lon="5.74504">
        <ele>877</ele>
        <time>2011-10-16T14:29:43Z</time>
      </trkpt>
      <trkpt lat="45.22941" lon="5.74499">
        <ele>877.9</ele>
        <time>2011-10-16T14:29:47Z</time>
      </trkpt>
      <trkpt lat="45.22936" lon="5.74495">
        <ele>879.4</ele>
        <time>2011-10-16T14:29:52Z</time>
      </trkpt>
      <trkpt lat="45.22932" lon="5.74492">
        <ele>880.3</ele>
        <time>2011-10-16T14:29:56Z</time>
      </trkpt>
      <trkpt lat="45.22928" lon="5.74487">
        <ele>881.9</ele>
        <time>2011-10-16T14:30:02Z</time>
      </trkpt>
      <trkpt lat="45.22924" lon="5.74482">
        <ele>884.8</ele>
        <time>2011-10-16T14:30:45Z</time>
      </trkpt>
      <trkpt lat="45.2292" lon="5.74479">
        <ele>885.3</ele>
        <time>2011-10-16T14:30:51Z</time>
      </trkpt>
      <trkpt lat="45.22914" lon="5.74477">
        <ele>886.1</ele>
        <time>2011-10-16T14:30:56Z</time>
      </trkpt>
      <trkpt lat="45.2291" lon="5.74472">
        <ele>886.4</ele>
        <time>2011-10-16T14:31:01Z</time>
      </trkpt>
      <trkpt lat="45.22906" lon="5.74468">
        <ele>886.3</ele>
        <time>2011-10-16T14:31:05Z</time>
      </trkpt>
      <trkpt lat="45.22902" lon="5.74464">
        <ele>887.4</ele>
        <time>2011-10-16T14:31:10Z</time>
      </trkpt>
      <trkpt lat="45.22896" lon="5.74461">
        <ele>888.3</ele>
        <time>2011-10-16T14:31:15Z</time>
      </trkpt>
      <trkpt lat="45.22892" lon="5.74457">
        <ele>888.3</ele>
        <time>2011-10-16T14:31:19Z</time>
      </trkpt>
      <trkpt lat="45.22888" lon="5.74452">
        <ele>887.9</ele>
        <time>2011-10-16T14:31:23Z</time>
      </trkpt>
      <trkpt lat="45.22883" lon="5.74448">
        <ele>888.5</ele>
        <time>2011-10-16T14:31:28Z</time>
      </trkpt>
      <trkpt lat="45.22879" lon="5.74443">
        <ele>889.2</ele>
        <time>2011-10-16T14:31:32Z</time>
      </trkpt>
      <trkpt lat="45.22875" lon="5.74437">
        <ele>889.8</ele>
        <time>2011-10-16T14:31:36Z</time>
      </trkpt>
      <trkpt lat="45.22872" lon="5.74432">
        <ele>890</ele>
        <time>2011-10-16T14:31:40Z</time>
      </trkpt>
      <trkpt lat="45.22867" lon="5.74428">
        <ele>890.6</ele>
        <time>2011-10-16T14:31:44Z</time>
      </trkpt>
      <trkpt lat="45.22863" lon="5.74424">
        <ele>891</ele>
        <time>2011-10-16T14:31:48Z</time>
      </trkpt>
      <trkpt lat="45.2286" lon="5.74419">
        <ele>891.6</ele>
        <time>2011-10-16T14:31:53Z</time>
      </trkpt>
      <trkpt lat="45.22857" lon="5.74413">
        <ele>892.1</ele>
        <time>2011-10-16T14:31:57Z</time>
      </trkpt>
      <trkpt lat="45.22853" lon="5.74411">
        <ele>892.5</ele>
        <time>2011-10-16T14:32:09Z</time>
      </trkpt>
      <trkpt lat="45.22847" lon="5.7441">
        <ele>893.2</ele>
        <time>2011-10-16T14:32:13Z</time>
      </trkpt>
      <trkpt lat="45.22843" lon="5.74409">
        <ele>893.7</ele>
        <time>2011-10-16T14:32:17Z</time>
      </trkpt>
      <trkpt lat="45.22838" lon="5.74408">
        <ele>894.8</ele>
        <time>2011-10-16T14:32:22Z</time>
      </trkpt>
      <trkpt lat="45.22833" lon="5.74406">
        <ele>895.7</ele>
        <time>2011-10-16T14:32:27Z</time>
      </trkpt>
      <trkpt lat="45.22828" lon="5.74402">
        <ele>895.8</ele>
        <time>2011-10-16T14:32:31Z</time>
      </trkpt>
      <trkpt lat="45.22823" lon="5.74401">
        <ele>895.9</ele>
        <time>2011-10-16T14:32:35Z</time>
      </trkpt>
      <trkpt lat="45.22817" lon="5.74399">
        <ele>896.3</ele>
        <time>2011-10-16T14:32:39Z</time>
      </trkpt>
      <trkpt lat="45.22813" lon="5.74394">
        <ele>896.6</ele>
        <time>2011-10-16T14:32:43Z</time>
      </trkpt>
      <trkpt lat="45.22808" lon="5.74391">
        <ele>897.3</ele>
        <time>2011-10-16T14:32:47Z</time>
      </trkpt>
      <trkpt lat="45.22803" lon="5.74388">
        <ele>898.1</ele>
        <time>2011-10-16T14:32:51Z</time>
      </trkpt>
      <trkpt lat="45.22798" lon="5.74385">
        <ele>898.2</ele>
        <time>2011-10-16T14:32:55Z</time>
      </trkpt>
      <trkpt lat="45.22793" lon="5.74381">
        <ele>897.9</ele>
        <time>2011-10-16T14:32:59Z</time>
      </trkpt>
      <trkpt lat="45.22789" lon="5.74378">
        <ele>898.6</ele>
        <time>2011-10-16T14:33:03Z</time>
      </trkpt>
      <trkpt lat="45.22785" lon="5.74374">
        <ele>898.6</ele>
        <time>2011-10-16T14:33:07Z</time>
      </trkpt>
      <trkpt lat="45.2278" lon="5.7437">
        <ele>899.5</ele>
        <time>2011-10-16T14:33:11Z</time>
      </trkpt>
      <trkpt lat="45.22775" lon="5.74367">
        <ele>900.6</ele>
        <time>2011-10-16T14:33:15Z</time>
      </trkpt>
      <trkpt lat="45.22771" lon="5.74363">
        <ele>900.9</ele>
        <time>2011-10-16T14:33:19Z</time>
      </trkpt>
      <trkpt lat="45.22767" lon="5.74359">
        <ele>902.4</ele>
        <time>2011-10-16T14:33:24Z</time>
      </trkpt>
      <trkpt lat="45.22762" lon="5.74357">
        <ele>903.4</ele>
        <time>2011-10-16T14:33:28Z</time>
      </trkpt>
      <trkpt lat="45.22758" lon="5.74353">
        <ele>902.7</ele>
        <time>2011-10-16T14:33:31Z</time>
      </trkpt>
      <trkpt lat="45.22753" lon="5.74348">
        <ele>902.4</ele>
        <time>2011-10-16T14:33:35Z</time>
      </trkpt>
      <trkpt lat="45.22748" lon="5.74344">
        <ele>903.9</ele>
        <time>2011-10-16T14:33:39Z</time>
      </trkpt>
      <trkpt lat="45.22743" lon="5.74341">
        <ele>904.3</ele>
        <time>2011-10-16T14:33:43Z</time>
      </trkpt>
      <trkpt lat="45.22739" lon="5.74338">
        <ele>904.5</ele>
        <time>2011-10-16T14:33:47Z</time>
      </trkpt>
      <trkpt lat="45.22734" lon="5.74335">
        <ele>905.2</ele>
        <time>2011-10-16T14:33:51Z</time>
      </trkpt>
      <trkpt lat="45.22729" lon="5.74334">
        <ele>906.1</ele>
        <time>2011-10-16T14:33:55Z</time>
      </trkpt>
      <trkpt lat="45.22725" lon="5.7433">
        <ele>906.5</ele>
        <time>2011-10-16T14:33:59Z</time>
      </trkpt>
      <trkpt lat="45.2272" lon="5.74328">
        <ele>907.9</ele>
        <time>2011-10-16T14:34:03Z</time>
      </trkpt>
      <trkpt lat="45.22716" lon="5.74325">
        <ele>908.9</ele>
        <time>2011-10-16T14:34:07Z</time>
      </trkpt>
      <trkpt lat="45.22711" lon="5.74322">
        <ele>909.6</ele>
        <time>2011-10-16T14:34:11Z</time>
      </trkpt>
      <trkpt lat="45.22707" lon="5.74318">
        <ele>910.2</ele>
        <time>2011-10-16T14:34:15Z</time>
      </trkpt>
      <trkpt lat="45.22702" lon="5.74315">
        <ele>911.3</ele>
        <time>2011-10-16T14:34:19Z</time>
      </trkpt>
      <trkpt lat="45.22698" lon="5.7431">
        <ele>912</ele>
        <time>2011-10-16T14:34:23Z</time>
      </trkpt>
      <trkpt lat="45.22695" lon="5.74304">
        <ele>912.1</ele>
        <time>2011-10-16T14:34:27Z</time>
      </trkpt>
      <trkpt lat="45.22692" lon="5.74298">
        <ele>913.2</ele>
        <time>2011-10-16T14:34:31Z</time>
      </trkpt>
      <trkpt lat="45.22688" lon="5.74294">
        <ele>914.2</ele>
        <time>2011-10-16T14:34:35Z</time>
      </trkpt>
      <trkpt lat="45.22685" lon="5.74289">
        <ele>914.2</ele>
        <time>2011-10-16T14:34:39Z</time>
      </trkpt>
      <trkpt lat="45.22681" lon="5.74287">
        <ele>914.3</ele>
        <time>2011-10-16T14:34:43Z</time>
      </trkpt>
      <trkpt lat="45.22675" lon="5.74286">
        <ele>915.4</ele>
        <time>2011-10-16T14:34:47Z</time>
      </trkpt>
      <trkpt lat="45.2267" lon="5.74285">
        <ele>917.4</ele>
        <time>2011-10-16T14:34:51Z</time>
      </trkpt>
      <trkpt lat="45.22665" lon="5.74283">
        <ele>919.1</ele>
        <time>2011-10-16T14:34:56Z</time>
      </trkpt>
      <trkpt lat="45.2266" lon="5.74281">
        <ele>920.4</ele>
        <time>2011-10-16T14:35:02Z</time>
      </trkpt>
      <trkpt lat="45.22654" lon="5.74279">
        <ele>921.1</ele>
        <time>2011-10-16T14:35:06Z</time>
      </trkpt>
      <trkpt lat="45.22648" lon="5.74278">
        <ele>921.8</ele>
        <time>2011-10-16T14:35:10Z</time>
      </trkpt>
      <trkpt lat="45.22643" lon="5.74277">
        <ele>923.2</ele>
        <time>2011-10-16T14:35:14Z</time>
      </trkpt>
      <trkpt lat="45.22638" lon="5.74276">
        <ele>924.3</ele>
        <time>2011-10-16T14:35:18Z</time>
      </trkpt>
      <trkpt lat="45.22633" lon="5.74275">
        <ele>925.6</ele>
        <time>2011-10-16T14:35:22Z</time>
      </trkpt>
      <trkpt lat="45.22627" lon="5.74274">
        <ele>926.6</ele>
        <time>2011-10-16T14:35:26Z</time>
      </trkpt>
      <trkpt lat="45.22623" lon="5.74272">
        <ele>927.2</ele>
        <time>2011-10-16T14:35:29Z</time>
      </trkpt>
      <trkpt lat="45.22618" lon="5.7427">
        <ele>927.2</ele>
        <time>2011-10-16T14:35:32Z</time>
      </trkpt>
      <trkpt lat="45.22614" lon="5.74268">
        <ele>926.7</ele>
        <time>2011-10-16T14:35:35Z</time>
      </trkpt>
      <trkpt lat="45.22608" lon="5.74266">
        <ele>927.5</ele>
        <time>2011-10-16T14:35:39Z</time>
      </trkpt>
      <trkpt lat="45.22604" lon="5.74264">
        <ele>927.7</ele>
        <time>2011-10-16T14:35:43Z</time>
      </trkpt>
      <trkpt lat="45.22598" lon="5.74262">
        <ele>929.1</ele>
        <time>2011-10-16T14:35:48Z</time>
      </trkpt>
      <trkpt lat="45.22593" lon="5.7426">
        <ele>930.4</ele>
        <time>2011-10-16T14:35:52Z</time>
      </trkpt>
      <trkpt lat="45.22588" lon="5.74258">
        <ele>930.7</ele>
        <time>2011-10-16T14:35:56Z</time>
      </trkpt>
      <trkpt lat="45.22583" lon="5.74256">
        <ele>931.7</ele>
        <time>2011-10-16T14:36:01Z</time>
      </trkpt>
      <trkpt lat="45.22577" lon="5.74254">
        <ele>931.9</ele>
        <time>2011-10-16T14:36:05Z</time>
      </trkpt>
      <trkpt lat="45.22573" lon="5.74252">
        <ele>932.3</ele>
        <time>2011-10-16T14:36:13Z</time>
      </trkpt>
      <trkpt lat="45.22567" lon="5.74251">
        <ele>933</ele>
        <time>2011-10-16T14:36:17Z</time>
      </trkpt>
      <trkpt lat="45.22562" lon="5.74249">
        <ele>933.5</ele>
        <time>2011-10-16T14:36:20Z</time>
      </trkpt>
      <trkpt lat="45.22557" lon="5.74247">
        <ele>934.3</ele>
        <time>2011-10-16T14:36:23Z</time>
      </trkpt>
      <trkpt lat="45.22553" lon="5.74244">
        <ele>935.4</ele>
        <time>2011-10-16T14:36:27Z</time>
      </trkpt>
      <trkpt lat="45.22548" lon="5.74241">
        <ele>936</ele>
        <time>2011-10-16T14:36:31Z</time>
      </trkpt>
      <trkpt lat="45.22544" lon="5.74238">
        <ele>936.4</ele>
        <time>2011-10-16T14:36:35Z</time>
      </trkpt>
      <trkpt lat="45.22539" lon="5.74236">
        <ele>937.1</ele>
        <time>2011-10-16T14:36:40Z</time>
      </trkpt>
      <trkpt lat="45.22534" lon="5.74234">
        <ele>938.2</ele>
        <time>2011-10-16T14:36:44Z</time>
      </trkpt>
      <trkpt lat="45.22528" lon="5.74231">
        <ele>938.8</ele>
        <time>2011-10-16T14:36:48Z</time>
      </trkpt>
      <trkpt lat="45.22523" lon="5.74229">
        <ele>937.8</ele>
        <time>2011-10-16T14:36:51Z</time>
      </trkpt>
      <trkpt lat="45.22518" lon="5.74225">
        <ele>937.1</ele>
        <time>2011-10-16T14:36:56Z</time>
      </trkpt>
      <trkpt lat="45.22514" lon="5.74222">
        <ele>936.2</ele>
        <time>2011-10-16T14:36:59Z</time>
      </trkpt>
      <trkpt lat="45.2251" lon="5.74218">
        <ele>936.2</ele>
        <time>2011-10-16T14:37:02Z</time>
      </trkpt>
      <trkpt lat="45.22505" lon="5.74214">
        <ele>936.1</ele>
        <time>2011-10-16T14:37:06Z</time>
      </trkpt>
      <trkpt lat="45.225" lon="5.74209">
        <ele>935.7</ele>
        <time>2011-10-16T14:37:10Z</time>
      </trkpt>
      <trkpt lat="45.22495" lon="5.74205">
        <ele>936</ele>
        <time>2011-10-16T14:37:14Z</time>
      </trkpt>
      <trkpt lat="45.2249" lon="5.74202">
        <ele>936.4</ele>
        <time>2011-10-16T14:37:18Z</time>
      </trkpt>
      <trkpt lat="45.22485" lon="5.74198">
        <ele>936.8</ele>
        <time>2011-10-16T14:37:22Z</time>
      </trkpt>
      <trkpt lat="45.2248" lon="5.74194">
        <ele>937.5</ele>
        <time>2011-10-16T14:37:37Z</time>
      </trkpt>
      <trkpt lat="45.22476" lon="5.7419">
        <ele>937.6</ele>
        <time>2011-10-16T14:37:40Z</time>
      </trkpt>
      <trkpt lat="45.22471" lon="5.74186">
        <ele>937.8</ele>
        <time>2011-10-16T14:37:44Z</time>
      </trkpt>
      <trkpt lat="45.22467" lon="5.74182">
        <ele>938.8</ele>
        <time>2011-10-16T14:37:48Z</time>
      </trkpt>
      <trkpt lat="45.22464" lon="5.74176">
        <ele>940</ele>
        <time>2011-10-16T14:37:53Z</time>
      </trkpt>
      <trkpt lat="45.2246" lon="5.74172">
        <ele>940.4</ele>
        <time>2011-10-16T14:37:57Z</time>
      </trkpt>
      <trkpt lat="45.22456" lon="5.74167">
        <ele>940.8</ele>
        <time>2011-10-16T14:38:01Z</time>
      </trkpt>
      <trkpt lat="45.22451" lon="5.74163">
        <ele>941.2</ele>
        <time>2011-10-16T14:38:05Z</time>
      </trkpt>
      <trkpt lat="45.22448" lon="5.74156">
        <ele>941.3</ele>
        <time>2011-10-16T14:38:09Z</time>
      </trkpt>
      <trkpt lat="45.22444" lon="5.7415">
        <ele>941.2</ele>
        <time>2011-10-16T14:38:13Z</time>
      </trkpt>
      <trkpt lat="45.22441" lon="5.74144">
        <ele>941.8</ele>
        <time>2011-10-16T14:38:17Z</time>
      </trkpt>
      <trkpt lat="45.22437" lon="5.74138">
        <ele>942</ele>
        <time>2011-10-16T14:38:21Z</time>
      </trkpt>
      <trkpt lat="45.22434" lon="5.74134">
        <ele>942.9</ele>
        <time>2011-10-16T14:38:25Z</time>
      </trkpt>
      <trkpt lat="45.2243" lon="5.74129">
        <ele>943.2</ele>
        <time>2011-10-16T14:38:29Z</time>
      </trkpt>
      <trkpt lat="45.22426" lon="5.74124">
        <ele>943.5</ele>
        <time>2011-10-16T14:38:33Z</time>
      </trkpt>
      <trkpt lat="45.22423" lon="5.74118">
        <ele>944.9</ele>
        <time>2011-10-16T14:38:37Z</time>
      </trkpt>
      <trkpt lat="45.2242" lon="5.74113">
        <ele>945.3</ele>
        <time>2011-10-16T14:38:41Z</time>
      </trkpt>
      <trkpt lat="45.22416" lon="5.74107">
        <ele>946</ele>
        <time>2011-10-16T14:38:45Z</time>
      </trkpt>
      <trkpt lat="45.22413" lon="5.74102">
        <ele>946.3</ele>
        <time>2011-10-16T14:38:49Z</time>
      </trkpt>
      <trkpt lat="45.2241" lon="5.74097">
        <ele>946.8</ele>
        <time>2011-10-16T14:38:53Z</time>
      </trkpt>
      <trkpt lat="45.22406" lon="5.74092">
        <ele>947</ele>
        <time>2011-10-16T14:38:57Z</time>
      </trkpt>
      <trkpt lat="45.22401" lon="5.74087">
        <ele>947.9</ele>
        <time>2011-10-16T14:39:02Z</time>
      </trkpt>
      <trkpt lat="45.22396" lon="5.74084">
        <ele>948.7</ele>
        <time>2011-10-16T14:39:06Z</time>
      </trkpt>
      <trkpt lat="45.22393" lon="5.74077">
        <ele>949.1</ele>
        <time>2011-10-16T14:39:11Z</time>
      </trkpt>
      <trkpt lat="45.22396" lon="5.74069">
        <ele>952.1</ele>
        <time>2011-10-16T14:40:28Z</time>
      </trkpt>
      <trkpt lat="45.224" lon="5.74067">
        <ele>953.4</ele>
        <time>2011-10-16T14:40:34Z</time>
      </trkpt>
      <trkpt lat="45.224" lon="5.74067">
        <ele>953.4</ele>
        <time>2011-10-16T14:40:34Z</time>
      </trkpt>
      <trkpt lat="45.224" lon="5.74067">
        <ele>953.4</ele>
        <time>2011-10-16T14:40:46Z</time>
      </trkpt>
      <trkpt lat="45.22405" lon="5.74071">
        <ele>954.9</ele>
        <time>2011-10-16T14:41:23Z</time>
      </trkpt>
      <trkpt lat="45.22409" lon="5.74074">
        <ele>955.4</ele>
        <time>2011-10-16T14:41:27Z</time>
      </trkpt>
      <trkpt lat="45.22414" lon="5.74079">
        <ele>955.9</ele>
        <time>2011-10-16T14:41:31Z</time>
      </trkpt>
      <trkpt lat="45.22417" lon="5.74082">
        <ele>956.3</ele>
        <time>2011-10-16T14:41:35Z</time>
      </trkpt>
      <trkpt lat="45.22422" lon="5.74084">
        <ele>956.5</ele>
        <time>2011-10-16T14:41:39Z</time>
      </trkpt>
      <trkpt lat="45.22426" lon="5.74086">
        <ele>956.9</ele>
        <time>2011-10-16T14:41:43Z</time>
      </trkpt>
      <trkpt lat="45.22431" lon="5.74089">
        <ele>957.5</ele>
        <time>2011-10-16T14:41:47Z</time>
      </trkpt>
      <trkpt lat="45.22436" lon="5.74091">
        <ele>957.7</ele>
        <time>2011-10-16T14:41:51Z</time>
      </trkpt>
      <trkpt lat="45.2244" lon="5.74095">
        <ele>958.1</ele>
        <time>2011-10-16T14:41:55Z</time>
      </trkpt>
      <trkpt lat="45.22444" lon="5.74099">
        <ele>958.4</ele>
        <time>2011-10-16T14:41:59Z</time>
      </trkpt>
      <trkpt lat="45.22448" lon="5.74102">
        <ele>958.8</ele>
        <time>2011-10-16T14:42:03Z</time>
      </trkpt>
      <trkpt lat="45.22454" lon="5.74105">
        <ele>959.6</ele>
        <time>2011-10-16T14:42:07Z</time>
      </trkpt>
      <trkpt lat="45.22458" lon="5.74108">
        <ele>960</ele>
        <time>2011-10-16T14:42:11Z</time>
      </trkpt>
      <trkpt lat="45.22464" lon="5.74109">
        <ele>960.7</ele>
        <time>2011-10-16T14:42:15Z</time>
      </trkpt>
      <trkpt lat="45.22468" lon="5.7411">
        <ele>961.5</ele>
        <time>2011-10-16T14:42:19Z</time>
      </trkpt>
      <trkpt lat="45.22473" lon="5.7411">
        <ele>962.4</ele>
        <time>2011-10-16T14:42:23Z</time>
      </trkpt>
      <trkpt lat="45.22478" lon="5.74111">
        <ele>963.1</ele>
        <time>2011-10-16T14:42:27Z</time>
      </trkpt>
      <trkpt lat="45.22483" lon="5.74112">
        <ele>963.9</ele>
        <time>2011-10-16T14:42:31Z</time>
      </trkpt>
      <trkpt lat="45.22487" lon="5.74112">
        <ele>965.1</ele>
        <time>2011-10-16T14:42:35Z</time>
      </trkpt>
      <trkpt lat="45.22492" lon="5.74112">
        <ele>965.3</ele>
        <time>2011-10-16T14:42:39Z</time>
      </trkpt>
      <trkpt lat="45.22497" lon="5.74112">
        <ele>966.2</ele>
        <time>2011-10-16T14:42:43Z</time>
      </trkpt>
      <trkpt lat="45.22501" lon="5.74111">
        <ele>967</ele>
        <time>2011-10-16T14:42:47Z</time>
      </trkpt>
      <trkpt lat="45.22506" lon="5.74112">
        <ele>967.4</ele>
        <time>2011-10-16T14:42:51Z</time>
      </trkpt>
      <trkpt lat="45.22511" lon="5.74111">
        <ele>967.8</ele>
        <time>2011-10-16T14:42:55Z</time>
      </trkpt>
      <trkpt lat="45.22516" lon="5.74111">
        <ele>967.8</ele>
        <time>2011-10-16T14:42:59Z</time>
      </trkpt>
      <trkpt lat="45.22522" lon="5.7411">
        <ele>968.3</ele>
        <time>2011-10-16T14:43:03Z</time>
      </trkpt>
      <trkpt lat="45.22527" lon="5.7411">
        <ele>968.6</ele>
        <time>2011-10-16T14:43:07Z</time>
      </trkpt>
      <trkpt lat="45.22532" lon="5.7411">
        <ele>968.9</ele>
        <time>2011-10-16T14:43:11Z</time>
      </trkpt>
      <trkpt lat="45.22537" lon="5.74109">
        <ele>969.4</ele>
        <time>2011-10-16T14:43:15Z</time>
      </trkpt>
      <trkpt lat="45.22542" lon="5.74107">
        <ele>969.5</ele>
        <time>2011-10-16T14:43:19Z</time>
      </trkpt>
      <trkpt lat="45.22548" lon="5.74106">
        <ele>970.1</ele>
        <time>2011-10-16T14:43:23Z</time>
      </trkpt>
      <trkpt lat="45.22552" lon="5.74104">
        <ele>970.5</ele>
        <time>2011-10-16T14:43:27Z</time>
      </trkpt>
      <trkpt lat="45.22556" lon="5.74102">
        <ele>970.8</ele>
        <time>2011-10-16T14:43:31Z</time>
      </trkpt>
      <trkpt lat="45.22561" lon="5.741">
        <ele>971.3</ele>
        <time>2011-10-16T14:43:35Z</time>
      </trkpt>
      <trkpt lat="45.22565" lon="5.74096">
        <ele>972</ele>
        <time>2011-10-16T14:43:40Z</time>
      </trkpt>
      <trkpt lat="45.22571" lon="5.74094">
        <ele>972.7</ele>
        <time>2011-10-16T14:43:45Z</time>
      </trkpt>
      <trkpt lat="45.22576" lon="5.74092">
        <ele>973.3</ele>
        <time>2011-10-16T14:43:49Z</time>
      </trkpt>
      <trkpt lat="45.22581" lon="5.7409">
        <ele>973.7</ele>
        <time>2011-10-16T14:43:54Z</time>
      </trkpt>
      <trkpt lat="45.22586" lon="5.7409">
        <ele>974.8</ele>
        <time>2011-10-16T14:43:58Z</time>
      </trkpt>
      <trkpt lat="45.22591" lon="5.7409">
        <ele>975.6</ele>
        <time>2011-10-16T14:44:02Z</time>
      </trkpt>
      <trkpt lat="45.22596" lon="5.7409">
        <ele>977</ele>
        <time>2011-10-16T14:44:06Z</time>
      </trkpt>
      <trkpt lat="45.22601" lon="5.74092">
        <ele>977.9</ele>
        <time>2011-10-16T14:44:10Z</time>
      </trkpt>
      <trkpt lat="45.22607" lon="5.74093">
        <ele>978.4</ele>
        <time>2011-10-16T14:44:22Z</time>
      </trkpt>
      <trkpt lat="45.22612" lon="5.74094">
        <ele>978.8</ele>
        <time>2011-10-16T14:44:34Z</time>
      </trkpt>
      <trkpt lat="45.22617" lon="5.74095">
        <ele>979.8</ele>
        <time>2011-10-16T14:44:40Z</time>
      </trkpt>
      <trkpt lat="45.22622" lon="5.74096">
        <ele>980.5</ele>
        <time>2011-10-16T14:44:45Z</time>
      </trkpt>
      <trkpt lat="45.22627" lon="5.74096">
        <ele>981.5</ele>
        <time>2011-10-16T14:44:50Z</time>
      </trkpt>
      <trkpt lat="45.22632" lon="5.74097">
        <ele>982.3</ele>
        <time>2011-10-16T14:44:55Z</time>
      </trkpt>
      <trkpt lat="45.22638" lon="5.74098">
        <ele>983.7</ele>
        <time>2011-10-16T14:45:00Z</time>
      </trkpt>
      <trkpt lat="45.22642" lon="5.74098">
        <ele>984.2</ele>
        <time>2011-10-16T14:45:04Z</time>
      </trkpt>
      <trkpt lat="45.22647" lon="5.74099">
        <ele>984.7</ele>
        <time>2011-10-16T14:45:08Z</time>
      </trkpt>
      <trkpt lat="45.22652" lon="5.741">
        <ele>984.9</ele>
        <time>2011-10-16T14:45:12Z</time>
      </trkpt>
      <trkpt lat="45.22657" lon="5.741">
        <ele>985.2</ele>
        <time>2011-10-16T14:45:16Z</time>
      </trkpt>
      <trkpt lat="45.22662" lon="5.74101">
        <ele>985.6</ele>
        <time>2011-10-16T14:45:20Z</time>
      </trkpt>
      <trkpt lat="45.22667" lon="5.74102">
        <ele>986.1</ele>
        <time>2011-10-16T14:45:24Z</time>
      </trkpt>
      <trkpt lat="45.22672" lon="5.74104">
        <ele>986.4</ele>
        <time>2011-10-16T14:45:28Z</time>
      </trkpt>
      <trkpt lat="45.22676" lon="5.74105">
        <ele>986.6</ele>
        <time>2011-10-16T14:45:32Z</time>
      </trkpt>
      <trkpt lat="45.22681" lon="5.74105">
        <ele>987.3</ele>
        <time>2011-10-16T14:45:36Z</time>
      </trkpt>
      <trkpt lat="45.22686" lon="5.74106">
        <ele>987.4</ele>
        <time>2011-10-16T14:45:40Z</time>
      </trkpt>
      <trkpt lat="45.22691" lon="5.74107">
        <ele>987.6</ele>
        <time>2011-10-16T14:45:44Z</time>
      </trkpt>
      <trkpt lat="45.22697" lon="5.74108">
        <ele>988.4</ele>
        <time>2011-10-16T14:45:49Z</time>
      </trkpt>
      <trkpt lat="45.22702" lon="5.74108">
        <ele>989</ele>
        <time>2011-10-16T14:45:53Z</time>
      </trkpt>
      <trkpt lat="45.22707" lon="5.7411">
        <ele>989.8</ele>
        <time>2011-10-16T14:45:57Z</time>
      </trkpt>
      <trkpt lat="45.22712" lon="5.74111">
        <ele>990.5</ele>
        <time>2011-10-16T14:46:02Z</time>
      </trkpt>
      <trkpt lat="45.22716" lon="5.74113">
        <ele>990.9</ele>
        <time>2011-10-16T14:46:07Z</time>
      </trkpt>
      <trkpt lat="45.22722" lon="5.74113">
        <ele>992.2</ele>
        <time>2011-10-16T14:46:24Z</time>
      </trkpt>
      <trkpt lat="45.22726" lon="5.74114">
        <ele>993</ele>
        <time>2011-10-16T14:46:28Z</time>
      </trkpt>
      <trkpt lat="45.22731" lon="5.74116">
        <ele>993.8</ele>
        <time>2011-10-16T14:46:32Z</time>
      </trkpt>
      <trkpt lat="45.22736" lon="5.74116">
        <ele>994.4</ele>
        <time>2011-10-16T14:46:36Z</time>
      </trkpt>
      <trkpt lat="45.22741" lon="5.74118">
        <ele>995.2</ele>
        <time>2011-10-16T14:46:40Z</time>
      </trkpt>
      <trkpt lat="45.22746" lon="5.74121">
        <ele>995.5</ele>
        <time>2011-10-16T14:46:44Z</time>
      </trkpt>
      <trkpt lat="45.2275" lon="5.74124">
        <ele>996</ele>
        <time>2011-10-16T14:46:48Z</time>
      </trkpt>
      <trkpt lat="45.22755" lon="5.74127">
        <ele>996.9</ele>
        <time>2011-10-16T14:46:53Z</time>
      </trkpt>
      <trkpt lat="45.2276" lon="5.7413">
        <ele>996.3</ele>
        <time>2011-10-16T14:46:57Z</time>
      </trkpt>
      <trkpt lat="45.22765" lon="5.74133">
        <ele>996.8</ele>
        <time>2011-10-16T14:47:01Z</time>
      </trkpt>
      <trkpt lat="45.22769" lon="5.74136">
        <ele>997.8</ele>
        <time>2011-10-16T14:47:05Z</time>
      </trkpt>
      <trkpt lat="45.22774" lon="5.74138">
        <ele>998.2</ele>
        <time>2011-10-16T14:47:09Z</time>
      </trkpt>
      <trkpt lat="45.22778" lon="5.74141">
        <ele>999.2</ele>
        <time>2011-10-16T14:47:13Z</time>
      </trkpt>
      <trkpt lat="45.22783" lon="5.74143">
        <ele>999.4</ele>
        <time>2011-10-16T14:47:17Z</time>
      </trkpt>
      <trkpt lat="45.22788" lon="5.74144">
        <ele>999.3</ele>
        <time>2011-10-16T14:47:21Z</time>
      </trkpt>
      <trkpt lat="45.22793" lon="5.74145">
        <ele>999.7</ele>
        <time>2011-10-16T14:47:24Z</time>
      </trkpt>
      <trkpt lat="45.22798" lon="5.74145">
        <ele>1000</ele>
        <time>2011-10-16T14:47:28Z</time>
      </trkpt>
      <trkpt lat="45.22804" lon="5.74146">
        <ele>1000.9</ele>
        <time>2011-10-16T14:47:33Z</time>
      </trkpt>
      <trkpt lat="45.22808" lon="5.74145">
        <ele>1001.8</ele>
        <time>2011-10-16T14:47:38Z</time>
      </trkpt>
      <trkpt lat="45.22813" lon="5.74146">
        <ele>1002</ele>
        <time>2011-10-16T14:47:42Z</time>
      </trkpt>
      <trkpt lat="45.22818" lon="5.74148">
        <ele>1002.4</ele>
        <time>2011-10-16T14:47:46Z</time>
      </trkpt>
      <trkpt lat="45.22822" lon="5.7415">
        <ele>1002.3</ele>
        <time>2011-10-16T14:47:49Z</time>
      </trkpt>
      <trkpt lat="45.22827" lon="5.74152">
        <ele>1003.2</ele>
        <time>2011-10-16T14:47:53Z</time>
      </trkpt>
      <trkpt lat="45.22832" lon="5.74154">
        <ele>1003.6</ele>
        <time>2011-10-16T14:47:57Z</time>
      </trkpt>
      <trkpt lat="45.22837" lon="5.74156">
        <ele>1004</ele>
        <time>2011-10-16T14:48:01Z</time>
      </trkpt>
      <trkpt lat="45.22842" lon="5.74159">
        <ele>1005.5</ele>
        <time>2011-10-16T14:48:05Z</time>
      </trkpt>
      <trkpt lat="45.22847" lon="5.74162">
        <ele>1006.4</ele>
        <time>2011-10-16T14:48:09Z</time>
      </trkpt>
      <trkpt lat="45.22852" lon="5.74165">
        <ele>1007.3</ele>
        <time>2011-10-16T14:48:13Z</time>
      </trkpt>
      <trkpt lat="45.22857" lon="5.74166">
        <ele>1007.9</ele>
        <time>2011-10-16T14:48:17Z</time>
      </trkpt>
      <trkpt lat="45.22862" lon="5.74169">
        <ele>1007.9</ele>
        <time>2011-10-16T14:48:21Z</time>
      </trkpt>
      <trkpt lat="45.22867" lon="5.74172">
        <ele>1008.9</ele>
        <time>2011-10-16T14:48:25Z</time>
      </trkpt>
      <trkpt lat="45.22872" lon="5.74175">
        <ele>1010</ele>
        <time>2011-10-16T14:48:29Z</time>
      </trkpt>
      <trkpt lat="45.22876" lon="5.74178">
        <ele>1010.4</ele>
        <time>2011-10-16T14:48:33Z</time>
      </trkpt>
      <trkpt lat="45.22881" lon="5.74179">
        <ele>1011</ele>
        <time>2011-10-16T14:48:37Z</time>
      </trkpt>
      <trkpt lat="45.22886" lon="5.74182">
        <ele>1011.2</ele>
        <time>2011-10-16T14:48:41Z</time>
      </trkpt>
      <trkpt lat="45.22891" lon="5.74184">
        <ele>1012</ele>
        <time>2011-10-16T14:48:45Z</time>
      </trkpt>
      <trkpt lat="45.22896" lon="5.74186">
        <ele>1012.8</ele>
        <time>2011-10-16T14:48:49Z</time>
      </trkpt>
      <trkpt lat="45.22901" lon="5.74187">
        <ele>1014.5</ele>
        <time>2011-10-16T14:48:53Z</time>
      </trkpt>
      <trkpt lat="45.22905" lon="5.74189">
        <ele>1015.6</ele>
        <time>2011-10-16T14:48:57Z</time>
      </trkpt>
      <trkpt lat="45.22911" lon="5.74191">
        <ele>1015.7</ele>
        <time>2011-10-16T14:49:01Z</time>
      </trkpt>
      <trkpt lat="45.22916" lon="5.74194">
        <ele>1015.8</ele>
        <time>2011-10-16T14:49:05Z</time>
      </trkpt>
      <trkpt lat="45.2292" lon="5.74199">
        <ele>1016.1</ele>
        <time>2011-10-16T14:49:09Z</time>
      </trkpt>
      <trkpt lat="45.22924" lon="5.74203">
        <ele>1016.9</ele>
        <time>2011-10-16T14:49:13Z</time>
      </trkpt>
      <trkpt lat="45.22929" lon="5.74206">
        <ele>1017.4</ele>
        <time>2011-10-16T14:49:17Z</time>
      </trkpt>
      <trkpt lat="45.22934" lon="5.74208">
        <ele>1017.8</ele>
        <time>2011-10-16T14:49:21Z</time>
      </trkpt>
      <trkpt lat="45.22939" lon="5.7421">
        <ele>1018.2</ele>
        <time>2011-10-16T14:49:25Z</time>
      </trkpt>
      <trkpt lat="45.22944" lon="5.74213">
        <ele>1019.2</ele>
        <time>2011-10-16T14:49:29Z</time>
      </trkpt>
      <trkpt lat="45.22948" lon="5.74216">
        <ele>1020.2</ele>
        <time>2011-10-16T14:49:33Z</time>
      </trkpt>
      <trkpt lat="45.22954" lon="5.74218">
        <ele>1020.5</ele>
        <time>2011-10-16T14:49:37Z</time>
      </trkpt>
      <trkpt lat="45.22958" lon="5.74219">
        <ele>1021.1</ele>
        <time>2011-10-16T14:49:41Z</time>
      </trkpt>
      <trkpt lat="45.22963" lon="5.74221">
        <ele>1021.3</ele>
        <time>2011-10-16T14:49:45Z</time>
      </trkpt>
      <trkpt lat="45.22968" lon="5.74222">
        <ele>1021.8</ele>
        <time>2011-10-16T14:49:49Z</time>
      </trkpt>
      <trkpt lat="45.22973" lon="5.74224">
        <ele>1022.3</ele>
        <time>2011-10-16T14:49:53Z</time>
      </trkpt>
      <trkpt lat="45.22978" lon="5.74225">
        <ele>1022.8</ele>
        <time>2011-10-16T14:49:57Z</time>
      </trkpt>
      <trkpt lat="45.22982" lon="5.74226">
        <ele>1024</ele>
        <time>2011-10-16T14:50:02Z</time>
      </trkpt>
      <trkpt lat="45.22987" lon="5.74229">
        <ele>1024.8</ele>
        <time>2011-10-16T14:50:07Z</time>
      </trkpt>
      <trkpt lat="45.22992" lon="5.7423">
        <ele>1024.7</ele>
        <time>2011-10-16T14:50:10Z</time>
      </trkpt>
      <trkpt lat="45.22997" lon="5.74231">
        <ele>1024.4</ele>
        <time>2011-10-16T14:50:13Z</time>
      </trkpt>
      <trkpt lat="45.23002" lon="5.74231">
        <ele>1024.5</ele>
        <time>2011-10-16T14:50:16Z</time>
      </trkpt>
      <trkpt lat="45.23007" lon="5.74233">
        <ele>1024.9</ele>
        <time>2011-10-16T14:50:20Z</time>
      </trkpt>
      <trkpt lat="45.23012" lon="5.74235">
        <ele>1025.9</ele>
        <time>2011-10-16T14:50:24Z</time>
      </trkpt>
      <trkpt lat="45.23017" lon="5.74234">
        <ele>1026.1</ele>
        <time>2011-10-16T14:50:51Z</time>
      </trkpt>
      <trkpt lat="45.23024" lon="5.74238">
        <ele>1026.9</ele>
        <time>2011-10-16T14:51:43Z</time>
      </trkpt>
      <trkpt lat="45.2303" lon="5.74239">
        <ele>1028.8</ele>
        <time>2011-10-16T14:51:51Z</time>
      </trkpt>
      <trkpt lat="45.23034" lon="5.74241">
        <ele>1029.5</ele>
        <time>2011-10-16T14:51:55Z</time>
      </trkpt>
      <trkpt lat="45.2304" lon="5.74243">
        <ele>1030.5</ele>
        <time>2011-10-16T14:52:00Z</time>
      </trkpt>
      <trkpt lat="45.23044" lon="5.74246">
        <ele>1029.8</ele>
        <time>2011-10-16T14:52:08Z</time>
      </trkpt>
      <trkpt lat="45.23049" lon="5.74246">
        <ele>1030.3</ele>
        <time>2011-10-16T14:52:12Z</time>
      </trkpt>
      <trkpt lat="45.23054" lon="5.74249">
        <ele>1031.1</ele>
        <time>2011-10-16T14:52:16Z</time>
      </trkpt>
      <trkpt lat="45.23059" lon="5.74251">
        <ele>1031.8</ele>
        <time>2011-10-16T14:52:20Z</time>
      </trkpt>
      <trkpt lat="45.23064" lon="5.74254">
        <ele>1032.2</ele>
        <time>2011-10-16T14:52:24Z</time>
      </trkpt>
      <trkpt lat="45.23069" lon="5.74257">
        <ele>1032.6</ele>
        <time>2011-10-16T14:52:28Z</time>
      </trkpt>
      <trkpt lat="45.23074" lon="5.7426">
        <ele>1033.6</ele>
        <time>2011-10-16T14:52:32Z</time>
      </trkpt>
      <trkpt lat="45.23078" lon="5.74264">
        <ele>1035.5</ele>
        <time>2011-10-16T14:52:37Z</time>
      </trkpt>
      <trkpt lat="45.23084" lon="5.74265">
        <ele>1035.4</ele>
        <time>2011-10-16T14:52:41Z</time>
      </trkpt>
      <trkpt lat="45.2309" lon="5.74265">
        <ele>1035.2</ele>
        <time>2011-10-16T14:52:45Z</time>
      </trkpt>
      <trkpt lat="45.23094" lon="5.74267">
        <ele>1035.1</ele>
        <time>2011-10-16T14:52:48Z</time>
      </trkpt>
      <trkpt lat="45.23099" lon="5.74269">
        <ele>1036.1</ele>
        <time>2011-10-16T14:52:52Z</time>
      </trkpt>
      <trkpt lat="45.23104" lon="5.7427">
        <ele>1036.2</ele>
        <time>2011-10-16T14:52:56Z</time>
      </trkpt>
      <trkpt lat="45.23109" lon="5.74272">
        <ele>1036.6</ele>
        <time>2011-10-16T14:53:00Z</time>
      </trkpt>
      <trkpt lat="45.23114" lon="5.74273">
        <ele>1036.6</ele>
        <time>2011-10-16T14:53:03Z</time>
      </trkpt>
      <trkpt lat="45.23118" lon="5.74272">
        <ele>1036.4</ele>
        <time>2011-10-16T14:53:06Z</time>
      </trkpt>
      <trkpt lat="45.23123" lon="5.74274">
        <ele>1036.2</ele>
        <time>2011-10-16T14:53:10Z</time>
      </trkpt>
      <trkpt lat="45.23128" lon="5.74278">
        <ele>1036.5</ele>
        <time>2011-10-16T14:53:14Z</time>
      </trkpt>
      <trkpt lat="45.23132" lon="5.74287">
        <ele>1036.4</ele>
        <time>2011-10-16T14:53:23Z</time>
      </trkpt>
      <trkpt lat="45.23132" lon="5.74287">
        <ele>1036.4</ele>
        <time>2011-10-16T14:53:23Z</time>
      </trkpt>
      <trkpt lat="45.23132" lon="5.74287">
        <ele>1036.4</ele>
        <time>2011-10-16T14:53:46Z</time>
      </trkpt>
      <trkpt lat="45.23168" lon="5.74294">
        <ele>1046.6</ele>
        <time>2011-10-16T14:53:47Z</time>
      </trkpt>
      <trkpt lat="45.23173" lon="5.74294">
        <ele>1046.9</ele>
        <time>2011-10-16T14:53:51Z</time>
      </trkpt>
      <trkpt lat="45.23178" lon="5.74296">
        <ele>1047.1</ele>
        <time>2011-10-16T14:53:55Z</time>
      </trkpt>
      <trkpt lat="45.23183" lon="5.74297">
        <ele>1047.4</ele>
        <time>2011-10-16T14:53:59Z</time>
      </trkpt>
      <trkpt lat="45.23188" lon="5.74298">
        <ele>1047.6</ele>
        <time>2011-10-16T14:54:03Z</time>
      </trkpt>
      <trkpt lat="45.23194" lon="5.743">
        <ele>1047.8</ele>
        <time>2011-10-16T14:54:07Z</time>
      </trkpt>
      <trkpt lat="45.23199" lon="5.74302">
        <ele>1047.8</ele>
        <time>2011-10-16T14:54:11Z</time>
      </trkpt>
      <trkpt lat="45.23204" lon="5.74304">
        <ele>1047.9</ele>
        <time>2011-10-16T14:54:15Z</time>
      </trkpt>
      <trkpt lat="45.23208" lon="5.74306">
        <ele>1047.9</ele>
        <time>2011-10-16T14:54:19Z</time>
      </trkpt>
      <trkpt lat="45.23214" lon="5.74307">
        <ele>1048.3</ele>
        <time>2011-10-16T14:54:23Z</time>
      </trkpt>
      <trkpt lat="45.23219" lon="5.74309">
        <ele>1048</ele>
        <time>2011-10-16T14:54:27Z</time>
      </trkpt>
      <trkpt lat="45.23225" lon="5.7431">
        <ele>1048.3</ele>
        <time>2011-10-16T14:54:31Z</time>
      </trkpt>
      <trkpt lat="45.2323" lon="5.74312">
        <ele>1048.6</ele>
        <time>2011-10-16T14:54:35Z</time>
      </trkpt>
      <trkpt lat="45.23235" lon="5.74314">
        <ele>1049</ele>
        <time>2011-10-16T14:54:39Z</time>
      </trkpt>
      <trkpt lat="45.2324" lon="5.74317">
        <ele>1049.6</ele>
        <time>2011-10-16T14:54:43Z</time>
      </trkpt>
      <trkpt lat="45.23245" lon="5.74319">
        <ele>1050.1</ele>
        <time>2011-10-16T14:54:47Z</time>
      </trkpt>
      <trkpt lat="45.23249" lon="5.74322">
        <ele>1050.5</ele>
        <time>2011-10-16T14:54:51Z</time>
      </trkpt>
      <trkpt lat="45.23254" lon="5.74325">
        <ele>1050.8</ele>
        <time>2011-10-16T14:54:55Z</time>
      </trkpt>
      <trkpt lat="45.23258" lon="5.74328">
        <ele>1051.5</ele>
        <time>2011-10-16T14:54:59Z</time>
      </trkpt>
      <trkpt lat="45.23262" lon="5.74331">
        <ele>1051.7</ele>
        <time>2011-10-16T14:55:03Z</time>
      </trkpt>
      <trkpt lat="45.23267" lon="5.74335">
        <ele>1052.5</ele>
        <time>2011-10-16T14:55:07Z</time>
      </trkpt>
      <trkpt lat="45.23271" lon="5.74339">
        <ele>1053.4</ele>
        <time>2011-10-16T14:55:11Z</time>
      </trkpt>
      <trkpt lat="45.23275" lon="5.74342">
        <ele>1053.6</ele>
        <time>2011-10-16T14:55:15Z</time>
      </trkpt>
      <trkpt lat="45.2328" lon="5.74345">
        <ele>1053.8</ele>
        <time>2011-10-16T14:55:19Z</time>
      </trkpt>
      <trkpt lat="45.23284" lon="5.74349">
        <ele>1054.4</ele>
        <time>2011-10-16T14:55:23Z</time>
      </trkpt>
      <trkpt lat="45.23289" lon="5.74351">
        <ele>1054.7</ele>
        <time>2011-10-16T14:55:28Z</time>
      </trkpt>
      <trkpt lat="45.23294" lon="5.74355">
        <ele>1053</ele>
        <time>2011-10-16T14:56:42Z</time>
      </trkpt>
      <trkpt lat="45.23298" lon="5.74358">
        <ele>1053.8</ele>
        <time>2011-10-16T14:56:46Z</time>
      </trkpt>
      <trkpt lat="45.23302" lon="5.74362">
        <ele>1054.3</ele>
        <time>2011-10-16T14:56:50Z</time>
      </trkpt>
      <trkpt lat="45.23306" lon="5.74366">
        <ele>1055.3</ele>
        <time>2011-10-16T14:56:54Z</time>
      </trkpt>
      <trkpt lat="45.2331" lon="5.74369">
        <ele>1056.4</ele>
        <time>2011-10-16T14:56:58Z</time>
      </trkpt>
      <trkpt lat="45.23314" lon="5.74372">
        <ele>1057.8</ele>
        <time>2011-10-16T14:57:02Z</time>
      </trkpt>
      <trkpt lat="45.23318" lon="5.74375">
        <ele>1058.9</ele>
        <time>2011-10-16T14:57:06Z</time>
      </trkpt>
      <trkpt lat="45.23322" lon="5.74378">
        <ele>1059.3</ele>
        <time>2011-10-16T14:57:10Z</time>
      </trkpt>
      <trkpt lat="45.23327" lon="5.74381">
        <ele>1060.1</ele>
        <time>2011-10-16T14:57:14Z</time>
      </trkpt>
      <trkpt lat="45.23332" lon="5.74381">
        <ele>1060.6</ele>
        <time>2011-10-16T14:57:18Z</time>
      </trkpt>
      <trkpt lat="45.23337" lon="5.74381">
        <ele>1061.8</ele>
        <time>2011-10-16T14:57:22Z</time>
      </trkpt>
      <trkpt lat="45.23342" lon="5.74381">
        <ele>1062.2</ele>
        <time>2011-10-16T14:57:26Z</time>
      </trkpt>
      <trkpt lat="45.23348" lon="5.74382">
        <ele>1063.1</ele>
        <time>2011-10-16T14:57:30Z</time>
      </trkpt>
      <trkpt lat="45.23353" lon="5.74381">
        <ele>1064.2</ele>
        <time>2011-10-16T14:57:34Z</time>
      </trkpt>
      <trkpt lat="45.23358" lon="5.7438">
        <ele>1065.1</ele>
        <time>2011-10-16T14:57:38Z</time>
      </trkpt>
      <trkpt lat="45.23362" lon="5.7438">
        <ele>1063.7</ele>
        <time>2011-10-16T15:07:24Z</time>
      </trkpt>
      <trkpt lat="45.23367" lon="5.74379">
        <ele>1064</ele>
        <time>2011-10-16T15:07:28Z</time>
      </trkpt>
      <trkpt lat="45.23371" lon="5.74378">
        <ele>1064.3</ele>
        <time>2011-10-16T15:07:32Z</time>
      </trkpt>
      <trkpt lat="45.23376" lon="5.74377">
        <ele>1064.7</ele>
        <time>2011-10-16T15:07:37Z</time>
      </trkpt>
      <trkpt lat="45.2338" lon="5.74373">
        <ele>1065.3</ele>
        <time>2011-10-16T15:07:41Z</time>
      </trkpt>
      <trkpt lat="45.2338" lon="5.74366">
        <ele>1066.2</ele>
        <time>2011-10-16T15:07:46Z</time>
      </trkpt>
      <trkpt lat="45.23377" lon="5.74361">
        <ele>1067</ele>
        <time>2011-10-16T15:07:51Z</time>
      </trkpt>
      <trkpt lat="45.23374" lon="5.74354">
        <ele>1067.2</ele>
        <time>2011-10-16T15:07:56Z</time>
      </trkpt>
      <trkpt lat="45.23372" lon="5.74348">
        <ele>1067</ele>
        <time>2011-10-16T15:08:01Z</time>
      </trkpt>
      <trkpt lat="45.23371" lon="5.7434">
        <ele>1067.5</ele>
        <time>2011-10-16T15:08:06Z</time>
      </trkpt>
      <trkpt lat="45.23371" lon="5.74334">
        <ele>1067.3</ele>
        <time>2011-10-16T15:08:10Z</time>
      </trkpt>
      <trkpt lat="45.23371" lon="5.74327">
        <ele>1067.5</ele>
        <time>2011-10-16T15:08:14Z</time>
      </trkpt>
      <trkpt lat="45.23372" lon="5.7432">
        <ele>1067.7</ele>
        <time>2011-10-16T15:08:18Z</time>
      </trkpt>
      <trkpt lat="45.23374" lon="5.74313">
        <ele>1067.5</ele>
        <time>2011-10-16T15:08:22Z</time>
      </trkpt>
      <trkpt lat="45.23376" lon="5.74307">
        <ele>1067.7</ele>
        <time>2011-10-16T15:08:27Z</time>
      </trkpt>
      <trkpt lat="45.23379" lon="5.74301">
        <ele>1067.9</ele>
        <time>2011-10-16T15:08:32Z</time>
      </trkpt>
      <trkpt lat="45.23381" lon="5.74295">
        <ele>1068.7</ele>
        <time>2011-10-16T15:08:37Z</time>
      </trkpt>
      <trkpt lat="45.23383" lon="5.74288">
        <ele>1069.5</ele>
        <time>2011-10-16T15:08:43Z</time>
      </trkpt>
      <trkpt lat="45.23384" lon="5.74282">
        <ele>1069.9</ele>
        <time>2011-10-16T15:08:47Z</time>
      </trkpt>
      <trkpt lat="45.23386" lon="5.74274">
        <ele>1070.4</ele>
        <time>2011-10-16T15:08:52Z</time>
      </trkpt>
      <trkpt lat="45.23387" lon="5.74268">
        <ele>1072.2</ele>
        <time>2011-10-16T15:08:58Z</time>
      </trkpt>
      <trkpt lat="45.23387" lon="5.74261">
        <ele>1072.4</ele>
        <time>2011-10-16T15:09:12Z</time>
      </trkpt>
      <trkpt lat="45.23385" lon="5.74255">
        <ele>1072.3</ele>
        <time>2011-10-16T15:09:17Z</time>
      </trkpt>
      <trkpt lat="45.23381" lon="5.74252">
        <ele>1072.6</ele>
        <time>2011-10-16T15:09:21Z</time>
      </trkpt>
      <trkpt lat="45.23377" lon="5.74247">
        <ele>1072.7</ele>
        <time>2011-10-16T15:09:24Z</time>
      </trkpt>
      <trkpt lat="45.23373" lon="5.74241">
        <ele>1072.8</ele>
        <time>2011-10-16T15:09:28Z</time>
      </trkpt>
      <trkpt lat="45.23368" lon="5.74239">
        <ele>1073.5</ele>
        <time>2011-10-16T15:09:32Z</time>
      </trkpt>
      <trkpt lat="45.23363" lon="5.74234">
        <ele>1074.4</ele>
        <time>2011-10-16T15:09:36Z</time>
      </trkpt>
      <trkpt lat="45.23359" lon="5.7423">
        <ele>1074.9</ele>
        <time>2011-10-16T15:09:39Z</time>
      </trkpt>
      <trkpt lat="45.23354" lon="5.74225">
        <ele>1075</ele>
        <time>2011-10-16T15:09:42Z</time>
      </trkpt>
      <trkpt lat="45.2335" lon="5.74222">
        <ele>1074.9</ele>
        <time>2011-10-16T15:09:44Z</time>
      </trkpt>
      <trkpt lat="45.23344" lon="5.74218">
        <ele>1074.6</ele>
        <time>2011-10-16T15:09:47Z</time>
      </trkpt>
      <trkpt lat="45.23339" lon="5.74215">
        <ele>1074.6</ele>
        <time>2011-10-16T15:09:49Z</time>
      </trkpt>
      <trkpt lat="45.23335" lon="5.74212">
        <ele>1074.5</ele>
        <time>2011-10-16T15:09:51Z</time>
      </trkpt>
      <trkpt lat="45.2333" lon="5.74209">
        <ele>1074.5</ele>
        <time>2011-10-16T15:09:53Z</time>
      </trkpt>
      <trkpt lat="45.23324" lon="5.74206">
        <ele>1074.6</ele>
        <time>2011-10-16T15:09:55Z</time>
      </trkpt>
      <trkpt lat="45.23319" lon="5.74203">
        <ele>1074.6</ele>
        <time>2011-10-16T15:09:57Z</time>
      </trkpt>
      <trkpt lat="45.23314" lon="5.742">
        <ele>1074.4</ele>
        <time>2011-10-16T15:09:59Z</time>
      </trkpt>
      <trkpt lat="45.2331" lon="5.74198">
        <ele>1074</ele>
        <time>2011-10-16T15:10:01Z</time>
      </trkpt>
      <trkpt lat="45.23305" lon="5.74195">
        <ele>1074.1</ele>
        <time>2011-10-16T15:10:03Z</time>
      </trkpt>
      <trkpt lat="45.23299" lon="5.74192">
        <ele>1073.8</ele>
        <time>2011-10-16T15:10:06Z</time>
      </trkpt>
      <trkpt lat="45.23294" lon="5.74189">
        <ele>1073.8</ele>
        <time>2011-10-16T15:10:08Z</time>
      </trkpt>
      <trkpt lat="45.23289" lon="5.74186">
        <ele>1074.4</ele>
        <time>2011-10-16T15:10:11Z</time>
      </trkpt>
      <trkpt lat="45.23285" lon="5.74181">
        <ele>1076.1</ele>
        <time>2011-10-16T15:10:13Z</time>
      </trkpt>
      <trkpt lat="45.2328" lon="5.74175">
        <ele>1077.3</ele>
        <time>2011-10-16T15:10:16Z</time>
      </trkpt>
      <trkpt lat="45.23276" lon="5.7417">
        <ele>1077.8</ele>
        <time>2011-10-16T15:10:19Z</time>
      </trkpt>
      <trkpt lat="45.23271" lon="5.74165">
        <ele>1077.4</ele>
        <time>2011-10-16T15:10:22Z</time>
      </trkpt>
      <trkpt lat="45.23267" lon="5.74159">
        <ele>1077.4</ele>
        <time>2011-10-16T15:10:25Z</time>
      </trkpt>
      <trkpt lat="45.23264" lon="5.74155">
        <ele>1076.8</ele>
        <time>2011-10-16T15:10:28Z</time>
      </trkpt>
      <trkpt lat="45.23259" lon="5.74152">
        <ele>1076.1</ele>
        <time>2011-10-16T15:10:31Z</time>
      </trkpt>
      <trkpt lat="45.23254" lon="5.74148">
        <ele>1075.4</ele>
        <time>2011-10-16T15:10:33Z</time>
      </trkpt>
      <trkpt lat="45.23248" lon="5.74144">
        <ele>1074.6</ele>
        <time>2011-10-16T15:10:35Z</time>
      </trkpt>
      <trkpt lat="45.23241" lon="5.7414">
        <ele>1074.5</ele>
        <time>2011-10-16T15:10:37Z</time>
      </trkpt>
      <trkpt lat="45.23236" lon="5.74136">
        <ele>1075</ele>
        <time>2011-10-16T15:10:39Z</time>
      </trkpt>
      <trkpt lat="45.23231" lon="5.7413">
        <ele>1075</ele>
        <time>2011-10-16T15:10:42Z</time>
      </trkpt>
      <trkpt lat="45.23227" lon="5.74125">
        <ele>1076.4</ele>
        <time>2011-10-16T15:10:45Z</time>
      </trkpt>
      <trkpt lat="45.23223" lon="5.74118">
        <ele>1077.3</ele>
        <time>2011-10-16T15:10:48Z</time>
      </trkpt>
      <trkpt lat="45.23222" lon="5.74111">
        <ele>1077.5</ele>
        <time>2011-10-16T15:10:51Z</time>
      </trkpt>
      <trkpt lat="45.23224" lon="5.74104">
        <ele>1077.2</ele>
        <time>2011-10-16T15:10:53Z</time>
      </trkpt>
      <trkpt lat="45.23225" lon="5.74096">
        <ele>1077.3</ele>
        <time>2011-10-16T15:10:55Z</time>
      </trkpt>
      <trkpt lat="45.23225" lon="5.74088">
        <ele>1076.9</ele>
        <time>2011-10-16T15:10:57Z</time>
      </trkpt>
      <trkpt lat="45.23225" lon="5.74081">
        <ele>1077.3</ele>
        <time>2011-10-16T15:10:59Z</time>
      </trkpt>
      <trkpt lat="45.23225" lon="5.74073">
        <ele>1077.3</ele>
        <time>2011-10-16T15:11:01Z</time>
      </trkpt>
      <trkpt lat="45.23226" lon="5.7406">
        <ele>1076.8</ele>
        <time>2011-10-16T15:11:03Z</time>
      </trkpt>
      <trkpt lat="45.23228" lon="5.74054">
        <ele>1076.6</ele>
        <time>2011-10-16T15:11:04Z</time>
      </trkpt>
      <trkpt lat="45.23228" lon="5.74042">
        <ele>1076.3</ele>
        <time>2011-10-16T15:11:06Z</time>
      </trkpt>
      <trkpt lat="45.23225" lon="5.74031">
        <ele>1075.5</ele>
        <time>2011-10-16T15:11:08Z</time>
      </trkpt>
      <trkpt lat="45.23221" lon="5.74027">
        <ele>1074.7</ele>
        <time>2011-10-16T15:11:09Z</time>
      </trkpt>
      <trkpt lat="45.23216" lon="5.74023">
        <ele>1074.4</ele>
        <time>2011-10-16T15:11:10Z</time>
      </trkpt>
      <trkpt lat="45.2321" lon="5.74017">
        <ele>1074.3</ele>
        <time>2011-10-16T15:11:12Z</time>
      </trkpt>
      <trkpt lat="45.23205" lon="5.74011">
        <ele>1074.5</ele>
        <time>2011-10-16T15:11:14Z</time>
      </trkpt>
      <trkpt lat="45.232" lon="5.74008">
        <ele>1074</ele>
        <time>2011-10-16T15:11:16Z</time>
      </trkpt>
      <trkpt lat="45.23195" lon="5.74006">
        <ele>1073.8</ele>
        <time>2011-10-16T15:11:18Z</time>
      </trkpt>
      <trkpt lat="45.23189" lon="5.74004">
        <ele>1074.1</ele>
        <time>2011-10-16T15:11:21Z</time>
      </trkpt>
      <trkpt lat="45.23185" lon="5.74002">
        <ele>1074.4</ele>
        <time>2011-10-16T15:11:24Z</time>
      </trkpt>
      <trkpt lat="45.2318" lon="5.74">
        <ele>1075</ele>
        <time>2011-10-16T15:11:27Z</time>
      </trkpt>
      <trkpt lat="45.23174" lon="5.73998">
        <ele>1075.4</ele>
        <time>2011-10-16T15:11:30Z</time>
      </trkpt>
      <trkpt lat="45.2317" lon="5.73995">
        <ele>1075.3</ele>
        <time>2011-10-16T15:11:32Z</time>
      </trkpt>
      <trkpt lat="45.23165" lon="5.73993">
        <ele>1075.7</ele>
        <time>2011-10-16T15:11:35Z</time>
      </trkpt>
      <trkpt lat="45.2316" lon="5.73992">
        <ele>1076.7</ele>
        <time>2011-10-16T15:11:38Z</time>
      </trkpt>
      <trkpt lat="45.23154" lon="5.73991">
        <ele>1077.4</ele>
        <time>2011-10-16T15:11:41Z</time>
      </trkpt>
      <trkpt lat="45.2315" lon="5.7399">
        <ele>1077.3</ele>
        <time>2011-10-16T15:11:43Z</time>
      </trkpt>
      <trkpt lat="45.23145" lon="5.73989">
        <ele>1076.8</ele>
        <time>2011-10-16T15:11:45Z</time>
      </trkpt>
      <trkpt lat="45.2314" lon="5.73987">
        <ele>1076.7</ele>
        <time>2011-10-16T15:11:47Z</time>
      </trkpt>
      <trkpt lat="45.23134" lon="5.73986">
        <ele>1077.1</ele>
        <time>2011-10-16T15:11:49Z</time>
      </trkpt>
      <trkpt lat="45.23128" lon="5.73986">
        <ele>1077.5</ele>
        <time>2011-10-16T15:11:51Z</time>
      </trkpt>
      <trkpt lat="45.23122" lon="5.73986">
        <ele>1077.8</ele>
        <time>2011-10-16T15:11:53Z</time>
      </trkpt>
      <trkpt lat="45.23115" lon="5.73985">
        <ele>1077.6</ele>
        <time>2011-10-16T15:11:55Z</time>
      </trkpt>
      <trkpt lat="45.23108" lon="5.73986">
        <ele>1077.9</ele>
        <time>2011-10-16T15:11:57Z</time>
      </trkpt>
      <trkpt lat="45.23101" lon="5.73986">
        <ele>1077.1</ele>
        <time>2011-10-16T15:11:59Z</time>
      </trkpt>
      <trkpt lat="45.23094" lon="5.73987">
        <ele>1077.2</ele>
        <time>2011-10-16T15:12:01Z</time>
      </trkpt>
      <trkpt lat="45.23089" lon="5.73986">
        <ele>1077.2</ele>
        <time>2011-10-16T15:12:03Z</time>
      </trkpt>
      <trkpt lat="45.23084" lon="5.7398">
        <ele>1077.1</ele>
        <time>2011-10-16T15:12:06Z</time>
      </trkpt>
      <trkpt lat="45.23076" lon="5.73975">
        <ele>1075.9</ele>
        <time>2011-10-16T15:12:08Z</time>
      </trkpt>
      <trkpt lat="45.23071" lon="5.73972">
        <ele>1075.5</ele>
        <time>2011-10-16T15:12:09Z</time>
      </trkpt>
      <trkpt lat="45.23065" lon="5.7397">
        <ele>1074.8</ele>
        <time>2011-10-16T15:12:10Z</time>
      </trkpt>
      <trkpt lat="45.23058" lon="5.7397">
        <ele>1074</ele>
        <time>2011-10-16T15:12:11Z</time>
      </trkpt>
      <trkpt lat="45.2305" lon="5.73973">
        <ele>1073.4</ele>
        <time>2011-10-16T15:12:12Z</time>
      </trkpt>
      <trkpt lat="45.23043" lon="5.73976">
        <ele>1072.7</ele>
        <time>2011-10-16T15:12:13Z</time>
      </trkpt>
      <trkpt lat="45.23035" lon="5.73979">
        <ele>1072.6</ele>
        <time>2011-10-16T15:12:14Z</time>
      </trkpt>
      <trkpt lat="45.23028" lon="5.73981">
        <ele>1072.2</ele>
        <time>2011-10-16T15:12:15Z</time>
      </trkpt>
      <trkpt lat="45.23021" lon="5.7398">
        <ele>1072</ele>
        <time>2011-10-16T15:12:16Z</time>
      </trkpt>
      <trkpt lat="45.23014" lon="5.73978">
        <ele>1071.9</ele>
        <time>2011-10-16T15:12:17Z</time>
      </trkpt>
      <trkpt lat="45.23007" lon="5.73976">
        <ele>1071.7</ele>
        <time>2011-10-16T15:12:18Z</time>
      </trkpt>
      <trkpt lat="45.23001" lon="5.73975">
        <ele>1071.3</ele>
        <time>2011-10-16T15:12:19Z</time>
      </trkpt>
      <trkpt lat="45.22995" lon="5.73974">
        <ele>1071.1</ele>
        <time>2011-10-16T15:12:20Z</time>
      </trkpt>
      <trkpt lat="45.22989" lon="5.73973">
        <ele>1070.8</ele>
        <time>2011-10-16T15:12:21Z</time>
      </trkpt>
      <trkpt lat="45.22983" lon="5.73972">
        <ele>1070.4</ele>
        <time>2011-10-16T15:12:22Z</time>
      </trkpt>
      <trkpt lat="45.22977" lon="5.7397">
        <ele>1069.9</ele>
        <time>2011-10-16T15:12:23Z</time>
      </trkpt>
      <trkpt lat="45.22972" lon="5.73967">
        <ele>1069.4</ele>
        <time>2011-10-16T15:12:24Z</time>
      </trkpt>
      <trkpt lat="45.22966" lon="5.73963">
        <ele>1069.1</ele>
        <time>2011-10-16T15:12:25Z</time>
      </trkpt>
      <trkpt lat="45.22961" lon="5.73958">
        <ele>1069</ele>
        <time>2011-10-16T15:12:26Z</time>
      </trkpt>
      <trkpt lat="45.22957" lon="5.73953">
        <ele>1068.9</ele>
        <time>2011-10-16T15:12:27Z</time>
      </trkpt>
      <trkpt lat="45.22953" lon="5.73947">
        <ele>1068.8</ele>
        <time>2011-10-16T15:12:28Z</time>
      </trkpt>
      <trkpt lat="45.2295" lon="5.73941">
        <ele>1068.7</ele>
        <time>2011-10-16T15:12:29Z</time>
      </trkpt>
      <trkpt lat="45.22948" lon="5.73935">
        <ele>1068.5</ele>
        <time>2011-10-16T15:12:30Z</time>
      </trkpt>
      <trkpt lat="45.22946" lon="5.73929">
        <ele>1068.3</ele>
        <time>2011-10-16T15:12:31Z</time>
      </trkpt>
      <trkpt lat="45.22944" lon="5.73923">
        <ele>1068</ele>
        <time>2011-10-16T15:12:32Z</time>
      </trkpt>
      <trkpt lat="45.22943" lon="5.73911">
        <ele>1067.5</ele>
        <time>2011-10-16T15:12:34Z</time>
      </trkpt>
      <trkpt lat="45.22943" lon="5.73902">
        <ele>1067.4</ele>
        <time>2011-10-16T15:12:36Z</time>
      </trkpt>
      <trkpt lat="45.22944" lon="5.73894">
        <ele>1067.6</ele>
        <time>2011-10-16T15:12:39Z</time>
      </trkpt>
      <trkpt lat="45.22944" lon="5.73887">
        <ele>1068.9</ele>
        <time>2011-10-16T15:12:43Z</time>
      </trkpt>
      <trkpt lat="45.22944" lon="5.7388">
        <ele>1070.5</ele>
        <time>2011-10-16T15:12:48Z</time>
      </trkpt>
      <trkpt lat="45.22946" lon="5.73873">
        <ele>1071.9</ele>
        <time>2011-10-16T15:12:53Z</time>
      </trkpt>
      <trkpt lat="45.22942" lon="5.73868">
        <ele>1072.3</ele>
        <time>2011-10-16T15:13:00Z</time>
      </trkpt>
      <trkpt lat="45.22938" lon="5.73867">
        <ele>1072.8</ele>
        <time>2011-10-16T15:13:04Z</time>
      </trkpt>
      <trkpt lat="45.22933" lon="5.73868">
        <ele>1073.3</ele>
        <time>2011-10-16T15:13:08Z</time>
      </trkpt>
      <trkpt lat="45.22928" lon="5.73868">
        <ele>1073.9</ele>
        <time>2011-10-16T15:13:13Z</time>
      </trkpt>
      <trkpt lat="45.22906" lon="5.7387">
        <ele>1078.5</ele>
        <time>2011-10-16T15:13:28Z</time>
      </trkpt>
      <trkpt lat="45.229" lon="5.73872">
        <ele>1079.3</ele>
        <time>2011-10-16T15:13:32Z</time>
      </trkpt>
      <trkpt lat="45.22895" lon="5.73873">
        <ele>1079.5</ele>
        <time>2011-10-16T15:13:35Z</time>
      </trkpt>
      <trkpt lat="45.22888" lon="5.73874">
        <ele>1082.3</ele>
        <time>2011-10-16T15:13:40Z</time>
      </trkpt>
      <trkpt lat="45.22884" lon="5.73876">
        <ele>1084</ele>
        <time>2011-10-16T15:13:42Z</time>
      </trkpt>
      <trkpt lat="45.2288" lon="5.7388">
        <ele>1083.4</ele>
        <time>2011-10-16T15:13:44Z</time>
      </trkpt>
      <trkpt lat="45.22875" lon="5.73883">
        <ele>1085.1</ele>
        <time>2011-10-16T15:13:47Z</time>
      </trkpt>
      <trkpt lat="45.2287" lon="5.73884">
        <ele>1085.1</ele>
        <time>2011-10-16T15:13:50Z</time>
      </trkpt>
      <trkpt lat="45.22866" lon="5.73887">
        <ele>1082.9</ele>
        <time>2011-10-16T15:14:20Z</time>
      </trkpt>
      <trkpt lat="45.2286" lon="5.73887">
        <ele>1083.4</ele>
        <time>2011-10-16T15:14:24Z</time>
      </trkpt>
      <trkpt lat="45.22855" lon="5.73884">
        <ele>1084.1</ele>
        <time>2011-10-16T15:14:29Z</time>
      </trkpt>
      <trkpt lat="45.22849" lon="5.73883">
        <ele>1083.8</ele>
        <time>2011-10-16T15:14:33Z</time>
      </trkpt>
      <trkpt lat="45.22844" lon="5.73883">
        <ele>1083.4</ele>
        <time>2011-10-16T15:14:36Z</time>
      </trkpt>
      <trkpt lat="45.22838" lon="5.7388">
        <ele>1082.2</ele>
        <time>2011-10-16T15:14:39Z</time>
      </trkpt>
      <trkpt lat="45.22833" lon="5.73878">
        <ele>1081.7</ele>
        <time>2011-10-16T15:14:42Z</time>
      </trkpt>
      <trkpt lat="45.22828" lon="5.73876">
        <ele>1081.4</ele>
        <time>2011-10-16T15:14:45Z</time>
      </trkpt>
      <trkpt lat="45.22824" lon="5.73875">
        <ele>1081.6</ele>
        <time>2011-10-16T15:14:49Z</time>
      </trkpt>
      <trkpt lat="45.22818" lon="5.73873">
        <ele>1081.6</ele>
        <time>2011-10-16T15:15:16Z</time>
      </trkpt>
      <trkpt lat="45.22813" lon="5.7387">
        <ele>1081.9</ele>
        <time>2011-10-16T15:15:20Z</time>
      </trkpt>
      <trkpt lat="45.22808" lon="5.73867">
        <ele>1081.3</ele>
        <time>2011-10-16T15:15:24Z</time>
      </trkpt>
      <trkpt lat="45.22803" lon="5.73864">
        <ele>1081.9</ele>
        <time>2011-10-16T15:15:28Z</time>
      </trkpt>
      <trkpt lat="45.22798" lon="5.73862">
        <ele>1082.3</ele>
        <time>2011-10-16T15:15:32Z</time>
      </trkpt>
      <trkpt lat="45.22792" lon="5.73859">
        <ele>1086.7</ele>
        <time>2011-10-16T15:19:28Z</time>
      </trkpt>
      <trkpt lat="45.22788" lon="5.73857">
        <ele>1087.4</ele>
        <time>2011-10-16T15:19:35Z</time>
      </trkpt>
      <trkpt lat="45.22783" lon="5.73855">
        <ele>1087.3</ele>
        <time>2011-10-16T15:19:39Z</time>
      </trkpt>
      <trkpt lat="45.22778" lon="5.73854">
        <ele>1087.7</ele>
        <time>2011-10-16T15:19:43Z</time>
      </trkpt>
      <trkpt lat="45.22774" lon="5.7385">
        <ele>1087.9</ele>
        <time>2011-10-16T15:19:46Z</time>
      </trkpt>
      <trkpt lat="45.2277" lon="5.73846">
        <ele>1087.7</ele>
        <time>2011-10-16T15:19:49Z</time>
      </trkpt>
      <trkpt lat="45.22764" lon="5.73843">
        <ele>1087.4</ele>
        <time>2011-10-16T15:19:52Z</time>
      </trkpt>
      <trkpt lat="45.2276" lon="5.7384">
        <ele>1087.4</ele>
        <time>2011-10-16T15:19:55Z</time>
      </trkpt>
      <trkpt lat="45.22755" lon="5.73835">
        <ele>1087.7</ele>
        <time>2011-10-16T15:19:58Z</time>
      </trkpt>
      <trkpt lat="45.22751" lon="5.73832">
        <ele>1087.9</ele>
        <time>2011-10-16T15:20:00Z</time>
      </trkpt>
      <trkpt lat="45.22745" lon="5.73829">
        <ele>1087.9</ele>
        <time>2011-10-16T15:20:03Z</time>
      </trkpt>
      <trkpt lat="45.22738" lon="5.73827">
        <ele>1087.5</ele>
        <time>2011-10-16T15:20:06Z</time>
      </trkpt>
      <trkpt lat="45.22734" lon="5.73826">
        <ele>1087.7</ele>
        <time>2011-10-16T15:20:08Z</time>
      </trkpt>
      <trkpt lat="45.22729" lon="5.73824">
        <ele>1087.9</ele>
        <time>2011-10-16T15:20:10Z</time>
      </trkpt>
      <trkpt lat="45.22724" lon="5.73822">
        <ele>1088.1</ele>
        <time>2011-10-16T15:20:12Z</time>
      </trkpt>
      <trkpt lat="45.22719" lon="5.7382">
        <ele>1087.7</ele>
        <time>2011-10-16T15:20:14Z</time>
      </trkpt>
      <trkpt lat="45.22714" lon="5.73818">
        <ele>1088</ele>
        <time>2011-10-16T15:20:16Z</time>
      </trkpt>
      <trkpt lat="45.22707" lon="5.73817">
        <ele>1088</ele>
        <time>2011-10-16T15:20:19Z</time>
      </trkpt>
      <trkpt lat="45.22701" lon="5.73815">
        <ele>1087.7</ele>
        <time>2011-10-16T15:20:21Z</time>
      </trkpt>
      <trkpt lat="45.22693" lon="5.73811">
        <ele>1087.1</ele>
        <time>2011-10-16T15:20:23Z</time>
      </trkpt>
      <trkpt lat="45.22686" lon="5.73805">
        <ele>1086.8</ele>
        <time>2011-10-16T15:20:25Z</time>
      </trkpt>
      <trkpt lat="45.2268" lon="5.738">
        <ele>1086.5</ele>
        <time>2011-10-16T15:20:27Z</time>
      </trkpt>
      <trkpt lat="45.22674" lon="5.73794">
        <ele>1085.9</ele>
        <time>2011-10-16T15:20:29Z</time>
      </trkpt>
      <trkpt lat="45.22668" lon="5.73788">
        <ele>1085.4</ele>
        <time>2011-10-16T15:20:31Z</time>
      </trkpt>
      <trkpt lat="45.2266" lon="5.73784">
        <ele>1085.1</ele>
        <time>2011-10-16T15:20:33Z</time>
      </trkpt>
      <trkpt lat="45.22656" lon="5.73781">
        <ele>1084.9</ele>
        <time>2011-10-16T15:20:34Z</time>
      </trkpt>
      <trkpt lat="45.22649" lon="5.73775">
        <ele>1084.9</ele>
        <time>2011-10-16T15:20:36Z</time>
      </trkpt>
      <trkpt lat="45.22642" lon="5.73769">
        <ele>1084.7</ele>
        <time>2011-10-16T15:20:38Z</time>
      </trkpt>
      <trkpt lat="45.22638" lon="5.73764">
        <ele>1084.2</ele>
        <time>2011-10-16T15:20:40Z</time>
      </trkpt>
      <trkpt lat="45.22633" lon="5.73759">
        <ele>1084.2</ele>
        <time>2011-10-16T15:20:43Z</time>
      </trkpt>
      <trkpt lat="45.22628" lon="5.73754">
        <ele>1084.2</ele>
        <time>2011-10-16T15:20:47Z</time>
      </trkpt>
      <trkpt lat="45.22622" lon="5.7375">
        <ele>1083.2</ele>
        <time>2011-10-16T15:20:50Z</time>
      </trkpt>
      <trkpt lat="45.22616" lon="5.73746">
        <ele>1082.3</ele>
        <time>2011-10-16T15:20:52Z</time>
      </trkpt>
      <trkpt lat="45.22609" lon="5.73741">
        <ele>1080.8</ele>
        <time>2011-10-16T15:20:54Z</time>
      </trkpt>
      <trkpt lat="45.22602" lon="5.73734">
        <ele>1079.5</ele>
        <time>2011-10-16T15:20:56Z</time>
      </trkpt>
      <trkpt lat="45.22597" lon="5.7373">
        <ele>1078.8</ele>
        <time>2011-10-16T15:20:57Z</time>
      </trkpt>
      <trkpt lat="45.22593" lon="5.73727">
        <ele>1078.6</ele>
        <time>2011-10-16T15:20:58Z</time>
      </trkpt>
      <trkpt lat="45.22588" lon="5.73724">
        <ele>1078</ele>
        <time>2011-10-16T15:20:59Z</time>
      </trkpt>
      <trkpt lat="45.22582" lon="5.73722">
        <ele>1077.5</ele>
        <time>2011-10-16T15:21:00Z</time>
      </trkpt>
      <trkpt lat="45.22577" lon="5.73719">
        <ele>1076.7</ele>
        <time>2011-10-16T15:21:01Z</time>
      </trkpt>
      <trkpt lat="45.22572" lon="5.73716">
        <ele>1076.3</ele>
        <time>2011-10-16T15:21:02Z</time>
      </trkpt>
      <trkpt lat="45.22568" lon="5.73713">
        <ele>1076</ele>
        <time>2011-10-16T15:21:03Z</time>
      </trkpt>
      <trkpt lat="45.22564" lon="5.73709">
        <ele>1075.4</ele>
        <time>2011-10-16T15:21:04Z</time>
      </trkpt>
      <trkpt lat="45.2256" lon="5.73706">
        <ele>1075.1</ele>
        <time>2011-10-16T15:21:05Z</time>
      </trkpt>
      <trkpt lat="45.22556" lon="5.73704">
        <ele>1074.7</ele>
        <time>2011-10-16T15:21:06Z</time>
      </trkpt>
      <trkpt lat="45.22551" lon="5.73701">
        <ele>1074.2</ele>
        <time>2011-10-16T15:21:07Z</time>
      </trkpt>
      <trkpt lat="45.22546" lon="5.737">
        <ele>1073.7</ele>
        <time>2011-10-16T15:21:08Z</time>
      </trkpt>
      <trkpt lat="45.2254" lon="5.73698">
        <ele>1073.1</ele>
        <time>2011-10-16T15:21:09Z</time>
      </trkpt>
      <trkpt lat="45.22534" lon="5.73696">
        <ele>1072.7</ele>
        <time>2011-10-16T15:21:10Z</time>
      </trkpt>
      <trkpt lat="45.22529" lon="5.73693">
        <ele>1072</ele>
        <time>2011-10-16T15:21:11Z</time>
      </trkpt>
      <trkpt lat="45.22524" lon="5.73691">
        <ele>1071.4</ele>
        <time>2011-10-16T15:21:12Z</time>
      </trkpt>
      <trkpt lat="45.22519" lon="5.73688">
        <ele>1071.1</ele>
        <time>2011-10-16T15:21:13Z</time>
      </trkpt>
      <trkpt lat="45.22511" lon="5.73685">
        <ele>1070.5</ele>
        <time>2011-10-16T15:21:15Z</time>
      </trkpt>
      <trkpt lat="45.22506" lon="5.73683">
        <ele>1069.8</ele>
        <time>2011-10-16T15:21:16Z</time>
      </trkpt>
      <trkpt lat="45.22498" lon="5.73683">
        <ele>1069.4</ele>
        <time>2011-10-16T15:21:18Z</time>
      </trkpt>
      <trkpt lat="45.22493" lon="5.73685">
        <ele>1068.9</ele>
        <time>2011-10-16T15:21:19Z</time>
      </trkpt>
      <trkpt lat="45.22486" lon="5.73688">
        <ele>1068.1</ele>
        <time>2011-10-16T15:21:21Z</time>
      </trkpt>
      <trkpt lat="45.22479" lon="5.7369">
        <ele>1067.5</ele>
        <time>2011-10-16T15:21:23Z</time>
      </trkpt>
      <trkpt lat="45.22474" lon="5.73692">
        <ele>1066.8</ele>
        <time>2011-10-16T15:21:25Z</time>
      </trkpt>
      <trkpt lat="45.22467" lon="5.73694">
        <ele>1064.4</ele>
        <time>2011-10-16T15:21:28Z</time>
      </trkpt>
      <trkpt lat="45.22458" lon="5.73696">
        <ele>1063.5</ele>
        <time>2011-10-16T15:21:30Z</time>
      </trkpt>
      <trkpt lat="45.22449" lon="5.73697">
        <ele>1063.2</ele>
        <time>2011-10-16T15:21:32Z</time>
      </trkpt>
      <trkpt lat="45.2244" lon="5.73696">
        <ele>1062.3</ele>
        <time>2011-10-16T15:21:34Z</time>
      </trkpt>
      <trkpt lat="45.22436" lon="5.73695">
        <ele>1062.1</ele>
        <time>2011-10-16T15:21:35Z</time>
      </trkpt>
      <trkpt lat="45.22428" lon="5.73695">
        <ele>1061.1</ele>
        <time>2011-10-16T15:21:37Z</time>
      </trkpt>
      <trkpt lat="45.22422" lon="5.73695">
        <ele>1060.1</ele>
        <time>2011-10-16T15:21:39Z</time>
      </trkpt>
      <trkpt lat="45.22417" lon="5.73696">
        <ele>1058.6</ele>
        <time>2011-10-16T15:21:41Z</time>
      </trkpt>
      <trkpt lat="45.2241" lon="5.73695">
        <ele>1055.8</ele>
        <time>2011-10-16T15:21:44Z</time>
      </trkpt>
      <trkpt lat="45.22404" lon="5.73695">
        <ele>1054.5</ele>
        <time>2011-10-16T15:21:46Z</time>
      </trkpt>
      <trkpt lat="45.22397" lon="5.73695">
        <ele>1053.6</ele>
        <time>2011-10-16T15:21:48Z</time>
      </trkpt>
      <trkpt lat="45.2239" lon="5.73693">
        <ele>1052.9</ele>
        <time>2011-10-16T15:21:50Z</time>
      </trkpt>
      <trkpt lat="45.22383" lon="5.7369">
        <ele>1052.3</ele>
        <time>2011-10-16T15:21:52Z</time>
      </trkpt>
      <trkpt lat="45.22376" lon="5.73687">
        <ele>1052</ele>
        <time>2011-10-16T15:21:54Z</time>
      </trkpt>
      <trkpt lat="45.22371" lon="5.73688">
        <ele>1049.4</ele>
        <time>2011-10-16T15:24:14Z</time>
      </trkpt>
      <trkpt lat="45.22368" lon="5.73683">
        <ele>1048.1</ele>
        <time>2011-10-16T15:24:21Z</time>
      </trkpt>
      <trkpt lat="45.22363" lon="5.7368">
        <ele>1046.9</ele>
        <time>2011-10-16T15:24:25Z</time>
      </trkpt>
      <trkpt lat="45.22358" lon="5.73677">
        <ele>1045.5</ele>
        <time>2011-10-16T15:24:29Z</time>
      </trkpt>
      <trkpt lat="45.22351" lon="5.73677">
        <ele>1045.2</ele>
        <time>2011-10-16T15:24:32Z</time>
      </trkpt>
      <trkpt lat="45.22345" lon="5.73677">
        <ele>1045.2</ele>
        <time>2011-10-16T15:24:36Z</time>
      </trkpt>
      <trkpt lat="45.2234" lon="5.73676">
        <ele>1045.6</ele>
        <time>2011-10-16T15:24:40Z</time>
      </trkpt>
      <trkpt lat="45.22334" lon="5.73673">
        <ele>1046.8</ele>
        <time>2011-10-16T15:24:44Z</time>
      </trkpt>
      <trkpt lat="45.22329" lon="5.73671">
        <ele>1047</ele>
        <time>2011-10-16T15:24:48Z</time>
      </trkpt>
      <trkpt lat="45.22324" lon="5.73669">
        <ele>1046.3</ele>
        <time>2011-10-16T15:24:53Z</time>
      </trkpt>
      <trkpt lat="45.2232" lon="5.73666">
        <ele>1046.4</ele>
        <time>2011-10-16T15:24:59Z</time>
      </trkpt>
      <trkpt lat="45.22315" lon="5.73666">
        <ele>1047</ele>
        <time>2011-10-16T15:25:03Z</time>
      </trkpt>
      <trkpt lat="45.2231" lon="5.73664">
        <ele>1048.1</ele>
        <time>2011-10-16T15:25:09Z</time>
      </trkpt>
      <trkpt lat="45.22304" lon="5.73662">
        <ele>1049</ele>
        <time>2011-10-16T15:25:21Z</time>
      </trkpt>
      <trkpt lat="45.22299" lon="5.73661">
        <ele>1049.7</ele>
        <time>2011-10-16T15:25:25Z</time>
      </trkpt>
      <trkpt lat="45.22294" lon="5.73662">
        <ele>1049.6</ele>
        <time>2011-10-16T15:25:38Z</time>
      </trkpt>
      <trkpt lat="45.22289" lon="5.73662">
        <ele>1050.5</ele>
        <time>2011-10-16T15:25:42Z</time>
      </trkpt>
      <trkpt lat="45.22284" lon="5.73661">
        <ele>1051.8</ele>
        <time>2011-10-16T15:25:47Z</time>
      </trkpt>
      <trkpt lat="45.22278" lon="5.73662">
        <ele>1052.8</ele>
        <time>2011-10-16T15:25:51Z</time>
      </trkpt>
      <trkpt lat="45.22272" lon="5.73662">
        <ele>1052.4</ele>
        <time>2011-10-16T15:25:55Z</time>
      </trkpt>
      <trkpt lat="45.22267" lon="5.73662">
        <ele>1052.6</ele>
        <time>2011-10-16T15:25:59Z</time>
      </trkpt>
      <trkpt lat="45.22262" lon="5.73658">
        <ele>1054.5</ele>
        <time>2011-10-16T15:26:07Z</time>
      </trkpt>
      <trkpt lat="45.22257" lon="5.73657">
        <ele>1056.2</ele>
        <time>2011-10-16T15:26:12Z</time>
      </trkpt>
      <trkpt lat="45.22252" lon="5.73654">
        <ele>1058.2</ele>
        <time>2011-10-16T15:26:18Z</time>
      </trkpt>
      <trkpt lat="45.22248" lon="5.7365">
        <ele>1060.1</ele>
        <time>2011-10-16T15:26:34Z</time>
      </trkpt>
      <trkpt lat="45.22244" lon="5.73647">
        <ele>1060.2</ele>
        <time>2011-10-16T15:26:38Z</time>
      </trkpt>
      <trkpt lat="45.2224" lon="5.73642">
        <ele>1060.8</ele>
        <time>2011-10-16T15:26:44Z</time>
      </trkpt>
      <trkpt lat="45.22236" lon="5.73638">
        <ele>1060.9</ele>
        <time>2011-10-16T15:26:49Z</time>
      </trkpt>
      <trkpt lat="45.2223" lon="5.73636">
        <ele>1060.9</ele>
        <time>2011-10-16T15:26:54Z</time>
      </trkpt>
      <trkpt lat="45.22224" lon="5.73633">
        <ele>1060</ele>
        <time>2011-10-16T15:26:57Z</time>
      </trkpt>
      <trkpt lat="45.22221" lon="5.73627">
        <ele>1060.3</ele>
        <time>2011-10-16T15:27:01Z</time>
      </trkpt>
      <trkpt lat="45.22218" lon="5.73622">
        <ele>1061.2</ele>
        <time>2011-10-16T15:27:06Z</time>
      </trkpt>
      <trkpt lat="45.22214" lon="5.73617">
        <ele>1061.8</ele>
        <time>2011-10-16T15:27:11Z</time>
      </trkpt>
      <trkpt lat="45.2221" lon="5.73613">
        <ele>1061.5</ele>
        <time>2011-10-16T15:27:15Z</time>
      </trkpt>
      <trkpt lat="45.22206" lon="5.73608">
        <ele>1061.6</ele>
        <time>2011-10-16T15:27:19Z</time>
      </trkpt>
      <trkpt lat="45.22202" lon="5.73604">
        <ele>1061.8</ele>
        <time>2011-10-16T15:27:23Z</time>
      </trkpt>
      <trkpt lat="45.22198" lon="5.73599">
        <ele>1063</ele>
        <time>2011-10-16T15:27:29Z</time>
      </trkpt>
      <trkpt lat="45.22195" lon="5.73594">
        <ele>1064.4</ele>
        <time>2011-10-16T15:27:32Z</time>
      </trkpt>
      <trkpt lat="45.22191" lon="5.73589">
        <ele>1065.7</ele>
        <time>2011-10-16T15:27:36Z</time>
      </trkpt>
      <trkpt lat="45.22188" lon="5.73584">
        <ele>1066.1</ele>
        <time>2011-10-16T15:27:40Z</time>
      </trkpt>
      <trkpt lat="45.22184" lon="5.73581">
        <ele>1067.4</ele>
        <time>2011-10-16T15:27:44Z</time>
      </trkpt>
      <trkpt lat="45.2218" lon="5.73576">
        <ele>1068.6</ele>
        <time>2011-10-16T15:27:51Z</time>
      </trkpt>
      <trkpt lat="45.22177" lon="5.73571">
        <ele>1070.3</ele>
        <time>2011-10-16T15:27:56Z</time>
      </trkpt>
      <trkpt lat="45.22172" lon="5.73566">
        <ele>1071.1</ele>
        <time>2011-10-16T15:28:01Z</time>
      </trkpt>
      <trkpt lat="45.22167" lon="5.73564">
        <ele>1070.2</ele>
        <time>2011-10-16T15:28:06Z</time>
      </trkpt>
      <trkpt lat="45.22162" lon="5.73561">
        <ele>1069.6</ele>
        <time>2011-10-16T15:28:12Z</time>
      </trkpt>
      <trkpt lat="45.22158" lon="5.73557">
        <ele>1070</ele>
        <time>2011-10-16T15:28:18Z</time>
      </trkpt>
      <trkpt lat="45.22153" lon="5.73556">
        <ele>1071.4</ele>
        <time>2011-10-16T15:28:23Z</time>
      </trkpt>
      <trkpt lat="45.22148" lon="5.73555">
        <ele>1072.5</ele>
        <time>2011-10-16T15:28:29Z</time>
      </trkpt>
      <trkpt lat="45.22143" lon="5.73554">
        <ele>1072.8</ele>
        <time>2011-10-16T15:28:34Z</time>
      </trkpt>
      <trkpt lat="45.22137" lon="5.73553">
        <ele>1074.3</ele>
        <time>2011-10-16T15:29:04Z</time>
      </trkpt>
      <trkpt lat="45.22132" lon="5.73552">
        <ele>1074.4</ele>
        <time>2011-10-16T15:29:08Z</time>
      </trkpt>
      <trkpt lat="45.22128" lon="5.73548">
        <ele>1074.8</ele>
        <time>2011-10-16T15:29:18Z</time>
      </trkpt>
      <trkpt lat="45.22123" lon="5.73545">
        <ele>1076.1</ele>
        <time>2011-10-16T15:29:24Z</time>
      </trkpt>
      <trkpt lat="45.22123" lon="5.73538">
        <ele>1076.7</ele>
        <time>2011-10-16T15:29:31Z</time>
      </trkpt>
      <trkpt lat="45.22122" lon="5.7353">
        <ele>1076.6</ele>
        <time>2011-10-16T15:29:35Z</time>
      </trkpt>
      <trkpt lat="45.22119" lon="5.73526">
        <ele>1078.2</ele>
        <time>2011-10-16T15:29:41Z</time>
      </trkpt>
      <trkpt lat="45.22115" lon="5.73522">
        <ele>1080.6</ele>
        <time>2011-10-16T15:30:23Z</time>
      </trkpt>
      <trkpt lat="45.2211" lon="5.73522">
        <ele>1083.8</ele>
        <time>2011-10-16T15:30:36Z</time>
      </trkpt>
      <trkpt lat="45.22105" lon="5.73519">
        <ele>1085.3</ele>
        <time>2011-10-16T15:30:42Z</time>
      </trkpt>
      <trkpt lat="45.22101" lon="5.73515">
        <ele>1086.6</ele>
        <time>2011-10-16T15:31:14Z</time>
      </trkpt>
      <trkpt lat="45.22096" lon="5.73513">
        <ele>1087.5</ele>
        <time>2011-10-16T15:31:18Z</time>
      </trkpt>
      <trkpt lat="45.22092" lon="5.73508">
        <ele>1088.5</ele>
        <time>2011-10-16T15:31:22Z</time>
      </trkpt>
      <trkpt lat="45.22087" lon="5.73505">
        <ele>1089</ele>
        <time>2011-10-16T15:31:26Z</time>
      </trkpt>
      <trkpt lat="45.22083" lon="5.73503">
        <ele>1089.9</ele>
        <time>2011-10-16T15:31:34Z</time>
      </trkpt>
      <trkpt lat="45.22078" lon="5.735">
        <ele>1090.4</ele>
        <time>2011-10-16T15:31:39Z</time>
      </trkpt>
      <trkpt lat="45.22074" lon="5.73497">
        <ele>1091.3</ele>
        <time>2011-10-16T15:31:43Z</time>
      </trkpt>
      <trkpt lat="45.2207" lon="5.73493">
        <ele>1091.3</ele>
        <time>2011-10-16T15:31:46Z</time>
      </trkpt>
      <trkpt lat="45.22066" lon="5.73488">
        <ele>1091.2</ele>
        <time>2011-10-16T15:31:49Z</time>
      </trkpt>
      <trkpt lat="45.22061" lon="5.73485">
        <ele>1091.4</ele>
        <time>2011-10-16T15:31:53Z</time>
      </trkpt>
      <trkpt lat="45.22056" lon="5.73481">
        <ele>1092.7</ele>
        <time>2011-10-16T15:31:57Z</time>
      </trkpt>
      <trkpt lat="45.22052" lon="5.73477">
        <ele>1093.7</ele>
        <time>2011-10-16T15:32:01Z</time>
      </trkpt>
      <trkpt lat="45.22047" lon="5.73473">
        <ele>1094.4</ele>
        <time>2011-10-16T15:32:06Z</time>
      </trkpt>
      <trkpt lat="45.22042" lon="5.7347">
        <ele>1095.9</ele>
        <time>2011-10-16T15:32:20Z</time>
      </trkpt>
      <trkpt lat="45.22036" lon="5.73468">
        <ele>1096.8</ele>
        <time>2011-10-16T15:32:26Z</time>
      </trkpt>
      <trkpt lat="45.22033" lon="5.73463">
        <ele>1098.4</ele>
        <time>2011-10-16T15:32:33Z</time>
      </trkpt>
      <trkpt lat="45.22029" lon="5.73456">
        <ele>1099.4</ele>
        <time>2011-10-16T15:32:37Z</time>
      </trkpt>
      <trkpt lat="45.22025" lon="5.73452">
        <ele>1100.1</ele>
        <time>2011-10-16T15:32:41Z</time>
      </trkpt>
      <trkpt lat="45.2202" lon="5.73448">
        <ele>1101.3</ele>
        <time>2011-10-16T15:32:46Z</time>
      </trkpt>
      <trkpt lat="45.22016" lon="5.73446">
        <ele>1101.8</ele>
        <time>2011-10-16T15:32:51Z</time>
      </trkpt>
      <trkpt lat="45.22011" lon="5.73444">
        <ele>1102.3</ele>
        <time>2011-10-16T15:32:55Z</time>
      </trkpt>
      <trkpt lat="45.22006" lon="5.73443">
        <ele>1103.2</ele>
        <time>2011-10-16T15:33:00Z</time>
      </trkpt>
      <trkpt lat="45.22" lon="5.73443">
        <ele>1103.4</ele>
        <time>2011-10-16T15:33:54Z</time>
      </trkpt>
      <trkpt lat="45.21994" lon="5.73444">
        <ele>1103.4</ele>
        <time>2011-10-16T15:33:58Z</time>
      </trkpt>
      <trkpt lat="45.21989" lon="5.73442">
        <ele>1103.3</ele>
        <time>2011-10-16T15:34:00Z</time>
      </trkpt>
      <trkpt lat="45.21983" lon="5.73439">
        <ele>1102.6</ele>
        <time>2011-10-16T15:34:02Z</time>
      </trkpt>
      <trkpt lat="45.21978" lon="5.73436">
        <ele>1101.9</ele>
        <time>2011-10-16T15:34:03Z</time>
      </trkpt>
      <trkpt lat="45.2197" lon="5.73431">
        <ele>1101.2</ele>
        <time>2011-10-16T15:34:05Z</time>
      </trkpt>
      <trkpt lat="45.21962" lon="5.73428">
        <ele>1101.1</ele>
        <time>2011-10-16T15:34:07Z</time>
      </trkpt>
      <trkpt lat="45.21957" lon="5.73429">
        <ele>1101.1</ele>
        <time>2011-10-16T15:34:08Z</time>
      </trkpt>
      <trkpt lat="45.21949" lon="5.7343">
        <ele>1101</ele>
        <time>2011-10-16T15:34:10Z</time>
      </trkpt>
      <trkpt lat="45.21941" lon="5.73429">
        <ele>1100.7</ele>
        <time>2011-10-16T15:34:12Z</time>
      </trkpt>
      <trkpt lat="45.21932" lon="5.73415">
        <ele>1094.2</ele>
        <time>2011-10-16T15:34:36Z</time>
      </trkpt>
      <trkpt lat="45.2193" lon="5.73407">
        <ele>1092.8</ele>
        <time>2011-10-16T15:34:38Z</time>
      </trkpt>
      <trkpt lat="45.21926" lon="5.73401">
        <ele>1092.3</ele>
        <time>2011-10-16T15:34:40Z</time>
      </trkpt>
      <trkpt lat="45.2192" lon="5.73395">
        <ele>1094.5</ele>
        <time>2011-10-16T15:34:53Z</time>
      </trkpt>
      <trkpt lat="45.21916" lon="5.73393">
        <ele>1094.8</ele>
        <time>2011-10-16T15:34:57Z</time>
      </trkpt>
      <trkpt lat="45.21912" lon="5.7339">
        <ele>1095.3</ele>
        <time>2011-10-16T15:35:01Z</time>
      </trkpt>
      <trkpt lat="45.21906" lon="5.73386">
        <ele>1095.6</ele>
        <time>2011-10-16T15:35:09Z</time>
      </trkpt>
      <trkpt lat="45.21901" lon="5.73385">
        <ele>1096.2</ele>
        <time>2011-10-16T15:35:14Z</time>
      </trkpt>
      <trkpt lat="45.21896" lon="5.73385">
        <ele>1096</ele>
        <time>2011-10-16T15:35:18Z</time>
      </trkpt>
      <trkpt lat="45.21892" lon="5.73379">
        <ele>1095.5</ele>
        <time>2011-10-16T15:35:23Z</time>
      </trkpt>
      <trkpt lat="45.21888" lon="5.73374">
        <ele>1095.2</ele>
        <time>2011-10-16T15:35:29Z</time>
      </trkpt>
      <trkpt lat="45.21883" lon="5.7337">
        <ele>1094.9</ele>
        <time>2011-10-16T15:35:33Z</time>
      </trkpt>
      <trkpt lat="45.21878" lon="5.73367">
        <ele>1095.3</ele>
        <time>2011-10-16T15:35:40Z</time>
      </trkpt>
      <trkpt lat="45.21873" lon="5.73365">
        <ele>1095.5</ele>
        <time>2011-10-16T15:35:44Z</time>
      </trkpt>
      <trkpt lat="45.21869" lon="5.7336">
        <ele>1096.2</ele>
        <time>2011-10-16T15:35:49Z</time>
      </trkpt>
      <trkpt lat="45.21864" lon="5.73356">
        <ele>1097.4</ele>
        <time>2011-10-16T15:35:56Z</time>
      </trkpt>
      <trkpt lat="45.2186" lon="5.73355">
        <ele>1098.1</ele>
        <time>2011-10-16T15:36:00Z</time>
      </trkpt>
      <trkpt lat="45.21855" lon="5.73353">
        <ele>1099.2</ele>
        <time>2011-10-16T15:36:10Z</time>
      </trkpt>
      <trkpt lat="45.21849" lon="5.73348">
        <ele>1101.1</ele>
        <time>2011-10-16T15:36:21Z</time>
      </trkpt>
      <trkpt lat="45.21843" lon="5.73352">
        <ele>1100.8</ele>
        <time>2011-10-16T15:37:02Z</time>
      </trkpt>
      <trkpt lat="45.21846" lon="5.73347">
        <ele>1099.5</ele>
        <time>2011-10-16T15:43:05Z</time>
      </trkpt>
      <trkpt lat="45.21843" lon="5.73341">
        <ele>1099.9</ele>
        <time>2011-10-16T15:43:43Z</time>
      </trkpt>
      <trkpt lat="45.21839" lon="5.73336">
        <ele>1099.9</ele>
        <time>2011-10-16T15:43:46Z</time>
      </trkpt>
      <trkpt lat="45.21834" lon="5.7333">
        <ele>1099.7</ele>
        <time>2011-10-16T15:43:51Z</time>
      </trkpt>
      <trkpt lat="45.2183" lon="5.73326">
        <ele>1099.6</ele>
        <time>2011-10-16T15:43:53Z</time>
      </trkpt>
      <trkpt lat="45.21826" lon="5.73322">
        <ele>1099.2</ele>
        <time>2011-10-16T15:43:55Z</time>
      </trkpt>
      <trkpt lat="45.21822" lon="5.73318">
        <ele>1098.5</ele>
        <time>2011-10-16T15:43:57Z</time>
      </trkpt>
      <trkpt lat="45.21817" lon="5.73313">
        <ele>1097.7</ele>
        <time>2011-10-16T15:43:59Z</time>
      </trkpt>
      <trkpt lat="45.21813" lon="5.73309">
        <ele>1097.2</ele>
        <time>2011-10-16T15:44:01Z</time>
      </trkpt>
      <trkpt lat="45.21809" lon="5.73304">
        <ele>1096.8</ele>
        <time>2011-10-16T15:44:03Z</time>
      </trkpt>
      <trkpt lat="45.21803" lon="5.73299">
        <ele>1096.2</ele>
        <time>2011-10-16T15:44:05Z</time>
      </trkpt>
      <trkpt lat="45.21797" lon="5.73292">
        <ele>1095.8</ele>
        <time>2011-10-16T15:44:07Z</time>
      </trkpt>
      <trkpt lat="45.21791" lon="5.73286">
        <ele>1095.2</ele>
        <time>2011-10-16T15:44:09Z</time>
      </trkpt>
      <trkpt lat="45.21786" lon="5.73283">
        <ele>1094.8</ele>
        <time>2011-10-16T15:44:12Z</time>
      </trkpt>
      <trkpt lat="45.21783" lon="5.73278">
        <ele>1094.5</ele>
        <time>2011-10-16T15:44:16Z</time>
      </trkpt>
      <trkpt lat="45.21777" lon="5.73268">
        <ele>1090.8</ele>
        <time>2011-10-16T15:44:43Z</time>
      </trkpt>
      <trkpt lat="45.2178" lon="5.73261">
        <ele>1090.6</ele>
        <time>2011-10-16T15:44:46Z</time>
      </trkpt>
      <trkpt lat="45.2178" lon="5.73254">
        <ele>1090.6</ele>
        <time>2011-10-16T15:44:49Z</time>
      </trkpt>
      <trkpt lat="45.21778" lon="5.73248">
        <ele>1089.9</ele>
        <time>2011-10-16T15:44:52Z</time>
      </trkpt>
      <trkpt lat="45.21774" lon="5.7324">
        <ele>1089</ele>
        <time>2011-10-16T15:44:55Z</time>
      </trkpt>
      <trkpt lat="45.2177" lon="5.73238">
        <ele>1086.9</ele>
        <time>2011-10-16T15:45:02Z</time>
      </trkpt>
      <trkpt lat="45.21766" lon="5.73234">
        <ele>1086.2</ele>
        <time>2011-10-16T15:45:08Z</time>
      </trkpt>
      <trkpt lat="45.21763" lon="5.73229">
        <ele>1086</ele>
        <time>2011-10-16T15:45:13Z</time>
      </trkpt>
      <trkpt lat="45.21759" lon="5.73224">
        <ele>1084.7</ele>
        <time>2011-10-16T15:45:21Z</time>
      </trkpt>
      <trkpt lat="45.21756" lon="5.73218">
        <ele>1084.1</ele>
        <time>2011-10-16T15:45:28Z</time>
      </trkpt>
      <trkpt lat="45.21753" lon="5.73212">
        <ele>1083.5</ele>
        <time>2011-10-16T15:45:34Z</time>
      </trkpt>
      <trkpt lat="45.21748" lon="5.73207">
        <ele>1082.8</ele>
        <time>2011-10-16T15:45:37Z</time>
      </trkpt>
      <trkpt lat="45.21743" lon="5.73204">
        <ele>1082.3</ele>
        <time>2011-10-16T15:45:42Z</time>
      </trkpt>
      <trkpt lat="45.21738" lon="5.73205">
        <ele>1083.4</ele>
        <time>2011-10-16T15:45:51Z</time>
      </trkpt>
      <trkpt lat="45.21735" lon="5.7321">
        <ele>1083.6</ele>
        <time>2011-10-16T15:45:55Z</time>
      </trkpt>
      <trkpt lat="45.21731" lon="5.73214">
        <ele>1082.5</ele>
        <time>2011-10-16T15:46:06Z</time>
      </trkpt>
      <trkpt lat="45.21728" lon="5.73219">
        <ele>1080.3</ele>
        <time>2011-10-16T15:46:14Z</time>
      </trkpt>
      <trkpt lat="45.21721" lon="5.7322">
        <ele>1077.9</ele>
        <time>2011-10-16T15:46:22Z</time>
      </trkpt>
      <trkpt lat="45.21715" lon="5.73218">
        <ele>1077.9</ele>
        <time>2011-10-16T15:46:44Z</time>
      </trkpt>
      <trkpt lat="45.2171" lon="5.73215">
        <ele>1077.6</ele>
        <time>2011-10-16T15:46:46Z</time>
      </trkpt>
      <trkpt lat="45.21705" lon="5.7321">
        <ele>1077.4</ele>
        <time>2011-10-16T15:46:48Z</time>
      </trkpt>
      <trkpt lat="45.21701" lon="5.73203">
        <ele>1077.2</ele>
        <time>2011-10-16T15:46:51Z</time>
      </trkpt>
      <trkpt lat="45.21697" lon="5.73197">
        <ele>1076.6</ele>
        <time>2011-10-16T15:46:53Z</time>
      </trkpt>
      <trkpt lat="45.21692" lon="5.7319">
        <ele>1076.2</ele>
        <time>2011-10-16T15:46:55Z</time>
      </trkpt>
      <trkpt lat="45.21688" lon="5.73182">
        <ele>1075.5</ele>
        <time>2011-10-16T15:46:57Z</time>
      </trkpt>
      <trkpt lat="45.21685" lon="5.73176">
        <ele>1074.6</ele>
        <time>2011-10-16T15:46:59Z</time>
      </trkpt>
      <trkpt lat="45.21682" lon="5.73171">
        <ele>1074.1</ele>
        <time>2011-10-16T15:47:02Z</time>
      </trkpt>
      <trkpt lat="45.21679" lon="5.73164">
        <ele>1073.1</ele>
        <time>2011-10-16T15:47:07Z</time>
      </trkpt>
      <trkpt lat="45.21675" lon="5.73158">
        <ele>1071.5</ele>
        <time>2011-10-16T15:47:10Z</time>
      </trkpt>
      <trkpt lat="45.21672" lon="5.73151">
        <ele>1070.2</ele>
        <time>2011-10-16T15:47:13Z</time>
      </trkpt>
      <trkpt lat="45.21667" lon="5.73144">
        <ele>1068.5</ele>
        <time>2011-10-16T15:47:16Z</time>
      </trkpt>
      <trkpt lat="45.21662" lon="5.7314">
        <ele>1067.2</ele>
        <time>2011-10-16T15:47:19Z</time>
      </trkpt>
      <trkpt lat="45.21656" lon="5.73138">
        <ele>1066.3</ele>
        <time>2011-10-16T15:47:23Z</time>
      </trkpt>
      <trkpt lat="45.21651" lon="5.73138">
        <ele>1065.6</ele>
        <time>2011-10-16T15:47:25Z</time>
      </trkpt>
      <trkpt lat="45.21646" lon="5.73138">
        <ele>1064.3</ele>
        <time>2011-10-16T15:47:27Z</time>
      </trkpt>
      <trkpt lat="45.2164" lon="5.73137">
        <ele>1062.5</ele>
        <time>2011-10-16T15:47:29Z</time>
      </trkpt>
      <trkpt lat="45.21635" lon="5.73134">
        <ele>1061.1</ele>
        <time>2011-10-16T15:47:31Z</time>
      </trkpt>
      <trkpt lat="45.21629" lon="5.7313">
        <ele>1059</ele>
        <time>2011-10-16T15:47:33Z</time>
      </trkpt>
      <trkpt lat="45.21622" lon="5.73126">
        <ele>1057.2</ele>
        <time>2011-10-16T15:47:35Z</time>
      </trkpt>
      <trkpt lat="45.21618" lon="5.73123">
        <ele>1056</ele>
        <time>2011-10-16T15:47:36Z</time>
      </trkpt>
      <trkpt lat="45.21613" lon="5.73121">
        <ele>1054.9</ele>
        <time>2011-10-16T15:47:37Z</time>
      </trkpt>
      <trkpt lat="45.21605" lon="5.73117">
        <ele>1053.2</ele>
        <time>2011-10-16T15:47:39Z</time>
      </trkpt>
      <trkpt lat="45.21599" lon="5.73114">
        <ele>1051.6</ele>
        <time>2011-10-16T15:47:41Z</time>
      </trkpt>
      <trkpt lat="45.21593" lon="5.73113">
        <ele>1050.8</ele>
        <time>2011-10-16T15:47:43Z</time>
      </trkpt>
      <trkpt lat="45.21589" lon="5.73116">
        <ele>1049.1</ele>
        <time>2011-10-16T15:48:03Z</time>
      </trkpt>
      <trkpt lat="45.21585" lon="5.73121">
        <ele>1048.6</ele>
        <time>2011-10-16T15:48:07Z</time>
      </trkpt>
      <trkpt lat="45.21583" lon="5.73128">
        <ele>1048.2</ele>
        <time>2011-10-16T15:48:09Z</time>
      </trkpt>
      <trkpt lat="45.21581" lon="5.73136">
        <ele>1047.1</ele>
        <time>2011-10-16T15:48:11Z</time>
      </trkpt>
      <trkpt lat="45.21577" lon="5.7314">
        <ele>1046.2</ele>
        <time>2011-10-16T15:48:13Z</time>
      </trkpt>
      <trkpt lat="45.21574" lon="5.73144">
        <ele>1045.2</ele>
        <time>2011-10-16T15:48:15Z</time>
      </trkpt>
      <trkpt lat="45.21571" lon="5.7315">
        <ele>1044.5</ele>
        <time>2011-10-16T15:48:17Z</time>
      </trkpt>
      <trkpt lat="45.21568" lon="5.73157">
        <ele>1042.4</ele>
        <time>2011-10-16T15:48:20Z</time>
      </trkpt>
      <trkpt lat="45.21566" lon="5.73164">
        <ele>1038.9</ele>
        <time>2011-10-16T15:48:23Z</time>
      </trkpt>
      <trkpt lat="45.21566" lon="5.73172">
        <ele>1035.9</ele>
        <time>2011-10-16T15:48:26Z</time>
      </trkpt>
      <trkpt lat="45.2157" lon="5.73182">
        <ele>1030.5</ele>
        <time>2011-10-16T15:48:29Z</time>
      </trkpt>
      <trkpt lat="45.21573" lon="5.73186">
        <ele>1029.2</ele>
        <time>2011-10-16T15:48:30Z</time>
      </trkpt>
      <trkpt lat="45.21581" lon="5.73195">
        <ele>1028.1</ele>
        <time>2011-10-16T15:48:32Z</time>
      </trkpt>
      <trkpt lat="45.21585" lon="5.732">
        <ele>1027.5</ele>
        <time>2011-10-16T15:48:33Z</time>
      </trkpt>
      <trkpt lat="45.21588" lon="5.73205">
        <ele>1027.1</ele>
        <time>2011-10-16T15:48:34Z</time>
      </trkpt>
      <trkpt lat="45.21593" lon="5.73211">
        <ele>1026.5</ele>
        <time>2011-10-16T15:48:35Z</time>
      </trkpt>
      <trkpt lat="45.21596" lon="5.73216">
        <ele>1026</ele>
        <time>2011-10-16T15:48:36Z</time>
      </trkpt>
      <trkpt lat="45.216" lon="5.73221">
        <ele>1025.5</ele>
        <time>2011-10-16T15:48:37Z</time>
      </trkpt>
      <trkpt lat="45.21604" lon="5.73226">
        <ele>1024.7</ele>
        <time>2011-10-16T15:48:38Z</time>
      </trkpt>
      <trkpt lat="45.21609" lon="5.73234">
        <ele>1023.2</ele>
        <time>2011-10-16T15:48:40Z</time>
      </trkpt>
      <trkpt lat="45.21613" lon="5.73242">
        <ele>1019.8</ele>
        <time>2011-10-16T15:48:43Z</time>
      </trkpt>
      <trkpt lat="45.21616" lon="5.73249">
        <ele>1017.2</ele>
        <time>2011-10-16T15:48:45Z</time>
      </trkpt>
      <trkpt lat="45.2162" lon="5.73258">
        <ele>1014.7</ele>
        <time>2011-10-16T15:48:47Z</time>
      </trkpt>
      <trkpt lat="45.21623" lon="5.73264">
        <ele>1013.5</ele>
        <time>2011-10-16T15:48:48Z</time>
      </trkpt>
      <trkpt lat="45.21626" lon="5.7327">
        <ele>1012.5</ele>
        <time>2011-10-16T15:48:49Z</time>
      </trkpt>
      <trkpt lat="45.2163" lon="5.73276">
        <ele>1011.8</ele>
        <time>2011-10-16T15:48:50Z</time>
      </trkpt>
      <trkpt lat="45.21633" lon="5.73284">
        <ele>1011.3</ele>
        <time>2011-10-16T15:48:51Z</time>
      </trkpt>
      <trkpt lat="45.21637" lon="5.73291">
        <ele>1010.4</ele>
        <time>2011-10-16T15:48:52Z</time>
      </trkpt>
      <trkpt lat="45.2164" lon="5.73298">
        <ele>1009.5</ele>
        <time>2011-10-16T15:48:53Z</time>
      </trkpt>
      <trkpt lat="45.21643" lon="5.73305">
        <ele>1008.5</ele>
        <time>2011-10-16T15:48:54Z</time>
      </trkpt>
      <trkpt lat="45.21644" lon="5.73311">
        <ele>1007.7</ele>
        <time>2011-10-16T15:48:55Z</time>
      </trkpt>
      <trkpt lat="45.21645" lon="5.73318">
        <ele>1006.8</ele>
        <time>2011-10-16T15:48:56Z</time>
      </trkpt>
      <trkpt lat="45.21646" lon="5.73324">
        <ele>1006</ele>
        <time>2011-10-16T15:48:57Z</time>
      </trkpt>
      <trkpt lat="45.21648" lon="5.7333">
        <ele>1005.3</ele>
        <time>2011-10-16T15:48:58Z</time>
      </trkpt>
      <trkpt lat="45.2165" lon="5.73341">
        <ele>1004.1</ele>
        <time>2011-10-16T15:49:00Z</time>
      </trkpt>
      <trkpt lat="45.21652" lon="5.73349">
        <ele>1003.1</ele>
        <time>2011-10-16T15:49:02Z</time>
      </trkpt>
      <trkpt lat="45.21654" lon="5.73356">
        <ele>1002.1</ele>
        <time>2011-10-16T15:49:04Z</time>
      </trkpt>
      <trkpt lat="45.21657" lon="5.73366">
        <ele>1000</ele>
        <time>2011-10-16T15:49:06Z</time>
      </trkpt>
      <trkpt lat="45.2166" lon="5.73377">
        <ele>997.8</ele>
        <time>2011-10-16T15:49:08Z</time>
      </trkpt>
      <trkpt lat="45.21662" lon="5.73388">
        <ele>997</ele>
        <time>2011-10-16T15:49:10Z</time>
      </trkpt>
      <trkpt lat="45.21664" lon="5.73394">
        <ele>996.6</ele>
        <time>2011-10-16T15:49:11Z</time>
      </trkpt>
      <trkpt lat="45.21665" lon="5.73402">
        <ele>996.1</ele>
        <time>2011-10-16T15:49:12Z</time>
      </trkpt>
      <trkpt lat="45.21665" lon="5.73409">
        <ele>995.7</ele>
        <time>2011-10-16T15:49:13Z</time>
      </trkpt>
      <trkpt lat="45.21666" lon="5.73416">
        <ele>994.5</ele>
        <time>2011-10-16T15:49:14Z</time>
      </trkpt>
      <trkpt lat="45.21667" lon="5.73425">
        <ele>993.4</ele>
        <time>2011-10-16T15:49:15Z</time>
      </trkpt>
      <trkpt lat="45.21667" lon="5.73433">
        <ele>992.2</ele>
        <time>2011-10-16T15:49:16Z</time>
      </trkpt>
      <trkpt lat="45.21668" lon="5.73442">
        <ele>990.5</ele>
        <time>2011-10-16T15:49:17Z</time>
      </trkpt>
      <trkpt lat="45.21669" lon="5.73449">
        <ele>987.8</ele>
        <time>2011-10-16T15:49:18Z</time>
      </trkpt>
      <trkpt lat="45.21669" lon="5.73457">
        <ele>985.2</ele>
        <time>2011-10-16T15:49:19Z</time>
      </trkpt>
      <trkpt lat="45.21669" lon="5.73464">
        <ele>982.9</ele>
        <time>2011-10-16T15:49:20Z</time>
      </trkpt>
      <trkpt lat="45.21671" lon="5.73474">
        <ele>979</ele>
        <time>2011-10-16T15:49:22Z</time>
      </trkpt>
      <trkpt lat="45.21673" lon="5.7348">
        <ele>975.6</ele>
        <time>2011-10-16T15:49:24Z</time>
      </trkpt>
      <trkpt lat="45.21674" lon="5.73486">
        <ele>972.9</ele>
        <time>2011-10-16T15:49:26Z</time>
      </trkpt>
      <trkpt lat="45.21676" lon="5.73495">
        <ele>968.4</ele>
        <time>2011-10-16T15:49:44Z</time>
      </trkpt>
      <trkpt lat="45.2168" lon="5.735">
        <ele>967.1</ele>
        <time>2011-10-16T15:49:46Z</time>
      </trkpt>
      <trkpt lat="45.21685" lon="5.73504">
        <ele>966.3</ele>
        <time>2011-10-16T15:49:48Z</time>
      </trkpt>
      <trkpt lat="45.21692" lon="5.7351">
        <ele>965.2</ele>
        <time>2011-10-16T15:49:50Z</time>
      </trkpt>
      <trkpt lat="45.21699" lon="5.73518">
        <ele>964.3</ele>
        <time>2011-10-16T15:49:52Z</time>
      </trkpt>
      <trkpt lat="45.21704" lon="5.73523">
        <ele>964.1</ele>
        <time>2011-10-16T15:49:53Z</time>
      </trkpt>
      <trkpt lat="45.21708" lon="5.73527">
        <ele>963.8</ele>
        <time>2011-10-16T15:49:54Z</time>
      </trkpt>
      <trkpt lat="45.21713" lon="5.73532">
        <ele>963.7</ele>
        <time>2011-10-16T15:49:55Z</time>
      </trkpt>
      <trkpt lat="45.21717" lon="5.73536">
        <ele>963.6</ele>
        <time>2011-10-16T15:49:56Z</time>
      </trkpt>
      <trkpt lat="45.21721" lon="5.73542">
        <ele>962.9</ele>
        <time>2011-10-16T15:49:58Z</time>
      </trkpt>
      <trkpt lat="45.21717" lon="5.73538">
        <ele>962.2</ele>
        <time>2011-10-16T15:50:14Z</time>
      </trkpt>
      <trkpt lat="45.21711" lon="5.73535">
        <ele>961.7</ele>
        <time>2011-10-16T15:50:17Z</time>
      </trkpt>
      <trkpt lat="45.21667" lon="5.73533">
        <ele>947</ele>
        <time>2011-10-16T15:50:27Z</time>
      </trkpt>
      <trkpt lat="45.21671" lon="5.73537">
        <ele>944.5</ele>
        <time>2011-10-16T15:50:47Z</time>
      </trkpt>
      <trkpt lat="45.21676" lon="5.7354">
        <ele>944.5</ele>
        <time>2011-10-16T15:50:50Z</time>
      </trkpt>
      <trkpt lat="45.21682" lon="5.73544">
        <ele>944.3</ele>
        <time>2011-10-16T15:50:52Z</time>
      </trkpt>
      <trkpt lat="45.2169" lon="5.7355">
        <ele>943.5</ele>
        <time>2011-10-16T15:50:54Z</time>
      </trkpt>
      <trkpt lat="45.21695" lon="5.73556">
        <ele>942.5</ele>
        <time>2011-10-16T15:50:56Z</time>
      </trkpt>
      <trkpt lat="45.21699" lon="5.7356">
        <ele>942</ele>
        <time>2011-10-16T15:50:58Z</time>
      </trkpt>
      <trkpt lat="45.21704" lon="5.73566">
        <ele>940.2</ele>
        <time>2011-10-16T15:51:07Z</time>
      </trkpt>
      <trkpt lat="45.21697" lon="5.73566">
        <ele>935.7</ele>
        <time>2011-10-16T15:51:22Z</time>
      </trkpt>
      <trkpt lat="45.21692" lon="5.73565">
        <ele>935.6</ele>
        <time>2011-10-16T15:51:23Z</time>
      </trkpt>
      <trkpt lat="45.21688" lon="5.73563">
        <ele>935.5</ele>
        <time>2011-10-16T15:51:24Z</time>
      </trkpt>
      <trkpt lat="45.2168" lon="5.7356">
        <ele>935.3</ele>
        <time>2011-10-16T15:51:26Z</time>
      </trkpt>
      <trkpt lat="45.21672" lon="5.7356">
        <ele>934.8</ele>
        <time>2011-10-16T15:51:28Z</time>
      </trkpt>
      <trkpt lat="45.21663" lon="5.73562">
        <ele>934.2</ele>
        <time>2011-10-16T15:51:30Z</time>
      </trkpt>
      <trkpt lat="45.21655" lon="5.73563">
        <ele>933</ele>
        <time>2011-10-16T15:51:32Z</time>
      </trkpt>
      <trkpt lat="45.21648" lon="5.73564">
        <ele>931.4</ele>
        <time>2011-10-16T15:51:34Z</time>
      </trkpt>
      <trkpt lat="45.21642" lon="5.73563">
        <ele>930.3</ele>
        <time>2011-10-16T15:51:37Z</time>
      </trkpt>
      <trkpt lat="45.21637" lon="5.7356">
        <ele>929.5</ele>
        <time>2011-10-16T15:51:39Z</time>
      </trkpt>
      <trkpt lat="45.21629" lon="5.73553">
        <ele>928.2</ele>
        <time>2011-10-16T15:51:41Z</time>
      </trkpt>
      <trkpt lat="45.21625" lon="5.73548">
        <ele>927.7</ele>
        <time>2011-10-16T15:51:42Z</time>
      </trkpt>
      <trkpt lat="45.21622" lon="5.73542">
        <ele>926.4</ele>
        <time>2011-10-16T15:51:43Z</time>
      </trkpt>
      <trkpt lat="45.21618" lon="5.73535">
        <ele>925.4</ele>
        <time>2011-10-16T15:51:45Z</time>
      </trkpt>
      <trkpt lat="45.21614" lon="5.73532">
        <ele>923</ele>
        <time>2011-10-16T15:51:50Z</time>
      </trkpt>
      <trkpt lat="45.21615" lon="5.7354">
        <ele>921.8</ele>
        <time>2011-10-16T15:51:54Z</time>
      </trkpt>
      <trkpt lat="45.21616" lon="5.73546">
        <ele>920.8</ele>
        <time>2011-10-16T15:51:56Z</time>
      </trkpt>
      <trkpt lat="45.21618" lon="5.73555">
        <ele>919.6</ele>
        <time>2011-10-16T15:51:58Z</time>
      </trkpt>
      <trkpt lat="45.2162" lon="5.73563">
        <ele>918.5</ele>
        <time>2011-10-16T15:52:00Z</time>
      </trkpt>
      <trkpt lat="45.21622" lon="5.7357">
        <ele>917.7</ele>
        <time>2011-10-16T15:52:03Z</time>
      </trkpt>
      <trkpt lat="45.21624" lon="5.73575">
        <ele>917</ele>
        <time>2011-10-16T15:52:07Z</time>
      </trkpt>
      <trkpt lat="45.2162" lon="5.73575">
        <ele>913.3</ele>
        <time>2011-10-16T15:52:15Z</time>
      </trkpt>
      <trkpt lat="45.21612" lon="5.73569">
        <ele>913</ele>
        <time>2011-10-16T15:52:17Z</time>
      </trkpt>
      <trkpt lat="45.21606" lon="5.73562">
        <ele>912.4</ele>
        <time>2011-10-16T15:52:19Z</time>
      </trkpt>
      <trkpt lat="45.21601" lon="5.73554">
        <ele>911.4</ele>
        <time>2011-10-16T15:52:21Z</time>
      </trkpt>
      <trkpt lat="45.21596" lon="5.73546">
        <ele>910.4</ele>
        <time>2011-10-16T15:52:23Z</time>
      </trkpt>
      <trkpt lat="45.2159" lon="5.73538">
        <ele>909.2</ele>
        <time>2011-10-16T15:52:25Z</time>
      </trkpt>
      <trkpt lat="45.21586" lon="5.7353">
        <ele>907.8</ele>
        <time>2011-10-16T15:52:27Z</time>
      </trkpt>
      <trkpt lat="45.2158" lon="5.73519">
        <ele>905.4</ele>
        <time>2011-10-16T15:52:29Z</time>
      </trkpt>
      <trkpt lat="45.21577" lon="5.73512">
        <ele>903.9</ele>
        <time>2011-10-16T15:52:30Z</time>
      </trkpt>
      <trkpt lat="45.21575" lon="5.73505">
        <ele>902.4</ele>
        <time>2011-10-16T15:52:31Z</time>
      </trkpt>
      <trkpt lat="45.21572" lon="5.73499">
        <ele>901.1</ele>
        <time>2011-10-16T15:52:32Z</time>
      </trkpt>
      <trkpt lat="45.21569" lon="5.73493">
        <ele>900.2</ele>
        <time>2011-10-16T15:52:33Z</time>
      </trkpt>
      <trkpt lat="45.21566" lon="5.73489">
        <ele>899.6</ele>
        <time>2011-10-16T15:52:34Z</time>
      </trkpt>
      <trkpt lat="45.21559" lon="5.73481">
        <ele>898.7</ele>
        <time>2011-10-16T15:52:36Z</time>
      </trkpt>
      <trkpt lat="45.21553" lon="5.73476">
        <ele>897.8</ele>
        <time>2011-10-16T15:52:38Z</time>
      </trkpt>
      <trkpt lat="45.21548" lon="5.73477">
        <ele>893.1</ele>
        <time>2011-10-16T15:52:48Z</time>
      </trkpt>
      <trkpt lat="45.21542" lon="5.73475">
        <ele>891.4</ele>
        <time>2011-10-16T15:52:50Z</time>
      </trkpt>
      <trkpt lat="45.21537" lon="5.73473">
        <ele>888.9</ele>
        <time>2011-10-16T15:52:53Z</time>
      </trkpt>
      <trkpt lat="45.2154" lon="5.73478">
        <ele>886.1</ele>
        <time>2011-10-16T15:52:58Z</time>
      </trkpt>
      <trkpt lat="45.21546" lon="5.73483">
        <ele>885</ele>
        <time>2011-10-16T15:53:00Z</time>
      </trkpt>
      <trkpt lat="45.21551" lon="5.73489">
        <ele>884</ele>
        <time>2011-10-16T15:53:02Z</time>
      </trkpt>
      <trkpt lat="45.21555" lon="5.73495">
        <ele>883.8</ele>
        <time>2011-10-16T15:53:04Z</time>
      </trkpt>
      <trkpt lat="45.21555" lon="5.73503">
        <ele>882.9</ele>
        <time>2011-10-16T15:53:06Z</time>
      </trkpt>
      <trkpt lat="45.21556" lon="5.73511">
        <ele>882.6</ele>
        <time>2011-10-16T15:53:08Z</time>
      </trkpt>
      <trkpt lat="45.21555" lon="5.73522">
        <ele>881.7</ele>
        <time>2011-10-16T15:53:10Z</time>
      </trkpt>
      <trkpt lat="45.21554" lon="5.73534">
        <ele>880.5</ele>
        <time>2011-10-16T15:53:12Z</time>
      </trkpt>
      <trkpt lat="45.21554" lon="5.73541">
        <ele>879.8</ele>
        <time>2011-10-16T15:53:13Z</time>
      </trkpt>
      <trkpt lat="45.21555" lon="5.73547">
        <ele>879.2</ele>
        <time>2011-10-16T15:53:14Z</time>
      </trkpt>
      <trkpt lat="45.21555" lon="5.73553">
        <ele>878.6</ele>
        <time>2011-10-16T15:53:15Z</time>
      </trkpt>
      <trkpt lat="45.21557" lon="5.7356">
        <ele>878.1</ele>
        <time>2011-10-16T15:53:16Z</time>
      </trkpt>
      <trkpt lat="45.21558" lon="5.73567">
        <ele>877.7</ele>
        <time>2011-10-16T15:53:17Z</time>
      </trkpt>
      <trkpt lat="45.21559" lon="5.73574">
        <ele>877.6</ele>
        <time>2011-10-16T15:53:18Z</time>
      </trkpt>
      <trkpt lat="45.21561" lon="5.7358">
        <ele>877.4</ele>
        <time>2011-10-16T15:53:19Z</time>
      </trkpt>
      <trkpt lat="45.21562" lon="5.73587">
        <ele>877.1</ele>
        <time>2011-10-16T15:53:21Z</time>
      </trkpt>
      <trkpt lat="45.21564" lon="5.73594">
        <ele>874.9</ele>
        <time>2011-10-16T15:53:24Z</time>
      </trkpt>
      <trkpt lat="45.21556" lon="5.73588">
        <ele>873.4</ele>
        <time>2011-10-16T15:53:30Z</time>
      </trkpt>
      <trkpt lat="45.21551" lon="5.7358">
        <ele>872.4</ele>
        <time>2011-10-16T15:53:32Z</time>
      </trkpt>
      <trkpt lat="45.21545" lon="5.73573">
        <ele>871.6</ele>
        <time>2011-10-16T15:53:34Z</time>
      </trkpt>
      <trkpt lat="45.2154" lon="5.73565">
        <ele>870.6</ele>
        <time>2011-10-16T15:53:36Z</time>
      </trkpt>
      <trkpt lat="45.21536" lon="5.73557">
        <ele>869.7</ele>
        <time>2011-10-16T15:53:38Z</time>
      </trkpt>
      <trkpt lat="45.21534" lon="5.73551">
        <ele>868.5</ele>
        <time>2011-10-16T15:53:42Z</time>
      </trkpt>
      <trkpt lat="45.21531" lon="5.73557">
        <ele>864.7</ele>
        <time>2011-10-16T15:53:48Z</time>
      </trkpt>
      <trkpt lat="45.21532" lon="5.73569">
        <ele>862.8</ele>
        <time>2011-10-16T15:53:50Z</time>
      </trkpt>
      <trkpt lat="45.21533" lon="5.7358">
        <ele>860.9</ele>
        <time>2011-10-16T15:53:52Z</time>
      </trkpt>
      <trkpt lat="45.21535" lon="5.73591">
        <ele>859.9</ele>
        <time>2011-10-16T15:53:54Z</time>
      </trkpt>
      <trkpt lat="45.21539" lon="5.73602">
        <ele>857.8</ele>
        <time>2011-10-16T15:53:56Z</time>
      </trkpt>
      <trkpt lat="45.21541" lon="5.73608">
        <ele>855.4</ele>
        <time>2011-10-16T15:53:58Z</time>
      </trkpt>
      <trkpt lat="45.21537" lon="5.73602">
        <ele>851.7</ele>
        <time>2011-10-16T15:54:18Z</time>
      </trkpt>
      <trkpt lat="45.21536" lon="5.7361">
        <ele>849.5</ele>
        <time>2011-10-16T15:54:34Z</time>
      </trkpt>
      <trkpt lat="45.21536" lon="5.73617">
        <ele>848.9</ele>
        <time>2011-10-16T15:54:38Z</time>
      </trkpt>
      <trkpt lat="45.2153" lon="5.73612">
        <ele>846.5</ele>
        <time>2011-10-16T15:54:54Z</time>
      </trkpt>
      <trkpt lat="45.21524" lon="5.73602">
        <ele>845.5</ele>
        <time>2011-10-16T15:54:56Z</time>
      </trkpt>
      <trkpt lat="45.21521" lon="5.73597">
        <ele>844.1</ele>
        <time>2011-10-16T15:54:57Z</time>
      </trkpt>
      <trkpt lat="45.21518" lon="5.73588">
        <ele>841.4</ele>
        <time>2011-10-16T15:54:59Z</time>
      </trkpt>
      <trkpt lat="45.21516" lon="5.73582">
        <ele>838.7</ele>
        <time>2011-10-16T15:55:02Z</time>
      </trkpt>
      <trkpt lat="45.21513" lon="5.73587">
        <ele>835.9</ele>
        <time>2011-10-16T15:55:16Z</time>
      </trkpt>
      <trkpt lat="45.21512" lon="5.73593">
        <ele>835</ele>
        <time>2011-10-16T15:55:18Z</time>
      </trkpt>
      <trkpt lat="45.21513" lon="5.736">
        <ele>832.9</ele>
        <time>2011-10-16T15:55:21Z</time>
      </trkpt>
      <trkpt lat="45.21508" lon="5.73594">
        <ele>830.2</ele>
        <time>2011-10-16T15:55:25Z</time>
      </trkpt>
      <trkpt lat="45.21508" lon="5.73584">
        <ele>828.2</ele>
        <time>2011-10-16T15:55:28Z</time>
      </trkpt>
      <trkpt lat="45.21507" lon="5.73574">
        <ele>826.4</ele>
        <time>2011-10-16T15:55:30Z</time>
      </trkpt>
      <trkpt lat="45.21504" lon="5.73564">
        <ele>825.1</ele>
        <time>2011-10-16T15:55:32Z</time>
      </trkpt>
      <trkpt lat="45.21496" lon="5.73557">
        <ele>823.8</ele>
        <time>2011-10-16T15:55:34Z</time>
      </trkpt>
      <trkpt lat="45.21489" lon="5.73552">
        <ele>822.6</ele>
        <time>2011-10-16T15:55:36Z</time>
      </trkpt>
      <trkpt lat="45.21484" lon="5.73549">
        <ele>822</ele>
        <time>2011-10-16T15:55:38Z</time>
      </trkpt>
      <trkpt lat="45.2148" lon="5.73545">
        <ele>820.4</ele>
        <time>2011-10-16T15:55:42Z</time>
      </trkpt>
      <trkpt lat="45.21476" lon="5.73539">
        <ele>818</ele>
        <time>2011-10-16T15:55:47Z</time>
      </trkpt>
      <trkpt lat="45.21472" lon="5.73531">
        <ele>817.2</ele>
        <time>2011-10-16T15:55:50Z</time>
      </trkpt>
      <trkpt lat="45.2147" lon="5.73526">
        <ele>816.6</ele>
        <time>2011-10-16T15:55:52Z</time>
      </trkpt>
      <trkpt lat="45.21468" lon="5.7352">
        <ele>815</ele>
        <time>2011-10-16T15:55:56Z</time>
      </trkpt>
      <trkpt lat="45.21468" lon="5.73512">
        <ele>813.2</ele>
        <time>2011-10-16T15:56:01Z</time>
      </trkpt>
      <trkpt lat="45.21466" lon="5.73502">
        <ele>812.5</ele>
        <time>2011-10-16T15:56:03Z</time>
      </trkpt>
      <trkpt lat="45.21462" lon="5.73491">
        <ele>811.2</ele>
        <time>2011-10-16T15:56:05Z</time>
      </trkpt>
      <trkpt lat="45.21455" lon="5.73484">
        <ele>809.1</ele>
        <time>2011-10-16T15:56:07Z</time>
      </trkpt>
      <trkpt lat="45.2145" lon="5.73479">
        <ele>807.3</ele>
        <time>2011-10-16T15:56:09Z</time>
      </trkpt>
      <trkpt lat="45.21445" lon="5.73473">
        <ele>806.5</ele>
        <time>2011-10-16T15:56:11Z</time>
      </trkpt>
      <trkpt lat="45.2144" lon="5.73466">
        <ele>806</ele>
        <time>2011-10-16T15:56:13Z</time>
      </trkpt>
      <trkpt lat="45.21437" lon="5.7346">
        <ele>805.7</ele>
        <time>2011-10-16T15:56:15Z</time>
      </trkpt>
      <trkpt lat="45.21434" lon="5.73453">
        <ele>805.5</ele>
        <time>2011-10-16T15:56:17Z</time>
      </trkpt>
      <trkpt lat="45.21428" lon="5.73443">
        <ele>804.2</ele>
        <time>2011-10-16T15:56:19Z</time>
      </trkpt>
      <trkpt lat="45.21423" lon="5.73435">
        <ele>803.2</ele>
        <time>2011-10-16T15:56:21Z</time>
      </trkpt>
      <trkpt lat="45.21419" lon="5.73426">
        <ele>802.9</ele>
        <time>2011-10-16T15:56:23Z</time>
      </trkpt>
      <trkpt lat="45.21418" lon="5.7342">
        <ele>802.3</ele>
        <time>2011-10-16T15:56:24Z</time>
      </trkpt>
      <trkpt lat="45.21415" lon="5.73413">
        <ele>801.4</ele>
        <time>2011-10-16T15:56:25Z</time>
      </trkpt>
      <trkpt lat="45.2141" lon="5.73404">
        <ele>800.2</ele>
        <time>2011-10-16T15:56:27Z</time>
      </trkpt>
      <trkpt lat="45.21405" lon="5.73394">
        <ele>799.3</ele>
        <time>2011-10-16T15:56:29Z</time>
      </trkpt>
      <trkpt lat="45.214" lon="5.73385">
        <ele>798.3</ele>
        <time>2011-10-16T15:56:31Z</time>
      </trkpt>
      <trkpt lat="45.21394" lon="5.73377">
        <ele>796.6</ele>
        <time>2011-10-16T15:56:33Z</time>
      </trkpt>
      <trkpt lat="45.21391" lon="5.73372">
        <ele>796.1</ele>
        <time>2011-10-16T15:56:35Z</time>
      </trkpt>
      <trkpt lat="45.21386" lon="5.73365">
        <ele>796.1</ele>
        <time>2011-10-16T15:56:37Z</time>
      </trkpt>
      <trkpt lat="45.21381" lon="5.73358">
        <ele>795.2</ele>
        <time>2011-10-16T15:56:39Z</time>
      </trkpt>
      <trkpt lat="45.21376" lon="5.73352">
        <ele>794.8</ele>
        <time>2011-10-16T15:56:41Z</time>
      </trkpt>
      <trkpt lat="45.21372" lon="5.73348">
        <ele>794.7</ele>
        <time>2011-10-16T15:56:43Z</time>
      </trkpt>
      <trkpt lat="45.21369" lon="5.73342">
        <ele>794.4</ele>
        <time>2011-10-16T15:56:45Z</time>
      </trkpt>
      <trkpt lat="45.21363" lon="5.73336">
        <ele>793.5</ele>
        <time>2011-10-16T15:56:47Z</time>
      </trkpt>
      <trkpt lat="45.21359" lon="5.73331">
        <ele>792.9</ele>
        <time>2011-10-16T15:56:48Z</time>
      </trkpt>
      <trkpt lat="45.21354" lon="5.73325">
        <ele>792.2</ele>
        <time>2011-10-16T15:56:49Z</time>
      </trkpt>
      <trkpt lat="45.2135" lon="5.73319">
        <ele>791.3</ele>
        <time>2011-10-16T15:56:50Z</time>
      </trkpt>
      <trkpt lat="45.21346" lon="5.73313">
        <ele>790</ele>
        <time>2011-10-16T15:56:51Z</time>
      </trkpt>
      <trkpt lat="45.21342" lon="5.73308">
        <ele>788.7</ele>
        <time>2011-10-16T15:56:52Z</time>
      </trkpt>
      <trkpt lat="45.21337" lon="5.73301">
        <ele>787.3</ele>
        <time>2011-10-16T15:56:54Z</time>
      </trkpt>
      <trkpt lat="45.21333" lon="5.73295">
        <ele>786.7</ele>
        <time>2011-10-16T15:56:56Z</time>
      </trkpt>
      <trkpt lat="45.21328" lon="5.73291">
        <ele>785.9</ele>
        <time>2011-10-16T15:56:58Z</time>
      </trkpt>
      <trkpt lat="45.2132" lon="5.73291">
        <ele>784.2</ele>
        <time>2011-10-16T15:57:00Z</time>
      </trkpt>
      <trkpt lat="45.21313" lon="5.73294">
        <ele>783.4</ele>
        <time>2011-10-16T15:57:01Z</time>
      </trkpt>
      <trkpt lat="45.21307" lon="5.73296">
        <ele>782.3</ele>
        <time>2011-10-16T15:57:02Z</time>
      </trkpt>
      <trkpt lat="45.21302" lon="5.73298">
        <ele>781.3</ele>
        <time>2011-10-16T15:57:03Z</time>
      </trkpt>
      <trkpt lat="45.21294" lon="5.73296">
        <ele>778.6</ele>
        <time>2011-10-16T15:57:05Z</time>
      </trkpt>
      <trkpt lat="45.2129" lon="5.73291">
        <ele>777</ele>
        <time>2011-10-16T15:57:07Z</time>
      </trkpt>
      <trkpt lat="45.21283" lon="5.73286">
        <ele>775.3</ele>
        <time>2011-10-16T15:57:10Z</time>
      </trkpt>
      <trkpt lat="45.21277" lon="5.73282">
        <ele>774.7</ele>
        <time>2011-10-16T15:57:12Z</time>
      </trkpt>
      <trkpt lat="45.2127" lon="5.73276">
        <ele>773.6</ele>
        <time>2011-10-16T15:57:14Z</time>
      </trkpt>
      <trkpt lat="45.21262" lon="5.73267">
        <ele>770.7</ele>
        <time>2011-10-16T15:57:16Z</time>
      </trkpt>
      <trkpt lat="45.21257" lon="5.7326">
        <ele>769</ele>
        <time>2011-10-16T15:57:18Z</time>
      </trkpt>
      <trkpt lat="45.21252" lon="5.7325">
        <ele>768</ele>
        <time>2011-10-16T15:57:20Z</time>
      </trkpt>
      <trkpt lat="45.21248" lon="5.73245">
        <ele>767.2</ele>
        <time>2011-10-16T15:57:21Z</time>
      </trkpt>
      <trkpt lat="45.21244" lon="5.7324">
        <ele>766.4</ele>
        <time>2011-10-16T15:57:22Z</time>
      </trkpt>
      <trkpt lat="45.2124" lon="5.73235">
        <ele>765.4</ele>
        <time>2011-10-16T15:57:23Z</time>
      </trkpt>
      <trkpt lat="45.21235" lon="5.73229">
        <ele>763.9</ele>
        <time>2011-10-16T15:57:25Z</time>
      </trkpt>
      <trkpt lat="45.2123" lon="5.73224">
        <ele>761.4</ele>
        <time>2011-10-16T15:57:29Z</time>
      </trkpt>
      <trkpt lat="45.2122" lon="5.73219">
        <ele>758.2</ele>
        <time>2011-10-16T15:57:31Z</time>
      </trkpt>
      <trkpt lat="45.21214" lon="5.73212">
        <ele>756.3</ele>
        <time>2011-10-16T15:57:33Z</time>
      </trkpt>
      <trkpt lat="45.21208" lon="5.73203">
        <ele>752.9</ele>
        <time>2011-10-16T15:57:35Z</time>
      </trkpt>
      <trkpt lat="45.21203" lon="5.73199">
        <ele>751.5</ele>
        <time>2011-10-16T15:57:36Z</time>
      </trkpt>
      <trkpt lat="45.21199" lon="5.73196">
        <ele>749.8</ele>
        <time>2011-10-16T15:57:37Z</time>
      </trkpt>
      <trkpt lat="45.21195" lon="5.73192">
        <ele>748.2</ele>
        <time>2011-10-16T15:57:38Z</time>
      </trkpt>
      <trkpt lat="45.21192" lon="5.73188">
        <ele>747</ele>
        <time>2011-10-16T15:57:39Z</time>
      </trkpt>
      <trkpt lat="45.21188" lon="5.73183">
        <ele>746</ele>
        <time>2011-10-16T15:57:40Z</time>
      </trkpt>
      <trkpt lat="45.21184" lon="5.73178">
        <ele>745</ele>
        <time>2011-10-16T15:57:41Z</time>
      </trkpt>
      <trkpt lat="45.2118" lon="5.73172">
        <ele>744.4</ele>
        <time>2011-10-16T15:57:42Z</time>
      </trkpt>
      <trkpt lat="45.21176" lon="5.73168">
        <ele>743.7</ele>
        <time>2011-10-16T15:57:43Z</time>
      </trkpt>
      <trkpt lat="45.21172" lon="5.73163">
        <ele>743.2</ele>
        <time>2011-10-16T15:57:44Z</time>
      </trkpt>
      <trkpt lat="45.21168" lon="5.73158">
        <ele>742.4</ele>
        <time>2011-10-16T15:57:45Z</time>
      </trkpt>
      <trkpt lat="45.21164" lon="5.73153">
        <ele>741.8</ele>
        <time>2011-10-16T15:57:46Z</time>
      </trkpt>
      <trkpt lat="45.21161" lon="5.73149">
        <ele>741.3</ele>
        <time>2011-10-16T15:57:47Z</time>
      </trkpt>
      <trkpt lat="45.21155" lon="5.73141">
        <ele>739.5</ele>
        <time>2011-10-16T15:57:49Z</time>
      </trkpt>
      <trkpt lat="45.2115" lon="5.73136">
        <ele>737.5</ele>
        <time>2011-10-16T15:57:51Z</time>
      </trkpt>
      <trkpt lat="45.21144" lon="5.73129">
        <ele>736.8</ele>
        <time>2011-10-16T15:57:53Z</time>
      </trkpt>
      <trkpt lat="45.21138" lon="5.73123">
        <ele>735.8</ele>
        <time>2011-10-16T15:57:55Z</time>
      </trkpt>
      <trkpt lat="45.2113" lon="5.73122">
        <ele>735</ele>
        <time>2011-10-16T15:57:57Z</time>
      </trkpt>
      <trkpt lat="45.21125" lon="5.73122">
        <ele>734.5</ele>
        <time>2011-10-16T15:57:58Z</time>
      </trkpt>
      <trkpt lat="45.2112" lon="5.73124">
        <ele>733.9</ele>
        <time>2011-10-16T15:57:59Z</time>
      </trkpt>
      <trkpt lat="45.21114" lon="5.73128">
        <ele>733.2</ele>
        <time>2011-10-16T15:58:00Z</time>
      </trkpt>
      <trkpt lat="45.2111" lon="5.7313">
        <ele>732.5</ele>
        <time>2011-10-16T15:58:01Z</time>
      </trkpt>
      <trkpt lat="45.21104" lon="5.73137">
        <ele>731.2</ele>
        <time>2011-10-16T15:58:03Z</time>
      </trkpt>
      <trkpt lat="45.21106" lon="5.73144">
        <ele>728.3</ele>
        <time>2011-10-16T15:58:06Z</time>
      </trkpt>
      <trkpt lat="45.21113" lon="5.73144">
        <ele>727.1</ele>
        <time>2011-10-16T15:58:08Z</time>
      </trkpt>
      <trkpt lat="45.21117" lon="5.73144">
        <ele>725.7</ele>
        <time>2011-10-16T15:58:12Z</time>
      </trkpt>
      <trkpt lat="45.21122" lon="5.73144">
        <ele>722.6</ele>
        <time>2011-10-16T15:59:03Z</time>
      </trkpt>
      <trkpt lat="45.21127" lon="5.73146">
        <ele>722.2</ele>
        <time>2011-10-16T15:59:06Z</time>
      </trkpt>
      <trkpt lat="45.21132" lon="5.73147">
        <ele>721.1</ele>
        <time>2011-10-16T15:59:12Z</time>
      </trkpt>
      <trkpt lat="45.21129" lon="5.73153">
        <ele>719.8</ele>
        <time>2011-10-16T15:59:21Z</time>
      </trkpt>
      <trkpt lat="45.21123" lon="5.73156">
        <ele>719.8</ele>
        <time>2011-10-16T15:59:23Z</time>
      </trkpt>
      <trkpt lat="45.21115" lon="5.73159">
        <ele>719.4</ele>
        <time>2011-10-16T15:59:25Z</time>
      </trkpt>
      <trkpt lat="45.21108" lon="5.7316">
        <ele>718.8</ele>
        <time>2011-10-16T15:59:27Z</time>
      </trkpt>
      <trkpt lat="45.211" lon="5.73158">
        <ele>718</ele>
        <time>2011-10-16T15:59:29Z</time>
      </trkpt>
      <trkpt lat="45.21096" lon="5.73155">
        <ele>717.2</ele>
        <time>2011-10-16T15:59:30Z</time>
      </trkpt>
      <trkpt lat="45.21091" lon="5.73151">
        <ele>716.5</ele>
        <time>2011-10-16T15:59:31Z</time>
      </trkpt>
      <trkpt lat="45.21083" lon="5.73147">
        <ele>716.5</ele>
        <time>2011-10-16T15:59:33Z</time>
      </trkpt>
      <trkpt lat="45.21078" lon="5.73143">
        <ele>716.4</ele>
        <time>2011-10-16T15:59:35Z</time>
      </trkpt>
      <trkpt lat="45.21073" lon="5.73139">
        <ele>716.4</ele>
        <time>2011-10-16T15:59:37Z</time>
      </trkpt>
      <trkpt lat="45.21067" lon="5.73138">
        <ele>716.3</ele>
        <time>2011-10-16T15:59:39Z</time>
      </trkpt>
      <trkpt lat="45.21059" lon="5.73139">
        <ele>715.9</ele>
        <time>2011-10-16T15:59:41Z</time>
      </trkpt>
      <trkpt lat="45.21052" lon="5.73139">
        <ele>715.6</ele>
        <time>2011-10-16T15:59:43Z</time>
      </trkpt>
      <trkpt lat="45.21044" lon="5.73138">
        <ele>715.1</ele>
        <time>2011-10-16T15:59:45Z</time>
      </trkpt>
      <trkpt lat="45.2104" lon="5.73137">
        <ele>714.6</ele>
        <time>2011-10-16T15:59:46Z</time>
      </trkpt>
      <trkpt lat="45.21035" lon="5.73135">
        <ele>714.4</ele>
        <time>2011-10-16T15:59:47Z</time>
      </trkpt>
      <trkpt lat="45.21028" lon="5.73133">
        <ele>713.8</ele>
        <time>2011-10-16T15:59:49Z</time>
      </trkpt>
      <trkpt lat="45.21022" lon="5.73129">
        <ele>713.9</ele>
        <time>2011-10-16T15:59:51Z</time>
      </trkpt>
      <trkpt lat="45.21017" lon="5.73127">
        <ele>713.7</ele>
        <time>2011-10-16T15:59:53Z</time>
      </trkpt>
      <trkpt lat="45.21012" lon="5.73129">
        <ele>713.4</ele>
        <time>2011-10-16T15:59:56Z</time>
      </trkpt>
      <trkpt lat="45.21007" lon="5.73132">
        <ele>713</ele>
        <time>2011-10-16T15:59:58Z</time>
      </trkpt>
      <trkpt lat="45.21003" lon="5.73138">
        <ele>712</ele>
        <time>2011-10-16T16:00:01Z</time>
      </trkpt>
      <trkpt lat="45.20997" lon="5.73142">
        <ele>711.1</ele>
        <time>2011-10-16T16:00:03Z</time>
      </trkpt>
      <trkpt lat="45.2099" lon="5.73146">
        <ele>709.9</ele>
        <time>2011-10-16T16:00:05Z</time>
      </trkpt>
      <trkpt lat="45.20985" lon="5.73148">
        <ele>707.4</ele>
        <time>2011-10-16T16:00:07Z</time>
      </trkpt>
      <trkpt lat="45.20982" lon="5.73152">
        <ele>705.6</ele>
        <time>2011-10-16T16:00:10Z</time>
      </trkpt>
      <trkpt lat="45.20987" lon="5.73149">
        <ele>699.7</ele>
        <time>2011-10-16T16:00:19Z</time>
      </trkpt>
      <trkpt lat="45.20992" lon="5.73146">
        <ele>698.5</ele>
        <time>2011-10-16T16:00:21Z</time>
      </trkpt>
      <trkpt lat="45.21" lon="5.73144">
        <ele>697.3</ele>
        <time>2011-10-16T16:00:23Z</time>
      </trkpt>
      <trkpt lat="45.21005" lon="5.73142">
        <ele>696.8</ele>
        <time>2011-10-16T16:00:25Z</time>
      </trkpt>
      <trkpt lat="45.2101" lon="5.73142">
        <ele>696.3</ele>
        <time>2011-10-16T16:00:27Z</time>
      </trkpt>
      <trkpt lat="45.21016" lon="5.73142">
        <ele>695.6</ele>
        <time>2011-10-16T16:00:30Z</time>
      </trkpt>
      <trkpt lat="45.2102" lon="5.73145">
        <ele>694.5</ele>
        <time>2011-10-16T16:00:43Z</time>
      </trkpt>
      <trkpt lat="45.21023" lon="5.7315">
        <ele>694.1</ele>
        <time>2011-10-16T16:00:45Z</time>
      </trkpt>
      <trkpt lat="45.21028" lon="5.73156">
        <ele>693.4</ele>
        <time>2011-10-16T16:00:47Z</time>
      </trkpt>
      <trkpt lat="45.21036" lon="5.73163">
        <ele>691.7</ele>
        <time>2011-10-16T16:00:49Z</time>
      </trkpt>
      <trkpt lat="45.21042" lon="5.7317">
        <ele>690.8</ele>
        <time>2011-10-16T16:00:51Z</time>
      </trkpt>
      <trkpt lat="45.2105" lon="5.73175">
        <ele>689.6</ele>
        <time>2011-10-16T16:00:53Z</time>
      </trkpt>
      <trkpt lat="45.21056" lon="5.73184">
        <ele>688.9</ele>
        <time>2011-10-16T16:00:55Z</time>
      </trkpt>
      <trkpt lat="45.21059" lon="5.73189">
        <ele>688.4</ele>
        <time>2011-10-16T16:00:56Z</time>
      </trkpt>
      <trkpt lat="45.21063" lon="5.73195">
        <ele>687.8</ele>
        <time>2011-10-16T16:00:57Z</time>
      </trkpt>
      <trkpt lat="45.21066" lon="5.73201">
        <ele>687.2</ele>
        <time>2011-10-16T16:00:58Z</time>
      </trkpt>
      <trkpt lat="45.21069" lon="5.73207">
        <ele>686.7</ele>
        <time>2011-10-16T16:00:59Z</time>
      </trkpt>
      <trkpt lat="45.21072" lon="5.73213">
        <ele>686.4</ele>
        <time>2011-10-16T16:01:00Z</time>
      </trkpt>
      <trkpt lat="45.21076" lon="5.73218">
        <ele>685.9</ele>
        <time>2011-10-16T16:01:01Z</time>
      </trkpt>
      <trkpt lat="45.21081" lon="5.73226">
        <ele>684.6</ele>
        <time>2011-10-16T16:01:03Z</time>
      </trkpt>
      <trkpt lat="45.21082" lon="5.73234">
        <ele>683.4</ele>
        <time>2011-10-16T16:01:05Z</time>
      </trkpt>
      <trkpt lat="45.21075" lon="5.73228">
        <ele>680.3</ele>
        <time>2011-10-16T16:01:08Z</time>
      </trkpt>
      <trkpt lat="45.2107" lon="5.73223">
        <ele>679.3</ele>
        <time>2011-10-16T16:01:09Z</time>
      </trkpt>
      <trkpt lat="45.21065" lon="5.73216">
        <ele>678.1</ele>
        <time>2011-10-16T16:01:10Z</time>
      </trkpt>
      <trkpt lat="45.21059" lon="5.73211">
        <ele>677.2</ele>
        <time>2011-10-16T16:01:11Z</time>
      </trkpt>
      <trkpt lat="45.21054" lon="5.73207">
        <ele>677</ele>
        <time>2011-10-16T16:01:12Z</time>
      </trkpt>
      <trkpt lat="45.21049" lon="5.73204">
        <ele>676.3</ele>
        <time>2011-10-16T16:01:13Z</time>
      </trkpt>
      <trkpt lat="45.21044" lon="5.73204">
        <ele>675.7</ele>
        <time>2011-10-16T16:01:14Z</time>
      </trkpt>
      <trkpt lat="45.2104" lon="5.73204">
        <ele>675.4</ele>
        <time>2011-10-16T16:01:15Z</time>
      </trkpt>
      <trkpt lat="45.21034" lon="5.73203">
        <ele>674.8</ele>
        <time>2011-10-16T16:01:16Z</time>
      </trkpt>
      <trkpt lat="45.21029" lon="5.73201">
        <ele>674.5</ele>
        <time>2011-10-16T16:01:17Z</time>
      </trkpt>
      <trkpt lat="45.21024" lon="5.73199">
        <ele>674</ele>
        <time>2011-10-16T16:01:18Z</time>
      </trkpt>
      <trkpt lat="45.21016" lon="5.73195">
        <ele>673.5</ele>
        <time>2011-10-16T16:01:20Z</time>
      </trkpt>
      <trkpt lat="45.21009" lon="5.73192">
        <ele>673.2</ele>
        <time>2011-10-16T16:01:22Z</time>
      </trkpt>
      <trkpt lat="45.21003" lon="5.73192">
        <ele>672.9</ele>
        <time>2011-10-16T16:01:24Z</time>
      </trkpt>
      <trkpt lat="45.20996" lon="5.732">
        <ele>672.1</ele>
        <time>2011-10-16T16:01:26Z</time>
      </trkpt>
      <trkpt lat="45.20989" lon="5.7321">
        <ele>671.5</ele>
        <time>2011-10-16T16:01:28Z</time>
      </trkpt>
      <trkpt lat="45.20985" lon="5.73216">
        <ele>671.2</ele>
        <time>2011-10-16T16:01:29Z</time>
      </trkpt>
      <trkpt lat="45.20982" lon="5.73221">
        <ele>670.6</ele>
        <time>2011-10-16T16:01:30Z</time>
      </trkpt>
      <trkpt lat="45.20976" lon="5.73227">
        <ele>668.7</ele>
        <time>2011-10-16T16:01:32Z</time>
      </trkpt>
      <trkpt lat="45.2097" lon="5.73232">
        <ele>667</ele>
        <time>2011-10-16T16:01:34Z</time>
      </trkpt>
      <trkpt lat="45.20976" lon="5.73224">
        <ele>652.4</ele>
        <time>2011-10-16T16:01:42Z</time>
      </trkpt>
      <trkpt lat="45.20982" lon="5.73223">
        <ele>649.7</ele>
        <time>2011-10-16T16:01:45Z</time>
      </trkpt>
      <trkpt lat="45.20977" lon="5.73227">
        <ele>646.1</ele>
        <time>2011-10-16T16:01:50Z</time>
      </trkpt>
      <trkpt lat="45.20969" lon="5.73229">
        <ele>644.8</ele>
        <time>2011-10-16T16:01:52Z</time>
      </trkpt>
      <trkpt lat="45.2096" lon="5.7323">
        <ele>643.8</ele>
        <time>2011-10-16T16:01:54Z</time>
      </trkpt>
      <trkpt lat="45.20954" lon="5.73232">
        <ele>643.3</ele>
        <time>2011-10-16T16:01:55Z</time>
      </trkpt>
      <trkpt lat="45.20948" lon="5.73235">
        <ele>642.6</ele>
        <time>2011-10-16T16:01:56Z</time>
      </trkpt>
      <trkpt lat="45.20942" lon="5.73237">
        <ele>641.7</ele>
        <time>2011-10-16T16:01:57Z</time>
      </trkpt>
      <trkpt lat="45.20937" lon="5.73238">
        <ele>640.9</ele>
        <time>2011-10-16T16:01:58Z</time>
      </trkpt>
      <trkpt lat="45.20928" lon="5.73237">
        <ele>638.2</ele>
        <time>2011-10-16T16:02:00Z</time>
      </trkpt>
      <trkpt lat="45.20924" lon="5.73234">
        <ele>635.3</ele>
        <time>2011-10-16T16:02:03Z</time>
      </trkpt>
      <trkpt lat="45.20928" lon="5.73236">
        <ele>632.8</ele>
        <time>2011-10-16T16:02:07Z</time>
      </trkpt>
      <trkpt lat="45.20935" lon="5.73239">
        <ele>632.3</ele>
        <time>2011-10-16T16:02:09Z</time>
      </trkpt>
      <trkpt lat="45.2094" lon="5.73241">
        <ele>631.6</ele>
        <time>2011-10-16T16:02:10Z</time>
      </trkpt>
      <trkpt lat="45.20945" lon="5.73241">
        <ele>631.1</ele>
        <time>2011-10-16T16:02:11Z</time>
      </trkpt>
      <trkpt lat="45.20949" lon="5.73242">
        <ele>630.7</ele>
        <time>2011-10-16T16:02:12Z</time>
      </trkpt>
      <trkpt lat="45.20955" lon="5.73244">
        <ele>630</ele>
        <time>2011-10-16T16:02:13Z</time>
      </trkpt>
      <trkpt lat="45.20961" lon="5.73246">
        <ele>629.1</ele>
        <time>2011-10-16T16:02:14Z</time>
      </trkpt>
      <trkpt lat="45.20967" lon="5.73248">
        <ele>628.3</ele>
        <time>2011-10-16T16:02:15Z</time>
      </trkpt>
      <trkpt lat="45.20972" lon="5.7325">
        <ele>627.6</ele>
        <time>2011-10-16T16:02:16Z</time>
      </trkpt>
      <trkpt lat="45.20979" lon="5.73253">
        <ele>626.7</ele>
        <time>2011-10-16T16:02:18Z</time>
      </trkpt>
      <trkpt lat="45.20983" lon="5.73256">
        <ele>624.8</ele>
        <time>2011-10-16T16:02:22Z</time>
      </trkpt>
      <trkpt lat="45.20976" lon="5.7326">
        <ele>622.9</ele>
        <time>2011-10-16T16:02:26Z</time>
      </trkpt>
      <trkpt lat="45.2097" lon="5.73262">
        <ele>621.9</ele>
        <time>2011-10-16T16:02:28Z</time>
      </trkpt>
      <trkpt lat="45.20962" lon="5.73263">
        <ele>621.1</ele>
        <time>2011-10-16T16:02:30Z</time>
      </trkpt>
      <trkpt lat="45.20953" lon="5.73265">
        <ele>620.1</ele>
        <time>2011-10-16T16:02:32Z</time>
      </trkpt>
      <trkpt lat="45.20949" lon="5.73267">
        <ele>619.7</ele>
        <time>2011-10-16T16:02:33Z</time>
      </trkpt>
      <trkpt lat="45.20944" lon="5.73269">
        <ele>619.2</ele>
        <time>2011-10-16T16:02:34Z</time>
      </trkpt>
      <trkpt lat="45.20939" lon="5.7327">
        <ele>618.6</ele>
        <time>2011-10-16T16:02:35Z</time>
      </trkpt>
      <trkpt lat="45.20934" lon="5.7327">
        <ele>618</ele>
        <time>2011-10-16T16:02:36Z</time>
      </trkpt>
      <trkpt lat="45.20928" lon="5.7327">
        <ele>617.2</ele>
        <time>2011-10-16T16:02:37Z</time>
      </trkpt>
      <trkpt lat="45.20922" lon="5.7327">
        <ele>616.6</ele>
        <time>2011-10-16T16:02:38Z</time>
      </trkpt>
      <trkpt lat="45.20915" lon="5.73268">
        <ele>615.2</ele>
        <time>2011-10-16T16:02:39Z</time>
      </trkpt>
      <trkpt lat="45.2091" lon="5.73267">
        <ele>614.1</ele>
        <time>2011-10-16T16:02:40Z</time>
      </trkpt>
      <trkpt lat="45.20905" lon="5.73265">
        <ele>613.1</ele>
        <time>2011-10-16T16:02:41Z</time>
      </trkpt>
      <trkpt lat="45.20899" lon="5.73264">
        <ele>611.9</ele>
        <time>2011-10-16T16:02:43Z</time>
      </trkpt>
      <trkpt lat="45.20904" lon="5.73266">
        <ele>610.3</ele>
        <time>2011-10-16T16:02:46Z</time>
      </trkpt>
      <trkpt lat="45.20908" lon="5.73268">
        <ele>608.9</ele>
        <time>2011-10-16T16:02:47Z</time>
      </trkpt>
      <trkpt lat="45.20914" lon="5.73271">
        <ele>608.4</ele>
        <time>2011-10-16T16:02:48Z</time>
      </trkpt>
      <trkpt lat="45.2092" lon="5.73276">
        <ele>607.8</ele>
        <time>2011-10-16T16:02:49Z</time>
      </trkpt>
      <trkpt lat="45.20926" lon="5.7328">
        <ele>607.3</ele>
        <time>2011-10-16T16:02:50Z</time>
      </trkpt>
      <trkpt lat="45.20931" lon="5.73284">
        <ele>606.5</ele>
        <time>2011-10-16T16:02:51Z</time>
      </trkpt>
      <trkpt lat="45.20936" lon="5.73288">
        <ele>606</ele>
        <time>2011-10-16T16:02:52Z</time>
      </trkpt>
      <trkpt lat="45.2094" lon="5.73292">
        <ele>605.3</ele>
        <time>2011-10-16T16:02:53Z</time>
      </trkpt>
      <trkpt lat="45.20945" lon="5.73297">
        <ele>602.1</ele>
        <time>2011-10-16T16:02:54Z</time>
      </trkpt>
      <trkpt lat="45.2095" lon="5.73299">
        <ele>601</ele>
        <time>2011-10-16T16:02:55Z</time>
      </trkpt>
      <trkpt lat="45.20955" lon="5.73301">
        <ele>600.3</ele>
        <time>2011-10-16T16:02:56Z</time>
      </trkpt>
      <trkpt lat="45.2096" lon="5.73301">
        <ele>599.2</ele>
        <time>2011-10-16T16:02:57Z</time>
      </trkpt>
      <trkpt lat="45.20965" lon="5.73302">
        <ele>598</ele>
        <time>2011-10-16T16:02:58Z</time>
      </trkpt>
      <trkpt lat="45.2097" lon="5.73304">
        <ele>597.3</ele>
        <time>2011-10-16T16:02:59Z</time>
      </trkpt>
      <trkpt lat="45.20975" lon="5.73305">
        <ele>596.3</ele>
        <time>2011-10-16T16:03:00Z</time>
      </trkpt>
      <trkpt lat="45.2098" lon="5.73307">
        <ele>595.2</ele>
        <time>2011-10-16T16:03:01Z</time>
      </trkpt>
      <trkpt lat="45.20986" lon="5.73308">
        <ele>593.2</ele>
        <time>2011-10-16T16:03:03Z</time>
      </trkpt>
      <trkpt lat="45.20978" lon="5.73308">
        <ele>583.8</ele>
        <time>2011-10-16T16:03:11Z</time>
      </trkpt>
      <trkpt lat="45.20969" lon="5.73308">
        <ele>583.1</ele>
        <time>2011-10-16T16:03:13Z</time>
      </trkpt>
      <trkpt lat="45.20964" lon="5.73309">
        <ele>582.8</ele>
        <time>2011-10-16T16:03:14Z</time>
      </trkpt>
      <trkpt lat="45.20959" lon="5.7331">
        <ele>582.5</ele>
        <time>2011-10-16T16:03:15Z</time>
      </trkpt>
      <trkpt lat="45.20954" lon="5.73313">
        <ele>582.1</ele>
        <time>2011-10-16T16:03:16Z</time>
      </trkpt>
      <trkpt lat="45.20949" lon="5.73315">
        <ele>581.7</ele>
        <time>2011-10-16T16:03:17Z</time>
      </trkpt>
      <trkpt lat="45.20945" lon="5.73316">
        <ele>581.4</ele>
        <time>2011-10-16T16:03:18Z</time>
      </trkpt>
      <trkpt lat="45.2094" lon="5.73318">
        <ele>581.1</ele>
        <time>2011-10-16T16:03:19Z</time>
      </trkpt>
      <trkpt lat="45.20931" lon="5.73316">
        <ele>579.8</ele>
        <time>2011-10-16T16:03:21Z</time>
      </trkpt>
      <trkpt lat="45.20925" lon="5.73314">
        <ele>579.4</ele>
        <time>2011-10-16T16:03:22Z</time>
      </trkpt>
      <trkpt lat="45.20919" lon="5.73312">
        <ele>578.8</ele>
        <time>2011-10-16T16:03:23Z</time>
      </trkpt>
      <trkpt lat="45.20912" lon="5.73312">
        <ele>578.1</ele>
        <time>2011-10-16T16:03:24Z</time>
      </trkpt>
      <trkpt lat="45.20906" lon="5.73312">
        <ele>577.5</ele>
        <time>2011-10-16T16:03:25Z</time>
      </trkpt>
      <trkpt lat="45.20899" lon="5.73313">
        <ele>577</ele>
        <time>2011-10-16T16:03:26Z</time>
      </trkpt>
      <trkpt lat="45.20892" lon="5.73314">
        <ele>576.4</ele>
        <time>2011-10-16T16:03:27Z</time>
      </trkpt>
      <trkpt lat="45.20885" lon="5.73316">
        <ele>575.7</ele>
        <time>2011-10-16T16:03:28Z</time>
      </trkpt>
      <trkpt lat="45.20879" lon="5.73317">
        <ele>574.5</ele>
        <time>2011-10-16T16:03:29Z</time>
      </trkpt>
      <trkpt lat="45.20873" lon="5.73319">
        <ele>573.9</ele>
        <time>2011-10-16T16:03:30Z</time>
      </trkpt>
      <trkpt lat="45.20868" lon="5.7332">
        <ele>572.5</ele>
        <time>2011-10-16T16:03:31Z</time>
      </trkpt>
      <trkpt lat="45.20861" lon="5.73319">
        <ele>570.2</ele>
        <time>2011-10-16T16:03:33Z</time>
      </trkpt>
      <trkpt lat="45.20856" lon="5.73316">
        <ele>567.7</ele>
        <time>2011-10-16T16:03:35Z</time>
      </trkpt>
      <trkpt lat="45.20853" lon="5.73311">
        <ele>565.3</ele>
        <time>2011-10-16T16:03:37Z</time>
      </trkpt>
      <trkpt lat="45.20858" lon="5.73321">
        <ele>558.1</ele>
        <time>2011-10-16T16:04:03Z</time>
      </trkpt>
      <trkpt lat="45.20865" lon="5.73325">
        <ele>557.1</ele>
        <time>2011-10-16T16:04:06Z</time>
      </trkpt>
      <trkpt lat="45.20873" lon="5.73329">
        <ele>556.7</ele>
        <time>2011-10-16T16:04:08Z</time>
      </trkpt>
      <trkpt lat="45.20878" lon="5.73332">
        <ele>556.3</ele>
        <time>2011-10-16T16:04:09Z</time>
      </trkpt>
      <trkpt lat="45.20885" lon="5.73335">
        <ele>555.9</ele>
        <time>2011-10-16T16:04:10Z</time>
      </trkpt>
      <trkpt lat="45.20893" lon="5.73338">
        <ele>555.6</ele>
        <time>2011-10-16T16:04:11Z</time>
      </trkpt>
      <trkpt lat="45.20902" lon="5.73342">
        <ele>555.3</ele>
        <time>2011-10-16T16:04:12Z</time>
      </trkpt>
      <trkpt lat="45.2091" lon="5.73347">
        <ele>554.9</ele>
        <time>2011-10-16T16:04:13Z</time>
      </trkpt>
      <trkpt lat="45.2092" lon="5.73352">
        <ele>554.7</ele>
        <time>2011-10-16T16:04:14Z</time>
      </trkpt>
      <trkpt lat="45.20928" lon="5.73356">
        <ele>554.4</ele>
        <time>2011-10-16T16:04:15Z</time>
      </trkpt>
      <trkpt lat="45.20937" lon="5.7336">
        <ele>554.1</ele>
        <time>2011-10-16T16:04:16Z</time>
      </trkpt>
      <trkpt lat="45.20946" lon="5.73364">
        <ele>553.9</ele>
        <time>2011-10-16T16:04:17Z</time>
      </trkpt>
      <trkpt lat="45.20954" lon="5.73366">
        <ele>553.5</ele>
        <time>2011-10-16T16:04:18Z</time>
      </trkpt>
      <trkpt lat="45.20963" lon="5.73368">
        <ele>553</ele>
        <time>2011-10-16T16:04:19Z</time>
      </trkpt>
      <trkpt lat="45.2097" lon="5.73371">
        <ele>552.6</ele>
        <time>2011-10-16T16:04:20Z</time>
      </trkpt>
      <trkpt lat="45.20977" lon="5.73374">
        <ele>552.3</ele>
        <time>2011-10-16T16:04:21Z</time>
      </trkpt>
      <trkpt lat="45.20983" lon="5.73375">
        <ele>552.1</ele>
        <time>2011-10-16T16:04:22Z</time>
      </trkpt>
      <trkpt lat="45.20989" lon="5.73376">
        <ele>551.9</ele>
        <time>2011-10-16T16:04:23Z</time>
      </trkpt>
      <trkpt lat="45.20995" lon="5.73374">
        <ele>551.6</ele>
        <time>2011-10-16T16:04:24Z</time>
      </trkpt>
      <trkpt lat="45.21" lon="5.73371">
        <ele>551.3</ele>
        <time>2011-10-16T16:04:25Z</time>
      </trkpt>
      <trkpt lat="45.21006" lon="5.73368">
        <ele>551</ele>
        <time>2011-10-16T16:04:26Z</time>
      </trkpt>
      <trkpt lat="45.21011" lon="5.73367">
        <ele>550.6</ele>
        <time>2011-10-16T16:04:27Z</time>
      </trkpt>
      <trkpt lat="45.21016" lon="5.73366">
        <ele>550.3</ele>
        <time>2011-10-16T16:04:28Z</time>
      </trkpt>
      <trkpt lat="45.2102" lon="5.73366">
        <ele>549.5</ele>
        <time>2011-10-16T16:04:29Z</time>
      </trkpt>
      <trkpt lat="45.2103" lon="5.73367">
        <ele>548.5</ele>
        <time>2011-10-16T16:04:31Z</time>
      </trkpt>
      <trkpt lat="45.21037" lon="5.73371">
        <ele>547.5</ele>
        <time>2011-10-16T16:04:33Z</time>
      </trkpt>
      <trkpt lat="45.21042" lon="5.73378">
        <ele>546.8</ele>
        <time>2011-10-16T16:04:35Z</time>
      </trkpt>
      <trkpt lat="45.21049" lon="5.73382">
        <ele>546.1</ele>
        <time>2011-10-16T16:04:37Z</time>
      </trkpt>
      <trkpt lat="45.21056" lon="5.73385">
        <ele>545.2</ele>
        <time>2011-10-16T16:04:39Z</time>
      </trkpt>
      <trkpt lat="45.21059" lon="5.73391">
        <ele>544.4</ele>
        <time>2011-10-16T16:04:41Z</time>
      </trkpt>
      <trkpt lat="45.2106" lon="5.73398">
        <ele>543</ele>
        <time>2011-10-16T16:04:43Z</time>
      </trkpt>
      <trkpt lat="45.21063" lon="5.73403">
        <ele>541.4</ele>
        <time>2011-10-16T16:04:45Z</time>
      </trkpt>
      <trkpt lat="45.21066" lon="5.73409">
        <ele>540.7</ele>
        <time>2011-10-16T16:04:47Z</time>
      </trkpt>
      <trkpt lat="45.21065" lon="5.73418">
        <ele>539.3</ele>
        <time>2011-10-16T16:04:49Z</time>
      </trkpt>
      <trkpt lat="45.21065" lon="5.73428">
        <ele>538.1</ele>
        <time>2011-10-16T16:04:51Z</time>
      </trkpt>
      <trkpt lat="45.21067" lon="5.73436">
        <ele>537.6</ele>
        <time>2011-10-16T16:04:53Z</time>
      </trkpt>
      <trkpt lat="45.2107" lon="5.73441">
        <ele>537.2</ele>
        <time>2011-10-16T16:04:55Z</time>
      </trkpt>
      <trkpt lat="45.21073" lon="5.73437">
        <ele>529.7</ele>
        <time>2011-10-16T16:07:00Z</time>
      </trkpt>
      <trkpt lat="45.21077" lon="5.7344">
        <ele>529.8</ele>
        <time>2011-10-16T16:07:19Z</time>
      </trkpt>
      <trkpt lat="45.21083" lon="5.73442">
        <ele>529.8</ele>
        <time>2011-10-16T16:07:21Z</time>
      </trkpt>
      <trkpt lat="45.21089" lon="5.73445">
        <ele>529.8</ele>
        <time>2011-10-16T16:07:23Z</time>
      </trkpt>
      <trkpt lat="45.21096" lon="5.73449">
        <ele>529.8</ele>
        <time>2011-10-16T16:07:25Z</time>
      </trkpt>
      <trkpt lat="45.21101" lon="5.73455">
        <ele>529.8</ele>
        <time>2011-10-16T16:07:27Z</time>
      </trkpt>
      <trkpt lat="45.21107" lon="5.7346">
        <ele>529.6</ele>
        <time>2011-10-16T16:07:29Z</time>
      </trkpt>
      <trkpt lat="45.21113" lon="5.73465">
        <ele>529.5</ele>
        <time>2011-10-16T16:07:31Z</time>
      </trkpt>
      <trkpt lat="45.21119" lon="5.73472">
        <ele>528.7</ele>
        <time>2011-10-16T16:07:33Z</time>
      </trkpt>
      <trkpt lat="45.2112" lon="5.73483">
        <ele>528.8</ele>
        <time>2011-10-16T16:07:35Z</time>
      </trkpt>
      <trkpt lat="45.21117" lon="5.73492">
        <ele>528.9</ele>
        <time>2011-10-16T16:07:36Z</time>
      </trkpt>
      <trkpt lat="45.21114" lon="5.73502">
        <ele>528.8</ele>
        <time>2011-10-16T16:07:37Z</time>
      </trkpt>
      <trkpt lat="45.2111" lon="5.73513">
        <ele>528.7</ele>
        <time>2011-10-16T16:07:38Z</time>
      </trkpt>
      <trkpt lat="45.21108" lon="5.73522">
        <ele>528.4</ele>
        <time>2011-10-16T16:07:39Z</time>
      </trkpt>
      <trkpt lat="45.21107" lon="5.73533">
        <ele>528.2</ele>
        <time>2011-10-16T16:07:40Z</time>
      </trkpt>
      <trkpt lat="45.21108" lon="5.73542">
        <ele>527.8</ele>
        <time>2011-10-16T16:07:41Z</time>
      </trkpt>
      <trkpt lat="45.2111" lon="5.7355">
        <ele>527.5</ele>
        <time>2011-10-16T16:07:42Z</time>
      </trkpt>
      <trkpt lat="45.21115" lon="5.73555">
        <ele>527.2</ele>
        <time>2011-10-16T16:07:43Z</time>
      </trkpt>
      <trkpt lat="45.21119" lon="5.7356">
        <ele>526.9</ele>
        <time>2011-10-16T16:07:44Z</time>
      </trkpt>
      <trkpt lat="45.21124" lon="5.73563">
        <ele>526.9</ele>
        <time>2011-10-16T16:07:45Z</time>
      </trkpt>
      <trkpt lat="45.2113" lon="5.73566">
        <ele>527</ele>
        <time>2011-10-16T16:07:46Z</time>
      </trkpt>
      <trkpt lat="45.21136" lon="5.73567">
        <ele>526.9</ele>
        <time>2011-10-16T16:07:47Z</time>
      </trkpt>
      <trkpt lat="45.21141" lon="5.73569">
        <ele>527</ele>
        <time>2011-10-16T16:07:48Z</time>
      </trkpt>
      <trkpt lat="45.21147" lon="5.73571">
        <ele>527.1</ele>
        <time>2011-10-16T16:07:49Z</time>
      </trkpt>
      <trkpt lat="45.21152" lon="5.73574">
        <ele>527.1</ele>
        <time>2011-10-16T16:07:50Z</time>
      </trkpt>
      <trkpt lat="45.21156" lon="5.73578">
        <ele>527</ele>
        <time>2011-10-16T16:07:51Z</time>
      </trkpt>
      <trkpt lat="45.2116" lon="5.73582">
        <ele>526.9</ele>
        <time>2011-10-16T16:07:52Z</time>
      </trkpt>
      <trkpt lat="45.21163" lon="5.73588">
        <ele>526.7</ele>
        <time>2011-10-16T16:07:53Z</time>
      </trkpt>
      <trkpt lat="45.21166" lon="5.73594">
        <ele>526.7</ele>
        <time>2011-10-16T16:07:54Z</time>
      </trkpt>
      <trkpt lat="45.21169" lon="5.73601">
        <ele>526.4</ele>
        <time>2011-10-16T16:07:55Z</time>
      </trkpt>
      <trkpt lat="45.21172" lon="5.73607">
        <ele>526.4</ele>
        <time>2011-10-16T16:07:56Z</time>
      </trkpt>
      <trkpt lat="45.21175" lon="5.73614">
        <ele>526.1</ele>
        <time>2011-10-16T16:07:57Z</time>
      </trkpt>
      <trkpt lat="45.21178" lon="5.7362">
        <ele>525.9</ele>
        <time>2011-10-16T16:07:58Z</time>
      </trkpt>
      <trkpt lat="45.21181" lon="5.73627">
        <ele>525.6</ele>
        <time>2011-10-16T16:07:59Z</time>
      </trkpt>
      <trkpt lat="45.21184" lon="5.73634">
        <ele>525.4</ele>
        <time>2011-10-16T16:08:00Z</time>
      </trkpt>
      <trkpt lat="45.21186" lon="5.73641">
        <ele>525.1</ele>
        <time>2011-10-16T16:08:01Z</time>
      </trkpt>
      <trkpt lat="45.21189" lon="5.73647">
        <ele>524.9</ele>
        <time>2011-10-16T16:08:02Z</time>
      </trkpt>
      <trkpt lat="45.21192" lon="5.73652">
        <ele>524.5</ele>
        <time>2011-10-16T16:08:03Z</time>
      </trkpt>
      <trkpt lat="45.21196" lon="5.73656">
        <ele>524.5</ele>
        <time>2011-10-16T16:08:04Z</time>
      </trkpt>
      <trkpt lat="45.212" lon="5.73663">
        <ele>524.1</ele>
        <time>2011-10-16T16:08:06Z</time>
      </trkpt>
      <trkpt lat="45.212" lon="5.73672">
        <ele>523.3</ele>
        <time>2011-10-16T16:08:08Z</time>
      </trkpt>
      <trkpt lat="45.21198" lon="5.73682">
        <ele>522.9</ele>
        <time>2011-10-16T16:08:10Z</time>
      </trkpt>
      <trkpt lat="45.212" lon="5.73694">
        <ele>522.3</ele>
        <time>2011-10-16T16:08:12Z</time>
      </trkpt>
      <trkpt lat="45.212" lon="5.73702">
        <ele>522.1</ele>
        <time>2011-10-16T16:08:13Z</time>
      </trkpt>
      <trkpt lat="45.212" lon="5.7371">
        <ele>521.8</ele>
        <time>2011-10-16T16:08:14Z</time>
      </trkpt>
      <trkpt lat="45.21199" lon="5.73719">
        <ele>521.3</ele>
        <time>2011-10-16T16:08:15Z</time>
      </trkpt>
      <trkpt lat="45.21197" lon="5.73728">
        <ele>520.7</ele>
        <time>2011-10-16T16:08:16Z</time>
      </trkpt>
      <trkpt lat="45.21196" lon="5.73738">
        <ele>520.1</ele>
        <time>2011-10-16T16:08:17Z</time>
      </trkpt>
      <trkpt lat="45.21194" lon="5.73748">
        <ele>519.6</ele>
        <time>2011-10-16T16:08:18Z</time>
      </trkpt>
      <trkpt lat="45.21194" lon="5.73758">
        <ele>519.1</ele>
        <time>2011-10-16T16:08:19Z</time>
      </trkpt>
      <trkpt lat="45.21195" lon="5.73769">
        <ele>518.1</ele>
        <time>2011-10-16T16:08:20Z</time>
      </trkpt>
      <trkpt lat="45.21197" lon="5.73777">
        <ele>517.1</ele>
        <time>2011-10-16T16:08:21Z</time>
      </trkpt>
      <trkpt lat="45.21199" lon="5.73784">
        <ele>516.3</ele>
        <time>2011-10-16T16:08:22Z</time>
      </trkpt>
      <trkpt lat="45.212" lon="5.73792">
        <ele>515.4</ele>
        <time>2011-10-16T16:08:23Z</time>
      </trkpt>
      <trkpt lat="45.212" lon="5.73799">
        <ele>514.9</ele>
        <time>2011-10-16T16:08:24Z</time>
      </trkpt>
      <trkpt lat="45.21201" lon="5.73806">
        <ele>514.5</ele>
        <time>2011-10-16T16:08:25Z</time>
      </trkpt>
      <trkpt lat="45.212" lon="5.73813">
        <ele>514.1</ele>
        <time>2011-10-16T16:08:26Z</time>
      </trkpt>
      <trkpt lat="45.212" lon="5.7382">
        <ele>513.7</ele>
        <time>2011-10-16T16:08:27Z</time>
      </trkpt>
      <trkpt lat="45.21198" lon="5.73826">
        <ele>513.2</ele>
        <time>2011-10-16T16:08:28Z</time>
      </trkpt>
      <trkpt lat="45.21193" lon="5.73837">
        <ele>512.1</ele>
        <time>2011-10-16T16:08:30Z</time>
      </trkpt>
      <trkpt lat="45.21189" lon="5.7384">
        <ele>511.5</ele>
        <time>2011-10-16T16:08:31Z</time>
      </trkpt>
      <trkpt lat="45.21185" lon="5.73851">
        <ele>510</ele>
        <time>2011-10-16T16:08:33Z</time>
      </trkpt>
      <trkpt lat="45.21178" lon="5.73859">
        <ele>507.4</ele>
        <time>2011-10-16T16:08:35Z</time>
      </trkpt>
      <trkpt lat="45.21171" lon="5.73861">
        <ele>504.5</ele>
        <time>2011-10-16T16:08:37Z</time>
      </trkpt>
      <trkpt lat="45.21166" lon="5.73855">
        <ele>502.6</ele>
        <time>2011-10-16T16:08:38Z</time>
      </trkpt>
      <trkpt lat="45.21164" lon="5.7385">
        <ele>500.6</ele>
        <time>2011-10-16T16:08:39Z</time>
      </trkpt>
      <trkpt lat="45.21158" lon="5.73848">
        <ele>498.1</ele>
        <time>2011-10-16T16:08:41Z</time>
      </trkpt>
      <trkpt lat="45.21154" lon="5.73855">
        <ele>494</ele>
        <time>2011-10-16T16:08:43Z</time>
      </trkpt>
      <trkpt lat="45.21149" lon="5.73862">
        <ele>491.8</ele>
        <time>2011-10-16T16:08:45Z</time>
      </trkpt>
      <trkpt lat="45.21149" lon="5.73872">
        <ele>490</ele>
        <time>2011-10-16T16:08:47Z</time>
      </trkpt>
      <trkpt lat="45.2115" lon="5.73879">
        <ele>489.2</ele>
        <time>2011-10-16T16:08:48Z</time>
      </trkpt>
      <trkpt lat="45.21151" lon="5.73885">
        <ele>488.3</ele>
        <time>2011-10-16T16:08:49Z</time>
      </trkpt>
      <trkpt lat="45.21153" lon="5.73893">
        <ele>487.2</ele>
        <time>2011-10-16T16:08:50Z</time>
      </trkpt>
      <trkpt lat="45.21154" lon="5.73903">
        <ele>485.9</ele>
        <time>2011-10-16T16:08:51Z</time>
      </trkpt>
      <trkpt lat="45.21155" lon="5.73912">
        <ele>484.7</ele>
        <time>2011-10-16T16:08:52Z</time>
      </trkpt>
      <trkpt lat="45.21156" lon="5.73921">
        <ele>483.8</ele>
        <time>2011-10-16T16:08:53Z</time>
      </trkpt>
      <trkpt lat="45.21158" lon="5.7393">
        <ele>483.1</ele>
        <time>2011-10-16T16:08:54Z</time>
      </trkpt>
      <trkpt lat="45.21159" lon="5.7394">
        <ele>482.1</ele>
        <time>2011-10-16T16:08:55Z</time>
      </trkpt>
      <trkpt lat="45.21163" lon="5.7395">
        <ele>481.4</ele>
        <time>2011-10-16T16:08:56Z</time>
      </trkpt>
      <trkpt lat="45.21166" lon="5.7396">
        <ele>480.6</ele>
        <time>2011-10-16T16:08:57Z</time>
      </trkpt>
      <trkpt lat="45.21168" lon="5.73971">
        <ele>479.7</ele>
        <time>2011-10-16T16:08:58Z</time>
      </trkpt>
      <trkpt lat="45.2117" lon="5.7398">
        <ele>478.8</ele>
        <time>2011-10-16T16:08:59Z</time>
      </trkpt>
      <trkpt lat="45.21171" lon="5.73989">
        <ele>477.9</ele>
        <time>2011-10-16T16:09:00Z</time>
      </trkpt>
      <trkpt lat="45.21173" lon="5.73997">
        <ele>477</ele>
        <time>2011-10-16T16:09:01Z</time>
      </trkpt>
      <trkpt lat="45.21175" lon="5.74005">
        <ele>476</ele>
        <time>2011-10-16T16:09:02Z</time>
      </trkpt>
      <trkpt lat="45.21178" lon="5.74012">
        <ele>475.7</ele>
        <time>2011-10-16T16:09:03Z</time>
      </trkpt>
      <trkpt lat="45.21181" lon="5.74019">
        <ele>475.2</ele>
        <time>2011-10-16T16:09:04Z</time>
      </trkpt>
      <trkpt lat="45.21184" lon="5.74025">
        <ele>474.8</ele>
        <time>2011-10-16T16:09:05Z</time>
      </trkpt>
      <trkpt lat="45.21186" lon="5.7403">
        <ele>474.3</ele>
        <time>2011-10-16T16:09:06Z</time>
      </trkpt>
      <trkpt lat="45.2119" lon="5.74036">
        <ele>473.8</ele>
        <time>2011-10-16T16:09:07Z</time>
      </trkpt>
      <trkpt lat="45.21192" lon="5.74042">
        <ele>472.7</ele>
        <time>2011-10-16T16:09:08Z</time>
      </trkpt>
      <trkpt lat="45.21196" lon="5.74052">
        <ele>471.2</ele>
        <time>2011-10-16T16:09:10Z</time>
      </trkpt>
      <trkpt lat="45.21193" lon="5.74061">
        <ele>469.5</ele>
        <time>2011-10-16T16:09:12Z</time>
      </trkpt>
      <trkpt lat="45.21189" lon="5.74069">
        <ele>467</ele>
        <time>2011-10-16T16:09:14Z</time>
      </trkpt>
      <trkpt lat="45.2119" lon="5.74079">
        <ele>465.3</ele>
        <time>2011-10-16T16:09:16Z</time>
      </trkpt>
      <trkpt lat="45.21187" lon="5.7409">
        <ele>464.4</ele>
        <time>2011-10-16T16:09:18Z</time>
      </trkpt>
      <trkpt lat="45.21185" lon="5.741">
        <ele>461.8</ele>
        <time>2011-10-16T16:09:20Z</time>
      </trkpt>
      <trkpt lat="45.21183" lon="5.74109">
        <ele>459.1</ele>
        <time>2011-10-16T16:09:22Z</time>
      </trkpt>
      <trkpt lat="45.21181" lon="5.74116">
        <ele>454.6</ele>
        <time>2011-10-16T16:09:24Z</time>
      </trkpt>
      <trkpt lat="45.21178" lon="5.74122">
        <ele>449.8</ele>
        <time>2011-10-16T16:09:27Z</time>
      </trkpt>
      <trkpt lat="45.21178" lon="5.74133">
        <ele>445.3</ele>
        <time>2011-10-16T16:09:30Z</time>
      </trkpt>
      <trkpt lat="45.21183" lon="5.74142">
        <ele>444.3</ele>
        <time>2011-10-16T16:09:32Z</time>
      </trkpt>
      <trkpt lat="45.21189" lon="5.7415">
        <ele>443.4</ele>
        <time>2011-10-16T16:09:34Z</time>
      </trkpt>
      <trkpt lat="45.21193" lon="5.74155">
        <ele>442.5</ele>
        <time>2011-10-16T16:09:36Z</time>
      </trkpt>
      <trkpt lat="45.21198" lon="5.7416">
        <ele>434.8</ele>
        <time>2011-10-16T16:12:20Z</time>
      </trkpt>
      <trkpt lat="45.21204" lon="5.74165">
        <ele>434.3</ele>
        <time>2011-10-16T16:12:22Z</time>
      </trkpt>
      <trkpt lat="45.21211" lon="5.74172">
        <ele>433.9</ele>
        <time>2011-10-16T16:12:24Z</time>
      </trkpt>
      <trkpt lat="45.21216" lon="5.74176">
        <ele>433.6</ele>
        <time>2011-10-16T16:12:25Z</time>
      </trkpt>
      <trkpt lat="45.2122" lon="5.74179">
        <ele>433.4</ele>
        <time>2011-10-16T16:12:26Z</time>
      </trkpt>
      <trkpt lat="45.21225" lon="5.74182">
        <ele>433.4</ele>
        <time>2011-10-16T16:12:27Z</time>
      </trkpt>
      <trkpt lat="45.21231" lon="5.74185">
        <ele>433.3</ele>
        <time>2011-10-16T16:12:28Z</time>
      </trkpt>
      <trkpt lat="45.21236" lon="5.74188">
        <ele>433.3</ele>
        <time>2011-10-16T16:12:29Z</time>
      </trkpt>
      <trkpt lat="45.21241" lon="5.7419">
        <ele>433.3</ele>
        <time>2011-10-16T16:12:30Z</time>
      </trkpt>
      <trkpt lat="45.21247" lon="5.74192">
        <ele>433.3</ele>
        <time>2011-10-16T16:12:31Z</time>
      </trkpt>
      <trkpt lat="45.21252" lon="5.74194">
        <ele>433.3</ele>
        <time>2011-10-16T16:12:32Z</time>
      </trkpt>
      <trkpt lat="45.21256" lon="5.74196">
        <ele>433.2</ele>
        <time>2011-10-16T16:12:33Z</time>
      </trkpt>
      <trkpt lat="45.21263" lon="5.742">
        <ele>433.3</ele>
        <time>2011-10-16T16:12:35Z</time>
      </trkpt>
      <trkpt lat="45.2127" lon="5.74203">
        <ele>433.5</ele>
        <time>2011-10-16T16:12:37Z</time>
      </trkpt>
      <trkpt lat="45.21276" lon="5.74207">
        <ele>433.5</ele>
        <time>2011-10-16T16:12:39Z</time>
      </trkpt>
      <trkpt lat="45.21281" lon="5.74211">
        <ele>433.3</ele>
        <time>2011-10-16T16:12:41Z</time>
      </trkpt>
      <trkpt lat="45.21285" lon="5.74216">
        <ele>433.1</ele>
        <time>2011-10-16T16:12:43Z</time>
      </trkpt>
      <trkpt lat="45.2129" lon="5.7422">
        <ele>433</ele>
        <time>2011-10-16T16:12:45Z</time>
      </trkpt>
      <trkpt lat="45.21293" lon="5.74225">
        <ele>433</ele>
        <time>2011-10-16T16:12:47Z</time>
      </trkpt>
      <trkpt lat="45.21297" lon="5.7423">
        <ele>433.1</ele>
        <time>2011-10-16T16:12:49Z</time>
      </trkpt>
      <trkpt lat="45.213" lon="5.74236">
        <ele>433</ele>
        <time>2011-10-16T16:12:51Z</time>
      </trkpt>
      <trkpt lat="45.21304" lon="5.74244">
        <ele>432.4</ele>
        <time>2011-10-16T16:12:53Z</time>
      </trkpt>
      <trkpt lat="45.21306" lon="5.74252">
        <ele>432.2</ele>
        <time>2011-10-16T16:12:55Z</time>
      </trkpt>
      <trkpt lat="45.2131" lon="5.74261">
        <ele>431.9</ele>
        <time>2011-10-16T16:12:57Z</time>
      </trkpt>
      <trkpt lat="45.21312" lon="5.74272">
        <ele>431.5</ele>
        <time>2011-10-16T16:12:59Z</time>
      </trkpt>
      <trkpt lat="45.21315" lon="5.74284">
        <ele>431.2</ele>
        <time>2011-10-16T16:13:01Z</time>
      </trkpt>
      <trkpt lat="45.21318" lon="5.74295">
        <ele>430.9</ele>
        <time>2011-10-16T16:13:03Z</time>
      </trkpt>
      <trkpt lat="45.2132" lon="5.74306">
        <ele>430.8</ele>
        <time>2011-10-16T16:13:05Z</time>
      </trkpt>
      <trkpt lat="45.21323" lon="5.74316">
        <ele>430.7</ele>
        <time>2011-10-16T16:13:07Z</time>
      </trkpt>
      <trkpt lat="45.21326" lon="5.74327">
        <ele>430.5</ele>
        <time>2011-10-16T16:13:09Z</time>
      </trkpt>
      <trkpt lat="45.2133" lon="5.74338">
        <ele>430.2</ele>
        <time>2011-10-16T16:13:11Z</time>
      </trkpt>
      <trkpt lat="45.21331" lon="5.74344">
        <ele>429.9</ele>
        <time>2011-10-16T16:13:12Z</time>
      </trkpt>
      <trkpt lat="45.21333" lon="5.74351">
        <ele>429.6</ele>
        <time>2011-10-16T16:13:13Z</time>
      </trkpt>
      <trkpt lat="45.21335" lon="5.74358">
        <ele>429.1</ele>
        <time>2011-10-16T16:13:14Z</time>
      </trkpt>
      <trkpt lat="45.21337" lon="5.74365">
        <ele>428.6</ele>
        <time>2011-10-16T16:13:15Z</time>
      </trkpt>
      <trkpt lat="45.2134" lon="5.74373">
        <ele>428.1</ele>
        <time>2011-10-16T16:13:16Z</time>
      </trkpt>
      <trkpt lat="45.21342" lon="5.74379">
        <ele>427.7</ele>
        <time>2011-10-16T16:13:17Z</time>
      </trkpt>
      <trkpt lat="45.21344" lon="5.74385">
        <ele>427.2</ele>
        <time>2011-10-16T16:13:18Z</time>
      </trkpt>
      <trkpt lat="45.21348" lon="5.74396">
        <ele>426.3</ele>
        <time>2011-10-16T16:13:20Z</time>
      </trkpt>
      <trkpt lat="45.21352" lon="5.74401">
        <ele>426.1</ele>
        <time>2011-10-16T16:13:21Z</time>
      </trkpt>
      <trkpt lat="45.21355" lon="5.74404">
        <ele>426</ele>
        <time>2011-10-16T16:13:22Z</time>
      </trkpt>
      <trkpt lat="45.21362" lon="5.7441">
        <ele>425.7</ele>
        <time>2011-10-16T16:13:24Z</time>
      </trkpt>
      <trkpt lat="45.21368" lon="5.74416">
        <ele>425.7</ele>
        <time>2011-10-16T16:13:26Z</time>
      </trkpt>
      <trkpt lat="45.21373" lon="5.74421">
        <ele>425.7</ele>
        <time>2011-10-16T16:13:28Z</time>
      </trkpt>
      <trkpt lat="45.21379" lon="5.74427">
        <ele>425.8</ele>
        <time>2011-10-16T16:13:30Z</time>
      </trkpt>
      <trkpt lat="45.21385" lon="5.74433">
        <ele>425.7</ele>
        <time>2011-10-16T16:13:32Z</time>
      </trkpt>
      <trkpt lat="45.21391" lon="5.74439">
        <ele>425.6</ele>
        <time>2011-10-16T16:13:34Z</time>
      </trkpt>
      <trkpt lat="45.21397" lon="5.74445">
        <ele>425.5</ele>
        <time>2011-10-16T16:13:36Z</time>
      </trkpt>
      <trkpt lat="45.21402" lon="5.7445">
        <ele>425.5</ele>
        <time>2011-10-16T16:13:38Z</time>
      </trkpt>
      <trkpt lat="45.21407" lon="5.74454">
        <ele>425.5</ele>
        <time>2011-10-16T16:13:40Z</time>
      </trkpt>
      <trkpt lat="45.21413" lon="5.74459">
        <ele>425.6</ele>
        <time>2011-10-16T16:13:43Z</time>
      </trkpt>
      <trkpt lat="45.21417" lon="5.74463">
        <ele>426</ele>
        <time>2011-10-16T16:13:45Z</time>
      </trkpt>
      <trkpt lat="45.21422" lon="5.74466">
        <ele>426</ele>
        <time>2011-10-16T16:13:47Z</time>
      </trkpt>
      <trkpt lat="45.21428" lon="5.74468">
        <ele>425.8</ele>
        <time>2011-10-16T16:13:49Z</time>
      </trkpt>
      <trkpt lat="45.21434" lon="5.7447">
        <ele>425.9</ele>
        <time>2011-10-16T16:13:51Z</time>
      </trkpt>
      <trkpt lat="45.2144" lon="5.74473">
        <ele>425.9</ele>
        <time>2011-10-16T16:13:53Z</time>
      </trkpt>
      <trkpt lat="45.21446" lon="5.74476">
        <ele>425.8</ele>
        <time>2011-10-16T16:13:55Z</time>
      </trkpt>
      <trkpt lat="45.21452" lon="5.74479">
        <ele>425.9</ele>
        <time>2011-10-16T16:13:57Z</time>
      </trkpt>
      <trkpt lat="45.21458" lon="5.74482">
        <ele>425.9</ele>
        <time>2011-10-16T16:13:59Z</time>
      </trkpt>
      <trkpt lat="45.21464" lon="5.74486">
        <ele>426</ele>
        <time>2011-10-16T16:14:01Z</time>
      </trkpt>
      <trkpt lat="45.2147" lon="5.74489">
        <ele>426.1</ele>
        <time>2011-10-16T16:14:03Z</time>
      </trkpt>
      <trkpt lat="45.21475" lon="5.74492">
        <ele>426.3</ele>
        <time>2011-10-16T16:14:05Z</time>
      </trkpt>
      <trkpt lat="45.2148" lon="5.74496">
        <ele>426.1</ele>
        <time>2011-10-16T16:14:07Z</time>
      </trkpt>
      <trkpt lat="45.21484" lon="5.74499">
        <ele>426.6</ele>
        <time>2011-10-16T16:14:09Z</time>
      </trkpt>
      <trkpt lat="45.2149" lon="5.74503">
        <ele>427.1</ele>
        <time>2011-10-16T16:14:12Z</time>
      </trkpt>
      <trkpt lat="45.21494" lon="5.74505">
        <ele>427.4</ele>
        <time>2011-10-16T16:14:14Z</time>
      </trkpt>
      <trkpt lat="45.21499" lon="5.74507">
        <ele>427.6</ele>
        <time>2011-10-16T16:14:16Z</time>
      </trkpt>
      <trkpt lat="45.21503" lon="5.74509">
        <ele>428</ele>
        <time>2011-10-16T16:14:18Z</time>
      </trkpt>
      <trkpt lat="45.21509" lon="5.74512">
        <ele>428.6</ele>
        <time>2011-10-16T16:14:21Z</time>
      </trkpt>
      <trkpt lat="45.21513" lon="5.74514">
        <ele>429.1</ele>
        <time>2011-10-16T16:14:23Z</time>
      </trkpt>
      <trkpt lat="45.21518" lon="5.74516">
        <ele>429.6</ele>
        <time>2011-10-16T16:14:25Z</time>
      </trkpt>
      <trkpt lat="45.21523" lon="5.74518">
        <ele>430</ele>
        <time>2011-10-16T16:14:27Z</time>
      </trkpt>
      <trkpt lat="45.21529" lon="5.7452">
        <ele>430.4</ele>
        <time>2011-10-16T16:14:30Z</time>
      </trkpt>
      <trkpt lat="45.21535" lon="5.74522">
        <ele>431.3</ele>
        <time>2011-10-16T16:14:33Z</time>
      </trkpt>
      <trkpt lat="45.21539" lon="5.74524">
        <ele>431.3</ele>
        <time>2011-10-16T16:14:35Z</time>
      </trkpt>
      <trkpt lat="45.21544" lon="5.74526">
        <ele>431.1</ele>
        <time>2011-10-16T16:14:37Z</time>
      </trkpt>
      <trkpt lat="45.21552" lon="5.74528">
        <ele>431.2</ele>
        <time>2011-10-16T16:14:39Z</time>
      </trkpt>
      <trkpt lat="45.21556" lon="5.74529">
        <ele>431.4</ele>
        <time>2011-10-16T16:14:40Z</time>
      </trkpt>
      <trkpt lat="45.21561" lon="5.7453">
        <ele>431.7</ele>
        <time>2011-10-16T16:14:41Z</time>
      </trkpt>
      <trkpt lat="45.21567" lon="5.74532">
        <ele>431.7</ele>
        <time>2011-10-16T16:14:42Z</time>
      </trkpt>
      <trkpt lat="45.21572" lon="5.74533">
        <ele>431.6</ele>
        <time>2011-10-16T16:14:43Z</time>
      </trkpt>
      <trkpt lat="45.21577" lon="5.74536">
        <ele>431.3</ele>
        <time>2011-10-16T16:14:44Z</time>
      </trkpt>
      <trkpt lat="45.21582" lon="5.74538">
        <ele>430.9</ele>
        <time>2011-10-16T16:14:45Z</time>
      </trkpt>
      <trkpt lat="45.21586" lon="5.74542">
        <ele>431.2</ele>
        <time>2011-10-16T16:14:46Z</time>
      </trkpt>
      <trkpt lat="45.21589" lon="5.74547">
        <ele>431.5</ele>
        <time>2011-10-16T16:14:47Z</time>
      </trkpt>
      <trkpt lat="45.21588" lon="5.74558">
        <ele>431.2</ele>
        <time>2011-10-16T16:14:49Z</time>
      </trkpt>
      <trkpt lat="45.21583" lon="5.74566">
        <ele>430.8</ele>
        <time>2011-10-16T16:14:50Z</time>
      </trkpt>
      <trkpt lat="45.21578" lon="5.74572">
        <ele>430.3</ele>
        <time>2011-10-16T16:14:51Z</time>
      </trkpt>
      <trkpt lat="45.21571" lon="5.74575">
        <ele>430</ele>
        <time>2011-10-16T16:14:52Z</time>
      </trkpt>
      <trkpt lat="45.21565" lon="5.74579">
        <ele>429.7</ele>
        <time>2011-10-16T16:14:53Z</time>
      </trkpt>
      <trkpt lat="45.21561" lon="5.74583">
        <ele>429.7</ele>
        <time>2011-10-16T16:14:54Z</time>
      </trkpt>
      <trkpt lat="45.21557" lon="5.74588">
        <ele>429.6</ele>
        <time>2011-10-16T16:14:55Z</time>
      </trkpt>
      <trkpt lat="45.21554" lon="5.74593">
        <ele>429.7</ele>
        <time>2011-10-16T16:14:56Z</time>
      </trkpt>
      <trkpt lat="45.21551" lon="5.74602">
        <ele>430.1</ele>
        <time>2011-10-16T16:14:58Z</time>
      </trkpt>
      <trkpt lat="45.21549" lon="5.7461">
        <ele>430.7</ele>
        <time>2011-10-16T16:15:00Z</time>
      </trkpt>
      <trkpt lat="45.21548" lon="5.74618">
        <ele>431.7</ele>
        <time>2011-10-16T16:15:02Z</time>
      </trkpt>
      <trkpt lat="45.21549" lon="5.74628">
        <ele>432.2</ele>
        <time>2011-10-16T16:15:04Z</time>
      </trkpt>
      <trkpt lat="45.21551" lon="5.74636">
        <ele>432.6</ele>
        <time>2011-10-16T16:15:06Z</time>
      </trkpt>
      <trkpt lat="45.21555" lon="5.74641">
        <ele>433</ele>
        <time>2011-10-16T16:15:08Z</time>
      </trkpt>
      <trkpt lat="45.2156" lon="5.74645">
        <ele>433.2</ele>
        <time>2011-10-16T16:15:10Z</time>
      </trkpt>
      <trkpt lat="45.21566" lon="5.74647">
        <ele>433.3</ele>
        <time>2011-10-16T16:15:12Z</time>
      </trkpt>
      <trkpt lat="45.21571" lon="5.74647">
        <ele>433.6</ele>
        <time>2011-10-16T16:15:14Z</time>
      </trkpt>
      <trkpt lat="45.21576" lon="5.74648">
        <ele>433.9</ele>
        <time>2011-10-16T16:15:16Z</time>
      </trkpt>
      <trkpt lat="45.21582" lon="5.7465">
        <ele>434.3</ele>
        <time>2011-10-16T16:15:18Z</time>
      </trkpt>
      <trkpt lat="45.21586" lon="5.74652">
        <ele>434.6</ele>
        <time>2011-10-16T16:15:20Z</time>
      </trkpt>
      <trkpt lat="45.21591" lon="5.74653">
        <ele>435</ele>
        <time>2011-10-16T16:15:23Z</time>
      </trkpt>
      <trkpt lat="45.21595" lon="5.74656">
        <ele>435.3</ele>
        <time>2011-10-16T16:15:26Z</time>
      </trkpt>
      <trkpt lat="45.21599" lon="5.74659">
        <ele>436.2</ele>
        <time>2011-10-16T16:15:29Z</time>
      </trkpt>
      <trkpt lat="45.21605" lon="5.74663">
        <ele>436.6</ele>
        <time>2011-10-16T16:15:32Z</time>
      </trkpt>
      <trkpt lat="45.21608" lon="5.74667">
        <ele>437.4</ele>
        <time>2011-10-16T16:15:34Z</time>
      </trkpt>
      <trkpt lat="45.21613" lon="5.74673">
        <ele>437.9</ele>
        <time>2011-10-16T16:15:37Z</time>
      </trkpt>
      <trkpt lat="45.21619" lon="5.74678">
        <ele>438.4</ele>
        <time>2011-10-16T16:15:40Z</time>
      </trkpt>
      <trkpt lat="45.21624" lon="5.74683">
        <ele>438.9</ele>
        <time>2011-10-16T16:15:43Z</time>
      </trkpt>
      <trkpt lat="45.21628" lon="5.74686">
        <ele>439.2</ele>
        <time>2011-10-16T16:15:45Z</time>
      </trkpt>
      <trkpt lat="45.21633" lon="5.74689">
        <ele>439.4</ele>
        <time>2011-10-16T16:15:47Z</time>
      </trkpt>
      <trkpt lat="45.21637" lon="5.74692">
        <ele>439.7</ele>
        <time>2011-10-16T16:15:49Z</time>
      </trkpt>
      <trkpt lat="45.21641" lon="5.74695">
        <ele>439.9</ele>
        <time>2011-10-16T16:15:51Z</time>
      </trkpt>
      <trkpt lat="45.21646" lon="5.74698">
        <ele>440</ele>
        <time>2011-10-16T16:15:53Z</time>
      </trkpt>
      <trkpt lat="45.2165" lon="5.747">
        <ele>440</ele>
        <time>2011-10-16T16:15:55Z</time>
      </trkpt>
      <trkpt lat="45.21655" lon="5.74703">
        <ele>439.8</ele>
        <time>2011-10-16T16:15:57Z</time>
      </trkpt>
      <trkpt lat="45.2166" lon="5.74706">
        <ele>440.4</ele>
        <time>2011-10-16T16:16:00Z</time>
      </trkpt>
      <trkpt lat="45.21664" lon="5.74708">
        <ele>440.8</ele>
        <time>2011-10-16T16:16:02Z</time>
      </trkpt>
      <trkpt lat="45.21669" lon="5.7471">
        <ele>440.6</ele>
        <time>2011-10-16T16:16:04Z</time>
      </trkpt>
      <trkpt lat="45.21673" lon="5.74713">
        <ele>440.4</ele>
        <time>2011-10-16T16:16:06Z</time>
      </trkpt>
      <trkpt lat="45.21678" lon="5.74716">
        <ele>440.3</ele>
        <time>2011-10-16T16:16:08Z</time>
      </trkpt>
      <trkpt lat="45.21682" lon="5.74719">
        <ele>440</ele>
        <time>2011-10-16T16:16:10Z</time>
      </trkpt>
      <trkpt lat="45.21687" lon="5.74722">
        <ele>439.8</ele>
        <time>2011-10-16T16:16:12Z</time>
      </trkpt>
      <trkpt lat="45.21693" lon="5.74724">
        <ele>439.8</ele>
        <time>2011-10-16T16:16:14Z</time>
      </trkpt>
      <trkpt lat="45.21698" lon="5.74726">
        <ele>439.6</ele>
        <time>2011-10-16T16:16:16Z</time>
      </trkpt>
      <trkpt lat="45.21704" lon="5.74728">
        <ele>439.6</ele>
        <time>2011-10-16T16:16:18Z</time>
      </trkpt>
      <trkpt lat="45.2171" lon="5.74729">
        <ele>439.7</ele>
        <time>2011-10-16T16:16:20Z</time>
      </trkpt>
      <trkpt lat="45.21715" lon="5.74729">
        <ele>440.2</ele>
        <time>2011-10-16T16:16:22Z</time>
      </trkpt>
      <trkpt lat="45.21721" lon="5.74729">
        <ele>440.3</ele>
        <time>2011-10-16T16:16:24Z</time>
      </trkpt>
      <trkpt lat="45.21727" lon="5.74731">
        <ele>440</ele>
        <time>2011-10-16T16:16:26Z</time>
      </trkpt>
      <trkpt lat="45.21733" lon="5.74735">
        <ele>440.2</ele>
        <time>2011-10-16T16:16:28Z</time>
      </trkpt>
      <trkpt lat="45.21739" lon="5.74742">
        <ele>440.3</ele>
        <time>2011-10-16T16:16:30Z</time>
      </trkpt>
      <trkpt lat="45.21741" lon="5.74752">
        <ele>440.3</ele>
        <time>2011-10-16T16:16:32Z</time>
      </trkpt>
      <trkpt lat="45.21742" lon="5.74762">
        <ele>441.1</ele>
        <time>2011-10-16T16:16:34Z</time>
      </trkpt>
      <trkpt lat="45.21742" lon="5.74772">
        <ele>441.5</ele>
        <time>2011-10-16T16:16:36Z</time>
      </trkpt>
      <trkpt lat="45.21742" lon="5.74782">
        <ele>441.4</ele>
        <time>2011-10-16T16:16:38Z</time>
      </trkpt>
      <trkpt lat="45.21742" lon="5.74792">
        <ele>441.7</ele>
        <time>2011-10-16T16:16:40Z</time>
      </trkpt>
      <trkpt lat="45.21741" lon="5.74802">
        <ele>441.7</ele>
        <time>2011-10-16T16:16:42Z</time>
      </trkpt>
      <trkpt lat="45.21741" lon="5.74813">
        <ele>442.3</ele>
        <time>2011-10-16T16:16:44Z</time>
      </trkpt>
      <trkpt lat="45.21742" lon="5.74823">
        <ele>442.8</ele>
        <time>2011-10-16T16:16:46Z</time>
      </trkpt>
      <trkpt lat="45.21742" lon="5.74833">
        <ele>444.1</ele>
        <time>2011-10-16T16:16:48Z</time>
      </trkpt>
      <trkpt lat="45.21742" lon="5.74843">
        <ele>444.3</ele>
        <time>2011-10-16T16:16:50Z</time>
      </trkpt>
      <trkpt lat="45.21743" lon="5.74852">
        <ele>444.5</ele>
        <time>2011-10-16T16:16:52Z</time>
      </trkpt>
      <trkpt lat="45.21745" lon="5.74861">
        <ele>445</ele>
        <time>2011-10-16T16:16:54Z</time>
      </trkpt>
      <trkpt lat="45.21748" lon="5.74868">
        <ele>445.5</ele>
        <time>2011-10-16T16:16:56Z</time>
      </trkpt>
      <trkpt lat="45.2175" lon="5.74874">
        <ele>446</ele>
        <time>2011-10-16T16:16:58Z</time>
      </trkpt>
      <trkpt lat="45.21753" lon="5.74879">
        <ele>446.4</ele>
        <time>2011-10-16T16:17:00Z</time>
      </trkpt>
      <trkpt lat="45.21756" lon="5.74884">
        <ele>447</ele>
        <time>2011-10-16T16:17:02Z</time>
      </trkpt>
      <trkpt lat="45.2176" lon="5.7489">
        <ele>447.4</ele>
        <time>2011-10-16T16:17:04Z</time>
      </trkpt>
      <trkpt lat="45.21763" lon="5.74894">
        <ele>447.8</ele>
        <time>2011-10-16T16:17:06Z</time>
      </trkpt>
      <trkpt lat="45.21766" lon="5.74899">
        <ele>448.2</ele>
        <time>2011-10-16T16:17:08Z</time>
      </trkpt>
      <trkpt lat="45.2177" lon="5.74904">
        <ele>448.7</ele>
        <time>2011-10-16T16:17:11Z</time>
      </trkpt>
      <trkpt lat="45.21775" lon="5.7491">
        <ele>449.3</ele>
        <time>2011-10-16T16:17:15Z</time>
      </trkpt>
      <trkpt lat="45.21778" lon="5.74915">
        <ele>449.7</ele>
        <time>2011-10-16T16:17:18Z</time>
      </trkpt>
      <trkpt lat="45.21781" lon="5.74919">
        <ele>450.3</ele>
        <time>2011-10-16T16:17:21Z</time>
      </trkpt>
      <trkpt lat="45.21784" lon="5.74924">
        <ele>451</ele>
        <time>2011-10-16T16:17:24Z</time>
      </trkpt>
      <trkpt lat="45.21787" lon="5.7493">
        <ele>451.6</ele>
        <time>2011-10-16T16:17:27Z</time>
      </trkpt>
      <trkpt lat="45.21789" lon="5.74936">
        <ele>452.3</ele>
        <time>2011-10-16T16:17:30Z</time>
      </trkpt>
      <trkpt lat="45.2179" lon="5.74942">
        <ele>453</ele>
        <time>2011-10-16T16:17:33Z</time>
      </trkpt>
      <trkpt lat="45.21792" lon="5.74949">
        <ele>453.7</ele>
        <time>2011-10-16T16:17:36Z</time>
      </trkpt>
      <trkpt lat="45.21793" lon="5.74955">
        <ele>454.1</ele>
        <time>2011-10-16T16:17:39Z</time>
      </trkpt>
      <trkpt lat="45.21794" lon="5.74963">
        <ele>454.4</ele>
        <time>2011-10-16T16:17:42Z</time>
      </trkpt>
      <trkpt lat="45.21794" lon="5.74971">
        <ele>454.6</ele>
        <time>2011-10-16T16:17:45Z</time>
      </trkpt>
      <trkpt lat="45.21795" lon="5.74979">
        <ele>454.8</ele>
        <time>2011-10-16T16:17:48Z</time>
      </trkpt>
      <trkpt lat="45.21795" lon="5.74986">
        <ele>455.2</ele>
        <time>2011-10-16T16:17:51Z</time>
      </trkpt>
      <trkpt lat="45.21794" lon="5.74994">
        <ele>455.7</ele>
        <time>2011-10-16T16:17:54Z</time>
      </trkpt>
      <trkpt lat="45.21792" lon="5.75002">
        <ele>456.3</ele>
        <time>2011-10-16T16:17:57Z</time>
      </trkpt>
      <trkpt lat="45.2179" lon="5.7501">
        <ele>456.9</ele>
        <time>2011-10-16T16:18:00Z</time>
      </trkpt>
      <trkpt lat="45.21789" lon="5.7502">
        <ele>456.9</ele>
        <time>2011-10-16T16:18:03Z</time>
      </trkpt>
      <trkpt lat="45.21788" lon="5.75026">
        <ele>456.4</ele>
        <time>2011-10-16T16:18:05Z</time>
      </trkpt>
      <trkpt lat="45.21788" lon="5.75033">
        <ele>456.3</ele>
        <time>2011-10-16T16:18:07Z</time>
      </trkpt>
      <trkpt lat="45.21788" lon="5.7504">
        <ele>456.5</ele>
        <time>2011-10-16T16:18:09Z</time>
      </trkpt>
      <trkpt lat="45.21788" lon="5.75047">
        <ele>456.5</ele>
        <time>2011-10-16T16:18:11Z</time>
      </trkpt>
      <trkpt lat="45.21788" lon="5.75054">
        <ele>456.5</ele>
        <time>2011-10-16T16:18:13Z</time>
      </trkpt>
      <trkpt lat="45.21788" lon="5.75061">
        <ele>456.4</ele>
        <time>2011-10-16T16:18:15Z</time>
      </trkpt>
      <trkpt lat="45.21787" lon="5.75068">
        <ele>456.2</ele>
        <time>2011-10-16T16:18:17Z</time>
      </trkpt>
      <trkpt lat="45.21787" lon="5.75076">
        <ele>456.1</ele>
        <time>2011-10-16T16:18:19Z</time>
      </trkpt>
      <trkpt lat="45.21786" lon="5.75086">
        <ele>455.9</ele>
        <time>2011-10-16T16:18:21Z</time>
      </trkpt>
      <trkpt lat="45.21786" lon="5.75096">
        <ele>455.9</ele>
        <time>2011-10-16T16:18:23Z</time>
      </trkpt>
      <trkpt lat="45.21786" lon="5.75104">
        <ele>456.2</ele>
        <time>2011-10-16T16:18:25Z</time>
      </trkpt>
      <trkpt lat="45.21786" lon="5.75111">
        <ele>456.5</ele>
        <time>2011-10-16T16:18:27Z</time>
      </trkpt>
      <trkpt lat="45.21786" lon="5.75118">
        <ele>456.7</ele>
        <time>2011-10-16T16:18:29Z</time>
      </trkpt>
      <trkpt lat="45.21786" lon="5.75125">
        <ele>457</ele>
        <time>2011-10-16T16:18:31Z</time>
      </trkpt>
      <trkpt lat="45.21786" lon="5.75132">
        <ele>457.2</ele>
        <time>2011-10-16T16:18:33Z</time>
      </trkpt>
      <trkpt lat="45.21786" lon="5.75139">
        <ele>457.5</ele>
        <time>2011-10-16T16:18:35Z</time>
      </trkpt>
      <trkpt lat="45.21786" lon="5.75146">
        <ele>457.8</ele>
        <time>2011-10-16T16:18:37Z</time>
      </trkpt>
      <trkpt lat="45.21786" lon="5.75153">
        <ele>458.1</ele>
        <time>2011-10-16T16:18:39Z</time>
      </trkpt>
      <trkpt lat="45.21786" lon="5.7516">
        <ele>458.3</ele>
        <time>2011-10-16T16:18:41Z</time>
      </trkpt>
      <trkpt lat="45.21787" lon="5.75166">
        <ele>458.6</ele>
        <time>2011-10-16T16:18:43Z</time>
      </trkpt>
      <trkpt lat="45.21788" lon="5.75172">
        <ele>459</ele>
        <time>2011-10-16T16:18:45Z</time>
      </trkpt>
      <trkpt lat="45.21791" lon="5.75178">
        <ele>459.3</ele>
        <time>2011-10-16T16:18:47Z</time>
      </trkpt>
      <trkpt lat="45.21794" lon="5.75182">
        <ele>459.6</ele>
        <time>2011-10-16T16:18:49Z</time>
      </trkpt>
      <trkpt lat="45.21798" lon="5.75186">
        <ele>459.9</ele>
        <time>2011-10-16T16:18:51Z</time>
      </trkpt>
      <trkpt lat="45.21802" lon="5.75189">
        <ele>460.2</ele>
        <time>2011-10-16T16:18:53Z</time>
      </trkpt>
      <trkpt lat="45.21806" lon="5.75191">
        <ele>460.4</ele>
        <time>2011-10-16T16:18:55Z</time>
      </trkpt>
      <trkpt lat="45.2181" lon="5.75193">
        <ele>460.7</ele>
        <time>2011-10-16T16:18:57Z</time>
      </trkpt>
      <trkpt lat="45.21815" lon="5.75194">
        <ele>460.6</ele>
        <time>2011-10-16T16:18:59Z</time>
      </trkpt>
      <trkpt lat="45.2182" lon="5.75195">
        <ele>460.7</ele>
        <time>2011-10-16T16:19:01Z</time>
      </trkpt>
      <trkpt lat="45.21825" lon="5.75196">
        <ele>460.6</ele>
        <time>2011-10-16T16:19:03Z</time>
      </trkpt>
      <trkpt lat="45.2183" lon="5.75197">
        <ele>460.5</ele>
        <time>2011-10-16T16:19:05Z</time>
      </trkpt>
      <trkpt lat="45.21835" lon="5.75197">
        <ele>460.1</ele>
        <time>2011-10-16T16:19:07Z</time>
      </trkpt>
      <trkpt lat="45.2184" lon="5.75198">
        <ele>459.9</ele>
        <time>2011-10-16T16:19:09Z</time>
      </trkpt>
      <trkpt lat="45.21845" lon="5.75199">
        <ele>459.8</ele>
        <time>2011-10-16T16:19:11Z</time>
      </trkpt>
      <trkpt lat="45.2185" lon="5.75199">
        <ele>459.7</ele>
        <time>2011-10-16T16:19:13Z</time>
      </trkpt>
      <trkpt lat="45.21855" lon="5.752">
        <ele>459.9</ele>
        <time>2011-10-16T16:19:15Z</time>
      </trkpt>
      <trkpt lat="45.21859" lon="5.75201">
        <ele>460.1</ele>
        <time>2011-10-16T16:19:17Z</time>
      </trkpt>
      <trkpt lat="45.21864" lon="5.75202">
        <ele>460.4</ele>
        <time>2011-10-16T16:19:19Z</time>
      </trkpt>
      <trkpt lat="45.2187" lon="5.75203">
        <ele>461.1</ele>
        <time>2011-10-16T16:19:22Z</time>
      </trkpt>
      <trkpt lat="45.21876" lon="5.75204">
        <ele>461.1</ele>
        <time>2011-10-16T16:19:25Z</time>
      </trkpt>
      <trkpt lat="45.21882" lon="5.75204">
        <ele>461.8</ele>
        <time>2011-10-16T16:19:28Z</time>
      </trkpt>
      <trkpt lat="45.21886" lon="5.75206">
        <ele>462.1</ele>
        <time>2011-10-16T16:19:30Z</time>
      </trkpt>
      <trkpt lat="45.21891" lon="5.75207">
        <ele>461.7</ele>
        <time>2011-10-16T16:19:32Z</time>
      </trkpt>
      <trkpt lat="45.21896" lon="5.75211">
        <ele>462.3</ele>
        <time>2011-10-16T16:19:35Z</time>
      </trkpt>
      <trkpt lat="45.219" lon="5.75215">
        <ele>463</ele>
        <time>2011-10-16T16:19:38Z</time>
      </trkpt>
      <trkpt lat="45.21905" lon="5.75218">
        <ele>462.8</ele>
        <time>2011-10-16T16:19:40Z</time>
      </trkpt>
      <trkpt lat="45.2191" lon="5.7522">
        <ele>463.3</ele>
        <time>2011-10-16T16:19:42Z</time>
      </trkpt>
      <trkpt lat="45.21915" lon="5.75223">
        <ele>463.4</ele>
        <time>2011-10-16T16:19:44Z</time>
      </trkpt>
      <trkpt lat="45.2192" lon="5.75225">
        <ele>463.1</ele>
        <time>2011-10-16T16:19:46Z</time>
      </trkpt>
      <trkpt lat="45.21926" lon="5.75229">
        <ele>462.6</ele>
        <time>2011-10-16T16:19:48Z</time>
      </trkpt>
      <trkpt lat="45.2193" lon="5.75233">
        <ele>462.5</ele>
        <time>2011-10-16T16:19:50Z</time>
      </trkpt>
      <trkpt lat="45.21934" lon="5.75236">
        <ele>462.5</ele>
        <time>2011-10-16T16:19:52Z</time>
      </trkpt>
      <trkpt lat="45.21938" lon="5.75241">
        <ele>463.3</ele>
        <time>2011-10-16T16:19:54Z</time>
      </trkpt>
      <trkpt lat="45.21941" lon="5.75248">
        <ele>463.6</ele>
        <time>2011-10-16T16:19:56Z</time>
      </trkpt>
      <trkpt lat="45.21943" lon="5.75258">
        <ele>463.9</ele>
        <time>2011-10-16T16:19:58Z</time>
      </trkpt>
      <trkpt lat="45.21944" lon="5.75266">
        <ele>463.5</ele>
        <time>2011-10-16T16:20:00Z</time>
      </trkpt>
      <trkpt lat="45.21942" lon="5.75273">
        <ele>463.5</ele>
        <time>2011-10-16T16:20:02Z</time>
      </trkpt>
      <trkpt lat="45.21936" lon="5.75277">
        <ele>464.2</ele>
        <time>2011-10-16T16:20:04Z</time>
      </trkpt>
      <trkpt lat="45.2193" lon="5.75281">
        <ele>464.8</ele>
        <time>2011-10-16T16:20:06Z</time>
      </trkpt>
      <trkpt lat="45.21925" lon="5.75284">
        <ele>465.3</ele>
        <time>2011-10-16T16:20:08Z</time>
      </trkpt>
      <trkpt lat="45.21919" lon="5.7529">
        <ele>465.7</ele>
        <time>2011-10-16T16:20:10Z</time>
      </trkpt>
      <trkpt lat="45.21914" lon="5.75295">
        <ele>465.8</ele>
        <time>2011-10-16T16:20:12Z</time>
      </trkpt>
      <trkpt lat="45.21909" lon="5.75303">
        <ele>465.7</ele>
        <time>2011-10-16T16:20:14Z</time>
      </trkpt>
      <trkpt lat="45.21903" lon="5.75313">
        <ele>465.8</ele>
        <time>2011-10-16T16:20:16Z</time>
      </trkpt>
      <trkpt lat="45.219" lon="5.75319">
        <ele>465.8</ele>
        <time>2011-10-16T16:20:17Z</time>
      </trkpt>
      <trkpt lat="45.21898" lon="5.75327">
        <ele>465.9</ele>
        <time>2011-10-16T16:20:18Z</time>
      </trkpt>
      <trkpt lat="45.21897" lon="5.75333">
        <ele>465.5</ele>
        <time>2011-10-16T16:20:19Z</time>
      </trkpt>
      <trkpt lat="45.21895" lon="5.75341">
        <ele>464.9</ele>
        <time>2011-10-16T16:20:21Z</time>
      </trkpt>
      <trkpt lat="45.21891" lon="5.75346">
        <ele>463.6</ele>
        <time>2011-10-16T16:21:08Z</time>
      </trkpt>
      <trkpt lat="45.21883" lon="5.75346">
        <ele>462.8</ele>
        <time>2011-10-16T16:21:10Z</time>
      </trkpt>
      <trkpt lat="45.21878" lon="5.75346">
        <ele>462.4</ele>
        <time>2011-10-16T16:21:11Z</time>
      </trkpt>
      <trkpt lat="45.21873" lon="5.75346">
        <ele>462</ele>
        <time>2011-10-16T16:21:12Z</time>
      </trkpt>
      <trkpt lat="45.21867" lon="5.75345">
        <ele>461.5</ele>
        <time>2011-10-16T16:21:13Z</time>
      </trkpt>
      <trkpt lat="45.2186" lon="5.75344">
        <ele>461</ele>
        <time>2011-10-16T16:21:14Z</time>
      </trkpt>
      <trkpt lat="45.21854" lon="5.75343">
        <ele>460.6</ele>
        <time>2011-10-16T16:21:15Z</time>
      </trkpt>
      <trkpt lat="45.21848" lon="5.75342">
        <ele>460.1</ele>
        <time>2011-10-16T16:21:16Z</time>
      </trkpt>
      <trkpt lat="45.21842" lon="5.75342">
        <ele>459.3</ele>
        <time>2011-10-16T16:21:17Z</time>
      </trkpt>
      <trkpt lat="45.21836" lon="5.75341">
        <ele>458.7</ele>
        <time>2011-10-16T16:21:18Z</time>
      </trkpt>
      <trkpt lat="45.21831" lon="5.75341">
        <ele>458.1</ele>
        <time>2011-10-16T16:21:19Z</time>
      </trkpt>
      <trkpt lat="45.21827" lon="5.75342">
        <ele>457.7</ele>
        <time>2011-10-16T16:21:20Z</time>
      </trkpt>
      <trkpt lat="45.21822" lon="5.75342">
        <ele>457.4</ele>
        <time>2011-10-16T16:21:21Z</time>
      </trkpt>
      <trkpt lat="45.21818" lon="5.75343">
        <ele>457.1</ele>
        <time>2011-10-16T16:21:22Z</time>
      </trkpt>
      <trkpt lat="45.21813" lon="5.75345">
        <ele>456.6</ele>
        <time>2011-10-16T16:21:23Z</time>
      </trkpt>
      <trkpt lat="45.21805" lon="5.7535">
        <ele>455.9</ele>
        <time>2011-10-16T16:21:25Z</time>
      </trkpt>
      <trkpt lat="45.21801" lon="5.75354">
        <ele>455.7</ele>
        <time>2011-10-16T16:21:26Z</time>
      </trkpt>
      <trkpt lat="45.21798" lon="5.75359">
        <ele>455.5</ele>
        <time>2011-10-16T16:21:27Z</time>
      </trkpt>
      <trkpt lat="45.21794" lon="5.75366">
        <ele>455.3</ele>
        <time>2011-10-16T16:21:28Z</time>
      </trkpt>
      <trkpt lat="45.2179" lon="5.75374">
        <ele>454.9</ele>
        <time>2011-10-16T16:21:29Z</time>
      </trkpt>
      <trkpt lat="45.21787" lon="5.75383">
        <ele>454.3</ele>
        <time>2011-10-16T16:21:30Z</time>
      </trkpt>
      <trkpt lat="45.21783" lon="5.75392">
        <ele>453.4</ele>
        <time>2011-10-16T16:21:31Z</time>
      </trkpt>
      <trkpt lat="45.21779" lon="5.75402">
        <ele>452.3</ele>
        <time>2011-10-16T16:21:32Z</time>
      </trkpt>
      <trkpt lat="45.21774" lon="5.75412">
        <ele>451.3</ele>
        <time>2011-10-16T16:21:33Z</time>
      </trkpt>
      <trkpt lat="45.21769" lon="5.75422">
        <ele>450.4</ele>
        <time>2011-10-16T16:21:34Z</time>
      </trkpt>
      <trkpt lat="45.21762" lon="5.75431">
        <ele>449.7</ele>
        <time>2011-10-16T16:21:35Z</time>
      </trkpt>
      <trkpt lat="45.21755" lon="5.75439">
        <ele>448.7</ele>
        <time>2011-10-16T16:21:36Z</time>
      </trkpt>
      <trkpt lat="45.21746" lon="5.75446">
        <ele>447.9</ele>
        <time>2011-10-16T16:21:37Z</time>
      </trkpt>
      <trkpt lat="45.21738" lon="5.75451">
        <ele>447.3</ele>
        <time>2011-10-16T16:21:38Z</time>
      </trkpt>
      <trkpt lat="45.2173" lon="5.75455">
        <ele>446.7</ele>
        <time>2011-10-16T16:21:39Z</time>
      </trkpt>
      <trkpt lat="45.21724" lon="5.75458">
        <ele>446.1</ele>
        <time>2011-10-16T16:21:40Z</time>
      </trkpt>
      <trkpt lat="45.21718" lon="5.7546">
        <ele>446.1</ele>
        <time>2011-10-16T16:21:41Z</time>
      </trkpt>
      <trkpt lat="45.21713" lon="5.75462">
        <ele>445.8</ele>
        <time>2011-10-16T16:21:42Z</time>
      </trkpt>
      <trkpt lat="45.21707" lon="5.75463">
        <ele>444.9</ele>
        <time>2011-10-16T16:21:44Z</time>
      </trkpt>
      <trkpt lat="45.21702" lon="5.7546">
        <ele>443.7</ele>
        <time>2011-10-16T16:21:47Z</time>
      </trkpt>
      <trkpt lat="45.21697" lon="5.75461">
        <ele>443.4</ele>
        <time>2011-10-16T16:21:49Z</time>
      </trkpt>
      <trkpt lat="45.21692" lon="5.75466">
        <ele>443.6</ele>
        <time>2011-10-16T16:21:51Z</time>
      </trkpt>
      <trkpt lat="45.21687" lon="5.75471">
        <ele>443.6</ele>
        <time>2011-10-16T16:21:53Z</time>
      </trkpt>
      <trkpt lat="45.21683" lon="5.75476">
        <ele>443.9</ele>
        <time>2011-10-16T16:21:55Z</time>
      </trkpt>
      <trkpt lat="45.2168" lon="5.75482">
        <ele>444.4</ele>
        <time>2011-10-16T16:21:57Z</time>
      </trkpt>
      <trkpt lat="45.21675" lon="5.75487">
        <ele>444.4</ele>
        <time>2011-10-16T16:22:00Z</time>
      </trkpt>
      <trkpt lat="45.2167" lon="5.75491">
        <ele>444.2</ele>
        <time>2011-10-16T16:22:02Z</time>
      </trkpt>
      <trkpt lat="45.21667" lon="5.75496">
        <ele>444.1</ele>
        <time>2011-10-16T16:22:03Z</time>
      </trkpt>
      <trkpt lat="45.21663" lon="5.75501">
        <ele>444</ele>
        <time>2011-10-16T16:22:04Z</time>
      </trkpt>
      <trkpt lat="45.2166" lon="5.75507">
        <ele>443.8</ele>
        <time>2011-10-16T16:22:05Z</time>
      </trkpt>
      <trkpt lat="45.21658" lon="5.75512">
        <ele>443.4</ele>
        <time>2011-10-16T16:22:06Z</time>
      </trkpt>
      <trkpt lat="45.21654" lon="5.75521">
        <ele>441.9</ele>
        <time>2011-10-16T16:22:08Z</time>
      </trkpt>
      <trkpt lat="45.21647" lon="5.75526">
        <ele>440.4</ele>
        <time>2011-10-16T16:22:10Z</time>
      </trkpt>
      <trkpt lat="45.21641" lon="5.75527">
        <ele>439.7</ele>
        <time>2011-10-16T16:22:11Z</time>
      </trkpt>
      <trkpt lat="45.21635" lon="5.75528">
        <ele>439.1</ele>
        <time>2011-10-16T16:22:12Z</time>
      </trkpt>
      <trkpt lat="45.21629" lon="5.75529">
        <ele>438.7</ele>
        <time>2011-10-16T16:22:13Z</time>
      </trkpt>
      <trkpt lat="45.21622" lon="5.75529">
        <ele>438.5</ele>
        <time>2011-10-16T16:22:14Z</time>
      </trkpt>
      <trkpt lat="45.21617" lon="5.75529">
        <ele>438.4</ele>
        <time>2011-10-16T16:22:15Z</time>
      </trkpt>
      <trkpt lat="45.21609" lon="5.75529">
        <ele>437.8</ele>
        <time>2011-10-16T16:22:17Z</time>
      </trkpt>
      <trkpt lat="45.21604" lon="5.75533">
        <ele>436.7</ele>
        <time>2011-10-16T16:22:19Z</time>
      </trkpt>
      <trkpt lat="45.21598" lon="5.75542">
        <ele>435.8</ele>
        <time>2011-10-16T16:22:21Z</time>
      </trkpt>
      <trkpt lat="45.21595" lon="5.75547">
        <ele>435.4</ele>
        <time>2011-10-16T16:22:22Z</time>
      </trkpt>
      <trkpt lat="45.21592" lon="5.75553">
        <ele>435.5</ele>
        <time>2011-10-16T16:22:23Z</time>
      </trkpt>
      <trkpt lat="45.21589" lon="5.7556">
        <ele>435.4</ele>
        <time>2011-10-16T16:22:24Z</time>
      </trkpt>
      <trkpt lat="45.21586" lon="5.75566">
        <ele>435.6</ele>
        <time>2011-10-16T16:22:25Z</time>
      </trkpt>
      <trkpt lat="45.21584" lon="5.75572">
        <ele>435.2</ele>
        <time>2011-10-16T16:22:26Z</time>
      </trkpt>
      <trkpt lat="45.21581" lon="5.75579">
        <ele>434.4</ele>
        <time>2011-10-16T16:22:27Z</time>
      </trkpt>
      <trkpt lat="45.21579" lon="5.75587">
        <ele>433.1</ele>
        <time>2011-10-16T16:22:28Z</time>
      </trkpt>
      <trkpt lat="45.21578" lon="5.75595">
        <ele>432.3</ele>
        <time>2011-10-16T16:22:29Z</time>
      </trkpt>
      <trkpt lat="45.21577" lon="5.75603">
        <ele>431.6</ele>
        <time>2011-10-16T16:22:30Z</time>
      </trkpt>
      <trkpt lat="45.21577" lon="5.75611">
        <ele>431.1</ele>
        <time>2011-10-16T16:22:31Z</time>
      </trkpt>
      <trkpt lat="45.21578" lon="5.75619">
        <ele>430.7</ele>
        <time>2011-10-16T16:22:32Z</time>
      </trkpt>
      <trkpt lat="45.21578" lon="5.75628">
        <ele>430.3</ele>
        <time>2011-10-16T16:22:33Z</time>
      </trkpt>
      <trkpt lat="45.21577" lon="5.75637">
        <ele>429.9</ele>
        <time>2011-10-16T16:22:34Z</time>
      </trkpt>
      <trkpt lat="45.21576" lon="5.75647">
        <ele>429.2</ele>
        <time>2011-10-16T16:22:35Z</time>
      </trkpt>
      <trkpt lat="45.21575" lon="5.75656">
        <ele>428.7</ele>
        <time>2011-10-16T16:22:36Z</time>
      </trkpt>
      <trkpt lat="45.21574" lon="5.75664">
        <ele>428.2</ele>
        <time>2011-10-16T16:22:37Z</time>
      </trkpt>
      <trkpt lat="45.21573" lon="5.75672">
        <ele>427.2</ele>
        <time>2011-10-16T16:22:38Z</time>
      </trkpt>
      <trkpt lat="45.21572" lon="5.75679">
        <ele>426.4</ele>
        <time>2011-10-16T16:22:39Z</time>
      </trkpt>
      <trkpt lat="45.21572" lon="5.75686">
        <ele>425.3</ele>
        <time>2011-10-16T16:22:40Z</time>
      </trkpt>
      <trkpt lat="45.21574" lon="5.75693">
        <ele>424.6</ele>
        <time>2011-10-16T16:22:41Z</time>
      </trkpt>
      <trkpt lat="45.21577" lon="5.75699">
        <ele>423.8</ele>
        <time>2011-10-16T16:22:42Z</time>
      </trkpt>
      <trkpt lat="45.2158" lon="5.75704">
        <ele>423.2</ele>
        <time>2011-10-16T16:22:43Z</time>
      </trkpt>
      <trkpt lat="45.21583" lon="5.75709">
        <ele>422.7</ele>
        <time>2011-10-16T16:22:44Z</time>
      </trkpt>
      <trkpt lat="45.21586" lon="5.75713">
        <ele>422.3</ele>
        <time>2011-10-16T16:22:45Z</time>
      </trkpt>
      <trkpt lat="45.2159" lon="5.75718">
        <ele>422.2</ele>
        <time>2011-10-16T16:22:46Z</time>
      </trkpt>
      <trkpt lat="45.21596" lon="5.75727">
        <ele>422</ele>
        <time>2011-10-16T16:22:48Z</time>
      </trkpt>
      <trkpt lat="45.21602" lon="5.75736">
        <ele>421.9</ele>
        <time>2011-10-16T16:22:50Z</time>
      </trkpt>
      <trkpt lat="45.21606" lon="5.75744">
        <ele>421.4</ele>
        <time>2011-10-16T16:22:52Z</time>
      </trkpt>
      <trkpt lat="45.21611" lon="5.7575">
        <ele>420.9</ele>
        <time>2011-10-16T16:22:54Z</time>
      </trkpt>
      <trkpt lat="45.21617" lon="5.75755">
        <ele>420.5</ele>
        <time>2011-10-16T16:22:56Z</time>
      </trkpt>
      <trkpt lat="45.21622" lon="5.75763">
        <ele>420.4</ele>
        <time>2011-10-16T16:22:58Z</time>
      </trkpt>
      <trkpt lat="45.21627" lon="5.75772">
        <ele>420.3</ele>
        <time>2011-10-16T16:23:00Z</time>
      </trkpt>
      <trkpt lat="45.21632" lon="5.75781">
        <ele>420.3</ele>
        <time>2011-10-16T16:23:02Z</time>
      </trkpt>
      <trkpt lat="45.21636" lon="5.75789">
        <ele>420.4</ele>
        <time>2011-10-16T16:23:04Z</time>
      </trkpt>
      <trkpt lat="45.21639" lon="5.75797">
        <ele>420.7</ele>
        <time>2011-10-16T16:23:06Z</time>
      </trkpt>
      <trkpt lat="45.21641" lon="5.75805">
        <ele>421.2</ele>
        <time>2011-10-16T16:23:08Z</time>
      </trkpt>
      <trkpt lat="45.21643" lon="5.75812">
        <ele>421.6</ele>
        <time>2011-10-16T16:23:10Z</time>
      </trkpt>
      <trkpt lat="45.21644" lon="5.75819">
        <ele>422.1</ele>
        <time>2011-10-16T16:23:12Z</time>
      </trkpt>
      <trkpt lat="45.21644" lon="5.75826">
        <ele>422.6</ele>
        <time>2011-10-16T16:23:14Z</time>
      </trkpt>
      <trkpt lat="45.21643" lon="5.75833">
        <ele>423.1</ele>
        <time>2011-10-16T16:23:16Z</time>
      </trkpt>
      <trkpt lat="45.21642" lon="5.7584">
        <ele>423.6</ele>
        <time>2011-10-16T16:23:18Z</time>
      </trkpt>
      <trkpt lat="45.21641" lon="5.75846">
        <ele>424.1</ele>
        <time>2011-10-16T16:23:20Z</time>
      </trkpt>
      <trkpt lat="45.21638" lon="5.75854">
        <ele>425</ele>
        <time>2011-10-16T16:23:23Z</time>
      </trkpt>
      <trkpt lat="45.21634" lon="5.75861">
        <ele>425.8</ele>
        <time>2011-10-16T16:23:26Z</time>
      </trkpt>
      <trkpt lat="45.21631" lon="5.75868">
        <ele>426.8</ele>
        <time>2011-10-16T16:23:30Z</time>
      </trkpt>
      <trkpt lat="45.21628" lon="5.75875">
        <ele>427.5</ele>
        <time>2011-10-16T16:23:33Z</time>
      </trkpt>
      <trkpt lat="45.21625" lon="5.7588">
        <ele>428.1</ele>
        <time>2011-10-16T16:23:36Z</time>
      </trkpt>
      <trkpt lat="45.21621" lon="5.75885">
        <ele>428.8</ele>
        <time>2011-10-16T16:23:39Z</time>
      </trkpt>
      <trkpt lat="45.21618" lon="5.75891">
        <ele>429.7</ele>
        <time>2011-10-16T16:23:42Z</time>
      </trkpt>
      <trkpt lat="45.21614" lon="5.75896">
        <ele>430.5</ele>
        <time>2011-10-16T16:23:45Z</time>
      </trkpt>
      <trkpt lat="45.21612" lon="5.75902">
        <ele>431.3</ele>
        <time>2011-10-16T16:23:48Z</time>
      </trkpt>
      <trkpt lat="45.21609" lon="5.75907">
        <ele>432.1</ele>
        <time>2011-10-16T16:23:51Z</time>
      </trkpt>
      <trkpt lat="45.21606" lon="5.75912">
        <ele>433.1</ele>
        <time>2011-10-16T16:23:54Z</time>
      </trkpt>
      <trkpt lat="45.21603" lon="5.75918">
        <ele>434.1</ele>
        <time>2011-10-16T16:23:57Z</time>
      </trkpt>
      <trkpt lat="45.216" lon="5.75924">
        <ele>434.6</ele>
        <time>2011-10-16T16:24:00Z</time>
      </trkpt>
      <trkpt lat="45.21598" lon="5.7593">
        <ele>435.2</ele>
        <time>2011-10-16T16:24:03Z</time>
      </trkpt>
      <trkpt lat="45.21596" lon="5.75936">
        <ele>435.6</ele>
        <time>2011-10-16T16:24:06Z</time>
      </trkpt>
      <trkpt lat="45.21593" lon="5.75942">
        <ele>436.5</ele>
        <time>2011-10-16T16:24:09Z</time>
      </trkpt>
      <trkpt lat="45.21592" lon="5.75948">
        <ele>437</ele>
        <time>2011-10-16T16:24:12Z</time>
      </trkpt>
      <trkpt lat="45.21591" lon="5.75954">
        <ele>437.8</ele>
        <time>2011-10-16T16:24:15Z</time>
      </trkpt>
      <trkpt lat="45.2159" lon="5.75961">
        <ele>438.4</ele>
        <time>2011-10-16T16:24:18Z</time>
      </trkpt>
      <trkpt lat="45.2159" lon="5.75969">
        <ele>438.8</ele>
        <time>2011-10-16T16:24:21Z</time>
      </trkpt>
      <trkpt lat="45.21591" lon="5.75976">
        <ele>438.9</ele>
        <time>2011-10-16T16:24:24Z</time>
      </trkpt>
      <trkpt lat="45.21592" lon="5.75984">
        <ele>438.3</ele>
        <time>2011-10-16T16:24:27Z</time>
      </trkpt>
      <trkpt lat="45.21592" lon="5.75991">
        <ele>438.1</ele>
        <time>2011-10-16T16:24:30Z</time>
      </trkpt>
      <trkpt lat="45.21592" lon="5.75999">
        <ele>438.5</ele>
        <time>2011-10-16T16:24:33Z</time>
      </trkpt>
      <trkpt lat="45.21593" lon="5.76007">
        <ele>438.7</ele>
        <time>2011-10-16T16:24:36Z</time>
      </trkpt>
      <trkpt lat="45.21593" lon="5.76015">
        <ele>439.1</ele>
        <time>2011-10-16T16:24:39Z</time>
      </trkpt>
      <trkpt lat="45.21593" lon="5.76023">
        <ele>439.3</ele>
        <time>2011-10-16T16:24:42Z</time>
      </trkpt>
      <trkpt lat="45.21593" lon="5.7603">
        <ele>439.8</ele>
        <time>2011-10-16T16:24:45Z</time>
      </trkpt>
      <trkpt lat="45.21591" lon="5.76038">
        <ele>440.8</ele>
        <time>2011-10-16T16:24:48Z</time>
      </trkpt>
      <trkpt lat="45.2159" lon="5.76045">
        <ele>441.4</ele>
        <time>2011-10-16T16:24:51Z</time>
      </trkpt>
      <trkpt lat="45.2159" lon="5.76053">
        <ele>441.7</ele>
        <time>2011-10-16T16:24:54Z</time>
      </trkpt>
      <trkpt lat="45.21589" lon="5.7606">
        <ele>442</ele>
        <time>2011-10-16T16:24:57Z</time>
      </trkpt>
      <trkpt lat="45.21588" lon="5.76068">
        <ele>442.3</ele>
        <time>2011-10-16T16:25:00Z</time>
      </trkpt>
      <trkpt lat="45.21588" lon="5.76074">
        <ele>442.8</ele>
        <time>2011-10-16T16:25:03Z</time>
      </trkpt>
      <trkpt lat="45.21588" lon="5.76084">
        <ele>444.1</ele>
        <time>2011-10-16T16:25:43Z</time>
      </trkpt>
      <trkpt lat="45.21586" lon="5.76092">
        <ele>443.2</ele>
        <time>2011-10-16T16:25:50Z</time>
      </trkpt>
      <trkpt lat="45.21587" lon="5.761">
        <ele>442.6</ele>
        <time>2011-10-16T16:25:52Z</time>
      </trkpt>
      <trkpt lat="45.21591" lon="5.7611">
        <ele>441.7</ele>
        <time>2011-10-16T16:25:54Z</time>
      </trkpt>
      <trkpt lat="45.21595" lon="5.76118">
        <ele>441.5</ele>
        <time>2011-10-16T16:25:55Z</time>
      </trkpt>
      <trkpt lat="45.216" lon="5.76126">
        <ele>441.2</ele>
        <time>2011-10-16T16:25:56Z</time>
      </trkpt>
      <trkpt lat="45.21605" lon="5.76134">
        <ele>441</ele>
        <time>2011-10-16T16:25:57Z</time>
      </trkpt>
      <trkpt lat="45.2161" lon="5.76141">
        <ele>440.7</ele>
        <time>2011-10-16T16:25:58Z</time>
      </trkpt>
      <trkpt lat="45.21615" lon="5.76148">
        <ele>440.4</ele>
        <time>2011-10-16T16:25:59Z</time>
      </trkpt>
      <trkpt lat="45.2162" lon="5.76156">
        <ele>440.2</ele>
        <time>2011-10-16T16:26:00Z</time>
      </trkpt>
      <trkpt lat="45.21625" lon="5.76163">
        <ele>439.9</ele>
        <time>2011-10-16T16:26:01Z</time>
      </trkpt>
      <trkpt lat="45.21629" lon="5.7617">
        <ele>439.8</ele>
        <time>2011-10-16T16:26:02Z</time>
      </trkpt>
      <trkpt lat="45.21634" lon="5.76176">
        <ele>439.6</ele>
        <time>2011-10-16T16:26:03Z</time>
      </trkpt>
      <trkpt lat="45.21638" lon="5.76182">
        <ele>439.1</ele>
        <time>2011-10-16T16:26:04Z</time>
      </trkpt>
      <trkpt lat="45.21642" lon="5.76188">
        <ele>438.9</ele>
        <time>2011-10-16T16:26:05Z</time>
      </trkpt>
      <trkpt lat="45.21646" lon="5.76194">
        <ele>438.5</ele>
        <time>2011-10-16T16:26:06Z</time>
      </trkpt>
      <trkpt lat="45.21652" lon="5.762">
        <ele>438</ele>
        <time>2011-10-16T16:26:07Z</time>
      </trkpt>
      <trkpt lat="45.21656" lon="5.76206">
        <ele>437.7</ele>
        <time>2011-10-16T16:26:08Z</time>
      </trkpt>
      <trkpt lat="45.2166" lon="5.76212">
        <ele>437.6</ele>
        <time>2011-10-16T16:26:09Z</time>
      </trkpt>
      <trkpt lat="45.21662" lon="5.76218">
        <ele>437.3</ele>
        <time>2011-10-16T16:26:10Z</time>
      </trkpt>
      <trkpt lat="45.21666" lon="5.76227">
        <ele>437</ele>
        <time>2011-10-16T16:26:12Z</time>
      </trkpt>
      <trkpt lat="45.21668" lon="5.76236">
        <ele>437.3</ele>
        <time>2011-10-16T16:26:14Z</time>
      </trkpt>
      <trkpt lat="45.2167" lon="5.76243">
        <ele>437</ele>
        <time>2011-10-16T16:26:16Z</time>
      </trkpt>
      <trkpt lat="45.21672" lon="5.76251">
        <ele>437.1</ele>
        <time>2011-10-16T16:26:18Z</time>
      </trkpt>
      <trkpt lat="45.21675" lon="5.76258">
        <ele>436.6</ele>
        <time>2011-10-16T16:26:21Z</time>
      </trkpt>
      <trkpt lat="45.21677" lon="5.76264">
        <ele>436.3</ele>
        <time>2011-10-16T16:26:23Z</time>
      </trkpt>
      <trkpt lat="45.21676" lon="5.76274">
        <ele>436.4</ele>
        <time>2011-10-16T16:26:26Z</time>
      </trkpt>
      <trkpt lat="45.21674" lon="5.76281">
        <ele>436.6</ele>
        <time>2011-10-16T16:26:28Z</time>
      </trkpt>
      <trkpt lat="45.21672" lon="5.76287">
        <ele>436.9</ele>
        <time>2011-10-16T16:26:30Z</time>
      </trkpt>
      <trkpt lat="45.2167" lon="5.76295">
        <ele>436.5</ele>
        <time>2011-10-16T16:26:32Z</time>
      </trkpt>
      <trkpt lat="45.21669" lon="5.76302">
        <ele>436.4</ele>
        <time>2011-10-16T16:26:34Z</time>
      </trkpt>
      <trkpt lat="45.21669" lon="5.76309">
        <ele>435.8</ele>
        <time>2011-10-16T16:26:37Z</time>
      </trkpt>
      <trkpt lat="45.21669" lon="5.76316">
        <ele>435.9</ele>
        <time>2011-10-16T16:26:40Z</time>
      </trkpt>
      <trkpt lat="45.21669" lon="5.76326">
        <ele>438.2</ele>
        <time>2011-10-16T16:27:05Z</time>
      </trkpt>
      <trkpt lat="45.21665" lon="5.76332">
        <ele>437.9</ele>
        <time>2011-10-16T16:27:07Z</time>
      </trkpt>
      <trkpt lat="45.21662" lon="5.76342">
        <ele>437</ele>
        <time>2011-10-16T16:27:09Z</time>
      </trkpt>
      <trkpt lat="45.21661" lon="5.76353">
        <ele>436.2</ele>
        <time>2011-10-16T16:27:11Z</time>
      </trkpt>
      <trkpt lat="45.21661" lon="5.76359">
        <ele>435.6</ele>
        <time>2011-10-16T16:27:13Z</time>
      </trkpt>
      <trkpt lat="45.2166" lon="5.76369">
        <ele>432.2</ele>
        <time>2011-10-16T16:27:31Z</time>
      </trkpt>
      <trkpt lat="45.21661" lon="5.76378">
        <ele>432.1</ele>
        <time>2011-10-16T16:27:33Z</time>
      </trkpt>
      <trkpt lat="45.21662" lon="5.76388">
        <ele>431.8</ele>
        <time>2011-10-16T16:27:35Z</time>
      </trkpt>
      <trkpt lat="45.21662" lon="5.76395">
        <ele>431.4</ele>
        <time>2011-10-16T16:27:36Z</time>
      </trkpt>
      <trkpt lat="45.21662" lon="5.76403">
        <ele>431.2</ele>
        <time>2011-10-16T16:27:37Z</time>
      </trkpt>
      <trkpt lat="45.21661" lon="5.76411">
        <ele>430.9</ele>
        <time>2011-10-16T16:27:38Z</time>
      </trkpt>
      <trkpt lat="45.21661" lon="5.76419">
        <ele>430.4</ele>
        <time>2011-10-16T16:27:39Z</time>
      </trkpt>
      <trkpt lat="45.2166" lon="5.76427">
        <ele>429.8</ele>
        <time>2011-10-16T16:27:40Z</time>
      </trkpt>
      <trkpt lat="45.21658" lon="5.76438">
        <ele>429</ele>
        <time>2011-10-16T16:27:42Z</time>
      </trkpt>
      <trkpt lat="45.21655" lon="5.76445">
        <ele>427.4</ele>
        <time>2011-10-16T16:27:44Z</time>
      </trkpt>
      <trkpt lat="45.21653" lon="5.76452">
        <ele>426.7</ele>
        <time>2011-10-16T16:27:47Z</time>
      </trkpt>
      <trkpt lat="45.21651" lon="5.76458">
        <ele>425.8</ele>
        <time>2011-10-16T16:27:51Z</time>
      </trkpt>
      <trkpt lat="45.21651" lon="5.76458">
        <ele>425.8</ele>
        <time>2011-10-16T16:27:51Z</time>
      </trkpt>
      <trkpt lat="45.21651" lon="5.76458">
        <ele>425.8</ele>
        <time>2011-10-16T16:27:58Z</time>
      </trkpt>
      <trkpt lat="45.2165" lon="5.76468">
        <ele>422.9</ele>
        <time>2011-10-16T16:27:59Z</time>
      </trkpt>
      <trkpt lat="45.21648" lon="5.76477">
        <ele>421</ele>
        <time>2011-10-16T16:28:03Z</time>
      </trkpt>
      <trkpt lat="45.21648" lon="5.7649">
        <ele>419.4</ele>
        <time>2011-10-16T16:28:05Z</time>
      </trkpt>
      <trkpt lat="45.21648" lon="5.76498">
        <ele>418.5</ele>
        <time>2011-10-16T16:28:06Z</time>
      </trkpt>
      <trkpt lat="45.21649" lon="5.76507">
        <ele>417.8</ele>
        <time>2011-10-16T16:28:07Z</time>
      </trkpt>
      <trkpt lat="45.2165" lon="5.76515">
        <ele>417.3</ele>
        <time>2011-10-16T16:28:08Z</time>
      </trkpt>
      <trkpt lat="45.21651" lon="5.76522">
        <ele>416.9</ele>
        <time>2011-10-16T16:28:09Z</time>
      </trkpt>
      <trkpt lat="45.21652" lon="5.76529">
        <ele>416.3</ele>
        <time>2011-10-16T16:28:10Z</time>
      </trkpt>
      <trkpt lat="45.21652" lon="5.76536">
        <ele>415.8</ele>
        <time>2011-10-16T16:28:11Z</time>
      </trkpt>
      <trkpt lat="45.21654" lon="5.76547">
        <ele>414.7</ele>
        <time>2011-10-16T16:28:13Z</time>
      </trkpt>
      <trkpt lat="45.21657" lon="5.76559">
        <ele>413.4</ele>
        <time>2011-10-16T16:28:15Z</time>
      </trkpt>
      <trkpt lat="45.21659" lon="5.76566">
        <ele>413</ele>
        <time>2011-10-16T16:28:16Z</time>
      </trkpt>
      <trkpt lat="45.21662" lon="5.76572">
        <ele>412.6</ele>
        <time>2011-10-16T16:28:17Z</time>
      </trkpt>
      <trkpt lat="45.21665" lon="5.76579">
        <ele>412.4</ele>
        <time>2011-10-16T16:28:18Z</time>
      </trkpt>
      <trkpt lat="45.21668" lon="5.76586">
        <ele>412.1</ele>
        <time>2011-10-16T16:28:20Z</time>
      </trkpt>
      <trkpt lat="45.21671" lon="5.76591">
        <ele>411.8</ele>
        <time>2011-10-16T16:28:22Z</time>
      </trkpt>
      <trkpt lat="45.21678" lon="5.76598">
        <ele>411.5</ele>
        <time>2011-10-16T16:28:24Z</time>
      </trkpt>
      <trkpt lat="45.21682" lon="5.76602">
        <ele>411.3</ele>
        <time>2011-10-16T16:28:26Z</time>
      </trkpt>
      <trkpt lat="45.21684" lon="5.76608">
        <ele>411.3</ele>
        <time>2011-10-16T16:28:28Z</time>
      </trkpt>
      <trkpt lat="45.21682" lon="5.76614">
        <ele>410</ele>
        <time>2011-10-16T16:28:32Z</time>
      </trkpt>
      <trkpt lat="45.21676" lon="5.76612">
        <ele>410.2</ele>
        <time>2011-10-16T16:28:35Z</time>
      </trkpt>
      <trkpt lat="45.21668" lon="5.7661">
        <ele>410.4</ele>
        <time>2011-10-16T16:28:37Z</time>
      </trkpt>
      <trkpt lat="45.21665" lon="5.76614">
        <ele>408.7</ele>
        <time>2011-10-16T16:28:40Z</time>
      </trkpt>
      <trkpt lat="45.21669" lon="5.76622">
        <ele>407.7</ele>
        <time>2011-10-16T16:28:42Z</time>
      </trkpt>
      <trkpt lat="45.21672" lon="5.76629">
        <ele>406.9</ele>
        <time>2011-10-16T16:28:44Z</time>
      </trkpt>
      <trkpt lat="45.21668" lon="5.76628">
        <ele>406.5</ele>
        <time>2011-10-16T16:28:47Z</time>
      </trkpt>
      <trkpt lat="45.21662" lon="5.76625">
        <ele>407</ele>
        <time>2011-10-16T16:28:49Z</time>
      </trkpt>
      <trkpt lat="45.21655" lon="5.76621">
        <ele>405.6</ele>
        <time>2011-10-16T16:28:51Z</time>
      </trkpt>
      <trkpt lat="45.21659" lon="5.7663">
        <ele>403.6</ele>
        <time>2011-10-16T16:28:54Z</time>
      </trkpt>
      <trkpt lat="45.21663" lon="5.76636">
        <ele>402.4</ele>
        <time>2011-10-16T16:28:55Z</time>
      </trkpt>
      <trkpt lat="45.21666" lon="5.76642">
        <ele>401.3</ele>
        <time>2011-10-16T16:28:56Z</time>
      </trkpt>
      <trkpt lat="45.21669" lon="5.76648">
        <ele>400.7</ele>
        <time>2011-10-16T16:28:57Z</time>
      </trkpt>
      <trkpt lat="45.21664" lon="5.76649">
        <ele>397.9</ele>
        <time>2011-10-16T16:29:01Z</time>
      </trkpt>
      <trkpt lat="45.21656" lon="5.76646">
        <ele>398</ele>
        <time>2011-10-16T16:29:03Z</time>
      </trkpt>
      <trkpt lat="45.21651" lon="5.76644">
        <ele>397.8</ele>
        <time>2011-10-16T16:29:04Z</time>
      </trkpt>
      <trkpt lat="45.21646" lon="5.76642">
        <ele>397.7</ele>
        <time>2011-10-16T16:29:05Z</time>
      </trkpt>
      <trkpt lat="45.21648" lon="5.76651">
        <ele>394.8</ele>
        <time>2011-10-16T16:29:10Z</time>
      </trkpt>
      <trkpt lat="45.21643" lon="5.76651">
        <ele>392.4</ele>
        <time>2011-10-16T16:29:15Z</time>
      </trkpt>
      <trkpt lat="45.2164" lon="5.76656">
        <ele>389.9</ele>
        <time>2011-10-16T16:29:20Z</time>
      </trkpt>
      <trkpt lat="45.21634" lon="5.76656">
        <ele>389.5</ele>
        <time>2011-10-16T16:29:23Z</time>
      </trkpt>
      <trkpt lat="45.21639" lon="5.76663">
        <ele>388.3</ele>
        <time>2011-10-16T16:29:26Z</time>
      </trkpt>
      <trkpt lat="45.21633" lon="5.76666">
        <ele>386.4</ele>
        <time>2011-10-16T16:29:31Z</time>
      </trkpt>
      <trkpt lat="45.21627" lon="5.76666">
        <ele>385.7</ele>
        <time>2011-10-16T16:29:32Z</time>
      </trkpt>
      <trkpt lat="45.2162" lon="5.76665">
        <ele>383.2</ele>
        <time>2011-10-16T16:29:34Z</time>
      </trkpt>
      <trkpt lat="45.21614" lon="5.76658">
        <ele>380.5</ele>
        <time>2011-10-16T16:29:38Z</time>
      </trkpt>
      <trkpt lat="45.21608" lon="5.76651">
        <ele>379.3</ele>
        <time>2011-10-16T16:29:40Z</time>
      </trkpt>
      <trkpt lat="45.21603" lon="5.76647">
        <ele>378.5</ele>
        <time>2011-10-16T16:29:41Z</time>
      </trkpt>
      <trkpt lat="45.21597" lon="5.76641">
        <ele>377.4</ele>
        <time>2011-10-16T16:29:42Z</time>
      </trkpt>
      <trkpt lat="45.2159" lon="5.76633">
        <ele>376.1</ele>
        <time>2011-10-16T16:29:43Z</time>
      </trkpt>
      <trkpt lat="45.21584" lon="5.76628">
        <ele>374.7</ele>
        <time>2011-10-16T16:29:44Z</time>
      </trkpt>
      <trkpt lat="45.21578" lon="5.76623">
        <ele>373.1</ele>
        <time>2011-10-16T16:29:45Z</time>
      </trkpt>
      <trkpt lat="45.21573" lon="5.76618">
        <ele>371.7</ele>
        <time>2011-10-16T16:29:46Z</time>
      </trkpt>
      <trkpt lat="45.21568" lon="5.76614">
        <ele>369.1</ele>
        <time>2011-10-16T16:29:48Z</time>
      </trkpt>
      <trkpt lat="45.21563" lon="5.7661">
        <ele>363</ele>
        <time>2011-10-16T16:29:54Z</time>
      </trkpt>
      <trkpt lat="45.21561" lon="5.76604">
        <ele>358.8</ele>
        <time>2011-10-16T16:29:57Z</time>
      </trkpt>
      <trkpt lat="45.2156" lon="5.76596">
        <ele>354</ele>
        <time>2011-10-16T16:30:12Z</time>
      </trkpt>
      <trkpt lat="45.2156" lon="5.76589">
        <ele>354.4</ele>
        <time>2011-10-16T16:30:14Z</time>
      </trkpt>
      <trkpt lat="45.21562" lon="5.76582">
        <ele>354.1</ele>
        <time>2011-10-16T16:30:16Z</time>
      </trkpt>
      <trkpt lat="45.21563" lon="5.76575">
        <ele>353.4</ele>
        <time>2011-10-16T16:30:19Z</time>
      </trkpt>
      <trkpt lat="45.21566" lon="5.76567">
        <ele>353.3</ele>
        <time>2011-10-16T16:30:22Z</time>
      </trkpt>
      <trkpt lat="45.21568" lon="5.76556">
        <ele>352</ele>
        <time>2011-10-16T16:30:24Z</time>
      </trkpt>
      <trkpt lat="45.21566" lon="5.76543">
        <ele>350.7</ele>
        <time>2011-10-16T16:30:26Z</time>
      </trkpt>
      <trkpt lat="45.21563" lon="5.76536">
        <ele>350.5</ele>
        <time>2011-10-16T16:30:27Z</time>
      </trkpt>
      <trkpt lat="45.21559" lon="5.7653">
        <ele>349.8</ele>
        <time>2011-10-16T16:30:28Z</time>
      </trkpt>
      <trkpt lat="45.21554" lon="5.76524">
        <ele>348.9</ele>
        <time>2011-10-16T16:30:29Z</time>
      </trkpt>
      <trkpt lat="45.2155" lon="5.7652">
        <ele>348.1</ele>
        <time>2011-10-16T16:30:30Z</time>
      </trkpt>
      <trkpt lat="45.21545" lon="5.76512">
        <ele>346.8</ele>
        <time>2011-10-16T16:30:32Z</time>
      </trkpt>
      <trkpt lat="45.21538" lon="5.76503">
        <ele>345.6</ele>
        <time>2011-10-16T16:30:34Z</time>
      </trkpt>
      <trkpt lat="45.21533" lon="5.76494">
        <ele>344.6</ele>
        <time>2011-10-16T16:30:36Z</time>
      </trkpt>
      <trkpt lat="45.2153" lon="5.76486">
        <ele>343.6</ele>
        <time>2011-10-16T16:30:38Z</time>
      </trkpt>
      <trkpt lat="45.21527" lon="5.76478">
        <ele>342.1</ele>
        <time>2011-10-16T16:30:40Z</time>
      </trkpt>
      <trkpt lat="45.21525" lon="5.76472">
        <ele>341</ele>
        <time>2011-10-16T16:30:42Z</time>
      </trkpt>
      <trkpt lat="45.21523" lon="5.76462">
        <ele>339.2</ele>
        <time>2011-10-16T16:30:44Z</time>
      </trkpt>
      <trkpt lat="45.2152" lon="5.76456">
        <ele>338.1</ele>
        <time>2011-10-16T16:30:45Z</time>
      </trkpt>
      <trkpt lat="45.21517" lon="5.76453">
        <ele>337.3</ele>
        <time>2011-10-16T16:30:46Z</time>
      </trkpt>
      <trkpt lat="45.21509" lon="5.76448">
        <ele>334.6</ele>
        <time>2011-10-16T16:30:48Z</time>
      </trkpt>
      <trkpt lat="45.21502" lon="5.76445">
        <ele>331.5</ele>
        <time>2011-10-16T16:30:50Z</time>
      </trkpt>
      <trkpt lat="45.21497" lon="5.76446">
        <ele>328.3</ele>
        <time>2011-10-16T16:30:52Z</time>
      </trkpt>
      <trkpt lat="45.2149" lon="5.76446">
        <ele>325.7</ele>
        <time>2011-10-16T16:30:54Z</time>
      </trkpt>
      <trkpt lat="45.21482" lon="5.76447">
        <ele>323.6</ele>
        <time>2011-10-16T16:30:56Z</time>
      </trkpt>
      <trkpt lat="45.21473" lon="5.76448">
        <ele>319.9</ele>
        <time>2011-10-16T16:30:58Z</time>
      </trkpt>
      <trkpt lat="45.21468" lon="5.76449">
        <ele>318.7</ele>
        <time>2011-10-16T16:30:59Z</time>
      </trkpt>
      <trkpt lat="45.21461" lon="5.7645">
        <ele>317.2</ele>
        <time>2011-10-16T16:31:01Z</time>
      </trkpt>
      <trkpt lat="45.21457" lon="5.76451">
        <ele>316.2</ele>
        <time>2011-10-16T16:31:03Z</time>
      </trkpt>
      <trkpt lat="45.21452" lon="5.76452">
        <ele>303.8</ele>
        <time>2011-10-16T16:33:39Z</time>
      </trkpt>
      <trkpt lat="45.21447" lon="5.76456">
        <ele>303.3</ele>
        <time>2011-10-16T16:33:41Z</time>
      </trkpt>
      <trkpt lat="45.2144" lon="5.76459">
        <ele>301.9</ele>
        <time>2011-10-16T16:33:43Z</time>
      </trkpt>
      <trkpt lat="45.21432" lon="5.76463">
        <ele>300.5</ele>
        <time>2011-10-16T16:33:45Z</time>
      </trkpt>
      <trkpt lat="45.21426" lon="5.76466">
        <ele>299.8</ele>
        <time>2011-10-16T16:33:46Z</time>
      </trkpt>
      <trkpt lat="45.21422" lon="5.76469">
        <ele>298.9</ele>
        <time>2011-10-16T16:33:47Z</time>
      </trkpt>
      <trkpt lat="45.21417" lon="5.76472">
        <ele>298.3</ele>
        <time>2011-10-16T16:33:48Z</time>
      </trkpt>
      <trkpt lat="45.21409" lon="5.76476">
        <ele>297.2</ele>
        <time>2011-10-16T16:33:50Z</time>
      </trkpt>
      <trkpt lat="45.21404" lon="5.7648">
        <ele>295.9</ele>
        <time>2011-10-16T16:33:52Z</time>
      </trkpt>
      <trkpt lat="45.214" lon="5.76483">
        <ele>293.9</ele>
        <time>2011-10-16T16:33:55Z</time>
      </trkpt>
      <trkpt lat="45.21395" lon="5.76486">
        <ele>292.7</ele>
        <time>2011-10-16T16:33:57Z</time>
      </trkpt>
      <trkpt lat="45.2139" lon="5.76492">
        <ele>291.9</ele>
        <time>2011-10-16T16:33:59Z</time>
      </trkpt>
      <trkpt lat="45.21383" lon="5.76501">
        <ele>291</ele>
        <time>2011-10-16T16:34:01Z</time>
      </trkpt>
      <trkpt lat="45.21379" lon="5.76505">
        <ele>290.3</ele>
        <time>2011-10-16T16:34:02Z</time>
      </trkpt>
      <trkpt lat="45.21375" lon="5.7651">
        <ele>289.8</ele>
        <time>2011-10-16T16:34:03Z</time>
      </trkpt>
      <trkpt lat="45.2137" lon="5.76516">
        <ele>289.4</ele>
        <time>2011-10-16T16:34:04Z</time>
      </trkpt>
      <trkpt lat="45.21365" lon="5.76521">
        <ele>289.2</ele>
        <time>2011-10-16T16:34:05Z</time>
      </trkpt>
      <trkpt lat="45.2136" lon="5.76525">
        <ele>288.7</ele>
        <time>2011-10-16T16:34:06Z</time>
      </trkpt>
      <trkpt lat="45.21355" lon="5.7653">
        <ele>288.3</ele>
        <time>2011-10-16T16:34:07Z</time>
      </trkpt>
      <trkpt lat="45.21349" lon="5.76533">
        <ele>288.1</ele>
        <time>2011-10-16T16:34:08Z</time>
      </trkpt>
      <trkpt lat="45.21343" lon="5.76536">
        <ele>287.5</ele>
        <time>2011-10-16T16:34:09Z</time>
      </trkpt>
      <trkpt lat="45.21337" lon="5.76538">
        <ele>287</ele>
        <time>2011-10-16T16:34:10Z</time>
      </trkpt>
      <trkpt lat="45.21332" lon="5.7654">
        <ele>286.5</ele>
        <time>2011-10-16T16:34:11Z</time>
      </trkpt>
      <trkpt lat="45.21326" lon="5.76543">
        <ele>286.4</ele>
        <time>2011-10-16T16:34:12Z</time>
      </trkpt>
      <trkpt lat="45.21321" lon="5.76545">
        <ele>286.3</ele>
        <time>2011-10-16T16:34:13Z</time>
      </trkpt>
      <trkpt lat="45.21316" lon="5.76547">
        <ele>286.1</ele>
        <time>2011-10-16T16:34:14Z</time>
      </trkpt>
      <trkpt lat="45.21311" lon="5.7655">
        <ele>285.8</ele>
        <time>2011-10-16T16:34:15Z</time>
      </trkpt>
      <trkpt lat="45.21306" lon="5.76552">
        <ele>285.4</ele>
        <time>2011-10-16T16:34:16Z</time>
      </trkpt>
      <trkpt lat="45.213" lon="5.76555">
        <ele>285.1</ele>
        <time>2011-10-16T16:34:17Z</time>
      </trkpt>
      <trkpt lat="45.21296" lon="5.76558">
        <ele>285</ele>
        <time>2011-10-16T16:34:18Z</time>
      </trkpt>
      <trkpt lat="45.2129" lon="5.76561">
        <ele>284.9</ele>
        <time>2011-10-16T16:34:19Z</time>
      </trkpt>
      <trkpt lat="45.21286" lon="5.76563">
        <ele>284.7</ele>
        <time>2011-10-16T16:34:20Z</time>
      </trkpt>
      <trkpt lat="45.2128" lon="5.76566">
        <ele>284.8</ele>
        <time>2011-10-16T16:34:21Z</time>
      </trkpt>
      <trkpt lat="45.21275" lon="5.76568">
        <ele>285</ele>
        <time>2011-10-16T16:34:22Z</time>
      </trkpt>
      <trkpt lat="45.2127" lon="5.7657">
        <ele>284.9</ele>
        <time>2011-10-16T16:34:23Z</time>
      </trkpt>
      <trkpt lat="45.21265" lon="5.76573">
        <ele>284.7</ele>
        <time>2011-10-16T16:34:24Z</time>
      </trkpt>
      <trkpt lat="45.2126" lon="5.76575">
        <ele>284.5</ele>
        <time>2011-10-16T16:34:25Z</time>
      </trkpt>
      <trkpt lat="45.21255" lon="5.76577">
        <ele>284.2</ele>
        <time>2011-10-16T16:34:26Z</time>
      </trkpt>
      <trkpt lat="45.21251" lon="5.76579">
        <ele>283.8</ele>
        <time>2011-10-16T16:34:27Z</time>
      </trkpt>
      <trkpt lat="45.21246" lon="5.76581">
        <ele>283.5</ele>
        <time>2011-10-16T16:34:28Z</time>
      </trkpt>
      <trkpt lat="45.21241" lon="5.76583">
        <ele>283.2</ele>
        <time>2011-10-16T16:34:29Z</time>
      </trkpt>
      <trkpt lat="45.21236" lon="5.76585">
        <ele>282.9</ele>
        <time>2011-10-16T16:34:30Z</time>
      </trkpt>
      <trkpt lat="45.21231" lon="5.76587">
        <ele>282.6</ele>
        <time>2011-10-16T16:34:31Z</time>
      </trkpt>
      <trkpt lat="45.21226" lon="5.7659">
        <ele>282.3</ele>
        <time>2011-10-16T16:34:32Z</time>
      </trkpt>
      <trkpt lat="45.21222" lon="5.76592">
        <ele>282.1</ele>
        <time>2011-10-16T16:34:33Z</time>
      </trkpt>
      <trkpt lat="45.21214" lon="5.76595">
        <ele>281.8</ele>
        <time>2011-10-16T16:34:35Z</time>
      </trkpt>
      <trkpt lat="45.21209" lon="5.76597">
        <ele>281.7</ele>
        <time>2011-10-16T16:34:38Z</time>
      </trkpt>
      <trkpt lat="45.21205" lon="5.766">
        <ele>281.7</ele>
        <time>2011-10-16T16:34:52Z</time>
      </trkpt>
      <trkpt lat="45.212" lon="5.76603">
        <ele>281.6</ele>
        <time>2011-10-16T16:34:54Z</time>
      </trkpt>
      <trkpt lat="45.21193" lon="5.76606">
        <ele>281.3</ele>
        <time>2011-10-16T16:34:56Z</time>
      </trkpt>
      <trkpt lat="45.21185" lon="5.7661">
        <ele>281.2</ele>
        <time>2011-10-16T16:34:58Z</time>
      </trkpt>
      <trkpt lat="45.21178" lon="5.76613">
        <ele>281.2</ele>
        <time>2011-10-16T16:35:00Z</time>
      </trkpt>
      <trkpt lat="45.21173" lon="5.76617">
        <ele>280.5</ele>
        <time>2011-10-16T16:36:50Z</time>
      </trkpt>
      <trkpt lat="45.21168" lon="5.7662">
        <ele>280.3</ele>
        <time>2011-10-16T16:36:52Z</time>
      </trkpt>
      <trkpt lat="45.21161" lon="5.76625">
        <ele>279.9</ele>
        <time>2011-10-16T16:36:54Z</time>
      </trkpt>
      <trkpt lat="45.21155" lon="5.76631">
        <ele>279.5</ele>
        <time>2011-10-16T16:36:56Z</time>
      </trkpt>
      <trkpt lat="45.21148" lon="5.76636">
        <ele>278.8</ele>
        <time>2011-10-16T16:36:58Z</time>
      </trkpt>
      <trkpt lat="45.21142" lon="5.76642">
        <ele>278</ele>
        <time>2011-10-16T16:37:00Z</time>
      </trkpt>
      <trkpt lat="45.21135" lon="5.76648">
        <ele>277.6</ele>
        <time>2011-10-16T16:37:02Z</time>
      </trkpt>
      <trkpt lat="45.21127" lon="5.76654">
        <ele>277.4</ele>
        <time>2011-10-16T16:37:04Z</time>
      </trkpt>
      <trkpt lat="45.21119" lon="5.7666">
        <ele>277</ele>
        <time>2011-10-16T16:37:06Z</time>
      </trkpt>
      <trkpt lat="45.21111" lon="5.76666">
        <ele>276.7</ele>
        <time>2011-10-16T16:37:08Z</time>
      </trkpt>
      <trkpt lat="45.21104" lon="5.76672">
        <ele>276.4</ele>
        <time>2011-10-16T16:37:10Z</time>
      </trkpt>
      <trkpt lat="45.21096" lon="5.76678">
        <ele>276</ele>
        <time>2011-10-16T16:37:12Z</time>
      </trkpt>
      <trkpt lat="45.21091" lon="5.76681">
        <ele>275.9</ele>
        <time>2011-10-16T16:37:13Z</time>
      </trkpt>
      <trkpt lat="45.21086" lon="5.76684">
        <ele>275.8</ele>
        <time>2011-10-16T16:37:14Z</time>
      </trkpt>
      <trkpt lat="45.21082" lon="5.76687">
        <ele>275.7</ele>
        <time>2011-10-16T16:37:15Z</time>
      </trkpt>
      <trkpt lat="45.21077" lon="5.76691">
        <ele>275.7</ele>
        <time>2011-10-16T16:37:16Z</time>
      </trkpt>
      <trkpt lat="45.21072" lon="5.76695">
        <ele>275.9</ele>
        <time>2011-10-16T16:37:17Z</time>
      </trkpt>
      <trkpt lat="45.21067" lon="5.76698">
        <ele>276.3</ele>
        <time>2011-10-16T16:37:18Z</time>
      </trkpt>
      <trkpt lat="45.21062" lon="5.76702">
        <ele>276.4</ele>
        <time>2011-10-16T16:37:19Z</time>
      </trkpt>
      <trkpt lat="45.21057" lon="5.76705">
        <ele>276.3</ele>
        <time>2011-10-16T16:37:20Z</time>
      </trkpt>
      <trkpt lat="45.21052" lon="5.76709">
        <ele>276.3</ele>
        <time>2011-10-16T16:37:21Z</time>
      </trkpt>
      <trkpt lat="45.21048" lon="5.76712">
        <ele>276.2</ele>
        <time>2011-10-16T16:37:22Z</time>
      </trkpt>
      <trkpt lat="45.21043" lon="5.76716">
        <ele>276.1</ele>
        <time>2011-10-16T16:37:23Z</time>
      </trkpt>
      <trkpt lat="45.21039" lon="5.76719">
        <ele>275.8</ele>
        <time>2011-10-16T16:37:24Z</time>
      </trkpt>
      <trkpt lat="45.21034" lon="5.76723">
        <ele>275.9</ele>
        <time>2011-10-16T16:37:25Z</time>
      </trkpt>
      <trkpt lat="45.2103" lon="5.76726">
        <ele>275.9</ele>
        <time>2011-10-16T16:37:26Z</time>
      </trkpt>
      <trkpt lat="45.21025" lon="5.76728">
        <ele>275.5</ele>
        <time>2011-10-16T16:37:27Z</time>
      </trkpt>
      <trkpt lat="45.21018" lon="5.76731">
        <ele>274.9</ele>
        <time>2011-10-16T16:37:29Z</time>
      </trkpt>
      <trkpt lat="45.21012" lon="5.76732">
        <ele>274.6</ele>
        <time>2011-10-16T16:37:31Z</time>
      </trkpt>
      <trkpt lat="45.21007" lon="5.76734">
        <ele>274.4</ele>
        <time>2011-10-16T16:37:33Z</time>
      </trkpt>
      <trkpt lat="45.20999" lon="5.76737">
        <ele>274.1</ele>
        <time>2011-10-16T16:37:35Z</time>
      </trkpt>
      <trkpt lat="45.2099" lon="5.7674">
        <ele>274.1</ele>
        <time>2011-10-16T16:37:37Z</time>
      </trkpt>
      <trkpt lat="45.20981" lon="5.76741">
        <ele>273.6</ele>
        <time>2011-10-16T16:37:39Z</time>
      </trkpt>
      <trkpt lat="45.20977" lon="5.76741">
        <ele>273.4</ele>
        <time>2011-10-16T16:37:40Z</time>
      </trkpt>
      <trkpt lat="45.20972" lon="5.7674">
        <ele>273.2</ele>
        <time>2011-10-16T16:37:41Z</time>
      </trkpt>
      <trkpt lat="45.20967" lon="5.76739">
        <ele>273</ele>
        <time>2011-10-16T16:37:42Z</time>
      </trkpt>
      <trkpt lat="45.20962" lon="5.76737">
        <ele>272.9</ele>
        <time>2011-10-16T16:37:43Z</time>
      </trkpt>
      <trkpt lat="45.20958" lon="5.76735">
        <ele>272.7</ele>
        <time>2011-10-16T16:37:44Z</time>
      </trkpt>
      <trkpt lat="45.20954" lon="5.76733">
        <ele>272.5</ele>
        <time>2011-10-16T16:37:45Z</time>
      </trkpt>
      <trkpt lat="45.20949" lon="5.7673">
        <ele>272.4</ele>
        <time>2011-10-16T16:37:46Z</time>
      </trkpt>
      <trkpt lat="45.20945" lon="5.76727">
        <ele>272.3</ele>
        <time>2011-10-16T16:37:47Z</time>
      </trkpt>
      <trkpt lat="45.20941" lon="5.76724">
        <ele>272.4</ele>
        <time>2011-10-16T16:37:48Z</time>
      </trkpt>
      <trkpt lat="45.20937" lon="5.76721">
        <ele>272.4</ele>
        <time>2011-10-16T16:37:49Z</time>
      </trkpt>
      <trkpt lat="45.2093" lon="5.76713">
        <ele>272.5</ele>
        <time>2011-10-16T16:37:51Z</time>
      </trkpt>
      <trkpt lat="45.20926" lon="5.76708">
        <ele>272.3</ele>
        <time>2011-10-16T16:37:52Z</time>
      </trkpt>
      <trkpt lat="45.20923" lon="5.76703">
        <ele>272.3</ele>
        <time>2011-10-16T16:37:53Z</time>
      </trkpt>
      <trkpt lat="45.20918" lon="5.76699">
        <ele>272.2</ele>
        <time>2011-10-16T16:37:54Z</time>
      </trkpt>
      <trkpt lat="45.20914" lon="5.76696">
        <ele>271.9</ele>
        <time>2011-10-16T16:37:55Z</time>
      </trkpt>
      <trkpt lat="45.20908" lon="5.76696">
        <ele>271.8</ele>
        <time>2011-10-16T16:37:56Z</time>
      </trkpt>
      <trkpt lat="45.20903" lon="5.76696">
        <ele>271.7</ele>
        <time>2011-10-16T16:37:57Z</time>
      </trkpt>
      <trkpt lat="45.20898" lon="5.76698">
        <ele>271.6</ele>
        <time>2011-10-16T16:37:58Z</time>
      </trkpt>
      <trkpt lat="45.20893" lon="5.76701">
        <ele>271.6</ele>
        <time>2011-10-16T16:37:59Z</time>
      </trkpt>
      <trkpt lat="45.20888" lon="5.76705">
        <ele>271.6</ele>
        <time>2011-10-16T16:38:00Z</time>
      </trkpt>
      <trkpt lat="45.20884" lon="5.7671">
        <ele>271.4</ele>
        <time>2011-10-16T16:38:01Z</time>
      </trkpt>
      <trkpt lat="45.20879" lon="5.76714">
        <ele>271.4</ele>
        <time>2011-10-16T16:38:02Z</time>
      </trkpt>
      <trkpt lat="45.20875" lon="5.76718">
        <ele>271.3</ele>
        <time>2011-10-16T16:38:03Z</time>
      </trkpt>
      <trkpt lat="45.2087" lon="5.76723">
        <ele>271.2</ele>
        <time>2011-10-16T16:38:04Z</time>
      </trkpt>
      <trkpt lat="45.20866" lon="5.76727">
        <ele>271</ele>
        <time>2011-10-16T16:38:05Z</time>
      </trkpt>
      <trkpt lat="45.20861" lon="5.76731">
        <ele>270.9</ele>
        <time>2011-10-16T16:38:06Z</time>
      </trkpt>
      <trkpt lat="45.20857" lon="5.76735">
        <ele>270.6</ele>
        <time>2011-10-16T16:38:07Z</time>
      </trkpt>
      <trkpt lat="45.20852" lon="5.76739">
        <ele>270.6</ele>
        <time>2011-10-16T16:38:08Z</time>
      </trkpt>
      <trkpt lat="45.20848" lon="5.76743">
        <ele>270.7</ele>
        <time>2011-10-16T16:38:09Z</time>
      </trkpt>
      <trkpt lat="45.20843" lon="5.76747">
        <ele>270.7</ele>
        <time>2011-10-16T16:38:10Z</time>
      </trkpt>
      <trkpt lat="45.20839" lon="5.76751">
        <ele>270.8</ele>
        <time>2011-10-16T16:38:11Z</time>
      </trkpt>
      <trkpt lat="45.20834" lon="5.76754">
        <ele>270.7</ele>
        <time>2011-10-16T16:38:12Z</time>
      </trkpt>
      <trkpt lat="45.2083" lon="5.76758">
        <ele>270.8</ele>
        <time>2011-10-16T16:38:13Z</time>
      </trkpt>
      <trkpt lat="45.20825" lon="5.76762">
        <ele>270.8</ele>
        <time>2011-10-16T16:38:14Z</time>
      </trkpt>
      <trkpt lat="45.20821" lon="5.76767">
        <ele>270.8</ele>
        <time>2011-10-16T16:38:15Z</time>
      </trkpt>
      <trkpt lat="45.20816" lon="5.76771">
        <ele>270.7</ele>
        <time>2011-10-16T16:38:16Z</time>
      </trkpt>
      <trkpt lat="45.20812" lon="5.76775">
        <ele>270.4</ele>
        <time>2011-10-16T16:38:17Z</time>
      </trkpt>
      <trkpt lat="45.20808" lon="5.76778">
        <ele>270.3</ele>
        <time>2011-10-16T16:38:18Z</time>
      </trkpt>
      <trkpt lat="45.20804" lon="5.76782">
        <ele>270.3</ele>
        <time>2011-10-16T16:38:19Z</time>
      </trkpt>
      <trkpt lat="45.208" lon="5.76786">
        <ele>270.4</ele>
        <time>2011-10-16T16:38:20Z</time>
      </trkpt>
      <trkpt lat="45.20796" lon="5.76789">
        <ele>270.4</ele>
        <time>2011-10-16T16:38:21Z</time>
      </trkpt>
      <trkpt lat="45.20792" lon="5.76793">
        <ele>270.5</ele>
        <time>2011-10-16T16:38:22Z</time>
      </trkpt>
      <trkpt lat="45.20788" lon="5.76796">
        <ele>270.4</ele>
        <time>2011-10-16T16:38:23Z</time>
      </trkpt>
      <trkpt lat="45.20781" lon="5.76802">
        <ele>270.2</ele>
        <time>2011-10-16T16:38:25Z</time>
      </trkpt>
      <trkpt lat="45.20777" lon="5.76806">
        <ele>269.3</ele>
        <time>2011-10-16T16:38:28Z</time>
      </trkpt>
      <trkpt lat="45.20772" lon="5.76808">
        <ele>269.1</ele>
        <time>2011-10-16T16:38:30Z</time>
      </trkpt>
      <trkpt lat="45.20766" lon="5.76807">
        <ele>269.1</ele>
        <time>2011-10-16T16:38:32Z</time>
      </trkpt>
      <trkpt lat="45.20761" lon="5.76804">
        <ele>269.3</ele>
        <time>2011-10-16T16:38:34Z</time>
      </trkpt>
      <trkpt lat="45.20757" lon="5.76807">
        <ele>269.3</ele>
        <time>2011-10-16T16:38:36Z</time>
      </trkpt>
      <trkpt lat="45.20751" lon="5.76813">
        <ele>269.2</ele>
        <time>2011-10-16T16:38:38Z</time>
      </trkpt>
      <trkpt lat="45.20744" lon="5.76818">
        <ele>268.9</ele>
        <time>2011-10-16T16:38:40Z</time>
      </trkpt>
      <trkpt lat="45.20736" lon="5.76823">
        <ele>268.6</ele>
        <time>2011-10-16T16:38:42Z</time>
      </trkpt>
      <trkpt lat="45.20732" lon="5.76826">
        <ele>268.5</ele>
        <time>2011-10-16T16:38:43Z</time>
      </trkpt>
      <trkpt lat="45.20728" lon="5.7683">
        <ele>268.4</ele>
        <time>2011-10-16T16:38:44Z</time>
      </trkpt>
      <trkpt lat="45.20723" lon="5.76833">
        <ele>268.2</ele>
        <time>2011-10-16T16:38:45Z</time>
      </trkpt>
      <trkpt lat="45.20719" lon="5.76836">
        <ele>268.1</ele>
        <time>2011-10-16T16:38:46Z</time>
      </trkpt>
      <trkpt lat="45.20714" lon="5.76838">
        <ele>268.2</ele>
        <time>2011-10-16T16:38:47Z</time>
      </trkpt>
      <trkpt lat="45.2071" lon="5.7684">
        <ele>268.2</ele>
        <time>2011-10-16T16:38:48Z</time>
      </trkpt>
      <trkpt lat="45.20705" lon="5.76842">
        <ele>268.1</ele>
        <time>2011-10-16T16:38:49Z</time>
      </trkpt>
      <trkpt lat="45.207" lon="5.76844">
        <ele>268.2</ele>
        <time>2011-10-16T16:38:50Z</time>
      </trkpt>
      <trkpt lat="45.20695" lon="5.76845">
        <ele>268.2</ele>
        <time>2011-10-16T16:38:51Z</time>
      </trkpt>
      <trkpt lat="45.2069" lon="5.76846">
        <ele>268.2</ele>
        <time>2011-10-16T16:38:52Z</time>
      </trkpt>
      <trkpt lat="45.20684" lon="5.76847">
        <ele>268.3</ele>
        <time>2011-10-16T16:38:53Z</time>
      </trkpt>
      <trkpt lat="45.20679" lon="5.76848">
        <ele>268.2</ele>
        <time>2011-10-16T16:38:54Z</time>
      </trkpt>
      <trkpt lat="45.20674" lon="5.76849">
        <ele>268.4</ele>
        <time>2011-10-16T16:38:55Z</time>
      </trkpt>
      <trkpt lat="45.20669" lon="5.7685">
        <ele>268.4</ele>
        <time>2011-10-16T16:38:56Z</time>
      </trkpt>
      <trkpt lat="45.20663" lon="5.76851">
        <ele>268.3</ele>
        <time>2011-10-16T16:38:57Z</time>
      </trkpt>
      <trkpt lat="45.20658" lon="5.76852">
        <ele>268.5</ele>
        <time>2011-10-16T16:38:58Z</time>
      </trkpt>
      <trkpt lat="45.20653" lon="5.76853">
        <ele>268.6</ele>
        <time>2011-10-16T16:38:59Z</time>
      </trkpt>
      <trkpt lat="45.20648" lon="5.76853">
        <ele>268.7</ele>
        <time>2011-10-16T16:39:00Z</time>
      </trkpt>
      <trkpt lat="45.20644" lon="5.76853">
        <ele>268.5</ele>
        <time>2011-10-16T16:39:01Z</time>
      </trkpt>
      <trkpt lat="45.20638" lon="5.76854">
        <ele>268.3</ele>
        <time>2011-10-16T16:39:02Z</time>
      </trkpt>
      <trkpt lat="45.20634" lon="5.76856">
        <ele>268.2</ele>
        <time>2011-10-16T16:39:03Z</time>
      </trkpt>
      <trkpt lat="45.20629" lon="5.76858">
        <ele>268.2</ele>
        <time>2011-10-16T16:39:04Z</time>
      </trkpt>
      <trkpt lat="45.20624" lon="5.7686">
        <ele>267.9</ele>
        <time>2011-10-16T16:39:05Z</time>
      </trkpt>
      <trkpt lat="45.20619" lon="5.76863">
        <ele>267.9</ele>
        <time>2011-10-16T16:39:06Z</time>
      </trkpt>
      <trkpt lat="45.20615" lon="5.76866">
        <ele>267.9</ele>
        <time>2011-10-16T16:39:07Z</time>
      </trkpt>
      <trkpt lat="45.2061" lon="5.76868">
        <ele>267.8</ele>
        <time>2011-10-16T16:39:08Z</time>
      </trkpt>
      <trkpt lat="45.20606" lon="5.76871">
        <ele>267.8</ele>
        <time>2011-10-16T16:39:09Z</time>
      </trkpt>
      <trkpt lat="45.20602" lon="5.76875">
        <ele>267.8</ele>
        <time>2011-10-16T16:39:10Z</time>
      </trkpt>
      <trkpt lat="45.20598" lon="5.76879">
        <ele>267.9</ele>
        <time>2011-10-16T16:39:11Z</time>
      </trkpt>
      <trkpt lat="45.20594" lon="5.76882">
        <ele>267.9</ele>
        <time>2011-10-16T16:39:12Z</time>
      </trkpt>
      <trkpt lat="45.20589" lon="5.76886">
        <ele>267.9</ele>
        <time>2011-10-16T16:39:13Z</time>
      </trkpt>
      <trkpt lat="45.20583" lon="5.76894">
        <ele>267.9</ele>
        <time>2011-10-16T16:39:15Z</time>
      </trkpt>
      <trkpt lat="45.2058" lon="5.76903">
        <ele>267.9</ele>
        <time>2011-10-16T16:39:17Z</time>
      </trkpt>
      <trkpt lat="45.20574" lon="5.76913">
        <ele>267.5</ele>
        <time>2011-10-16T16:39:19Z</time>
      </trkpt>
      <trkpt lat="45.2057" lon="5.76923">
        <ele>267.6</ele>
        <time>2011-10-16T16:39:21Z</time>
      </trkpt>
      <trkpt lat="45.20565" lon="5.76934">
        <ele>267.5</ele>
        <time>2011-10-16T16:39:23Z</time>
      </trkpt>
      <trkpt lat="45.20563" lon="5.7694">
        <ele>267.5</ele>
        <time>2011-10-16T16:39:24Z</time>
      </trkpt>
      <trkpt lat="45.20561" lon="5.76946">
        <ele>267.5</ele>
        <time>2011-10-16T16:39:25Z</time>
      </trkpt>
      <trkpt lat="45.2056" lon="5.76953">
        <ele>267.4</ele>
        <time>2011-10-16T16:39:26Z</time>
      </trkpt>
      <trkpt lat="45.20559" lon="5.76959">
        <ele>267.6</ele>
        <time>2011-10-16T16:39:27Z</time>
      </trkpt>
      <trkpt lat="45.20558" lon="5.76966">
        <ele>267.7</ele>
        <time>2011-10-16T16:39:28Z</time>
      </trkpt>
      <trkpt lat="45.20557" lon="5.76973">
        <ele>267.7</ele>
        <time>2011-10-16T16:39:29Z</time>
      </trkpt>
      <trkpt lat="45.20556" lon="5.7698">
        <ele>267.5</ele>
        <time>2011-10-16T16:39:30Z</time>
      </trkpt>
      <trkpt lat="45.20556" lon="5.76986">
        <ele>267.2</ele>
        <time>2011-10-16T16:39:31Z</time>
      </trkpt>
      <trkpt lat="45.20556" lon="5.76993">
        <ele>267.3</ele>
        <time>2011-10-16T16:39:32Z</time>
      </trkpt>
      <trkpt lat="45.20556" lon="5.77">
        <ele>267.3</ele>
        <time>2011-10-16T16:39:33Z</time>
      </trkpt>
      <trkpt lat="45.20557" lon="5.77006">
        <ele>267.2</ele>
        <time>2011-10-16T16:39:34Z</time>
      </trkpt>
      <trkpt lat="45.20557" lon="5.77013">
        <ele>267.1</ele>
        <time>2011-10-16T16:39:35Z</time>
      </trkpt>
      <trkpt lat="45.20558" lon="5.77019">
        <ele>267.2</ele>
        <time>2011-10-16T16:39:36Z</time>
      </trkpt>
      <trkpt lat="45.20559" lon="5.77025">
        <ele>267.2</ele>
        <time>2011-10-16T16:39:37Z</time>
      </trkpt>
      <trkpt lat="45.20559" lon="5.77035">
        <ele>266.9</ele>
        <time>2011-10-16T16:39:39Z</time>
      </trkpt>
      <trkpt lat="45.20557" lon="5.77041">
        <ele>266.5</ele>
        <time>2011-10-16T16:39:42Z</time>
      </trkpt>
      <trkpt lat="45.20552" lon="5.77038">
        <ele>266.5</ele>
        <time>2011-10-16T16:39:45Z</time>
      </trkpt>
      <trkpt lat="45.20551" lon="5.77032">
        <ele>266.7</ele>
        <time>2011-10-16T16:39:47Z</time>
      </trkpt>
      <trkpt lat="45.2055" lon="5.77025">
        <ele>267.4</ele>
        <time>2011-10-16T16:39:49Z</time>
      </trkpt>
      <trkpt lat="45.2055" lon="5.77017">
        <ele>268.2</ele>
        <time>2011-10-16T16:39:51Z</time>
      </trkpt>
      <trkpt lat="45.20549" lon="5.77009">
        <ele>268.4</ele>
        <time>2011-10-16T16:39:53Z</time>
      </trkpt>
      <trkpt lat="45.20543" lon="5.77006">
        <ele>268.4</ele>
        <time>2011-10-16T16:39:56Z</time>
      </trkpt>
      <trkpt lat="45.20538" lon="5.77008">
        <ele>267.8</ele>
        <time>2011-10-16T16:39:58Z</time>
      </trkpt>
      <trkpt lat="45.2053" lon="5.7701">
        <ele>267.9</ele>
        <time>2011-10-16T16:40:00Z</time>
      </trkpt>
      <trkpt lat="45.20522" lon="5.77012">
        <ele>267.7</ele>
        <time>2011-10-16T16:40:02Z</time>
      </trkpt>
      <trkpt lat="45.20518" lon="5.77014">
        <ele>267.3</ele>
        <time>2011-10-16T16:40:03Z</time>
      </trkpt>
      <trkpt lat="45.2051" lon="5.77019">
        <ele>267.6</ele>
        <time>2011-10-16T16:40:05Z</time>
      </trkpt>
      <trkpt lat="45.20502" lon="5.77023">
        <ele>267.6</ele>
        <time>2011-10-16T16:40:07Z</time>
      </trkpt>
      <trkpt lat="45.20495" lon="5.77028">
        <ele>267.8</ele>
        <time>2011-10-16T16:40:09Z</time>
      </trkpt>
      <trkpt lat="45.20491" lon="5.77033">
        <ele>267.7</ele>
        <time>2011-10-16T16:40:11Z</time>
      </trkpt>
      <trkpt lat="45.20484" lon="5.77033">
        <ele>267.6</ele>
        <time>2011-10-16T16:40:14Z</time>
      </trkpt>
      <trkpt lat="45.2048" lon="5.77026">
        <ele>267.5</ele>
        <time>2011-10-16T16:40:16Z</time>
      </trkpt>
      <trkpt lat="45.20476" lon="5.7702">
        <ele>267.4</ele>
        <time>2011-10-16T16:40:18Z</time>
      </trkpt>
      <trkpt lat="45.2047" lon="5.77016">
        <ele>267.2</ele>
        <time>2011-10-16T16:40:20Z</time>
      </trkpt>
      <trkpt lat="45.20463" lon="5.77016">
        <ele>266.9</ele>
        <time>2011-10-16T16:40:22Z</time>
      </trkpt>
      <trkpt lat="45.20457" lon="5.77013">
        <ele>266.9</ele>
        <time>2011-10-16T16:40:24Z</time>
      </trkpt>
      <trkpt lat="45.20451" lon="5.7701">
        <ele>266.8</ele>
        <time>2011-10-16T16:40:26Z</time>
      </trkpt>
      <trkpt lat="45.20444" lon="5.77012">
        <ele>266.8</ele>
        <time>2011-10-16T16:40:28Z</time>
      </trkpt>
      <trkpt lat="45.20437" lon="5.77016">
        <ele>267.1</ele>
        <time>2011-10-16T16:40:30Z</time>
      </trkpt>
      <trkpt lat="45.20429" lon="5.77018">
        <ele>267.2</ele>
        <time>2011-10-16T16:40:32Z</time>
      </trkpt>
      <trkpt lat="45.20423" lon="5.77021">
        <ele>267.3</ele>
        <time>2011-10-16T16:40:34Z</time>
      </trkpt>
      <trkpt lat="45.20418" lon="5.77022">
        <ele>267.3</ele>
        <time>2011-10-16T16:40:36Z</time>
      </trkpt>
      <trkpt lat="45.20414" lon="5.77018">
        <ele>268.2</ele>
        <time>2011-10-16T16:40:39Z</time>
      </trkpt>
      <trkpt lat="45.20414" lon="5.7701">
        <ele>268.4</ele>
        <time>2011-10-16T16:40:41Z</time>
      </trkpt>
      <trkpt lat="45.20414" lon="5.77">
        <ele>268.3</ele>
        <time>2011-10-16T16:40:43Z</time>
      </trkpt>
      <trkpt lat="45.20412" lon="5.7699">
        <ele>267.9</ele>
        <time>2011-10-16T16:40:45Z</time>
      </trkpt>
      <trkpt lat="45.2041" lon="5.7698">
        <ele>267.5</ele>
        <time>2011-10-16T16:40:47Z</time>
      </trkpt>
      <trkpt lat="45.20409" lon="5.76969">
        <ele>267.3</ele>
        <time>2011-10-16T16:40:49Z</time>
      </trkpt>
      <trkpt lat="45.20408" lon="5.76958">
        <ele>267.2</ele>
        <time>2011-10-16T16:40:51Z</time>
      </trkpt>
      <trkpt lat="45.20407" lon="5.76947">
        <ele>266.8</ele>
        <time>2011-10-16T16:40:53Z</time>
      </trkpt>
      <trkpt lat="45.20406" lon="5.76935">
        <ele>266.8</ele>
        <time>2011-10-16T16:40:55Z</time>
      </trkpt>
      <trkpt lat="45.20406" lon="5.76923">
        <ele>266.8</ele>
        <time>2011-10-16T16:40:57Z</time>
      </trkpt>
      <trkpt lat="45.20405" lon="5.76911">
        <ele>266.4</ele>
        <time>2011-10-16T16:40:59Z</time>
      </trkpt>
      <trkpt lat="45.20405" lon="5.76902">
        <ele>266.1</ele>
        <time>2011-10-16T16:41:01Z</time>
      </trkpt>
      <trkpt lat="45.20404" lon="5.76894">
        <ele>266.2</ele>
        <time>2011-10-16T16:41:03Z</time>
      </trkpt>
      <trkpt lat="45.20404" lon="5.76888">
        <ele>266.5</ele>
        <time>2011-10-16T16:41:06Z</time>
      </trkpt>
      <trkpt lat="45.20404" lon="5.76878">
        <ele>266.7</ele>
        <time>2011-10-16T16:41:10Z</time>
      </trkpt>
      <trkpt lat="45.20403" lon="5.76871">
        <ele>266.4</ele>
        <time>2011-10-16T16:41:12Z</time>
      </trkpt>
      <trkpt lat="45.20403" lon="5.76862">
        <ele>266.5</ele>
        <time>2011-10-16T16:41:14Z</time>
      </trkpt>
      <trkpt lat="45.20402" lon="5.76853">
        <ele>266.6</ele>
        <time>2011-10-16T16:41:16Z</time>
      </trkpt>
      <trkpt lat="45.20401" lon="5.76844">
        <ele>267.2</ele>
        <time>2011-10-16T16:41:18Z</time>
      </trkpt>
      <trkpt lat="45.204" lon="5.76835">
        <ele>268</ele>
        <time>2011-10-16T16:41:20Z</time>
      </trkpt>
      <trkpt lat="45.20401" lon="5.76826">
        <ele>267.8</ele>
        <time>2011-10-16T16:41:22Z</time>
      </trkpt>
      <trkpt lat="45.20401" lon="5.76818">
        <ele>268.3</ele>
        <time>2011-10-16T16:41:24Z</time>
      </trkpt>
      <trkpt lat="45.20396" lon="5.76814">
        <ele>268.4</ele>
        <time>2011-10-16T16:41:26Z</time>
      </trkpt>
      <trkpt lat="45.20389" lon="5.76814">
        <ele>268.5</ele>
        <time>2011-10-16T16:41:28Z</time>
      </trkpt>
      <trkpt lat="45.20382" lon="5.76817">
        <ele>268.4</ele>
        <time>2011-10-16T16:41:30Z</time>
      </trkpt>
      <trkpt lat="45.20374" lon="5.76818">
        <ele>268.6</ele>
        <time>2011-10-16T16:41:32Z</time>
      </trkpt>
      <trkpt lat="45.20366" lon="5.76819">
        <ele>268</ele>
        <time>2011-10-16T16:41:34Z</time>
      </trkpt>
      <trkpt lat="45.20358" lon="5.76821">
        <ele>267.7</ele>
        <time>2011-10-16T16:41:36Z</time>
      </trkpt>
      <trkpt lat="45.20351" lon="5.76824">
        <ele>267.4</ele>
        <time>2011-10-16T16:41:38Z</time>
      </trkpt>
      <trkpt lat="45.20343" lon="5.76826">
        <ele>267.3</ele>
        <time>2011-10-16T16:41:40Z</time>
      </trkpt>
      <trkpt lat="45.20335" lon="5.76826">
        <ele>267.1</ele>
        <time>2011-10-16T16:41:42Z</time>
      </trkpt>
      <trkpt lat="45.20326" lon="5.76827">
        <ele>266.7</ele>
        <time>2011-10-16T16:41:44Z</time>
      </trkpt>
      <trkpt lat="45.20319" lon="5.76828">
        <ele>266.4</ele>
        <time>2011-10-16T16:41:46Z</time>
      </trkpt>
      <trkpt lat="45.20312" lon="5.76831">
        <ele>266.2</ele>
        <time>2011-10-16T16:41:48Z</time>
      </trkpt>
      <trkpt lat="45.20308" lon="5.76838">
        <ele>266.2</ele>
        <time>2011-10-16T16:41:50Z</time>
      </trkpt>
      <trkpt lat="45.20307" lon="5.76844">
        <ele>266.2</ele>
        <time>2011-10-16T16:41:52Z</time>
      </trkpt>
      <trkpt lat="45.20306" lon="5.76852">
        <ele>266.2</ele>
        <time>2011-10-16T16:41:55Z</time>
      </trkpt>
      <trkpt lat="45.20308" lon="5.76861">
        <ele>266.5</ele>
        <time>2011-10-16T16:41:58Z</time>
      </trkpt>
      <trkpt lat="45.20311" lon="5.76869">
        <ele>266.6</ele>
        <time>2011-10-16T16:42:00Z</time>
      </trkpt>
      <trkpt lat="45.20314" lon="5.76877">
        <ele>266.6</ele>
        <time>2011-10-16T16:42:02Z</time>
      </trkpt>
      <trkpt lat="45.20317" lon="5.76884">
        <ele>266.8</ele>
        <time>2011-10-16T16:42:04Z</time>
      </trkpt>
      <trkpt lat="45.2032" lon="5.76891">
        <ele>267</ele>
        <time>2011-10-16T16:42:06Z</time>
      </trkpt>
      <trkpt lat="45.20323" lon="5.76898">
        <ele>267.3</ele>
        <time>2011-10-16T16:42:08Z</time>
      </trkpt>
      <trkpt lat="45.20326" lon="5.76906">
        <ele>267.5</ele>
        <time>2011-10-16T16:42:10Z</time>
      </trkpt>
      <trkpt lat="45.20328" lon="5.76912">
        <ele>268</ele>
        <time>2011-10-16T16:42:12Z</time>
      </trkpt>
      <trkpt lat="45.20331" lon="5.7692">
        <ele>268.1</ele>
        <time>2011-10-16T16:42:15Z</time>
      </trkpt>
      <trkpt lat="45.20334" lon="5.76927">
        <ele>268.6</ele>
        <time>2011-10-16T16:42:18Z</time>
      </trkpt>
      <trkpt lat="45.20338" lon="5.76936">
        <ele>269.5</ele>
        <time>2011-10-16T16:42:26Z</time>
      </trkpt>
      <trkpt lat="45.2034" lon="5.76946">
        <ele>269.9</ele>
        <time>2011-10-16T16:42:29Z</time>
      </trkpt>
      <trkpt lat="45.20342" lon="5.76952">
        <ele>270</ele>
        <time>2011-10-16T16:42:31Z</time>
      </trkpt>
      <trkpt lat="45.20342" lon="5.7696">
        <ele>270.1</ele>
        <time>2011-10-16T16:42:33Z</time>
      </trkpt>
      <trkpt lat="45.20342" lon="5.76967">
        <ele>270.1</ele>
        <time>2011-10-16T16:42:35Z</time>
      </trkpt>
      <trkpt lat="45.20341" lon="5.76974">
        <ele>270.2</ele>
        <time>2011-10-16T16:42:37Z</time>
      </trkpt>
      <trkpt lat="45.2034" lon="5.76982">
        <ele>270.1</ele>
        <time>2011-10-16T16:42:39Z</time>
      </trkpt>
      <trkpt lat="45.20339" lon="5.76989">
        <ele>270.4</ele>
        <time>2011-10-16T16:42:41Z</time>
      </trkpt>
      <trkpt lat="45.20336" lon="5.76996">
        <ele>270.5</ele>
        <time>2011-10-16T16:42:43Z</time>
      </trkpt>
      <trkpt lat="45.20333" lon="5.77001">
        <ele>270.4</ele>
        <time>2011-10-16T16:42:45Z</time>
      </trkpt>
      <trkpt lat="45.2033" lon="5.77007">
        <ele>270.9</ele>
        <time>2011-10-16T16:42:47Z</time>
      </trkpt>
      <trkpt lat="45.20325" lon="5.77012">
        <ele>271.1</ele>
        <time>2011-10-16T16:42:49Z</time>
      </trkpt>
      <trkpt lat="45.2032" lon="5.77017">
        <ele>271.1</ele>
        <time>2011-10-16T16:42:51Z</time>
      </trkpt>
      <trkpt lat="45.20315" lon="5.7702">
        <ele>271</ele>
        <time>2011-10-16T16:42:53Z</time>
      </trkpt>
      <trkpt lat="45.20309" lon="5.77024">
        <ele>271.1</ele>
        <time>2011-10-16T16:42:55Z</time>
      </trkpt>
      <trkpt lat="45.20304" lon="5.77026">
        <ele>271.4</ele>
        <time>2011-10-16T16:42:57Z</time>
      </trkpt>
      <trkpt lat="45.20298" lon="5.77029">
        <ele>271.3</ele>
        <time>2011-10-16T16:42:59Z</time>
      </trkpt>
      <trkpt lat="45.20292" lon="5.7703">
        <ele>271.7</ele>
        <time>2011-10-16T16:43:01Z</time>
      </trkpt>
      <trkpt lat="45.20286" lon="5.77031">
        <ele>272</ele>
        <time>2011-10-16T16:43:03Z</time>
      </trkpt>
      <trkpt lat="45.2028" lon="5.77032">
        <ele>272.4</ele>
        <time>2011-10-16T16:43:05Z</time>
      </trkpt>
      <trkpt lat="45.20274" lon="5.77033">
        <ele>272.6</ele>
        <time>2011-10-16T16:43:07Z</time>
      </trkpt>
      <trkpt lat="45.20268" lon="5.77035">
        <ele>272.8</ele>
        <time>2011-10-16T16:43:09Z</time>
      </trkpt>
      <trkpt lat="45.20261" lon="5.77037">
        <ele>272.9</ele>
        <time>2011-10-16T16:43:11Z</time>
      </trkpt>
      <trkpt lat="45.20254" lon="5.77038">
        <ele>272.9</ele>
        <time>2011-10-16T16:43:13Z</time>
      </trkpt>
      <trkpt lat="45.20248" lon="5.7704">
        <ele>272.9</ele>
        <time>2011-10-16T16:43:15Z</time>
      </trkpt>
      <trkpt lat="45.2024" lon="5.77042">
        <ele>272.8</ele>
        <time>2011-10-16T16:43:17Z</time>
      </trkpt>
      <trkpt lat="45.20232" lon="5.77044">
        <ele>272.5</ele>
        <time>2011-10-16T16:43:19Z</time>
      </trkpt>
      <trkpt lat="45.20224" lon="5.77047">
        <ele>272.3</ele>
        <time>2011-10-16T16:43:21Z</time>
      </trkpt>
      <trkpt lat="45.20219" lon="5.77048">
        <ele>272.2</ele>
        <time>2011-10-16T16:43:22Z</time>
      </trkpt>
      <trkpt lat="45.20214" lon="5.77049">
        <ele>272</ele>
        <time>2011-10-16T16:43:23Z</time>
      </trkpt>
      <trkpt lat="45.2021" lon="5.7705">
        <ele>271.9</ele>
        <time>2011-10-16T16:43:24Z</time>
      </trkpt>
      <trkpt lat="45.20205" lon="5.77051">
        <ele>272</ele>
        <time>2011-10-16T16:43:25Z</time>
      </trkpt>
      <trkpt lat="45.20201" lon="5.77052">
        <ele>271.9</ele>
        <time>2011-10-16T16:43:26Z</time>
      </trkpt>
      <trkpt lat="45.20196" lon="5.77054">
        <ele>271.8</ele>
        <time>2011-10-16T16:43:27Z</time>
      </trkpt>
      <trkpt lat="45.20191" lon="5.77055">
        <ele>271.7</ele>
        <time>2011-10-16T16:43:28Z</time>
      </trkpt>
      <trkpt lat="45.20186" lon="5.77056">
        <ele>271.6</ele>
        <time>2011-10-16T16:43:29Z</time>
      </trkpt>
      <trkpt lat="45.20181" lon="5.77058">
        <ele>271.5</ele>
        <time>2011-10-16T16:43:30Z</time>
      </trkpt>
      <trkpt lat="45.20176" lon="5.77059">
        <ele>271.4</ele>
        <time>2011-10-16T16:43:31Z</time>
      </trkpt>
      <trkpt lat="45.20172" lon="5.77061">
        <ele>271.5</ele>
        <time>2011-10-16T16:43:32Z</time>
      </trkpt>
      <trkpt lat="45.20167" lon="5.77062">
        <ele>271.5</ele>
        <time>2011-10-16T16:43:33Z</time>
      </trkpt>
      <trkpt lat="45.20162" lon="5.77064">
        <ele>271.6</ele>
        <time>2011-10-16T16:43:34Z</time>
      </trkpt>
      <trkpt lat="45.20157" lon="5.77065">
        <ele>271.4</ele>
        <time>2011-10-16T16:43:35Z</time>
      </trkpt>
      <trkpt lat="45.20152" lon="5.77067">
        <ele>271.4</ele>
        <time>2011-10-16T16:43:36Z</time>
      </trkpt>
      <trkpt lat="45.20147" lon="5.77068">
        <ele>271.2</ele>
        <time>2011-10-16T16:43:37Z</time>
      </trkpt>
      <trkpt lat="45.20142" lon="5.7707">
        <ele>271.5</ele>
        <time>2011-10-16T16:43:38Z</time>
      </trkpt>
      <trkpt lat="45.20137" lon="5.77072">
        <ele>271.6</ele>
        <time>2011-10-16T16:43:39Z</time>
      </trkpt>
      <trkpt lat="45.20131" lon="5.77074">
        <ele>271.4</ele>
        <time>2011-10-16T16:43:40Z</time>
      </trkpt>
      <trkpt lat="45.20125" lon="5.77076">
        <ele>271.3</ele>
        <time>2011-10-16T16:43:41Z</time>
      </trkpt>
      <trkpt lat="45.20119" lon="5.77077">
        <ele>271.2</ele>
        <time>2011-10-16T16:43:42Z</time>
      </trkpt>
      <trkpt lat="45.20113" lon="5.77079">
        <ele>271.2</ele>
        <time>2011-10-16T16:43:43Z</time>
      </trkpt>
      <trkpt lat="45.20107" lon="5.77081">
        <ele>271.1</ele>
        <time>2011-10-16T16:43:44Z</time>
      </trkpt>
      <trkpt lat="45.20101" lon="5.77082">
        <ele>271</ele>
        <time>2011-10-16T16:43:45Z</time>
      </trkpt>
      <trkpt lat="45.20095" lon="5.77084">
        <ele>270.7</ele>
        <time>2011-10-16T16:43:46Z</time>
      </trkpt>
      <trkpt lat="45.2009" lon="5.77085">
        <ele>270.8</ele>
        <time>2011-10-16T16:43:47Z</time>
      </trkpt>
      <trkpt lat="45.20084" lon="5.77087">
        <ele>270.9</ele>
        <time>2011-10-16T16:43:48Z</time>
      </trkpt>
      <trkpt lat="45.20079" lon="5.77089">
        <ele>270.3</ele>
        <time>2011-10-16T16:43:49Z</time>
      </trkpt>
      <trkpt lat="45.20074" lon="5.77091">
        <ele>270.2</ele>
        <time>2011-10-16T16:43:50Z</time>
      </trkpt>
      <trkpt lat="45.20068" lon="5.77093">
        <ele>270.3</ele>
        <time>2011-10-16T16:43:51Z</time>
      </trkpt>
      <trkpt lat="45.20063" lon="5.77094">
        <ele>270.4</ele>
        <time>2011-10-16T16:43:52Z</time>
      </trkpt>
      <trkpt lat="45.20058" lon="5.77094">
        <ele>270.1</ele>
        <time>2011-10-16T16:43:53Z</time>
      </trkpt>
      <trkpt lat="45.20054" lon="5.77093">
        <ele>269.9</ele>
        <time>2011-10-16T16:43:54Z</time>
      </trkpt>
      <trkpt lat="45.20049" lon="5.7709">
        <ele>269.7</ele>
        <time>2011-10-16T16:43:55Z</time>
      </trkpt>
      <trkpt lat="45.20042" lon="5.77082">
        <ele>268.8</ele>
        <time>2011-10-16T16:43:57Z</time>
      </trkpt>
      <trkpt lat="45.20038" lon="5.77079">
        <ele>268.8</ele>
        <time>2011-10-16T16:43:58Z</time>
      </trkpt>
      <trkpt lat="45.2003" lon="5.77074">
        <ele>268.5</ele>
        <time>2011-10-16T16:44:00Z</time>
      </trkpt>
      <trkpt lat="45.20023" lon="5.77068">
        <ele>268.1</ele>
        <time>2011-10-16T16:44:02Z</time>
      </trkpt>
      <trkpt lat="45.20019" lon="5.77064">
        <ele>268</ele>
        <time>2011-10-16T16:44:03Z</time>
      </trkpt>
      <trkpt lat="45.20015" lon="5.7706">
        <ele>267.7</ele>
        <time>2011-10-16T16:44:04Z</time>
      </trkpt>
      <trkpt lat="45.20008" lon="5.77052">
        <ele>267.6</ele>
        <time>2011-10-16T16:44:06Z</time>
      </trkpt>
      <trkpt lat="45.20001" lon="5.77046">
        <ele>267.5</ele>
        <time>2011-10-16T16:44:08Z</time>
      </trkpt>
      <trkpt lat="45.19994" lon="5.77041">
        <ele>267.4</ele>
        <time>2011-10-16T16:44:10Z</time>
      </trkpt>
      <trkpt lat="45.1999" lon="5.77038">
        <ele>267.2</ele>
        <time>2011-10-16T16:44:11Z</time>
      </trkpt>
      <trkpt lat="45.19986" lon="5.77035">
        <ele>267.5</ele>
        <time>2011-10-16T16:44:12Z</time>
      </trkpt>
      <trkpt lat="45.19982" lon="5.77032">
        <ele>267.8</ele>
        <time>2011-10-16T16:44:13Z</time>
      </trkpt>
      <trkpt lat="45.19974" lon="5.77025">
        <ele>267.7</ele>
        <time>2011-10-16T16:44:15Z</time>
      </trkpt>
      <trkpt lat="45.19966" lon="5.77019">
        <ele>267.7</ele>
        <time>2011-10-16T16:44:17Z</time>
      </trkpt>
      <trkpt lat="45.1996" lon="5.77014">
        <ele>268.2</ele>
        <time>2011-10-16T16:44:19Z</time>
      </trkpt>
      <trkpt lat="45.19955" lon="5.7701">
        <ele>268</ele>
        <time>2011-10-16T16:44:20Z</time>
      </trkpt>
      <trkpt lat="45.19951" lon="5.77007">
        <ele>267.9</ele>
        <time>2011-10-16T16:44:21Z</time>
      </trkpt>
      <trkpt lat="45.19947" lon="5.77004">
        <ele>267.9</ele>
        <time>2011-10-16T16:44:22Z</time>
      </trkpt>
      <trkpt lat="45.19943" lon="5.77">
        <ele>267.7</ele>
        <time>2011-10-16T16:44:23Z</time>
      </trkpt>
      <trkpt lat="45.1994" lon="5.76996">
        <ele>267.2</ele>
        <time>2011-10-16T16:44:24Z</time>
      </trkpt>
      <trkpt lat="45.19936" lon="5.76992">
        <ele>267.4</ele>
        <time>2011-10-16T16:44:25Z</time>
      </trkpt>
      <trkpt lat="45.1993" lon="5.76982">
        <ele>267.4</ele>
        <time>2011-10-16T16:44:27Z</time>
      </trkpt>
      <trkpt lat="45.19926" lon="5.76971">
        <ele>267.4</ele>
        <time>2011-10-16T16:44:29Z</time>
      </trkpt>
      <trkpt lat="45.19922" lon="5.7696">
        <ele>267.6</ele>
        <time>2011-10-16T16:44:31Z</time>
      </trkpt>
      <trkpt lat="45.19918" lon="5.7695">
        <ele>267.4</ele>
        <time>2011-10-16T16:44:33Z</time>
      </trkpt>
      <trkpt lat="45.19914" lon="5.7694">
        <ele>267.5</ele>
        <time>2011-10-16T16:44:35Z</time>
      </trkpt>
      <trkpt lat="45.1991" lon="5.76932">
        <ele>267.4</ele>
        <time>2011-10-16T16:44:37Z</time>
      </trkpt>
      <trkpt lat="45.19905" lon="5.76926">
        <ele>267.5</ele>
        <time>2011-10-16T16:44:39Z</time>
      </trkpt>
      <trkpt lat="45.19898" lon="5.76923">
        <ele>267.9</ele>
        <time>2011-10-16T16:44:41Z</time>
      </trkpt>
      <trkpt lat="45.19893" lon="5.76926">
        <ele>268.6</ele>
        <time>2011-10-16T16:44:43Z</time>
      </trkpt>
      <trkpt lat="45.19888" lon="5.76931">
        <ele>269.2</ele>
        <time>2011-10-16T16:44:45Z</time>
      </trkpt>
      <trkpt lat="45.19885" lon="5.76938">
        <ele>270.1</ele>
        <time>2011-10-16T16:44:47Z</time>
      </trkpt>
      <trkpt lat="45.19882" lon="5.76944">
        <ele>270.6</ele>
        <time>2011-10-16T16:44:49Z</time>
      </trkpt>
      <trkpt lat="45.19878" lon="5.76952">
        <ele>270.8</ele>
        <time>2011-10-16T16:44:51Z</time>
      </trkpt>
      <trkpt lat="45.19874" lon="5.7696">
        <ele>270.7</ele>
        <time>2011-10-16T16:44:53Z</time>
      </trkpt>
      <trkpt lat="45.19869" lon="5.76967">
        <ele>270.3</ele>
        <time>2011-10-16T16:44:55Z</time>
      </trkpt>
      <trkpt lat="45.19865" lon="5.76975">
        <ele>270.3</ele>
        <time>2011-10-16T16:44:57Z</time>
      </trkpt>
      <trkpt lat="45.1986" lon="5.76983">
        <ele>270.4</ele>
        <time>2011-10-16T16:44:59Z</time>
      </trkpt>
      <trkpt lat="45.19856" lon="5.7699">
        <ele>270.3</ele>
        <time>2011-10-16T16:45:01Z</time>
      </trkpt>
      <trkpt lat="45.19851" lon="5.76998">
        <ele>270.2</ele>
        <time>2011-10-16T16:45:03Z</time>
      </trkpt>
      <trkpt lat="45.19846" lon="5.77006">
        <ele>270</ele>
        <time>2011-10-16T16:45:05Z</time>
      </trkpt>
      <trkpt lat="45.19842" lon="5.77013">
        <ele>269.9</ele>
        <time>2011-10-16T16:45:07Z</time>
      </trkpt>
      <trkpt lat="45.19837" lon="5.77021">
        <ele>269.8</ele>
        <time>2011-10-16T16:45:09Z</time>
      </trkpt>
      <trkpt lat="45.19832" lon="5.7703">
        <ele>269.8</ele>
        <time>2011-10-16T16:45:11Z</time>
      </trkpt>
      <trkpt lat="45.19828" lon="5.7704">
        <ele>270.1</ele>
        <time>2011-10-16T16:45:13Z</time>
      </trkpt>
      <trkpt lat="45.1983" lon="5.77051">
        <ele>269.7</ele>
        <time>2011-10-16T16:45:15Z</time>
      </trkpt>
      <trkpt lat="45.19835" lon="5.77054">
        <ele>269.6</ele>
        <time>2011-10-16T16:45:16Z</time>
      </trkpt>
      <trkpt lat="45.19839" lon="5.77058">
        <ele>269.5</ele>
        <time>2011-10-16T16:45:17Z</time>
      </trkpt>
      <trkpt lat="45.19843" lon="5.77061">
        <ele>269.6</ele>
        <time>2011-10-16T16:45:18Z</time>
      </trkpt>
      <trkpt lat="45.19847" lon="5.77064">
        <ele>269.4</ele>
        <time>2011-10-16T16:45:19Z</time>
      </trkpt>
      <trkpt lat="45.19852" lon="5.77068">
        <ele>269.2</ele>
        <time>2011-10-16T16:45:20Z</time>
      </trkpt>
      <trkpt lat="45.19856" lon="5.7707">
        <ele>269.4</ele>
        <time>2011-10-16T16:45:21Z</time>
      </trkpt>
      <trkpt lat="45.1986" lon="5.77073">
        <ele>269.2</ele>
        <time>2011-10-16T16:45:22Z</time>
      </trkpt>
      <trkpt lat="45.19868" lon="5.77078">
        <ele>269</ele>
        <time>2011-10-16T16:45:24Z</time>
      </trkpt>
      <trkpt lat="45.19876" lon="5.77083">
        <ele>269.1</ele>
        <time>2011-10-16T16:45:26Z</time>
      </trkpt>
      <trkpt lat="45.19883" lon="5.77089">
        <ele>269.1</ele>
        <time>2011-10-16T16:45:28Z</time>
      </trkpt>
      <trkpt lat="45.1989" lon="5.77095">
        <ele>269.1</ele>
        <time>2011-10-16T16:45:30Z</time>
      </trkpt>
      <trkpt lat="45.19897" lon="5.77101">
        <ele>268.9</ele>
        <time>2011-10-16T16:45:32Z</time>
      </trkpt>
      <trkpt lat="45.19901" lon="5.77104">
        <ele>269</ele>
        <time>2011-10-16T16:45:33Z</time>
      </trkpt>
      <trkpt lat="45.19905" lon="5.77107">
        <ele>268.8</ele>
        <time>2011-10-16T16:45:34Z</time>
      </trkpt>
      <trkpt lat="45.19909" lon="5.7711">
        <ele>268.8</ele>
        <time>2011-10-16T16:45:35Z</time>
      </trkpt>
      <trkpt lat="45.19913" lon="5.77114">
        <ele>268.9</ele>
        <time>2011-10-16T16:45:36Z</time>
      </trkpt>
      <trkpt lat="45.19917" lon="5.77117">
        <ele>269</ele>
        <time>2011-10-16T16:45:37Z</time>
      </trkpt>
      <trkpt lat="45.19925" lon="5.77123">
        <ele>269.1</ele>
        <time>2011-10-16T16:45:39Z</time>
      </trkpt>
      <trkpt lat="45.19932" lon="5.77129">
        <ele>269</ele>
        <time>2011-10-16T16:45:41Z</time>
      </trkpt>
      <trkpt lat="45.19939" lon="5.77135">
        <ele>268.8</ele>
        <time>2011-10-16T16:45:43Z</time>
      </trkpt>
      <trkpt lat="45.19946" lon="5.77142">
        <ele>268.9</ele>
        <time>2011-10-16T16:45:45Z</time>
      </trkpt>
      <trkpt lat="45.1995" lon="5.77146">
        <ele>268.9</ele>
        <time>2011-10-16T16:45:46Z</time>
      </trkpt>
      <trkpt lat="45.19953" lon="5.7715">
        <ele>268.8</ele>
        <time>2011-10-16T16:45:47Z</time>
      </trkpt>
      <trkpt lat="45.19957" lon="5.77154">
        <ele>268.7</ele>
        <time>2011-10-16T16:45:48Z</time>
      </trkpt>
      <trkpt lat="45.1996" lon="5.77158">
        <ele>268.6</ele>
        <time>2011-10-16T16:45:49Z</time>
      </trkpt>
      <trkpt lat="45.19964" lon="5.77162">
        <ele>268.3</ele>
        <time>2011-10-16T16:45:50Z</time>
      </trkpt>
      <trkpt lat="45.19967" lon="5.77167">
        <ele>268.1</ele>
        <time>2011-10-16T16:45:51Z</time>
      </trkpt>
      <trkpt lat="45.1997" lon="5.77172">
        <ele>268.2</ele>
        <time>2011-10-16T16:45:52Z</time>
      </trkpt>
      <trkpt lat="45.19973" lon="5.77177">
        <ele>268.3</ele>
        <time>2011-10-16T16:45:53Z</time>
      </trkpt>
      <trkpt lat="45.19979" lon="5.77186">
        <ele>268.3</ele>
        <time>2011-10-16T16:45:55Z</time>
      </trkpt>
      <trkpt lat="45.19984" lon="5.77196">
        <ele>268.3</ele>
        <time>2011-10-16T16:45:57Z</time>
      </trkpt>
      <trkpt lat="45.19989" lon="5.77205">
        <ele>268.4</ele>
        <time>2011-10-16T16:45:59Z</time>
      </trkpt>
      <trkpt lat="45.19994" lon="5.77216">
        <ele>268.5</ele>
        <time>2011-10-16T16:46:01Z</time>
      </trkpt>
      <trkpt lat="45.19996" lon="5.77221">
        <ele>268.4</ele>
        <time>2011-10-16T16:46:02Z</time>
      </trkpt>
      <trkpt lat="45.20001" lon="5.77232">
        <ele>268.6</ele>
        <time>2011-10-16T16:46:04Z</time>
      </trkpt>
      <trkpt lat="45.20003" lon="5.77238">
        <ele>268.5</ele>
        <time>2011-10-16T16:46:05Z</time>
      </trkpt>
      <trkpt lat="45.20004" lon="5.77243">
        <ele>268.5</ele>
        <time>2011-10-16T16:46:06Z</time>
      </trkpt>
      <trkpt lat="45.20007" lon="5.77249">
        <ele>268.5</ele>
        <time>2011-10-16T16:46:07Z</time>
      </trkpt>
      <trkpt lat="45.20011" lon="5.7726">
        <ele>268.3</ele>
        <time>2011-10-16T16:46:09Z</time>
      </trkpt>
      <trkpt lat="45.20015" lon="5.77271">
        <ele>268.6</ele>
        <time>2011-10-16T16:46:11Z</time>
      </trkpt>
      <trkpt lat="45.20016" lon="5.77277">
        <ele>268.6</ele>
        <time>2011-10-16T16:46:12Z</time>
      </trkpt>
      <trkpt lat="45.20018" lon="5.77283">
        <ele>268.5</ele>
        <time>2011-10-16T16:46:13Z</time>
      </trkpt>
      <trkpt lat="45.2002" lon="5.77289">
        <ele>268.5</ele>
        <time>2011-10-16T16:46:14Z</time>
      </trkpt>
      <trkpt lat="45.20022" lon="5.77295">
        <ele>268.6</ele>
        <time>2011-10-16T16:46:15Z</time>
      </trkpt>
      <trkpt lat="45.20026" lon="5.77306">
        <ele>268.6</ele>
        <time>2011-10-16T16:46:17Z</time>
      </trkpt>
      <trkpt lat="45.20027" lon="5.77312">
        <ele>268.8</ele>
        <time>2011-10-16T16:46:18Z</time>
      </trkpt>
      <trkpt lat="45.2003" lon="5.77324">
        <ele>269</ele>
        <time>2011-10-16T16:46:20Z</time>
      </trkpt>
      <trkpt lat="45.20032" lon="5.7733">
        <ele>269.2</ele>
        <time>2011-10-16T16:46:21Z</time>
      </trkpt>
      <trkpt lat="45.20035" lon="5.77341">
        <ele>269.7</ele>
        <time>2011-10-16T16:46:23Z</time>
      </trkpt>
      <trkpt lat="45.20037" lon="5.77347">
        <ele>269.8</ele>
        <time>2011-10-16T16:46:24Z</time>
      </trkpt>
      <trkpt lat="45.20039" lon="5.77353">
        <ele>269.8</ele>
        <time>2011-10-16T16:46:25Z</time>
      </trkpt>
      <trkpt lat="45.20042" lon="5.77365">
        <ele>270</ele>
        <time>2011-10-16T16:46:27Z</time>
      </trkpt>
      <trkpt lat="45.20043" lon="5.77371">
        <ele>270.2</ele>
        <time>2011-10-16T16:46:28Z</time>
      </trkpt>
      <trkpt lat="45.20044" lon="5.77377">
        <ele>270.5</ele>
        <time>2011-10-16T16:46:29Z</time>
      </trkpt>
      <trkpt lat="45.20046" lon="5.77389">
        <ele>270.5</ele>
        <time>2011-10-16T16:46:31Z</time>
      </trkpt>
      <trkpt lat="45.20048" lon="5.77401">
        <ele>270.3</ele>
        <time>2011-10-16T16:46:33Z</time>
      </trkpt>
      <trkpt lat="45.20049" lon="5.77413">
        <ele>270.5</ele>
        <time>2011-10-16T16:46:35Z</time>
      </trkpt>
      <trkpt lat="45.2005" lon="5.77426">
        <ele>270.6</ele>
        <time>2011-10-16T16:46:37Z</time>
      </trkpt>
      <trkpt lat="45.20051" lon="5.77438">
        <ele>270.9</ele>
        <time>2011-10-16T16:46:39Z</time>
      </trkpt>
      <trkpt lat="45.20052" lon="5.7745">
        <ele>270.9</ele>
        <time>2011-10-16T16:46:41Z</time>
      </trkpt>
      <trkpt lat="45.20053" lon="5.77462">
        <ele>270.8</ele>
        <time>2011-10-16T16:46:43Z</time>
      </trkpt>
      <trkpt lat="45.20053" lon="5.77474">
        <ele>270.3</ele>
        <time>2011-10-16T16:46:45Z</time>
      </trkpt>
      <trkpt lat="45.20054" lon="5.77485">
        <ele>270.3</ele>
        <time>2011-10-16T16:46:47Z</time>
      </trkpt>
      <trkpt lat="45.20054" lon="5.77497">
        <ele>270</ele>
        <time>2011-10-16T16:46:49Z</time>
      </trkpt>
      <trkpt lat="45.20053" lon="5.7751">
        <ele>270.1</ele>
        <time>2011-10-16T16:46:51Z</time>
      </trkpt>
      <trkpt lat="45.20052" lon="5.77522">
        <ele>270.2</ele>
        <time>2011-10-16T16:46:53Z</time>
      </trkpt>
      <trkpt lat="45.2005" lon="5.77534">
        <ele>270</ele>
        <time>2011-10-16T16:46:55Z</time>
      </trkpt>
      <trkpt lat="45.20049" lon="5.7754">
        <ele>270.1</ele>
        <time>2011-10-16T16:46:56Z</time>
      </trkpt>
      <trkpt lat="45.20047" lon="5.77552">
        <ele>270.2</ele>
        <time>2011-10-16T16:46:58Z</time>
      </trkpt>
      <trkpt lat="45.20045" lon="5.77564">
        <ele>270.4</ele>
        <time>2011-10-16T16:47:00Z</time>
      </trkpt>
      <trkpt lat="45.20043" lon="5.7757">
        <ele>270.5</ele>
        <time>2011-10-16T16:47:01Z</time>
      </trkpt>
      <trkpt lat="45.20042" lon="5.77576">
        <ele>270.4</ele>
        <time>2011-10-16T16:47:02Z</time>
      </trkpt>
      <trkpt lat="45.20039" lon="5.77588">
        <ele>270.4</ele>
        <time>2011-10-16T16:47:04Z</time>
      </trkpt>
      <trkpt lat="45.20036" lon="5.776">
        <ele>270.3</ele>
        <time>2011-10-16T16:47:06Z</time>
      </trkpt>
      <trkpt lat="45.20033" lon="5.77611">
        <ele>270.6</ele>
        <time>2011-10-16T16:47:08Z</time>
      </trkpt>
      <trkpt lat="45.20029" lon="5.77622">
        <ele>270.6</ele>
        <time>2011-10-16T16:47:10Z</time>
      </trkpt>
      <trkpt lat="45.20025" lon="5.77633">
        <ele>270.7</ele>
        <time>2011-10-16T16:47:12Z</time>
      </trkpt>
      <trkpt lat="45.2002" lon="5.77644">
        <ele>270.6</ele>
        <time>2011-10-16T16:47:14Z</time>
      </trkpt>
      <trkpt lat="45.20016" lon="5.77654">
        <ele>270.8</ele>
        <time>2011-10-16T16:47:16Z</time>
      </trkpt>
      <trkpt lat="45.2001" lon="5.77664">
        <ele>270.8</ele>
        <time>2011-10-16T16:47:18Z</time>
      </trkpt>
      <trkpt lat="45.20008" lon="5.77669">
        <ele>270.7</ele>
        <time>2011-10-16T16:47:19Z</time>
      </trkpt>
      <trkpt lat="45.20002" lon="5.77678">
        <ele>270.4</ele>
        <time>2011-10-16T16:47:21Z</time>
      </trkpt>
      <trkpt lat="45.19997" lon="5.77687">
        <ele>270.3</ele>
        <time>2011-10-16T16:47:23Z</time>
      </trkpt>
      <trkpt lat="45.19991" lon="5.77695">
        <ele>269.9</ele>
        <time>2011-10-16T16:47:25Z</time>
      </trkpt>
      <trkpt lat="45.19985" lon="5.77704">
        <ele>269.9</ele>
        <time>2011-10-16T16:47:27Z</time>
      </trkpt>
      <trkpt lat="45.19979" lon="5.77711">
        <ele>269.6</ele>
        <time>2011-10-16T16:47:29Z</time>
      </trkpt>
      <trkpt lat="45.19973" lon="5.77719">
        <ele>269.3</ele>
        <time>2011-10-16T16:47:31Z</time>
      </trkpt>
      <trkpt lat="45.19967" lon="5.77727">
        <ele>269.2</ele>
        <time>2011-10-16T16:47:33Z</time>
      </trkpt>
      <trkpt lat="45.1996" lon="5.77735">
        <ele>269.1</ele>
        <time>2011-10-16T16:47:35Z</time>
      </trkpt>
      <trkpt lat="45.19953" lon="5.77742">
        <ele>269.2</ele>
        <time>2011-10-16T16:47:37Z</time>
      </trkpt>
      <trkpt lat="45.19946" lon="5.7775">
        <ele>269.3</ele>
        <time>2011-10-16T16:47:39Z</time>
      </trkpt>
      <trkpt lat="45.19939" lon="5.77758">
        <ele>269.3</ele>
        <time>2011-10-16T16:47:41Z</time>
      </trkpt>
      <trkpt lat="45.19932" lon="5.77765">
        <ele>269.5</ele>
        <time>2011-10-16T16:47:43Z</time>
      </trkpt>
      <trkpt lat="45.19924" lon="5.77771">
        <ele>269.4</ele>
        <time>2011-10-16T16:47:45Z</time>
      </trkpt>
      <trkpt lat="45.19917" lon="5.77776">
        <ele>269.2</ele>
        <time>2011-10-16T16:47:47Z</time>
      </trkpt>
      <trkpt lat="45.19909" lon="5.77781">
        <ele>268.9</ele>
        <time>2011-10-16T16:47:49Z</time>
      </trkpt>
      <trkpt lat="45.19901" lon="5.77786">
        <ele>268.7</ele>
        <time>2011-10-16T16:47:51Z</time>
      </trkpt>
      <trkpt lat="45.19893" lon="5.77792">
        <ele>268.7</ele>
        <time>2011-10-16T16:47:53Z</time>
      </trkpt>
      <trkpt lat="45.19886" lon="5.77797">
        <ele>268.6</ele>
        <time>2011-10-16T16:47:55Z</time>
      </trkpt>
      <trkpt lat="45.19878" lon="5.77802">
        <ele>268.6</ele>
        <time>2011-10-16T16:47:57Z</time>
      </trkpt>
      <trkpt lat="45.1987" lon="5.77807">
        <ele>268.7</ele>
        <time>2011-10-16T16:47:59Z</time>
      </trkpt>
      <trkpt lat="45.19862" lon="5.77813">
        <ele>268.8</ele>
        <time>2011-10-16T16:48:01Z</time>
      </trkpt>
      <trkpt lat="45.19854" lon="5.77818">
        <ele>268.8</ele>
        <time>2011-10-16T16:48:03Z</time>
      </trkpt>
      <trkpt lat="45.19846" lon="5.77822">
        <ele>268.8</ele>
        <time>2011-10-16T16:48:05Z</time>
      </trkpt>
      <trkpt lat="45.19837" lon="5.77826">
        <ele>268.4</ele>
        <time>2011-10-16T16:48:07Z</time>
      </trkpt>
      <trkpt lat="45.19828" lon="5.7783">
        <ele>268.2</ele>
        <time>2011-10-16T16:48:09Z</time>
      </trkpt>
      <trkpt lat="45.1982" lon="5.77833">
        <ele>268</ele>
        <time>2011-10-16T16:48:11Z</time>
      </trkpt>
      <trkpt lat="45.19811" lon="5.77835">
        <ele>268</ele>
        <time>2011-10-16T16:48:13Z</time>
      </trkpt>
      <trkpt lat="45.19803" lon="5.77838">
        <ele>267.7</ele>
        <time>2011-10-16T16:48:15Z</time>
      </trkpt>
      <trkpt lat="45.19794" lon="5.7784">
        <ele>267.7</ele>
        <time>2011-10-16T16:48:17Z</time>
      </trkpt>
      <trkpt lat="45.19787" lon="5.77842">
        <ele>267.8</ele>
        <time>2011-10-16T16:48:19Z</time>
      </trkpt>
      <trkpt lat="45.1978" lon="5.77845">
        <ele>267.9</ele>
        <time>2011-10-16T16:48:21Z</time>
      </trkpt>
      <trkpt lat="45.19753" lon="5.77852">
        <ele>271.5</ele>
        <time>2011-10-16T16:48:30Z</time>
      </trkpt>
      <trkpt lat="45.19747" lon="5.77854">
        <ele>270.6</ele>
        <time>2011-10-16T16:48:32Z</time>
      </trkpt>
      <trkpt lat="45.19741" lon="5.77857">
        <ele>269.3</ele>
        <time>2011-10-16T16:48:34Z</time>
      </trkpt>
      <trkpt lat="45.19735" lon="5.7786">
        <ele>268.9</ele>
        <time>2011-10-16T16:48:36Z</time>
      </trkpt>
      <trkpt lat="45.19728" lon="5.77862">
        <ele>268.6</ele>
        <time>2011-10-16T16:48:38Z</time>
      </trkpt>
      <trkpt lat="45.19721" lon="5.77864">
        <ele>268.4</ele>
        <time>2011-10-16T16:48:40Z</time>
      </trkpt>
      <trkpt lat="45.19714" lon="5.77866">
        <ele>268.3</ele>
        <time>2011-10-16T16:48:42Z</time>
      </trkpt>
      <trkpt lat="45.19707" lon="5.77868">
        <ele>268.1</ele>
        <time>2011-10-16T16:48:44Z</time>
      </trkpt>
      <trkpt lat="45.19701" lon="5.7787">
        <ele>267.9</ele>
        <time>2011-10-16T16:48:46Z</time>
      </trkpt>
      <trkpt lat="45.19696" lon="5.77871">
        <ele>267.8</ele>
        <time>2011-10-16T16:48:48Z</time>
      </trkpt>
      <trkpt lat="45.19691" lon="5.77872">
        <ele>267.6</ele>
        <time>2011-10-16T16:48:50Z</time>
      </trkpt>
      <trkpt lat="45.19685" lon="5.77874">
        <ele>267.5</ele>
        <time>2011-10-16T16:48:52Z</time>
      </trkpt>
      <trkpt lat="45.19679" lon="5.77875">
        <ele>267.4</ele>
        <time>2011-10-16T16:48:54Z</time>
      </trkpt>
      <trkpt lat="45.19674" lon="5.77876">
        <ele>267.2</ele>
        <time>2011-10-16T16:48:56Z</time>
      </trkpt>
      <trkpt lat="45.19668" lon="5.77878">
        <ele>267.2</ele>
        <time>2011-10-16T16:48:58Z</time>
      </trkpt>
      <trkpt lat="45.19664" lon="5.7788">
        <ele>267.2</ele>
        <time>2011-10-16T16:49:00Z</time>
      </trkpt>
      <trkpt lat="45.19658" lon="5.77881">
        <ele>267.2</ele>
        <time>2011-10-16T16:49:03Z</time>
      </trkpt>
      <trkpt lat="45.19652" lon="5.77883">
        <ele>267.2</ele>
        <time>2011-10-16T16:49:06Z</time>
      </trkpt>
      <trkpt lat="45.19648" lon="5.77884">
        <ele>267.3</ele>
        <time>2011-10-16T16:49:08Z</time>
      </trkpt>
      <trkpt lat="45.19642" lon="5.77886">
        <ele>267.3</ele>
        <time>2011-10-16T16:49:10Z</time>
      </trkpt>
      <trkpt lat="45.19636" lon="5.77888">
        <ele>267.4</ele>
        <time>2011-10-16T16:49:12Z</time>
      </trkpt>
      <trkpt lat="45.1963" lon="5.7789">
        <ele>267.4</ele>
        <time>2011-10-16T16:49:14Z</time>
      </trkpt>
      <trkpt lat="45.19623" lon="5.77893">
        <ele>267.4</ele>
        <time>2011-10-16T16:49:16Z</time>
      </trkpt>
      <trkpt lat="45.19616" lon="5.77896">
        <ele>267.4</ele>
        <time>2011-10-16T16:49:18Z</time>
      </trkpt>
      <trkpt lat="45.19609" lon="5.77899">
        <ele>267.4</ele>
        <time>2011-10-16T16:49:20Z</time>
      </trkpt>
      <trkpt lat="45.19602" lon="5.77901">
        <ele>267.4</ele>
        <time>2011-10-16T16:49:22Z</time>
      </trkpt>
      <trkpt lat="45.19595" lon="5.77904">
        <ele>267.5</ele>
        <time>2011-10-16T16:49:24Z</time>
      </trkpt>
      <trkpt lat="45.19588" lon="5.77907">
        <ele>267.5</ele>
        <time>2011-10-16T16:49:26Z</time>
      </trkpt>
      <trkpt lat="45.19581" lon="5.7791">
        <ele>267.5</ele>
        <time>2011-10-16T16:49:28Z</time>
      </trkpt>
      <trkpt lat="45.19574" lon="5.77913">
        <ele>267.5</ele>
        <time>2011-10-16T16:49:30Z</time>
      </trkpt>
      <trkpt lat="45.19567" lon="5.77917">
        <ele>267.4</ele>
        <time>2011-10-16T16:49:32Z</time>
      </trkpt>
      <trkpt lat="45.1956" lon="5.7792">
        <ele>267.4</ele>
        <time>2011-10-16T16:49:34Z</time>
      </trkpt>
      <trkpt lat="45.19552" lon="5.77923">
        <ele>267.4</ele>
        <time>2011-10-16T16:49:36Z</time>
      </trkpt>
      <trkpt lat="45.19544" lon="5.77926">
        <ele>267.5</ele>
        <time>2011-10-16T16:49:38Z</time>
      </trkpt>
      <trkpt lat="45.19537" lon="5.77928">
        <ele>267.7</ele>
        <time>2011-10-16T16:49:40Z</time>
      </trkpt>
      <trkpt lat="45.1953" lon="5.77931">
        <ele>267.8</ele>
        <time>2011-10-16T16:49:42Z</time>
      </trkpt>
      <trkpt lat="45.19522" lon="5.77934">
        <ele>267.9</ele>
        <time>2011-10-16T16:49:44Z</time>
      </trkpt>
      <trkpt lat="45.19515" lon="5.77936">
        <ele>268</ele>
        <time>2011-10-16T16:49:46Z</time>
      </trkpt>
      <trkpt lat="45.19507" lon="5.7794">
        <ele>268.4</ele>
        <time>2011-10-16T16:49:48Z</time>
      </trkpt>
      <trkpt lat="45.195" lon="5.77943">
        <ele>268.8</ele>
        <time>2011-10-16T16:49:50Z</time>
      </trkpt>
      <trkpt lat="45.19492" lon="5.77946">
        <ele>269</ele>
        <time>2011-10-16T16:49:52Z</time>
      </trkpt>
      <trkpt lat="45.19485" lon="5.77948">
        <ele>269</ele>
        <time>2011-10-16T16:49:54Z</time>
      </trkpt>
      <trkpt lat="45.19478" lon="5.77952">
        <ele>269.1</ele>
        <time>2011-10-16T16:49:56Z</time>
      </trkpt>
      <trkpt lat="45.1947" lon="5.77954">
        <ele>269.3</ele>
        <time>2011-10-16T16:49:58Z</time>
      </trkpt>
      <trkpt lat="45.19463" lon="5.77957">
        <ele>269.5</ele>
        <time>2011-10-16T16:50:00Z</time>
      </trkpt>
      <trkpt lat="45.19456" lon="5.77958">
        <ele>269.6</ele>
        <time>2011-10-16T16:50:02Z</time>
      </trkpt>
      <trkpt lat="45.19449" lon="5.77959">
        <ele>269.7</ele>
        <time>2011-10-16T16:50:04Z</time>
      </trkpt>
      <trkpt lat="45.19441" lon="5.7796">
        <ele>269.9</ele>
        <time>2011-10-16T16:50:06Z</time>
      </trkpt>
      <trkpt lat="45.19434" lon="5.77962">
        <ele>270</ele>
        <time>2011-10-16T16:50:08Z</time>
      </trkpt>
      <trkpt lat="45.19425" lon="5.77962">
        <ele>269.9</ele>
        <time>2011-10-16T16:50:10Z</time>
      </trkpt>
      <trkpt lat="45.19417" lon="5.77964">
        <ele>269.7</ele>
        <time>2011-10-16T16:50:12Z</time>
      </trkpt>
      <trkpt lat="45.19409" lon="5.77965">
        <ele>269.9</ele>
        <time>2011-10-16T16:50:14Z</time>
      </trkpt>
      <trkpt lat="45.19401" lon="5.77966">
        <ele>270.4</ele>
        <time>2011-10-16T16:50:16Z</time>
      </trkpt>
      <trkpt lat="45.19393" lon="5.77967">
        <ele>270.3</ele>
        <time>2011-10-16T16:50:18Z</time>
      </trkpt>
      <trkpt lat="45.19385" lon="5.77968">
        <ele>270</ele>
        <time>2011-10-16T16:50:20Z</time>
      </trkpt>
      <trkpt lat="45.19377" lon="5.7797">
        <ele>269.5</ele>
        <time>2011-10-16T16:50:22Z</time>
      </trkpt>
      <trkpt lat="45.19369" lon="5.77971">
        <ele>269.2</ele>
        <time>2011-10-16T16:50:24Z</time>
      </trkpt>
      <trkpt lat="45.19361" lon="5.7797">
        <ele>267.8</ele>
        <time>2011-10-16T16:50:26Z</time>
      </trkpt>
      <trkpt lat="45.19353" lon="5.7797">
        <ele>266.8</ele>
        <time>2011-10-16T16:50:28Z</time>
      </trkpt>
      <trkpt lat="45.19345" lon="5.77971">
        <ele>267.1</ele>
        <time>2011-10-16T16:50:30Z</time>
      </trkpt>
      <trkpt lat="45.19338" lon="5.77971">
        <ele>267</ele>
        <time>2011-10-16T16:50:32Z</time>
      </trkpt>
      <trkpt lat="45.1933" lon="5.77972">
        <ele>267</ele>
        <time>2011-10-16T16:50:34Z</time>
      </trkpt>
      <trkpt lat="45.19322" lon="5.77972">
        <ele>267.1</ele>
        <time>2011-10-16T16:50:36Z</time>
      </trkpt>
      <trkpt lat="45.19315" lon="5.77973">
        <ele>267.2</ele>
        <time>2011-10-16T16:50:38Z</time>
      </trkpt>
      <trkpt lat="45.19307" lon="5.77974">
        <ele>267.4</ele>
        <time>2011-10-16T16:50:40Z</time>
      </trkpt>
      <trkpt lat="45.19299" lon="5.77974">
        <ele>267.7</ele>
        <time>2011-10-16T16:50:42Z</time>
      </trkpt>
      <trkpt lat="45.19291" lon="5.77975">
        <ele>267.9</ele>
        <time>2011-10-16T16:50:44Z</time>
      </trkpt>
      <trkpt lat="45.19284" lon="5.77976">
        <ele>268.2</ele>
        <time>2011-10-16T16:50:46Z</time>
      </trkpt>
      <trkpt lat="45.19276" lon="5.77977">
        <ele>268.5</ele>
        <time>2011-10-16T16:50:48Z</time>
      </trkpt>
      <trkpt lat="45.19268" lon="5.77978">
        <ele>268.4</ele>
        <time>2011-10-16T16:50:50Z</time>
      </trkpt>
      <trkpt lat="45.19261" lon="5.7798">
        <ele>268.7</ele>
        <time>2011-10-16T16:50:52Z</time>
      </trkpt>
      <trkpt lat="45.19253" lon="5.77982">
        <ele>268.9</ele>
        <time>2011-10-16T16:50:54Z</time>
      </trkpt>
      <trkpt lat="45.19245" lon="5.77984">
        <ele>269.2</ele>
        <time>2011-10-16T16:50:56Z</time>
      </trkpt>
      <trkpt lat="45.19237" lon="5.77986">
        <ele>269.1</ele>
        <time>2011-10-16T16:50:58Z</time>
      </trkpt>
      <trkpt lat="45.1923" lon="5.7799">
        <ele>269.2</ele>
        <time>2011-10-16T16:51:00Z</time>
      </trkpt>
      <trkpt lat="45.19222" lon="5.77994">
        <ele>269.4</ele>
        <time>2011-10-16T16:51:02Z</time>
      </trkpt>
      <trkpt lat="45.19216" lon="5.77998">
        <ele>269</ele>
        <time>2011-10-16T16:51:04Z</time>
      </trkpt>
      <trkpt lat="45.19209" lon="5.78003">
        <ele>268.8</ele>
        <time>2011-10-16T16:51:06Z</time>
      </trkpt>
      <trkpt lat="45.19203" lon="5.78009">
        <ele>268.7</ele>
        <time>2011-10-16T16:51:08Z</time>
      </trkpt>
      <trkpt lat="45.19197" lon="5.78016">
        <ele>268.9</ele>
        <time>2011-10-16T16:51:10Z</time>
      </trkpt>
      <trkpt lat="45.1919" lon="5.78024">
        <ele>269.1</ele>
        <time>2011-10-16T16:51:12Z</time>
      </trkpt>
      <trkpt lat="45.19184" lon="5.78031">
        <ele>269.3</ele>
        <time>2011-10-16T16:51:14Z</time>
      </trkpt>
      <trkpt lat="45.19179" lon="5.78039">
        <ele>269</ele>
        <time>2011-10-16T16:51:16Z</time>
      </trkpt>
      <trkpt lat="45.19173" lon="5.78047">
        <ele>268.9</ele>
        <time>2011-10-16T16:51:18Z</time>
      </trkpt>
      <trkpt lat="45.19168" lon="5.78054">
        <ele>268.7</ele>
        <time>2011-10-16T16:51:20Z</time>
      </trkpt>
      <trkpt lat="45.19162" lon="5.78062">
        <ele>268.6</ele>
        <time>2011-10-16T16:51:22Z</time>
      </trkpt>
      <trkpt lat="45.19156" lon="5.7807">
        <ele>268.6</ele>
        <time>2011-10-16T16:51:24Z</time>
      </trkpt>
      <trkpt lat="45.19151" lon="5.78077">
        <ele>268.7</ele>
        <time>2011-10-16T16:51:26Z</time>
      </trkpt>
      <trkpt lat="45.19146" lon="5.78085">
        <ele>268.6</ele>
        <time>2011-10-16T16:51:28Z</time>
      </trkpt>
      <trkpt lat="45.19142" lon="5.78093">
        <ele>268.6</ele>
        <time>2011-10-16T16:51:30Z</time>
      </trkpt>
      <trkpt lat="45.19137" lon="5.78101">
        <ele>268.5</ele>
        <time>2011-10-16T16:51:32Z</time>
      </trkpt>
      <trkpt lat="45.19133" lon="5.7811">
        <ele>268.8</ele>
        <time>2011-10-16T16:51:34Z</time>
      </trkpt>
      <trkpt lat="45.19129" lon="5.78118">
        <ele>268.9</ele>
        <time>2011-10-16T16:51:36Z</time>
      </trkpt>
      <trkpt lat="45.19126" lon="5.78126">
        <ele>269</ele>
        <time>2011-10-16T16:51:38Z</time>
      </trkpt>
      <trkpt lat="45.19122" lon="5.78135">
        <ele>269.3</ele>
        <time>2011-10-16T16:51:40Z</time>
      </trkpt>
      <trkpt lat="45.19118" lon="5.78145">
        <ele>269.3</ele>
        <time>2011-10-16T16:51:42Z</time>
      </trkpt>
      <trkpt lat="45.19113" lon="5.78154">
        <ele>269.3</ele>
        <time>2011-10-16T16:51:44Z</time>
      </trkpt>
      <trkpt lat="45.19109" lon="5.78164">
        <ele>269.4</ele>
        <time>2011-10-16T16:51:46Z</time>
      </trkpt>
      <trkpt lat="45.19105" lon="5.78172">
        <ele>269.3</ele>
        <time>2011-10-16T16:51:48Z</time>
      </trkpt>
      <trkpt lat="45.191" lon="5.78182">
        <ele>269.1</ele>
        <time>2011-10-16T16:51:50Z</time>
      </trkpt>
      <trkpt lat="45.19097" lon="5.78187">
        <ele>269</ele>
        <time>2011-10-16T16:51:51Z</time>
      </trkpt>
      <trkpt lat="45.19094" lon="5.78193">
        <ele>268.9</ele>
        <time>2011-10-16T16:51:52Z</time>
      </trkpt>
      <trkpt lat="45.19091" lon="5.78198">
        <ele>268.8</ele>
        <time>2011-10-16T16:51:53Z</time>
      </trkpt>
      <trkpt lat="45.19088" lon="5.78204">
        <ele>268.7</ele>
        <time>2011-10-16T16:51:54Z</time>
      </trkpt>
      <trkpt lat="45.19086" lon="5.78211">
        <ele>268.6</ele>
        <time>2011-10-16T16:51:55Z</time>
      </trkpt>
      <trkpt lat="45.19083" lon="5.78218">
        <ele>268.6</ele>
        <time>2011-10-16T16:51:56Z</time>
      </trkpt>
      <trkpt lat="45.1908" lon="5.78224">
        <ele>268.7</ele>
        <time>2011-10-16T16:51:57Z</time>
      </trkpt>
      <trkpt lat="45.19076" lon="5.78234">
        <ele>268.7</ele>
        <time>2011-10-16T16:51:59Z</time>
      </trkpt>
      <trkpt lat="45.19071" lon="5.78243">
        <ele>268.8</ele>
        <time>2011-10-16T16:52:01Z</time>
      </trkpt>
      <trkpt lat="45.19067" lon="5.78252">
        <ele>268.6</ele>
        <time>2011-10-16T16:52:03Z</time>
      </trkpt>
      <trkpt lat="45.19062" lon="5.78261">
        <ele>268.5</ele>
        <time>2011-10-16T16:52:05Z</time>
      </trkpt>
      <trkpt lat="45.19058" lon="5.78271">
        <ele>268.4</ele>
        <time>2011-10-16T16:52:07Z</time>
      </trkpt>
      <trkpt lat="45.19054" lon="5.7828">
        <ele>268.3</ele>
        <time>2011-10-16T16:52:09Z</time>
      </trkpt>
      <trkpt lat="45.1905" lon="5.78289">
        <ele>268.2</ele>
        <time>2011-10-16T16:52:11Z</time>
      </trkpt>
      <trkpt lat="45.19046" lon="5.78299">
        <ele>268.2</ele>
        <time>2011-10-16T16:52:13Z</time>
      </trkpt>
      <trkpt lat="45.19042" lon="5.78308">
        <ele>268.1</ele>
        <time>2011-10-16T16:52:15Z</time>
      </trkpt>
      <trkpt lat="45.19038" lon="5.78316">
        <ele>268.1</ele>
        <time>2011-10-16T16:52:17Z</time>
      </trkpt>
      <trkpt lat="45.19036" lon="5.78323">
        <ele>268.1</ele>
        <time>2011-10-16T16:52:19Z</time>
      </trkpt>
      <trkpt lat="45.19033" lon="5.7833">
        <ele>268.3</ele>
        <time>2011-10-16T16:52:21Z</time>
      </trkpt>
      <trkpt lat="45.1903" lon="5.78338">
        <ele>268.4</ele>
        <time>2011-10-16T16:52:23Z</time>
      </trkpt>
      <trkpt lat="45.19026" lon="5.78347">
        <ele>268.4</ele>
        <time>2011-10-16T16:52:25Z</time>
      </trkpt>
      <trkpt lat="45.19022" lon="5.78356">
        <ele>268.4</ele>
        <time>2011-10-16T16:52:27Z</time>
      </trkpt>
      <trkpt lat="45.19019" lon="5.78365">
        <ele>268.4</ele>
        <time>2011-10-16T16:52:29Z</time>
      </trkpt>
      <trkpt lat="45.19016" lon="5.78375">
        <ele>268.5</ele>
        <time>2011-10-16T16:52:31Z</time>
      </trkpt>
      <trkpt lat="45.19013" lon="5.78385">
        <ele>268.4</ele>
        <time>2011-10-16T16:52:33Z</time>
      </trkpt>
      <trkpt lat="45.19009" lon="5.78395">
        <ele>268.5</ele>
        <time>2011-10-16T16:52:35Z</time>
      </trkpt>
      <trkpt lat="45.19006" lon="5.78406">
        <ele>268.6</ele>
        <time>2011-10-16T16:52:37Z</time>
      </trkpt>
      <trkpt lat="45.19003" lon="5.78418">
        <ele>268.7</ele>
        <time>2011-10-16T16:52:39Z</time>
      </trkpt>
      <trkpt lat="45.19001" lon="5.78424">
        <ele>268.7</ele>
        <time>2011-10-16T16:52:40Z</time>
      </trkpt>
      <trkpt lat="45.19" lon="5.7843">
        <ele>268.8</ele>
        <time>2011-10-16T16:52:41Z</time>
      </trkpt>
      <trkpt lat="45.18998" lon="5.78436">
        <ele>268.8</ele>
        <time>2011-10-16T16:52:42Z</time>
      </trkpt>
      <trkpt lat="45.18997" lon="5.78442">
        <ele>268.8</ele>
        <time>2011-10-16T16:52:43Z</time>
      </trkpt>
      <trkpt lat="45.18995" lon="5.78448">
        <ele>268.8</ele>
        <time>2011-10-16T16:52:44Z</time>
      </trkpt>
      <trkpt lat="45.18994" lon="5.78454">
        <ele>268.8</ele>
        <time>2011-10-16T16:52:45Z</time>
      </trkpt>
      <trkpt lat="45.18992" lon="5.7846">
        <ele>268.8</ele>
        <time>2011-10-16T16:52:46Z</time>
      </trkpt>
      <trkpt lat="45.18991" lon="5.78467">
        <ele>268.9</ele>
        <time>2011-10-16T16:52:47Z</time>
      </trkpt>
      <trkpt lat="45.1899" lon="5.78473">
        <ele>268.9</ele>
        <time>2011-10-16T16:52:48Z</time>
      </trkpt>
      <trkpt lat="45.18988" lon="5.78479">
        <ele>268.9</ele>
        <time>2011-10-16T16:52:49Z</time>
      </trkpt>
      <trkpt lat="45.18987" lon="5.78486">
        <ele>268.9</ele>
        <time>2011-10-16T16:52:50Z</time>
      </trkpt>
      <trkpt lat="45.18985" lon="5.78492">
        <ele>268.9</ele>
        <time>2011-10-16T16:52:51Z</time>
      </trkpt>
      <trkpt lat="45.18984" lon="5.78498">
        <ele>268.9</ele>
        <time>2011-10-16T16:52:52Z</time>
      </trkpt>
      <trkpt lat="45.18982" lon="5.78509">
        <ele>268.9</ele>
        <time>2011-10-16T16:52:54Z</time>
      </trkpt>
      <trkpt lat="45.1898" lon="5.7852">
        <ele>268.9</ele>
        <time>2011-10-16T16:52:56Z</time>
      </trkpt>
      <trkpt lat="45.18978" lon="5.78531">
        <ele>268.9</ele>
        <time>2011-10-16T16:52:58Z</time>
      </trkpt>
      <trkpt lat="45.18975" lon="5.78541">
        <ele>268.9</ele>
        <time>2011-10-16T16:53:00Z</time>
      </trkpt>
      <trkpt lat="45.18973" lon="5.78551">
        <ele>268.9</ele>
        <time>2011-10-16T16:53:02Z</time>
      </trkpt>
      <trkpt lat="45.18971" lon="5.78562">
        <ele>268.9</ele>
        <time>2011-10-16T16:53:04Z</time>
      </trkpt>
      <trkpt lat="45.18969" lon="5.78572">
        <ele>268.8</ele>
        <time>2011-10-16T16:53:06Z</time>
      </trkpt>
      <trkpt lat="45.18967" lon="5.78582">
        <ele>268.8</ele>
        <time>2011-10-16T16:53:08Z</time>
      </trkpt>
      <trkpt lat="45.18965" lon="5.78592">
        <ele>268.7</ele>
        <time>2011-10-16T16:53:10Z</time>
      </trkpt>
      <trkpt lat="45.18963" lon="5.78602">
        <ele>268.7</ele>
        <time>2011-10-16T16:53:12Z</time>
      </trkpt>
      <trkpt lat="45.18961" lon="5.78612">
        <ele>268.6</ele>
        <time>2011-10-16T16:53:14Z</time>
      </trkpt>
      <trkpt lat="45.1896" lon="5.78621">
        <ele>268.6</ele>
        <time>2011-10-16T16:53:16Z</time>
      </trkpt>
      <trkpt lat="45.18958" lon="5.78628">
        <ele>268.6</ele>
        <time>2011-10-16T16:53:19Z</time>
      </trkpt>
      <trkpt lat="45.18957" lon="5.78637">
        <ele>269</ele>
        <time>2011-10-16T16:54:59Z</time>
      </trkpt>
      <trkpt lat="45.18955" lon="5.78645">
        <ele>269</ele>
        <time>2011-10-16T16:55:02Z</time>
      </trkpt>
      <trkpt lat="45.18954" lon="5.78652">
        <ele>269.1</ele>
        <time>2011-10-16T16:55:04Z</time>
      </trkpt>
      <trkpt lat="45.18952" lon="5.7866">
        <ele>269.1</ele>
        <time>2011-10-16T16:55:06Z</time>
      </trkpt>
      <trkpt lat="45.18951" lon="5.78669">
        <ele>269</ele>
        <time>2011-10-16T16:55:08Z</time>
      </trkpt>
      <trkpt lat="45.18949" lon="5.78678">
        <ele>269</ele>
        <time>2011-10-16T16:55:10Z</time>
      </trkpt>
      <trkpt lat="45.18947" lon="5.78687">
        <ele>269</ele>
        <time>2011-10-16T16:55:12Z</time>
      </trkpt>
      <trkpt lat="45.18945" lon="5.78697">
        <ele>269</ele>
        <time>2011-10-16T16:55:14Z</time>
      </trkpt>
      <trkpt lat="45.18943" lon="5.78707">
        <ele>269.1</ele>
        <time>2011-10-16T16:55:16Z</time>
      </trkpt>
      <trkpt lat="45.18941" lon="5.78716">
        <ele>269.1</ele>
        <time>2011-10-16T16:55:18Z</time>
      </trkpt>
      <trkpt lat="45.18939" lon="5.78726">
        <ele>269</ele>
        <time>2011-10-16T16:55:20Z</time>
      </trkpt>
      <trkpt lat="45.18937" lon="5.78735">
        <ele>269</ele>
        <time>2011-10-16T16:55:22Z</time>
      </trkpt>
      <trkpt lat="45.18933" lon="5.78743">
        <ele>269.1</ele>
        <time>2011-10-16T16:55:24Z</time>
      </trkpt>
      <trkpt lat="45.18927" lon="5.78749">
        <ele>268.7</ele>
        <time>2011-10-16T16:55:26Z</time>
      </trkpt>
      <trkpt lat="45.18922" lon="5.78756">
        <ele>268.6</ele>
        <time>2011-10-16T16:55:28Z</time>
      </trkpt>
      <trkpt lat="45.18918" lon="5.78767">
        <ele>268.7</ele>
        <time>2011-10-16T16:55:30Z</time>
      </trkpt>
      <trkpt lat="45.18916" lon="5.78777">
        <ele>268.7</ele>
        <time>2011-10-16T16:55:32Z</time>
      </trkpt>
      <trkpt lat="45.18914" lon="5.78788">
        <ele>268.7</ele>
        <time>2011-10-16T16:55:34Z</time>
      </trkpt>
      <trkpt lat="45.18912" lon="5.78798">
        <ele>268.7</ele>
        <time>2011-10-16T16:55:36Z</time>
      </trkpt>
      <trkpt lat="45.1891" lon="5.78808">
        <ele>268.7</ele>
        <time>2011-10-16T16:55:38Z</time>
      </trkpt>
      <trkpt lat="45.18908" lon="5.78818">
        <ele>268.7</ele>
        <time>2011-10-16T16:55:40Z</time>
      </trkpt>
      <trkpt lat="45.18906" lon="5.78828">
        <ele>268.7</ele>
        <time>2011-10-16T16:55:42Z</time>
      </trkpt>
      <trkpt lat="45.18904" lon="5.78837">
        <ele>268.7</ele>
        <time>2011-10-16T16:55:44Z</time>
      </trkpt>
      <trkpt lat="45.18902" lon="5.78846">
        <ele>268.7</ele>
        <time>2011-10-16T16:55:46Z</time>
      </trkpt>
      <trkpt lat="45.18898" lon="5.78853">
        <ele>268.7</ele>
        <time>2011-10-16T16:55:48Z</time>
      </trkpt>
      <trkpt lat="45.18893" lon="5.78858">
        <ele>268.5</ele>
        <time>2011-10-16T16:55:50Z</time>
      </trkpt>
      <trkpt lat="45.18886" lon="5.78863">
        <ele>268.3</ele>
        <time>2011-10-16T16:55:52Z</time>
      </trkpt>
      <trkpt lat="45.18878" lon="5.78869">
        <ele>268</ele>
        <time>2011-10-16T16:55:54Z</time>
      </trkpt>
      <trkpt lat="45.1887" lon="5.78876">
        <ele>267.8</ele>
        <time>2011-10-16T16:55:56Z</time>
      </trkpt>
      <trkpt lat="45.18863" lon="5.78881">
        <ele>267.6</ele>
        <time>2011-10-16T16:55:58Z</time>
      </trkpt>
      <trkpt lat="45.18856" lon="5.78886">
        <ele>267.5</ele>
        <time>2011-10-16T16:56:00Z</time>
      </trkpt>
      <trkpt lat="45.18849" lon="5.78892">
        <ele>267.4</ele>
        <time>2011-10-16T16:56:02Z</time>
      </trkpt>
      <trkpt lat="45.18843" lon="5.78897">
        <ele>267.4</ele>
        <time>2011-10-16T16:56:04Z</time>
      </trkpt>
      <trkpt lat="45.18837" lon="5.78902">
        <ele>267.5</ele>
        <time>2011-10-16T16:56:06Z</time>
      </trkpt>
      <trkpt lat="45.1883" lon="5.78903">
        <ele>267.5</ele>
        <time>2011-10-16T16:56:08Z</time>
      </trkpt>
      <trkpt lat="45.18826" lon="5.78896">
        <ele>266.6</ele>
        <time>2011-10-16T16:56:10Z</time>
      </trkpt>
      <trkpt lat="45.18823" lon="5.78885">
        <ele>265.8</ele>
        <time>2011-10-16T16:56:12Z</time>
      </trkpt>
      <trkpt lat="45.18821" lon="5.78873">
        <ele>265.5</ele>
        <time>2011-10-16T16:56:14Z</time>
      </trkpt>
      <trkpt lat="45.18818" lon="5.78861">
        <ele>265.3</ele>
        <time>2011-10-16T16:56:16Z</time>
      </trkpt>
      <trkpt lat="45.18816" lon="5.78849">
        <ele>265</ele>
        <time>2011-10-16T16:56:18Z</time>
      </trkpt>
      <trkpt lat="45.18815" lon="5.78842">
        <ele>264.9</ele>
        <time>2011-10-16T16:56:19Z</time>
      </trkpt>
      <trkpt lat="45.18812" lon="5.7883">
        <ele>264.7</ele>
        <time>2011-10-16T16:56:21Z</time>
      </trkpt>
      <trkpt lat="45.18811" lon="5.78824">
        <ele>264.6</ele>
        <time>2011-10-16T16:56:22Z</time>
      </trkpt>
      <trkpt lat="45.1881" lon="5.78817">
        <ele>264.6</ele>
        <time>2011-10-16T16:56:23Z</time>
      </trkpt>
      <trkpt lat="45.18809" lon="5.78811">
        <ele>264.6</ele>
        <time>2011-10-16T16:56:24Z</time>
      </trkpt>
      <trkpt lat="45.18808" lon="5.78805">
        <ele>264.5</ele>
        <time>2011-10-16T16:56:25Z</time>
      </trkpt>
      <trkpt lat="45.18805" lon="5.78793">
        <ele>264.5</ele>
        <time>2011-10-16T16:56:27Z</time>
      </trkpt>
      <trkpt lat="45.18803" lon="5.7878">
        <ele>264.3</ele>
        <time>2011-10-16T16:56:29Z</time>
      </trkpt>
      <trkpt lat="45.188" lon="5.78768">
        <ele>264.3</ele>
        <time>2011-10-16T16:56:31Z</time>
      </trkpt>
      <trkpt lat="45.18798" lon="5.78756">
        <ele>264.3</ele>
        <time>2011-10-16T16:56:33Z</time>
      </trkpt>
      <trkpt lat="45.18796" lon="5.78745">
        <ele>264.3</ele>
        <time>2011-10-16T16:56:35Z</time>
      </trkpt>
      <trkpt lat="45.18794" lon="5.78735">
        <ele>264.3</ele>
        <time>2011-10-16T16:56:37Z</time>
      </trkpt>
      <trkpt lat="45.1879" lon="5.78726">
        <ele>264.5</ele>
        <time>2011-10-16T16:56:39Z</time>
      </trkpt>
      <trkpt lat="45.18785" lon="5.78718">
        <ele>264.7</ele>
        <time>2011-10-16T16:56:41Z</time>
      </trkpt>
      <trkpt lat="45.18778" lon="5.78713">
        <ele>264.7</ele>
        <time>2011-10-16T16:56:43Z</time>
      </trkpt>
      <trkpt lat="45.18771" lon="5.78711">
        <ele>264.9</ele>
        <time>2011-10-16T16:56:45Z</time>
      </trkpt>
      <trkpt lat="45.18764" lon="5.78712">
        <ele>265.1</ele>
        <time>2011-10-16T16:56:47Z</time>
      </trkpt>
      <trkpt lat="45.18757" lon="5.78712">
        <ele>265.3</ele>
        <time>2011-10-16T16:56:49Z</time>
      </trkpt>
      <trkpt lat="45.1875" lon="5.78711">
        <ele>265.4</ele>
        <time>2011-10-16T16:56:51Z</time>
      </trkpt>
      <trkpt lat="45.18743" lon="5.78711">
        <ele>265.5</ele>
        <time>2011-10-16T16:56:53Z</time>
      </trkpt>
      <trkpt lat="45.18736" lon="5.78709">
        <ele>265.5</ele>
        <time>2011-10-16T16:56:55Z</time>
      </trkpt>
      <trkpt lat="45.18728" lon="5.78706">
        <ele>265.6</ele>
        <time>2011-10-16T16:56:57Z</time>
      </trkpt>
      <trkpt lat="45.18721" lon="5.78704">
        <ele>265.6</ele>
        <time>2011-10-16T16:56:59Z</time>
      </trkpt>
      <trkpt lat="45.18714" lon="5.78702">
        <ele>265.6</ele>
        <time>2011-10-16T16:57:01Z</time>
      </trkpt>
      <trkpt lat="45.18706" lon="5.78702">
        <ele>265.6</ele>
        <time>2011-10-16T16:57:03Z</time>
      </trkpt>
      <trkpt lat="45.18698" lon="5.78702">
        <ele>265.7</ele>
        <time>2011-10-16T16:57:05Z</time>
      </trkpt>
      <trkpt lat="45.18691" lon="5.78704">
        <ele>265.8</ele>
        <time>2011-10-16T16:57:07Z</time>
      </trkpt>
      <trkpt lat="45.18683" lon="5.78706">
        <ele>265.9</ele>
        <time>2011-10-16T16:57:09Z</time>
      </trkpt>
      <trkpt lat="45.18676" lon="5.78708">
        <ele>266</ele>
        <time>2011-10-16T16:57:11Z</time>
      </trkpt>
      <trkpt lat="45.18668" lon="5.78711">
        <ele>266.1</ele>
        <time>2011-10-16T16:57:13Z</time>
      </trkpt>
      <trkpt lat="45.18661" lon="5.78713">
        <ele>266.3</ele>
        <time>2011-10-16T16:57:15Z</time>
      </trkpt>
      <trkpt lat="45.18654" lon="5.78712">
        <ele>266.4</ele>
        <time>2011-10-16T16:57:17Z</time>
      </trkpt>
      <trkpt lat="45.18647" lon="5.78709">
        <ele>266.4</ele>
        <time>2011-10-16T16:57:19Z</time>
      </trkpt>
      <trkpt lat="45.1864" lon="5.78703">
        <ele>266.4</ele>
        <time>2011-10-16T16:57:21Z</time>
      </trkpt>
      <trkpt lat="45.18634" lon="5.78696">
        <ele>266.4</ele>
        <time>2011-10-16T16:57:23Z</time>
      </trkpt>
      <trkpt lat="45.1863" lon="5.78689">
        <ele>266.6</ele>
        <time>2011-10-16T16:57:25Z</time>
      </trkpt>
      <trkpt lat="45.18625" lon="5.78681">
        <ele>266.7</ele>
        <time>2011-10-16T16:57:27Z</time>
      </trkpt>
      <trkpt lat="45.18621" lon="5.78674">
        <ele>266.9</ele>
        <time>2011-10-16T16:57:29Z</time>
      </trkpt>
      <trkpt lat="45.18616" lon="5.78666">
        <ele>267</ele>
        <time>2011-10-16T16:57:31Z</time>
      </trkpt>
      <trkpt lat="45.18612" lon="5.78657">
        <ele>267.1</ele>
        <time>2011-10-16T16:57:33Z</time>
      </trkpt>
      <trkpt lat="45.18608" lon="5.7865">
        <ele>267.3</ele>
        <time>2011-10-16T16:57:35Z</time>
      </trkpt>
      <trkpt lat="45.18604" lon="5.78643">
        <ele>267.5</ele>
        <time>2011-10-16T16:57:37Z</time>
      </trkpt>
      <trkpt lat="45.18602" lon="5.78634">
        <ele>267.5</ele>
        <time>2011-10-16T16:57:39Z</time>
      </trkpt>
      <trkpt lat="45.18598" lon="5.78625">
        <ele>267.7</ele>
        <time>2011-10-16T16:57:41Z</time>
      </trkpt>
      <trkpt lat="45.18596" lon="5.78615">
        <ele>267.6</ele>
        <time>2011-10-16T16:57:43Z</time>
      </trkpt>
      <trkpt lat="45.18593" lon="5.78606">
        <ele>267.6</ele>
        <time>2011-10-16T16:57:45Z</time>
      </trkpt>
      <trkpt lat="45.1859" lon="5.78597">
        <ele>267.9</ele>
        <time>2011-10-16T16:57:47Z</time>
      </trkpt>
      <trkpt lat="45.18587" lon="5.78587">
        <ele>267.8</ele>
        <time>2011-10-16T16:57:49Z</time>
      </trkpt>
      <trkpt lat="45.18584" lon="5.78578">
        <ele>268.3</ele>
        <time>2011-10-16T16:57:51Z</time>
      </trkpt>
      <trkpt lat="45.18581" lon="5.78567">
        <ele>268.9</ele>
        <time>2011-10-16T16:57:53Z</time>
      </trkpt>
      <trkpt lat="45.18578" lon="5.78557">
        <ele>269.1</ele>
        <time>2011-10-16T16:57:55Z</time>
      </trkpt>
      <trkpt lat="45.18574" lon="5.78547">
        <ele>269.4</ele>
        <time>2011-10-16T16:57:57Z</time>
      </trkpt>
      <trkpt lat="45.18571" lon="5.78538">
        <ele>269.8</ele>
        <time>2011-10-16T16:57:59Z</time>
      </trkpt>
      <trkpt lat="45.18568" lon="5.78528">
        <ele>269.9</ele>
        <time>2011-10-16T16:58:01Z</time>
      </trkpt>
      <trkpt lat="45.18565" lon="5.78518">
        <ele>269.7</ele>
        <time>2011-10-16T16:58:03Z</time>
      </trkpt>
      <trkpt lat="45.18562" lon="5.7851">
        <ele>269.6</ele>
        <time>2011-10-16T16:58:05Z</time>
      </trkpt>
      <trkpt lat="45.18557" lon="5.78504">
        <ele>269.5</ele>
        <time>2011-10-16T16:58:07Z</time>
      </trkpt>
      <trkpt lat="45.18551" lon="5.78503">
        <ele>269.5</ele>
        <time>2011-10-16T16:58:09Z</time>
      </trkpt>
      <trkpt lat="45.18545" lon="5.785">
        <ele>269.3</ele>
        <time>2011-10-16T16:58:11Z</time>
      </trkpt>
      <trkpt lat="45.18542" lon="5.78493">
        <ele>268.9</ele>
        <time>2011-10-16T16:58:13Z</time>
      </trkpt>
      <trkpt lat="45.1854" lon="5.78483">
        <ele>268.2</ele>
        <time>2011-10-16T16:58:15Z</time>
      </trkpt>
      <trkpt lat="45.18537" lon="5.78472">
        <ele>267.6</ele>
        <time>2011-10-16T16:58:17Z</time>
      </trkpt>
      <trkpt lat="45.18533" lon="5.78461">
        <ele>266.9</ele>
        <time>2011-10-16T16:58:19Z</time>
      </trkpt>
      <trkpt lat="45.1853" lon="5.78449">
        <ele>266.1</ele>
        <time>2011-10-16T16:58:21Z</time>
      </trkpt>
      <trkpt lat="45.18529" lon="5.78442">
        <ele>265.7</ele>
        <time>2011-10-16T16:58:22Z</time>
      </trkpt>
      <trkpt lat="45.18526" lon="5.78435">
        <ele>265.3</ele>
        <time>2011-10-16T16:58:23Z</time>
      </trkpt>
      <trkpt lat="45.18524" lon="5.78428">
        <ele>264.9</ele>
        <time>2011-10-16T16:58:24Z</time>
      </trkpt>
      <trkpt lat="45.18522" lon="5.7842">
        <ele>264.6</ele>
        <time>2011-10-16T16:58:25Z</time>
      </trkpt>
      <trkpt lat="45.18519" lon="5.78411">
        <ele>264.2</ele>
        <time>2011-10-16T16:58:26Z</time>
      </trkpt>
      <trkpt lat="45.18515" lon="5.78403">
        <ele>263.9</ele>
        <time>2011-10-16T16:58:27Z</time>
      </trkpt>
      <trkpt lat="45.1851" lon="5.78396">
        <ele>263.8</ele>
        <time>2011-10-16T16:58:28Z</time>
      </trkpt>
      <trkpt lat="45.18505" lon="5.78389">
        <ele>263.6</ele>
        <time>2011-10-16T16:58:29Z</time>
      </trkpt>
      <trkpt lat="45.185" lon="5.78383">
        <ele>263.5</ele>
        <time>2011-10-16T16:58:30Z</time>
      </trkpt>
      <trkpt lat="45.18495" lon="5.78377">
        <ele>263.4</ele>
        <time>2011-10-16T16:58:31Z</time>
      </trkpt>
      <trkpt lat="45.18491" lon="5.78371">
        <ele>263.4</ele>
        <time>2011-10-16T16:58:32Z</time>
      </trkpt>
      <trkpt lat="45.18467" lon="5.78341">
        <ele>262.9</ele>
        <time>2011-10-16T16:58:37Z</time>
      </trkpt>
      <trkpt lat="45.18462" lon="5.78344">
        <ele>262.8</ele>
        <time>2011-10-16T16:58:38Z</time>
      </trkpt>
      <trkpt lat="45.18456" lon="5.78358">
        <ele>262.5</ele>
        <time>2011-10-16T16:58:39Z</time>
      </trkpt>
      <trkpt lat="45.18453" lon="5.7835">
        <ele>261.3</ele>
        <time>2011-10-16T16:58:40Z</time>
      </trkpt>
      <trkpt lat="45.18448" lon="5.78342">
        <ele>261.2</ele>
        <time>2011-10-16T16:58:42Z</time>
      </trkpt>
      <trkpt lat="45.18444" lon="5.78334">
        <ele>263.2</ele>
        <time>2011-10-16T16:58:44Z</time>
      </trkpt>
      <trkpt lat="45.18441" lon="5.78325">
        <ele>263.6</ele>
        <time>2011-10-16T16:58:46Z</time>
      </trkpt>
      <trkpt lat="45.18439" lon="5.78318">
        <ele>264</ele>
        <time>2011-10-16T16:58:48Z</time>
      </trkpt>
      <trkpt lat="45.18438" lon="5.7831">
        <ele>264.4</ele>
        <time>2011-10-16T16:58:50Z</time>
      </trkpt>
      <trkpt lat="45.18437" lon="5.78303">
        <ele>264.9</ele>
        <time>2011-10-16T16:58:52Z</time>
      </trkpt>
      <trkpt lat="45.18436" lon="5.78297">
        <ele>265.4</ele>
        <time>2011-10-16T16:58:54Z</time>
      </trkpt>
      <trkpt lat="45.18436" lon="5.7829">
        <ele>265.8</ele>
        <time>2011-10-16T16:58:56Z</time>
      </trkpt>
      <trkpt lat="45.18434" lon="5.78281">
        <ele>266.6</ele>
        <time>2011-10-16T16:58:59Z</time>
      </trkpt>
      <trkpt lat="45.18433" lon="5.78273">
        <ele>267.4</ele>
        <time>2011-10-16T16:59:02Z</time>
      </trkpt>
      <trkpt lat="45.18432" lon="5.78266">
        <ele>267.6</ele>
        <time>2011-10-16T16:59:04Z</time>
      </trkpt>
      <trkpt lat="45.1843" lon="5.78257">
        <ele>268</ele>
        <time>2011-10-16T16:59:07Z</time>
      </trkpt>
      <trkpt lat="45.18427" lon="5.78249">
        <ele>268.4</ele>
        <time>2011-10-16T16:59:10Z</time>
      </trkpt>
      <trkpt lat="45.18424" lon="5.78242">
        <ele>268.6</ele>
        <time>2011-10-16T16:59:13Z</time>
      </trkpt>
      <trkpt lat="45.18419" lon="5.78237">
        <ele>268.7</ele>
        <time>2011-10-16T16:59:16Z</time>
      </trkpt>
      <trkpt lat="45.18413" lon="5.78235">
        <ele>268.8</ele>
        <time>2011-10-16T16:59:19Z</time>
      </trkpt>
      <trkpt lat="45.18408" lon="5.78236">
        <ele>268.9</ele>
        <time>2011-10-16T16:59:21Z</time>
      </trkpt>
      <trkpt lat="45.18403" lon="5.78238">
        <ele>268.7</ele>
        <time>2011-10-16T16:59:23Z</time>
      </trkpt>
      <trkpt lat="45.18398" lon="5.78241">
        <ele>268.7</ele>
        <time>2011-10-16T16:59:25Z</time>
      </trkpt>
      <trkpt lat="45.18393" lon="5.78243">
        <ele>268.8</ele>
        <time>2011-10-16T16:59:27Z</time>
      </trkpt>
      <trkpt lat="45.18387" lon="5.78244">
        <ele>268.9</ele>
        <time>2011-10-16T16:59:29Z</time>
      </trkpt>
      <trkpt lat="45.18381" lon="5.78244">
        <ele>268.9</ele>
        <time>2011-10-16T16:59:31Z</time>
      </trkpt>
      <trkpt lat="45.18375" lon="5.78243">
        <ele>268.9</ele>
        <time>2011-10-16T16:59:33Z</time>
      </trkpt>
      <trkpt lat="45.1837" lon="5.78247">
        <ele>269</ele>
        <time>2011-10-16T16:59:35Z</time>
      </trkpt>
      <trkpt lat="45.18368" lon="5.78254">
        <ele>268.9</ele>
        <time>2011-10-16T16:59:37Z</time>
      </trkpt>
      <trkpt lat="45.18369" lon="5.78263">
        <ele>268.7</ele>
        <time>2011-10-16T16:59:39Z</time>
      </trkpt>
      <trkpt lat="45.1837" lon="5.78272">
        <ele>268.5</ele>
        <time>2011-10-16T16:59:41Z</time>
      </trkpt>
      <trkpt lat="45.1837" lon="5.7828">
        <ele>268.5</ele>
        <time>2011-10-16T16:59:43Z</time>
      </trkpt>
      <trkpt lat="45.1837" lon="5.78288">
        <ele>268.5</ele>
        <time>2011-10-16T16:59:45Z</time>
      </trkpt>
      <trkpt lat="45.1837" lon="5.78296">
        <ele>268.6</ele>
        <time>2011-10-16T16:59:47Z</time>
      </trkpt>
      <trkpt lat="45.18372" lon="5.78305">
        <ele>269</ele>
        <time>2011-10-16T16:59:49Z</time>
      </trkpt>
      <trkpt lat="45.18372" lon="5.78313">
        <ele>269.1</ele>
        <time>2011-10-16T16:59:51Z</time>
      </trkpt>
      <trkpt lat="45.18371" lon="5.78322">
        <ele>269.5</ele>
        <time>2011-10-16T16:59:53Z</time>
      </trkpt>
      <trkpt lat="45.18368" lon="5.78329">
        <ele>269.7</ele>
        <time>2011-10-16T16:59:55Z</time>
      </trkpt>
      <trkpt lat="45.18365" lon="5.78335">
        <ele>269.8</ele>
        <time>2011-10-16T16:59:57Z</time>
      </trkpt>
      <trkpt lat="45.1836" lon="5.7834">
        <ele>270.7</ele>
        <time>2011-10-16T17:00:00Z</time>
      </trkpt>
      <trkpt lat="45.18355" lon="5.78341">
        <ele>273.6</ele>
        <time>2011-10-16T17:01:11Z</time>
      </trkpt>
      <trkpt lat="45.18356" lon="5.78335">
        <ele>269.4</ele>
        <time>2011-10-16T17:01:16Z</time>
      </trkpt>
      <trkpt lat="45.18359" lon="5.78329">
        <ele>268.4</ele>
        <time>2011-10-16T17:01:32Z</time>
      </trkpt>
      <trkpt lat="45.18356" lon="5.78323">
        <ele>267</ele>
        <time>2011-10-16T17:01:47Z</time>
      </trkpt>
      <trkpt lat="45.18352" lon="5.78323">
        <ele>261.3</ele>
        <time>2011-10-16T17:02:04Z</time>
      </trkpt>
    </trkseg>
  </trk>
</gpx>